<?xml version='1.0' encoding='UTF-8'?><gpx version="1.1" creator="JPX - https://github.com/jenetics/jpx" xmlns="http://www.topografix.com/GPX/1/1"><trk><trkseg><trkpt lat="40.8384033" lon="8.4011717"><ele>5.0</ele><time>2026-04-19T07:31:05.501Z</time></trkpt><trkpt lat="40.8383183" lon="8.4011767"><ele>5.0</ele><time>2026-04-19T07:31:13.502Z</time></trkpt><trkpt lat="40.83823" lon="8.40118"><ele>5.0</ele><time>2026-04-19T07:31:16.501Z</time></trkpt><trkpt lat="40.8381667" lon="8.40118"><ele>5.0</ele><time>2026-04-19T07:31:18.502Z</time></trkpt><trkpt lat="40.83808" lon="8.4011667"><ele>5.0</ele><time>2026-04-19T07:31:20.502Z</time></trkpt><trkpt lat="40.8379683" lon="8.401165"><ele>5.0</ele><time>2026-04-19T07:31:22.501Z</time></trkpt><trkpt lat="40.8379" lon="8.40116"><ele>5.0</ele><time>2026-04-19T07:31:23.502Z</time></trkpt><trkpt lat="40.8377533" lon="8.4011483"><ele>5.0</ele><time>2026-04-19T07:31:25.501Z</time></trkpt><trkpt lat="40.8376833" lon="8.4011583"><ele>5.0</ele><time>2026-04-19T07:31:26.502Z</time></trkpt><trkpt lat="40.8376167" lon="8.4011683"><ele>5.0</ele><time>2026-04-19T07:31:27.502Z</time></trkpt><trkpt lat="40.8375533" lon="8.401175"><ele>5.0</ele><time>2026-04-19T07:31:28.501Z</time></trkpt><trkpt lat="40.8374867" lon="8.4011783"><ele>5.0</ele><time>2026-04-19T07:31:29.501Z</time></trkpt><trkpt lat="40.83741" lon="8.4011833"><ele>5.25</ele><time>2026-04-19T07:31:30.501Z</time></trkpt><trkpt lat="40.83724" lon="8.4011767"><ele>5.5</ele><time>2026-04-19T07:31:32.501Z</time></trkpt><trkpt lat="40.837155" lon="8.4011717"><ele>5.75</ele><time>2026-04-19T07:31:33.501Z</time></trkpt><trkpt lat="40.83707" lon="8.4011583"><ele>6.0</ele><time>2026-04-19T07:31:34.502Z</time></trkpt><trkpt lat="40.8368283" lon="8.4011383"><ele>6.6</ele><time>2026-04-19T07:31:37.502Z</time></trkpt><trkpt lat="40.8367433" lon="8.4011433"><ele>7.199999999999999</ele><time>2026-04-19T07:31:38.501Z</time></trkpt><trkpt lat="40.8366567" lon="8.4011517"><ele>7.800000000000001</ele><time>2026-04-19T07:31:39.502Z</time></trkpt><trkpt lat="40.83657" lon="8.4011567"><ele>8.4</ele><time>2026-04-19T07:31:40.501Z</time></trkpt><trkpt lat="40.8364117" lon="8.4011567"><ele>9.0</ele><time>2026-04-19T07:31:42.501Z</time></trkpt><trkpt lat="40.83633" lon="8.40115"><ele>9.0</ele><time>2026-04-19T07:31:43.501Z</time></trkpt><trkpt lat="40.836265" lon="8.4011483"><ele>9.0</ele><time>2026-04-19T07:31:44.502Z</time></trkpt><trkpt lat="40.8360767" lon="8.40113"><ele>9.0</ele><time>2026-04-19T07:31:48.501Z</time></trkpt><trkpt lat="40.8360617" lon="8.4010067"><ele>9.0</ele><time>2026-04-19T07:31:51.501Z</time></trkpt><trkpt lat="40.83606" lon="8.40085"><ele>9.0</ele><time>2026-04-19T07:31:53.501Z</time></trkpt><trkpt lat="40.836065" lon="8.40073"><ele>9.0</ele><time>2026-04-19T07:31:55.502Z</time></trkpt><trkpt lat="40.836065" lon="8.40064"><ele>9.0</ele><time>2026-04-19T07:31:57.501Z</time></trkpt><trkpt lat="40.8360683" lon="8.4005283"><ele>9.0</ele><time>2026-04-19T07:31:59.501Z</time></trkpt><trkpt lat="40.8360717" lon="8.400425"><ele>9.0</ele><time>2026-04-19T07:32:01.502Z</time></trkpt><trkpt lat="40.8360667" lon="8.4003217"><ele>9.0</ele><time>2026-04-19T07:32:20.502Z</time></trkpt><trkpt lat="40.83598" lon="8.4002983"><ele>9.5</ele><time>2026-04-19T07:32:22.502Z</time></trkpt><trkpt lat="40.8359167" lon="8.4003033"><ele>10.0</ele><time>2026-04-19T07:32:23.501Z</time></trkpt><trkpt lat="40.8358517" lon="8.4003017"><ele>10.5</ele><time>2026-04-19T07:32:24.501Z</time></trkpt><trkpt lat="40.8357867" lon="8.400315"><ele>11.0</ele><time>2026-04-19T07:32:25.501Z</time></trkpt><trkpt lat="40.835615" lon="8.4003133"><ele>11.5</ele><time>2026-04-19T07:32:27.501Z</time></trkpt><trkpt lat="40.8355383" lon="8.4002967"><ele>12.0</ele><time>2026-04-19T07:32:28.502Z</time></trkpt><trkpt lat="40.8354667" lon="8.4002783"><ele>12.0</ele><time>2026-04-19T07:32:29.501Z</time></trkpt><trkpt lat="40.8354033" lon="8.4002717"><ele>12.0</ele><time>2026-04-19T07:32:30.501Z</time></trkpt><trkpt lat="40.8353367" lon="8.40028"><ele>12.0</ele><time>2026-04-19T07:32:31.501Z</time></trkpt><trkpt lat="40.8352333" lon="8.40023"><ele>12.0</ele><time>2026-04-19T07:32:33.502Z</time></trkpt><trkpt lat="40.8351317" lon="8.400215"><ele>12.0</ele><time>2026-04-19T07:32:35.501Z</time></trkpt><trkpt lat="40.83489" lon="8.4002467"><ele>12.6</ele><time>2026-04-19T07:32:39.501Z</time></trkpt><trkpt lat="40.83479" lon="8.400255"><ele>13.2</ele><time>2026-04-19T07:32:40.502Z</time></trkpt><trkpt lat="40.83469" lon="8.4002617"><ele>13.8</ele><time>2026-04-19T07:32:41.501Z</time></trkpt><trkpt lat="40.8346017" lon="8.4002633"><ele>14.4</ele><time>2026-04-19T07:32:42.501Z</time></trkpt><trkpt lat="40.8344583" lon="8.4002533"><ele>15.0</ele><time>2026-04-19T07:32:44.502Z</time></trkpt><trkpt lat="40.834365" lon="8.400255"><ele>15.166666666666666</ele><time>2026-04-19T07:32:46.501Z</time></trkpt><trkpt lat="40.8342867" lon="8.4003167"><ele>15.333333333333332</ele><time>2026-04-19T07:32:50.501Z</time></trkpt><trkpt lat="40.8342167" lon="8.4003083"><ele>15.5</ele><time>2026-04-19T07:32:52.501Z</time></trkpt><trkpt lat="40.834125" lon="8.40029"><ele>15.666666666666666</ele><time>2026-04-19T07:32:55.502Z</time></trkpt><trkpt lat="40.8340533" lon="8.4002717"><ele>15.833333333333332</ele><time>2026-04-19T07:32:57.501Z</time></trkpt><trkpt lat="40.8339767" lon="8.4002667"><ele>16.0</ele><time>2026-04-19T07:32:59.501Z</time></trkpt><trkpt lat="40.8339133" lon="8.400255"><ele>15.999999999999998</ele><time>2026-04-19T07:33:03.502Z</time></trkpt><trkpt lat="40.83385" lon="8.4002717"><ele>16.0</ele><time>2026-04-19T07:33:22.501Z</time></trkpt><trkpt lat="40.8337483" lon="8.4002917"><ele>16.0</ele><time>2026-04-19T07:33:25.501Z</time></trkpt><trkpt lat="40.8336733" lon="8.4002967"><ele>16.0</ele><time>2026-04-19T07:33:28.502Z</time></trkpt><trkpt lat="40.83359" lon="8.400295"><ele>15.999999999999998</ele><time>2026-04-19T07:33:30.501Z</time></trkpt><trkpt lat="40.833515" lon="8.4003"><ele>16.0</ele><time>2026-04-19T07:33:31.502Z</time></trkpt><trkpt lat="40.8334317" lon="8.4002867"><ele>15.999999999999998</ele><time>2026-04-19T07:33:32.501Z</time></trkpt><trkpt lat="40.83336" lon="8.4002683"><ele>16.0</ele><time>2026-04-19T07:33:33.502Z</time></trkpt><trkpt lat="40.83324" lon="8.4002517"><ele>16.0</ele><time>2026-04-19T07:33:35.502Z</time></trkpt><trkpt lat="40.8331483" lon="8.4002467"><ele>16.0</ele><time>2026-04-19T07:33:37.502Z</time></trkpt><trkpt lat="40.833085" lon="8.40026"><ele>15.999999999999998</ele><time>2026-04-19T07:33:40.501Z</time></trkpt><trkpt lat="40.83309" lon="8.40014"><ele>16.0</ele><time>2026-04-19T07:33:42.501Z</time></trkpt><trkpt lat="40.8331033" lon="8.4000383"><ele>15.999999999999998</ele><time>2026-04-19T07:33:43.501Z</time></trkpt><trkpt lat="40.8331233" lon="8.39993"><ele>16.0</ele><time>2026-04-19T07:33:44.501Z</time></trkpt><trkpt lat="40.8331367" lon="8.399815"><ele>16.0</ele><time>2026-04-19T07:33:45.502Z</time></trkpt><trkpt lat="40.8331517" lon="8.3997067"><ele>16.0</ele><time>2026-04-19T07:33:46.501Z</time></trkpt><trkpt lat="40.833155" lon="8.3996017"><ele>15.999999999999998</ele><time>2026-04-19T07:33:47.502Z</time></trkpt><trkpt lat="40.83316" lon="8.3994933"><ele>16.0</ele><time>2026-04-19T07:33:48.501Z</time></trkpt><trkpt lat="40.8331717" lon="8.3993967"><ele>15.8</ele><time>2026-04-19T07:33:49.501Z</time></trkpt><trkpt lat="40.8331767" lon="8.3992433"><ele>15.600000000000001</ele><time>2026-04-19T07:33:51.501Z</time></trkpt><trkpt lat="40.8331567" lon="8.3991383"><ele>15.4</ele><time>2026-04-19T07:33:53.502Z</time></trkpt><trkpt lat="40.8331733" lon="8.3990083"><ele>15.2</ele><time>2026-04-19T07:33:55.501Z</time></trkpt><trkpt lat="40.8332383" lon="8.398885"><ele>15.0</ele><time>2026-04-19T07:33:57.501Z</time></trkpt><trkpt lat="40.8332983" lon="8.3987533"><ele>14.333333333333334</ele><time>2026-04-19T07:33:59.501Z</time></trkpt><trkpt lat="40.8333383" lon="8.39868"><ele>13.666666666666666</ele><time>2026-04-19T07:34:00.501Z</time></trkpt><trkpt lat="40.833375" lon="8.3985883"><ele>13.0</ele><time>2026-04-19T07:34:01.501Z</time></trkpt><trkpt lat="40.8334167" lon="8.3985017"><ele>12.333333333333332</ele><time>2026-04-19T07:34:02.501Z</time></trkpt><trkpt lat="40.833455" lon="8.398405"><ele>11.666666666666666</ele><time>2026-04-19T07:34:03.501Z</time></trkpt><trkpt lat="40.8334933" lon="8.3983133"><ele>11.0</ele><time>2026-04-19T07:34:04.501Z</time></trkpt><trkpt lat="40.8335333" lon="8.398245"><ele>11.0</ele><time>2026-04-19T07:34:05.501Z</time></trkpt><trkpt lat="40.8335833" lon="8.3981817"><ele>11.0</ele><time>2026-04-19T07:34:06.501Z</time></trkpt><trkpt lat="40.8336383" lon="8.3981367"><ele>11.0</ele><time>2026-04-19T07:34:07.502Z</time></trkpt><trkpt lat="40.83371" lon="8.3980933"><ele>11.0</ele><time>2026-04-19T07:34:08.502Z</time></trkpt><trkpt lat="40.8337833" lon="8.3980533"><ele>11.0</ele><time>2026-04-19T07:34:09.502Z</time></trkpt><trkpt lat="40.833865" lon="8.3980317"><ele>11.0</ele><time>2026-04-19T07:34:10.502Z</time></trkpt><trkpt lat="40.8339417" lon="8.397985"><ele>10.333333333333332</ele><time>2026-04-19T07:34:11.501Z</time></trkpt><trkpt lat="40.8340433" lon="8.39795"><ele>9.666666666666666</ele><time>2026-04-19T07:34:12.501Z</time></trkpt><trkpt lat="40.8341517" lon="8.3979117"><ele>9.0</ele><time>2026-04-19T07:34:13.502Z</time></trkpt><trkpt lat="40.8343783" lon="8.3977917"><ele>9.0</ele><time>2026-04-19T07:34:15.502Z</time></trkpt><trkpt lat="40.8345017" lon="8.3977433"><ele>9.0</ele><time>2026-04-19T07:34:16.502Z</time></trkpt><trkpt lat="40.8346167" lon="8.3976717"><ele>9.0</ele><time>2026-04-19T07:34:17.501Z</time></trkpt><trkpt lat="40.8347217" lon="8.3975883"><ele>9.0</ele><time>2026-04-19T07:34:18.501Z</time></trkpt><trkpt lat="40.8348167" lon="8.3974817"><ele>9.0</ele><time>2026-04-19T07:34:19.501Z</time></trkpt><trkpt lat="40.8349117" lon="8.3973433"><ele>9.0</ele><time>2026-04-19T07:34:20.502Z</time></trkpt><trkpt lat="40.835005" lon="8.3971933"><ele>9.0</ele><time>2026-04-19T07:34:21.502Z</time></trkpt><trkpt lat="40.835085" lon="8.39704"><ele>9.0</ele><time>2026-04-19T07:34:22.501Z</time></trkpt><trkpt lat="40.835245" lon="8.3968167"><ele>8.5</ele><time>2026-04-19T07:34:24.502Z</time></trkpt><trkpt lat="40.835465" lon="8.3964283"><ele>8.0</ele><time>2026-04-19T07:34:27.502Z</time></trkpt><trkpt lat="40.8355033" lon="8.3962817"><ele>8.0</ele><time>2026-04-19T07:34:28.502Z</time></trkpt><trkpt lat="40.8355267" lon="8.3961267"><ele>8.0</ele><time>2026-04-19T07:34:29.501Z</time></trkpt><trkpt lat="40.83554" lon="8.3959717"><ele>8.0</ele><time>2026-04-19T07:34:30.501Z</time></trkpt><trkpt lat="40.83555" lon="8.3958267"><ele>8.0</ele><time>2026-04-19T07:34:31.501Z</time></trkpt><trkpt lat="40.835555" lon="8.3956667"><ele>7.25</ele><time>2026-04-19T07:34:32.501Z</time></trkpt><trkpt lat="40.83556" lon="8.3954917"><ele>6.5</ele><time>2026-04-19T07:34:33.502Z</time></trkpt><trkpt lat="40.835595" lon="8.3953283"><ele>5.75</ele><time>2026-04-19T07:34:34.502Z</time></trkpt><trkpt lat="40.83562" lon="8.3951633"><ele>5.0</ele><time>2026-04-19T07:34:35.502Z</time></trkpt><trkpt lat="40.8356683" lon="8.3950183"><ele>5.0</ele><time>2026-04-19T07:34:36.502Z</time></trkpt><trkpt lat="40.8357267" lon="8.3948917"><ele>5.0</ele><time>2026-04-19T07:34:37.502Z</time></trkpt><trkpt lat="40.83579" lon="8.3947717"><ele>5.0</ele><time>2026-04-19T07:34:38.501Z</time></trkpt><trkpt lat="40.8358617" lon="8.3946733"><ele>5.0</ele><time>2026-04-19T07:34:39.501Z</time></trkpt><trkpt lat="40.8359317" lon="8.3945733"><ele>5.0</ele><time>2026-04-19T07:34:40.501Z</time></trkpt><trkpt lat="40.8360033" lon="8.394475"><ele>5.0</ele><time>2026-04-19T07:34:41.501Z</time></trkpt><trkpt lat="40.83607" lon="8.3943633"><ele>5.0</ele><time>2026-04-19T07:34:42.501Z</time></trkpt><trkpt lat="40.836135" lon="8.394235"><ele>5.0</ele><time>2026-04-19T07:34:43.501Z</time></trkpt><trkpt lat="40.8362017" lon="8.39411"><ele>5.0</ele><time>2026-04-19T07:34:44.502Z</time></trkpt><trkpt lat="40.8362633" lon="8.393995"><ele>5.0</ele><time>2026-04-19T07:34:45.502Z</time></trkpt><trkpt lat="40.8363217" lon="8.39387"><ele>4.333333333333334</ele><time>2026-04-19T07:34:46.502Z</time></trkpt><trkpt lat="40.8363717" lon="8.39374"><ele>3.666666666666667</ele><time>2026-04-19T07:34:47.502Z</time></trkpt><trkpt lat="40.8364183" lon="8.3936183"><ele>3.0</ele><time>2026-04-19T07:34:48.502Z</time></trkpt><trkpt lat="40.83647" lon="8.3935233"><ele>2.3333333333333335</ele><time>2026-04-19T07:34:49.502Z</time></trkpt><trkpt lat="40.8365233" lon="8.393455"><ele>1.6666666666666665</ele><time>2026-04-19T07:34:50.501Z</time></trkpt><trkpt lat="40.8365917" lon="8.3934333"><ele>1.0</ele><time>2026-04-19T07:34:51.502Z</time></trkpt><trkpt lat="40.836675" lon="8.3934617"><ele>1.0</ele><time>2026-04-19T07:34:52.501Z</time></trkpt><trkpt lat="40.8367717" lon="8.3935267"><ele>1.0</ele><time>2026-04-19T07:34:53.502Z</time></trkpt><trkpt lat="40.8369767" lon="8.3936467"><ele>1.0</ele><time>2026-04-19T07:34:55.501Z</time></trkpt><trkpt lat="40.8370917" lon="8.3937117"><ele>1.25</ele><time>2026-04-19T07:34:56.502Z</time></trkpt><trkpt lat="40.8372067" lon="8.3937833"><ele>1.5</ele><time>2026-04-19T07:34:57.502Z</time></trkpt><trkpt lat="40.8373217" lon="8.393865"><ele>1.75</ele><time>2026-04-19T07:34:58.501Z</time></trkpt><trkpt lat="40.8374317" lon="8.3939583"><ele>2.0</ele><time>2026-04-19T07:34:59.502Z</time></trkpt><trkpt lat="40.837535" lon="8.3940667"><ele>3.0</ele><time>2026-04-19T07:35:00.501Z</time></trkpt><trkpt lat="40.83774" lon="8.3943283"><ele>4.0</ele><time>2026-04-19T07:35:02.502Z</time></trkpt><trkpt lat="40.8378367" lon="8.394475"><ele>5.0</ele><time>2026-04-19T07:35:03.501Z</time></trkpt><trkpt lat="40.8379317" lon="8.3946317"><ele>4.5</ele><time>2026-04-19T07:35:04.501Z</time></trkpt><trkpt lat="40.8381167" lon="8.3949583"><ele>4.0</ele><time>2026-04-19T07:35:06.501Z</time></trkpt><trkpt lat="40.8381933" lon="8.3951183"><ele>4.0</ele><time>2026-04-19T07:35:07.501Z</time></trkpt><trkpt lat="40.8382583" lon="8.395265"><ele>4.0</ele><time>2026-04-19T07:35:08.501Z</time></trkpt><trkpt lat="40.8383217" lon="8.3953983"><ele>4.0</ele><time>2026-04-19T07:35:09.502Z</time></trkpt><trkpt lat="40.8383733" lon="8.39553"><ele>4.0</ele><time>2026-04-19T07:35:10.501Z</time></trkpt><trkpt lat="40.83842" lon="8.3956633"><ele>4.0</ele><time>2026-04-19T07:35:11.501Z</time></trkpt><trkpt lat="40.83847" lon="8.39579"><ele>4.0</ele><time>2026-04-19T07:35:12.502Z</time></trkpt><trkpt lat="40.83853" lon="8.3960183"><ele>4.0</ele><time>2026-04-19T07:35:14.501Z</time></trkpt><trkpt lat="40.838555" lon="8.39611"><ele>4.0</ele><time>2026-04-19T07:35:15.501Z</time></trkpt><trkpt lat="40.838645" lon="8.3963917"><ele>4.0</ele><time>2026-04-19T07:35:18.502Z</time></trkpt><trkpt lat="40.8386883" lon="8.3964533"><ele>4.0</ele><time>2026-04-19T07:35:19.502Z</time></trkpt><trkpt lat="40.83879" lon="8.3964283"><ele>4.0</ele><time>2026-04-19T07:35:21.501Z</time></trkpt><trkpt lat="40.8388067" lon="8.3962433"><ele>4.0</ele><time>2026-04-19T07:35:23.502Z</time></trkpt><trkpt lat="40.8387783" lon="8.3961167"><ele>4.0</ele><time>2026-04-19T07:35:24.502Z</time></trkpt><trkpt lat="40.8387367" lon="8.395985"><ele>3.75</ele><time>2026-04-19T07:35:25.502Z</time></trkpt><trkpt lat="40.8386817" lon="8.3958367"><ele>3.5</ele><time>2026-04-19T07:35:26.501Z</time></trkpt><trkpt lat="40.8386333" lon="8.395695"><ele>3.25</ele><time>2026-04-19T07:35:27.502Z</time></trkpt><trkpt lat="40.8385817" lon="8.3955517"><ele>3.0</ele><time>2026-04-19T07:35:28.502Z</time></trkpt><trkpt lat="40.8385267" lon="8.3954"><ele>3.25</ele><time>2026-04-19T07:35:29.501Z</time></trkpt><trkpt lat="40.8384667" lon="8.39526"><ele>3.5</ele><time>2026-04-19T07:35:30.501Z</time></trkpt><trkpt lat="40.8384067" lon="8.39512"><ele>3.75</ele><time>2026-04-19T07:35:31.501Z</time></trkpt><trkpt lat="40.8383383" lon="8.3949667"><ele>4.0</ele><time>2026-04-19T07:35:32.501Z</time></trkpt><trkpt lat="40.8382683" lon="8.394825"><ele>4.0</ele><time>2026-04-19T07:35:33.502Z</time></trkpt><trkpt lat="40.8381967" lon="8.39469"><ele>4.0</ele><time>2026-04-19T07:35:34.502Z</time></trkpt><trkpt lat="40.8381217" lon="8.3945483"><ele>4.0</ele><time>2026-04-19T07:35:35.501Z</time></trkpt><trkpt lat="40.83805" lon="8.3944083"><ele>4.0</ele><time>2026-04-19T07:35:36.502Z</time></trkpt><trkpt lat="40.8379817" lon="8.3942567"><ele>4.25</ele><time>2026-04-19T07:35:37.502Z</time></trkpt><trkpt lat="40.8379117" lon="8.3941"><ele>4.5</ele><time>2026-04-19T07:35:38.502Z</time></trkpt><trkpt lat="40.8378683" lon="8.3939433"><ele>4.75</ele><time>2026-04-19T07:35:39.502Z</time></trkpt><trkpt lat="40.83783" lon="8.39378"><ele>5.0</ele><time>2026-04-19T07:35:40.501Z</time></trkpt><trkpt lat="40.837795" lon="8.3936067"><ele>4.5</ele><time>2026-04-19T07:35:41.502Z</time></trkpt><trkpt lat="40.8377683" lon="8.3934267"><ele>4.0</ele><time>2026-04-19T07:35:42.501Z</time></trkpt><trkpt lat="40.837745" lon="8.393235"><ele>3.5</ele><time>2026-04-19T07:35:43.502Z</time></trkpt><trkpt lat="40.8377133" lon="8.393035"><ele>3.0</ele><time>2026-04-19T07:35:44.501Z</time></trkpt><trkpt lat="40.837675" lon="8.39283"><ele>3.0</ele><time>2026-04-19T07:35:45.502Z</time></trkpt><trkpt lat="40.8376417" lon="8.3926167"><ele>3.0</ele><time>2026-04-19T07:35:46.501Z</time></trkpt><trkpt lat="40.8376067" lon="8.3923883"><ele>3.0</ele><time>2026-04-19T07:35:47.501Z</time></trkpt><trkpt lat="40.83758" lon="8.3921517"><ele>3.0</ele><time>2026-04-19T07:35:48.501Z</time></trkpt><trkpt lat="40.837545" lon="8.3919217"><ele>3.0</ele><time>2026-04-19T07:35:49.501Z</time></trkpt><trkpt lat="40.8375067" lon="8.3916917"><ele>3.0</ele><time>2026-04-19T07:35:50.502Z</time></trkpt><trkpt lat="40.837465" lon="8.391455"><ele>3.666666666666667</ele><time>2026-04-19T07:35:51.502Z</time></trkpt><trkpt lat="40.837425" lon="8.3912183"><ele>4.333333333333334</ele><time>2026-04-19T07:35:52.502Z</time></trkpt><trkpt lat="40.8373833" lon="8.3909917"><ele>5.0</ele><time>2026-04-19T07:35:53.501Z</time></trkpt><trkpt lat="40.83735" lon="8.39076"><ele>5.0</ele><time>2026-04-19T07:35:54.502Z</time></trkpt><trkpt lat="40.8373283" lon="8.39054"><ele>5.0</ele><time>2026-04-19T07:35:55.501Z</time></trkpt><trkpt lat="40.8373117" lon="8.3903233"><ele>5.0</ele><time>2026-04-19T07:35:56.502Z</time></trkpt><trkpt lat="40.83731" lon="8.3901117"><ele>5.0</ele><time>2026-04-19T07:35:57.502Z</time></trkpt><trkpt lat="40.8373217" lon="8.3899133"><ele>5.0</ele><time>2026-04-19T07:35:58.502Z</time></trkpt><trkpt lat="40.8373417" lon="8.3897133"><ele>5.0</ele><time>2026-04-19T07:35:59.502Z</time></trkpt><trkpt lat="40.8373633" lon="8.3895267"><ele>5.0</ele><time>2026-04-19T07:36:00.502Z</time></trkpt><trkpt lat="40.8373967" lon="8.3893583"><ele>5.0</ele><time>2026-04-19T07:36:01.501Z</time></trkpt><trkpt lat="40.8374367" lon="8.3891983"><ele>5.0</ele><time>2026-04-19T07:36:02.502Z</time></trkpt><trkpt lat="40.8374817" lon="8.3890517"><ele>5.0</ele><time>2026-04-19T07:36:03.501Z</time></trkpt><trkpt lat="40.83752" lon="8.3889183"><ele>5.0</ele><time>2026-04-19T07:36:04.502Z</time></trkpt><trkpt lat="40.8375583" lon="8.3888033"><ele>5.0</ele><time>2026-04-19T07:36:05.501Z</time></trkpt><trkpt lat="40.83759" lon="8.3887017"><ele>5.0</ele><time>2026-04-19T07:36:06.501Z</time></trkpt><trkpt lat="40.83762" lon="8.3886033"><ele>5.0</ele><time>2026-04-19T07:36:07.502Z</time></trkpt><trkpt lat="40.8376783" lon="8.3884367"><ele>5.0</ele><time>2026-04-19T07:36:09.502Z</time></trkpt><trkpt lat="40.8377267" lon="8.3883033"><ele>5.0</ele><time>2026-04-19T07:36:11.502Z</time></trkpt><trkpt lat="40.8378017" lon="8.3882017"><ele>4.6</ele><time>2026-04-19T07:36:13.501Z</time></trkpt><trkpt lat="40.8378567" lon="8.3880833"><ele>4.2</ele><time>2026-04-19T07:36:15.501Z</time></trkpt><trkpt lat="40.8378367" lon="8.3879467"><ele>3.8</ele><time>2026-04-19T07:36:17.502Z</time></trkpt><trkpt lat="40.8377867" lon="8.387895"><ele>3.4</ele><time>2026-04-19T07:36:18.501Z</time></trkpt><trkpt lat="40.83766" lon="8.387875"><ele>3.0</ele><time>2026-04-19T07:36:20.501Z</time></trkpt><trkpt lat="40.8375833" lon="8.3878933"><ele>3.8</ele><time>2026-04-19T07:36:21.502Z</time></trkpt><trkpt lat="40.837505" lon="8.387895"><ele>4.6</ele><time>2026-04-19T07:36:22.501Z</time></trkpt><trkpt lat="40.83742" lon="8.3878667"><ele>5.3999999999999995</ele><time>2026-04-19T07:36:23.501Z</time></trkpt><trkpt lat="40.8373267" lon="8.3878367"><ele>6.199999999999999</ele><time>2026-04-19T07:36:24.502Z</time></trkpt><trkpt lat="40.8372167" lon="8.3878333"><ele>7.0</ele><time>2026-04-19T07:36:25.501Z</time></trkpt><trkpt lat="40.8370917" lon="8.3878467"><ele>7.0</ele><time>2026-04-19T07:36:26.502Z</time></trkpt><trkpt lat="40.8369433" lon="8.3878733"><ele>7.0</ele><time>2026-04-19T07:36:27.501Z</time></trkpt><trkpt lat="40.8367967" lon="8.3879167"><ele>7.0</ele><time>2026-04-19T07:36:28.502Z</time></trkpt><trkpt lat="40.8366383" lon="8.38795"><ele>7.333333333333334</ele><time>2026-04-19T07:36:29.502Z</time></trkpt><trkpt lat="40.836475" lon="8.3879967"><ele>7.666666666666666</ele><time>2026-04-19T07:36:30.501Z</time></trkpt><trkpt lat="40.836305" lon="8.3880333"><ele>8.0</ele><time>2026-04-19T07:36:31.501Z</time></trkpt><trkpt lat="40.836135" lon="8.3880717"><ele>8.0</ele><time>2026-04-19T07:36:32.501Z</time></trkpt><trkpt lat="40.835975" lon="8.3881117"><ele>8.0</ele><time>2026-04-19T07:36:33.502Z</time></trkpt><trkpt lat="40.8358183" lon="8.3881383"><ele>8.0</ele><time>2026-04-19T07:36:34.501Z</time></trkpt><trkpt lat="40.8356833" lon="8.3881567"><ele>8.8</ele><time>2026-04-19T07:36:35.502Z</time></trkpt><trkpt lat="40.8355567" lon="8.3881817"><ele>9.600000000000001</ele><time>2026-04-19T07:36:36.501Z</time></trkpt><trkpt lat="40.8354333" lon="8.3882033"><ele>10.399999999999999</ele><time>2026-04-19T07:36:37.501Z</time></trkpt><trkpt lat="40.8353367" lon="8.3882283"><ele>11.2</ele><time>2026-04-19T07:36:38.502Z</time></trkpt><trkpt lat="40.83524" lon="8.388245"><ele>12.0</ele><time>2026-04-19T07:36:39.501Z</time></trkpt><trkpt lat="40.8351517" lon="8.38826"><ele>13.0</ele><time>2026-04-19T07:36:40.502Z</time></trkpt><trkpt lat="40.8350617" lon="8.3882667"><ele>14.0</ele><time>2026-04-19T07:36:41.501Z</time></trkpt><trkpt lat="40.8349783" lon="8.388255"><ele>15.0</ele><time>2026-04-19T07:36:42.501Z</time></trkpt><trkpt lat="40.8349017" lon="8.388215"><ele>16.0</ele><time>2026-04-19T07:36:43.501Z</time></trkpt><trkpt lat="40.8348233" lon="8.3881417"><ele>17.0</ele><time>2026-04-19T07:36:44.501Z</time></trkpt><trkpt lat="40.834745" lon="8.3880383"><ele>17.0</ele><time>2026-04-19T07:36:45.502Z</time></trkpt><trkpt lat="40.8346733" lon="8.3878933"><ele>17.0</ele><time>2026-04-19T07:36:46.501Z</time></trkpt><trkpt lat="40.8345933" lon="8.387745"><ele>17.0</ele><time>2026-04-19T07:36:47.501Z</time></trkpt><trkpt lat="40.83451" lon="8.3875867"><ele>17.0</ele><time>2026-04-19T07:36:48.502Z</time></trkpt><trkpt lat="40.8344183" lon="8.387435"><ele>17.0</ele><time>2026-04-19T07:36:49.502Z</time></trkpt><trkpt lat="40.8343167" lon="8.3872917"><ele>17.0</ele><time>2026-04-19T07:36:50.501Z</time></trkpt><trkpt lat="40.8342133" lon="8.3871467"><ele>17.0</ele><time>2026-04-19T07:36:51.501Z</time></trkpt><trkpt lat="40.8340967" lon="8.3870183"><ele>17.0</ele><time>2026-04-19T07:36:52.501Z</time></trkpt><trkpt lat="40.8339883" lon="8.386885"><ele>17.0</ele><time>2026-04-19T07:36:53.502Z</time></trkpt><trkpt lat="40.833875" lon="8.38674"><ele>17.0</ele><time>2026-04-19T07:36:54.501Z</time></trkpt><trkpt lat="40.83376" lon="8.3866117"><ele>17.0</ele><time>2026-04-19T07:36:55.501Z</time></trkpt><trkpt lat="40.8336433" lon="8.38649"><ele>17.0</ele><time>2026-04-19T07:36:56.501Z</time></trkpt><trkpt lat="40.833535" lon="8.386365"><ele>17.0</ele><time>2026-04-19T07:36:57.501Z</time></trkpt><trkpt lat="40.83343" lon="8.3862433"><ele>17.0</ele><time>2026-04-19T07:36:58.501Z</time></trkpt><trkpt lat="40.8333383" lon="8.386125"><ele>17.0</ele><time>2026-04-19T07:36:59.501Z</time></trkpt><trkpt lat="40.8332517" lon="8.386035"><ele>17.0</ele><time>2026-04-19T07:37:00.501Z</time></trkpt><trkpt lat="40.8331667" lon="8.3859467"><ele>17.0</ele><time>2026-04-19T07:37:01.502Z</time></trkpt><trkpt lat="40.8330833" lon="8.3858533"><ele>17.0</ele><time>2026-04-19T07:37:02.502Z</time></trkpt><trkpt lat="40.8330117" lon="8.3857567"><ele>17.0</ele><time>2026-04-19T07:37:03.501Z</time></trkpt><trkpt lat="40.832945" lon="8.3856633"><ele>17.0</ele><time>2026-04-19T07:37:04.502Z</time></trkpt><trkpt lat="40.8328783" lon="8.3855767"><ele>17.0</ele><time>2026-04-19T07:37:05.502Z</time></trkpt><trkpt lat="40.8328117" lon="8.385485"><ele>17.0</ele><time>2026-04-19T07:37:06.502Z</time></trkpt><trkpt lat="40.83274" lon="8.385405"><ele>17.0</ele><time>2026-04-19T07:37:07.502Z</time></trkpt><trkpt lat="40.832655" lon="8.3853267"><ele>17.0</ele><time>2026-04-19T07:37:08.502Z</time></trkpt><trkpt lat="40.832565" lon="8.3852533"><ele>17.0</ele><time>2026-04-19T07:37:09.501Z</time></trkpt><trkpt lat="40.8324683" lon="8.385165"><ele>17.0</ele><time>2026-04-19T07:37:10.501Z</time></trkpt><trkpt lat="40.832375" lon="8.385045"><ele>17.0</ele><time>2026-04-19T07:37:11.501Z</time></trkpt><trkpt lat="40.8322783" lon="8.3849083"><ele>17.0</ele><time>2026-04-19T07:37:12.502Z</time></trkpt><trkpt lat="40.8321783" lon="8.3847517"><ele>17.0</ele><time>2026-04-19T07:37:13.502Z</time></trkpt><trkpt lat="40.8320717" lon="8.38459"><ele>17.0</ele><time>2026-04-19T07:37:14.501Z</time></trkpt><trkpt lat="40.831965" lon="8.38444"><ele>17.0</ele><time>2026-04-19T07:37:15.502Z</time></trkpt><trkpt lat="40.83186" lon="8.3842867"><ele>17.333333333333336</ele><time>2026-04-19T07:37:16.501Z</time></trkpt><trkpt lat="40.83175" lon="8.384125"><ele>17.666666666666668</ele><time>2026-04-19T07:37:17.501Z</time></trkpt><trkpt lat="40.8316417" lon="8.38396"><ele>18.0</ele><time>2026-04-19T07:37:18.501Z</time></trkpt><trkpt lat="40.8315333" lon="8.383795"><ele>19.0</ele><time>2026-04-19T07:37:19.501Z</time></trkpt><trkpt lat="40.8314267" lon="8.383635"><ele>20.0</ele><time>2026-04-19T07:37:20.501Z</time></trkpt><trkpt lat="40.8313283" lon="8.3834833"><ele>21.0</ele><time>2026-04-19T07:37:21.502Z</time></trkpt><trkpt lat="40.831235" lon="8.3833217"><ele>21.0</ele><time>2026-04-19T07:37:22.502Z</time></trkpt><trkpt lat="40.8311433" lon="8.38316"><ele>21.0</ele><time>2026-04-19T07:37:23.501Z</time></trkpt><trkpt lat="40.831055" lon="8.382995"><ele>21.0</ele><time>2026-04-19T07:37:24.501Z</time></trkpt><trkpt lat="40.830965" lon="8.3828417"><ele>21.75</ele><time>2026-04-19T07:37:25.502Z</time></trkpt><trkpt lat="40.830885" lon="8.382695"><ele>22.5</ele><time>2026-04-19T07:37:26.502Z</time></trkpt><trkpt lat="40.8308117" lon="8.3825467"><ele>23.25</ele><time>2026-04-19T07:37:27.501Z</time></trkpt><trkpt lat="40.8307433" lon="8.3824"><ele>24.0</ele><time>2026-04-19T07:37:28.502Z</time></trkpt><trkpt lat="40.83068" lon="8.382245"><ele>24.0</ele><time>2026-04-19T07:37:29.501Z</time></trkpt><trkpt lat="40.8306217" lon="8.3821067"><ele>24.0</ele><time>2026-04-19T07:37:30.501Z</time></trkpt><trkpt lat="40.8305633" lon="8.3819717"><ele>24.0</ele><time>2026-04-19T07:37:31.502Z</time></trkpt><trkpt lat="40.830505" lon="8.3818483"><ele>24.0</ele><time>2026-04-19T07:37:32.501Z</time></trkpt><trkpt lat="40.83045" lon="8.3817267"><ele>24.0</ele><time>2026-04-19T07:37:33.501Z</time></trkpt><trkpt lat="40.830395" lon="8.3816083"><ele>24.0</ele><time>2026-04-19T07:37:34.501Z</time></trkpt><trkpt lat="40.8303267" lon="8.38149"><ele>24.0</ele><time>2026-04-19T07:37:35.501Z</time></trkpt><trkpt lat="40.8302383" lon="8.3813667"><ele>24.0</ele><time>2026-04-19T07:37:36.501Z</time></trkpt><trkpt lat="40.8301367" lon="8.38124"><ele>23.666666666666668</ele><time>2026-04-19T07:37:37.502Z</time></trkpt><trkpt lat="40.8300217" lon="8.3811067"><ele>23.333333333333336</ele><time>2026-04-19T07:37:38.502Z</time></trkpt><trkpt lat="40.8299083" lon="8.3809717"><ele>23.0</ele><time>2026-04-19T07:37:39.501Z</time></trkpt><trkpt lat="40.8297867" lon="8.3808167"><ele>23.0</ele><time>2026-04-19T07:37:40.501Z</time></trkpt><trkpt lat="40.829655" lon="8.3806667"><ele>23.0</ele><time>2026-04-19T07:37:41.502Z</time></trkpt><trkpt lat="40.82952" lon="8.3805067"><ele>23.0</ele><time>2026-04-19T07:37:42.502Z</time></trkpt><trkpt lat="40.8293767" lon="8.3803433"><ele>23.666666666666668</ele><time>2026-04-19T07:37:43.501Z</time></trkpt><trkpt lat="40.8292417" lon="8.38018"><ele>24.333333333333336</ele><time>2026-04-19T07:37:44.502Z</time></trkpt><trkpt lat="40.8291133" lon="8.3800183"><ele>25.0</ele><time>2026-04-19T07:37:45.501Z</time></trkpt><trkpt lat="40.82899" lon="8.3798533"><ele>25.0</ele><time>2026-04-19T07:37:46.502Z</time></trkpt><trkpt lat="40.82888" lon="8.3796933"><ele>25.0</ele><time>2026-04-19T07:37:47.501Z</time></trkpt><trkpt lat="40.82878" lon="8.3795633"><ele>25.0</ele><time>2026-04-19T07:37:48.501Z</time></trkpt><trkpt lat="40.828675" lon="8.3794283"><ele>25.0</ele><time>2026-04-19T07:37:49.502Z</time></trkpt><trkpt lat="40.8285833" lon="8.379285"><ele>25.0</ele><time>2026-04-19T07:37:50.501Z</time></trkpt><trkpt lat="40.8284933" lon="8.379135"><ele>25.0</ele><time>2026-04-19T07:37:51.501Z</time></trkpt><trkpt lat="40.8284033" lon="8.378985"><ele>25.0</ele><time>2026-04-19T07:37:52.502Z</time></trkpt><trkpt lat="40.8283183" lon="8.37882"><ele>25.0</ele><time>2026-04-19T07:37:53.501Z</time></trkpt><trkpt lat="40.8282233" lon="8.3786483"><ele>25.0</ele><time>2026-04-19T07:37:54.501Z</time></trkpt><trkpt lat="40.8281283" lon="8.3784733"><ele>25.0</ele><time>2026-04-19T07:37:55.501Z</time></trkpt><trkpt lat="40.82803" lon="8.3783"><ele>25.0</ele><time>2026-04-19T07:37:56.501Z</time></trkpt><trkpt lat="40.8279333" lon="8.378135"><ele>25.0</ele><time>2026-04-19T07:37:57.501Z</time></trkpt><trkpt lat="40.82784" lon="8.377955"><ele>25.0</ele><time>2026-04-19T07:37:58.501Z</time></trkpt><trkpt lat="40.82774" lon="8.377785"><ele>25.333333333333336</ele><time>2026-04-19T07:37:59.501Z</time></trkpt><trkpt lat="40.8276367" lon="8.3776033"><ele>25.666666666666664</ele><time>2026-04-19T07:38:00.501Z</time></trkpt><trkpt lat="40.82754" lon="8.377435"><ele>26.0</ele><time>2026-04-19T07:38:01.501Z</time></trkpt><trkpt lat="40.827435" lon="8.3772667"><ele>25.666666666666664</ele><time>2026-04-19T07:38:02.501Z</time></trkpt><trkpt lat="40.8273233" lon="8.37712"><ele>25.333333333333336</ele><time>2026-04-19T07:38:03.501Z</time></trkpt><trkpt lat="40.8271933" lon="8.37699"><ele>25.0</ele><time>2026-04-19T07:38:04.501Z</time></trkpt><trkpt lat="40.8270483" lon="8.376865"><ele>25.0</ele><time>2026-04-19T07:38:05.502Z</time></trkpt><trkpt lat="40.82689" lon="8.3767533"><ele>25.0</ele><time>2026-04-19T07:38:06.502Z</time></trkpt><trkpt lat="40.8267367" lon="8.37666"><ele>25.0</ele><time>2026-04-19T07:38:07.502Z</time></trkpt><trkpt lat="40.826585" lon="8.3765817"><ele>24.0</ele><time>2026-04-19T07:38:08.502Z</time></trkpt><trkpt lat="40.8264367" lon="8.3765"><ele>23.0</ele><time>2026-04-19T07:38:09.501Z</time></trkpt><trkpt lat="40.826285" lon="8.37642"><ele>22.0</ele><time>2026-04-19T07:38:10.501Z</time></trkpt><trkpt lat="40.82612" lon="8.3763317"><ele>21.333333333333332</ele><time>2026-04-19T07:38:11.502Z</time></trkpt><trkpt lat="40.82595" lon="8.3762817"><ele>20.666666666666668</ele><time>2026-04-19T07:38:12.501Z</time></trkpt><trkpt lat="40.8257733" lon="8.3762767"><ele>20.0</ele><time>2026-04-19T07:38:13.502Z</time></trkpt><trkpt lat="40.82558" lon="8.3762667"><ele>20.0</ele><time>2026-04-19T07:38:14.501Z</time></trkpt><trkpt lat="40.8253833" lon="8.3762483"><ele>20.0</ele><time>2026-04-19T07:38:15.501Z</time></trkpt><trkpt lat="40.82519" lon="8.3762417"><ele>20.0</ele><time>2026-04-19T07:38:16.502Z</time></trkpt><trkpt lat="40.824995" lon="8.3762317"><ele>20.333333333333336</ele><time>2026-04-19T07:38:17.501Z</time></trkpt><trkpt lat="40.8247917" lon="8.3762167"><ele>20.666666666666668</ele><time>2026-04-19T07:38:18.501Z</time></trkpt><trkpt lat="40.8245917" lon="8.3762"><ele>21.0</ele><time>2026-04-19T07:38:19.501Z</time></trkpt><trkpt lat="40.8243917" lon="8.376185"><ele>20.666666666666668</ele><time>2026-04-19T07:38:20.502Z</time></trkpt><trkpt lat="40.8242017" lon="8.3761633"><ele>20.333333333333336</ele><time>2026-04-19T07:38:21.501Z</time></trkpt><trkpt lat="40.8240283" lon="8.3761683"><ele>20.0</ele><time>2026-04-19T07:38:22.501Z</time></trkpt><trkpt lat="40.8238533" lon="8.3761667"><ele>20.0</ele><time>2026-04-19T07:38:23.501Z</time></trkpt><trkpt lat="40.823685" lon="8.3761667"><ele>20.0</ele><time>2026-04-19T07:38:24.501Z</time></trkpt><trkpt lat="40.8235117" lon="8.376165"><ele>20.0</ele><time>2026-04-19T07:38:25.501Z</time></trkpt><trkpt lat="40.8233333" lon="8.37616"><ele>20.333333333333336</ele><time>2026-04-19T07:38:26.502Z</time></trkpt><trkpt lat="40.8231633" lon="8.376175"><ele>20.666666666666668</ele><time>2026-04-19T07:38:27.501Z</time></trkpt><trkpt lat="40.8229867" lon="8.3761817"><ele>21.0</ele><time>2026-04-19T07:38:28.501Z</time></trkpt><trkpt lat="40.8228067" lon="8.376175"><ele>21.666666666666668</ele><time>2026-04-19T07:38:29.502Z</time></trkpt><trkpt lat="40.82263" lon="8.376165"><ele>22.333333333333336</ele><time>2026-04-19T07:38:30.502Z</time></trkpt><trkpt lat="40.822455" lon="8.3761617"><ele>23.0</ele><time>2026-04-19T07:38:31.502Z</time></trkpt><trkpt lat="40.8222817" lon="8.37615"><ele>23.0</ele><time>2026-04-19T07:38:32.502Z</time></trkpt><trkpt lat="40.8221067" lon="8.37615"><ele>23.0</ele><time>2026-04-19T07:38:33.501Z</time></trkpt><trkpt lat="40.8219383" lon="8.3761467"><ele>23.0</ele><time>2026-04-19T07:38:34.502Z</time></trkpt><trkpt lat="40.8217617" lon="8.3761533"><ele>22.333333333333336</ele><time>2026-04-19T07:38:35.501Z</time></trkpt><trkpt lat="40.8215867" lon="8.3761483"><ele>21.666666666666668</ele><time>2026-04-19T07:38:36.501Z</time></trkpt><trkpt lat="40.8214067" lon="8.3761517"><ele>21.0</ele><time>2026-04-19T07:38:37.501Z</time></trkpt><trkpt lat="40.8212283" lon="8.3761417"><ele>21.0</ele><time>2026-04-19T07:38:38.502Z</time></trkpt><trkpt lat="40.8210467" lon="8.3761417"><ele>21.0</ele><time>2026-04-19T07:38:39.501Z</time></trkpt><trkpt lat="40.820865" lon="8.3761433"><ele>21.0</ele><time>2026-04-19T07:38:40.502Z</time></trkpt><trkpt lat="40.8206783" lon="8.3761383"><ele>21.0</ele><time>2026-04-19T07:38:41.501Z</time></trkpt><trkpt lat="40.820495" lon="8.3761233"><ele>21.0</ele><time>2026-04-19T07:38:42.501Z</time></trkpt><trkpt lat="40.8203117" lon="8.376115"><ele>21.0</ele><time>2026-04-19T07:38:43.502Z</time></trkpt><trkpt lat="40.8201233" lon="8.3761133"><ele>22.0</ele><time>2026-04-19T07:38:44.501Z</time></trkpt><trkpt lat="40.8199367" lon="8.376115"><ele>23.0</ele><time>2026-04-19T07:38:45.501Z</time></trkpt><trkpt lat="40.819745" lon="8.3761167"><ele>24.0</ele><time>2026-04-19T07:38:46.501Z</time></trkpt><trkpt lat="40.8195517" lon="8.376105"><ele>24.0</ele><time>2026-04-19T07:38:47.502Z</time></trkpt><trkpt lat="40.819365" lon="8.3761017"><ele>24.0</ele><time>2026-04-19T07:38:48.502Z</time></trkpt><trkpt lat="40.8191783" lon="8.376095"><ele>24.0</ele><time>2026-04-19T07:38:49.502Z</time></trkpt><trkpt lat="40.8189867" lon="8.37609"><ele>23.333333333333332</ele><time>2026-04-19T07:38:50.502Z</time></trkpt><trkpt lat="40.8187933" lon="8.3760917"><ele>22.666666666666664</ele><time>2026-04-19T07:38:51.501Z</time></trkpt><trkpt lat="40.8186083" lon="8.37609"><ele>22.0</ele><time>2026-04-19T07:38:52.501Z</time></trkpt><trkpt lat="40.8184217" lon="8.3760783"><ele>21.666666666666664</ele><time>2026-04-19T07:38:53.502Z</time></trkpt><trkpt lat="40.8182367" lon="8.37607"><ele>21.333333333333332</ele><time>2026-04-19T07:38:54.502Z</time></trkpt><trkpt lat="40.8180483" lon="8.3760617"><ele>21.0</ele><time>2026-04-19T07:38:55.501Z</time></trkpt><trkpt lat="40.8178767" lon="8.3760533"><ele>21.0</ele><time>2026-04-19T07:38:56.501Z</time></trkpt><trkpt lat="40.8177083" lon="8.376045"><ele>21.0</ele><time>2026-04-19T07:38:57.501Z</time></trkpt><trkpt lat="40.81755" lon="8.3760417"><ele>21.0</ele><time>2026-04-19T07:38:58.502Z</time></trkpt><trkpt lat="40.8173933" lon="8.37605"><ele>21.333333333333332</ele><time>2026-04-19T07:38:59.502Z</time></trkpt><trkpt lat="40.8172333" lon="8.3760583"><ele>21.666666666666664</ele><time>2026-04-19T07:39:00.502Z</time></trkpt><trkpt lat="40.817075" lon="8.3760633"><ele>22.0</ele><time>2026-04-19T07:39:01.502Z</time></trkpt><trkpt lat="40.816915" lon="8.3760667"><ele>22.666666666666664</ele><time>2026-04-19T07:39:02.502Z</time></trkpt><trkpt lat="40.8167517" lon="8.3760617"><ele>23.333333333333332</ele><time>2026-04-19T07:39:03.502Z</time></trkpt><trkpt lat="40.8165867" lon="8.3760617"><ele>24.0</ele><time>2026-04-19T07:39:04.502Z</time></trkpt><trkpt lat="40.8164233" lon="8.37607"><ele>24.0</ele><time>2026-04-19T07:39:05.501Z</time></trkpt><trkpt lat="40.8162683" lon="8.376065"><ele>24.0</ele><time>2026-04-19T07:39:06.501Z</time></trkpt><trkpt lat="40.8161133" lon="8.3760317"><ele>24.0</ele><time>2026-04-19T07:39:07.502Z</time></trkpt><trkpt lat="40.81597" lon="8.3760283"><ele>24.2</ele><time>2026-04-19T07:39:08.501Z</time></trkpt><trkpt lat="40.8158533" lon="8.3760283"><ele>24.4</ele><time>2026-04-19T07:39:09.502Z</time></trkpt><trkpt lat="40.8157417" lon="8.3760267"><ele>24.6</ele><time>2026-04-19T07:39:10.501Z</time></trkpt><trkpt lat="40.8156433" lon="8.3760233"><ele>24.8</ele><time>2026-04-19T07:39:11.502Z</time></trkpt><trkpt lat="40.8155533" lon="8.3760233"><ele>25.0</ele><time>2026-04-19T07:39:12.502Z</time></trkpt><trkpt lat="40.81547" lon="8.3760183"><ele>25.0</ele><time>2026-04-19T07:39:13.501Z</time></trkpt><trkpt lat="40.8154" lon="8.3760133"><ele>25.0</ele><time>2026-04-19T07:39:14.501Z</time></trkpt><trkpt lat="40.8152767" lon="8.3760083"><ele>25.0</ele><time>2026-04-19T07:39:16.501Z</time></trkpt><trkpt lat="40.8151633" lon="8.3759733"><ele>25.0</ele><time>2026-04-19T07:39:18.501Z</time></trkpt><trkpt lat="40.81507" lon="8.37594"><ele>25.0</ele><time>2026-04-19T07:39:20.501Z</time></trkpt><trkpt lat="40.8149933" lon="8.3758933"><ele>24.666666666666668</ele><time>2026-04-19T07:39:22.501Z</time></trkpt><trkpt lat="40.814925" lon="8.3758583"><ele>24.333333333333336</ele><time>2026-04-19T07:39:24.501Z</time></trkpt><trkpt lat="40.8148467" lon="8.3758483"><ele>24.0</ele><time>2026-04-19T07:39:26.502Z</time></trkpt><trkpt lat="40.814765" lon="8.3759083"><ele>23.666666666666668</ele><time>2026-04-19T07:39:28.501Z</time></trkpt><trkpt lat="40.814725" lon="8.3760217"><ele>23.333333333333336</ele><time>2026-04-19T07:39:30.501Z</time></trkpt><trkpt lat="40.8147633" lon="8.376135"><ele>23.0</ele><time>2026-04-19T07:39:32.502Z</time></trkpt><trkpt lat="40.8148767" lon="8.37618"><ele>23.0</ele><time>2026-04-19T07:39:34.501Z</time></trkpt><trkpt lat="40.8149433" lon="8.3761617"><ele>23.0</ele><time>2026-04-19T07:39:35.501Z</time></trkpt><trkpt lat="40.8150117" lon="8.3761333"><ele>23.0</ele><time>2026-04-19T07:39:36.502Z</time></trkpt><trkpt lat="40.8150867" lon="8.3761133"><ele>23.0</ele><time>2026-04-19T07:39:37.502Z</time></trkpt><trkpt lat="40.815165" lon="8.3760983"><ele>23.0</ele><time>2026-04-19T07:39:38.501Z</time></trkpt><trkpt lat="40.8153333" lon="8.3760767"><ele>23.4</ele><time>2026-04-19T07:39:40.501Z</time></trkpt><trkpt lat="40.81541" lon="8.3760717"><ele>23.799999999999997</ele><time>2026-04-19T07:39:41.501Z</time></trkpt><trkpt lat="40.8154867" lon="8.3760667"><ele>24.2</ele><time>2026-04-19T07:39:42.502Z</time></trkpt><trkpt lat="40.81556" lon="8.37607"><ele>24.6</ele><time>2026-04-19T07:39:43.501Z</time></trkpt><trkpt lat="40.815725" lon="8.376095"><ele>25.0</ele><time>2026-04-19T07:39:46.502Z</time></trkpt><trkpt lat="40.815805" lon="8.37614"><ele>25.000000000000004</ele><time>2026-04-19T07:39:48.502Z</time></trkpt><trkpt lat="40.8158633" lon="8.3762533"><ele>25.0</ele><time>2026-04-19T07:39:50.501Z</time></trkpt><trkpt lat="40.8158633" lon="8.3763383"><ele>25.0</ele><time>2026-04-19T07:39:51.501Z</time></trkpt><trkpt lat="40.8158567" lon="8.3764333"><ele>25.0</ele><time>2026-04-19T07:39:52.501Z</time></trkpt><trkpt lat="40.8158533" lon="8.3765183"><ele>25.000000000000004</ele><time>2026-04-19T07:39:53.502Z</time></trkpt><trkpt lat="40.8158583" lon="8.3766667"><ele>25.0</ele><time>2026-04-19T07:39:55.502Z</time></trkpt><trkpt lat="40.8156983" lon="8.3769233"><ele>25.0</ele><time>2026-04-19T07:40:00.501Z</time></trkpt><trkpt lat="40.8156267" lon="8.37705"><ele>25.0</ele><time>2026-04-19T07:40:02.502Z</time></trkpt><trkpt lat="40.8155883" lon="8.377185"><ele>25.0</ele><time>2026-04-19T07:40:04.502Z</time></trkpt><trkpt lat="40.8155333" lon="8.3773033"><ele>25.0</ele><time>2026-04-19T07:40:06.502Z</time></trkpt><trkpt lat="40.8154267" lon="8.3774533"><ele>25.000000000000004</ele><time>2026-04-19T07:40:09.502Z</time></trkpt><trkpt lat="40.81539" lon="8.3775667"><ele>25.0</ele><time>2026-04-19T07:40:11.502Z</time></trkpt><trkpt lat="40.8153867" lon="8.3776717"><ele>25.0</ele><time>2026-04-19T07:40:13.502Z</time></trkpt><trkpt lat="40.8154017" lon="8.377765"><ele>25.0</ele><time>2026-04-19T07:40:15.501Z</time></trkpt><trkpt lat="40.81542" lon="8.3778783"><ele>25.000000000000004</ele><time>2026-04-19T07:40:18.501Z</time></trkpt><trkpt lat="40.81549" lon="8.3779383"><ele>25.0</ele><time>2026-04-19T07:40:21.501Z</time></trkpt><trkpt lat="40.8155633" lon="8.3779567"><ele>25.0</ele><time>2026-04-19T07:40:25.502Z</time></trkpt><trkpt lat="40.815625" lon="8.37799"><ele>25.0</ele><time>2026-04-19T07:47:22.502Z</time></trkpt><trkpt lat="40.8157333" lon="8.3779783"><ele>25.0</ele><time>2026-04-19T07:47:24.501Z</time></trkpt><trkpt lat="40.8158317" lon="8.3779217"><ele>25.0</ele><time>2026-04-19T07:47:26.501Z</time></trkpt><trkpt lat="40.81589" lon="8.3776533"><ele>25.000000000000004</ele><time>2026-04-19T07:47:29.502Z</time></trkpt><trkpt lat="40.8158933" lon="8.37755"><ele>25.0</ele><time>2026-04-19T07:47:30.501Z</time></trkpt><trkpt lat="40.8158983" lon="8.37745"><ele>25.0</ele><time>2026-04-19T07:47:31.501Z</time></trkpt><trkpt lat="40.8159083" lon="8.377345"><ele>25.0</ele><time>2026-04-19T07:47:32.502Z</time></trkpt><trkpt lat="40.8159083" lon="8.3772483"><ele>25.000000000000004</ele><time>2026-04-19T07:47:33.502Z</time></trkpt><trkpt lat="40.8159033" lon="8.377155"><ele>25.0</ele><time>2026-04-19T07:47:34.503Z</time></trkpt><trkpt lat="40.8159033" lon="8.3770567"><ele>25.000000000000004</ele><time>2026-04-19T07:47:35.502Z</time></trkpt><trkpt lat="40.8159" lon="8.3769467"><ele>25.0</ele><time>2026-04-19T07:47:36.502Z</time></trkpt><trkpt lat="40.815895" lon="8.3768367"><ele>25.0</ele><time>2026-04-19T07:47:37.503Z</time></trkpt><trkpt lat="40.8158867" lon="8.3767367"><ele>25.0</ele><time>2026-04-19T07:47:38.503Z</time></trkpt><trkpt lat="40.8158817" lon="8.376645"><ele>25.000000000000004</ele><time>2026-04-19T07:47:39.502Z</time></trkpt><trkpt lat="40.81588" lon="8.3765467"><ele>25.0</ele><time>2026-04-19T07:47:40.502Z</time></trkpt><trkpt lat="40.8158867" lon="8.3763633"><ele>25.0</ele><time>2026-04-19T07:47:42.502Z</time></trkpt><trkpt lat="40.815895" lon="8.3762333"><ele>25.0</ele><time>2026-04-19T07:47:44.502Z</time></trkpt><trkpt lat="40.8159133" lon="8.37613"><ele>25.0</ele><time>2026-04-19T07:47:46.502Z</time></trkpt><trkpt lat="40.8158817" lon="8.3760367"><ele>25.0</ele><time>2026-04-19T07:47:48.502Z</time></trkpt><trkpt lat="40.81575" lon="8.3759983"><ele>25.0</ele><time>2026-04-19T07:47:50.502Z</time></trkpt><trkpt lat="40.815655" lon="8.3759883"><ele>25.0</ele><time>2026-04-19T07:47:51.502Z</time></trkpt><trkpt lat="40.8155517" lon="8.3759867"><ele>25.0</ele><time>2026-04-19T07:47:52.503Z</time></trkpt><trkpt lat="40.8154533" lon="8.3759817"><ele>25.0</ele><time>2026-04-19T07:47:53.502Z</time></trkpt><trkpt lat="40.8153483" lon="8.37598"><ele>25.0</ele><time>2026-04-19T07:47:54.503Z</time></trkpt><trkpt lat="40.81526" lon="8.3759633"><ele>25.0</ele><time>2026-04-19T07:47:55.502Z</time></trkpt><trkpt lat="40.8151683" lon="8.375945"><ele>24.8</ele><time>2026-04-19T07:47:56.503Z</time></trkpt><trkpt lat="40.8150783" lon="8.3759133"><ele>24.6</ele><time>2026-04-19T07:47:57.502Z</time></trkpt><trkpt lat="40.814995" lon="8.37585"><ele>24.4</ele><time>2026-04-19T07:47:58.503Z</time></trkpt><trkpt lat="40.81493" lon="8.3757583"><ele>24.2</ele><time>2026-04-19T07:47:59.503Z</time></trkpt><trkpt lat="40.8148783" lon="8.3756417"><ele>24.0</ele><time>2026-04-19T07:48:00.502Z</time></trkpt><trkpt lat="40.8148383" lon="8.375505"><ele>24.0</ele><time>2026-04-19T07:48:01.503Z</time></trkpt><trkpt lat="40.8148233" lon="8.375335"><ele>24.0</ele><time>2026-04-19T07:48:02.502Z</time></trkpt><trkpt lat="40.8148133" lon="8.375145"><ele>24.0</ele><time>2026-04-19T07:48:03.502Z</time></trkpt><trkpt lat="40.8148233" lon="8.3749483"><ele>24.0</ele><time>2026-04-19T07:48:04.502Z</time></trkpt><trkpt lat="40.8148283" lon="8.37475"><ele>24.0</ele><time>2026-04-19T07:48:05.502Z</time></trkpt><trkpt lat="40.8148217" lon="8.3745483"><ele>24.0</ele><time>2026-04-19T07:48:06.503Z</time></trkpt><trkpt lat="40.8148167" lon="8.3743533"><ele>24.0</ele><time>2026-04-19T07:48:07.502Z</time></trkpt><trkpt lat="40.8148033" lon="8.37416"><ele>24.0</ele><time>2026-04-19T07:48:08.503Z</time></trkpt><trkpt lat="40.8147883" lon="8.3739633"><ele>23.666666666666668</ele><time>2026-04-19T07:48:09.502Z</time></trkpt><trkpt lat="40.8147867" lon="8.3737683"><ele>23.333333333333336</ele><time>2026-04-19T07:48:10.503Z</time></trkpt><trkpt lat="40.814785" lon="8.3735617"><ele>23.0</ele><time>2026-04-19T07:48:11.502Z</time></trkpt><trkpt lat="40.81479" lon="8.3733533"><ele>23.0</ele><time>2026-04-19T07:48:12.503Z</time></trkpt><trkpt lat="40.8147933" lon="8.3731433"><ele>23.0</ele><time>2026-04-19T07:48:13.502Z</time></trkpt><trkpt lat="40.8147883" lon="8.372915"><ele>23.0</ele><time>2026-04-19T07:48:14.502Z</time></trkpt><trkpt lat="40.8147917" lon="8.3726967"><ele>23.666666666666668</ele><time>2026-04-19T07:48:15.503Z</time></trkpt><trkpt lat="40.8147917" lon="8.3724667"><ele>24.333333333333336</ele><time>2026-04-19T07:48:16.502Z</time></trkpt><trkpt lat="40.8147967" lon="8.3722283"><ele>25.0</ele><time>2026-04-19T07:48:17.502Z</time></trkpt><trkpt lat="40.8147967" lon="8.3719967"><ele>25.0</ele><time>2026-04-19T07:48:18.502Z</time></trkpt><trkpt lat="40.8148" lon="8.37177"><ele>25.0</ele><time>2026-04-19T07:48:19.503Z</time></trkpt><trkpt lat="40.814805" lon="8.3715433"><ele>25.0</ele><time>2026-04-19T07:48:20.503Z</time></trkpt><trkpt lat="40.81481" lon="8.37131"><ele>24.666666666666668</ele><time>2026-04-19T07:48:21.502Z</time></trkpt><trkpt lat="40.814815" lon="8.3710783"><ele>24.333333333333336</ele><time>2026-04-19T07:48:22.502Z</time></trkpt><trkpt lat="40.814825" lon="8.3708367"><ele>24.0</ele><time>2026-04-19T07:48:23.503Z</time></trkpt><trkpt lat="40.8148333" lon="8.3705933"><ele>23.0</ele><time>2026-04-19T07:48:24.503Z</time></trkpt><trkpt lat="40.8148417" lon="8.3703517"><ele>22.0</ele><time>2026-04-19T07:48:25.502Z</time></trkpt><trkpt lat="40.8148433" lon="8.370105"><ele>21.0</ele><time>2026-04-19T07:48:26.502Z</time></trkpt><trkpt lat="40.8148483" lon="8.36985"><ele>20.333333333333332</ele><time>2026-04-19T07:48:27.502Z</time></trkpt><trkpt lat="40.8148467" lon="8.369595"><ele>19.666666666666664</ele><time>2026-04-19T07:48:28.502Z</time></trkpt><trkpt lat="40.8148433" lon="8.36933"><ele>19.0</ele><time>2026-04-19T07:48:29.502Z</time></trkpt><trkpt lat="40.814845" lon="8.3690583"><ele>17.666666666666664</ele><time>2026-04-19T07:48:30.503Z</time></trkpt><trkpt lat="40.8148517" lon="8.36879"><ele>16.333333333333332</ele><time>2026-04-19T07:48:31.503Z</time></trkpt><trkpt lat="40.8148533" lon="8.3685283"><ele>15.0</ele><time>2026-04-19T07:48:32.502Z</time></trkpt><trkpt lat="40.8148467" lon="8.3682633"><ele>14.666666666666668</ele><time>2026-04-19T07:48:33.503Z</time></trkpt><trkpt lat="40.8148533" lon="8.3679983"><ele>14.333333333333334</ele><time>2026-04-19T07:48:34.502Z</time></trkpt><trkpt lat="40.8148583" lon="8.3677267"><ele>14.0</ele><time>2026-04-19T07:48:35.502Z</time></trkpt><trkpt lat="40.814875" lon="8.36745"><ele>14.666666666666668</ele><time>2026-04-19T07:48:36.502Z</time></trkpt><trkpt lat="40.81488" lon="8.3671667"><ele>15.333333333333332</ele><time>2026-04-19T07:48:37.503Z</time></trkpt><trkpt lat="40.8148867" lon="8.3668967"><ele>16.0</ele><time>2026-04-19T07:48:38.502Z</time></trkpt><trkpt lat="40.8148933" lon="8.3666233"><ele>16.0</ele><time>2026-04-19T07:48:39.502Z</time></trkpt><trkpt lat="40.8148967" lon="8.3663483"><ele>16.0</ele><time>2026-04-19T07:48:40.502Z</time></trkpt><trkpt lat="40.8149017" lon="8.366085"><ele>16.0</ele><time>2026-04-19T07:48:41.503Z</time></trkpt><trkpt lat="40.814905" lon="8.36582"><ele>16.0</ele><time>2026-04-19T07:48:42.503Z</time></trkpt><trkpt lat="40.8149033" lon="8.3655567"><ele>16.0</ele><time>2026-04-19T07:48:43.503Z</time></trkpt><trkpt lat="40.8149" lon="8.365295"><ele>16.0</ele><time>2026-04-19T07:48:44.502Z</time></trkpt><trkpt lat="40.8149017" lon="8.3650267"><ele>16.666666666666664</ele><time>2026-04-19T07:48:45.503Z</time></trkpt><trkpt lat="40.8149067" lon="8.3647583"><ele>17.333333333333332</ele><time>2026-04-19T07:48:46.503Z</time></trkpt><trkpt lat="40.8149117" lon="8.3645017"><ele>18.0</ele><time>2026-04-19T07:48:47.503Z</time></trkpt><trkpt lat="40.8149183" lon="8.3642417"><ele>19.0</ele><time>2026-04-19T07:48:48.502Z</time></trkpt><trkpt lat="40.8149267" lon="8.3639817"><ele>20.0</ele><time>2026-04-19T07:48:49.502Z</time></trkpt><trkpt lat="40.81493" lon="8.3637283"><ele>21.0</ele><time>2026-04-19T07:48:50.502Z</time></trkpt><trkpt lat="40.814935" lon="8.36349"><ele>21.0</ele><time>2026-04-19T07:48:51.503Z</time></trkpt><trkpt lat="40.814935" lon="8.3632533"><ele>21.0</ele><time>2026-04-19T07:48:52.503Z</time></trkpt><trkpt lat="40.81494" lon="8.36302"><ele>21.0</ele><time>2026-04-19T07:48:53.503Z</time></trkpt><trkpt lat="40.8149383" lon="8.3627833"><ele>21.666666666666668</ele><time>2026-04-19T07:48:54.502Z</time></trkpt><trkpt lat="40.8149417" lon="8.362535"><ele>22.333333333333336</ele><time>2026-04-19T07:48:55.502Z</time></trkpt><trkpt lat="40.81493" lon="8.3622883"><ele>23.0</ele><time>2026-04-19T07:48:56.502Z</time></trkpt><trkpt lat="40.8149067" lon="8.3620617"><ele>23.666666666666668</ele><time>2026-04-19T07:48:57.503Z</time></trkpt><trkpt lat="40.81486" lon="8.3618467"><ele>24.333333333333336</ele><time>2026-04-19T07:48:58.503Z</time></trkpt><trkpt lat="40.814805" lon="8.3616567"><ele>25.0</ele><time>2026-04-19T07:48:59.502Z</time></trkpt><trkpt lat="40.814755" lon="8.361465"><ele>24.75</ele><time>2026-04-19T07:49:00.502Z</time></trkpt><trkpt lat="40.814715" lon="8.36129"><ele>24.5</ele><time>2026-04-19T07:49:01.502Z</time></trkpt><trkpt lat="40.81467" lon="8.3611267"><ele>24.25</ele><time>2026-04-19T07:49:02.502Z</time></trkpt><trkpt lat="40.814635" lon="8.3609767"><ele>24.0</ele><time>2026-04-19T07:49:03.502Z</time></trkpt><trkpt lat="40.8146017" lon="8.3608333"><ele>24.0</ele><time>2026-04-19T07:49:04.503Z</time></trkpt><trkpt lat="40.8145767" lon="8.3607083"><ele>24.0</ele><time>2026-04-19T07:49:05.503Z</time></trkpt><trkpt lat="40.8145767" lon="8.360585"><ele>24.0</ele><time>2026-04-19T07:49:06.502Z</time></trkpt><trkpt lat="40.814605" lon="8.3604733"><ele>24.0</ele><time>2026-04-19T07:49:07.503Z</time></trkpt><trkpt lat="40.814665" lon="8.360365"><ele>24.0</ele><time>2026-04-19T07:49:08.503Z</time></trkpt><trkpt lat="40.8147367" lon="8.360255"><ele>23.5</ele><time>2026-04-19T07:49:09.503Z</time></trkpt><trkpt lat="40.8148167" lon="8.3601433"><ele>23.0</ele><time>2026-04-19T07:49:10.502Z</time></trkpt><trkpt lat="40.8148867" lon="8.36002"><ele>22.5</ele><time>2026-04-19T07:49:11.503Z</time></trkpt><trkpt lat="40.814925" lon="8.359875"><ele>22.0</ele><time>2026-04-19T07:49:12.502Z</time></trkpt><trkpt lat="40.8149467" lon="8.3596967"><ele>22.0</ele><time>2026-04-19T07:49:13.503Z</time></trkpt><trkpt lat="40.814955" lon="8.3595017"><ele>22.0</ele><time>2026-04-19T07:49:14.502Z</time></trkpt><trkpt lat="40.8149633" lon="8.3592883"><ele>22.0</ele><time>2026-04-19T07:49:15.503Z</time></trkpt><trkpt lat="40.814975" lon="8.3590567"><ele>23.0</ele><time>2026-04-19T07:49:16.503Z</time></trkpt><trkpt lat="40.8149917" lon="8.3588083"><ele>24.0</ele><time>2026-04-19T07:49:17.502Z</time></trkpt><trkpt lat="40.814995" lon="8.3585567"><ele>25.0</ele><time>2026-04-19T07:49:18.503Z</time></trkpt><trkpt lat="40.8149967" lon="8.3583083"><ele>25.0</ele><time>2026-04-19T07:49:19.502Z</time></trkpt><trkpt lat="40.8150017" lon="8.35806"><ele>25.0</ele><time>2026-04-19T07:49:20.502Z</time></trkpt><trkpt lat="40.815" lon="8.357825"><ele>25.0</ele><time>2026-04-19T07:49:21.502Z</time></trkpt><trkpt lat="40.815005" lon="8.3575883"><ele>26.0</ele><time>2026-04-19T07:49:22.503Z</time></trkpt><trkpt lat="40.8150083" lon="8.3573367"><ele>27.0</ele><time>2026-04-19T07:49:23.503Z</time></trkpt><trkpt lat="40.8150133" lon="8.3570833"><ele>28.0</ele><time>2026-04-19T07:49:24.502Z</time></trkpt><trkpt lat="40.8150217" lon="8.3568217"><ele>28.0</ele><time>2026-04-19T07:49:25.503Z</time></trkpt><trkpt lat="40.8150233" lon="8.3565583"><ele>28.0</ele><time>2026-04-19T07:49:26.502Z</time></trkpt><trkpt lat="40.815025" lon="8.356295"><ele>28.0</ele><time>2026-04-19T07:49:27.503Z</time></trkpt><trkpt lat="40.8150233" lon="8.356035"><ele>28.0</ele><time>2026-04-19T07:49:28.502Z</time></trkpt><trkpt lat="40.8150333" lon="8.355765"><ele>28.0</ele><time>2026-04-19T07:49:29.502Z</time></trkpt><trkpt lat="40.8150383" lon="8.3555017"><ele>28.0</ele><time>2026-04-19T07:49:30.502Z</time></trkpt><trkpt lat="40.81504" lon="8.355235"><ele>29.0</ele><time>2026-04-19T07:49:31.502Z</time></trkpt><trkpt lat="40.8150483" lon="8.3549717"><ele>30.0</ele><time>2026-04-19T07:49:32.502Z</time></trkpt><trkpt lat="40.8150467" lon="8.3547017"><ele>31.0</ele><time>2026-04-19T07:49:33.503Z</time></trkpt><trkpt lat="40.8150517" lon="8.35444"><ele>32.0</ele><time>2026-04-19T07:49:34.503Z</time></trkpt><trkpt lat="40.8150583" lon="8.354175"><ele>33.0</ele><time>2026-04-19T07:49:35.502Z</time></trkpt><trkpt lat="40.81506" lon="8.353915"><ele>34.0</ele><time>2026-04-19T07:49:36.502Z</time></trkpt><trkpt lat="40.815055" lon="8.35365"><ele>34.0</ele><time>2026-04-19T07:49:37.503Z</time></trkpt><trkpt lat="40.8150633" lon="8.3533783"><ele>34.0</ele><time>2026-04-19T07:49:38.502Z</time></trkpt><trkpt lat="40.815065" lon="8.3531083"><ele>34.0</ele><time>2026-04-19T07:49:39.503Z</time></trkpt><trkpt lat="40.8150683" lon="8.3528433"><ele>34.0</ele><time>2026-04-19T07:49:40.502Z</time></trkpt><trkpt lat="40.81507" lon="8.352575"><ele>34.0</ele><time>2026-04-19T07:49:41.502Z</time></trkpt><trkpt lat="40.8150717" lon="8.3522967"><ele>34.0</ele><time>2026-04-19T07:49:42.503Z</time></trkpt><trkpt lat="40.8150817" lon="8.35202"><ele>34.0</ele><time>2026-04-19T07:49:43.502Z</time></trkpt><trkpt lat="40.8150817" lon="8.3517333"><ele>34.0</ele><time>2026-04-19T07:49:44.502Z</time></trkpt><trkpt lat="40.8150917" lon="8.35145"><ele>34.0</ele><time>2026-04-19T07:49:45.502Z</time></trkpt><trkpt lat="40.81509" lon="8.3511733"><ele>33.66666666666667</ele><time>2026-04-19T07:49:46.503Z</time></trkpt><trkpt lat="40.8150883" lon="8.3508917"><ele>33.333333333333336</ele><time>2026-04-19T07:49:47.503Z</time></trkpt><trkpt lat="40.815085" lon="8.3506167"><ele>33.0</ele><time>2026-04-19T07:49:48.502Z</time></trkpt><trkpt lat="40.81509" lon="8.35034"><ele>33.0</ele><time>2026-04-19T07:49:49.502Z</time></trkpt><trkpt lat="40.815095" lon="8.3500617"><ele>33.0</ele><time>2026-04-19T07:49:50.503Z</time></trkpt><trkpt lat="40.8151017" lon="8.3497783"><ele>33.0</ele><time>2026-04-19T07:49:51.503Z</time></trkpt><trkpt lat="40.8151" lon="8.3494867"><ele>34.333333333333336</ele><time>2026-04-19T07:49:52.502Z</time></trkpt><trkpt lat="40.8151033" lon="8.3492083"><ele>35.66666666666667</ele><time>2026-04-19T07:49:53.503Z</time></trkpt><trkpt lat="40.815115" lon="8.3489417"><ele>37.0</ele><time>2026-04-19T07:49:54.502Z</time></trkpt><trkpt lat="40.815125" lon="8.3486733"><ele>38.0</ele><time>2026-04-19T07:49:55.502Z</time></trkpt><trkpt lat="40.8151283" lon="8.3483967"><ele>39.0</ele><time>2026-04-19T07:49:56.502Z</time></trkpt><trkpt lat="40.8151267" lon="8.3481183"><ele>40.0</ele><time>2026-04-19T07:49:57.502Z</time></trkpt><trkpt lat="40.8151317" lon="8.347835"><ele>41.0</ele><time>2026-04-19T07:49:58.503Z</time></trkpt><trkpt lat="40.8151317" lon="8.3475633"><ele>42.0</ele><time>2026-04-19T07:49:59.502Z</time></trkpt><trkpt lat="40.8151383" lon="8.347295"><ele>43.0</ele><time>2026-04-19T07:50:00.503Z</time></trkpt><trkpt lat="40.8151417" lon="8.3470167"><ele>43.0</ele><time>2026-04-19T07:50:01.503Z</time></trkpt><trkpt lat="40.8151433" lon="8.3467467"><ele>43.0</ele><time>2026-04-19T07:50:02.502Z</time></trkpt><trkpt lat="40.8151517" lon="8.34647"><ele>43.0</ele><time>2026-04-19T07:50:03.503Z</time></trkpt><trkpt lat="40.81516" lon="8.3461867"><ele>43.66666666666667</ele><time>2026-04-19T07:50:04.502Z</time></trkpt><trkpt lat="40.8151583" lon="8.3459033"><ele>44.333333333333336</ele><time>2026-04-19T07:50:05.503Z</time></trkpt><trkpt lat="40.81516" lon="8.34562"><ele>45.0</ele><time>2026-04-19T07:50:06.503Z</time></trkpt><trkpt lat="40.8151617" lon="8.3453267"><ele>43.0</ele><time>2026-04-19T07:50:07.502Z</time></trkpt><trkpt lat="40.81516" lon="8.3450383"><ele>41.0</ele><time>2026-04-19T07:50:08.503Z</time></trkpt><trkpt lat="40.815165" lon="8.3447583"><ele>39.0</ele><time>2026-04-19T07:50:09.502Z</time></trkpt><trkpt lat="40.815175" lon="8.3444983"><ele>38.333333333333336</ele><time>2026-04-19T07:50:10.502Z</time></trkpt><trkpt lat="40.8151767" lon="8.344255"><ele>37.66666666666667</ele><time>2026-04-19T07:50:11.502Z</time></trkpt><trkpt lat="40.81518" lon="8.3440267"><ele>37.0</ele><time>2026-04-19T07:50:12.503Z</time></trkpt><trkpt lat="40.81518" lon="8.3438117"><ele>36.333333333333336</ele><time>2026-04-19T07:50:13.503Z</time></trkpt><trkpt lat="40.8151833" lon="8.343595"><ele>35.666666666666664</ele><time>2026-04-19T07:50:14.503Z</time></trkpt><trkpt lat="40.8151833" lon="8.3433817"><ele>35.0</ele><time>2026-04-19T07:50:15.503Z</time></trkpt><trkpt lat="40.8151867" lon="8.34317"><ele>34.666666666666664</ele><time>2026-04-19T07:50:16.502Z</time></trkpt><trkpt lat="40.8151883" lon="8.3429467"><ele>34.333333333333336</ele><time>2026-04-19T07:50:17.502Z</time></trkpt><trkpt lat="40.81519" lon="8.3427217"><ele>34.0</ele><time>2026-04-19T07:50:18.502Z</time></trkpt><trkpt lat="40.8151933" lon="8.342495"><ele>34.0</ele><time>2026-04-19T07:50:19.502Z</time></trkpt><trkpt lat="40.8152033" lon="8.3422583"><ele>34.0</ele><time>2026-04-19T07:50:20.502Z</time></trkpt><trkpt lat="40.81522" lon="8.3420183"><ele>34.0</ele><time>2026-04-19T07:50:21.503Z</time></trkpt><trkpt lat="40.8152333" lon="8.3417683"><ele>34.333333333333336</ele><time>2026-04-19T07:50:22.503Z</time></trkpt><trkpt lat="40.8152533" lon="8.341515"><ele>34.666666666666664</ele><time>2026-04-19T07:50:23.502Z</time></trkpt><trkpt lat="40.81529" lon="8.341255"><ele>35.0</ele><time>2026-04-19T07:50:24.503Z</time></trkpt><trkpt lat="40.815335" lon="8.3409917"><ele>34.33333333333333</ele><time>2026-04-19T07:50:25.503Z</time></trkpt><trkpt lat="40.8153817" lon="8.34073"><ele>33.666666666666664</ele><time>2026-04-19T07:50:26.503Z</time></trkpt><trkpt lat="40.8154283" lon="8.3404517"><ele>33.0</ele><time>2026-04-19T07:50:27.503Z</time></trkpt><trkpt lat="40.8154767" lon="8.34017"><ele>32.5</ele><time>2026-04-19T07:50:28.502Z</time></trkpt><trkpt lat="40.81554" lon="8.33988"><ele>32.0</ele><time>2026-04-19T07:50:29.503Z</time></trkpt><trkpt lat="40.815605" lon="8.3395917"><ele>33.5</ele><time>2026-04-19T07:50:30.503Z</time></trkpt><trkpt lat="40.8156867" lon="8.339295"><ele>35.0</ele><time>2026-04-19T07:50:31.502Z</time></trkpt><trkpt lat="40.815775" lon="8.3390083"><ele>36.5</ele><time>2026-04-19T07:50:32.502Z</time></trkpt><trkpt lat="40.8158683" lon="8.3387233"><ele>38.0</ele><time>2026-04-19T07:50:33.502Z</time></trkpt><trkpt lat="40.8159667" lon="8.3384367"><ele>38.5</ele><time>2026-04-19T07:50:34.502Z</time></trkpt><trkpt lat="40.816075" lon="8.3381483"><ele>39.0</ele><time>2026-04-19T07:50:35.502Z</time></trkpt><trkpt lat="40.8161817" lon="8.3378583"><ele>39.0</ele><time>2026-04-19T07:50:36.502Z</time></trkpt><trkpt lat="40.8162933" lon="8.3375633"><ele>39.0</ele><time>2026-04-19T07:50:37.503Z</time></trkpt><trkpt lat="40.81641" lon="8.3372817"><ele>40.5</ele><time>2026-04-19T07:50:38.503Z</time></trkpt><trkpt lat="40.8165317" lon="8.3369967"><ele>42.0</ele><time>2026-04-19T07:50:39.503Z</time></trkpt><trkpt lat="40.81665" lon="8.3367083"><ele>42.0</ele><time>2026-04-19T07:50:40.502Z</time></trkpt><trkpt lat="40.8167683" lon="8.33643"><ele>42.0</ele><time>2026-04-19T07:50:41.503Z</time></trkpt><trkpt lat="40.8168883" lon="8.33615"><ele>38.0</ele><time>2026-04-19T07:50:42.502Z</time></trkpt><trkpt lat="40.817005" lon="8.3358817"><ele>34.0</ele><time>2026-04-19T07:50:43.502Z</time></trkpt><trkpt lat="40.8171183" lon="8.335625"><ele>35.0</ele><time>2026-04-19T07:50:44.503Z</time></trkpt><trkpt lat="40.8172317" lon="8.3353567"><ele>36.0</ele><time>2026-04-19T07:50:45.502Z</time></trkpt><trkpt lat="40.8173483" lon="8.3350967"><ele>36.0</ele><time>2026-04-19T07:50:46.502Z</time></trkpt><trkpt lat="40.8174583" lon="8.3348533"><ele>36.0</ele><time>2026-04-19T07:50:47.502Z</time></trkpt><trkpt lat="40.817565" lon="8.33462"><ele>36.0</ele><time>2026-04-19T07:50:48.503Z</time></trkpt><trkpt lat="40.8176667" lon="8.33438"><ele>36.666666666666664</ele><time>2026-04-19T07:50:49.503Z</time></trkpt><trkpt lat="40.8177683" lon="8.3341467"><ele>37.33333333333333</ele><time>2026-04-19T07:50:50.503Z</time></trkpt><trkpt lat="40.8178667" lon="8.3338967"><ele>38.0</ele><time>2026-04-19T07:50:51.503Z</time></trkpt><trkpt lat="40.8179633" lon="8.3336583"><ele>38.0</ele><time>2026-04-19T07:50:52.503Z</time></trkpt><trkpt lat="40.8180617" lon="8.3334317"><ele>38.0</ele><time>2026-04-19T07:50:53.503Z</time></trkpt><trkpt lat="40.8181567" lon="8.3332167"><ele>38.0</ele><time>2026-04-19T07:50:54.502Z</time></trkpt><trkpt lat="40.8182467" lon="8.3330033"><ele>38.0</ele><time>2026-04-19T07:50:55.502Z</time></trkpt><trkpt lat="40.8183267" lon="8.3328167"><ele>38.0</ele><time>2026-04-19T07:50:56.502Z</time></trkpt><trkpt lat="40.8184117" lon="8.3326233"><ele>38.0</ele><time>2026-04-19T07:50:57.503Z</time></trkpt><trkpt lat="40.818495" lon="8.3324167"><ele>37.0</ele><time>2026-04-19T07:50:58.502Z</time></trkpt><trkpt lat="40.8185833" lon="8.3322133"><ele>36.0</ele><time>2026-04-19T07:50:59.503Z</time></trkpt><trkpt lat="40.8186717" lon="8.3319917"><ele>35.0</ele><time>2026-04-19T07:51:00.503Z</time></trkpt><trkpt lat="40.8187633" lon="8.33177"><ele>35.0</ele><time>2026-04-19T07:51:01.502Z</time></trkpt><trkpt lat="40.818855" lon="8.3315317"><ele>35.0</ele><time>2026-04-19T07:51:02.502Z</time></trkpt><trkpt lat="40.818955" lon="8.3312883"><ele>35.0</ele><time>2026-04-19T07:51:03.503Z</time></trkpt><trkpt lat="40.81906" lon="8.3310417"><ele>35.33333333333333</ele><time>2026-04-19T07:51:04.502Z</time></trkpt><trkpt lat="40.8191667" lon="8.3308017"><ele>35.666666666666664</ele><time>2026-04-19T07:51:05.502Z</time></trkpt><trkpt lat="40.8192817" lon="8.3305467"><ele>36.0</ele><time>2026-04-19T07:51:06.503Z</time></trkpt><trkpt lat="40.819385" lon="8.330295"><ele>36.333333333333336</ele><time>2026-04-19T07:51:07.503Z</time></trkpt><trkpt lat="40.819495" lon="8.3300333"><ele>36.66666666666667</ele><time>2026-04-19T07:51:08.502Z</time></trkpt><trkpt lat="40.819605" lon="8.32978"><ele>37.0</ele><time>2026-04-19T07:51:09.502Z</time></trkpt><trkpt lat="40.81972" lon="8.3295183"><ele>36.0</ele><time>2026-04-19T07:51:10.502Z</time></trkpt><trkpt lat="40.8198317" lon="8.329255"><ele>35.0</ele><time>2026-04-19T07:51:11.503Z</time></trkpt><trkpt lat="40.8199467" lon="8.328985"><ele>35.0</ele><time>2026-04-19T07:51:12.503Z</time></trkpt><trkpt lat="40.820055" lon="8.3287283"><ele>35.0</ele><time>2026-04-19T07:51:13.502Z</time></trkpt><trkpt lat="40.8201617" lon="8.3284683"><ele>35.0</ele><time>2026-04-19T07:51:14.502Z</time></trkpt><trkpt lat="40.8202683" lon="8.3282117"><ele>35.0</ele><time>2026-04-19T07:51:15.502Z</time></trkpt><trkpt lat="40.8203683" lon="8.3279667"><ele>35.0</ele><time>2026-04-19T07:51:16.502Z</time></trkpt><trkpt lat="40.820475" lon="8.3277167"><ele>35.0</ele><time>2026-04-19T07:51:17.502Z</time></trkpt><trkpt lat="40.820585" lon="8.327465"><ele>36.0</ele><time>2026-04-19T07:51:18.503Z</time></trkpt><trkpt lat="40.8206967" lon="8.3272233"><ele>37.0</ele><time>2026-04-19T07:51:19.502Z</time></trkpt><trkpt lat="40.820805" lon="8.3269833"><ele>38.0</ele><time>2026-04-19T07:51:20.502Z</time></trkpt><trkpt lat="40.8209133" lon="8.3267583"><ele>38.33333333333333</ele><time>2026-04-19T07:51:21.503Z</time></trkpt><trkpt lat="40.82103" lon="8.3265367"><ele>38.666666666666664</ele><time>2026-04-19T07:51:22.503Z</time></trkpt><trkpt lat="40.821145" lon="8.326335"><ele>39.0</ele><time>2026-04-19T07:51:23.503Z</time></trkpt><trkpt lat="40.8212717" lon="8.3261367"><ele>39.0</ele><time>2026-04-19T07:51:24.502Z</time></trkpt><trkpt lat="40.8214" lon="8.3259467"><ele>39.0</ele><time>2026-04-19T07:51:25.502Z</time></trkpt><trkpt lat="40.821545" lon="8.32575"><ele>39.0</ele><time>2026-04-19T07:51:26.502Z</time></trkpt><trkpt lat="40.8217" lon="8.32555"><ele>38.666666666666664</ele><time>2026-04-19T07:51:27.503Z</time></trkpt><trkpt lat="40.8218617" lon="8.325355"><ele>38.33333333333333</ele><time>2026-04-19T07:51:28.502Z</time></trkpt><trkpt lat="40.8220283" lon="8.325165"><ele>38.0</ele><time>2026-04-19T07:51:29.502Z</time></trkpt><trkpt lat="40.8222017" lon="8.32499"><ele>38.0</ele><time>2026-04-19T07:51:30.502Z</time></trkpt><trkpt lat="40.8223733" lon="8.3248083"><ele>38.0</ele><time>2026-04-19T07:51:31.503Z</time></trkpt><trkpt lat="40.8225533" lon="8.3246567"><ele>38.0</ele><time>2026-04-19T07:51:32.502Z</time></trkpt><trkpt lat="40.8227333" lon="8.3245067"><ele>37.666666666666664</ele><time>2026-04-19T07:51:33.503Z</time></trkpt><trkpt lat="40.8229167" lon="8.3243733"><ele>37.333333333333336</ele><time>2026-04-19T07:51:34.502Z</time></trkpt><trkpt lat="40.8230967" lon="8.324245"><ele>37.0</ele><time>2026-04-19T07:51:35.502Z</time></trkpt><trkpt lat="40.8232917" lon="8.3241283"><ele>36.0</ele><time>2026-04-19T07:51:36.503Z</time></trkpt><trkpt lat="40.8234883" lon="8.32402"><ele>35.0</ele><time>2026-04-19T07:51:37.503Z</time></trkpt><trkpt lat="40.8236867" lon="8.323915"><ele>34.0</ele><time>2026-04-19T07:51:38.502Z</time></trkpt><trkpt lat="40.8239033" lon="8.323825"><ele>33.5</ele><time>2026-04-19T07:51:39.502Z</time></trkpt><trkpt lat="40.8241283" lon="8.32376"><ele>33.0</ele><time>2026-04-19T07:51:40.503Z</time></trkpt><trkpt lat="40.824355" lon="8.3236917"><ele>33.0</ele><time>2026-04-19T07:51:41.502Z</time></trkpt><trkpt lat="40.824575" lon="8.3236317"><ele>33.0</ele><time>2026-04-19T07:51:42.502Z</time></trkpt><trkpt lat="40.8247867" lon="8.323575"><ele>33.0</ele><time>2026-04-19T07:51:43.503Z</time></trkpt><trkpt lat="40.824995" lon="8.3235233"><ele>34.0</ele><time>2026-04-19T07:51:44.503Z</time></trkpt><trkpt lat="40.825205" lon="8.32347"><ele>35.0</ele><time>2026-04-19T07:51:45.502Z</time></trkpt><trkpt lat="40.82541" lon="8.323415"><ele>36.0</ele><time>2026-04-19T07:51:46.502Z</time></trkpt><trkpt lat="40.8256167" lon="8.3233567"><ele>36.0</ele><time>2026-04-19T07:51:47.503Z</time></trkpt><trkpt lat="40.8258383" lon="8.323295"><ele>36.0</ele><time>2026-04-19T07:51:48.503Z</time></trkpt><trkpt lat="40.8260617" lon="8.3232167"><ele>36.333333333333336</ele><time>2026-04-19T07:51:49.502Z</time></trkpt><trkpt lat="40.82628" lon="8.3231333"><ele>36.66666666666667</ele><time>2026-04-19T07:51:50.503Z</time></trkpt><trkpt lat="40.8264883" lon="8.32304"><ele>37.0</ele><time>2026-04-19T07:51:51.502Z</time></trkpt><trkpt lat="40.8266983" lon="8.3229267"><ele>37.0</ele><time>2026-04-19T07:51:52.502Z</time></trkpt><trkpt lat="40.8269017" lon="8.3227883"><ele>37.0</ele><time>2026-04-19T07:51:53.502Z</time></trkpt><trkpt lat="40.8271" lon="8.322645"><ele>37.0</ele><time>2026-04-19T07:51:54.502Z</time></trkpt><trkpt lat="40.8273033" lon="8.3224933"><ele>37.0</ele><time>2026-04-19T07:51:55.502Z</time></trkpt><trkpt lat="40.8274933" lon="8.3223433"><ele>36.0</ele><time>2026-04-19T07:51:56.503Z</time></trkpt><trkpt lat="40.8276767" lon="8.322185"><ele>35.0</ele><time>2026-04-19T07:51:57.503Z</time></trkpt><trkpt lat="40.8278517" lon="8.3220217"><ele>34.0</ele><time>2026-04-19T07:51:58.502Z</time></trkpt><trkpt lat="40.8280183" lon="8.3218467"><ele>34.0</ele><time>2026-04-19T07:51:59.503Z</time></trkpt><trkpt lat="40.8281767" lon="8.3216717"><ele>34.0</ele><time>2026-04-19T07:52:00.503Z</time></trkpt><trkpt lat="40.8283283" lon="8.3214867"><ele>34.0</ele><time>2026-04-19T07:52:01.503Z</time></trkpt><trkpt lat="40.8284783" lon="8.3212833"><ele>34.333333333333336</ele><time>2026-04-19T07:52:02.503Z</time></trkpt><trkpt lat="40.82862" lon="8.3210717"><ele>34.666666666666664</ele><time>2026-04-19T07:52:03.503Z</time></trkpt><trkpt lat="40.8287583" lon="8.3208617"><ele>35.0</ele><time>2026-04-19T07:52:04.502Z</time></trkpt><trkpt lat="40.8288883" lon="8.3206383"><ele>35.33333333333333</ele><time>2026-04-19T07:52:05.502Z</time></trkpt><trkpt lat="40.8290083" lon="8.3204233"><ele>35.666666666666664</ele><time>2026-04-19T07:52:06.502Z</time></trkpt><trkpt lat="40.82912" lon="8.3202133"><ele>36.0</ele><time>2026-04-19T07:52:07.503Z</time></trkpt><trkpt lat="40.8292217" lon="8.3199833"><ele>36.666666666666664</ele><time>2026-04-19T07:52:08.502Z</time></trkpt><trkpt lat="40.82931" lon="8.3197533"><ele>37.33333333333333</ele><time>2026-04-19T07:52:09.502Z</time></trkpt><trkpt lat="40.829395" lon="8.319515"><ele>38.0</ele><time>2026-04-19T07:52:10.503Z</time></trkpt><trkpt lat="40.8294683" lon="8.319275"><ele>38.0</ele><time>2026-04-19T07:52:11.502Z</time></trkpt><trkpt lat="40.829545" lon="8.31903"><ele>38.0</ele><time>2026-04-19T07:52:12.503Z</time></trkpt><trkpt lat="40.829615" lon="8.31879"><ele>38.0</ele><time>2026-04-19T07:52:13.502Z</time></trkpt><trkpt lat="40.829675" lon="8.3185517"><ele>37.33333333333333</ele><time>2026-04-19T07:52:14.502Z</time></trkpt><trkpt lat="40.8297317" lon="8.3183133"><ele>36.666666666666664</ele><time>2026-04-19T07:52:15.502Z</time></trkpt><trkpt lat="40.8297817" lon="8.31808"><ele>36.0</ele><time>2026-04-19T07:52:16.502Z</time></trkpt><trkpt lat="40.829825" lon="8.3178367"><ele>35.666666666666664</ele><time>2026-04-19T07:52:17.503Z</time></trkpt><trkpt lat="40.8298633" lon="8.317605"><ele>35.33333333333333</ele><time>2026-04-19T07:52:18.503Z</time></trkpt><trkpt lat="40.8299033" lon="8.3173617"><ele>35.0</ele><time>2026-04-19T07:52:19.503Z</time></trkpt><trkpt lat="40.829935" lon="8.3171233"><ele>34.666666666666664</ele><time>2026-04-19T07:52:20.502Z</time></trkpt><trkpt lat="40.829965" lon="8.3168783"><ele>34.333333333333336</ele><time>2026-04-19T07:52:21.502Z</time></trkpt><trkpt lat="40.83" lon="8.3166417"><ele>34.0</ele><time>2026-04-19T07:52:22.502Z</time></trkpt><trkpt lat="40.8300367" lon="8.316405"><ele>33.333333333333336</ele><time>2026-04-19T07:52:23.503Z</time></trkpt><trkpt lat="40.83007" lon="8.3161617"><ele>32.666666666666664</ele><time>2026-04-19T07:52:24.502Z</time></trkpt><trkpt lat="40.8301017" lon="8.3159217"><ele>32.0</ele><time>2026-04-19T07:52:25.502Z</time></trkpt><trkpt lat="40.83014" lon="8.3156767"><ele>31.0</ele><time>2026-04-19T07:52:26.502Z</time></trkpt><trkpt lat="40.8301767" lon="8.3154367"><ele>30.0</ele><time>2026-04-19T07:52:27.503Z</time></trkpt><trkpt lat="40.8302217" lon="8.315185"><ele>29.0</ele><time>2026-04-19T07:52:28.503Z</time></trkpt><trkpt lat="40.8302583" lon="8.3149317"><ele>29.333333333333332</ele><time>2026-04-19T07:52:29.503Z</time></trkpt><trkpt lat="40.8302917" lon="8.3146667"><ele>29.666666666666664</ele><time>2026-04-19T07:52:30.503Z</time></trkpt><trkpt lat="40.830325" lon="8.3144017"><ele>30.0</ele><time>2026-04-19T07:52:31.503Z</time></trkpt><trkpt lat="40.830365" lon="8.31415"><ele>31.0</ele><time>2026-04-19T07:52:32.503Z</time></trkpt><trkpt lat="40.830395" lon="8.3138967"><ele>32.0</ele><time>2026-04-19T07:52:33.503Z</time></trkpt><trkpt lat="40.8304267" lon="8.3136433"><ele>33.0</ele><time>2026-04-19T07:52:34.502Z</time></trkpt><trkpt lat="40.830465" lon="8.3133933"><ele>33.0</ele><time>2026-04-19T07:52:35.503Z</time></trkpt><trkpt lat="40.830505" lon="8.313145"><ele>33.0</ele><time>2026-04-19T07:52:36.503Z</time></trkpt><trkpt lat="40.83054" lon="8.3128933"><ele>33.0</ele><time>2026-04-19T07:52:37.502Z</time></trkpt><trkpt lat="40.8305733" lon="8.3126433"><ele>34.0</ele><time>2026-04-19T07:52:38.503Z</time></trkpt><trkpt lat="40.830605" lon="8.3123867"><ele>35.0</ele><time>2026-04-19T07:52:39.502Z</time></trkpt><trkpt lat="40.8306367" lon="8.3121233"><ele>36.0</ele><time>2026-04-19T07:52:40.503Z</time></trkpt><trkpt lat="40.8306717" lon="8.31186"><ele>36.333333333333336</ele><time>2026-04-19T07:52:41.503Z</time></trkpt><trkpt lat="40.830705" lon="8.3115983"><ele>36.66666666666667</ele><time>2026-04-19T07:52:42.502Z</time></trkpt><trkpt lat="40.830745" lon="8.3113333"><ele>37.0</ele><time>2026-04-19T07:52:43.502Z</time></trkpt><trkpt lat="40.8307833" lon="8.3110617"><ele>37.333333333333336</ele><time>2026-04-19T07:52:44.503Z</time></trkpt><trkpt lat="40.83082" lon="8.3108"><ele>37.666666666666664</ele><time>2026-04-19T07:52:45.502Z</time></trkpt><trkpt lat="40.830865" lon="8.310535"><ele>38.0</ele><time>2026-04-19T07:52:46.502Z</time></trkpt><trkpt lat="40.830905" lon="8.3102683"><ele>38.0</ele><time>2026-04-19T07:52:47.503Z</time></trkpt><trkpt lat="40.8309383" lon="8.310015"><ele>38.0</ele><time>2026-04-19T07:52:48.503Z</time></trkpt><trkpt lat="40.83098" lon="8.3097533"><ele>38.0</ele><time>2026-04-19T07:52:49.502Z</time></trkpt><trkpt lat="40.8310167" lon="8.30949"><ele>37.666666666666664</ele><time>2026-04-19T07:52:50.503Z</time></trkpt><trkpt lat="40.8310567" lon="8.3092233"><ele>37.333333333333336</ele><time>2026-04-19T07:52:51.503Z</time></trkpt><trkpt lat="40.8311033" lon="8.3089583"><ele>37.0</ele><time>2026-04-19T07:52:52.502Z</time></trkpt><trkpt lat="40.8311533" lon="8.30869"><ele>37.0</ele><time>2026-04-19T07:52:53.503Z</time></trkpt><trkpt lat="40.8312117" lon="8.308425"><ele>37.0</ele><time>2026-04-19T07:52:54.503Z</time></trkpt><trkpt lat="40.83128" lon="8.3081683"><ele>37.0</ele><time>2026-04-19T07:52:55.502Z</time></trkpt><trkpt lat="40.8313483" lon="8.307925"><ele>36.66666666666667</ele><time>2026-04-19T07:52:56.502Z</time></trkpt><trkpt lat="40.8314283" lon="8.3076917"><ele>36.333333333333336</ele><time>2026-04-19T07:52:57.502Z</time></trkpt><trkpt lat="40.8315117" lon="8.3074583"><ele>36.0</ele><time>2026-04-19T07:52:58.503Z</time></trkpt><trkpt lat="40.8315983" lon="8.3072283"><ele>36.0</ele><time>2026-04-19T07:52:59.502Z</time></trkpt><trkpt lat="40.8316733" lon="8.306995"><ele>36.0</ele><time>2026-04-19T07:53:00.502Z</time></trkpt><trkpt lat="40.8317533" lon="8.3067567"><ele>36.0</ele><time>2026-04-19T07:53:01.502Z</time></trkpt><trkpt lat="40.83183" lon="8.3065183"><ele>33.0</ele><time>2026-04-19T07:53:02.503Z</time></trkpt><trkpt lat="40.8319067" lon="8.30628"><ele>30.0</ele><time>2026-04-19T07:53:03.503Z</time></trkpt><trkpt lat="40.8319867" lon="8.30604"><ele>27.0</ele><time>2026-04-19T07:53:04.502Z</time></trkpt><trkpt lat="40.8320683" lon="8.3058"><ele>23.333333333333332</ele><time>2026-04-19T07:53:05.502Z</time></trkpt><trkpt lat="40.832145" lon="8.3055533"><ele>19.666666666666664</ele><time>2026-04-19T07:53:06.502Z</time></trkpt><trkpt lat="40.8322267" lon="8.3053067"><ele>16.0</ele><time>2026-04-19T07:53:07.502Z</time></trkpt><trkpt lat="40.8322983" lon="8.3050683"><ele>16.0</ele><time>2026-04-19T07:53:08.502Z</time></trkpt><trkpt lat="40.832375" lon="8.3048267"><ele>16.0</ele><time>2026-04-19T07:53:09.502Z</time></trkpt><trkpt lat="40.8324583" lon="8.30459"><ele>16.0</ele><time>2026-04-19T07:53:10.503Z</time></trkpt><trkpt lat="40.8325433" lon="8.3043517"><ele>14.333333333333332</ele><time>2026-04-19T07:53:11.503Z</time></trkpt><trkpt lat="40.8326217" lon="8.30411"><ele>12.666666666666666</ele><time>2026-04-19T07:53:12.502Z</time></trkpt><trkpt lat="40.8327" lon="8.3038733"><ele>11.0</ele><time>2026-04-19T07:53:13.502Z</time></trkpt><trkpt lat="40.8327867" lon="8.3036433"><ele>15.0</ele><time>2026-04-19T07:53:14.502Z</time></trkpt><trkpt lat="40.83287" lon="8.3034067"><ele>19.0</ele><time>2026-04-19T07:53:15.503Z</time></trkpt><trkpt lat="40.832955" lon="8.3031583"><ele>23.0</ele><time>2026-04-19T07:53:16.502Z</time></trkpt><trkpt lat="40.8330383" lon="8.3029117"><ele>23.0</ele><time>2026-04-19T07:53:17.502Z</time></trkpt><trkpt lat="40.83312" lon="8.3026583"><ele>23.0</ele><time>2026-04-19T07:53:18.502Z</time></trkpt><trkpt lat="40.833205" lon="8.3023917"><ele>23.0</ele><time>2026-04-19T07:53:19.502Z</time></trkpt><trkpt lat="40.8332917" lon="8.302135"><ele>23.333333333333336</ele><time>2026-04-19T07:53:20.503Z</time></trkpt><trkpt lat="40.8333783" lon="8.301875"><ele>23.666666666666668</ele><time>2026-04-19T07:53:21.503Z</time></trkpt><trkpt lat="40.833465" lon="8.301615"><ele>24.0</ele><time>2026-04-19T07:53:22.503Z</time></trkpt><trkpt lat="40.8335533" lon="8.3013567"><ele>23.0</ele><time>2026-04-19T07:53:23.503Z</time></trkpt><trkpt lat="40.8336383" lon="8.3011033"><ele>22.0</ele><time>2026-04-19T07:53:24.503Z</time></trkpt><trkpt lat="40.8337217" lon="8.30085"><ele>21.0</ele><time>2026-04-19T07:53:25.502Z</time></trkpt><trkpt lat="40.833805" lon="8.3005983"><ele>21.666666666666668</ele><time>2026-04-19T07:53:26.503Z</time></trkpt><trkpt lat="40.8338867" lon="8.30035"><ele>22.333333333333336</ele><time>2026-04-19T07:53:27.503Z</time></trkpt><trkpt lat="40.83397" lon="8.300105"><ele>23.0</ele><time>2026-04-19T07:53:28.502Z</time></trkpt><trkpt lat="40.834055" lon="8.29986"><ele>23.666666666666668</ele><time>2026-04-19T07:53:29.503Z</time></trkpt><trkpt lat="40.8341333" lon="8.2996067"><ele>24.333333333333336</ele><time>2026-04-19T07:53:30.502Z</time></trkpt><trkpt lat="40.8342083" lon="8.2993567"><ele>25.0</ele><time>2026-04-19T07:53:31.502Z</time></trkpt><trkpt lat="40.8342833" lon="8.2990933"><ele>24.666666666666668</ele><time>2026-04-19T07:53:32.502Z</time></trkpt><trkpt lat="40.8343533" lon="8.2988283"><ele>24.333333333333336</ele><time>2026-04-19T07:53:33.503Z</time></trkpt><trkpt lat="40.8344117" lon="8.29856"><ele>24.0</ele><time>2026-04-19T07:53:34.502Z</time></trkpt><trkpt lat="40.834475" lon="8.2982933"><ele>25.0</ele><time>2026-04-19T07:53:35.503Z</time></trkpt><trkpt lat="40.8345383" lon="8.29803"><ele>26.0</ele><time>2026-04-19T07:53:36.502Z</time></trkpt><trkpt lat="40.8346017" lon="8.2977567"><ele>27.0</ele><time>2026-04-19T07:53:37.502Z</time></trkpt><trkpt lat="40.8346633" lon="8.29749"><ele>28.0</ele><time>2026-04-19T07:53:38.502Z</time></trkpt><trkpt lat="40.834725" lon="8.29722"><ele>29.0</ele><time>2026-04-19T07:53:39.502Z</time></trkpt><trkpt lat="40.8347883" lon="8.296955"><ele>30.0</ele><time>2026-04-19T07:53:40.503Z</time></trkpt><trkpt lat="40.8348467" lon="8.2966983"><ele>30.0</ele><time>2026-04-19T07:53:41.502Z</time></trkpt><trkpt lat="40.8349033" lon="8.2964433"><ele>30.0</ele><time>2026-04-19T07:53:42.502Z</time></trkpt><trkpt lat="40.834965" lon="8.2961883"><ele>30.0</ele><time>2026-04-19T07:53:43.502Z</time></trkpt><trkpt lat="40.8350283" lon="8.2959383"><ele>30.666666666666664</ele><time>2026-04-19T07:53:44.503Z</time></trkpt><trkpt lat="40.8350867" lon="8.2956867"><ele>31.333333333333332</ele><time>2026-04-19T07:53:45.503Z</time></trkpt><trkpt lat="40.8351467" lon="8.295435"><ele>32.0</ele><time>2026-04-19T07:53:46.503Z</time></trkpt><trkpt lat="40.835205" lon="8.2951817"><ele>32.0</ele><time>2026-04-19T07:53:47.502Z</time></trkpt><trkpt lat="40.8352633" lon="8.294915"><ele>32.0</ele><time>2026-04-19T07:53:48.503Z</time></trkpt><trkpt lat="40.8353233" lon="8.29464"><ele>32.0</ele><time>2026-04-19T07:53:49.503Z</time></trkpt><trkpt lat="40.835385" lon="8.2943733"><ele>32.666666666666664</ele><time>2026-04-19T07:53:50.503Z</time></trkpt><trkpt lat="40.8354483" lon="8.294105"><ele>33.333333333333336</ele><time>2026-04-19T07:53:51.503Z</time></trkpt><trkpt lat="40.8355067" lon="8.2938383"><ele>34.0</ele><time>2026-04-19T07:53:52.503Z</time></trkpt><trkpt lat="40.8355717" lon="8.2935683"><ele>34.66666666666667</ele><time>2026-04-19T07:53:53.503Z</time></trkpt><trkpt lat="40.8356383" lon="8.2932983"><ele>35.333333333333336</ele><time>2026-04-19T07:53:54.503Z</time></trkpt><trkpt lat="40.8357033" lon="8.293025"><ele>36.0</ele><time>2026-04-19T07:53:55.502Z</time></trkpt><trkpt lat="40.8357667" lon="8.292755"><ele>36.333333333333336</ele><time>2026-04-19T07:53:56.502Z</time></trkpt><trkpt lat="40.8358333" lon="8.2924867"><ele>36.66666666666667</ele><time>2026-04-19T07:53:57.502Z</time></trkpt><trkpt lat="40.835895" lon="8.292215"><ele>37.0</ele><time>2026-04-19T07:53:58.502Z</time></trkpt><trkpt lat="40.835955" lon="8.2919433"><ele>37.333333333333336</ele><time>2026-04-19T07:53:59.502Z</time></trkpt><trkpt lat="40.8360217" lon="8.29168"><ele>37.666666666666664</ele><time>2026-04-19T07:54:00.502Z</time></trkpt><trkpt lat="40.8360817" lon="8.29141"><ele>38.0</ele><time>2026-04-19T07:54:01.502Z</time></trkpt><trkpt lat="40.83614" lon="8.2911367"><ele>38.0</ele><time>2026-04-19T07:54:02.502Z</time></trkpt><trkpt lat="40.8362" lon="8.2908683"><ele>38.0</ele><time>2026-04-19T07:54:03.503Z</time></trkpt><trkpt lat="40.8362583" lon="8.2905967"><ele>38.0</ele><time>2026-04-19T07:54:04.502Z</time></trkpt><trkpt lat="40.8363083" lon="8.2903217"><ele>38.666666666666664</ele><time>2026-04-19T07:54:05.503Z</time></trkpt><trkpt lat="40.8363367" lon="8.2900417"><ele>39.333333333333336</ele><time>2026-04-19T07:54:06.503Z</time></trkpt><trkpt lat="40.836355" lon="8.2897583"><ele>40.0</ele><time>2026-04-19T07:54:07.502Z</time></trkpt><trkpt lat="40.836375" lon="8.2894783"><ele>40.333333333333336</ele><time>2026-04-19T07:54:08.503Z</time></trkpt><trkpt lat="40.836385" lon="8.289195"><ele>40.666666666666664</ele><time>2026-04-19T07:54:09.503Z</time></trkpt><trkpt lat="40.8364067" lon="8.2889067"><ele>41.0</ele><time>2026-04-19T07:54:10.503Z</time></trkpt><trkpt lat="40.836415" lon="8.2886183"><ele>41.0</ele><time>2026-04-19T07:54:11.502Z</time></trkpt><trkpt lat="40.8364183" lon="8.2883283"><ele>41.0</ele><time>2026-04-19T07:54:12.503Z</time></trkpt><trkpt lat="40.8364283" lon="8.288045"><ele>41.0</ele><time>2026-04-19T07:54:13.503Z</time></trkpt><trkpt lat="40.83644" lon="8.2877783"><ele>41.0</ele><time>2026-04-19T07:54:14.503Z</time></trkpt><trkpt lat="40.8364433" lon="8.287515"><ele>41.0</ele><time>2026-04-19T07:54:15.503Z</time></trkpt><trkpt lat="40.8364617" lon="8.2872533"><ele>41.0</ele><time>2026-04-19T07:54:16.502Z</time></trkpt><trkpt lat="40.8364767" lon="8.2870217"><ele>41.0</ele><time>2026-04-19T07:54:17.503Z</time></trkpt><trkpt lat="40.83648" lon="8.286815"><ele>41.0</ele><time>2026-04-19T07:54:18.503Z</time></trkpt><trkpt lat="40.83649" lon="8.2866033"><ele>41.0</ele><time>2026-04-19T07:54:19.503Z</time></trkpt><trkpt lat="40.8365083" lon="8.2863817"><ele>40.666666666666664</ele><time>2026-04-19T07:54:20.502Z</time></trkpt><trkpt lat="40.8365517" lon="8.28618"><ele>40.333333333333336</ele><time>2026-04-19T07:54:21.502Z</time></trkpt><trkpt lat="40.8366117" lon="8.285975"><ele>40.0</ele><time>2026-04-19T07:54:22.502Z</time></trkpt><trkpt lat="40.8366967" lon="8.2857933"><ele>40.0</ele><time>2026-04-19T07:54:23.502Z</time></trkpt><trkpt lat="40.8368017" lon="8.2856267"><ele>40.0</ele><time>2026-04-19T07:54:24.503Z</time></trkpt><trkpt lat="40.836915" lon="8.2854667"><ele>40.0</ele><time>2026-04-19T07:54:25.503Z</time></trkpt><trkpt lat="40.8370483" lon="8.2853333"><ele>38.66666666666667</ele><time>2026-04-19T07:54:26.502Z</time></trkpt><trkpt lat="40.8371783" lon="8.2851883"><ele>37.333333333333336</ele><time>2026-04-19T07:54:27.502Z</time></trkpt><trkpt lat="40.83732" lon="8.28505"><ele>36.0</ele><time>2026-04-19T07:54:28.503Z</time></trkpt><trkpt lat="40.83745" lon="8.2848983"><ele>33.333333333333336</ele><time>2026-04-19T07:54:29.502Z</time></trkpt><trkpt lat="40.83758" lon="8.284755"><ele>30.666666666666668</ele><time>2026-04-19T07:54:30.502Z</time></trkpt><trkpt lat="40.8377167" lon="8.2846167"><ele>28.0</ele><time>2026-04-19T07:54:31.503Z</time></trkpt><trkpt lat="40.8378533" lon="8.2844683"><ele>27.666666666666668</ele><time>2026-04-19T07:54:32.502Z</time></trkpt><trkpt lat="40.8379933" lon="8.2843167"><ele>27.333333333333336</ele><time>2026-04-19T07:54:33.502Z</time></trkpt><trkpt lat="40.8381417" lon="8.28416"><ele>27.0</ele><time>2026-04-19T07:54:34.503Z</time></trkpt><trkpt lat="40.8383" lon="8.284"><ele>26.333333333333336</ele><time>2026-04-19T07:54:35.502Z</time></trkpt><trkpt lat="40.838455" lon="8.2838333"><ele>25.666666666666668</ele><time>2026-04-19T07:54:36.502Z</time></trkpt><trkpt lat="40.8386117" lon="8.2836633"><ele>25.0</ele><time>2026-04-19T07:54:37.502Z</time></trkpt><trkpt lat="40.8387617" lon="8.2835"><ele>25.0</ele><time>2026-04-19T07:54:38.502Z</time></trkpt><trkpt lat="40.838905" lon="8.2833467"><ele>25.0</ele><time>2026-04-19T07:54:39.503Z</time></trkpt><trkpt lat="40.83905" lon="8.28319"><ele>25.0</ele><time>2026-04-19T07:54:40.503Z</time></trkpt><trkpt lat="40.8392083" lon="8.283055"><ele>21.0</ele><time>2026-04-19T07:54:41.503Z</time></trkpt><trkpt lat="40.8393733" lon="8.282925"><ele>17.0</ele><time>2026-04-19T07:54:42.502Z</time></trkpt><trkpt lat="40.8395533" lon="8.28281"><ele>13.0</ele><time>2026-04-19T07:54:43.503Z</time></trkpt><trkpt lat="40.839745" lon="8.2827117"><ele>13.0</ele><time>2026-04-19T07:54:44.502Z</time></trkpt><trkpt lat="40.8399367" lon="8.2826267"><ele>13.0</ele><time>2026-04-19T07:54:45.503Z</time></trkpt><trkpt lat="40.8401283" lon="8.2825333"><ele>13.0</ele><time>2026-04-19T07:54:46.503Z</time></trkpt><trkpt lat="40.840325" lon="8.2824283"><ele>12.0</ele><time>2026-04-19T07:54:47.503Z</time></trkpt><trkpt lat="40.8405267" lon="8.2823233"><ele>11.0</ele><time>2026-04-19T07:54:48.503Z</time></trkpt><trkpt lat="40.8407167" lon="8.2822317"><ele>10.0</ele><time>2026-04-19T07:54:49.503Z</time></trkpt><trkpt lat="40.840905" lon="8.282135"><ele>8.333333333333334</ele><time>2026-04-19T07:54:50.503Z</time></trkpt><trkpt lat="40.84109" lon="8.28205"><ele>6.666666666666667</ele><time>2026-04-19T07:54:51.503Z</time></trkpt><trkpt lat="40.84127" lon="8.28195"><ele>5.0</ele><time>2026-04-19T07:54:52.502Z</time></trkpt><trkpt lat="40.8414467" lon="8.2818533"><ele>5.0</ele><time>2026-04-19T07:54:53.502Z</time></trkpt><trkpt lat="40.841615" lon="8.28174"><ele>5.0</ele><time>2026-04-19T07:54:54.502Z</time></trkpt><trkpt lat="40.8417683" lon="8.2815917"><ele>5.0</ele><time>2026-04-19T07:54:55.503Z</time></trkpt><trkpt lat="40.841905" lon="8.2814283"><ele>4.333333333333334</ele><time>2026-04-19T07:54:56.502Z</time></trkpt><trkpt lat="40.8420367" lon="8.28125"><ele>3.666666666666667</ele><time>2026-04-19T07:54:57.502Z</time></trkpt><trkpt lat="40.8421517" lon="8.2810317"><ele>3.0</ele><time>2026-04-19T07:54:58.503Z</time></trkpt><trkpt lat="40.84227" lon="8.2808083"><ele>3.333333333333333</ele><time>2026-04-19T07:54:59.502Z</time></trkpt><trkpt lat="40.8423833" lon="8.280595"><ele>3.6666666666666665</ele><time>2026-04-19T07:55:00.502Z</time></trkpt><trkpt lat="40.8424883" lon="8.28039"><ele>4.0</ele><time>2026-04-19T07:55:01.502Z</time></trkpt><trkpt lat="40.842595" lon="8.2801833"><ele>4.333333333333333</ele><time>2026-04-19T07:55:02.503Z</time></trkpt><trkpt lat="40.842695" lon="8.2799683"><ele>4.666666666666667</ele><time>2026-04-19T07:55:03.502Z</time></trkpt><trkpt lat="40.8427817" lon="8.2797517"><ele>5.0</ele><time>2026-04-19T07:55:04.503Z</time></trkpt><trkpt lat="40.8428567" lon="8.2795217"><ele>8.0</ele><time>2026-04-19T07:55:05.503Z</time></trkpt><trkpt lat="40.8429133" lon="8.2792833"><ele>11.0</ele><time>2026-04-19T07:55:06.503Z</time></trkpt><trkpt lat="40.842955" lon="8.2790333"><ele>14.0</ele><time>2026-04-19T07:55:07.502Z</time></trkpt><trkpt lat="40.84298" lon="8.2787833"><ele>15.333333333333334</ele><time>2026-04-19T07:55:08.502Z</time></trkpt><trkpt lat="40.843005" lon="8.2785267"><ele>16.666666666666668</ele><time>2026-04-19T07:55:09.502Z</time></trkpt><trkpt lat="40.84303" lon="8.278265"><ele>18.0</ele><time>2026-04-19T07:55:10.503Z</time></trkpt><trkpt lat="40.843065" lon="8.2780117"><ele>18.333333333333332</ele><time>2026-04-19T07:55:11.503Z</time></trkpt><trkpt lat="40.8430967" lon="8.27775"><ele>18.666666666666664</ele><time>2026-04-19T07:55:12.502Z</time></trkpt><trkpt lat="40.843115" lon="8.2774967"><ele>19.0</ele><time>2026-04-19T07:55:13.503Z</time></trkpt><trkpt lat="40.843135" lon="8.277275"><ele>19.25</ele><time>2026-04-19T07:55:14.502Z</time></trkpt><trkpt lat="40.843155" lon="8.2770583"><ele>19.5</ele><time>2026-04-19T07:55:15.503Z</time></trkpt><trkpt lat="40.843175" lon="8.2768667"><ele>19.75</ele><time>2026-04-19T07:55:16.503Z</time></trkpt><trkpt lat="40.843195" lon="8.2767"><ele>20.0</ele><time>2026-04-19T07:55:17.502Z</time></trkpt><trkpt lat="40.84321" lon="8.2765683"><ele>20.0</ele><time>2026-04-19T07:55:18.502Z</time></trkpt><trkpt lat="40.8432233" lon="8.27646"><ele>20.0</ele><time>2026-04-19T07:55:19.502Z</time></trkpt><trkpt lat="40.8432267" lon="8.27637"><ele>20.0</ele><time>2026-04-19T07:55:20.503Z</time></trkpt><trkpt lat="40.8432517" lon="8.27626"><ele>20.0</ele><time>2026-04-19T07:55:22.502Z</time></trkpt><trkpt lat="40.8433083" lon="8.2762233"><ele>20.0</ele><time>2026-04-19T07:55:24.503Z</time></trkpt><trkpt lat="40.84338" lon="8.2762583"><ele>20.0</ele><time>2026-04-19T07:55:26.502Z</time></trkpt><trkpt lat="40.8434617" lon="8.2763233"><ele>20.4</ele><time>2026-04-19T07:55:28.503Z</time></trkpt><trkpt lat="40.84357" lon="8.2763717"><ele>20.8</ele><time>2026-04-19T07:55:30.502Z</time></trkpt><trkpt lat="40.84369" lon="8.2764017"><ele>21.200000000000003</ele><time>2026-04-19T07:55:32.502Z</time></trkpt><trkpt lat="40.84376" lon="8.2764083"><ele>21.6</ele><time>2026-04-19T07:55:33.503Z</time></trkpt><trkpt lat="40.8438333" lon="8.2764167"><ele>22.0</ele><time>2026-04-19T07:55:34.502Z</time></trkpt><trkpt lat="40.8439033" lon="8.27641"><ele>22.0</ele><time>2026-04-19T07:55:35.503Z</time></trkpt><trkpt lat="40.843975" lon="8.2764017"><ele>22.0</ele><time>2026-04-19T07:55:36.503Z</time></trkpt><trkpt lat="40.8440383" lon="8.2763983"><ele>22.0</ele><time>2026-04-19T07:55:37.502Z</time></trkpt><trkpt lat="40.8441383" lon="8.2763867"><ele>22.0</ele><time>2026-04-19T07:55:39.503Z</time></trkpt><trkpt lat="40.8442183" lon="8.27638"><ele>22.0</ele><time>2026-04-19T07:55:41.503Z</time></trkpt><trkpt lat="40.8442983" lon="8.276375"><ele>22.0</ele><time>2026-04-19T07:55:43.502Z</time></trkpt><trkpt lat="40.8444067" lon="8.2763517"><ele>21.833333333333332</ele><time>2026-04-19T07:55:45.503Z</time></trkpt><trkpt lat="40.84447" lon="8.276345"><ele>21.666666666666664</ele><time>2026-04-19T07:55:46.503Z</time></trkpt><trkpt lat="40.8445417" lon="8.2763317"><ele>21.5</ele><time>2026-04-19T07:55:47.503Z</time></trkpt><trkpt lat="40.8446183" lon="8.2763217"><ele>21.333333333333332</ele><time>2026-04-19T07:55:48.502Z</time></trkpt><trkpt lat="40.8446883" lon="8.2763083"><ele>21.166666666666668</ele><time>2026-04-19T07:55:49.503Z</time></trkpt><trkpt lat="40.84477" lon="8.2762783"><ele>21.0</ele><time>2026-04-19T07:55:50.503Z</time></trkpt><trkpt lat="40.8448533" lon="8.2762467"><ele>21.0</ele><time>2026-04-19T07:55:51.502Z</time></trkpt><trkpt lat="40.844935" lon="8.2762217"><ele>21.0</ele><time>2026-04-19T07:55:52.502Z</time></trkpt><trkpt lat="40.8450067" lon="8.2762067"><ele>21.0</ele><time>2026-04-19T07:55:53.503Z</time></trkpt><trkpt lat="40.8450817" lon="8.276195"><ele>21.0</ele><time>2026-04-19T07:55:54.502Z</time></trkpt><trkpt lat="40.84515" lon="8.2761833"><ele>21.0</ele><time>2026-04-19T07:55:55.502Z</time></trkpt><trkpt lat="40.8452167" lon="8.2761683"><ele>21.0</ele><time>2026-04-19T07:55:56.502Z</time></trkpt><trkpt lat="40.8452833" lon="8.27615"><ele>21.0</ele><time>2026-04-19T07:55:57.502Z</time></trkpt><trkpt lat="40.8453983" lon="8.2761117"><ele>20.5</ele><time>2026-04-19T07:55:59.502Z</time></trkpt><trkpt lat="40.8454633" lon="8.2760867"><ele>20.0</ele><time>2026-04-19T07:56:00.503Z</time></trkpt><trkpt lat="40.845545" lon="8.27606"><ele>19.5</ele><time>2026-04-19T07:56:01.503Z</time></trkpt><trkpt lat="40.84564" lon="8.2760417"><ele>19.0</ele><time>2026-04-19T07:56:02.502Z</time></trkpt><trkpt lat="40.8457367" lon="8.2760267"><ele>18.5</ele><time>2026-04-19T07:56:03.503Z</time></trkpt><trkpt lat="40.8458333" lon="8.2760133"><ele>18.0</ele><time>2026-04-19T07:56:04.503Z</time></trkpt><trkpt lat="40.84593" lon="8.2760133"><ele>17.8</ele><time>2026-04-19T07:56:05.502Z</time></trkpt><trkpt lat="40.8460317" lon="8.276025"><ele>17.6</ele><time>2026-04-19T07:56:06.502Z</time></trkpt><trkpt lat="40.846125" lon="8.2760483"><ele>17.4</ele><time>2026-04-19T07:56:07.502Z</time></trkpt><trkpt lat="40.8462183" lon="8.27608"><ele>17.2</ele><time>2026-04-19T07:56:08.503Z</time></trkpt><trkpt lat="40.8463217" lon="8.27613"><ele>17.0</ele><time>2026-04-19T07:56:09.502Z</time></trkpt><trkpt lat="40.8464267" lon="8.2761833"><ele>17.0</ele><time>2026-04-19T07:56:10.502Z</time></trkpt><trkpt lat="40.8465267" lon="8.2762283"><ele>17.0</ele><time>2026-04-19T07:56:11.503Z</time></trkpt><trkpt lat="40.8466333" lon="8.276265"><ele>17.0</ele><time>2026-04-19T07:56:12.503Z</time></trkpt><trkpt lat="40.8467517" lon="8.2762867"><ele>17.0</ele><time>2026-04-19T07:56:13.502Z</time></trkpt><trkpt lat="40.8468633" lon="8.2763033"><ele>17.0</ele><time>2026-04-19T07:56:14.502Z</time></trkpt><trkpt lat="40.8469733" lon="8.276315"><ele>17.0</ele><time>2026-04-19T07:56:15.502Z</time></trkpt><trkpt lat="40.8470717" lon="8.2763283"><ele>17.0</ele><time>2026-04-19T07:56:16.503Z</time></trkpt><trkpt lat="40.8471683" lon="8.2763583"><ele>17.0</ele><time>2026-04-19T07:56:17.502Z</time></trkpt><trkpt lat="40.84726" lon="8.2764117"><ele>17.0</ele><time>2026-04-19T07:56:18.502Z</time></trkpt><trkpt lat="40.8473533" lon="8.27647"><ele>17.0</ele><time>2026-04-19T07:56:19.502Z</time></trkpt><trkpt lat="40.8474567" lon="8.276545"><ele>17.0</ele><time>2026-04-19T07:56:20.503Z</time></trkpt><trkpt lat="40.8475533" lon="8.276625"><ele>17.0</ele><time>2026-04-19T07:56:21.502Z</time></trkpt><trkpt lat="40.8476467" lon="8.276695"><ele>17.0</ele><time>2026-04-19T07:56:22.502Z</time></trkpt><trkpt lat="40.8477483" lon="8.2767633"><ele>17.0</ele><time>2026-04-19T07:56:23.502Z</time></trkpt><trkpt lat="40.847855" lon="8.2768317"><ele>17.0</ele><time>2026-04-19T07:56:24.502Z</time></trkpt><trkpt lat="40.8479567" lon="8.2769033"><ele>17.0</ele><time>2026-04-19T07:56:25.502Z</time></trkpt><trkpt lat="40.8480683" lon="8.2769617"><ele>17.0</ele><time>2026-04-19T07:56:26.503Z</time></trkpt><trkpt lat="40.84818" lon="8.277015"><ele>17.0</ele><time>2026-04-19T07:56:27.502Z</time></trkpt><trkpt lat="40.8482917" lon="8.2770583"><ele>17.0</ele><time>2026-04-19T07:56:28.502Z</time></trkpt><trkpt lat="40.848395" lon="8.2771"><ele>17.0</ele><time>2026-04-19T07:56:29.503Z</time></trkpt><trkpt lat="40.8484933" lon="8.2771383"><ele>17.0</ele><time>2026-04-19T07:56:30.503Z</time></trkpt><trkpt lat="40.8486" lon="8.2771633"><ele>17.0</ele><time>2026-04-19T07:56:31.502Z</time></trkpt><trkpt lat="40.8487067" lon="8.27718"><ele>17.0</ele><time>2026-04-19T07:56:32.503Z</time></trkpt><trkpt lat="40.848815" lon="8.277185"><ele>17.2</ele><time>2026-04-19T07:56:33.502Z</time></trkpt><trkpt lat="40.848915" lon="8.2771783"><ele>17.4</ele><time>2026-04-19T07:56:34.503Z</time></trkpt><trkpt lat="40.8490317" lon="8.2771617"><ele>17.6</ele><time>2026-04-19T07:56:35.502Z</time></trkpt><trkpt lat="40.84914" lon="8.27713"><ele>17.8</ele><time>2026-04-19T07:56:36.502Z</time></trkpt><trkpt lat="40.8492367" lon="8.2771"><ele>18.0</ele><time>2026-04-19T07:56:37.503Z</time></trkpt><trkpt lat="40.8493167" lon="8.2770517"><ele>18.000000000000004</ele><time>2026-04-19T07:56:38.502Z</time></trkpt><trkpt lat="40.84939" lon="8.2770017"><ele>18.0</ele><time>2026-04-19T07:56:39.503Z</time></trkpt><trkpt lat="40.8494617" lon="8.27696"><ele>18.0</ele><time>2026-04-19T07:56:40.502Z</time></trkpt><trkpt lat="40.84953" lon="8.276925"><ele>18.0</ele><time>2026-04-19T07:56:41.503Z</time></trkpt><trkpt lat="40.84959" lon="8.276895"><ele>18.0</ele><time>2026-04-19T07:56:42.503Z</time></trkpt><trkpt lat="40.84966" lon="8.2768717"><ele>18.000000000000004</ele><time>2026-04-19T07:56:43.503Z</time></trkpt><trkpt lat="40.8497367" lon="8.276865"><ele>18.0</ele><time>2026-04-19T07:56:44.503Z</time></trkpt><trkpt lat="40.8498183" lon="8.27684"><ele>18.0</ele><time>2026-04-19T07:56:45.502Z</time></trkpt><trkpt lat="40.8499" lon="8.2768083"><ele>18.0</ele><time>2026-04-19T07:56:46.502Z</time></trkpt><trkpt lat="40.84998" lon="8.2767733"><ele>18.0</ele><time>2026-04-19T07:56:47.502Z</time></trkpt><trkpt lat="40.85006" lon="8.27673"><ele>18.0</ele><time>2026-04-19T07:56:48.502Z</time></trkpt><trkpt lat="40.8501433" lon="8.2767017"><ele>18.0</ele><time>2026-04-19T07:56:49.502Z</time></trkpt><trkpt lat="40.8502317" lon="8.2766833"><ele>18.0</ele><time>2026-04-19T07:56:50.502Z</time></trkpt><trkpt lat="40.85032" lon="8.2766867"><ele>17.571428571428573</ele><time>2026-04-19T07:56:51.503Z</time></trkpt><trkpt lat="40.8504" lon="8.2767033"><ele>17.142857142857142</ele><time>2026-04-19T07:56:52.503Z</time></trkpt><trkpt lat="40.850475" lon="8.2767183"><ele>16.714285714285715</ele><time>2026-04-19T07:56:53.502Z</time></trkpt><trkpt lat="40.8505467" lon="8.2767367"><ele>16.285714285714285</ele><time>2026-04-19T07:56:54.503Z</time></trkpt><trkpt lat="40.8506217" lon="8.276745"><ele>15.857142857142858</ele><time>2026-04-19T07:56:55.502Z</time></trkpt><trkpt lat="40.8506883" lon="8.2767417"><ele>15.428571428571429</ele><time>2026-04-19T07:56:56.502Z</time></trkpt><trkpt lat="40.8507517" lon="8.27672"><ele>15.0</ele><time>2026-04-19T07:56:57.503Z</time></trkpt><trkpt lat="40.8508167" lon="8.2766767"><ele>15.0</ele><time>2026-04-19T07:56:58.503Z</time></trkpt><trkpt lat="40.8508783" lon="8.2766133"><ele>15.0</ele><time>2026-04-19T07:56:59.502Z</time></trkpt><trkpt lat="40.8509467" lon="8.2765233"><ele>15.0</ele><time>2026-04-19T07:57:00.503Z</time></trkpt><trkpt lat="40.851015" lon="8.2764333"><ele>15.0</ele><time>2026-04-19T07:57:01.503Z</time></trkpt><trkpt lat="40.8510817" lon="8.2763433"><ele>15.0</ele><time>2026-04-19T07:57:02.502Z</time></trkpt><trkpt lat="40.8511567" lon="8.27625"><ele>13.2</ele><time>2026-04-19T07:57:03.503Z</time></trkpt><trkpt lat="40.8512283" lon="8.2761567"><ele>11.4</ele><time>2026-04-19T07:57:04.503Z</time></trkpt><trkpt lat="40.851305" lon="8.2760667"><ele>9.6</ele><time>2026-04-19T07:57:05.502Z</time></trkpt><trkpt lat="40.8513783" lon="8.27598"><ele>7.8</ele><time>2026-04-19T07:57:06.503Z</time></trkpt><trkpt lat="40.8514483" lon="8.2759033"><ele>6.0</ele><time>2026-04-19T07:57:07.502Z</time></trkpt><trkpt lat="40.8515117" lon="8.2758283"><ele>6.0</ele><time>2026-04-19T07:57:08.503Z</time></trkpt><trkpt lat="40.8515633" lon="8.275755"><ele>6.0</ele><time>2026-04-19T07:57:09.503Z</time></trkpt><trkpt lat="40.85161" lon="8.2756933"><ele>6.0</ele><time>2026-04-19T07:57:10.503Z</time></trkpt><trkpt lat="40.85167" lon="8.275555"><ele>6.0</ele><time>2026-04-19T07:57:12.503Z</time></trkpt><trkpt lat="40.8516933" lon="8.275465"><ele>6.0</ele><time>2026-04-19T07:57:13.502Z</time></trkpt><trkpt lat="40.8517067" lon="8.2753533"><ele>6.0</ele><time>2026-04-19T07:57:14.503Z</time></trkpt><trkpt lat="40.8517083" lon="8.2752367"><ele>5.333333333333333</ele><time>2026-04-19T07:57:15.503Z</time></trkpt><trkpt lat="40.85171" lon="8.2751183"><ele>4.666666666666667</ele><time>2026-04-19T07:57:16.503Z</time></trkpt><trkpt lat="40.8517183" lon="8.2750033"><ele>4.0</ele><time>2026-04-19T07:57:17.503Z</time></trkpt><trkpt lat="40.8517167" lon="8.2748933"><ele>3.333333333333333</ele><time>2026-04-19T07:57:18.503Z</time></trkpt><trkpt lat="40.851715" lon="8.27478"><ele>2.6666666666666665</ele><time>2026-04-19T07:57:19.503Z</time></trkpt><trkpt lat="40.8517033" lon="8.2746883"><ele>2.0</ele><time>2026-04-19T07:57:20.502Z</time></trkpt><trkpt lat="40.85169" lon="8.27459"><ele>1.9999999999999998</ele><time>2026-04-19T07:57:21.502Z</time></trkpt><trkpt lat="40.85167" lon="8.2744817"><ele>2.0</ele><time>2026-04-19T07:57:22.503Z</time></trkpt><trkpt lat="40.85165" lon="8.27438"><ele>2.0</ele><time>2026-04-19T07:57:23.503Z</time></trkpt><trkpt lat="40.851635" lon="8.2742933"><ele>2.0</ele><time>2026-04-19T07:57:24.503Z</time></trkpt><trkpt lat="40.8516233" lon="8.27421"><ele>1.9999999999999998</ele><time>2026-04-19T07:57:25.502Z</time></trkpt><trkpt lat="40.8516417" lon="8.274065"><ele>2.0</ele><time>2026-04-19T07:57:27.503Z</time></trkpt><trkpt lat="40.8517133" lon="8.2739233"><ele>2.2</ele><time>2026-04-19T07:57:29.502Z</time></trkpt><trkpt lat="40.8517767" lon="8.2738517"><ele>2.4000000000000004</ele><time>2026-04-19T07:57:30.503Z</time></trkpt><trkpt lat="40.8518467" lon="8.273785"><ele>2.5999999999999996</ele><time>2026-04-19T07:57:31.503Z</time></trkpt><trkpt lat="40.8519267" lon="8.2737217"><ele>2.8</ele><time>2026-04-19T07:57:32.502Z</time></trkpt><trkpt lat="40.85201" lon="8.2736567"><ele>3.0</ele><time>2026-04-19T07:57:33.502Z</time></trkpt><trkpt lat="40.8520883" lon="8.2735917"><ele>3.0</ele><time>2026-04-19T07:57:34.503Z</time></trkpt><trkpt lat="40.8521617" lon="8.2735317"><ele>3.0</ele><time>2026-04-19T07:57:35.502Z</time></trkpt><trkpt lat="40.8522283" lon="8.273475"><ele>3.0</ele><time>2026-04-19T07:57:36.503Z</time></trkpt><trkpt lat="40.8522933" lon="8.2734283"><ele>3.0</ele><time>2026-04-19T07:57:37.503Z</time></trkpt><trkpt lat="40.8523517" lon="8.273395"><ele>3.0</ele><time>2026-04-19T07:57:38.503Z</time></trkpt><trkpt lat="40.852445" lon="8.2733483"><ele>3.0</ele><time>2026-04-19T07:57:40.503Z</time></trkpt><trkpt lat="40.85254" lon="8.2733067"><ele>3.2</ele><time>2026-04-19T07:57:42.503Z</time></trkpt><trkpt lat="40.85265" lon="8.27326"><ele>3.4</ele><time>2026-04-19T07:57:44.503Z</time></trkpt><trkpt lat="40.8527783" lon="8.273225"><ele>3.6000000000000005</ele><time>2026-04-19T07:57:46.503Z</time></trkpt><trkpt lat="40.8528533" lon="8.2732017"><ele>3.8000000000000003</ele><time>2026-04-19T07:57:47.502Z</time></trkpt><trkpt lat="40.8529267" lon="8.2731917"><ele>4.0</ele><time>2026-04-19T07:57:48.503Z</time></trkpt><trkpt lat="40.8529933" lon="8.27318"><ele>3.9999999999999996</ele><time>2026-04-19T07:57:49.503Z</time></trkpt><trkpt lat="40.8530567" lon="8.273175"><ele>4.0</ele><time>2026-04-19T07:57:50.502Z</time></trkpt><trkpt lat="40.85312" lon="8.2731817"><ele>4.0</ele><time>2026-04-19T07:57:51.502Z</time></trkpt><trkpt lat="40.8532367" lon="8.2731933"><ele>4.0</ele><time>2026-04-19T07:57:53.503Z</time></trkpt><trkpt lat="40.8533567" lon="8.2732283"><ele>3.9999999999999996</ele><time>2026-04-19T07:57:55.502Z</time></trkpt><trkpt lat="40.8534267" lon="8.2732533"><ele>4.0</ele><time>2026-04-19T07:57:56.503Z</time></trkpt><trkpt lat="40.8535017" lon="8.273275"><ele>3.4999999999999996</ele><time>2026-04-19T07:57:57.503Z</time></trkpt><trkpt lat="40.8535767" lon="8.273295"><ele>3.0</ele><time>2026-04-19T07:57:58.502Z</time></trkpt><trkpt lat="40.8536417" lon="8.2733133"><ele>2.5</ele><time>2026-04-19T07:57:59.503Z</time></trkpt><trkpt lat="40.8537067" lon="8.273315"><ele>2.0</ele><time>2026-04-19T07:58:00.502Z</time></trkpt><trkpt lat="40.853815" lon="8.2732833"><ele>1.5</ele><time>2026-04-19T07:58:02.502Z</time></trkpt><trkpt lat="40.8538817" lon="8.27328"><ele>1.0</ele><time>2026-04-19T07:58:03.502Z</time></trkpt><trkpt lat="40.8539483" lon="8.2732867"><ele>0.9999999999999999</ele><time>2026-04-19T07:58:04.503Z</time></trkpt><trkpt lat="40.8540117" lon="8.2733017"><ele>1.0</ele><time>2026-04-19T07:58:05.502Z</time></trkpt><trkpt lat="40.8540833" lon="8.273315"><ele>1.0</ele><time>2026-04-19T07:58:06.502Z</time></trkpt><trkpt lat="40.8541583" lon="8.2733433"><ele>1.0</ele><time>2026-04-19T07:58:07.502Z</time></trkpt><trkpt lat="40.8542383" lon="8.2733767"><ele>0.9999999999999999</ele><time>2026-04-19T07:58:08.502Z</time></trkpt><trkpt lat="40.8543233" lon="8.273405"><ele>1.0</ele><time>2026-04-19T07:58:09.503Z</time></trkpt><trkpt lat="40.8543967" lon="8.27344"><ele>0.8333333333333333</ele><time>2026-04-19T07:58:10.503Z</time></trkpt><trkpt lat="40.8544733" lon="8.2734633"><ele>0.6666666666666666</ele><time>2026-04-19T07:58:11.502Z</time></trkpt><trkpt lat="40.8545417" lon="8.2734733"><ele>0.5</ele><time>2026-04-19T07:58:12.503Z</time></trkpt><trkpt lat="40.8546067" lon="8.27347"><ele>0.3333333333333333</ele><time>2026-04-19T07:58:13.503Z</time></trkpt><trkpt lat="40.8546683" lon="8.27344"><ele>0.16666666666666666</ele><time>2026-04-19T07:58:14.503Z</time></trkpt><trkpt lat="40.8547467" lon="8.273395"><ele>0.0</ele><time>2026-04-19T07:58:15.502Z</time></trkpt><trkpt lat="40.8548233" lon="8.27333"><ele>0.0</ele><time>2026-04-19T07:58:16.502Z</time></trkpt><trkpt lat="40.854895" lon="8.27325"><ele>0.0</ele><time>2026-04-19T07:58:17.503Z</time></trkpt><trkpt lat="40.8549733" lon="8.2731817"><ele>0.0</ele><time>2026-04-19T07:58:18.503Z</time></trkpt><trkpt lat="40.8550517" lon="8.273115"><ele>0.0</ele><time>2026-04-19T07:58:19.503Z</time></trkpt><trkpt lat="40.8551267" lon="8.2730583"><ele>0.0</ele><time>2026-04-19T07:58:20.502Z</time></trkpt><trkpt lat="40.855205" lon="8.2730033"><ele>0.0</ele><time>2026-04-19T07:58:21.502Z</time></trkpt><trkpt lat="40.855275" lon="8.2729317"><ele>0.0</ele><time>2026-04-19T07:58:22.502Z</time></trkpt><trkpt lat="40.8553517" lon="8.2728633"><ele>0.0</ele><time>2026-04-19T07:58:23.503Z</time></trkpt><trkpt lat="40.8554283" lon="8.2728033"><ele>0.0</ele><time>2026-04-19T07:58:24.502Z</time></trkpt><trkpt lat="40.855505" lon="8.272755"><ele>0.0</ele><time>2026-04-19T07:58:25.502Z</time></trkpt><trkpt lat="40.8555717" lon="8.27272"><ele>0.0</ele><time>2026-04-19T07:58:26.502Z</time></trkpt><trkpt lat="40.8556433" lon="8.2726817"><ele>0.0</ele><time>2026-04-19T07:58:27.503Z</time></trkpt><trkpt lat="40.855715" lon="8.27264"><ele>0.0</ele><time>2026-04-19T07:58:28.502Z</time></trkpt><trkpt lat="40.8558417" lon="8.272565"><ele>0.0</ele><time>2026-04-19T07:58:30.502Z</time></trkpt><trkpt lat="40.85592" lon="8.2725217"><ele>0.0</ele><time>2026-04-19T07:58:31.503Z</time></trkpt><trkpt lat="40.856" lon="8.272475"><ele>0.0</ele><time>2026-04-19T07:58:32.503Z</time></trkpt><trkpt lat="40.8560867" lon="8.27243"><ele>0.16666666666666666</ele><time>2026-04-19T07:58:33.503Z</time></trkpt><trkpt lat="40.85617" lon="8.272385"><ele>0.3333333333333333</ele><time>2026-04-19T07:58:34.502Z</time></trkpt><trkpt lat="40.8562483" lon="8.2723433"><ele>0.5</ele><time>2026-04-19T07:58:35.503Z</time></trkpt><trkpt lat="40.8563217" lon="8.2722983"><ele>0.6666666666666666</ele><time>2026-04-19T07:58:36.503Z</time></trkpt><trkpt lat="40.85639" lon="8.2722517"><ele>0.8333333333333333</ele><time>2026-04-19T07:58:37.503Z</time></trkpt><trkpt lat="40.8564517" lon="8.272205"><ele>1.0</ele><time>2026-04-19T07:58:38.502Z</time></trkpt><trkpt lat="40.8565133" lon="8.2721417"><ele>1.0</ele><time>2026-04-19T07:58:39.503Z</time></trkpt><trkpt lat="40.85657" lon="8.2720733"><ele>1.0</ele><time>2026-04-19T07:58:40.503Z</time></trkpt><trkpt lat="40.8566317" lon="8.2719917"><ele>1.0</ele><time>2026-04-19T07:58:41.503Z</time></trkpt><trkpt lat="40.8566983" lon="8.2718967"><ele>1.0</ele><time>2026-04-19T07:58:42.502Z</time></trkpt><trkpt lat="40.856765" lon="8.2718017"><ele>1.0</ele><time>2026-04-19T07:58:43.502Z</time></trkpt><trkpt lat="40.8568217" lon="8.2717033"><ele>0.8333333333333333</ele><time>2026-04-19T07:58:44.503Z</time></trkpt><trkpt lat="40.8568767" lon="8.2716017"><ele>0.6666666666666666</ele><time>2026-04-19T07:58:45.502Z</time></trkpt><trkpt lat="40.85693" lon="8.2715017"><ele>0.5</ele><time>2026-04-19T07:58:46.503Z</time></trkpt><trkpt lat="40.8569833" lon="8.2714083"><ele>0.3333333333333333</ele><time>2026-04-19T07:58:47.502Z</time></trkpt><trkpt lat="40.8570317" lon="8.2713217"><ele>0.16666666666666666</ele><time>2026-04-19T07:58:48.503Z</time></trkpt><trkpt lat="40.8570717" lon="8.2712467"><ele>0.0</ele><time>2026-04-19T07:58:49.502Z</time></trkpt><trkpt lat="40.8571417" lon="8.2711033"><ele>0.4</ele><time>2026-04-19T07:58:51.503Z</time></trkpt><trkpt lat="40.85719" lon="8.2710133"><ele>0.8</ele><time>2026-04-19T07:58:52.502Z</time></trkpt><trkpt lat="40.857235" lon="8.2709033"><ele>1.2000000000000002</ele><time>2026-04-19T07:58:53.503Z</time></trkpt><trkpt lat="40.8572767" lon="8.270795"><ele>1.6</ele><time>2026-04-19T07:58:54.502Z</time></trkpt><trkpt lat="40.8573133" lon="8.27068"><ele>2.0</ele><time>2026-04-19T07:58:55.503Z</time></trkpt><trkpt lat="40.8573567" lon="8.2705667"><ele>2.2</ele><time>2026-04-19T07:58:56.502Z</time></trkpt><trkpt lat="40.8574117" lon="8.270445"><ele>2.4000000000000004</ele><time>2026-04-19T07:58:57.502Z</time></trkpt><trkpt lat="40.857455" lon="8.2703317"><ele>2.5999999999999996</ele><time>2026-04-19T07:58:58.503Z</time></trkpt><trkpt lat="40.85748" lon="8.2702333"><ele>2.8</ele><time>2026-04-19T07:58:59.503Z</time></trkpt><trkpt lat="40.8575167" lon="8.2701"><ele>3.0</ele><time>2026-04-19T07:59:01.503Z</time></trkpt><trkpt lat="40.857605" lon="8.2699817"><ele>3.0</ele><time>2026-04-19T07:59:03.502Z</time></trkpt><trkpt lat="40.8577133" lon="8.269885"><ele>3.0</ele><time>2026-04-19T07:59:05.502Z</time></trkpt><trkpt lat="40.85778" lon="8.269845"><ele>3.0</ele><time>2026-04-19T07:59:06.502Z</time></trkpt><trkpt lat="40.857845" lon="8.2698083"><ele>3.0</ele><time>2026-04-19T07:59:07.503Z</time></trkpt><trkpt lat="40.8579183" lon="8.2697717"><ele>3.0</ele><time>2026-04-19T07:59:08.503Z</time></trkpt><trkpt lat="40.8579933" lon="8.2697217"><ele>3.0</ele><time>2026-04-19T07:59:09.502Z</time></trkpt><trkpt lat="40.8580867" lon="8.26966"><ele>3.0</ele><time>2026-04-19T07:59:10.502Z</time></trkpt><trkpt lat="40.85819" lon="8.2695917"><ele>3.0</ele><time>2026-04-19T07:59:11.502Z</time></trkpt><trkpt lat="40.8583117" lon="8.2695317"><ele>3.0</ele><time>2026-04-19T07:59:12.503Z</time></trkpt><trkpt lat="40.8584367" lon="8.2694667"><ele>3.0</ele><time>2026-04-19T07:59:13.503Z</time></trkpt><trkpt lat="40.8585717" lon="8.2694033"><ele>3.5</ele><time>2026-04-19T07:59:14.502Z</time></trkpt><trkpt lat="40.8586967" lon="8.2693517"><ele>4.0</ele><time>2026-04-19T07:59:15.502Z</time></trkpt><trkpt lat="40.8588083" lon="8.269285"><ele>4.5</ele><time>2026-04-19T07:59:16.502Z</time></trkpt><trkpt lat="40.8589117" lon="8.269215"><ele>5.0</ele><time>2026-04-19T07:59:17.502Z</time></trkpt><trkpt lat="40.8590317" lon="8.2691417"><ele>5.0</ele><time>2026-04-19T07:59:18.503Z</time></trkpt><trkpt lat="40.8591533" lon="8.2690683"><ele>5.0</ele><time>2026-04-19T07:59:19.503Z</time></trkpt><trkpt lat="40.85928" lon="8.2690017"><ele>5.0</ele><time>2026-04-19T07:59:20.503Z</time></trkpt><trkpt lat="40.8593983" lon="8.2689317"><ele>5.0</ele><time>2026-04-19T07:59:21.502Z</time></trkpt><trkpt lat="40.8595" lon="8.268875"><ele>6.166666666666667</ele><time>2026-04-19T07:59:22.503Z</time></trkpt><trkpt lat="40.85959" lon="8.26883"><ele>7.333333333333334</ele><time>2026-04-19T07:59:23.503Z</time></trkpt><trkpt lat="40.8596633" lon="8.26881"><ele>8.5</ele><time>2026-04-19T07:59:24.503Z</time></trkpt><trkpt lat="40.8597283" lon="8.2688283"><ele>9.666666666666666</ele><time>2026-04-19T07:59:26.503Z</time></trkpt><trkpt lat="40.8597983" lon="8.268875"><ele>10.833333333333334</ele><time>2026-04-19T07:59:29.502Z</time></trkpt><trkpt lat="40.8598933" lon="8.2688367"><ele>12.0</ele><time>2026-04-19T07:59:31.503Z</time></trkpt><trkpt lat="40.86" lon="8.2687817"><ele>12.2</ele><time>2026-04-19T07:59:33.502Z</time></trkpt><trkpt lat="40.8601167" lon="8.26874"><ele>12.399999999999999</ele><time>2026-04-19T07:59:35.502Z</time></trkpt><trkpt lat="40.8602417" lon="8.26876"><ele>12.600000000000001</ele><time>2026-04-19T07:59:37.502Z</time></trkpt><trkpt lat="40.8603033" lon="8.2687983"><ele>12.8</ele><time>2026-04-19T07:59:38.503Z</time></trkpt><trkpt lat="40.86036" lon="8.2688667"><ele>13.0</ele><time>2026-04-19T07:59:39.503Z</time></trkpt><trkpt lat="40.8604067" lon="8.2689383"><ele>12.499999999999998</ele><time>2026-04-19T07:59:40.503Z</time></trkpt><trkpt lat="40.860485" lon="8.269025"><ele>12.0</ele><time>2026-04-19T07:59:42.503Z</time></trkpt><trkpt lat="40.86057" lon="8.2690633"><ele>11.5</ele><time>2026-04-19T07:59:44.502Z</time></trkpt><trkpt lat="40.860635" lon="8.2691083"><ele>11.0</ele><time>2026-04-19T07:59:47.503Z</time></trkpt><trkpt lat="40.860665" lon="8.269195"><ele>10.5</ele><time>2026-04-19T07:59:50.503Z</time></trkpt><trkpt lat="40.8607317" lon="8.2692683"><ele>10.0</ele><time>2026-04-19T07:59:52.503Z</time></trkpt><trkpt lat="40.8608017" lon="8.2693733"><ele>10.0</ele><time>2026-04-19T07:59:54.503Z</time></trkpt><trkpt lat="40.8608867" lon="8.26948"><ele>10.0</ele><time>2026-04-19T07:59:56.503Z</time></trkpt><trkpt lat="40.861015" lon="8.2696267"><ele>10.0</ele><time>2026-04-19T07:59:59.503Z</time></trkpt><trkpt lat="40.8610933" lon="8.2696917"><ele>10.0</ele><time>2026-04-19T08:00:01.502Z</time></trkpt><trkpt lat="40.8611567" lon="8.26981"><ele>9.2</ele><time>2026-04-19T08:00:03.503Z</time></trkpt><trkpt lat="40.86123" lon="8.2699317"><ele>8.4</ele><time>2026-04-19T08:00:05.502Z</time></trkpt><trkpt lat="40.861315" lon="8.27003"><ele>7.6</ele><time>2026-04-19T08:00:07.503Z</time></trkpt><trkpt lat="40.8613983" lon="8.270155"><ele>6.8</ele><time>2026-04-19T08:00:10.503Z</time></trkpt><trkpt lat="40.8614483" lon="8.2702067"><ele>6.0</ele><time>2026-04-19T08:01:12.502Z</time></trkpt><trkpt lat="40.8613883" lon="8.2701367"><ele>6.0</ele><time>2026-04-19T08:01:15.502Z</time></trkpt><trkpt lat="40.8613133" lon="8.27005"><ele>6.0</ele><time>2026-04-19T08:01:17.502Z</time></trkpt><trkpt lat="40.8612333" lon="8.2699467"><ele>6.0</ele><time>2026-04-19T08:01:19.502Z</time></trkpt><trkpt lat="40.861165" lon="8.26985"><ele>6.0</ele><time>2026-04-19T08:01:21.502Z</time></trkpt><trkpt lat="40.8610967" lon="8.2697367"><ele>6.0</ele><time>2026-04-19T08:01:23.503Z</time></trkpt><trkpt lat="40.861005" lon="8.2696417"><ele>7.0</ele><time>2026-04-19T08:01:25.502Z</time></trkpt><trkpt lat="40.8609017" lon="8.26955"><ele>8.0</ele><time>2026-04-19T08:01:27.503Z</time></trkpt><trkpt lat="40.860815" lon="8.2694367"><ele>9.0</ele><time>2026-04-19T08:01:29.503Z</time></trkpt><trkpt lat="40.8607267" lon="8.2693217"><ele>10.0</ele><time>2026-04-19T08:01:31.503Z</time></trkpt><trkpt lat="40.8606433" lon="8.26921"><ele>10.0</ele><time>2026-04-19T08:01:33.503Z</time></trkpt><trkpt lat="40.8605733" lon="8.2691083"><ele>10.0</ele><time>2026-04-19T08:01:35.502Z</time></trkpt><trkpt lat="40.8605383" lon="8.2690283"><ele>10.0</ele><time>2026-04-19T08:01:37.502Z</time></trkpt><trkpt lat="40.8605433" lon="8.2689383"><ele>10.0</ele><time>2026-04-19T08:01:39.502Z</time></trkpt><trkpt lat="40.860615" lon="8.2688917"><ele>10.0</ele><time>2026-04-19T08:01:42.503Z</time></trkpt><trkpt lat="40.860695" lon="8.2689"><ele>10.0</ele><time>2026-04-19T08:01:44.502Z</time></trkpt><trkpt lat="40.8607767" lon="8.2688817"><ele>10.2</ele><time>2026-04-19T08:01:46.502Z</time></trkpt><trkpt lat="40.86086" lon="8.2688533"><ele>10.4</ele><time>2026-04-19T08:01:48.502Z</time></trkpt><trkpt lat="40.8609833" lon="8.26883"><ele>10.600000000000001</ele><time>2026-04-19T08:01:50.502Z</time></trkpt><trkpt lat="40.861055" lon="8.2688"><ele>10.8</ele><time>2026-04-19T08:01:51.503Z</time></trkpt><trkpt lat="40.861135" lon="8.2687717"><ele>11.0</ele><time>2026-04-19T08:01:52.503Z</time></trkpt><trkpt lat="40.8612167" lon="8.2687467"><ele>11.0</ele><time>2026-04-19T08:01:53.502Z</time></trkpt><trkpt lat="40.8613" lon="8.2687383"><ele>11.0</ele><time>2026-04-19T08:01:54.503Z</time></trkpt><trkpt lat="40.8613917" lon="8.2687233"><ele>11.0</ele><time>2026-04-19T08:01:55.503Z</time></trkpt><trkpt lat="40.8614983" lon="8.2686917"><ele>11.0</ele><time>2026-04-19T08:01:56.503Z</time></trkpt><trkpt lat="40.86161" lon="8.2686617"><ele>11.0</ele><time>2026-04-19T08:01:57.503Z</time></trkpt><trkpt lat="40.8617283" lon="8.2686233"><ele>11.5</ele><time>2026-04-19T08:01:58.503Z</time></trkpt><trkpt lat="40.8618583" lon="8.2685767"><ele>12.0</ele><time>2026-04-19T08:01:59.503Z</time></trkpt><trkpt lat="40.86198" lon="8.268535"><ele>12.5</ele><time>2026-04-19T08:02:00.503Z</time></trkpt><trkpt lat="40.8620883" lon="8.26848"><ele>13.0</ele><time>2026-04-19T08:02:01.502Z</time></trkpt><trkpt lat="40.8621817" lon="8.26844"><ele>13.0</ele><time>2026-04-19T08:02:02.502Z</time></trkpt><trkpt lat="40.8622867" lon="8.2683933"><ele>13.0</ele><time>2026-04-19T08:02:03.502Z</time></trkpt><trkpt lat="40.8623883" lon="8.2683583"><ele>13.0</ele><time>2026-04-19T08:02:04.502Z</time></trkpt><trkpt lat="40.8624933" lon="8.2683467"><ele>13.0</ele><time>2026-04-19T08:02:05.502Z</time></trkpt><trkpt lat="40.8626017" lon="8.26833"><ele>13.0</ele><time>2026-04-19T08:02:06.502Z</time></trkpt><trkpt lat="40.8627117" lon="8.268305"><ele>13.75</ele><time>2026-04-19T08:02:07.503Z</time></trkpt><trkpt lat="40.8628283" lon="8.2682617"><ele>14.5</ele><time>2026-04-19T08:02:08.502Z</time></trkpt><trkpt lat="40.8629333" lon="8.2682183"><ele>15.25</ele><time>2026-04-19T08:02:09.503Z</time></trkpt><trkpt lat="40.86304" lon="8.26816"><ele>16.0</ele><time>2026-04-19T08:02:10.502Z</time></trkpt><trkpt lat="40.8631383" lon="8.2681083"><ele>16.333333333333332</ele><time>2026-04-19T08:02:11.502Z</time></trkpt><trkpt lat="40.86324" lon="8.26807"><ele>16.666666666666664</ele><time>2026-04-19T08:02:12.502Z</time></trkpt><trkpt lat="40.8633317" lon="8.2680333"><ele>17.0</ele><time>2026-04-19T08:02:13.502Z</time></trkpt><trkpt lat="40.8634117" lon="8.267985"><ele>17.333333333333332</ele><time>2026-04-19T08:02:14.503Z</time></trkpt><trkpt lat="40.8634833" lon="8.2679417"><ele>17.666666666666668</ele><time>2026-04-19T08:02:15.502Z</time></trkpt><trkpt lat="40.8635567" lon="8.2678983"><ele>18.0</ele><time>2026-04-19T08:02:16.502Z</time></trkpt><trkpt lat="40.8636417" lon="8.2678417"><ele>18.0</ele><time>2026-04-19T08:02:17.502Z</time></trkpt><trkpt lat="40.863735" lon="8.2677617"><ele>18.0</ele><time>2026-04-19T08:02:18.502Z</time></trkpt><trkpt lat="40.8638383" lon="8.2676617"><ele>18.0</ele><time>2026-04-19T08:02:19.502Z</time></trkpt><trkpt lat="40.8639417" lon="8.26755"><ele>18.0</ele><time>2026-04-19T08:02:20.503Z</time></trkpt><trkpt lat="40.8640467" lon="8.2674333"><ele>18.0</ele><time>2026-04-19T08:02:21.502Z</time></trkpt><trkpt lat="40.86414" lon="8.267335"><ele>18.0</ele><time>2026-04-19T08:02:22.502Z</time></trkpt><trkpt lat="40.8642417" lon="8.2672483"><ele>18.0</ele><time>2026-04-19T08:02:23.502Z</time></trkpt><trkpt lat="40.86435" lon="8.2671767"><ele>18.0</ele><time>2026-04-19T08:02:24.502Z</time></trkpt><trkpt lat="40.86445" lon="8.2671183"><ele>18.2</ele><time>2026-04-19T08:02:25.503Z</time></trkpt><trkpt lat="40.8645467" lon="8.2670633"><ele>18.4</ele><time>2026-04-19T08:02:26.503Z</time></trkpt><trkpt lat="40.864635" lon="8.267015"><ele>18.599999999999998</ele><time>2026-04-19T08:02:27.503Z</time></trkpt><trkpt lat="40.8647167" lon="8.2669667"><ele>18.8</ele><time>2026-04-19T08:02:28.502Z</time></trkpt><trkpt lat="40.864795" lon="8.266895"><ele>19.0</ele><time>2026-04-19T08:02:29.503Z</time></trkpt><trkpt lat="40.86487" lon="8.2667967"><ele>19.0</ele><time>2026-04-19T08:02:30.502Z</time></trkpt><trkpt lat="40.8649483" lon="8.2666817"><ele>19.0</ele><time>2026-04-19T08:02:31.503Z</time></trkpt><trkpt lat="40.8650317" lon="8.26655"><ele>19.0</ele><time>2026-04-19T08:02:32.502Z</time></trkpt><trkpt lat="40.8651367" lon="8.26642"><ele>19.0</ele><time>2026-04-19T08:02:33.502Z</time></trkpt><trkpt lat="40.8652467" lon="8.266285"><ele>19.0</ele><time>2026-04-19T08:02:34.503Z</time></trkpt><trkpt lat="40.8653383" lon="8.2661433"><ele>19.0</ele><time>2026-04-19T08:02:35.503Z</time></trkpt><trkpt lat="40.865435" lon="8.2660017"><ele>19.0</ele><time>2026-04-19T08:02:36.502Z</time></trkpt><trkpt lat="40.8655317" lon="8.2658633"><ele>19.0</ele><time>2026-04-19T08:02:37.503Z</time></trkpt><trkpt lat="40.865635" lon="8.265715"><ele>19.0</ele><time>2026-04-19T08:02:38.502Z</time></trkpt><trkpt lat="40.8657317" lon="8.26557"><ele>19.0</ele><time>2026-04-19T08:02:39.503Z</time></trkpt><trkpt lat="40.8658383" lon="8.2654217"><ele>19.0</ele><time>2026-04-19T08:02:40.502Z</time></trkpt><trkpt lat="40.8659417" lon="8.2652733"><ele>19.0</ele><time>2026-04-19T08:02:41.503Z</time></trkpt><trkpt lat="40.8660467" lon="8.2651283"><ele>19.0</ele><time>2026-04-19T08:02:42.502Z</time></trkpt><trkpt lat="40.8661583" lon="8.26499"><ele>19.0</ele><time>2026-04-19T08:02:43.503Z</time></trkpt><trkpt lat="40.86626" lon="8.2648533"><ele>18.75</ele><time>2026-04-19T08:02:44.502Z</time></trkpt><trkpt lat="40.8663617" lon="8.26473"><ele>18.5</ele><time>2026-04-19T08:02:45.502Z</time></trkpt><trkpt lat="40.8664583" lon="8.26462"><ele>18.25</ele><time>2026-04-19T08:02:46.503Z</time></trkpt><trkpt lat="40.8665567" lon="8.26452"><ele>18.0</ele><time>2026-04-19T08:02:47.503Z</time></trkpt><trkpt lat="40.8666667" lon="8.2644233"><ele>17.666666666666668</ele><time>2026-04-19T08:02:48.503Z</time></trkpt><trkpt lat="40.8667983" lon="8.26432"><ele>17.333333333333336</ele><time>2026-04-19T08:02:49.503Z</time></trkpt><trkpt lat="40.86693" lon="8.26422"><ele>17.0</ele><time>2026-04-19T08:02:50.503Z</time></trkpt><trkpt lat="40.867065" lon="8.264135"><ele>17.0</ele><time>2026-04-19T08:02:51.502Z</time></trkpt><trkpt lat="40.8672067" lon="8.2640617"><ele>17.0</ele><time>2026-04-19T08:02:52.502Z</time></trkpt><trkpt lat="40.8673483" lon="8.2639917"><ele>17.0</ele><time>2026-04-19T08:02:53.502Z</time></trkpt><trkpt lat="40.86749" lon="8.2639217"><ele>17.0</ele><time>2026-04-19T08:02:54.502Z</time></trkpt><trkpt lat="40.8676167" lon="8.263855"><ele>17.0</ele><time>2026-04-19T08:02:55.502Z</time></trkpt><trkpt lat="40.8677383" lon="8.2637933"><ele>17.0</ele><time>2026-04-19T08:02:56.502Z</time></trkpt><trkpt lat="40.8678533" lon="8.2637367"><ele>17.0</ele><time>2026-04-19T08:02:57.502Z</time></trkpt><trkpt lat="40.86796" lon="8.2636717"><ele>17.0</ele><time>2026-04-19T08:02:58.503Z</time></trkpt><trkpt lat="40.86806" lon="8.2636017"><ele>17.0</ele><time>2026-04-19T08:02:59.503Z</time></trkpt><trkpt lat="40.8681567" lon="8.263525"><ele>17.0</ele><time>2026-04-19T08:03:00.502Z</time></trkpt><trkpt lat="40.868255" lon="8.2634317"><ele>17.0</ele><time>2026-04-19T08:03:01.502Z</time></trkpt><trkpt lat="40.8683533" lon="8.2633317"><ele>16.75</ele><time>2026-04-19T08:03:02.503Z</time></trkpt><trkpt lat="40.8684567" lon="8.2632267"><ele>16.5</ele><time>2026-04-19T08:03:03.503Z</time></trkpt><trkpt lat="40.8685617" lon="8.2631067"><ele>16.25</ele><time>2026-04-19T08:03:04.502Z</time></trkpt><trkpt lat="40.8686533" lon="8.262995"><ele>16.0</ele><time>2026-04-19T08:03:05.503Z</time></trkpt><trkpt lat="40.8687317" lon="8.2629017"><ele>15.833333333333332</ele><time>2026-04-19T08:03:06.502Z</time></trkpt><trkpt lat="40.8688033" lon="8.26282"><ele>15.666666666666666</ele><time>2026-04-19T08:03:07.503Z</time></trkpt><trkpt lat="40.86888" lon="8.262725"><ele>15.5</ele><time>2026-04-19T08:03:09.502Z</time></trkpt><trkpt lat="40.8689383" lon="8.2626533"><ele>15.333333333333332</ele><time>2026-04-19T08:03:12.503Z</time></trkpt><trkpt lat="40.868985" lon="8.2625417"><ele>15.166666666666666</ele><time>2026-04-19T08:03:14.502Z</time></trkpt><trkpt lat="40.8690017" lon="8.2624533"><ele>15.0</ele><time>2026-04-19T08:03:15.503Z</time></trkpt><trkpt lat="40.869025" lon="8.2623483"><ele>14.8</ele><time>2026-04-19T08:03:16.503Z</time></trkpt><trkpt lat="40.8690467" lon="8.26223"><ele>14.6</ele><time>2026-04-19T08:03:17.503Z</time></trkpt><trkpt lat="40.8690783" lon="8.2621117"><ele>14.399999999999999</ele><time>2026-04-19T08:03:18.502Z</time></trkpt><trkpt lat="40.8691033" lon="8.261995"><ele>14.2</ele><time>2026-04-19T08:03:19.503Z</time></trkpt><trkpt lat="40.86914" lon="8.2618633"><ele>14.0</ele><time>2026-04-19T08:03:20.502Z</time></trkpt><trkpt lat="40.8692233" lon="8.2616167"><ele>14.0</ele><time>2026-04-19T08:03:22.503Z</time></trkpt><trkpt lat="40.8692617" lon="8.2614933"><ele>13.999999999999998</ele><time>2026-04-19T08:03:23.503Z</time></trkpt><trkpt lat="40.8692883" lon="8.261375"><ele>13.999999999999998</ele><time>2026-04-19T08:03:24.502Z</time></trkpt><trkpt lat="40.8692967" lon="8.26125"><ele>14.0</ele><time>2026-04-19T08:03:25.502Z</time></trkpt><trkpt lat="40.8692967" lon="8.2611167"><ele>14.0</ele><time>2026-04-19T08:03:26.502Z</time></trkpt><trkpt lat="40.8692867" lon="8.2609817"><ele>14.0</ele><time>2026-04-19T08:03:27.502Z</time></trkpt><trkpt lat="40.869285" lon="8.2608417"><ele>13.999999999999998</ele><time>2026-04-19T08:03:28.503Z</time></trkpt><trkpt lat="40.8692983" lon="8.260695"><ele>13.999999999999998</ele><time>2026-04-19T08:03:29.502Z</time></trkpt><trkpt lat="40.8693133" lon="8.2605467"><ele>14.0</ele><time>2026-04-19T08:03:30.503Z</time></trkpt><trkpt lat="40.869325" lon="8.2603933"><ele>14.0</ele><time>2026-04-19T08:03:31.502Z</time></trkpt><trkpt lat="40.8693367" lon="8.2602483"><ele>14.25</ele><time>2026-04-19T08:03:32.502Z</time></trkpt><trkpt lat="40.8693317" lon="8.2601083"><ele>14.5</ele><time>2026-04-19T08:03:33.503Z</time></trkpt><trkpt lat="40.86932" lon="8.259965"><ele>14.75</ele><time>2026-04-19T08:03:34.503Z</time></trkpt><trkpt lat="40.8692933" lon="8.2598183"><ele>15.0</ele><time>2026-04-19T08:03:35.503Z</time></trkpt><trkpt lat="40.8692583" lon="8.2596583"><ele>15.25</ele><time>2026-04-19T08:03:36.503Z</time></trkpt><trkpt lat="40.86922" lon="8.259495"><ele>15.5</ele><time>2026-04-19T08:03:37.503Z</time></trkpt><trkpt lat="40.86918" lon="8.2593317"><ele>15.75</ele><time>2026-04-19T08:03:38.503Z</time></trkpt><trkpt lat="40.86914" lon="8.2591683"><ele>16.0</ele><time>2026-04-19T08:03:39.502Z</time></trkpt><trkpt lat="40.8691033" lon="8.2590133"><ele>16.0</ele><time>2026-04-19T08:03:40.503Z</time></trkpt><trkpt lat="40.869055" lon="8.2588617"><ele>16.0</ele><time>2026-04-19T08:03:41.503Z</time></trkpt><trkpt lat="40.8690267" lon="8.2587017"><ele>16.0</ele><time>2026-04-19T08:03:42.502Z</time></trkpt><trkpt lat="40.869" lon="8.2585433"><ele>16.0</ele><time>2026-04-19T08:03:43.502Z</time></trkpt><trkpt lat="40.8689683" lon="8.2583817"><ele>16.0</ele><time>2026-04-19T08:03:44.502Z</time></trkpt><trkpt lat="40.86893" lon="8.2582183"><ele>16.0</ele><time>2026-04-19T08:03:45.502Z</time></trkpt><trkpt lat="40.8688983" lon="8.258065"><ele>16.0</ele><time>2026-04-19T08:03:46.503Z</time></trkpt><trkpt lat="40.8688817" lon="8.2579167"><ele>16.0</ele><time>2026-04-19T08:03:47.503Z</time></trkpt><trkpt lat="40.8688617" lon="8.25778"><ele>15.8</ele><time>2026-04-19T08:03:48.502Z</time></trkpt><trkpt lat="40.8688317" lon="8.2576617"><ele>15.600000000000001</ele><time>2026-04-19T08:03:49.502Z</time></trkpt><trkpt lat="40.8688" lon="8.25756"><ele>15.4</ele><time>2026-04-19T08:03:50.503Z</time></trkpt><trkpt lat="40.8687683" lon="8.2574533"><ele>15.2</ele><time>2026-04-19T08:03:51.502Z</time></trkpt><trkpt lat="40.8687283" lon="8.2573267"><ele>15.0</ele><time>2026-04-19T08:03:52.502Z</time></trkpt><trkpt lat="40.8686783" lon="8.2571883"><ele>15.0</ele><time>2026-04-19T08:03:53.502Z</time></trkpt><trkpt lat="40.8686233" lon="8.2570367"><ele>15.0</ele><time>2026-04-19T08:03:54.503Z</time></trkpt><trkpt lat="40.8685733" lon="8.2568633"><ele>15.0</ele><time>2026-04-19T08:03:55.502Z</time></trkpt><trkpt lat="40.8685333" lon="8.256685"><ele>15.0</ele><time>2026-04-19T08:03:56.503Z</time></trkpt><trkpt lat="40.868485" lon="8.2564967"><ele>15.75</ele><time>2026-04-19T08:03:57.503Z</time></trkpt><trkpt lat="40.8684267" lon="8.2563183"><ele>16.5</ele><time>2026-04-19T08:03:58.503Z</time></trkpt><trkpt lat="40.8683567" lon="8.2561717"><ele>17.25</ele><time>2026-04-19T08:03:59.503Z</time></trkpt><trkpt lat="40.868295" lon="8.2560267"><ele>18.0</ele><time>2026-04-19T08:04:00.502Z</time></trkpt><trkpt lat="40.8682383" lon="8.2558783"><ele>18.0</ele><time>2026-04-19T08:04:01.503Z</time></trkpt><trkpt lat="40.8681883" lon="8.255715"><ele>18.0</ele><time>2026-04-19T08:04:02.503Z</time></trkpt><trkpt lat="40.8681317" lon="8.2555617"><ele>18.0</ele><time>2026-04-19T08:04:03.502Z</time></trkpt><trkpt lat="40.8680733" lon="8.2554067"><ele>18.0</ele><time>2026-04-19T08:04:04.503Z</time></trkpt><trkpt lat="40.86803" lon="8.2552383"><ele>18.0</ele><time>2026-04-19T08:04:05.503Z</time></trkpt><trkpt lat="40.867975" lon="8.2550533"><ele>18.0</ele><time>2026-04-19T08:04:06.503Z</time></trkpt><trkpt lat="40.8679117" lon="8.2548767"><ele>18.0</ele><time>2026-04-19T08:04:07.503Z</time></trkpt><trkpt lat="40.8678467" lon="8.2547117"><ele>18.0</ele><time>2026-04-19T08:04:08.502Z</time></trkpt><trkpt lat="40.8677967" lon="8.2545617"><ele>17.75</ele><time>2026-04-19T08:04:09.502Z</time></trkpt><trkpt lat="40.86775" lon="8.25441"><ele>17.5</ele><time>2026-04-19T08:04:10.502Z</time></trkpt><trkpt lat="40.86772" lon="8.2542683"><ele>17.25</ele><time>2026-04-19T08:04:11.502Z</time></trkpt><trkpt lat="40.8677067" lon="8.2541183"><ele>17.0</ele><time>2026-04-19T08:04:12.502Z</time></trkpt><trkpt lat="40.8676817" lon="8.2539767"><ele>16.75</ele><time>2026-04-19T08:04:13.502Z</time></trkpt><trkpt lat="40.8676283" lon="8.2538367"><ele>16.5</ele><time>2026-04-19T08:04:14.502Z</time></trkpt><trkpt lat="40.8675483" lon="8.25369"><ele>16.25</ele><time>2026-04-19T08:04:15.502Z</time></trkpt><trkpt lat="40.8674733" lon="8.2535483"><ele>16.0</ele><time>2026-04-19T08:04:16.503Z</time></trkpt><trkpt lat="40.86742" lon="8.253385"><ele>16.75</ele><time>2026-04-19T08:04:17.503Z</time></trkpt><trkpt lat="40.8673783" lon="8.2532067"><ele>17.5</ele><time>2026-04-19T08:04:18.502Z</time></trkpt><trkpt lat="40.867355" lon="8.2530333"><ele>18.25</ele><time>2026-04-19T08:04:19.503Z</time></trkpt><trkpt lat="40.86734" lon="8.25287"><ele>19.0</ele><time>2026-04-19T08:04:20.502Z</time></trkpt><trkpt lat="40.8673333" lon="8.2527233"><ele>19.0</ele><time>2026-04-19T08:04:21.502Z</time></trkpt><trkpt lat="40.8673433" lon="8.25258"><ele>19.0</ele><time>2026-04-19T08:04:22.502Z</time></trkpt><trkpt lat="40.86737" lon="8.2524467"><ele>19.0</ele><time>2026-04-19T08:04:23.502Z</time></trkpt><trkpt lat="40.867405" lon="8.2523033"><ele>19.0</ele><time>2026-04-19T08:04:24.503Z</time></trkpt><trkpt lat="40.8674567" lon="8.252155"><ele>18.5</ele><time>2026-04-19T08:04:25.502Z</time></trkpt><trkpt lat="40.8675083" lon="8.252035"><ele>18.0</ele><time>2026-04-19T08:04:26.503Z</time></trkpt><trkpt lat="40.8675717" lon="8.2518983"><ele>17.5</ele><time>2026-04-19T08:04:27.502Z</time></trkpt><trkpt lat="40.8676367" lon="8.251755"><ele>17.0</ele><time>2026-04-19T08:04:28.503Z</time></trkpt><trkpt lat="40.8677117" lon="8.25159"><ele>15.75</ele><time>2026-04-19T08:04:29.502Z</time></trkpt><trkpt lat="40.8677783" lon="8.2514317"><ele>14.5</ele><time>2026-04-19T08:04:30.503Z</time></trkpt><trkpt lat="40.8678433" lon="8.251265"><ele>13.25</ele><time>2026-04-19T08:04:31.502Z</time></trkpt><trkpt lat="40.8679083" lon="8.2510967"><ele>12.0</ele><time>2026-04-19T08:04:32.502Z</time></trkpt><trkpt lat="40.8679867" lon="8.2509383"><ele>12.0</ele><time>2026-04-19T08:04:33.502Z</time></trkpt><trkpt lat="40.8680667" lon="8.2507967"><ele>12.0</ele><time>2026-04-19T08:04:34.502Z</time></trkpt><trkpt lat="40.8681567" lon="8.250665"><ele>12.0</ele><time>2026-04-19T08:04:35.502Z</time></trkpt><trkpt lat="40.86824" lon="8.2505417"><ele>12.0</ele><time>2026-04-19T08:04:36.503Z</time></trkpt><trkpt lat="40.86833" lon="8.250415"><ele>11.25</ele><time>2026-04-19T08:04:37.503Z</time></trkpt><trkpt lat="40.8684233" lon="8.2502833"><ele>10.5</ele><time>2026-04-19T08:04:38.503Z</time></trkpt><trkpt lat="40.868515" lon="8.2501517"><ele>9.75</ele><time>2026-04-19T08:04:39.502Z</time></trkpt><trkpt lat="40.8686133" lon="8.25003"><ele>9.0</ele><time>2026-04-19T08:04:40.502Z</time></trkpt><trkpt lat="40.8687017" lon="8.2499067"><ele>8.5</ele><time>2026-04-19T08:04:41.502Z</time></trkpt><trkpt lat="40.86879" lon="8.2497783"><ele>8.0</ele><time>2026-04-19T08:04:42.502Z</time></trkpt><trkpt lat="40.8688817" lon="8.2496483"><ele>7.5</ele><time>2026-04-19T08:04:43.502Z</time></trkpt><trkpt lat="40.86897" lon="8.2495283"><ele>7.0</ele><time>2026-04-19T08:04:44.502Z</time></trkpt><trkpt lat="40.8690583" lon="8.2494017"><ele>7.0</ele><time>2026-04-19T08:04:45.503Z</time></trkpt><trkpt lat="40.8691383" lon="8.2492633"><ele>7.0</ele><time>2026-04-19T08:04:46.503Z</time></trkpt><trkpt lat="40.8692133" lon="8.2491133"><ele>7.0</ele><time>2026-04-19T08:04:47.503Z</time></trkpt><trkpt lat="40.8692917" lon="8.2489533"><ele>7.0</ele><time>2026-04-19T08:04:48.503Z</time></trkpt><trkpt lat="40.8693667" lon="8.2487883"><ele>6.666666666666667</ele><time>2026-04-19T08:04:49.503Z</time></trkpt><trkpt lat="40.8694483" lon="8.248615"><ele>6.333333333333334</ele><time>2026-04-19T08:04:50.503Z</time></trkpt><trkpt lat="40.8695333" lon="8.24844"><ele>6.0</ele><time>2026-04-19T08:04:51.503Z</time></trkpt><trkpt lat="40.8696233" lon="8.2482617"><ele>6.333333333333334</ele><time>2026-04-19T08:04:52.503Z</time></trkpt><trkpt lat="40.869715" lon="8.2480867"><ele>6.666666666666667</ele><time>2026-04-19T08:04:53.503Z</time></trkpt><trkpt lat="40.8697983" lon="8.2479017"><ele>7.0</ele><time>2026-04-19T08:04:54.502Z</time></trkpt><trkpt lat="40.869885" lon="8.2477133"><ele>7.0</ele><time>2026-04-19T08:04:55.503Z</time></trkpt><trkpt lat="40.8699633" lon="8.2475383"><ele>7.0</ele><time>2026-04-19T08:04:56.503Z</time></trkpt><trkpt lat="40.8700417" lon="8.24736"><ele>7.0</ele><time>2026-04-19T08:04:57.502Z</time></trkpt><trkpt lat="40.8701283" lon="8.247175"><ele>7.0</ele><time>2026-04-19T08:04:58.502Z</time></trkpt><trkpt lat="40.8702033" lon="8.2469967"><ele>7.0</ele><time>2026-04-19T08:04:59.503Z</time></trkpt><trkpt lat="40.8702783" lon="8.24681"><ele>7.0</ele><time>2026-04-19T08:05:00.503Z</time></trkpt><trkpt lat="40.8703467" lon="8.2466433"><ele>7.0</ele><time>2026-04-19T08:05:01.503Z</time></trkpt><trkpt lat="40.870415" lon="8.2464667"><ele>7.0</ele><time>2026-04-19T08:05:02.502Z</time></trkpt><trkpt lat="40.8704767" lon="8.2462883"><ele>7.0</ele><time>2026-04-19T08:05:03.503Z</time></trkpt><trkpt lat="40.8705267" lon="8.2461167"><ele>7.0</ele><time>2026-04-19T08:05:04.502Z</time></trkpt><trkpt lat="40.8705617" lon="8.2459383"><ele>7.25</ele><time>2026-04-19T08:05:05.502Z</time></trkpt><trkpt lat="40.87058" lon="8.2457533"><ele>7.5</ele><time>2026-04-19T08:05:06.502Z</time></trkpt><trkpt lat="40.8705817" lon="8.2455683"><ele>7.75</ele><time>2026-04-19T08:05:07.502Z</time></trkpt><trkpt lat="40.870585" lon="8.2453917"><ele>8.0</ele><time>2026-04-19T08:05:08.503Z</time></trkpt><trkpt lat="40.8706017" lon="8.2452317"><ele>8.200000000000001</ele><time>2026-04-19T08:05:09.502Z</time></trkpt><trkpt lat="40.8706167" lon="8.2450883"><ele>8.4</ele><time>2026-04-19T08:05:10.502Z</time></trkpt><trkpt lat="40.87064" lon="8.2449417"><ele>8.600000000000001</ele><time>2026-04-19T08:05:11.502Z</time></trkpt><trkpt lat="40.8706683" lon="8.2448133"><ele>8.8</ele><time>2026-04-19T08:05:12.503Z</time></trkpt><trkpt lat="40.870695" lon="8.244685"><ele>9.0</ele><time>2026-04-19T08:05:13.502Z</time></trkpt><trkpt lat="40.87069" lon="8.2445633"><ele>9.0</ele><time>2026-04-19T08:05:14.503Z</time></trkpt><trkpt lat="40.87066" lon="8.244435"><ele>9.0</ele><time>2026-04-19T08:05:15.502Z</time></trkpt><trkpt lat="40.8706067" lon="8.2442933"><ele>9.0</ele><time>2026-04-19T08:05:16.503Z</time></trkpt><trkpt lat="40.8705383" lon="8.2441417"><ele>9.0</ele><time>2026-04-19T08:05:17.503Z</time></trkpt><trkpt lat="40.8704517" lon="8.2439933"><ele>9.5</ele><time>2026-04-19T08:05:18.503Z</time></trkpt><trkpt lat="40.8703733" lon="8.2438633"><ele>10.0</ele><time>2026-04-19T08:05:19.503Z</time></trkpt><trkpt lat="40.8703" lon="8.24375"><ele>10.5</ele><time>2026-04-19T08:05:20.503Z</time></trkpt><trkpt lat="40.8702283" lon="8.2436333"><ele>11.0</ele><time>2026-04-19T08:05:21.502Z</time></trkpt><trkpt lat="40.87016" lon="8.2435233"><ele>11.200000000000001</ele><time>2026-04-19T08:05:22.502Z</time></trkpt><trkpt lat="40.8700883" lon="8.2434117"><ele>11.4</ele><time>2026-04-19T08:05:23.502Z</time></trkpt><trkpt lat="40.870015" lon="8.2433183"><ele>11.6</ele><time>2026-04-19T08:05:24.502Z</time></trkpt><trkpt lat="40.8699283" lon="8.2432283"><ele>11.8</ele><time>2026-04-19T08:05:25.502Z</time></trkpt><trkpt lat="40.8698283" lon="8.24314"><ele>12.0</ele><time>2026-04-19T08:05:26.502Z</time></trkpt><trkpt lat="40.869735" lon="8.2430317"><ele>12.25</ele><time>2026-04-19T08:05:27.502Z</time></trkpt><trkpt lat="40.8696483" lon="8.2429017"><ele>12.5</ele><time>2026-04-19T08:05:28.503Z</time></trkpt><trkpt lat="40.8695583" lon="8.2427583"><ele>12.75</ele><time>2026-04-19T08:05:29.503Z</time></trkpt><trkpt lat="40.86947" lon="8.2426"><ele>13.0</ele><time>2026-04-19T08:05:30.502Z</time></trkpt><trkpt lat="40.86938" lon="8.24245"><ele>13.0</ele><time>2026-04-19T08:05:31.502Z</time></trkpt><trkpt lat="40.869285" lon="8.2423167"><ele>13.0</ele><time>2026-04-19T08:05:32.503Z</time></trkpt><trkpt lat="40.8691783" lon="8.2422"><ele>13.0</ele><time>2026-04-19T08:05:33.502Z</time></trkpt><trkpt lat="40.8690517" lon="8.2421"><ele>13.0</ele><time>2026-04-19T08:05:34.502Z</time></trkpt><trkpt lat="40.86892" lon="8.242015"><ele>13.0</ele><time>2026-04-19T08:05:35.503Z</time></trkpt><trkpt lat="40.8687717" lon="8.2419583"><ele>13.0</ele><time>2026-04-19T08:05:36.502Z</time></trkpt><trkpt lat="40.868625" lon="8.24191"><ele>13.0</ele><time>2026-04-19T08:05:37.503Z</time></trkpt><trkpt lat="40.86849" lon="8.2418617"><ele>13.0</ele><time>2026-04-19T08:05:38.503Z</time></trkpt><trkpt lat="40.8683633" lon="8.2418167"><ele>13.0</ele><time>2026-04-19T08:05:39.502Z</time></trkpt><trkpt lat="40.86825" lon="8.24175"><ele>13.0</ele><time>2026-04-19T08:05:40.503Z</time></trkpt><trkpt lat="40.86815" lon="8.2416717"><ele>13.0</ele><time>2026-04-19T08:05:41.503Z</time></trkpt><trkpt lat="40.86805" lon="8.241545"><ele>13.0</ele><time>2026-04-19T08:05:42.502Z</time></trkpt><trkpt lat="40.86797" lon="8.2413867"><ele>13.666666666666666</ele><time>2026-04-19T08:05:43.503Z</time></trkpt><trkpt lat="40.8678867" lon="8.2412083"><ele>14.333333333333332</ele><time>2026-04-19T08:05:44.502Z</time></trkpt><trkpt lat="40.8678133" lon="8.2410283"><ele>15.0</ele><time>2026-04-19T08:05:45.503Z</time></trkpt><trkpt lat="40.8677383" lon="8.24084"><ele>15.0</ele><time>2026-04-19T08:05:46.502Z</time></trkpt><trkpt lat="40.8676667" lon="8.2406517"><ele>15.0</ele><time>2026-04-19T08:05:47.502Z</time></trkpt><trkpt lat="40.8675933" lon="8.24046"><ele>15.0</ele><time>2026-04-19T08:05:48.502Z</time></trkpt><trkpt lat="40.8675333" lon="8.24027"><ele>15.0</ele><time>2026-04-19T08:05:49.503Z</time></trkpt><trkpt lat="40.8674667" lon="8.2400983"><ele>15.0</ele><time>2026-04-19T08:05:50.502Z</time></trkpt><trkpt lat="40.8674117" lon="8.2399133"><ele>15.0</ele><time>2026-04-19T08:05:51.502Z</time></trkpt><trkpt lat="40.8673617" lon="8.239745"><ele>15.0</ele><time>2026-04-19T08:05:52.503Z</time></trkpt><trkpt lat="40.8673033" lon="8.2395833"><ele>15.0</ele><time>2026-04-19T08:05:53.503Z</time></trkpt><trkpt lat="40.8672533" lon="8.23941"><ele>15.0</ele><time>2026-04-19T08:05:54.502Z</time></trkpt><trkpt lat="40.8671967" lon="8.23923"><ele>15.0</ele><time>2026-04-19T08:05:55.503Z</time></trkpt><trkpt lat="40.867135" lon="8.2390567"><ele>15.0</ele><time>2026-04-19T08:05:56.503Z</time></trkpt><trkpt lat="40.867075" lon="8.2388783"><ele>15.5</ele><time>2026-04-19T08:05:57.503Z</time></trkpt><trkpt lat="40.8670183" lon="8.2387033"><ele>16.0</ele><time>2026-04-19T08:05:58.503Z</time></trkpt><trkpt lat="40.8669633" lon="8.2385217"><ele>16.5</ele><time>2026-04-19T08:05:59.503Z</time></trkpt><trkpt lat="40.8669083" lon="8.2383317"><ele>17.0</ele><time>2026-04-19T08:06:00.503Z</time></trkpt><trkpt lat="40.866845" lon="8.2381533"><ele>17.5</ele><time>2026-04-19T08:06:01.502Z</time></trkpt><trkpt lat="40.86677" lon="8.2379983"><ele>18.0</ele><time>2026-04-19T08:06:02.503Z</time></trkpt><trkpt lat="40.8666983" lon="8.2378633"><ele>18.5</ele><time>2026-04-19T08:06:03.502Z</time></trkpt><trkpt lat="40.86664" lon="8.23774"><ele>19.0</ele><time>2026-04-19T08:06:04.503Z</time></trkpt><trkpt lat="40.8665983" lon="8.237635"><ele>19.0</ele><time>2026-04-19T08:06:05.502Z</time></trkpt><trkpt lat="40.86656" lon="8.2375433"><ele>19.0</ele><time>2026-04-19T08:06:06.502Z</time></trkpt><trkpt lat="40.866525" lon="8.2374433"><ele>19.0</ele><time>2026-04-19T08:06:07.502Z</time></trkpt><trkpt lat="40.866505" lon="8.237335"><ele>19.0</ele><time>2026-04-19T08:06:08.502Z</time></trkpt><trkpt lat="40.86648" lon="8.2372217"><ele>19.0</ele><time>2026-04-19T08:06:09.502Z</time></trkpt><trkpt lat="40.8664367" lon="8.2371233"><ele>19.0</ele><time>2026-04-19T08:06:10.502Z</time></trkpt><trkpt lat="40.866375" lon="8.237045"><ele>19.0</ele><time>2026-04-19T08:06:11.502Z</time></trkpt><trkpt lat="40.866295" lon="8.237015"><ele>19.0</ele><time>2026-04-19T08:06:12.503Z</time></trkpt><trkpt lat="40.8662133" lon="8.2370267"><ele>19.0</ele><time>2026-04-19T08:06:13.502Z</time></trkpt><trkpt lat="40.86613" lon="8.2370967"><ele>19.0</ele><time>2026-04-19T08:06:14.502Z</time></trkpt><trkpt lat="40.8660617" lon="8.2371967"><ele>19.0</ele><time>2026-04-19T08:06:15.502Z</time></trkpt><trkpt lat="40.866005" lon="8.2373117"><ele>19.25</ele><time>2026-04-19T08:06:16.502Z</time></trkpt><trkpt lat="40.865925" lon="8.2374167"><ele>19.5</ele><time>2026-04-19T08:06:17.502Z</time></trkpt><trkpt lat="40.8658217" lon="8.2374983"><ele>19.75</ele><time>2026-04-19T08:06:18.502Z</time></trkpt><trkpt lat="40.8657" lon="8.23756"><ele>20.0</ele><time>2026-04-19T08:06:19.502Z</time></trkpt><trkpt lat="40.8655633" lon="8.23762"><ele>20.0</ele><time>2026-04-19T08:06:20.502Z</time></trkpt><trkpt lat="40.86528" lon="8.2377533"><ele>20.0</ele><time>2026-04-19T08:06:22.502Z</time></trkpt><trkpt lat="40.865135" lon="8.2378217"><ele>20.5</ele><time>2026-04-19T08:06:23.503Z</time></trkpt><trkpt lat="40.86499" lon="8.237885"><ele>21.0</ele><time>2026-04-19T08:06:24.502Z</time></trkpt><trkpt lat="40.864865" lon="8.2379483"><ele>21.5</ele><time>2026-04-19T08:06:25.502Z</time></trkpt><trkpt lat="40.8647333" lon="8.2380083"><ele>22.0</ele><time>2026-04-19T08:06:26.502Z</time></trkpt><trkpt lat="40.8645967" lon="8.238065"><ele>22.0</ele><time>2026-04-19T08:06:27.502Z</time></trkpt><trkpt lat="40.8644633" lon="8.2381283"><ele>22.0</ele><time>2026-04-19T08:06:28.502Z</time></trkpt><trkpt lat="40.8643233" lon="8.2381933"><ele>22.0</ele><time>2026-04-19T08:06:29.502Z</time></trkpt><trkpt lat="40.86418" lon="8.2382567"><ele>22.0</ele><time>2026-04-19T08:06:30.502Z</time></trkpt><trkpt lat="40.8640333" lon="8.2383283"><ele>22.333333333333332</ele><time>2026-04-19T08:06:31.503Z</time></trkpt><trkpt lat="40.86388" lon="8.2384067"><ele>22.666666666666668</ele><time>2026-04-19T08:06:32.503Z</time></trkpt><trkpt lat="40.8637267" lon="8.238485"><ele>23.0</ele><time>2026-04-19T08:06:33.503Z</time></trkpt><trkpt lat="40.86357" lon="8.2385583"><ele>24.666666666666668</ele><time>2026-04-19T08:06:34.502Z</time></trkpt><trkpt lat="40.8634" lon="8.2386367"><ele>26.333333333333336</ele><time>2026-04-19T08:06:35.502Z</time></trkpt><trkpt lat="40.8632283" lon="8.2387017"><ele>28.0</ele><time>2026-04-19T08:06:36.502Z</time></trkpt><trkpt lat="40.8630467" lon="8.2387717"><ele>28.0</ele><time>2026-04-19T08:06:37.503Z</time></trkpt><trkpt lat="40.8628667" lon="8.2388217"><ele>28.0</ele><time>2026-04-19T08:06:38.502Z</time></trkpt><trkpt lat="40.8626767" lon="8.238865"><ele>28.0</ele><time>2026-04-19T08:06:39.502Z</time></trkpt><trkpt lat="40.8624867" lon="8.2388967"><ele>28.333333333333336</ele><time>2026-04-19T08:06:40.503Z</time></trkpt><trkpt lat="40.8623017" lon="8.2389283"><ele>28.666666666666664</ele><time>2026-04-19T08:06:41.503Z</time></trkpt><trkpt lat="40.8621167" lon="8.2389517"><ele>29.0</ele><time>2026-04-19T08:06:42.503Z</time></trkpt><trkpt lat="40.861945" lon="8.2389867"><ele>29.0</ele><time>2026-04-19T08:06:43.502Z</time></trkpt><trkpt lat="40.8617883" lon="8.2390133"><ele>29.0</ele><time>2026-04-19T08:06:44.502Z</time></trkpt><trkpt lat="40.861655" lon="8.2390383"><ele>29.0</ele><time>2026-04-19T08:06:45.503Z</time></trkpt><trkpt lat="40.8615517" lon="8.2390633"><ele>29.0</ele><time>2026-04-19T08:06:46.503Z</time></trkpt><trkpt lat="40.8614817" lon="8.2390717"><ele>28.999999999999996</ele><time>2026-04-19T08:06:47.502Z</time></trkpt><trkpt lat="40.8613867" lon="8.239035"><ele>29.0</ele><time>2026-04-19T08:06:49.502Z</time></trkpt><trkpt lat="40.8613733" lon="8.2389333"><ele>29.0</ele><time>2026-04-19T08:06:51.502Z</time></trkpt><trkpt lat="40.861365" lon="8.2388133"><ele>29.0</ele><time>2026-04-19T08:06:54.503Z</time></trkpt><trkpt lat="40.8613783" lon="8.2387117"><ele>28.999999999999996</ele><time>2026-04-19T08:31:18.498Z</time></trkpt><trkpt lat="40.8613533" lon="8.2385983"><ele>29.0</ele><time>2026-04-19T08:31:20.497Z</time></trkpt><trkpt lat="40.861335" lon="8.2384767"><ele>28.999999999999996</ele><time>2026-04-19T08:31:22.497Z</time></trkpt><trkpt lat="40.861305" lon="8.2383517"><ele>29.0</ele><time>2026-04-19T08:31:24.497Z</time></trkpt><trkpt lat="40.86127" lon="8.238205"><ele>29.0</ele><time>2026-04-19T08:31:26.497Z</time></trkpt><trkpt lat="40.8612533" lon="8.2381183"><ele>29.0</ele><time>2026-04-19T08:31:27.497Z</time></trkpt><trkpt lat="40.8612317" lon="8.2380317"><ele>28.999999999999996</ele><time>2026-04-19T08:31:28.498Z</time></trkpt><trkpt lat="40.8612067" lon="8.2379367"><ele>29.0</ele><time>2026-04-19T08:31:29.498Z</time></trkpt><trkpt lat="40.861175" lon="8.2378383"><ele>28.799999999999997</ele><time>2026-04-19T08:31:30.498Z</time></trkpt><trkpt lat="40.86115" lon="8.2377383"><ele>28.599999999999998</ele><time>2026-04-19T08:31:31.497Z</time></trkpt><trkpt lat="40.86112" lon="8.2376383"><ele>28.4</ele><time>2026-04-19T08:31:32.497Z</time></trkpt><trkpt lat="40.861085" lon="8.2375333"><ele>28.2</ele><time>2026-04-19T08:31:33.498Z</time></trkpt><trkpt lat="40.8610533" lon="8.2374083"><ele>28.0</ele><time>2026-04-19T08:31:34.498Z</time></trkpt><trkpt lat="40.8610217" lon="8.23727"><ele>28.5</ele><time>2026-04-19T08:31:35.498Z</time></trkpt><trkpt lat="40.8609967" lon="8.2371217"><ele>29.0</ele><time>2026-04-19T08:31:36.498Z</time></trkpt><trkpt lat="40.8609683" lon="8.236975"><ele>29.5</ele><time>2026-04-19T08:31:37.497Z</time></trkpt><trkpt lat="40.8609383" lon="8.2368317"><ele>30.0</ele><time>2026-04-19T08:31:38.498Z</time></trkpt><trkpt lat="40.8608967" lon="8.2366967"><ele>30.4</ele><time>2026-04-19T08:31:39.497Z</time></trkpt><trkpt lat="40.8608617" lon="8.236555"><ele>30.8</ele><time>2026-04-19T08:31:40.497Z</time></trkpt><trkpt lat="40.860825" lon="8.2364183"><ele>31.200000000000003</ele><time>2026-04-19T08:31:41.498Z</time></trkpt><trkpt lat="40.8607917" lon="8.2362833"><ele>31.6</ele><time>2026-04-19T08:31:42.498Z</time></trkpt><trkpt lat="40.8607567" lon="8.2361383"><ele>32.0</ele><time>2026-04-19T08:31:43.498Z</time></trkpt><trkpt lat="40.860725" lon="8.2359933"><ele>32.4</ele><time>2026-04-19T08:31:44.498Z</time></trkpt><trkpt lat="40.86069" lon="8.2358517"><ele>32.800000000000004</ele><time>2026-04-19T08:31:45.497Z</time></trkpt><trkpt lat="40.8606617" lon="8.23571"><ele>33.2</ele><time>2026-04-19T08:31:46.497Z</time></trkpt><trkpt lat="40.86063" lon="8.2355783"><ele>33.6</ele><time>2026-04-19T08:31:47.497Z</time></trkpt><trkpt lat="40.8605967" lon="8.2354533"><ele>34.0</ele><time>2026-04-19T08:31:48.497Z</time></trkpt><trkpt lat="40.8605633" lon="8.2353183"><ele>34.6</ele><time>2026-04-19T08:31:49.498Z</time></trkpt><trkpt lat="40.8605317" lon="8.2351783"><ele>35.2</ele><time>2026-04-19T08:31:50.497Z</time></trkpt><trkpt lat="40.860495" lon="8.2350267"><ele>35.800000000000004</ele><time>2026-04-19T08:31:51.497Z</time></trkpt><trkpt lat="40.86046" lon="8.2348933"><ele>36.4</ele><time>2026-04-19T08:31:52.497Z</time></trkpt><trkpt lat="40.8604317" lon="8.2347767"><ele>37.0</ele><time>2026-04-19T08:31:53.497Z</time></trkpt><trkpt lat="40.8604" lon="8.2346633"><ele>37.0</ele><time>2026-04-19T08:31:54.497Z</time></trkpt><trkpt lat="40.8603617" lon="8.234565"><ele>37.0</ele><time>2026-04-19T08:31:55.497Z</time></trkpt><trkpt lat="40.8603133" lon="8.23449"><ele>37.0</ele><time>2026-04-19T08:31:56.498Z</time></trkpt><trkpt lat="40.8602467" lon="8.2344233"><ele>37.0</ele><time>2026-04-19T08:31:57.498Z</time></trkpt><trkpt lat="40.860165" lon="8.23436"><ele>37.0</ele><time>2026-04-19T08:31:58.498Z</time></trkpt><trkpt lat="40.8600833" lon="8.2342933"><ele>37.0</ele><time>2026-04-19T08:31:59.497Z</time></trkpt><trkpt lat="40.8599967" lon="8.2342283"><ele>37.4</ele><time>2026-04-19T08:32:00.497Z</time></trkpt><trkpt lat="40.859895" lon="8.23416"><ele>37.800000000000004</ele><time>2026-04-19T08:32:01.497Z</time></trkpt><trkpt lat="40.8598" lon="8.2340833"><ele>38.2</ele><time>2026-04-19T08:32:02.497Z</time></trkpt><trkpt lat="40.85971" lon="8.2340133"><ele>38.6</ele><time>2026-04-19T08:32:03.497Z</time></trkpt><trkpt lat="40.8596233" lon="8.23395"><ele>39.0</ele><time>2026-04-19T08:32:04.497Z</time></trkpt><trkpt lat="40.8595383" lon="8.233885"><ele>39.2</ele><time>2026-04-19T08:32:05.498Z</time></trkpt><trkpt lat="40.85945" lon="8.2338283"><ele>39.4</ele><time>2026-04-19T08:32:06.498Z</time></trkpt><trkpt lat="40.85937" lon="8.2337783"><ele>39.6</ele><time>2026-04-19T08:32:07.497Z</time></trkpt><trkpt lat="40.859285" lon="8.233735"><ele>39.8</ele><time>2026-04-19T08:32:08.498Z</time></trkpt><trkpt lat="40.8591983" lon="8.23369"><ele>40.0</ele><time>2026-04-19T08:32:09.498Z</time></trkpt><trkpt lat="40.859105" lon="8.2336467"><ele>39.5</ele><time>2026-04-19T08:32:10.497Z</time></trkpt><trkpt lat="40.859005" lon="8.2335933"><ele>39.0</ele><time>2026-04-19T08:32:11.498Z</time></trkpt><trkpt lat="40.8588883" lon="8.233535"><ele>38.5</ele><time>2026-04-19T08:32:12.498Z</time></trkpt><trkpt lat="40.8587667" lon="8.2334667"><ele>38.0</ele><time>2026-04-19T08:32:13.497Z</time></trkpt><trkpt lat="40.8586417" lon="8.2334033"><ele>38.0</ele><time>2026-04-19T08:32:14.498Z</time></trkpt><trkpt lat="40.8585267" lon="8.2333567"><ele>38.0</ele><time>2026-04-19T08:32:15.498Z</time></trkpt><trkpt lat="40.8584083" lon="8.2333167"><ele>38.0</ele><time>2026-04-19T08:32:16.498Z</time></trkpt><trkpt lat="40.8582933" lon="8.2332833"><ele>38.0</ele><time>2026-04-19T08:32:17.497Z</time></trkpt><trkpt lat="40.858185" lon="8.2332383"><ele>38.199999999999996</ele><time>2026-04-19T08:32:18.498Z</time></trkpt><trkpt lat="40.8580867" lon="8.2331867"><ele>38.4</ele><time>2026-04-19T08:32:19.498Z</time></trkpt><trkpt lat="40.8579883" lon="8.2331167"><ele>38.599999999999994</ele><time>2026-04-19T08:32:20.498Z</time></trkpt><trkpt lat="40.85789" lon="8.23305"><ele>38.8</ele><time>2026-04-19T08:32:21.497Z</time></trkpt><trkpt lat="40.8578017" lon="8.232985"><ele>39.0</ele><time>2026-04-19T08:32:22.497Z</time></trkpt><trkpt lat="40.8577217" lon="8.23292"><ele>39.333333333333336</ele><time>2026-04-19T08:32:23.498Z</time></trkpt><trkpt lat="40.8576483" lon="8.2328567"><ele>39.666666666666664</ele><time>2026-04-19T08:32:24.497Z</time></trkpt><trkpt lat="40.85757" lon="8.2327983"><ele>40.0</ele><time>2026-04-19T08:32:25.497Z</time></trkpt><trkpt lat="40.857495" lon="8.2327467"><ele>40.33333333333333</ele><time>2026-04-19T08:32:26.498Z</time></trkpt><trkpt lat="40.8574333" lon="8.2326833"><ele>40.666666666666664</ele><time>2026-04-19T08:32:27.498Z</time></trkpt><trkpt lat="40.85737" lon="8.2326"><ele>41.0</ele><time>2026-04-19T08:32:28.497Z</time></trkpt><trkpt lat="40.8573117" lon="8.2325017"><ele>40.5</ele><time>2026-04-19T08:32:29.498Z</time></trkpt><trkpt lat="40.857265" lon="8.232395"><ele>40.0</ele><time>2026-04-19T08:32:30.498Z</time></trkpt><trkpt lat="40.857215" lon="8.2322783"><ele>39.5</ele><time>2026-04-19T08:32:31.497Z</time></trkpt><trkpt lat="40.8571667" lon="8.232175"><ele>39.0</ele><time>2026-04-19T08:32:32.497Z</time></trkpt><trkpt lat="40.85711" lon="8.2321"><ele>38.5</ele><time>2026-04-19T08:32:33.497Z</time></trkpt><trkpt lat="40.8570517" lon="8.2320383"><ele>38.0</ele><time>2026-04-19T08:32:34.498Z</time></trkpt><trkpt lat="40.856975" lon="8.231995"><ele>38.0</ele><time>2026-04-19T08:32:35.498Z</time></trkpt><trkpt lat="40.85689" lon="8.2319483"><ele>38.0</ele><time>2026-04-19T08:32:36.497Z</time></trkpt><trkpt lat="40.8568" lon="8.2319117"><ele>38.0</ele><time>2026-04-19T08:32:37.498Z</time></trkpt><trkpt lat="40.8567067" lon="8.2318633"><ele>38.0</ele><time>2026-04-19T08:32:38.497Z</time></trkpt><trkpt lat="40.856625" lon="8.231815"><ele>38.0</ele><time>2026-04-19T08:32:39.497Z</time></trkpt><trkpt lat="40.85655" lon="8.23177"><ele>37.83333333333333</ele><time>2026-04-19T08:32:40.497Z</time></trkpt><trkpt lat="40.85645" lon="8.2317033"><ele>37.666666666666664</ele><time>2026-04-19T08:32:42.498Z</time></trkpt><trkpt lat="40.856365" lon="8.23166"><ele>37.5</ele><time>2026-04-19T08:32:44.498Z</time></trkpt><trkpt lat="40.856305" lon="8.23163"><ele>37.333333333333336</ele><time>2026-04-19T08:32:45.497Z</time></trkpt><trkpt lat="40.8562333" lon="8.2315983"><ele>37.16666666666667</ele><time>2026-04-19T08:32:46.498Z</time></trkpt><trkpt lat="40.8561517" lon="8.2315467"><ele>37.0</ele><time>2026-04-19T08:32:47.498Z</time></trkpt><trkpt lat="40.8560617" lon="8.2314883"><ele>37.6</ele><time>2026-04-19T08:32:48.498Z</time></trkpt><trkpt lat="40.8559783" lon="8.2314233"><ele>38.2</ele><time>2026-04-19T08:32:49.497Z</time></trkpt><trkpt lat="40.8559" lon="8.2313367"><ele>38.8</ele><time>2026-04-19T08:32:50.498Z</time></trkpt><trkpt lat="40.8558233" lon="8.2312483"><ele>39.4</ele><time>2026-04-19T08:32:51.497Z</time></trkpt><trkpt lat="40.8557333" lon="8.2311733"><ele>40.0</ele><time>2026-04-19T08:32:52.497Z</time></trkpt><trkpt lat="40.8556417" lon="8.2311033"><ele>40.4</ele><time>2026-04-19T08:32:53.498Z</time></trkpt><trkpt lat="40.8555517" lon="8.2310417"><ele>40.8</ele><time>2026-04-19T08:32:54.497Z</time></trkpt><trkpt lat="40.855475" lon="8.2309883"><ele>41.2</ele><time>2026-04-19T08:32:55.498Z</time></trkpt><trkpt lat="40.8554" lon="8.2309433"><ele>41.6</ele><time>2026-04-19T08:32:56.498Z</time></trkpt><trkpt lat="40.85532" lon="8.230915"><ele>42.0</ele><time>2026-04-19T08:32:57.498Z</time></trkpt><trkpt lat="40.855225" lon="8.23089"><ele>42.0</ele><time>2026-04-19T08:32:58.497Z</time></trkpt><trkpt lat="40.855135" lon="8.2308833"><ele>42.0</ele><time>2026-04-19T08:32:59.498Z</time></trkpt><trkpt lat="40.8550433" lon="8.23088"><ele>42.0</ele><time>2026-04-19T08:33:00.497Z</time></trkpt><trkpt lat="40.85495" lon="8.2308483"><ele>42.0</ele><time>2026-04-19T08:33:01.498Z</time></trkpt><trkpt lat="40.854865" lon="8.2308033"><ele>42.0</ele><time>2026-04-19T08:33:02.497Z</time></trkpt><trkpt lat="40.8547833" lon="8.2307433"><ele>41.857142857142854</ele><time>2026-04-19T08:33:03.498Z</time></trkpt><trkpt lat="40.8547133" lon="8.23069"><ele>41.714285714285715</ele><time>2026-04-19T08:33:04.497Z</time></trkpt><trkpt lat="40.8546483" lon="8.2306483"><ele>41.57142857142857</ele><time>2026-04-19T08:33:05.497Z</time></trkpt><trkpt lat="40.8545833" lon="8.2306333"><ele>41.42857142857143</ele><time>2026-04-19T08:33:06.497Z</time></trkpt><trkpt lat="40.854505" lon="8.2306517"><ele>41.285714285714285</ele><time>2026-04-19T08:33:07.497Z</time></trkpt><trkpt lat="40.8544383" lon="8.2306833"><ele>41.14285714285714</ele><time>2026-04-19T08:33:08.497Z</time></trkpt><trkpt lat="40.8543667" lon="8.23071"><ele>41.0</ele><time>2026-04-19T08:33:09.498Z</time></trkpt><trkpt lat="40.854295" lon="8.2307217"><ele>41.199999999999996</ele><time>2026-04-19T08:33:10.498Z</time></trkpt><trkpt lat="40.8542167" lon="8.2307333"><ele>41.4</ele><time>2026-04-19T08:33:11.497Z</time></trkpt><trkpt lat="40.8541283" lon="8.23072"><ele>41.6</ele><time>2026-04-19T08:33:12.498Z</time></trkpt><trkpt lat="40.8540333" lon="8.23069"><ele>41.8</ele><time>2026-04-19T08:33:13.498Z</time></trkpt><trkpt lat="40.8539283" lon="8.230635"><ele>42.0</ele><time>2026-04-19T08:33:14.497Z</time></trkpt><trkpt lat="40.8538067" lon="8.2305767"><ele>42.400000000000006</ele><time>2026-04-19T08:33:15.497Z</time></trkpt><trkpt lat="40.8536883" lon="8.23051"><ele>42.800000000000004</ele><time>2026-04-19T08:33:16.498Z</time></trkpt><trkpt lat="40.8535883" lon="8.230455"><ele>43.2</ele><time>2026-04-19T08:33:17.498Z</time></trkpt><trkpt lat="40.8535017" lon="8.230405"><ele>43.6</ele><time>2026-04-19T08:33:18.497Z</time></trkpt><trkpt lat="40.8534167" lon="8.2303517"><ele>44.0</ele><time>2026-04-19T08:33:19.497Z</time></trkpt><trkpt lat="40.8533383" lon="8.2303"><ele>44.6</ele><time>2026-04-19T08:33:20.498Z</time></trkpt><trkpt lat="40.8532583" lon="8.2302467"><ele>45.2</ele><time>2026-04-19T08:33:21.497Z</time></trkpt><trkpt lat="40.85317" lon="8.2302"><ele>45.800000000000004</ele><time>2026-04-19T08:33:22.498Z</time></trkpt><trkpt lat="40.85308" lon="8.2301617"><ele>46.400000000000006</ele><time>2026-04-19T08:33:23.498Z</time></trkpt><trkpt lat="40.8529933" lon="8.2301133"><ele>47.0</ele><time>2026-04-19T08:33:24.497Z</time></trkpt><trkpt lat="40.852895" lon="8.2300617"><ele>47.0</ele><time>2026-04-19T08:33:25.498Z</time></trkpt><trkpt lat="40.8527933" lon="8.2300233"><ele>47.0</ele><time>2026-04-19T08:33:26.497Z</time></trkpt><trkpt lat="40.8526883" lon="8.229985"><ele>47.0</ele><time>2026-04-19T08:33:27.497Z</time></trkpt><trkpt lat="40.8525883" lon="8.2299567"><ele>47.0</ele><time>2026-04-19T08:33:28.497Z</time></trkpt><trkpt lat="40.85249" lon="8.229915"><ele>47.0</ele><time>2026-04-19T08:33:29.498Z</time></trkpt><trkpt lat="40.8523967" lon="8.2298667"><ele>46.8</ele><time>2026-04-19T08:33:30.497Z</time></trkpt><trkpt lat="40.852315" lon="8.2298117"><ele>46.6</ele><time>2026-04-19T08:33:31.497Z</time></trkpt><trkpt lat="40.852235" lon="8.2297417"><ele>46.4</ele><time>2026-04-19T08:33:32.498Z</time></trkpt><trkpt lat="40.8521617" lon="8.2296667"><ele>46.199999999999996</ele><time>2026-04-19T08:33:33.498Z</time></trkpt><trkpt lat="40.8521017" lon="8.2295817"><ele>46.0</ele><time>2026-04-19T08:33:34.498Z</time></trkpt><trkpt lat="40.8520517" lon="8.22949"><ele>46.4</ele><time>2026-04-19T08:33:35.498Z</time></trkpt><trkpt lat="40.8520117" lon="8.229375"><ele>46.8</ele><time>2026-04-19T08:33:36.498Z</time></trkpt><trkpt lat="40.8519683" lon="8.2292467"><ele>47.199999999999996</ele><time>2026-04-19T08:33:37.497Z</time></trkpt><trkpt lat="40.85193" lon="8.229115"><ele>47.599999999999994</ele><time>2026-04-19T08:33:38.497Z</time></trkpt><trkpt lat="40.85189" lon="8.2289933"><ele>48.0</ele><time>2026-04-19T08:33:39.498Z</time></trkpt><trkpt lat="40.8518483" lon="8.2288683"><ele>48.0</ele><time>2026-04-19T08:33:40.498Z</time></trkpt><trkpt lat="40.851805" lon="8.2287333"><ele>48.0</ele><time>2026-04-19T08:33:41.497Z</time></trkpt><trkpt lat="40.8517583" lon="8.2285817"><ele>48.0</ele><time>2026-04-19T08:33:42.498Z</time></trkpt><trkpt lat="40.8517167" lon="8.22844"><ele>48.0</ele><time>2026-04-19T08:33:43.497Z</time></trkpt><trkpt lat="40.85167" lon="8.2283167"><ele>48.599999999999994</ele><time>2026-04-19T08:33:44.498Z</time></trkpt><trkpt lat="40.851635" lon="8.2282217"><ele>49.199999999999996</ele><time>2026-04-19T08:33:45.497Z</time></trkpt><trkpt lat="40.8516" lon="8.2281467"><ele>49.8</ele><time>2026-04-19T08:33:46.497Z</time></trkpt><trkpt lat="40.8515067" lon="8.22804"><ele>50.4</ele><time>2026-04-19T08:33:48.497Z</time></trkpt><trkpt lat="40.8514233" lon="8.2279817"><ele>51.0</ele><time>2026-04-19T08:33:50.498Z</time></trkpt><trkpt lat="40.8513467" lon="8.2279267"><ele>51.4</ele><time>2026-04-19T08:33:53.497Z</time></trkpt><trkpt lat="40.8512633" lon="8.2278867"><ele>51.8</ele><time>2026-04-19T08:33:55.497Z</time></trkpt><trkpt lat="40.8511483" lon="8.2278583"><ele>52.199999999999996</ele><time>2026-04-19T08:33:57.497Z</time></trkpt><trkpt lat="40.8510633" lon="8.2278367"><ele>52.599999999999994</ele><time>2026-04-19T08:33:58.498Z</time></trkpt><trkpt lat="40.8509667" lon="8.2278133"><ele>53.0</ele><time>2026-04-19T08:33:59.498Z</time></trkpt><trkpt lat="40.8508633" lon="8.2277983"><ele>53.0</ele><time>2026-04-19T08:34:00.497Z</time></trkpt><trkpt lat="40.8507417" lon="8.2277867"><ele>53.0</ele><time>2026-04-19T08:34:01.497Z</time></trkpt><trkpt lat="40.850615" lon="8.227775"><ele>53.0</ele><time>2026-04-19T08:34:02.497Z</time></trkpt><trkpt lat="40.85048" lon="8.2277783"><ele>53.0</ele><time>2026-04-19T08:34:03.497Z</time></trkpt><trkpt lat="40.8503533" lon="8.2277733"><ele>53.0</ele><time>2026-04-19T08:34:04.498Z</time></trkpt><trkpt lat="40.8502383" lon="8.2277733"><ele>53.0</ele><time>2026-04-19T08:34:05.497Z</time></trkpt><trkpt lat="40.850135" lon="8.2277683"><ele>53.0</ele><time>2026-04-19T08:34:06.497Z</time></trkpt><trkpt lat="40.8500383" lon="8.227755"><ele>53.0</ele><time>2026-04-19T08:34:07.497Z</time></trkpt><trkpt lat="40.8499533" lon="8.2277383"><ele>53.0</ele><time>2026-04-19T08:34:08.497Z</time></trkpt><trkpt lat="40.849865" lon="8.2277183"><ele>52.599999999999994</ele><time>2026-04-19T08:34:09.498Z</time></trkpt><trkpt lat="40.8497583" lon="8.2276933"><ele>52.199999999999996</ele><time>2026-04-19T08:34:11.498Z</time></trkpt><trkpt lat="40.8496683" lon="8.2276783"><ele>51.8</ele><time>2026-04-19T08:34:26.497Z</time></trkpt><trkpt lat="40.849555" lon="8.2276467"><ele>51.4</ele><time>2026-04-19T08:34:28.497Z</time></trkpt><trkpt lat="40.8494767" lon="8.227635"><ele>51.0</ele><time>2026-04-19T08:34:29.496Z</time></trkpt><trkpt lat="40.849385" lon="8.2276217"><ele>51.0</ele><time>2026-04-19T08:34:30.496Z</time></trkpt><trkpt lat="40.8492983" lon="8.2276"><ele>51.0</ele><time>2026-04-19T08:34:31.497Z</time></trkpt><trkpt lat="40.849215" lon="8.2275767"><ele>51.0</ele><time>2026-04-19T08:34:32.496Z</time></trkpt><trkpt lat="40.8491267" lon="8.227555"><ele>51.0</ele><time>2026-04-19T08:34:33.497Z</time></trkpt><trkpt lat="40.8490433" lon="8.22754"><ele>51.0</ele><time>2026-04-19T08:34:34.497Z</time></trkpt><trkpt lat="40.8489567" lon="8.2275233"><ele>51.0</ele><time>2026-04-19T08:34:35.497Z</time></trkpt><trkpt lat="40.8488683" lon="8.2275033"><ele>51.4</ele><time>2026-04-19T08:34:36.496Z</time></trkpt><trkpt lat="40.848775" lon="8.2274883"><ele>51.8</ele><time>2026-04-19T08:34:37.496Z</time></trkpt><trkpt lat="40.8486867" lon="8.22746"><ele>52.199999999999996</ele><time>2026-04-19T08:34:38.497Z</time></trkpt><trkpt lat="40.8485967" lon="8.2274367"><ele>52.599999999999994</ele><time>2026-04-19T08:34:39.496Z</time></trkpt><trkpt lat="40.8485083" lon="8.2274117"><ele>53.0</ele><time>2026-04-19T08:34:40.497Z</time></trkpt><trkpt lat="40.84842" lon="8.227395"><ele>53.50000000000001</ele><time>2026-04-19T08:34:41.496Z</time></trkpt><trkpt lat="40.8483367" lon="8.2273817"><ele>54.0</ele><time>2026-04-19T08:34:42.497Z</time></trkpt><trkpt lat="40.8482533" lon="8.2273733"><ele>54.5</ele><time>2026-04-19T08:34:43.497Z</time></trkpt><trkpt lat="40.8481717" lon="8.2273567"><ele>55.0</ele><time>2026-04-19T08:34:44.497Z</time></trkpt><trkpt lat="40.8480883" lon="8.22734"><ele>55.50000000000001</ele><time>2026-04-19T08:34:45.497Z</time></trkpt><trkpt lat="40.8480033" lon="8.2273267"><ele>56.0</ele><time>2026-04-19T08:34:46.496Z</time></trkpt><trkpt lat="40.8479333" lon="8.2273117"><ele>56.50000000000001</ele><time>2026-04-19T08:34:47.496Z</time></trkpt><trkpt lat="40.8478233" lon="8.2272583"><ele>57.0</ele><time>2026-04-19T08:34:49.496Z</time></trkpt><trkpt lat="40.847775" lon="8.227195"><ele>57.5</ele><time>2026-04-19T08:34:50.496Z</time></trkpt><trkpt lat="40.8477217" lon="8.2271183"><ele>58.0</ele><time>2026-04-19T08:34:51.496Z</time></trkpt><trkpt lat="40.847665" lon="8.2270483"><ele>58.50000000000001</ele><time>2026-04-19T08:34:52.496Z</time></trkpt><trkpt lat="40.8475967" lon="8.226995"><ele>59.0</ele><time>2026-04-19T08:34:53.497Z</time></trkpt><trkpt lat="40.847525" lon="8.2269617"><ele>59.0</ele><time>2026-04-19T08:34:54.496Z</time></trkpt><trkpt lat="40.847445" lon="8.2269483"><ele>59.00000000000001</ele><time>2026-04-19T08:34:55.496Z</time></trkpt><trkpt lat="40.847375" lon="8.2269283"><ele>59.00000000000001</ele><time>2026-04-19T08:34:56.497Z</time></trkpt><trkpt lat="40.847315" lon="8.2269"><ele>59.0</ele><time>2026-04-19T08:34:57.496Z</time></trkpt><trkpt lat="40.84722" lon="8.2268083"><ele>59.0</ele><time>2026-04-19T08:34:59.497Z</time></trkpt><trkpt lat="40.84717" lon="8.2266583"><ele>59.0</ele><time>2026-04-19T08:35:01.496Z</time></trkpt><trkpt lat="40.847145" lon="8.2265533"><ele>59.00000000000001</ele><time>2026-04-19T08:35:02.497Z</time></trkpt><trkpt lat="40.84712" lon="8.22643"><ele>59.00000000000001</ele><time>2026-04-19T08:35:03.496Z</time></trkpt><trkpt lat="40.8470983" lon="8.2262917"><ele>59.0</ele><time>2026-04-19T08:35:04.496Z</time></trkpt><trkpt lat="40.84707" lon="8.2261417"><ele>59.0</ele><time>2026-04-19T08:35:05.496Z</time></trkpt><trkpt lat="40.84704" lon="8.2259817"><ele>59.5</ele><time>2026-04-19T08:35:06.496Z</time></trkpt><trkpt lat="40.84701" lon="8.225805"><ele>60.0</ele><time>2026-04-19T08:35:07.496Z</time></trkpt><trkpt lat="40.8469783" lon="8.2256233"><ele>60.5</ele><time>2026-04-19T08:35:08.497Z</time></trkpt><trkpt lat="40.8469367" lon="8.22544"><ele>61.0</ele><time>2026-04-19T08:35:09.496Z</time></trkpt><trkpt lat="40.8469017" lon="8.225255"><ele>62.25</ele><time>2026-04-19T08:35:10.497Z</time></trkpt><trkpt lat="40.8468683" lon="8.2250717"><ele>63.5</ele><time>2026-04-19T08:35:11.496Z</time></trkpt><trkpt lat="40.84683" lon="8.2248917"><ele>64.75</ele><time>2026-04-19T08:35:12.496Z</time></trkpt><trkpt lat="40.8467933" lon="8.2247083"><ele>66.0</ele><time>2026-04-19T08:35:13.497Z</time></trkpt><trkpt lat="40.846755" lon="8.2245183"><ele>68.33333333333333</ele><time>2026-04-19T08:35:14.496Z</time></trkpt><trkpt lat="40.8467183" lon="8.2243133"><ele>70.66666666666666</ele><time>2026-04-19T08:35:15.497Z</time></trkpt><trkpt lat="40.84669" lon="8.2241083"><ele>73.0</ele><time>2026-04-19T08:35:16.497Z</time></trkpt><trkpt lat="40.8466533" lon="8.2239217"><ele>74.5</ele><time>2026-04-19T08:35:17.496Z</time></trkpt><trkpt lat="40.8466183" lon="8.223725"><ele>76.0</ele><time>2026-04-19T08:35:18.497Z</time></trkpt><trkpt lat="40.846585" lon="8.22355"><ele>77.5</ele><time>2026-04-19T08:35:19.496Z</time></trkpt><trkpt lat="40.84655" lon="8.223385"><ele>79.0</ele><time>2026-04-19T08:35:20.496Z</time></trkpt><trkpt lat="40.8465167" lon="8.2232283"><ele>80.0</ele><time>2026-04-19T08:35:21.497Z</time></trkpt><trkpt lat="40.846485" lon="8.2230767"><ele>81.0</ele><time>2026-04-19T08:35:22.496Z</time></trkpt><trkpt lat="40.8464633" lon="8.222935"><ele>82.0</ele><time>2026-04-19T08:35:23.497Z</time></trkpt><trkpt lat="40.8464467" lon="8.22284"><ele>83.0</ele><time>2026-04-19T08:35:24.496Z</time></trkpt><trkpt lat="40.846425" lon="8.2226767"><ele>84.0</ele><time>2026-04-19T08:35:26.496Z</time></trkpt><trkpt lat="40.8464383" lon="8.22257"><ele>84.0</ele><time>2026-04-19T08:35:27.496Z</time></trkpt><trkpt lat="40.8464683" lon="8.2224317"><ele>84.0</ele><time>2026-04-19T08:35:28.497Z</time></trkpt><trkpt lat="40.8465067" lon="8.2222767"><ele>84.0</ele><time>2026-04-19T08:35:29.497Z</time></trkpt><trkpt lat="40.8465433" lon="8.2221133"><ele>84.0</ele><time>2026-04-19T08:35:30.496Z</time></trkpt><trkpt lat="40.8465833" lon="8.2219367"><ele>85.25</ele><time>2026-04-19T08:35:31.497Z</time></trkpt><trkpt lat="40.84662" lon="8.221745"><ele>86.5</ele><time>2026-04-19T08:35:32.497Z</time></trkpt><trkpt lat="40.846655" lon="8.2215583"><ele>87.75</ele><time>2026-04-19T08:35:33.496Z</time></trkpt><trkpt lat="40.84668" lon="8.221385"><ele>89.0</ele><time>2026-04-19T08:35:34.496Z</time></trkpt><trkpt lat="40.8467083" lon="8.2212217"><ele>89.75</ele><time>2026-04-19T08:35:35.496Z</time></trkpt><trkpt lat="40.8467383" lon="8.221055"><ele>90.5</ele><time>2026-04-19T08:35:36.496Z</time></trkpt><trkpt lat="40.8467733" lon="8.2208917"><ele>91.25</ele><time>2026-04-19T08:35:37.496Z</time></trkpt><trkpt lat="40.8468033" lon="8.220725"><ele>92.0</ele><time>2026-04-19T08:35:38.496Z</time></trkpt><trkpt lat="40.8468367" lon="8.2205583"><ele>92.25</ele><time>2026-04-19T08:35:39.497Z</time></trkpt><trkpt lat="40.8468617" lon="8.2203867"><ele>92.5</ele><time>2026-04-19T08:35:40.497Z</time></trkpt><trkpt lat="40.8468733" lon="8.2202133"><ele>92.75</ele><time>2026-04-19T08:35:41.496Z</time></trkpt><trkpt lat="40.84689" lon="8.2200517"><ele>93.0</ele><time>2026-04-19T08:35:42.496Z</time></trkpt><trkpt lat="40.8469117" lon="8.21991"><ele>94.0</ele><time>2026-04-19T08:35:43.497Z</time></trkpt><trkpt lat="40.8469283" lon="8.2197767"><ele>95.0</ele><time>2026-04-19T08:35:44.497Z</time></trkpt><trkpt lat="40.8469433" lon="8.2196467"><ele>96.0</ele><time>2026-04-19T08:35:45.497Z</time></trkpt><trkpt lat="40.8469417" lon="8.2195283"><ele>97.0</ele><time>2026-04-19T08:35:46.496Z</time></trkpt><trkpt lat="40.8469383" lon="8.2194233"><ele>98.0</ele><time>2026-04-19T08:35:47.497Z</time></trkpt><trkpt lat="40.84693" lon="8.2193317"><ele>99.0</ele><time>2026-04-19T08:35:48.497Z</time></trkpt><trkpt lat="40.8468933" lon="8.2192117"><ele>99.0</ele><time>2026-04-19T08:35:50.496Z</time></trkpt><trkpt lat="40.84681" lon="8.21915"><ele>99.0</ele><time>2026-04-19T08:35:52.497Z</time></trkpt><trkpt lat="40.8466983" lon="8.2191333"><ele>99.0</ele><time>2026-04-19T08:35:54.497Z</time></trkpt><trkpt lat="40.8466017" lon="8.2191483"><ele>99.0</ele><time>2026-04-19T08:35:56.496Z</time></trkpt><trkpt lat="40.8465067" lon="8.21915"><ele>99.0</ele><time>2026-04-19T08:35:58.497Z</time></trkpt><trkpt lat="40.8463817" lon="8.2191533"><ele>98.16666666666667</ele><time>2026-04-19T08:36:00.497Z</time></trkpt><trkpt lat="40.8463183" lon="8.219155"><ele>97.33333333333333</ele><time>2026-04-19T08:36:01.496Z</time></trkpt><trkpt lat="40.84619" lon="8.2191517"><ele>96.5</ele><time>2026-04-19T08:36:03.496Z</time></trkpt><trkpt lat="40.8461217" lon="8.219155"><ele>95.66666666666666</ele><time>2026-04-19T08:36:04.496Z</time></trkpt><trkpt lat="40.8460517" lon="8.2191683"><ele>94.83333333333333</ele><time>2026-04-19T08:36:05.497Z</time></trkpt><trkpt lat="40.8459817" lon="8.2191817"><ele>94.0</ele><time>2026-04-19T08:36:06.496Z</time></trkpt><trkpt lat="40.8459117" lon="8.2192117"><ele>93.16666666666666</ele><time>2026-04-19T08:36:07.497Z</time></trkpt><trkpt lat="40.8458483" lon="8.21925"><ele>92.33333333333333</ele><time>2026-04-19T08:36:08.497Z</time></trkpt><trkpt lat="40.8457567" lon="8.2193533"><ele>91.5</ele><time>2026-04-19T08:36:10.496Z</time></trkpt><trkpt lat="40.8457017" lon="8.2194933"><ele>90.66666666666667</ele><time>2026-04-19T08:36:12.497Z</time></trkpt><trkpt lat="40.8456733" lon="8.2195717"><ele>89.83333333333334</ele><time>2026-04-19T08:36:13.496Z</time></trkpt><trkpt lat="40.8456467" lon="8.2196517"><ele>89.0</ele><time>2026-04-19T08:36:14.496Z</time></trkpt><trkpt lat="40.8456233" lon="8.2197383"><ele>88.85714285714285</ele><time>2026-04-19T08:36:15.496Z</time></trkpt><trkpt lat="40.8456033" lon="8.2198233"><ele>88.71428571428571</ele><time>2026-04-19T08:36:16.497Z</time></trkpt><trkpt lat="40.8455867" lon="8.2199117"><ele>88.57142857142857</ele><time>2026-04-19T08:36:17.497Z</time></trkpt><trkpt lat="40.8455633" lon="8.2200067"><ele>88.42857142857142</ele><time>2026-04-19T08:36:18.496Z</time></trkpt><trkpt lat="40.8455367" lon="8.22009"><ele>88.28571428571428</ele><time>2026-04-19T08:36:19.496Z</time></trkpt><trkpt lat="40.8455" lon="8.2201783"><ele>88.14285714285714</ele><time>2026-04-19T08:36:20.497Z</time></trkpt><trkpt lat="40.8454483" lon="8.2202667"><ele>88.0</ele><time>2026-04-19T08:36:21.497Z</time></trkpt><trkpt lat="40.84539" lon="8.2203383"><ele>88.0</ele><time>2026-04-19T08:36:22.497Z</time></trkpt><trkpt lat="40.8453117" lon="8.2204"><ele>88.0</ele><time>2026-04-19T08:36:23.496Z</time></trkpt><trkpt lat="40.8452267" lon="8.2204517"><ele>88.0</ele><time>2026-04-19T08:36:24.497Z</time></trkpt><trkpt lat="40.8451333" lon="8.2205017"><ele>88.0</ele><time>2026-04-19T08:36:25.497Z</time></trkpt><trkpt lat="40.8450483" lon="8.22056"><ele>88.0</ele><time>2026-04-19T08:36:26.496Z</time></trkpt><trkpt lat="40.8449617" lon="8.22062"><ele>86.60000000000001</ele><time>2026-04-19T08:36:27.497Z</time></trkpt><trkpt lat="40.8448783" lon="8.2206917"><ele>85.2</ele><time>2026-04-19T08:36:28.497Z</time></trkpt><trkpt lat="40.8448" lon="8.2207667"><ele>83.8</ele><time>2026-04-19T08:36:29.496Z</time></trkpt><trkpt lat="40.8447217" lon="8.2208417"><ele>82.4</ele><time>2026-04-19T08:36:30.496Z</time></trkpt><trkpt lat="40.8446483" lon="8.2209067"><ele>81.0</ele><time>2026-04-19T08:36:31.497Z</time></trkpt><trkpt lat="40.8445817" lon="8.220975"><ele>81.0</ele><time>2026-04-19T08:36:32.496Z</time></trkpt><trkpt lat="40.844525" lon="8.221055"><ele>81.0</ele><time>2026-04-19T08:36:33.497Z</time></trkpt><trkpt lat="40.8444717" lon="8.2211417"><ele>81.0</ele><time>2026-04-19T08:36:34.497Z</time></trkpt><trkpt lat="40.844425" lon="8.2212283"><ele>81.0</ele><time>2026-04-19T08:36:35.496Z</time></trkpt><trkpt lat="40.8443717" lon="8.221325"><ele>81.0</ele><time>2026-04-19T08:36:36.497Z</time></trkpt><trkpt lat="40.8443283" lon="8.221425"><ele>81.0</ele><time>2026-04-19T08:36:37.496Z</time></trkpt><trkpt lat="40.8442933" lon="8.2215233"><ele>79.5</ele><time>2026-04-19T08:36:38.497Z</time></trkpt><trkpt lat="40.8442617" lon="8.2216117"><ele>78.0</ele><time>2026-04-19T08:36:39.496Z</time></trkpt><trkpt lat="40.8442217" lon="8.2216983"><ele>76.5</ele><time>2026-04-19T08:36:40.497Z</time></trkpt><trkpt lat="40.84419" lon="8.2217883"><ele>75.0</ele><time>2026-04-19T08:36:41.496Z</time></trkpt><trkpt lat="40.8441583" lon="8.22187"><ele>73.5</ele><time>2026-04-19T08:36:42.496Z</time></trkpt><trkpt lat="40.8441017" lon="8.2220033"><ele>72.0</ele><time>2026-04-19T08:36:44.496Z</time></trkpt><trkpt lat="40.844035" lon="8.2221317"><ele>72.0</ele><time>2026-04-19T08:36:46.496Z</time></trkpt><trkpt lat="40.84399" lon="8.22222"><ele>72.0</ele><time>2026-04-19T08:36:47.497Z</time></trkpt><trkpt lat="40.84395" lon="8.2223133"><ele>72.0</ele><time>2026-04-19T08:36:48.496Z</time></trkpt><trkpt lat="40.8439083" lon="8.222405"><ele>72.0</ele><time>2026-04-19T08:36:49.497Z</time></trkpt><trkpt lat="40.8438633" lon="8.222495"><ele>72.0</ele><time>2026-04-19T08:36:50.496Z</time></trkpt><trkpt lat="40.84381" lon="8.22257"><ele>72.0</ele><time>2026-04-19T08:36:51.496Z</time></trkpt><trkpt lat="40.84374" lon="8.2226317"><ele>71.4</ele><time>2026-04-19T08:36:52.496Z</time></trkpt><trkpt lat="40.843665" lon="8.2226967"><ele>70.80000000000001</ele><time>2026-04-19T08:36:53.496Z</time></trkpt><trkpt lat="40.8435717" lon="8.222755"><ele>70.2</ele><time>2026-04-19T08:36:54.496Z</time></trkpt><trkpt lat="40.843475" lon="8.2228117"><ele>69.60000000000001</ele><time>2026-04-19T08:36:55.496Z</time></trkpt><trkpt lat="40.8433783" lon="8.2228533"><ele>69.0</ele><time>2026-04-19T08:36:56.496Z</time></trkpt><trkpt lat="40.843285" lon="8.222885"><ele>68.8</ele><time>2026-04-19T08:36:57.497Z</time></trkpt><trkpt lat="40.8431967" lon="8.222935"><ele>68.60000000000001</ele><time>2026-04-19T08:36:58.497Z</time></trkpt><trkpt lat="40.8431133" lon="8.2229967"><ele>68.4</ele><time>2026-04-19T08:36:59.497Z</time></trkpt><trkpt lat="40.84305" lon="8.2230883"><ele>68.2</ele><time>2026-04-19T08:37:00.496Z</time></trkpt><trkpt lat="40.8429967" lon="8.2232"><ele>68.0</ele><time>2026-04-19T08:37:01.496Z</time></trkpt><trkpt lat="40.8429483" lon="8.2233233"><ele>67.5</ele><time>2026-04-19T08:37:02.497Z</time></trkpt><trkpt lat="40.8429" lon="8.2234817"><ele>67.0</ele><time>2026-04-19T08:37:03.496Z</time></trkpt><trkpt lat="40.8428483" lon="8.2236383"><ele>66.5</ele><time>2026-04-19T08:37:04.497Z</time></trkpt><trkpt lat="40.8428017" lon="8.2237883"><ele>66.0</ele><time>2026-04-19T08:37:05.496Z</time></trkpt><trkpt lat="40.84276" lon="8.2239133"><ele>65.39999999999999</ele><time>2026-04-19T08:37:06.496Z</time></trkpt><trkpt lat="40.842715" lon="8.2240183"><ele>64.8</ele><time>2026-04-19T08:37:07.497Z</time></trkpt><trkpt lat="40.8426667" lon="8.2241133"><ele>64.19999999999999</ele><time>2026-04-19T08:37:08.497Z</time></trkpt><trkpt lat="40.8426083" lon="8.2241933"><ele>63.599999999999994</ele><time>2026-04-19T08:37:09.496Z</time></trkpt><trkpt lat="40.8425333" lon="8.2242683"><ele>63.0</ele><time>2026-04-19T08:37:10.497Z</time></trkpt><trkpt lat="40.8424433" lon="8.2243417"><ele>63.0</ele><time>2026-04-19T08:37:11.496Z</time></trkpt><trkpt lat="40.8423417" lon="8.2244117"><ele>63.0</ele><time>2026-04-19T08:37:12.497Z</time></trkpt><trkpt lat="40.8422267" lon="8.2244833"><ele>63.0</ele><time>2026-04-19T08:37:13.497Z</time></trkpt><trkpt lat="40.8420933" lon="8.2245467"><ele>63.0</ele><time>2026-04-19T08:37:14.496Z</time></trkpt><trkpt lat="40.8419533" lon="8.224615"><ele>63.0</ele><time>2026-04-19T08:37:15.497Z</time></trkpt><trkpt lat="40.8418017" lon="8.2246783"><ele>63.0</ele><time>2026-04-19T08:37:16.496Z</time></trkpt><trkpt lat="40.84166" lon="8.2247417"><ele>63.0</ele><time>2026-04-19T08:37:17.497Z</time></trkpt><trkpt lat="40.8415183" lon="8.2248217"><ele>62.5</ele><time>2026-04-19T08:37:18.497Z</time></trkpt><trkpt lat="40.8413833" lon="8.2249017"><ele>62.0</ele><time>2026-04-19T08:37:19.496Z</time></trkpt><trkpt lat="40.84126" lon="8.2249967"><ele>61.5</ele><time>2026-04-19T08:37:20.496Z</time></trkpt><trkpt lat="40.8411483" lon="8.2250883"><ele>61.0</ele><time>2026-04-19T08:37:21.496Z</time></trkpt><trkpt lat="40.8410467" lon="8.2251667"><ele>60.599999999999994</ele><time>2026-04-19T08:37:22.497Z</time></trkpt><trkpt lat="40.8409467" lon="8.2252467"><ele>60.199999999999996</ele><time>2026-04-19T08:37:23.496Z</time></trkpt><trkpt lat="40.840845" lon="8.225325"><ele>59.800000000000004</ele><time>2026-04-19T08:37:24.496Z</time></trkpt><trkpt lat="40.840755" lon="8.2253833"><ele>59.400000000000006</ele><time>2026-04-19T08:37:25.497Z</time></trkpt><trkpt lat="40.8406633" lon="8.2254567"><ele>59.0</ele><time>2026-04-19T08:37:26.497Z</time></trkpt><trkpt lat="40.8405817" lon="8.2255417"><ele>58.5</ele><time>2026-04-19T08:37:27.496Z</time></trkpt><trkpt lat="40.84051" lon="8.22565"><ele>58.0</ele><time>2026-04-19T08:37:28.496Z</time></trkpt><trkpt lat="40.840445" lon="8.2257833"><ele>57.5</ele><time>2026-04-19T08:37:29.496Z</time></trkpt><trkpt lat="40.840385" lon="8.2259267"><ele>57.0</ele><time>2026-04-19T08:37:30.496Z</time></trkpt><trkpt lat="40.8403333" lon="8.2260733"><ele>57.0</ele><time>2026-04-19T08:37:31.497Z</time></trkpt><trkpt lat="40.8402733" lon="8.226225"><ele>57.0</ele><time>2026-04-19T08:37:32.497Z</time></trkpt><trkpt lat="40.8402033" lon="8.2263683"><ele>57.0</ele><time>2026-04-19T08:37:33.497Z</time></trkpt><trkpt lat="40.8401217" lon="8.226505"><ele>57.0</ele><time>2026-04-19T08:37:34.496Z</time></trkpt><trkpt lat="40.8400367" lon="8.226635"><ele>56.0</ele><time>2026-04-19T08:37:35.497Z</time></trkpt><trkpt lat="40.8399317" lon="8.2267833"><ele>55.0</ele><time>2026-04-19T08:37:36.496Z</time></trkpt><trkpt lat="40.8398183" lon="8.2269317"><ele>54.0</ele><time>2026-04-19T08:37:37.497Z</time></trkpt><trkpt lat="40.8397033" lon="8.2270883"><ele>54.0</ele><time>2026-04-19T08:37:38.496Z</time></trkpt><trkpt lat="40.8396083" lon="8.2272267"><ele>54.0</ele><time>2026-04-19T08:37:39.497Z</time></trkpt><trkpt lat="40.8395167" lon="8.2273467"><ele>54.0</ele><time>2026-04-19T08:37:40.497Z</time></trkpt><trkpt lat="40.83943" lon="8.2274567"><ele>54.0</ele><time>2026-04-19T08:37:41.496Z</time></trkpt><trkpt lat="40.83936" lon="8.2275783"><ele>53.25</ele><time>2026-04-19T08:37:42.496Z</time></trkpt><trkpt lat="40.8392883" lon="8.2277233"><ele>52.5</ele><time>2026-04-19T08:37:43.497Z</time></trkpt><trkpt lat="40.83923" lon="8.2278683"><ele>51.75</ele><time>2026-04-19T08:37:44.497Z</time></trkpt><trkpt lat="40.8391683" lon="8.2280233"><ele>51.0</ele><time>2026-04-19T08:37:45.496Z</time></trkpt><trkpt lat="40.8391067" lon="8.2281983"><ele>50.33333333333333</ele><time>2026-04-19T08:37:46.497Z</time></trkpt><trkpt lat="40.8390383" lon="8.2283917"><ele>49.666666666666664</ele><time>2026-04-19T08:37:47.496Z</time></trkpt><trkpt lat="40.83896" lon="8.2286067"><ele>49.0</ele><time>2026-04-19T08:37:48.497Z</time></trkpt><trkpt lat="40.83889" lon="8.2288217"><ele>48.666666666666664</ele><time>2026-04-19T08:37:49.496Z</time></trkpt><trkpt lat="40.8388017" lon="8.2290483"><ele>48.33333333333333</ele><time>2026-04-19T08:37:50.497Z</time></trkpt><trkpt lat="40.83871" lon="8.2292883"><ele>48.0</ele><time>2026-04-19T08:37:51.497Z</time></trkpt><trkpt lat="40.8386267" lon="8.2295233"><ele>48.0</ele><time>2026-04-19T08:37:52.496Z</time></trkpt><trkpt lat="40.8385483" lon="8.2297417"><ele>48.0</ele><time>2026-04-19T08:37:53.496Z</time></trkpt><trkpt lat="40.83847" lon="8.229945"><ele>48.0</ele><time>2026-04-19T08:37:54.496Z</time></trkpt><trkpt lat="40.838405" lon="8.2301267"><ele>47.5</ele><time>2026-04-19T08:37:55.496Z</time></trkpt><trkpt lat="40.8383367" lon="8.2302933"><ele>47.0</ele><time>2026-04-19T08:37:56.497Z</time></trkpt><trkpt lat="40.838275" lon="8.23047"><ele>46.5</ele><time>2026-04-19T08:37:57.496Z</time></trkpt><trkpt lat="40.8382117" lon="8.2306483"><ele>46.0</ele><time>2026-04-19T08:37:58.497Z</time></trkpt><trkpt lat="40.8381483" lon="8.2308317"><ele>45.75</ele><time>2026-04-19T08:37:59.497Z</time></trkpt><trkpt lat="40.8380767" lon="8.2310133"><ele>45.5</ele><time>2026-04-19T08:38:00.496Z</time></trkpt><trkpt lat="40.8380067" lon="8.2311883"><ele>45.25</ele><time>2026-04-19T08:38:01.497Z</time></trkpt><trkpt lat="40.8379467" lon="8.23135"><ele>45.0</ele><time>2026-04-19T08:38:02.497Z</time></trkpt><trkpt lat="40.8378933" lon="8.231515"><ele>45.0</ele><time>2026-04-19T08:38:03.497Z</time></trkpt><trkpt lat="40.8378317" lon="8.2316833"><ele>45.0</ele><time>2026-04-19T08:38:04.496Z</time></trkpt><trkpt lat="40.83777" lon="8.2318533"><ele>45.0</ele><time>2026-04-19T08:38:05.496Z</time></trkpt><trkpt lat="40.8377" lon="8.232025"><ele>45.0</ele><time>2026-04-19T08:38:06.497Z</time></trkpt><trkpt lat="40.83763" lon="8.2321967"><ele>45.0</ele><time>2026-04-19T08:38:07.497Z</time></trkpt><trkpt lat="40.8375617" lon="8.2323783"><ele>45.0</ele><time>2026-04-19T08:38:08.497Z</time></trkpt><trkpt lat="40.8375" lon="8.232555"><ele>45.0</ele><time>2026-04-19T08:38:09.497Z</time></trkpt><trkpt lat="40.8374383" lon="8.23274"><ele>45.0</ele><time>2026-04-19T08:38:10.496Z</time></trkpt><trkpt lat="40.8373767" lon="8.2329167"><ele>45.0</ele><time>2026-04-19T08:38:11.497Z</time></trkpt><trkpt lat="40.8373183" lon="8.2330833"><ele>45.0</ele><time>2026-04-19T08:38:12.496Z</time></trkpt><trkpt lat="40.837255" lon="8.2332567"><ele>45.0</ele><time>2026-04-19T08:38:13.496Z</time></trkpt><trkpt lat="40.83719" lon="8.2334267"><ele>45.25</ele><time>2026-04-19T08:38:14.497Z</time></trkpt><trkpt lat="40.8371317" lon="8.2335917"><ele>45.5</ele><time>2026-04-19T08:38:15.497Z</time></trkpt><trkpt lat="40.8370733" lon="8.233745"><ele>45.75</ele><time>2026-04-19T08:38:16.497Z</time></trkpt><trkpt lat="40.8370333" lon="8.2338733"><ele>46.0</ele><time>2026-04-19T08:38:17.497Z</time></trkpt><trkpt lat="40.83698" lon="8.2340017"><ele>46.0</ele><time>2026-04-19T08:38:18.497Z</time></trkpt><trkpt lat="40.8369317" lon="8.23413"><ele>46.0</ele><time>2026-04-19T08:38:19.496Z</time></trkpt><trkpt lat="40.8368883" lon="8.234255"><ele>46.0</ele><time>2026-04-19T08:38:20.497Z</time></trkpt><trkpt lat="40.836835" lon="8.23439"><ele>46.0</ele><time>2026-04-19T08:38:21.496Z</time></trkpt><trkpt lat="40.8367783" lon="8.2345383"><ele>45.5</ele><time>2026-04-19T08:38:22.496Z</time></trkpt><trkpt lat="40.8367217" lon="8.2346933"><ele>45.0</ele><time>2026-04-19T08:38:23.496Z</time></trkpt><trkpt lat="40.836665" lon="8.2348533"><ele>44.5</ele><time>2026-04-19T08:38:24.496Z</time></trkpt><trkpt lat="40.836605" lon="8.2350317"><ele>44.0</ele><time>2026-04-19T08:38:25.497Z</time></trkpt><trkpt lat="40.836535" lon="8.2352083"><ele>43.75</ele><time>2026-04-19T08:38:26.497Z</time></trkpt><trkpt lat="40.83647" lon="8.23538"><ele>43.5</ele><time>2026-04-19T08:38:27.497Z</time></trkpt><trkpt lat="40.8364117" lon="8.2355417"><ele>43.25</ele><time>2026-04-19T08:38:28.496Z</time></trkpt><trkpt lat="40.8363617" lon="8.235685"><ele>43.0</ele><time>2026-04-19T08:38:29.497Z</time></trkpt><trkpt lat="40.836305" lon="8.2358167"><ele>42.833333333333336</ele><time>2026-04-19T08:38:30.497Z</time></trkpt><trkpt lat="40.8362533" lon="8.2359267"><ele>42.66666666666667</ele><time>2026-04-19T08:38:31.496Z</time></trkpt><trkpt lat="40.83621" lon="8.2360167"><ele>42.5</ele><time>2026-04-19T08:38:32.497Z</time></trkpt><trkpt lat="40.8361633" lon="8.2360867"><ele>42.333333333333336</ele><time>2026-04-19T08:38:33.497Z</time></trkpt><trkpt lat="40.83608" lon="8.236165"><ele>42.166666666666664</ele><time>2026-04-19T08:38:35.496Z</time></trkpt><trkpt lat="40.8360133" lon="8.236165"><ele>42.0</ele><time>2026-04-19T08:38:37.497Z</time></trkpt><trkpt lat="40.835975" lon="8.2360867"><ele>42.2</ele><time>2026-04-19T08:38:39.496Z</time></trkpt><trkpt lat="40.835955" lon="8.2359983"><ele>42.400000000000006</ele><time>2026-04-19T08:38:40.496Z</time></trkpt><trkpt lat="40.8359417" lon="8.235875"><ele>42.599999999999994</ele><time>2026-04-19T08:38:41.496Z</time></trkpt><trkpt lat="40.8359217" lon="8.2357383"><ele>42.8</ele><time>2026-04-19T08:38:42.496Z</time></trkpt><trkpt lat="40.8358983" lon="8.2356017"><ele>43.0</ele><time>2026-04-19T08:38:43.496Z</time></trkpt><trkpt lat="40.8358683" lon="8.2354617"><ele>42.599999999999994</ele><time>2026-04-19T08:38:44.497Z</time></trkpt><trkpt lat="40.8358367" lon="8.2353283"><ele>42.199999999999996</ele><time>2026-04-19T08:38:45.496Z</time></trkpt><trkpt lat="40.83581" lon="8.23519"><ele>41.8</ele><time>2026-04-19T08:38:46.496Z</time></trkpt><trkpt lat="40.8357817" lon="8.2350467"><ele>41.4</ele><time>2026-04-19T08:38:47.496Z</time></trkpt><trkpt lat="40.8357517" lon="8.2349017"><ele>41.0</ele><time>2026-04-19T08:38:48.497Z</time></trkpt><trkpt lat="40.8357117" lon="8.2347533"><ele>40.5</ele><time>2026-04-19T08:38:49.497Z</time></trkpt><trkpt lat="40.8356717" lon="8.2346"><ele>40.0</ele><time>2026-04-19T08:38:50.497Z</time></trkpt><trkpt lat="40.8356383" lon="8.2344433"><ele>39.5</ele><time>2026-04-19T08:38:51.496Z</time></trkpt><trkpt lat="40.8356033" lon="8.2342833"><ele>39.0</ele><time>2026-04-19T08:38:52.497Z</time></trkpt><trkpt lat="40.83557" lon="8.2341217"><ele>39.25</ele><time>2026-04-19T08:38:53.496Z</time></trkpt><trkpt lat="40.8355367" lon="8.2339567"><ele>39.5</ele><time>2026-04-19T08:38:54.497Z</time></trkpt><trkpt lat="40.835505" lon="8.2337983"><ele>39.75</ele><time>2026-04-19T08:38:55.496Z</time></trkpt><trkpt lat="40.8354733" lon="8.2336517"><ele>40.0</ele><time>2026-04-19T08:38:56.497Z</time></trkpt><trkpt lat="40.8354433" lon="8.2335017"><ele>40.0</ele><time>2026-04-19T08:38:57.496Z</time></trkpt><trkpt lat="40.83541" lon="8.2333383"><ele>40.0</ele><time>2026-04-19T08:38:58.496Z</time></trkpt><trkpt lat="40.83537" lon="8.2331633"><ele>40.0</ele><time>2026-04-19T08:38:59.496Z</time></trkpt><trkpt lat="40.8353317" lon="8.232975"><ele>40.0</ele><time>2026-04-19T08:39:00.497Z</time></trkpt><trkpt lat="40.8352967" lon="8.2327817"><ele>40.5</ele><time>2026-04-19T08:39:01.497Z</time></trkpt><trkpt lat="40.8352617" lon="8.2326033"><ele>41.0</ele><time>2026-04-19T08:39:02.497Z</time></trkpt><trkpt lat="40.835215" lon="8.2324433"><ele>41.5</ele><time>2026-04-19T08:39:03.496Z</time></trkpt><trkpt lat="40.8351483" lon="8.2322883"><ele>42.0</ele><time>2026-04-19T08:39:04.496Z</time></trkpt><trkpt lat="40.8350717" lon="8.2321367"><ele>42.666666666666664</ele><time>2026-04-19T08:39:05.496Z</time></trkpt><trkpt lat="40.8349783" lon="8.2320017"><ele>43.33333333333333</ele><time>2026-04-19T08:39:06.497Z</time></trkpt><trkpt lat="40.834865" lon="8.231875"><ele>44.0</ele><time>2026-04-19T08:39:07.496Z</time></trkpt><trkpt lat="40.834725" lon="8.2317583"><ele>44.0</ele><time>2026-04-19T08:39:08.496Z</time></trkpt><trkpt lat="40.83458" lon="8.2316667"><ele>44.0</ele><time>2026-04-19T08:39:09.497Z</time></trkpt><trkpt lat="40.8344267" lon="8.2315783"><ele>44.0</ele><time>2026-04-19T08:39:10.497Z</time></trkpt><trkpt lat="40.83427" lon="8.2314867"><ele>43.666666666666664</ele><time>2026-04-19T08:39:11.497Z</time></trkpt><trkpt lat="40.8341117" lon="8.2313933"><ele>43.333333333333336</ele><time>2026-04-19T08:39:12.497Z</time></trkpt><trkpt lat="40.8339583" lon="8.23128"><ele>43.0</ele><time>2026-04-19T08:39:13.497Z</time></trkpt><trkpt lat="40.8338133" lon="8.2311667"><ele>43.0</ele><time>2026-04-19T08:39:14.497Z</time></trkpt><trkpt lat="40.83368" lon="8.231035"><ele>43.0</ele><time>2026-04-19T08:39:15.497Z</time></trkpt><trkpt lat="40.833565" lon="8.2308733"><ele>43.0</ele><time>2026-04-19T08:39:16.497Z</time></trkpt><trkpt lat="40.833455" lon="8.2306917"><ele>43.66666666666667</ele><time>2026-04-19T08:39:17.496Z</time></trkpt><trkpt lat="40.833345" lon="8.2305017"><ele>44.333333333333336</ele><time>2026-04-19T08:39:18.497Z</time></trkpt><trkpt lat="40.8332383" lon="8.230315"><ele>45.0</ele><time>2026-04-19T08:39:19.496Z</time></trkpt><trkpt lat="40.8331383" lon="8.2301317"><ele>45.0</ele><time>2026-04-19T08:39:20.497Z</time></trkpt><trkpt lat="40.833035" lon="8.229945"><ele>45.0</ele><time>2026-04-19T08:39:21.496Z</time></trkpt><trkpt lat="40.8329217" lon="8.22976"><ele>45.0</ele><time>2026-04-19T08:39:22.496Z</time></trkpt><trkpt lat="40.8328267" lon="8.2295633"><ele>45.333333333333336</ele><time>2026-04-19T08:39:23.496Z</time></trkpt><trkpt lat="40.83277" lon="8.2293583"><ele>45.66666666666667</ele><time>2026-04-19T08:39:24.496Z</time></trkpt><trkpt lat="40.8327283" lon="8.22913"><ele>46.0</ele><time>2026-04-19T08:39:25.496Z</time></trkpt><trkpt lat="40.8327083" lon="8.2288833"><ele>44.333333333333336</ele><time>2026-04-19T08:39:26.497Z</time></trkpt><trkpt lat="40.8326983" lon="8.228635"><ele>42.666666666666664</ele><time>2026-04-19T08:39:27.496Z</time></trkpt><trkpt lat="40.8326883" lon="8.2283883"><ele>41.0</ele><time>2026-04-19T08:39:28.497Z</time></trkpt><trkpt lat="40.832655" lon="8.2281317"><ele>39.0</ele><time>2026-04-19T08:39:29.497Z</time></trkpt><trkpt lat="40.832625" lon="8.22787"><ele>37.0</ele><time>2026-04-19T08:39:30.497Z</time></trkpt><trkpt lat="40.8326017" lon="8.22761"><ele>35.0</ele><time>2026-04-19T08:39:31.496Z</time></trkpt><trkpt lat="40.8325867" lon="8.2273617"><ele>35.666666666666664</ele><time>2026-04-19T08:39:32.497Z</time></trkpt><trkpt lat="40.8325617" lon="8.227115"><ele>36.333333333333336</ele><time>2026-04-19T08:39:33.497Z</time></trkpt><trkpt lat="40.8325333" lon="8.22688"><ele>37.0</ele><time>2026-04-19T08:39:34.497Z</time></trkpt><trkpt lat="40.8325083" lon="8.2266317"><ele>37.333333333333336</ele><time>2026-04-19T08:39:35.496Z</time></trkpt><trkpt lat="40.8324967" lon="8.2263933"><ele>37.666666666666664</ele><time>2026-04-19T08:39:36.496Z</time></trkpt><trkpt lat="40.8324683" lon="8.226165"><ele>38.0</ele><time>2026-04-19T08:39:37.496Z</time></trkpt><trkpt lat="40.83242" lon="8.2259633"><ele>38.0</ele><time>2026-04-19T08:39:38.497Z</time></trkpt><trkpt lat="40.8323517" lon="8.225775"><ele>38.0</ele><time>2026-04-19T08:39:39.496Z</time></trkpt><trkpt lat="40.8322767" lon="8.2255983"><ele>38.0</ele><time>2026-04-19T08:39:40.496Z</time></trkpt><trkpt lat="40.8322" lon="8.225425"><ele>38.75</ele><time>2026-04-19T08:39:41.496Z</time></trkpt><trkpt lat="40.83213" lon="8.2252567"><ele>39.5</ele><time>2026-04-19T08:39:42.497Z</time></trkpt><trkpt lat="40.8320583" lon="8.2250883"><ele>40.25</ele><time>2026-04-19T08:39:43.497Z</time></trkpt><trkpt lat="40.8319833" lon="8.22492"><ele>41.0</ele><time>2026-04-19T08:39:44.496Z</time></trkpt><trkpt lat="40.8319017" lon="8.224745"><ele>41.33333333333333</ele><time>2026-04-19T08:39:45.497Z</time></trkpt><trkpt lat="40.831825" lon="8.2245717"><ele>41.666666666666664</ele><time>2026-04-19T08:39:46.496Z</time></trkpt><trkpt lat="40.8317467" lon="8.2243917"><ele>42.0</ele><time>2026-04-19T08:39:47.496Z</time></trkpt><trkpt lat="40.83167" lon="8.2242083"><ele>42.0</ele><time>2026-04-19T08:39:48.496Z</time></trkpt><trkpt lat="40.8315883" lon="8.22403"><ele>42.0</ele><time>2026-04-19T08:39:49.496Z</time></trkpt><trkpt lat="40.8315067" lon="8.223855"><ele>42.0</ele><time>2026-04-19T08:39:50.497Z</time></trkpt><trkpt lat="40.8314283" lon="8.2236783"><ele>42.0</ele><time>2026-04-19T08:39:51.496Z</time></trkpt><trkpt lat="40.83136" lon="8.2235017"><ele>42.0</ele><time>2026-04-19T08:39:52.496Z</time></trkpt><trkpt lat="40.8312767" lon="8.2233233"><ele>42.0</ele><time>2026-04-19T08:39:53.497Z</time></trkpt><trkpt lat="40.8312" lon="8.2231467"><ele>43.666666666666664</ele><time>2026-04-19T08:39:54.497Z</time></trkpt><trkpt lat="40.8311233" lon="8.2229617"><ele>45.33333333333333</ele><time>2026-04-19T08:39:55.496Z</time></trkpt><trkpt lat="40.83105" lon="8.2227767"><ele>47.0</ele><time>2026-04-19T08:39:56.497Z</time></trkpt><trkpt lat="40.8309717" lon="8.2225917"><ele>48.0</ele><time>2026-04-19T08:39:57.496Z</time></trkpt><trkpt lat="40.8308867" lon="8.222405"><ele>49.0</ele><time>2026-04-19T08:39:58.496Z</time></trkpt><trkpt lat="40.8308067" lon="8.22222"><ele>50.0</ele><time>2026-04-19T08:39:59.497Z</time></trkpt><trkpt lat="40.83072" lon="8.2220217"><ele>50.333333333333336</ele><time>2026-04-19T08:40:00.497Z</time></trkpt><trkpt lat="40.8306333" lon="8.2218233"><ele>50.66666666666667</ele><time>2026-04-19T08:40:01.496Z</time></trkpt><trkpt lat="40.8305517" lon="8.2216267"><ele>51.0</ele><time>2026-04-19T08:40:02.497Z</time></trkpt><trkpt lat="40.830465" lon="8.221435"><ele>52.0</ele><time>2026-04-19T08:40:03.496Z</time></trkpt><trkpt lat="40.8303733" lon="8.2212383"><ele>53.0</ele><time>2026-04-19T08:40:04.496Z</time></trkpt><trkpt lat="40.8302917" lon="8.2210367"><ele>54.0</ele><time>2026-04-19T08:40:05.497Z</time></trkpt><trkpt lat="40.8302217" lon="8.2208283"><ele>54.0</ele><time>2026-04-19T08:40:06.496Z</time></trkpt><trkpt lat="40.8301533" lon="8.220615"><ele>54.0</ele><time>2026-04-19T08:40:07.496Z</time></trkpt><trkpt lat="40.8300917" lon="8.2204017"><ele>54.0</ele><time>2026-04-19T08:40:08.497Z</time></trkpt><trkpt lat="40.8300283" lon="8.220205"><ele>53.33333333333333</ele><time>2026-04-19T08:40:09.497Z</time></trkpt><trkpt lat="40.8299867" lon="8.2200167"><ele>52.666666666666664</ele><time>2026-04-19T08:40:10.496Z</time></trkpt><trkpt lat="40.8299517" lon="8.219815"><ele>52.0</ele><time>2026-04-19T08:40:11.496Z</time></trkpt><trkpt lat="40.82992" lon="8.219605"><ele>51.33333333333333</ele><time>2026-04-19T08:40:12.496Z</time></trkpt><trkpt lat="40.8298867" lon="8.2193883"><ele>50.66666666666667</ele><time>2026-04-19T08:40:13.496Z</time></trkpt><trkpt lat="40.8298667" lon="8.2191567"><ele>50.0</ele><time>2026-04-19T08:40:14.496Z</time></trkpt><trkpt lat="40.8298483" lon="8.2189217"><ele>50.0</ele><time>2026-04-19T08:40:15.496Z</time></trkpt><trkpt lat="40.8298317" lon="8.2186767"><ele>50.0</ele><time>2026-04-19T08:40:16.497Z</time></trkpt><trkpt lat="40.8298083" lon="8.2184383"><ele>50.0</ele><time>2026-04-19T08:40:17.496Z</time></trkpt><trkpt lat="40.829785" lon="8.218185"><ele>48.66666666666667</ele><time>2026-04-19T08:40:18.496Z</time></trkpt><trkpt lat="40.8297633" lon="8.21794"><ele>47.333333333333336</ele><time>2026-04-19T08:40:19.496Z</time></trkpt><trkpt lat="40.82974" lon="8.2176983"><ele>46.0</ele><time>2026-04-19T08:40:20.496Z</time></trkpt><trkpt lat="40.8297233" lon="8.2174733"><ele>46.0</ele><time>2026-04-19T08:40:21.496Z</time></trkpt><trkpt lat="40.8296983" lon="8.2172667"><ele>46.0</ele><time>2026-04-19T08:40:22.496Z</time></trkpt><trkpt lat="40.8296717" lon="8.217075"><ele>46.0</ele><time>2026-04-19T08:40:23.496Z</time></trkpt><trkpt lat="40.8296433" lon="8.2169183"><ele>46.0</ele><time>2026-04-19T08:40:24.497Z</time></trkpt><trkpt lat="40.8296" lon="8.2167917"><ele>46.0</ele><time>2026-04-19T08:40:25.496Z</time></trkpt><trkpt lat="40.82956" lon="8.2166783"><ele>46.0</ele><time>2026-04-19T08:40:26.497Z</time></trkpt><trkpt lat="40.8295217" lon="8.2165917"><ele>46.0</ele><time>2026-04-19T08:40:27.496Z</time></trkpt><trkpt lat="40.829495" lon="8.2164583"><ele>46.0</ele><time>2026-04-19T08:40:29.496Z</time></trkpt><trkpt lat="40.829495" lon="8.216355"><ele>46.0</ele><time>2026-04-19T08:40:31.496Z</time></trkpt><trkpt lat="40.8295367" lon="8.2162817"><ele>46.0</ele><time>2026-04-19T08:40:33.496Z</time></trkpt><trkpt lat="40.8296317" lon="8.2162717"><ele>46.8</ele><time>2026-04-19T08:40:36.497Z</time></trkpt><trkpt lat="40.8296967" lon="8.2163383"><ele>47.599999999999994</ele><time>2026-04-19T08:40:38.496Z</time></trkpt><trkpt lat="40.82976" lon="8.216385"><ele>48.4</ele><time>2026-04-19T08:40:40.497Z</time></trkpt><trkpt lat="40.82984" lon="8.216335"><ele>49.2</ele><time>2026-04-19T08:40:42.496Z</time></trkpt><trkpt lat="40.8299167" lon="8.2162067"><ele>50.0</ele><time>2026-04-19T08:40:44.496Z</time></trkpt><trkpt lat="40.8300033" lon="8.2160883"><ele>50.00000000000001</ele><time>2026-04-19T08:40:46.496Z</time></trkpt><trkpt lat="40.83005" lon="8.2160317"><ele>50.0</ele><time>2026-04-19T08:40:47.496Z</time></trkpt><trkpt lat="40.8301317" lon="8.2159167"><ele>50.0</ele><time>2026-04-19T08:40:49.496Z</time></trkpt><trkpt lat="40.8302167" lon="8.2157983"><ele>50.0</ele><time>2026-04-19T08:40:51.495Z</time></trkpt><trkpt lat="40.8302633" lon="8.21573"><ele>50.00000000000001</ele><time>2026-04-19T08:40:52.496Z</time></trkpt><trkpt lat="40.8303117" lon="8.2156617"><ele>50.0</ele><time>2026-04-19T08:40:53.495Z</time></trkpt><trkpt lat="40.8303717" lon="8.215585"><ele>50.00000000000001</ele><time>2026-04-19T08:40:54.496Z</time></trkpt><trkpt lat="40.830435" lon="8.2155183"><ele>50.0</ele><time>2026-04-19T08:40:55.496Z</time></trkpt><trkpt lat="40.830505" lon="8.2154633"><ele>50.0</ele><time>2026-04-19T08:40:56.496Z</time></trkpt><trkpt lat="40.8305717" lon="8.215415"><ele>50.0</ele><time>2026-04-19T08:40:57.495Z</time></trkpt><trkpt lat="40.830635" lon="8.21537"><ele>50.0</ele><time>2026-04-19T08:40:58.495Z</time></trkpt><trkpt lat="40.8306967" lon="8.2153217"><ele>50.00000000000001</ele><time>2026-04-19T08:40:59.496Z</time></trkpt><trkpt lat="40.8307533" lon="8.2152783"><ele>50.0</ele><time>2026-04-19T08:41:00.496Z</time></trkpt><trkpt lat="40.8308117" lon="8.215235"><ele>50.00000000000001</ele><time>2026-04-19T08:41:01.496Z</time></trkpt><trkpt lat="40.8309" lon="8.2151517"><ele>50.0</ele><time>2026-04-19T08:41:03.495Z</time></trkpt><trkpt lat="40.8309667" lon="8.2150967"><ele>50.0</ele><time>2026-04-19T08:41:05.496Z</time></trkpt><trkpt lat="40.8310417" lon="8.2150333"><ele>50.0</ele><time>2026-04-19T08:41:15.495Z</time></trkpt><trkpt lat="40.8310883" lon="8.2149733"><ele>50.00000000000001</ele><time>2026-04-19T08:41:18.495Z</time></trkpt><trkpt lat="40.831115" lon="8.21485"><ele>50.0</ele><time>2026-04-19T08:42:13.495Z</time></trkpt><trkpt lat="40.831115" lon="8.214725"><ele>50.2</ele><time>2026-04-19T08:42:15.495Z</time></trkpt><trkpt lat="40.8311033" lon="8.21458"><ele>50.4</ele><time>2026-04-19T08:42:17.495Z</time></trkpt><trkpt lat="40.8310783" lon="8.2144283"><ele>50.599999999999994</ele><time>2026-04-19T08:42:19.495Z</time></trkpt><trkpt lat="40.83102" lon="8.21429"><ele>50.8</ele><time>2026-04-19T08:42:21.496Z</time></trkpt><trkpt lat="40.8309883" lon="8.2142067"><ele>51.0</ele><time>2026-04-19T08:42:22.496Z</time></trkpt><trkpt lat="40.83097" lon="8.2140983"><ele>51.199999999999996</ele><time>2026-04-19T08:42:23.495Z</time></trkpt><trkpt lat="40.8309567" lon="8.2139733"><ele>51.4</ele><time>2026-04-19T08:42:24.496Z</time></trkpt><trkpt lat="40.8309467" lon="8.2138517"><ele>51.6</ele><time>2026-04-19T08:42:25.495Z</time></trkpt><trkpt lat="40.8309483" lon="8.2137183"><ele>51.8</ele><time>2026-04-19T08:42:26.495Z</time></trkpt><trkpt lat="40.8309617" lon="8.21358"><ele>52.0</ele><time>2026-04-19T08:42:27.496Z</time></trkpt><trkpt lat="40.8309717" lon="8.213445"><ele>51.99999999999999</ele><time>2026-04-19T08:42:28.496Z</time></trkpt><trkpt lat="40.83097" lon="8.2133233"><ele>52.0</ele><time>2026-04-19T08:42:29.496Z</time></trkpt><trkpt lat="40.8309583" lon="8.2132067"><ele>52.0</ele><time>2026-04-19T08:42:30.496Z</time></trkpt><trkpt lat="40.83095" lon="8.2131"><ele>52.0</ele><time>2026-04-19T08:42:31.495Z</time></trkpt><trkpt lat="40.83094" lon="8.2130067"><ele>51.99999999999999</ele><time>2026-04-19T08:42:32.496Z</time></trkpt><trkpt lat="40.83092" lon="8.2129217"><ele>52.0</ele><time>2026-04-19T08:42:33.495Z</time></trkpt><trkpt lat="40.8308833" lon="8.2128433"><ele>52.49999999999999</ele><time>2026-04-19T08:42:34.495Z</time></trkpt><trkpt lat="40.8308267" lon="8.2127667"><ele>53.0</ele><time>2026-04-19T08:42:35.495Z</time></trkpt><trkpt lat="40.8307583" lon="8.2126933"><ele>53.5</ele><time>2026-04-19T08:42:36.495Z</time></trkpt><trkpt lat="40.83069" lon="8.21264"><ele>54.0</ele><time>2026-04-19T08:42:37.496Z</time></trkpt><trkpt lat="40.8306233" lon="8.212585"><ele>54.49999999999999</ele><time>2026-04-19T08:42:38.496Z</time></trkpt><trkpt lat="40.8305683" lon="8.2125167"><ele>55.0</ele><time>2026-04-19T08:42:39.495Z</time></trkpt><trkpt lat="40.8305267" lon="8.2124333"><ele>54.99999999999999</ele><time>2026-04-19T08:42:40.496Z</time></trkpt><trkpt lat="40.8304967" lon="8.2123333"><ele>55.0</ele><time>2026-04-19T08:42:41.496Z</time></trkpt><trkpt lat="40.8304783" lon="8.212215"><ele>55.0</ele><time>2026-04-19T08:42:42.496Z</time></trkpt><trkpt lat="40.83047" lon="8.212085"><ele>55.0</ele><time>2026-04-19T08:42:43.495Z</time></trkpt><trkpt lat="40.8304683" lon="8.2119683"><ele>54.99999999999999</ele><time>2026-04-19T08:42:44.495Z</time></trkpt><trkpt lat="40.8304617" lon="8.211865"><ele>55.0</ele><time>2026-04-19T08:42:45.496Z</time></trkpt><trkpt lat="40.8304483" lon="8.21178"><ele>54.99999999999999</ele><time>2026-04-19T08:42:46.496Z</time></trkpt><trkpt lat="40.830415" lon="8.2116967"><ele>55.0</ele><time>2026-04-19T08:42:47.495Z</time></trkpt><trkpt lat="40.83037" lon="8.21162"><ele>55.0</ele><time>2026-04-19T08:42:48.496Z</time></trkpt><trkpt lat="40.83032" lon="8.2115483"><ele>55.0</ele><time>2026-04-19T08:42:49.496Z</time></trkpt><trkpt lat="40.8302667" lon="8.2114867"><ele>55.0</ele><time>2026-04-19T08:42:50.496Z</time></trkpt><trkpt lat="40.8302167" lon="8.2114217"><ele>54.99999999999999</ele><time>2026-04-19T08:42:51.496Z</time></trkpt><trkpt lat="40.8301633" lon="8.2113533"><ele>55.0</ele><time>2026-04-19T08:42:52.496Z</time></trkpt><trkpt lat="40.8301033" lon="8.21129"><ele>55.33333333333333</ele><time>2026-04-19T08:42:53.495Z</time></trkpt><trkpt lat="40.8300433" lon="8.21123"><ele>55.666666666666664</ele><time>2026-04-19T08:42:54.495Z</time></trkpt><trkpt lat="40.8299733" lon="8.2111833"><ele>56.0</ele><time>2026-04-19T08:42:55.496Z</time></trkpt><trkpt lat="40.8299017" lon="8.2111467"><ele>56.33333333333333</ele><time>2026-04-19T08:42:56.496Z</time></trkpt><trkpt lat="40.8298367" lon="8.2111183"><ele>56.666666666666664</ele><time>2026-04-19T08:42:57.496Z</time></trkpt><trkpt lat="40.829775" lon="8.21108"><ele>57.0</ele><time>2026-04-19T08:42:58.495Z</time></trkpt><trkpt lat="40.8296583" lon="8.21102"><ele>57.0</ele><time>2026-04-19T08:43:00.496Z</time></trkpt><trkpt lat="40.8295983" lon="8.2109917"><ele>57.0</ele><time>2026-04-19T08:43:01.495Z</time></trkpt><trkpt lat="40.82953" lon="8.210955"><ele>57.0</ele><time>2026-04-19T08:43:02.496Z</time></trkpt><trkpt lat="40.82946" lon="8.2109183"><ele>57.0</ele><time>2026-04-19T08:43:03.495Z</time></trkpt><trkpt lat="40.8293833" lon="8.210865"><ele>57.0</ele><time>2026-04-19T08:43:04.496Z</time></trkpt><trkpt lat="40.8292967" lon="8.2108267"><ele>57.0</ele><time>2026-04-19T08:43:05.496Z</time></trkpt><trkpt lat="40.8292033" lon="8.2107767"><ele>56.2</ele><time>2026-04-19T08:43:06.496Z</time></trkpt><trkpt lat="40.8291067" lon="8.210735"><ele>55.400000000000006</ele><time>2026-04-19T08:43:07.495Z</time></trkpt><trkpt lat="40.8290083" lon="8.2107017"><ele>54.599999999999994</ele><time>2026-04-19T08:43:08.496Z</time></trkpt><trkpt lat="40.828915" lon="8.21068"><ele>53.8</ele><time>2026-04-19T08:43:09.496Z</time></trkpt><trkpt lat="40.8288217" lon="8.210665"><ele>53.0</ele><time>2026-04-19T08:43:10.496Z</time></trkpt><trkpt lat="40.8287283" lon="8.210655"><ele>52.8</ele><time>2026-04-19T08:43:11.496Z</time></trkpt><trkpt lat="40.8286417" lon="8.210635"><ele>52.599999999999994</ele><time>2026-04-19T08:43:12.495Z</time></trkpt><trkpt lat="40.8285467" lon="8.2106017"><ele>52.400000000000006</ele><time>2026-04-19T08:43:13.495Z</time></trkpt><trkpt lat="40.82845" lon="8.2105617"><ele>52.2</ele><time>2026-04-19T08:43:14.496Z</time></trkpt><trkpt lat="40.82836" lon="8.2105133"><ele>52.0</ele><time>2026-04-19T08:43:15.496Z</time></trkpt><trkpt lat="40.8282783" lon="8.210475"><ele>52.0</ele><time>2026-04-19T08:43:16.495Z</time></trkpt><trkpt lat="40.828195" lon="8.2104117"><ele>52.0</ele><time>2026-04-19T08:43:17.496Z</time></trkpt><trkpt lat="40.8281217" lon="8.2103233"><ele>52.0</ele><time>2026-04-19T08:43:18.496Z</time></trkpt><trkpt lat="40.8280633" lon="8.2102133"><ele>52.0</ele><time>2026-04-19T08:43:19.496Z</time></trkpt><trkpt lat="40.828" lon="8.2100833"><ele>52.0</ele><time>2026-04-19T08:43:20.495Z</time></trkpt><trkpt lat="40.8279417" lon="8.2099517"><ele>52.0</ele><time>2026-04-19T08:43:21.495Z</time></trkpt><trkpt lat="40.8278867" lon="8.20982"><ele>52.0</ele><time>2026-04-19T08:43:22.495Z</time></trkpt><trkpt lat="40.827845" lon="8.20969"><ele>52.0</ele><time>2026-04-19T08:43:23.495Z</time></trkpt><trkpt lat="40.82781" lon="8.20956"><ele>52.0</ele><time>2026-04-19T08:43:24.495Z</time></trkpt><trkpt lat="40.8277867" lon="8.20944"><ele>52.0</ele><time>2026-04-19T08:43:25.496Z</time></trkpt><trkpt lat="40.8277717" lon="8.20932"><ele>51.99999999999999</ele><time>2026-04-19T08:43:26.496Z</time></trkpt><trkpt lat="40.82775" lon="8.2092267"><ele>52.0</ele><time>2026-04-19T08:43:27.496Z</time></trkpt><trkpt lat="40.8277367" lon="8.209135"><ele>52.0</ele><time>2026-04-19T08:43:28.496Z</time></trkpt><trkpt lat="40.8277283" lon="8.2090417"><ele>52.0</ele><time>2026-04-19T08:43:29.496Z</time></trkpt><trkpt lat="40.8277267" lon="8.20894"><ele>51.99999999999999</ele><time>2026-04-19T08:43:30.495Z</time></trkpt><trkpt lat="40.8277367" lon="8.2088283"><ele>52.0</ele><time>2026-04-19T08:43:31.496Z</time></trkpt><trkpt lat="40.82775" lon="8.2087167"><ele>52.33333333333333</ele><time>2026-04-19T08:43:32.496Z</time></trkpt><trkpt lat="40.82776" lon="8.2086067"><ele>52.666666666666664</ele><time>2026-04-19T08:43:33.495Z</time></trkpt><trkpt lat="40.8277617" lon="8.2085033"><ele>53.0</ele><time>2026-04-19T08:43:34.495Z</time></trkpt><trkpt lat="40.8277683" lon="8.208395"><ele>53.33333333333333</ele><time>2026-04-19T08:43:35.496Z</time></trkpt><trkpt lat="40.8277767" lon="8.2082917"><ele>53.666666666666664</ele><time>2026-04-19T08:43:36.496Z</time></trkpt><trkpt lat="40.8277933" lon="8.2081833"><ele>54.0</ele><time>2026-04-19T08:43:37.496Z</time></trkpt><trkpt lat="40.827815" lon="8.20807"><ele>54.2</ele><time>2026-04-19T08:43:38.496Z</time></trkpt><trkpt lat="40.8278433" lon="8.207955"><ele>54.400000000000006</ele><time>2026-04-19T08:43:39.496Z</time></trkpt><trkpt lat="40.827875" lon="8.2078383"><ele>54.6</ele><time>2026-04-19T08:43:40.496Z</time></trkpt><trkpt lat="40.8279167" lon="8.2077183"><ele>54.8</ele><time>2026-04-19T08:43:41.496Z</time></trkpt><trkpt lat="40.8279667" lon="8.20759"><ele>55.0</ele><time>2026-04-19T08:43:42.495Z</time></trkpt><trkpt lat="40.828025" lon="8.2074383"><ele>55.25</ele><time>2026-04-19T08:43:43.495Z</time></trkpt><trkpt lat="40.8280783" lon="8.20728"><ele>55.5</ele><time>2026-04-19T08:43:44.495Z</time></trkpt><trkpt lat="40.8281167" lon="8.2071067"><ele>55.75</ele><time>2026-04-19T08:43:45.495Z</time></trkpt><trkpt lat="40.8281517" lon="8.2069183"><ele>56.0</ele><time>2026-04-19T08:43:46.495Z</time></trkpt><trkpt lat="40.8281767" lon="8.2067367"><ele>56.0</ele><time>2026-04-19T08:43:47.495Z</time></trkpt><trkpt lat="40.8281967" lon="8.2065817"><ele>56.0</ele><time>2026-04-19T08:43:48.495Z</time></trkpt><trkpt lat="40.828215" lon="8.2064283"><ele>56.0</ele><time>2026-04-19T08:43:49.496Z</time></trkpt><trkpt lat="40.8282383" lon="8.2062717"><ele>56.0</ele><time>2026-04-19T08:43:50.496Z</time></trkpt><trkpt lat="40.828265" lon="8.2061067"><ele>56.5</ele><time>2026-04-19T08:43:51.495Z</time></trkpt><trkpt lat="40.82829" lon="8.2059283"><ele>57.0</ele><time>2026-04-19T08:43:52.495Z</time></trkpt><trkpt lat="40.828315" lon="8.2057583"><ele>57.5</ele><time>2026-04-19T08:43:53.496Z</time></trkpt><trkpt lat="40.82834" lon="8.2055983"><ele>58.0</ele><time>2026-04-19T08:43:54.496Z</time></trkpt><trkpt lat="40.8283633" lon="8.20544"><ele>58.25</ele><time>2026-04-19T08:43:55.496Z</time></trkpt><trkpt lat="40.82839" lon="8.205285"><ele>58.5</ele><time>2026-04-19T08:43:56.496Z</time></trkpt><trkpt lat="40.8284167" lon="8.2051233"><ele>58.75</ele><time>2026-04-19T08:43:57.495Z</time></trkpt><trkpt lat="40.8284167" lon="8.2049533"><ele>59.0</ele><time>2026-04-19T08:43:58.496Z</time></trkpt><trkpt lat="40.8283983" lon="8.2047783"><ele>59.6</ele><time>2026-04-19T08:43:59.496Z</time></trkpt><trkpt lat="40.8283833" lon="8.2046117"><ele>60.2</ele><time>2026-04-19T08:44:00.495Z</time></trkpt><trkpt lat="40.82837" lon="8.2044567"><ele>60.800000000000004</ele><time>2026-04-19T08:44:01.496Z</time></trkpt><trkpt lat="40.8283533" lon="8.2043167"><ele>61.400000000000006</ele><time>2026-04-19T08:44:02.496Z</time></trkpt><trkpt lat="40.8283483" lon="8.2042017"><ele>62.0</ele><time>2026-04-19T08:44:03.495Z</time></trkpt><trkpt lat="40.8283433" lon="8.2040867"><ele>62.400000000000006</ele><time>2026-04-19T08:44:04.495Z</time></trkpt><trkpt lat="40.8283467" lon="8.2039683"><ele>62.800000000000004</ele><time>2026-04-19T08:44:05.495Z</time></trkpt><trkpt lat="40.8283483" lon="8.2038433"><ele>63.2</ele><time>2026-04-19T08:44:06.495Z</time></trkpt><trkpt lat="40.8283483" lon="8.2037183"><ele>63.6</ele><time>2026-04-19T08:44:07.495Z</time></trkpt><trkpt lat="40.8283533" lon="8.203585"><ele>64.0</ele><time>2026-04-19T08:44:08.496Z</time></trkpt><trkpt lat="40.82836" lon="8.2034533"><ele>64.0</ele><time>2026-04-19T08:44:09.496Z</time></trkpt><trkpt lat="40.8283767" lon="8.2033167"><ele>64.0</ele><time>2026-04-19T08:44:10.495Z</time></trkpt><trkpt lat="40.8283917" lon="8.2031867"><ele>64.0</ele><time>2026-04-19T08:44:11.495Z</time></trkpt><trkpt lat="40.8284067" lon="8.2030517"><ele>64.0</ele><time>2026-04-19T08:44:12.495Z</time></trkpt><trkpt lat="40.8284183" lon="8.2029017"><ele>64.0</ele><time>2026-04-19T08:44:13.496Z</time></trkpt><trkpt lat="40.8284217" lon="8.202755"><ele>64.5</ele><time>2026-04-19T08:44:14.496Z</time></trkpt><trkpt lat="40.8284167" lon="8.2026083"><ele>65.0</ele><time>2026-04-19T08:44:15.495Z</time></trkpt><trkpt lat="40.8284133" lon="8.2024533"><ele>65.5</ele><time>2026-04-19T08:44:16.496Z</time></trkpt><trkpt lat="40.8284117" lon="8.202295"><ele>66.0</ele><time>2026-04-19T08:44:17.495Z</time></trkpt><trkpt lat="40.8284133" lon="8.2021367"><ele>66.16666666666667</ele><time>2026-04-19T08:44:18.496Z</time></trkpt><trkpt lat="40.8284133" lon="8.20199"><ele>66.33333333333333</ele><time>2026-04-19T08:44:19.496Z</time></trkpt><trkpt lat="40.8284067" lon="8.2018483"><ele>66.5</ele><time>2026-04-19T08:44:20.496Z</time></trkpt><trkpt lat="40.8283767" lon="8.20174"><ele>66.66666666666666</ele><time>2026-04-19T08:44:21.496Z</time></trkpt><trkpt lat="40.8283383" lon="8.20167"><ele>66.83333333333333</ele><time>2026-04-19T08:44:22.496Z</time></trkpt><trkpt lat="40.8282817" lon="8.2016217"><ele>67.0</ele><time>2026-04-19T08:44:23.495Z</time></trkpt><trkpt lat="40.8282067" lon="8.20159"><ele>67.0</ele><time>2026-04-19T08:44:24.495Z</time></trkpt><trkpt lat="40.8281367" lon="8.2015617"><ele>67.0</ele><time>2026-04-19T08:44:25.495Z</time></trkpt><trkpt lat="40.828075" lon="8.201525"><ele>67.0</ele><time>2026-04-19T08:44:26.495Z</time></trkpt><trkpt lat="40.8279733" lon="8.2014033"><ele>67.0</ele><time>2026-04-19T08:44:28.495Z</time></trkpt><trkpt lat="40.8279233" lon="8.2013333"><ele>67.0</ele><time>2026-04-19T08:44:29.495Z</time></trkpt><trkpt lat="40.827875" lon="8.20126"><ele>67.0</ele><time>2026-04-19T08:44:30.495Z</time></trkpt><trkpt lat="40.82782" lon="8.2011867"><ele>66.83333333333333</ele><time>2026-04-19T08:44:31.495Z</time></trkpt><trkpt lat="40.827765" lon="8.2011033"><ele>66.66666666666666</ele><time>2026-04-19T08:44:32.495Z</time></trkpt><trkpt lat="40.8277083" lon="8.2010267"><ele>66.5</ele><time>2026-04-19T08:44:33.495Z</time></trkpt><trkpt lat="40.8276583" lon="8.2009533"><ele>66.33333333333333</ele><time>2026-04-19T08:44:34.495Z</time></trkpt><trkpt lat="40.82761" lon="8.2008833"><ele>66.16666666666667</ele><time>2026-04-19T08:44:35.495Z</time></trkpt><trkpt lat="40.8275567" lon="8.200815"><ele>66.0</ele><time>2026-04-19T08:44:36.496Z</time></trkpt><trkpt lat="40.8275" lon="8.2007533"><ele>65.71428571428571</ele><time>2026-04-19T08:44:37.495Z</time></trkpt><trkpt lat="40.8274417" lon="8.2006917"><ele>65.42857142857143</ele><time>2026-04-19T08:44:38.495Z</time></trkpt><trkpt lat="40.8273867" lon="8.2006317"><ele>65.14285714285714</ele><time>2026-04-19T08:44:39.495Z</time></trkpt><trkpt lat="40.827335" lon="8.2005717"><ele>64.85714285714286</ele><time>2026-04-19T08:44:40.495Z</time></trkpt><trkpt lat="40.82728" lon="8.2004983"><ele>64.57142857142857</ele><time>2026-04-19T08:44:41.495Z</time></trkpt><trkpt lat="40.8272283" lon="8.2004267"><ele>64.28571428571428</ele><time>2026-04-19T08:44:42.495Z</time></trkpt><trkpt lat="40.8271833" lon="8.2003517"><ele>64.0</ele><time>2026-04-19T08:44:43.496Z</time></trkpt><trkpt lat="40.8271267" lon="8.2002717"><ele>63.99999999999999</ele><time>2026-04-19T08:44:44.495Z</time></trkpt><trkpt lat="40.8270717" lon="8.2002017"><ele>64.0</ele><time>2026-04-19T08:44:45.496Z</time></trkpt><trkpt lat="40.8270167" lon="8.2001317"><ele>64.0</ele><time>2026-04-19T08:44:46.495Z</time></trkpt><trkpt lat="40.826965" lon="8.2000633"><ele>64.0</ele><time>2026-04-19T08:44:47.496Z</time></trkpt><trkpt lat="40.8269067" lon="8.199995"><ele>63.99999999999999</ele><time>2026-04-19T08:44:48.496Z</time></trkpt><trkpt lat="40.82685" lon="8.1999267"><ele>64.0</ele><time>2026-04-19T08:44:49.496Z</time></trkpt><trkpt lat="40.82679" lon="8.1998567"><ele>64.16666666666666</ele><time>2026-04-19T08:44:50.496Z</time></trkpt><trkpt lat="40.8267367" lon="8.199785"><ele>64.33333333333333</ele><time>2026-04-19T08:44:51.495Z</time></trkpt><trkpt lat="40.826685" lon="8.1997067"><ele>64.5</ele><time>2026-04-19T08:44:52.496Z</time></trkpt><trkpt lat="40.826635" lon="8.19963"><ele>64.66666666666667</ele><time>2026-04-19T08:44:53.496Z</time></trkpt><trkpt lat="40.8265783" lon="8.19955"><ele>64.83333333333334</ele><time>2026-04-19T08:44:54.495Z</time></trkpt><trkpt lat="40.8265217" lon="8.199465"><ele>65.0</ele><time>2026-04-19T08:44:55.495Z</time></trkpt><trkpt lat="40.8264533" lon="8.19938"><ele>65.0</ele><time>2026-04-19T08:44:56.495Z</time></trkpt><trkpt lat="40.8263767" lon="8.1992867"><ele>65.0</ele><time>2026-04-19T08:44:57.495Z</time></trkpt><trkpt lat="40.8262967" lon="8.1991933"><ele>65.0</ele><time>2026-04-19T08:44:58.495Z</time></trkpt><trkpt lat="40.8262083" lon="8.1990967"><ele>65.0</ele><time>2026-04-19T08:44:59.495Z</time></trkpt><trkpt lat="40.8261267" lon="8.1990033"><ele>65.0</ele><time>2026-04-19T08:45:00.495Z</time></trkpt><trkpt lat="40.8260467" lon="8.198895"><ele>64.5</ele><time>2026-04-19T08:45:01.496Z</time></trkpt><trkpt lat="40.8259583" lon="8.198775"><ele>64.0</ele><time>2026-04-19T08:45:02.495Z</time></trkpt><trkpt lat="40.8258683" lon="8.1986533"><ele>63.5</ele><time>2026-04-19T08:45:03.496Z</time></trkpt><trkpt lat="40.8257767" lon="8.1985167"><ele>63.0</ele><time>2026-04-19T08:45:04.495Z</time></trkpt><trkpt lat="40.8256917" lon="8.1983983"><ele>63.0</ele><time>2026-04-19T08:45:05.495Z</time></trkpt><trkpt lat="40.8256133" lon="8.1982867"><ele>63.0</ele><time>2026-04-19T08:45:06.496Z</time></trkpt><trkpt lat="40.8255383" lon="8.1981933"><ele>63.0</ele><time>2026-04-19T08:45:07.496Z</time></trkpt><trkpt lat="40.8254667" lon="8.198105"><ele>63.0</ele><time>2026-04-19T08:45:08.496Z</time></trkpt><trkpt lat="40.8254033" lon="8.1980233"><ele>63.0</ele><time>2026-04-19T08:45:09.495Z</time></trkpt><trkpt lat="40.8253383" lon="8.1979383"><ele>63.599999999999994</ele><time>2026-04-19T08:45:10.496Z</time></trkpt><trkpt lat="40.8252767" lon="8.1978567"><ele>64.19999999999999</ele><time>2026-04-19T08:45:11.495Z</time></trkpt><trkpt lat="40.82521" lon="8.1977583"><ele>64.8</ele><time>2026-04-19T08:45:12.495Z</time></trkpt><trkpt lat="40.82514" lon="8.197655"><ele>65.39999999999999</ele><time>2026-04-19T08:45:13.495Z</time></trkpt><trkpt lat="40.8250733" lon="8.19754"><ele>66.0</ele><time>2026-04-19T08:45:14.496Z</time></trkpt><trkpt lat="40.8250167" lon="8.1974267"><ele>65.83333333333333</ele><time>2026-04-19T08:45:15.495Z</time></trkpt><trkpt lat="40.82498" lon="8.1973133"><ele>65.66666666666667</ele><time>2026-04-19T08:45:16.495Z</time></trkpt><trkpt lat="40.824955" lon="8.1971983"><ele>65.5</ele><time>2026-04-19T08:45:17.496Z</time></trkpt><trkpt lat="40.82494" lon="8.1970833"><ele>65.33333333333334</ele><time>2026-04-19T08:45:18.496Z</time></trkpt><trkpt lat="40.8249317" lon="8.19698"><ele>65.16666666666667</ele><time>2026-04-19T08:45:19.495Z</time></trkpt><trkpt lat="40.82492" lon="8.1968867"><ele>65.0</ele><time>2026-04-19T08:45:20.496Z</time></trkpt><trkpt lat="40.82487" lon="8.1967433"><ele>65.0</ele><time>2026-04-19T08:45:22.495Z</time></trkpt><trkpt lat="40.8248133" lon="8.1966067"><ele>65.0</ele><time>2026-04-19T08:45:24.495Z</time></trkpt><trkpt lat="40.8247767" lon="8.1964967"><ele>65.0</ele><time>2026-04-19T08:45:26.495Z</time></trkpt><trkpt lat="40.824815" lon="8.196415"><ele>65.0</ele><time>2026-04-19T08:45:28.496Z</time></trkpt><trkpt lat="40.8249033" lon="8.1963467"><ele>65.0</ele><time>2026-04-19T08:45:30.495Z</time></trkpt><trkpt lat="40.82495" lon="8.1962233"><ele>64.4</ele><time>2026-04-19T08:45:32.495Z</time></trkpt><trkpt lat="40.8249633" lon="8.1960617"><ele>63.8</ele><time>2026-04-19T08:45:34.495Z</time></trkpt><trkpt lat="40.8249767" lon="8.1959767"><ele>63.2</ele><time>2026-04-19T08:45:35.495Z</time></trkpt><trkpt lat="40.8249917" lon="8.1958717"><ele>62.6</ele><time>2026-04-19T08:45:36.495Z</time></trkpt><trkpt lat="40.8250133" lon="8.195655"><ele>62.0</ele><time>2026-04-19T08:45:38.495Z</time></trkpt><trkpt lat="40.825015" lon="8.19557"><ele>62.0</ele><time>2026-04-19T08:45:39.496Z</time></trkpt><trkpt lat="40.825005" lon="8.1954417"><ele>62.0</ele><time>2026-04-19T08:45:41.495Z</time></trkpt><trkpt lat="40.8249333" lon="8.1953083"><ele>62.0</ele><time>2026-04-19T08:45:43.495Z</time></trkpt><trkpt lat="40.8248633" lon="8.1952433"><ele>62.0</ele><time>2026-04-19T08:45:44.496Z</time></trkpt><trkpt lat="40.8247783" lon="8.1951833"><ele>62.0</ele><time>2026-04-19T08:45:45.495Z</time></trkpt><trkpt lat="40.8246833" lon="8.19511"><ele>62.0</ele><time>2026-04-19T08:45:46.496Z</time></trkpt><trkpt lat="40.824595" lon="8.1950467"><ele>62.0</ele><time>2026-04-19T08:45:47.496Z</time></trkpt><trkpt lat="40.824465" lon="8.1949367"><ele>62.0</ele><time>2026-04-19T08:45:49.495Z</time></trkpt><trkpt lat="40.8244133" lon="8.1948767"><ele>62.0</ele><time>2026-04-19T08:45:50.495Z</time></trkpt><trkpt lat="40.82437" lon="8.19481"><ele>62.0</ele><time>2026-04-19T08:45:51.496Z</time></trkpt><trkpt lat="40.8243267" lon="8.1946683"><ele>63.66666666666667</ele><time>2026-04-19T08:45:53.495Z</time></trkpt><trkpt lat="40.82431" lon="8.194535"><ele>65.33333333333334</ele><time>2026-04-19T08:45:55.495Z</time></trkpt><trkpt lat="40.8243067" lon="8.194425"><ele>67.0</ele><time>2026-04-19T08:45:57.496Z</time></trkpt><trkpt lat="40.824305" lon="8.1943217"><ele>68.66666666666667</ele><time>2026-04-19T08:46:00.495Z</time></trkpt><trkpt lat="40.8243367" lon="8.1942417"><ele>70.33333333333333</ele><time>2026-04-19T08:46:04.495Z</time></trkpt><trkpt lat="40.8242633" lon="8.1941767"><ele>72.0</ele><time>2026-04-19T09:06:31.492Z</time></trkpt><trkpt lat="40.82423" lon="8.1940667"><ele>71.25</ele><time>2026-04-19T09:06:34.492Z</time></trkpt><trkpt lat="40.8242233" lon="8.1939483"><ele>70.5</ele><time>2026-04-19T09:06:36.493Z</time></trkpt><trkpt lat="40.8242367" lon="8.1937733"><ele>69.75</ele><time>2026-04-19T09:06:38.492Z</time></trkpt><trkpt lat="40.8242467" lon="8.19359"><ele>69.0</ele><time>2026-04-19T09:06:40.493Z</time></trkpt><trkpt lat="40.82421" lon="8.19344"><ele>69.0</ele><time>2026-04-19T09:06:42.493Z</time></trkpt><trkpt lat="40.8241783" lon="8.1933"><ele>69.0</ele><time>2026-04-19T09:06:44.492Z</time></trkpt><trkpt lat="40.8241867" lon="8.1931667"><ele>69.0</ele><time>2026-04-19T09:06:46.492Z</time></trkpt><trkpt lat="40.8241917" lon="8.1930317"><ele>69.0</ele><time>2026-04-19T09:06:48.493Z</time></trkpt><trkpt lat="40.8241317" lon="8.1929083"><ele>69.0</ele><time>2026-04-19T09:06:51.493Z</time></trkpt><trkpt lat="40.82404" lon="8.19289"><ele>66.5</ele><time>2026-04-19T09:06:53.492Z</time></trkpt><trkpt lat="40.8239317" lon="8.1928867"><ele>64.0</ele><time>2026-04-19T09:06:55.492Z</time></trkpt><trkpt lat="40.8238183" lon="8.192905"><ele>61.5</ele><time>2026-04-19T09:06:57.492Z</time></trkpt><trkpt lat="40.8237067" lon="8.1929083"><ele>59.0</ele><time>2026-04-19T09:06:59.493Z</time></trkpt><trkpt lat="40.8235483" lon="8.1928717"><ele>58.333333333333336</ele><time>2026-04-19T09:07:02.492Z</time></trkpt><trkpt lat="40.823455" lon="8.1928717"><ele>57.66666666666667</ele><time>2026-04-19T09:07:04.492Z</time></trkpt><trkpt lat="40.8233917" lon="8.1929417"><ele>57.0</ele><time>2026-04-19T09:07:06.492Z</time></trkpt><trkpt lat="40.8233717" lon="8.193055"><ele>56.33333333333333</ele><time>2026-04-19T09:07:08.492Z</time></trkpt><trkpt lat="40.8233283" lon="8.1931517"><ele>55.666666666666664</ele><time>2026-04-19T09:07:10.492Z</time></trkpt><trkpt lat="40.8232317" lon="8.19315"><ele>55.0</ele><time>2026-04-19T09:07:12.492Z</time></trkpt><trkpt lat="40.8230833" lon="8.1930967"><ele>55.0</ele><time>2026-04-19T09:07:15.492Z</time></trkpt><trkpt lat="40.82296" lon="8.1930417"><ele>55.0</ele><time>2026-04-19T09:07:18.492Z</time></trkpt><trkpt lat="40.8228667" lon="8.193035"><ele>55.0</ele><time>2026-04-19T09:07:20.492Z</time></trkpt><trkpt lat="40.8227417" lon="8.1930917"><ele>55.0</ele><time>2026-04-19T09:07:22.493Z</time></trkpt><trkpt lat="40.82267" lon="8.193115"><ele>55.0</ele><time>2026-04-19T09:07:23.493Z</time></trkpt><trkpt lat="40.8225917" lon="8.193135"><ele>53.0</ele><time>2026-04-19T09:07:24.493Z</time></trkpt><trkpt lat="40.8225083" lon="8.1931533"><ele>51.0</ele><time>2026-04-19T09:07:25.492Z</time></trkpt><trkpt lat="40.8224417" lon="8.1931633"><ele>49.0</ele><time>2026-04-19T09:07:26.492Z</time></trkpt><trkpt lat="40.8223633" lon="8.193165"><ele>47.0</ele><time>2026-04-19T09:07:29.493Z</time></trkpt><trkpt lat="40.8222633" lon="8.1931267"><ele>45.0</ele><time>2026-04-19T09:07:51.493Z</time></trkpt><trkpt lat="40.8221517" lon="8.1930633"><ele>45.0</ele><time>2026-04-19T09:07:53.492Z</time></trkpt><trkpt lat="40.8220867" lon="8.19303"><ele>45.0</ele><time>2026-04-19T09:07:54.492Z</time></trkpt><trkpt lat="40.8219767" lon="8.192995"><ele>45.0</ele><time>2026-04-19T09:07:56.493Z</time></trkpt><trkpt lat="40.82188" lon="8.1930217"><ele>45.0</ele><time>2026-04-19T09:07:58.493Z</time></trkpt><trkpt lat="40.8218167" lon="8.1931683"><ele>45.0</ele><time>2026-04-19T09:08:00.492Z</time></trkpt><trkpt lat="40.8217833" lon="8.1933817"><ele>49.2</ele><time>2026-04-19T09:08:02.492Z</time></trkpt><trkpt lat="40.8217667" lon="8.1934667"><ele>53.4</ele><time>2026-04-19T09:08:03.492Z</time></trkpt><trkpt lat="40.8217467" lon="8.1936067"><ele>57.599999999999994</ele><time>2026-04-19T09:08:05.492Z</time></trkpt><trkpt lat="40.8216933" lon="8.193705"><ele>61.8</ele><time>2026-04-19T09:08:07.493Z</time></trkpt><trkpt lat="40.8216167" lon="8.1937367"><ele>66.0</ele><time>2026-04-19T09:08:09.493Z</time></trkpt><trkpt lat="40.8214983" lon="8.19366"><ele>66.0</ele><time>2026-04-19T09:08:11.493Z</time></trkpt><trkpt lat="40.8214317" lon="8.1935917"><ele>66.0</ele><time>2026-04-19T09:08:12.492Z</time></trkpt><trkpt lat="40.8213533" lon="8.193515"><ele>66.0</ele><time>2026-04-19T09:08:13.492Z</time></trkpt><trkpt lat="40.821265" lon="8.193445"><ele>66.0</ele><time>2026-04-19T09:08:14.492Z</time></trkpt><trkpt lat="40.82117" lon="8.193385"><ele>66.0</ele><time>2026-04-19T09:08:15.492Z</time></trkpt><trkpt lat="40.8210683" lon="8.19334"><ele>66.0</ele><time>2026-04-19T09:08:16.493Z</time></trkpt><trkpt lat="40.82095" lon="8.1933083"><ele>66.0</ele><time>2026-04-19T09:08:17.493Z</time></trkpt><trkpt lat="40.8208333" lon="8.19328"><ele>66.0</ele><time>2026-04-19T09:08:18.493Z</time></trkpt><trkpt lat="40.82072" lon="8.1932533"><ele>66.0</ele><time>2026-04-19T09:08:19.492Z</time></trkpt><trkpt lat="40.8206183" lon="8.1932117"><ele>65.6</ele><time>2026-04-19T09:08:20.493Z</time></trkpt><trkpt lat="40.8205167" lon="8.1931683"><ele>65.19999999999999</ele><time>2026-04-19T09:08:21.492Z</time></trkpt><trkpt lat="40.82041" lon="8.1931133"><ele>64.80000000000001</ele><time>2026-04-19T09:08:22.492Z</time></trkpt><trkpt lat="40.8203083" lon="8.1930633"><ele>64.4</ele><time>2026-04-19T09:08:23.492Z</time></trkpt><trkpt lat="40.8202133" lon="8.193015"><ele>64.0</ele><time>2026-04-19T09:08:24.492Z</time></trkpt><trkpt lat="40.8201367" lon="8.1929767"><ele>65.33333333333333</ele><time>2026-04-19T09:08:25.493Z</time></trkpt><trkpt lat="40.820075" lon="8.192935"><ele>66.66666666666666</ele><time>2026-04-19T09:08:26.492Z</time></trkpt><trkpt lat="40.81999" lon="8.1928717"><ele>68.0</ele><time>2026-04-19T09:08:28.493Z</time></trkpt><trkpt lat="40.8199083" lon="8.1928117"><ele>69.33333333333333</ele><time>2026-04-19T09:08:44.492Z</time></trkpt><trkpt lat="40.81983" lon="8.192715"><ele>70.66666666666667</ele><time>2026-04-19T09:08:46.493Z</time></trkpt><trkpt lat="40.81978" lon="8.1926517"><ele>72.0</ele><time>2026-04-19T09:08:47.493Z</time></trkpt><trkpt lat="40.8197233" lon="8.1925767"><ele>72.0</ele><time>2026-04-19T09:08:48.492Z</time></trkpt><trkpt lat="40.8196683" lon="8.192495"><ele>72.0</ele><time>2026-04-19T09:08:49.492Z</time></trkpt><trkpt lat="40.819605" lon="8.1924167"><ele>72.0</ele><time>2026-04-19T09:08:50.492Z</time></trkpt><trkpt lat="40.81954" lon="8.19234"><ele>72.0</ele><time>2026-04-19T09:08:51.493Z</time></trkpt><trkpt lat="40.8194733" lon="8.1922683"><ele>72.0</ele><time>2026-04-19T09:08:52.492Z</time></trkpt><trkpt lat="40.8194067" lon="8.1922167"><ele>72.0</ele><time>2026-04-19T09:08:53.492Z</time></trkpt><trkpt lat="40.819335" lon="8.1921933"><ele>72.5</ele><time>2026-04-19T09:08:54.492Z</time></trkpt><trkpt lat="40.8192583" lon="8.1921767"><ele>73.0</ele><time>2026-04-19T09:08:55.493Z</time></trkpt><trkpt lat="40.8191783" lon="8.1921783"><ele>73.5</ele><time>2026-04-19T09:08:56.492Z</time></trkpt><trkpt lat="40.8190867" lon="8.1921883"><ele>74.0</ele><time>2026-04-19T09:08:57.492Z</time></trkpt><trkpt lat="40.8189933" lon="8.1922017"><ele>74.5</ele><time>2026-04-19T09:08:58.492Z</time></trkpt><trkpt lat="40.8189033" lon="8.1922167"><ele>75.0</ele><time>2026-04-19T09:08:59.493Z</time></trkpt><trkpt lat="40.818825" lon="8.19223"><ele>75.0</ele><time>2026-04-19T09:09:00.493Z</time></trkpt><trkpt lat="40.818705" lon="8.192215"><ele>75.0</ele><time>2026-04-19T09:09:02.492Z</time></trkpt><trkpt lat="40.8186433" lon="8.1921867"><ele>75.0</ele><time>2026-04-19T09:09:03.493Z</time></trkpt><trkpt lat="40.818585" lon="8.1921383"><ele>75.0</ele><time>2026-04-19T09:09:04.492Z</time></trkpt><trkpt lat="40.8185167" lon="8.1920867"><ele>75.0</ele><time>2026-04-19T09:09:05.493Z</time></trkpt><trkpt lat="40.8184433" lon="8.1920483"><ele>75.0</ele><time>2026-04-19T09:09:06.493Z</time></trkpt><trkpt lat="40.8183717" lon="8.192035"><ele>75.33333333333333</ele><time>2026-04-19T09:09:07.493Z</time></trkpt><trkpt lat="40.8182933" lon="8.192035"><ele>75.66666666666667</ele><time>2026-04-19T09:09:08.492Z</time></trkpt><trkpt lat="40.818205" lon="8.192045"><ele>76.0</ele><time>2026-04-19T09:09:09.492Z</time></trkpt><trkpt lat="40.8181217" lon="8.1920567"><ele>76.33333333333334</ele><time>2026-04-19T09:09:10.493Z</time></trkpt><trkpt lat="40.8180383" lon="8.1920683"><ele>76.66666666666667</ele><time>2026-04-19T09:09:11.492Z</time></trkpt><trkpt lat="40.817955" lon="8.1920817"><ele>77.0</ele><time>2026-04-19T09:09:12.493Z</time></trkpt><trkpt lat="40.8178767" lon="8.1920883"><ele>77.0</ele><time>2026-04-19T09:09:13.493Z</time></trkpt><trkpt lat="40.8178083" lon="8.1920933"><ele>77.0</ele><time>2026-04-19T09:09:14.492Z</time></trkpt><trkpt lat="40.817745" lon="8.1920867"><ele>77.0</ele><time>2026-04-19T09:09:15.492Z</time></trkpt><trkpt lat="40.81764" lon="8.192"><ele>77.0</ele><time>2026-04-19T09:09:17.492Z</time></trkpt><trkpt lat="40.817595" lon="8.1919217"><ele>77.0</ele><time>2026-04-19T09:09:18.492Z</time></trkpt><trkpt lat="40.8175567" lon="8.1918267"><ele>77.0</ele><time>2026-04-19T09:09:19.493Z</time></trkpt><trkpt lat="40.81752" lon="8.19171"><ele>77.0</ele><time>2026-04-19T09:09:20.492Z</time></trkpt><trkpt lat="40.8174733" lon="8.191585"><ele>77.0</ele><time>2026-04-19T09:09:21.492Z</time></trkpt><trkpt lat="40.8174283" lon="8.1914567"><ele>77.0</ele><time>2026-04-19T09:09:22.493Z</time></trkpt><trkpt lat="40.817385" lon="8.1913283"><ele>77.0</ele><time>2026-04-19T09:09:23.492Z</time></trkpt><trkpt lat="40.8173417" lon="8.1912"><ele>77.0</ele><time>2026-04-19T09:09:24.492Z</time></trkpt><trkpt lat="40.8173033" lon="8.191085"><ele>77.0</ele><time>2026-04-19T09:09:25.493Z</time></trkpt><trkpt lat="40.817265" lon="8.1909667"><ele>77.0</ele><time>2026-04-19T09:09:26.493Z</time></trkpt><trkpt lat="40.8172217" lon="8.1908383"><ele>77.0</ele><time>2026-04-19T09:09:27.493Z</time></trkpt><trkpt lat="40.8171767" lon="8.190705"><ele>77.0</ele><time>2026-04-19T09:09:28.493Z</time></trkpt><trkpt lat="40.8171317" lon="8.1905733"><ele>77.0</ele><time>2026-04-19T09:09:29.493Z</time></trkpt><trkpt lat="40.81709" lon="8.19043"><ele>77.75</ele><time>2026-04-19T09:09:30.492Z</time></trkpt><trkpt lat="40.8170433" lon="8.1902783"><ele>78.5</ele><time>2026-04-19T09:09:31.492Z</time></trkpt><trkpt lat="40.81699" lon="8.1901233"><ele>79.25</ele><time>2026-04-19T09:09:32.493Z</time></trkpt><trkpt lat="40.8169383" lon="8.1899633"><ele>80.0</ele><time>2026-04-19T09:09:33.492Z</time></trkpt><trkpt lat="40.8168867" lon="8.189805"><ele>80.0</ele><time>2026-04-19T09:09:34.492Z</time></trkpt><trkpt lat="40.8168467" lon="8.189645"><ele>80.0</ele><time>2026-04-19T09:09:35.493Z</time></trkpt><trkpt lat="40.8167983" lon="8.1894983"><ele>80.0</ele><time>2026-04-19T09:09:36.493Z</time></trkpt><trkpt lat="40.8167483" lon="8.1893467"><ele>80.0</ele><time>2026-04-19T09:09:37.493Z</time></trkpt><trkpt lat="40.816705" lon="8.1892"><ele>79.0</ele><time>2026-04-19T09:09:38.493Z</time></trkpt><trkpt lat="40.816665" lon="8.189065"><ele>78.0</ele><time>2026-04-19T09:09:39.492Z</time></trkpt><trkpt lat="40.8166283" lon="8.18895"><ele>77.0</ele><time>2026-04-19T09:09:40.492Z</time></trkpt><trkpt lat="40.8165933" lon="8.188845"><ele>76.0</ele><time>2026-04-19T09:09:41.492Z</time></trkpt><trkpt lat="40.8165567" lon="8.1887767"><ele>75.0</ele><time>2026-04-19T09:09:42.492Z</time></trkpt><trkpt lat="40.8164667" lon="8.1887333"><ele>75.0</ele><time>2026-04-19T09:09:44.492Z</time></trkpt><trkpt lat="40.8164067" lon="8.18878"><ele>75.0</ele><time>2026-04-19T09:09:45.493Z</time></trkpt><trkpt lat="40.8163333" lon="8.188845"><ele>75.0</ele><time>2026-04-19T09:09:46.493Z</time></trkpt><trkpt lat="40.8162533" lon="8.1889283"><ele>75.0</ele><time>2026-04-19T09:09:47.492Z</time></trkpt><trkpt lat="40.8161717" lon="8.1890133"><ele>75.0</ele><time>2026-04-19T09:09:48.492Z</time></trkpt><trkpt lat="40.8160867" lon="8.1891017"><ele>75.0</ele><time>2026-04-19T09:09:49.493Z</time></trkpt><trkpt lat="40.8160133" lon="8.1891683"><ele>75.0</ele><time>2026-04-19T09:09:50.493Z</time></trkpt><trkpt lat="40.8159367" lon="8.1892167"><ele>75.0</ele><time>2026-04-19T09:09:51.492Z</time></trkpt><trkpt lat="40.815855" lon="8.1892617"><ele>75.0</ele><time>2026-04-19T09:09:52.492Z</time></trkpt><trkpt lat="40.81577" lon="8.1893017"><ele>75.0</ele><time>2026-04-19T09:09:53.492Z</time></trkpt><trkpt lat="40.8156833" lon="8.189345"><ele>75.0</ele><time>2026-04-19T09:09:54.493Z</time></trkpt><trkpt lat="40.8155917" lon="8.1893867"><ele>74.6</ele><time>2026-04-19T09:09:55.492Z</time></trkpt><trkpt lat="40.8154933" lon="8.1894267"><ele>74.2</ele><time>2026-04-19T09:09:56.492Z</time></trkpt><trkpt lat="40.8153917" lon="8.189465"><ele>73.8</ele><time>2026-04-19T09:09:57.492Z</time></trkpt><trkpt lat="40.8152833" lon="8.1895067"><ele>73.4</ele><time>2026-04-19T09:09:58.493Z</time></trkpt><trkpt lat="40.8151717" lon="8.1895483"><ele>73.0</ele><time>2026-04-19T09:09:59.492Z</time></trkpt><trkpt lat="40.8150617" lon="8.1895883"><ele>72.6</ele><time>2026-04-19T09:10:00.493Z</time></trkpt><trkpt lat="40.814955" lon="8.1896267"><ele>72.19999999999999</ele><time>2026-04-19T09:10:01.492Z</time></trkpt><trkpt lat="40.8148583" lon="8.1896717"><ele>71.8</ele><time>2026-04-19T09:10:02.493Z</time></trkpt><trkpt lat="40.8147617" lon="8.18971"><ele>71.39999999999999</ele><time>2026-04-19T09:10:03.493Z</time></trkpt><trkpt lat="40.8146617" lon="8.18975"><ele>71.0</ele><time>2026-04-19T09:10:04.492Z</time></trkpt><trkpt lat="40.8145733" lon="8.1897817"><ele>71.0</ele><time>2026-04-19T09:10:05.492Z</time></trkpt><trkpt lat="40.8144833" lon="8.1898033"><ele>71.0</ele><time>2026-04-19T09:10:06.493Z</time></trkpt><trkpt lat="40.8144017" lon="8.1898317"><ele>71.0</ele><time>2026-04-19T09:10:07.492Z</time></trkpt><trkpt lat="40.8143217" lon="8.18987"><ele>71.0</ele><time>2026-04-19T09:10:08.492Z</time></trkpt><trkpt lat="40.8142367" lon="8.1899217"><ele>71.0</ele><time>2026-04-19T09:10:09.492Z</time></trkpt><trkpt lat="40.8141617" lon="8.1900017"><ele>71.8</ele><time>2026-04-19T09:10:10.492Z</time></trkpt><trkpt lat="40.8140867" lon="8.1900967"><ele>72.6</ele><time>2026-04-19T09:10:11.493Z</time></trkpt><trkpt lat="40.814015" lon="8.1902"><ele>73.4</ele><time>2026-04-19T09:10:12.492Z</time></trkpt><trkpt lat="40.8139467" lon="8.1902983"><ele>74.2</ele><time>2026-04-19T09:10:13.493Z</time></trkpt><trkpt lat="40.813875" lon="8.190395"><ele>75.0</ele><time>2026-04-19T09:10:14.493Z</time></trkpt><trkpt lat="40.8137983" lon="8.1904867"><ele>75.0</ele><time>2026-04-19T09:10:15.493Z</time></trkpt><trkpt lat="40.8137233" lon="8.1905733"><ele>75.0</ele><time>2026-04-19T09:10:16.493Z</time></trkpt><trkpt lat="40.813655" lon="8.1906567"><ele>75.0</ele><time>2026-04-19T09:10:17.492Z</time></trkpt><trkpt lat="40.813585" lon="8.190725"><ele>75.0</ele><time>2026-04-19T09:10:18.493Z</time></trkpt><trkpt lat="40.8135133" lon="8.1907817"><ele>75.0</ele><time>2026-04-19T09:10:19.493Z</time></trkpt><trkpt lat="40.8134467" lon="8.1908433"><ele>75.0</ele><time>2026-04-19T09:10:20.493Z</time></trkpt><trkpt lat="40.813385" lon="8.1909183"><ele>74.4</ele><time>2026-04-19T09:10:21.492Z</time></trkpt><trkpt lat="40.8133283" lon="8.1910083"><ele>73.8</ele><time>2026-04-19T09:10:22.492Z</time></trkpt><trkpt lat="40.813275" lon="8.1911217"><ele>73.2</ele><time>2026-04-19T09:10:23.493Z</time></trkpt><trkpt lat="40.813225" lon="8.1912417"><ele>72.6</ele><time>2026-04-19T09:10:24.492Z</time></trkpt><trkpt lat="40.8131717" lon="8.19136"><ele>72.0</ele><time>2026-04-19T09:10:25.492Z</time></trkpt><trkpt lat="40.8131233" lon="8.1914867"><ele>71.8</ele><time>2026-04-19T09:10:26.492Z</time></trkpt><trkpt lat="40.81308" lon="8.1916133"><ele>71.6</ele><time>2026-04-19T09:10:27.492Z</time></trkpt><trkpt lat="40.8130433" lon="8.1917433"><ele>71.39999999999999</ele><time>2026-04-19T09:10:28.492Z</time></trkpt><trkpt lat="40.8130117" lon="8.1918717"><ele>71.2</ele><time>2026-04-19T09:10:29.493Z</time></trkpt><trkpt lat="40.8129833" lon="8.1919967"><ele>71.0</ele><time>2026-04-19T09:10:30.493Z</time></trkpt><trkpt lat="40.8129533" lon="8.19212"><ele>71.0</ele><time>2026-04-19T09:10:31.493Z</time></trkpt><trkpt lat="40.812925" lon="8.192235"><ele>71.0</ele><time>2026-04-19T09:10:32.492Z</time></trkpt><trkpt lat="40.8128867" lon="8.1923533"><ele>71.0</ele><time>2026-04-19T09:10:33.492Z</time></trkpt><trkpt lat="40.8128433" lon="8.1924733"><ele>71.0</ele><time>2026-04-19T09:10:34.492Z</time></trkpt><trkpt lat="40.8128033" lon="8.192585"><ele>71.0</ele><time>2026-04-19T09:10:35.493Z</time></trkpt><trkpt lat="40.81276" lon="8.1926867"><ele>71.39999999999999</ele><time>2026-04-19T09:10:36.492Z</time></trkpt><trkpt lat="40.8127067" lon="8.1927883"><ele>71.8</ele><time>2026-04-19T09:10:37.493Z</time></trkpt><trkpt lat="40.8126433" lon="8.192885"><ele>72.19999999999999</ele><time>2026-04-19T09:10:38.492Z</time></trkpt><trkpt lat="40.8125817" lon="8.1929783"><ele>72.6</ele><time>2026-04-19T09:10:39.492Z</time></trkpt><trkpt lat="40.81253" lon="8.1930683"><ele>73.0</ele><time>2026-04-19T09:10:40.492Z</time></trkpt><trkpt lat="40.81248" lon="8.193155"><ele>73.66666666666666</ele><time>2026-04-19T09:10:41.492Z</time></trkpt><trkpt lat="40.812425" lon="8.1932283"><ele>74.33333333333333</ele><time>2026-04-19T09:10:42.493Z</time></trkpt><trkpt lat="40.8123667" lon="8.1932867"><ele>75.0</ele><time>2026-04-19T09:10:43.493Z</time></trkpt><trkpt lat="40.8123067" lon="8.193335"><ele>75.66666666666667</ele><time>2026-04-19T09:10:44.493Z</time></trkpt><trkpt lat="40.812245" lon="8.193365"><ele>76.33333333333334</ele><time>2026-04-19T09:10:45.493Z</time></trkpt><trkpt lat="40.8121267" lon="8.1933967"><ele>77.0</ele><time>2026-04-19T09:10:47.493Z</time></trkpt><trkpt lat="40.812005" lon="8.19342"><ele>77.0</ele><time>2026-04-19T09:10:49.492Z</time></trkpt><trkpt lat="40.81194" lon="8.19344"><ele>77.0</ele><time>2026-04-19T09:10:50.492Z</time></trkpt><trkpt lat="40.8118317" lon="8.1934933"><ele>77.0</ele><time>2026-04-19T09:10:52.493Z</time></trkpt><trkpt lat="40.8117317" lon="8.193595"><ele>77.0</ele><time>2026-04-19T09:10:54.493Z</time></trkpt><trkpt lat="40.8116733" lon="8.1936517"><ele>77.0</ele><time>2026-04-19T09:10:55.492Z</time></trkpt><trkpt lat="40.8116033" lon="8.1936967"><ele>78.0</ele><time>2026-04-19T09:10:56.492Z</time></trkpt><trkpt lat="40.8115367" lon="8.1937367"><ele>79.0</ele><time>2026-04-19T09:10:57.492Z</time></trkpt><trkpt lat="40.8114617" lon="8.193775"><ele>80.0</ele><time>2026-04-19T09:10:58.493Z</time></trkpt><trkpt lat="40.8113967" lon="8.1938133"><ele>81.0</ele><time>2026-04-19T09:10:59.492Z</time></trkpt><trkpt lat="40.8113383" lon="8.1938517"><ele>82.0</ele><time>2026-04-19T09:11:00.492Z</time></trkpt><trkpt lat="40.8112283" lon="8.193915"><ele>83.0</ele><time>2026-04-19T09:11:02.492Z</time></trkpt><trkpt lat="40.8111683" lon="8.1939517"><ele>83.0</ele><time>2026-04-19T09:11:03.491Z</time></trkpt><trkpt lat="40.811105" lon="8.1939917"><ele>83.0</ele><time>2026-04-19T09:11:04.491Z</time></trkpt><trkpt lat="40.81104" lon="8.1940383"><ele>83.0</ele><time>2026-04-19T09:11:05.491Z</time></trkpt><trkpt lat="40.81097" lon="8.194075"><ele>83.0</ele><time>2026-04-19T09:11:06.492Z</time></trkpt><trkpt lat="40.8109067" lon="8.1941083"><ele>83.0</ele><time>2026-04-19T09:11:07.491Z</time></trkpt><trkpt lat="40.8108483" lon="8.1941483"><ele>83.0</ele><time>2026-04-19T09:11:08.492Z</time></trkpt><trkpt lat="40.810785" lon="8.1941833"><ele>83.0</ele><time>2026-04-19T09:11:09.492Z</time></trkpt><trkpt lat="40.810725" lon="8.1942167"><ele>83.2</ele><time>2026-04-19T09:11:10.491Z</time></trkpt><trkpt lat="40.81062" lon="8.1942367"><ele>83.4</ele><time>2026-04-19T09:11:12.491Z</time></trkpt><trkpt lat="40.8105233" lon="8.1942283"><ele>83.60000000000001</ele><time>2026-04-19T09:11:14.491Z</time></trkpt><trkpt lat="40.8104033" lon="8.1941867"><ele>83.80000000000001</ele><time>2026-04-19T09:11:16.492Z</time></trkpt><trkpt lat="40.810325" lon="8.1941633"><ele>84.0</ele><time>2026-04-19T09:11:17.492Z</time></trkpt><trkpt lat="40.8102467" lon="8.1941367"><ele>84.0</ele><time>2026-04-19T09:11:18.492Z</time></trkpt><trkpt lat="40.810165" lon="8.1941167"><ele>84.0</ele><time>2026-04-19T09:11:19.491Z</time></trkpt><trkpt lat="40.8100817" lon="8.1940983"><ele>84.0</ele><time>2026-04-19T09:11:20.491Z</time></trkpt><trkpt lat="40.8100017" lon="8.1940933"><ele>84.0</ele><time>2026-04-19T09:11:21.492Z</time></trkpt><trkpt lat="40.80992" lon="8.1940883"><ele>84.0</ele><time>2026-04-19T09:11:22.492Z</time></trkpt><trkpt lat="40.8098333" lon="8.1940683"><ele>84.0</ele><time>2026-04-19T09:11:23.492Z</time></trkpt><trkpt lat="40.809745" lon="8.194045"><ele>85.6</ele><time>2026-04-19T09:11:24.492Z</time></trkpt><trkpt lat="40.809655" lon="8.1940117"><ele>87.2</ele><time>2026-04-19T09:11:25.491Z</time></trkpt><trkpt lat="40.809565" lon="8.1939633"><ele>88.8</ele><time>2026-04-19T09:11:26.492Z</time></trkpt><trkpt lat="40.80947" lon="8.19391"><ele>90.39999999999999</ele><time>2026-04-19T09:11:27.491Z</time></trkpt><trkpt lat="40.8093817" lon="8.1938617"><ele>92.0</ele><time>2026-04-19T09:11:28.491Z</time></trkpt><trkpt lat="40.80929" lon="8.1938167"><ele>95.6</ele><time>2026-04-19T09:11:29.491Z</time></trkpt><trkpt lat="40.809195" lon="8.19378"><ele>99.19999999999999</ele><time>2026-04-19T09:11:30.492Z</time></trkpt><trkpt lat="40.8090967" lon="8.1937633"><ele>102.8</ele><time>2026-04-19T09:11:31.491Z</time></trkpt><trkpt lat="40.808995" lon="8.1937617"><ele>106.4</ele><time>2026-04-19T09:11:32.492Z</time></trkpt><trkpt lat="40.8089033" lon="8.19378"><ele>110.0</ele><time>2026-04-19T09:11:33.491Z</time></trkpt><trkpt lat="40.8088183" lon="8.1938"><ele>109.99999999999999</ele><time>2026-04-19T09:11:34.492Z</time></trkpt><trkpt lat="40.8087433" lon="8.193805"><ele>110.0</ele><time>2026-04-19T09:11:35.492Z</time></trkpt><trkpt lat="40.8086717" lon="8.1937867"><ele>110.0</ele><time>2026-04-19T09:11:36.491Z</time></trkpt><trkpt lat="40.80861" lon="8.193735"><ele>110.0</ele><time>2026-04-19T09:11:37.491Z</time></trkpt><trkpt lat="40.8085667" lon="8.1936583"><ele>109.99999999999999</ele><time>2026-04-19T09:11:38.491Z</time></trkpt><trkpt lat="40.8085283" lon="8.19356"><ele>110.0</ele><time>2026-04-19T09:11:39.492Z</time></trkpt><trkpt lat="40.8084933" lon="8.1934483"><ele>110.83333333333333</ele><time>2026-04-19T09:11:40.491Z</time></trkpt><trkpt lat="40.8084617" lon="8.19334"><ele>111.66666666666666</ele><time>2026-04-19T09:11:41.491Z</time></trkpt><trkpt lat="40.8084267" lon="8.1932417"><ele>112.5</ele><time>2026-04-19T09:11:42.491Z</time></trkpt><trkpt lat="40.80839" lon="8.1931417"><ele>113.33333333333334</ele><time>2026-04-19T09:11:43.492Z</time></trkpt><trkpt lat="40.8083617" lon="8.1930517"><ele>114.16666666666667</ele><time>2026-04-19T09:11:44.492Z</time></trkpt><trkpt lat="40.8083367" lon="8.1929683"><ele>115.0</ele><time>2026-04-19T09:11:45.492Z</time></trkpt><trkpt lat="40.8083117" lon="8.1928917"><ele>115.50000000000001</ele><time>2026-04-19T09:11:46.491Z</time></trkpt><trkpt lat="40.808265" lon="8.1928217"><ele>116.0</ele><time>2026-04-19T09:11:47.491Z</time></trkpt><trkpt lat="40.8081967" lon="8.192775"><ele>116.5</ele><time>2026-04-19T09:11:48.491Z</time></trkpt><trkpt lat="40.8081117" lon="8.1927517"><ele>117.0</ele><time>2026-04-19T09:11:49.492Z</time></trkpt><trkpt lat="40.8080183" lon="8.1927333"><ele>117.50000000000001</ele><time>2026-04-19T09:11:50.492Z</time></trkpt><trkpt lat="40.8079333" lon="8.19272"><ele>118.0</ele><time>2026-04-19T09:11:51.491Z</time></trkpt><trkpt lat="40.80785" lon="8.1927067"><ele>118.00000000000001</ele><time>2026-04-19T09:11:52.492Z</time></trkpt><trkpt lat="40.807765" lon="8.1926883"><ele>118.0</ele><time>2026-04-19T09:11:53.491Z</time></trkpt><trkpt lat="40.807675" lon="8.19267"><ele>118.0</ele><time>2026-04-19T09:11:54.491Z</time></trkpt><trkpt lat="40.8075817" lon="8.1926683"><ele>118.0</ele><time>2026-04-19T09:11:55.491Z</time></trkpt><trkpt lat="40.8074983" lon="8.1926883"><ele>118.00000000000001</ele><time>2026-04-19T09:11:56.491Z</time></trkpt><trkpt lat="40.80741" lon="8.19272"><ele>118.0</ele><time>2026-04-19T09:11:57.491Z</time></trkpt><trkpt lat="40.8073267" lon="8.19276"><ele>118.71428571428571</ele><time>2026-04-19T09:11:58.491Z</time></trkpt><trkpt lat="40.8072567" lon="8.1927933"><ele>119.42857142857144</ele><time>2026-04-19T09:11:59.492Z</time></trkpt><trkpt lat="40.8071867" lon="8.192825"><ele>120.14285714285715</ele><time>2026-04-19T09:12:00.491Z</time></trkpt><trkpt lat="40.8071217" lon="8.19284"><ele>120.85714285714286</ele><time>2026-04-19T09:12:01.491Z</time></trkpt><trkpt lat="40.807055" lon="8.1928317"><ele>121.57142857142858</ele><time>2026-04-19T09:12:02.492Z</time></trkpt><trkpt lat="40.8069933" lon="8.1928017"><ele>122.2857142857143</ele><time>2026-04-19T09:12:03.492Z</time></trkpt><trkpt lat="40.8069383" lon="8.19274"><ele>123.00000000000001</ele><time>2026-04-19T09:12:04.491Z</time></trkpt><trkpt lat="40.806885" lon="8.1926467"><ele>122.83333333333333</ele><time>2026-04-19T09:12:05.492Z</time></trkpt><trkpt lat="40.806825" lon="8.1925533"><ele>122.66666666666666</ele><time>2026-04-19T09:12:06.491Z</time></trkpt><trkpt lat="40.8067567" lon="8.1924767"><ele>122.5</ele><time>2026-04-19T09:12:07.492Z</time></trkpt><trkpt lat="40.80669" lon="8.192415"><ele>122.33333333333333</ele><time>2026-04-19T09:12:08.491Z</time></trkpt><trkpt lat="40.806625" lon="8.1923717"><ele>122.16666666666666</ele><time>2026-04-19T09:12:09.492Z</time></trkpt><trkpt lat="40.80655" lon="8.1923367"><ele>122.0</ele><time>2026-04-19T09:12:10.491Z</time></trkpt><trkpt lat="40.80646" lon="8.1923067"><ele>122.49999999999999</ele><time>2026-04-19T09:12:11.491Z</time></trkpt><trkpt lat="40.806375" lon="8.1922883"><ele>123.0</ele><time>2026-04-19T09:12:12.491Z</time></trkpt><trkpt lat="40.806295" lon="8.19226"><ele>123.5</ele><time>2026-04-19T09:12:13.491Z</time></trkpt><trkpt lat="40.8062183" lon="8.19222"><ele>124.0</ele><time>2026-04-19T09:12:14.491Z</time></trkpt><trkpt lat="40.80614" lon="8.1921483"><ele>124.49999999999999</ele><time>2026-04-19T09:12:15.491Z</time></trkpt><trkpt lat="40.8060667" lon="8.19206"><ele>125.0</ele><time>2026-04-19T09:12:16.491Z</time></trkpt><trkpt lat="40.8059833" lon="8.1919633"><ele>125.0</ele><time>2026-04-19T09:12:17.491Z</time></trkpt><trkpt lat="40.805905" lon="8.1918767"><ele>125.0</ele><time>2026-04-19T09:12:18.491Z</time></trkpt><trkpt lat="40.8058217" lon="8.191805"><ele>125.0</ele><time>2026-04-19T09:12:19.491Z</time></trkpt><trkpt lat="40.8057317" lon="8.1917433"><ele>125.0</ele><time>2026-04-19T09:12:20.491Z</time></trkpt><trkpt lat="40.8056417" lon="8.1916867"><ele>125.0</ele><time>2026-04-19T09:12:21.492Z</time></trkpt><trkpt lat="40.8055517" lon="8.1916483"><ele>124.99999999999999</ele><time>2026-04-19T09:12:22.491Z</time></trkpt><trkpt lat="40.8054633" lon="8.1916167"><ele>125.0</ele><time>2026-04-19T09:12:23.491Z</time></trkpt><trkpt lat="40.8053883" lon="8.19158"><ele>125.0</ele><time>2026-04-19T09:12:24.491Z</time></trkpt><trkpt lat="40.8053033" lon="8.1915617"><ele>125.0</ele><time>2026-04-19T09:12:25.491Z</time></trkpt><trkpt lat="40.8052167" lon="8.19156"><ele>124.99999999999999</ele><time>2026-04-19T09:12:26.491Z</time></trkpt><trkpt lat="40.80513" lon="8.1915717"><ele>125.0</ele><time>2026-04-19T09:12:27.492Z</time></trkpt><trkpt lat="40.805045" lon="8.1915733"><ele>125.4</ele><time>2026-04-19T09:12:28.491Z</time></trkpt><trkpt lat="40.8049667" lon="8.191565"><ele>125.8</ele><time>2026-04-19T09:12:29.492Z</time></trkpt><trkpt lat="40.8048767" lon="8.1915417"><ele>126.19999999999999</ele><time>2026-04-19T09:12:30.492Z</time></trkpt><trkpt lat="40.80478" lon="8.1914933"><ele>126.6</ele><time>2026-04-19T09:12:31.491Z</time></trkpt><trkpt lat="40.8046917" lon="8.1914417"><ele>127.0</ele><time>2026-04-19T09:12:32.491Z</time></trkpt><trkpt lat="40.8046133" lon="8.1913933"><ele>127.50000000000001</ele><time>2026-04-19T09:12:33.491Z</time></trkpt><trkpt lat="40.8045433" lon="8.191365"><ele>128.0</ele><time>2026-04-19T09:12:34.491Z</time></trkpt><trkpt lat="40.8044667" lon="8.1913467"><ele>128.5</ele><time>2026-04-19T09:12:35.491Z</time></trkpt><trkpt lat="40.804395" lon="8.1913433"><ele>129.0</ele><time>2026-04-19T09:12:36.492Z</time></trkpt><trkpt lat="40.8043167" lon="8.1913567"><ele>129.5</ele><time>2026-04-19T09:12:37.492Z</time></trkpt><trkpt lat="40.804225" lon="8.1913867"><ele>130.0</ele><time>2026-04-19T09:12:38.491Z</time></trkpt><trkpt lat="40.8041217" lon="8.1914317"><ele>130.0</ele><time>2026-04-19T09:12:39.491Z</time></trkpt><trkpt lat="40.804" lon="8.1914967"><ele>130.0</ele><time>2026-04-19T09:12:40.491Z</time></trkpt><trkpt lat="40.8038883" lon="8.1915667"><ele>130.0</ele><time>2026-04-19T09:12:41.491Z</time></trkpt><trkpt lat="40.80379" lon="8.19163"><ele>130.0</ele><time>2026-04-19T09:12:42.492Z</time></trkpt><trkpt lat="40.8037033" lon="8.1916883"><ele>130.0</ele><time>2026-04-19T09:12:43.492Z</time></trkpt><trkpt lat="40.8036217" lon="8.1917517"><ele>130.0</ele><time>2026-04-19T09:12:44.492Z</time></trkpt><trkpt lat="40.8035467" lon="8.1918083"><ele>130.0</ele><time>2026-04-19T09:12:45.491Z</time></trkpt><trkpt lat="40.8034767" lon="8.1918567"><ele>130.0</ele><time>2026-04-19T09:12:46.492Z</time></trkpt><trkpt lat="40.8033583" lon="8.191895"><ele>130.0</ele><time>2026-04-19T09:12:48.491Z</time></trkpt><trkpt lat="40.80323" lon="8.1918967"><ele>130.0</ele><time>2026-04-19T09:12:50.492Z</time></trkpt><trkpt lat="40.80311" lon="8.19184"><ele>130.0</ele><time>2026-04-19T09:12:52.492Z</time></trkpt><trkpt lat="40.8030433" lon="8.1917783"><ele>130.0</ele><time>2026-04-19T09:12:53.492Z</time></trkpt><trkpt lat="40.8029767" lon="8.191685"><ele>130.0</ele><time>2026-04-19T09:12:54.491Z</time></trkpt><trkpt lat="40.8028967" lon="8.1915783"><ele>130.0</ele><time>2026-04-19T09:12:55.491Z</time></trkpt><trkpt lat="40.8028117" lon="8.1914583"><ele>130.25</ele><time>2026-04-19T09:12:56.491Z</time></trkpt><trkpt lat="40.80272" lon="8.1913333"><ele>130.5</ele><time>2026-04-19T09:12:57.491Z</time></trkpt><trkpt lat="40.8026267" lon="8.1912183"><ele>130.75</ele><time>2026-04-19T09:12:58.492Z</time></trkpt><trkpt lat="40.802545" lon="8.1911117"><ele>131.0</ele><time>2026-04-19T09:12:59.491Z</time></trkpt><trkpt lat="40.80247" lon="8.1910067"><ele>131.0</ele><time>2026-04-19T09:13:00.491Z</time></trkpt><trkpt lat="40.8023967" lon="8.1909017"><ele>131.0</ele><time>2026-04-19T09:13:01.492Z</time></trkpt><trkpt lat="40.8023133" lon="8.1907917"><ele>131.0</ele><time>2026-04-19T09:13:02.491Z</time></trkpt><trkpt lat="40.802235" lon="8.1906883"><ele>131.0</ele><time>2026-04-19T09:13:03.492Z</time></trkpt><trkpt lat="40.8021517" lon="8.1905967"><ele>131.0</ele><time>2026-04-19T09:13:04.491Z</time></trkpt><trkpt lat="40.802065" lon="8.19051"><ele>131.33333333333331</ele><time>2026-04-19T09:13:05.492Z</time></trkpt><trkpt lat="40.8019933" lon="8.1904317"><ele>131.66666666666666</ele><time>2026-04-19T09:13:06.491Z</time></trkpt><trkpt lat="40.8019317" lon="8.1903483"><ele>132.0</ele><time>2026-04-19T09:13:07.491Z</time></trkpt><trkpt lat="40.80188" lon="8.1902667"><ele>132.33333333333334</ele><time>2026-04-19T09:13:08.492Z</time></trkpt><trkpt lat="40.8018383" lon="8.1901883"><ele>132.66666666666669</ele><time>2026-04-19T09:13:09.492Z</time></trkpt><trkpt lat="40.8018033" lon="8.1901167"><ele>133.0</ele><time>2026-04-19T09:13:10.491Z</time></trkpt><trkpt lat="40.80177" lon="8.19004"><ele>133.0</ele><time>2026-04-19T09:13:11.492Z</time></trkpt><trkpt lat="40.8017333" lon="8.1899483"><ele>133.0</ele><time>2026-04-19T09:13:12.492Z</time></trkpt><trkpt lat="40.8017" lon="8.1898517"><ele>133.0</ele><time>2026-04-19T09:13:13.492Z</time></trkpt><trkpt lat="40.8016717" lon="8.1897517"><ele>133.0</ele><time>2026-04-19T09:13:14.491Z</time></trkpt><trkpt lat="40.8016367" lon="8.1896433"><ele>133.0</ele><time>2026-04-19T09:13:15.491Z</time></trkpt><trkpt lat="40.8016017" lon="8.1895367"><ele>133.0</ele><time>2026-04-19T09:13:16.491Z</time></trkpt><trkpt lat="40.8015617" lon="8.1894417"><ele>133.0</ele><time>2026-04-19T09:13:17.491Z</time></trkpt><trkpt lat="40.8015033" lon="8.1893617"><ele>133.0</ele><time>2026-04-19T09:13:18.491Z</time></trkpt><trkpt lat="40.801435" lon="8.1893017"><ele>133.0</ele><time>2026-04-19T09:13:19.491Z</time></trkpt><trkpt lat="40.8013533" lon="8.1892433"><ele>133.0</ele><time>2026-04-19T09:13:20.492Z</time></trkpt><trkpt lat="40.8012717" lon="8.1891917"><ele>133.0</ele><time>2026-04-19T09:13:21.491Z</time></trkpt><trkpt lat="40.8011817" lon="8.1891417"><ele>133.0</ele><time>2026-04-19T09:13:22.491Z</time></trkpt><trkpt lat="40.8011017" lon="8.1890667"><ele>132.20000000000002</ele><time>2026-04-19T09:13:23.491Z</time></trkpt><trkpt lat="40.8010167" lon="8.18899"><ele>131.4</ele><time>2026-04-19T09:13:24.491Z</time></trkpt><trkpt lat="40.8009383" lon="8.1889083"><ele>130.60000000000002</ele><time>2026-04-19T09:13:25.492Z</time></trkpt><trkpt lat="40.8008533" lon="8.1888183"><ele>129.8</ele><time>2026-04-19T09:13:26.492Z</time></trkpt><trkpt lat="40.80077" lon="8.1887217"><ele>129.0</ele><time>2026-04-19T09:13:27.492Z</time></trkpt><trkpt lat="40.8006917" lon="8.188635"><ele>129.0</ele><time>2026-04-19T09:13:28.491Z</time></trkpt><trkpt lat="40.8006183" lon="8.1885617"><ele>129.0</ele><time>2026-04-19T09:13:29.492Z</time></trkpt><trkpt lat="40.8005667" lon="8.1884983"><ele>129.0</ele><time>2026-04-19T09:13:30.491Z</time></trkpt><trkpt lat="40.8005267" lon="8.1884317"><ele>129.0</ele><time>2026-04-19T09:13:31.492Z</time></trkpt><trkpt lat="40.8004983" lon="8.1883433"><ele>129.0</ele><time>2026-04-19T09:13:32.492Z</time></trkpt><trkpt lat="40.8004683" lon="8.1882517"><ele>129.0</ele><time>2026-04-19T09:13:33.492Z</time></trkpt><trkpt lat="40.8004433" lon="8.18815"><ele>128.8</ele><time>2026-04-19T09:13:34.491Z</time></trkpt><trkpt lat="40.80043" lon="8.188045"><ele>128.60000000000002</ele><time>2026-04-19T09:13:35.491Z</time></trkpt><trkpt lat="40.8004267" lon="8.1879267"><ele>128.4</ele><time>2026-04-19T09:13:36.491Z</time></trkpt><trkpt lat="40.80043" lon="8.1878"><ele>128.20000000000002</ele><time>2026-04-19T09:13:37.491Z</time></trkpt><trkpt lat="40.8004417" lon="8.1876633"><ele>128.0</ele><time>2026-04-19T09:13:38.491Z</time></trkpt><trkpt lat="40.8004483" lon="8.1875317"><ele>127.99999999999999</ele><time>2026-04-19T09:13:39.491Z</time></trkpt><trkpt lat="40.8004483" lon="8.1874083"><ele>128.0</ele><time>2026-04-19T09:13:40.492Z</time></trkpt><trkpt lat="40.8004483" lon="8.187295"><ele>128.0</ele><time>2026-04-19T09:13:41.491Z</time></trkpt><trkpt lat="40.800445" lon="8.1872"><ele>128.0</ele><time>2026-04-19T09:13:42.492Z</time></trkpt><trkpt lat="40.8004383" lon="8.187115"><ele>127.99999999999999</ele><time>2026-04-19T09:13:43.492Z</time></trkpt><trkpt lat="40.8003733" lon="8.1870317"><ele>128.0</ele><time>2026-04-19T09:13:45.492Z</time></trkpt><trkpt lat="40.8002733" lon="8.1870267"><ele>128.83333333333331</ele><time>2026-04-19T09:13:47.491Z</time></trkpt><trkpt lat="40.800205" lon="8.1870333"><ele>129.66666666666666</ele><time>2026-04-19T09:13:48.491Z</time></trkpt><trkpt lat="40.80012" lon="8.18704"><ele>130.5</ele><time>2026-04-19T09:13:49.492Z</time></trkpt><trkpt lat="40.8000317" lon="8.1870483"><ele>131.33333333333334</ele><time>2026-04-19T09:13:50.492Z</time></trkpt><trkpt lat="40.7999433" lon="8.1870667"><ele>132.16666666666669</ele><time>2026-04-19T09:13:51.491Z</time></trkpt><trkpt lat="40.799855" lon="8.1870917"><ele>133.0</ele><time>2026-04-19T09:13:52.492Z</time></trkpt><trkpt lat="40.7997633" lon="8.1871183"><ele>133.66666666666669</ele><time>2026-04-19T09:13:53.492Z</time></trkpt><trkpt lat="40.7996783" lon="8.1871467"><ele>134.33333333333334</ele><time>2026-04-19T09:13:54.492Z</time></trkpt><trkpt lat="40.79959" lon="8.18719"><ele>135.0</ele><time>2026-04-19T09:13:55.491Z</time></trkpt><trkpt lat="40.7994983" lon="8.1872333"><ele>135.66666666666666</ele><time>2026-04-19T09:13:56.492Z</time></trkpt><trkpt lat="40.7994133" lon="8.1872767"><ele>136.33333333333331</ele><time>2026-04-19T09:13:57.492Z</time></trkpt><trkpt lat="40.7993417" lon="8.1873117"><ele>137.0</ele><time>2026-04-19T09:13:58.491Z</time></trkpt><trkpt lat="40.7992283" lon="8.1873417"><ele>138.4</ele><time>2026-04-19T09:14:00.492Z</time></trkpt><trkpt lat="40.799125" lon="8.1873017"><ele>139.79999999999998</ele><time>2026-04-19T09:14:02.491Z</time></trkpt><trkpt lat="40.799035" lon="8.18722"><ele>141.2</ele><time>2026-04-19T09:14:04.491Z</time></trkpt><trkpt lat="40.7989433" lon="8.187145"><ele>142.6</ele><time>2026-04-19T09:14:06.491Z</time></trkpt><trkpt lat="40.7988867" lon="8.1870767"><ele>144.0</ele><time>2026-04-19T09:14:08.491Z</time></trkpt><trkpt lat="40.798835" lon="8.187005"><ele>144.0</ele><time>2026-04-19T09:14:11.491Z</time></trkpt><trkpt lat="40.7987867" lon="8.1869117"><ele>144.0</ele><time>2026-04-19T09:14:14.492Z</time></trkpt><trkpt lat="40.7987383" lon="8.1867967"><ele>144.0</ele><time>2026-04-19T09:14:16.491Z</time></trkpt><trkpt lat="40.7987033" lon="8.1867233"><ele>144.0</ele><time>2026-04-19T09:14:17.491Z</time></trkpt><trkpt lat="40.7986633" lon="8.1866517"><ele>144.0</ele><time>2026-04-19T09:14:18.492Z</time></trkpt><trkpt lat="40.7986217" lon="8.1865783"><ele>144.0</ele><time>2026-04-19T09:14:19.491Z</time></trkpt><trkpt lat="40.79853" lon="8.1864667"><ele>144.0</ele><time>2026-04-19T09:14:21.491Z</time></trkpt><trkpt lat="40.798435" lon="8.1863767"><ele>144.0</ele><time>2026-04-19T09:14:23.491Z</time></trkpt><trkpt lat="40.79834" lon="8.186285"><ele>144.0</ele><time>2026-04-19T09:14:25.491Z</time></trkpt><trkpt lat="40.7982533" lon="8.1861833"><ele>144.0</ele><time>2026-04-19T09:14:27.492Z</time></trkpt><trkpt lat="40.798225" lon="8.1861083"><ele>144.0</ele><time>2026-04-19T09:14:28.492Z</time></trkpt><trkpt lat="40.7982117" lon="8.1860133"><ele>144.0</ele><time>2026-04-19T09:14:29.491Z</time></trkpt><trkpt lat="40.798195" lon="8.1859117"><ele>144.0</ele><time>2026-04-19T09:14:30.491Z</time></trkpt><trkpt lat="40.7981783" lon="8.18581"><ele>144.0</ele><time>2026-04-19T09:14:31.491Z</time></trkpt><trkpt lat="40.79815" lon="8.1857267"><ele>144.0</ele><time>2026-04-19T09:14:32.491Z</time></trkpt><trkpt lat="40.7981067" lon="8.18565"><ele>144.0</ele><time>2026-04-19T09:14:33.491Z</time></trkpt><trkpt lat="40.79805" lon="8.18558"><ele>144.0</ele><time>2026-04-19T09:14:34.492Z</time></trkpt><trkpt lat="40.7979917" lon="8.1855217"><ele>143.4</ele><time>2026-04-19T09:14:35.491Z</time></trkpt><trkpt lat="40.797935" lon="8.185475"><ele>142.8</ele><time>2026-04-19T09:14:36.492Z</time></trkpt><trkpt lat="40.79783" lon="8.18542"><ele>142.2</ele><time>2026-04-19T09:14:38.491Z</time></trkpt><trkpt lat="40.7977417" lon="8.1853633"><ele>141.6</ele><time>2026-04-19T09:14:40.492Z</time></trkpt><trkpt lat="40.7976533" lon="8.185285"><ele>141.0</ele><time>2026-04-19T09:14:42.492Z</time></trkpt><trkpt lat="40.7975917" lon="8.185225"><ele>141.0</ele><time>2026-04-19T09:14:44.491Z</time></trkpt><trkpt lat="40.797535" lon="8.1851833"><ele>141.0</ele><time>2026-04-19T09:14:47.491Z</time></trkpt><trkpt lat="40.7974717" lon="8.1851317"><ele>141.0</ele><time>2026-04-19T09:14:50.492Z</time></trkpt><trkpt lat="40.797395" lon="8.185045"><ele>141.0</ele><time>2026-04-19T09:14:53.492Z</time></trkpt><trkpt lat="40.7973383" lon="8.1849517"><ele>141.0</ele><time>2026-04-19T09:14:55.492Z</time></trkpt><trkpt lat="40.797285" lon="8.18483"><ele>141.0</ele><time>2026-04-19T09:14:57.491Z</time></trkpt><trkpt lat="40.79723" lon="8.1847083"><ele>138.75</ele><time>2026-04-19T09:14:59.491Z</time></trkpt><trkpt lat="40.7971867" lon="8.1845683"><ele>136.5</ele><time>2026-04-19T09:15:01.491Z</time></trkpt><trkpt lat="40.7971467" lon="8.1844217"><ele>134.25</ele><time>2026-04-19T09:15:03.492Z</time></trkpt><trkpt lat="40.7971017" lon="8.1842817"><ele>132.0</ele><time>2026-04-19T09:15:05.491Z</time></trkpt><trkpt lat="40.7970383" lon="8.184145"><ele>132.0</ele><time>2026-04-19T09:15:07.491Z</time></trkpt><trkpt lat="40.7970083" lon="8.184065"><ele>132.0</ele><time>2026-04-19T09:15:08.491Z</time></trkpt><trkpt lat="40.7969467" lon="8.1839233"><ele>132.0</ele><time>2026-04-19T09:15:10.491Z</time></trkpt><trkpt lat="40.7968783" lon="8.1837917"><ele>132.0</ele><time>2026-04-19T09:15:12.492Z</time></trkpt><trkpt lat="40.7967883" lon="8.1837083"><ele>132.0</ele><time>2026-04-19T09:15:14.491Z</time></trkpt><trkpt lat="40.79667" lon="8.1836567"><ele>131.57142857142856</ele><time>2026-04-19T09:15:16.492Z</time></trkpt><trkpt lat="40.7965983" lon="8.1836333"><ele>131.14285714285714</ele><time>2026-04-19T09:15:17.492Z</time></trkpt><trkpt lat="40.7965233" lon="8.1836"><ele>130.71428571428572</ele><time>2026-04-19T09:15:18.492Z</time></trkpt><trkpt lat="40.7964483" lon="8.1835667"><ele>130.28571428571428</ele><time>2026-04-19T09:15:19.492Z</time></trkpt><trkpt lat="40.7963767" lon="8.183535"><ele>129.85714285714286</ele><time>2026-04-19T09:15:20.492Z</time></trkpt><trkpt lat="40.7963117" lon="8.1835"><ele>129.42857142857142</ele><time>2026-04-19T09:15:21.491Z</time></trkpt><trkpt lat="40.7962483" lon="8.1834667"><ele>129.0</ele><time>2026-04-19T09:15:22.492Z</time></trkpt><trkpt lat="40.7961933" lon="8.1834183"><ele>128.99999999999997</ele><time>2026-04-19T09:15:23.491Z</time></trkpt><trkpt lat="40.796145" lon="8.183355"><ele>129.0</ele><time>2026-04-19T09:15:24.491Z</time></trkpt><trkpt lat="40.7961" lon="8.18329"><ele>129.0</ele><time>2026-04-19T09:15:25.492Z</time></trkpt><trkpt lat="40.7960583" lon="8.1832183"><ele>129.0</ele><time>2026-04-19T09:15:26.491Z</time></trkpt><trkpt lat="40.796025" lon="8.1831333"><ele>129.0</ele><time>2026-04-19T09:15:27.491Z</time></trkpt><trkpt lat="40.7959917" lon="8.1830533"><ele>128.99999999999997</ele><time>2026-04-19T09:15:28.491Z</time></trkpt><trkpt lat="40.7959617" lon="8.18298"><ele>129.0</ele><time>2026-04-19T09:15:29.491Z</time></trkpt><trkpt lat="40.795935" lon="8.182895"><ele>127.83333333333333</ele><time>2026-04-19T09:15:30.491Z</time></trkpt><trkpt lat="40.795905" lon="8.1828117"><ele>126.66666666666666</ele><time>2026-04-19T09:15:31.492Z</time></trkpt><trkpt lat="40.795875" lon="8.1827233"><ele>125.5</ele><time>2026-04-19T09:15:32.491Z</time></trkpt><trkpt lat="40.7958433" lon="8.182635"><ele>124.33333333333333</ele><time>2026-04-19T09:15:33.492Z</time></trkpt><trkpt lat="40.7958083" lon="8.1825567"><ele>123.16666666666666</ele><time>2026-04-19T09:15:34.491Z</time></trkpt><trkpt lat="40.795755" lon="8.182415"><ele>122.0</ele><time>2026-04-19T09:15:36.492Z</time></trkpt><trkpt lat="40.7957183" lon="8.18228"><ele>121.0</ele><time>2026-04-19T09:15:38.492Z</time></trkpt><trkpt lat="40.79573" lon="8.1821267"><ele>119.99999999999999</ele><time>2026-04-19T09:15:40.491Z</time></trkpt><trkpt lat="40.7957517" lon="8.1820467"><ele>118.99999999999999</ele><time>2026-04-19T09:15:41.491Z</time></trkpt><trkpt lat="40.795785" lon="8.1819"><ele>118.0</ele><time>2026-04-19T09:15:43.491Z</time></trkpt><trkpt lat="40.7958183" lon="8.1817617"><ele>117.0</ele><time>2026-04-19T09:15:45.492Z</time></trkpt><trkpt lat="40.7958517" lon="8.18162"><ele>117.0</ele><time>2026-04-19T09:15:47.491Z</time></trkpt><trkpt lat="40.795875" lon="8.1815317"><ele>117.0</ele><time>2026-04-19T09:15:48.491Z</time></trkpt><trkpt lat="40.7959" lon="8.1814533"><ele>117.0</ele><time>2026-04-19T09:15:49.491Z</time></trkpt><trkpt lat="40.7959617" lon="8.18132"><ele>117.0</ele><time>2026-04-19T09:15:51.491Z</time></trkpt><trkpt lat="40.7960467" lon="8.1812133"><ele>117.0</ele><time>2026-04-19T09:15:53.491Z</time></trkpt><trkpt lat="40.7961" lon="8.181165"><ele>117.0</ele><time>2026-04-19T09:15:54.492Z</time></trkpt><trkpt lat="40.796165" lon="8.1811083"><ele>115.66666666666667</ele><time>2026-04-19T09:15:55.491Z</time></trkpt><trkpt lat="40.7962317" lon="8.18105"><ele>114.33333333333334</ele><time>2026-04-19T09:15:56.491Z</time></trkpt><trkpt lat="40.7962983" lon="8.1809783"><ele>113.0</ele><time>2026-04-19T09:15:57.492Z</time></trkpt><trkpt lat="40.796365" lon="8.180895"><ele>111.66666666666667</ele><time>2026-04-19T09:15:58.492Z</time></trkpt><trkpt lat="40.7964267" lon="8.1808233"><ele>110.33333333333334</ele><time>2026-04-19T09:15:59.491Z</time></trkpt><trkpt lat="40.7964783" lon="8.1807583"><ele>109.0</ele><time>2026-04-19T09:16:00.491Z</time></trkpt><trkpt lat="40.796535" lon="8.1807"><ele>108.50000000000001</ele><time>2026-04-19T09:16:01.492Z</time></trkpt><trkpt lat="40.7965883" lon="8.1806467"><ele>108.0</ele><time>2026-04-19T09:16:02.492Z</time></trkpt><trkpt lat="40.796655" lon="8.1806017"><ele>107.5</ele><time>2026-04-19T09:16:03.491Z</time></trkpt><trkpt lat="40.7967183" lon="8.1805633"><ele>107.0</ele><time>2026-04-19T09:16:04.492Z</time></trkpt><trkpt lat="40.7968267" lon="8.1805067"><ele>106.50000000000001</ele><time>2026-04-19T09:16:06.491Z</time></trkpt><trkpt lat="40.7969283" lon="8.180455"><ele>106.0</ele><time>2026-04-19T09:16:08.492Z</time></trkpt><trkpt lat="40.79698" lon="8.180405"><ele>106.0</ele><time>2026-04-19T09:16:09.491Z</time></trkpt><trkpt lat="40.797045" lon="8.1802833"><ele>106.0</ele><time>2026-04-19T09:16:11.491Z</time></trkpt><trkpt lat="40.7970767" lon="8.1801467"><ele>106.0</ele><time>2026-04-19T09:16:13.491Z</time></trkpt><trkpt lat="40.7970667" lon="8.180015"><ele>106.0</ele><time>2026-04-19T09:16:15.491Z</time></trkpt><trkpt lat="40.797035" lon="8.1798767"><ele>106.0</ele><time>2026-04-19T09:16:17.491Z</time></trkpt><trkpt lat="40.79701" lon="8.1797983"><ele>105.14285714285715</ele><time>2026-04-19T09:16:18.492Z</time></trkpt><trkpt lat="40.796985" lon="8.1797117"><ele>104.28571428571428</ele><time>2026-04-19T09:16:19.491Z</time></trkpt><trkpt lat="40.7969567" lon="8.1796233"><ele>103.42857142857143</ele><time>2026-04-19T09:16:20.492Z</time></trkpt><trkpt lat="40.7969333" lon="8.1795367"><ele>102.57142857142858</ele><time>2026-04-19T09:16:21.492Z</time></trkpt><trkpt lat="40.7969217" lon="8.17945"><ele>101.71428571428572</ele><time>2026-04-19T09:16:22.491Z</time></trkpt><trkpt lat="40.7969217" lon="8.17935"><ele>100.85714285714286</ele><time>2026-04-19T09:16:23.491Z</time></trkpt><trkpt lat="40.796925" lon="8.1792533"><ele>100.0</ele><time>2026-04-19T09:16:24.491Z</time></trkpt><trkpt lat="40.796935" lon="8.1791617"><ele>98.83333333333334</ele><time>2026-04-19T09:16:25.491Z</time></trkpt><trkpt lat="40.7969517" lon="8.1789917"><ele>97.66666666666667</ele><time>2026-04-19T09:16:27.492Z</time></trkpt><trkpt lat="40.796965" lon="8.1788933"><ele>96.5</ele><time>2026-04-19T09:16:28.492Z</time></trkpt><trkpt lat="40.796985" lon="8.17879"><ele>95.33333333333334</ele><time>2026-04-19T09:16:29.492Z</time></trkpt><trkpt lat="40.7969983" lon="8.1786917"><ele>94.16666666666667</ele><time>2026-04-19T09:16:30.491Z</time></trkpt><trkpt lat="40.7970167" lon="8.1786017"><ele>93.0</ele><time>2026-04-19T09:16:31.492Z</time></trkpt><trkpt lat="40.7970433" lon="8.1785117"><ele>93.0</ele><time>2026-04-19T09:16:32.492Z</time></trkpt><trkpt lat="40.7970633" lon="8.17842"><ele>93.0</ele><time>2026-04-19T09:16:33.492Z</time></trkpt><trkpt lat="40.7970833" lon="8.178325"><ele>93.0</ele><time>2026-04-19T09:16:34.492Z</time></trkpt><trkpt lat="40.797095" lon="8.178235"><ele>93.0</ele><time>2026-04-19T09:16:35.492Z</time></trkpt><trkpt lat="40.7971083" lon="8.1781417"><ele>93.0</ele><time>2026-04-19T09:16:36.491Z</time></trkpt><trkpt lat="40.7971167" lon="8.178055"><ele>93.0</ele><time>2026-04-19T09:16:37.491Z</time></trkpt><trkpt lat="40.797085" lon="8.1779167"><ele>91.0</ele><time>2026-04-19T09:16:39.491Z</time></trkpt><trkpt lat="40.7970083" lon="8.1778317"><ele>89.0</ele><time>2026-04-19T09:16:41.491Z</time></trkpt><trkpt lat="40.7968783" lon="8.1778583"><ele>87.0</ele><time>2026-04-19T09:16:49.492Z</time></trkpt><trkpt lat="40.7968" lon="8.177915"><ele>85.0</ele><time>2026-04-19T09:16:51.491Z</time></trkpt><trkpt lat="40.7966967" lon="8.177965"><ele>83.0</ele><time>2026-04-19T09:16:53.491Z</time></trkpt><trkpt lat="40.7965833" lon="8.1779717"><ele>83.0</ele><time>2026-04-19T09:16:55.492Z</time></trkpt><trkpt lat="40.79647" lon="8.177955"><ele>83.0</ele><time>2026-04-19T09:16:57.492Z</time></trkpt><trkpt lat="40.79637" lon="8.1779917"><ele>83.0</ele><time>2026-04-19T09:16:59.491Z</time></trkpt><trkpt lat="40.7963117" lon="8.1780817"><ele>83.0</ele><time>2026-04-19T09:17:01.491Z</time></trkpt><trkpt lat="40.7962417" lon="8.17812"><ele>83.0</ele><time>2026-04-19T09:17:04.492Z</time></trkpt><trkpt lat="40.796175" lon="8.1781117"><ele>83.0</ele><time>2026-04-19T09:17:14.492Z</time></trkpt><trkpt lat="40.7961167" lon="8.1780383"><ele>83.0</ele><time>2026-04-19T09:17:16.491Z</time></trkpt><trkpt lat="40.7960267" lon="8.1779567"><ele>83.0</ele><time>2026-04-19T09:17:18.492Z</time></trkpt><trkpt lat="40.79595" lon="8.1778933"><ele>83.0</ele><time>2026-04-19T09:17:20.491Z</time></trkpt><trkpt lat="40.7958833" lon="8.17785"><ele>83.0</ele><time>2026-04-19T09:17:22.491Z</time></trkpt><trkpt lat="40.795815" lon="8.1777933"><ele>83.0</ele><time>2026-04-19T09:17:24.491Z</time></trkpt><trkpt lat="40.7957533" lon="8.1777417"><ele>85.0</ele><time>2026-04-19T09:17:26.491Z</time></trkpt><trkpt lat="40.7956633" lon="8.1777383"><ele>87.0</ele><time>2026-04-19T09:17:28.492Z</time></trkpt><trkpt lat="40.795595" lon="8.1777417"><ele>89.0</ele><time>2026-04-19T09:17:30.491Z</time></trkpt><trkpt lat="40.7955083" lon="8.177715"><ele>91.0</ele><time>2026-04-19T09:17:32.492Z</time></trkpt><trkpt lat="40.7954117" lon="8.177675"><ele>93.0</ele><time>2026-04-19T09:17:34.491Z</time></trkpt><trkpt lat="40.7953667" lon="8.1775867"><ele>95.0</ele><time>2026-04-19T09:17:36.491Z</time></trkpt><trkpt lat="40.795355" lon="8.1774467"><ele>95.0</ele><time>2026-04-19T09:17:38.491Z</time></trkpt><trkpt lat="40.79535" lon="8.17736"><ele>95.0</ele><time>2026-04-19T09:17:39.491Z</time></trkpt><trkpt lat="40.795315" lon="8.177205"><ele>95.0</ele><time>2026-04-19T09:17:41.492Z</time></trkpt><trkpt lat="40.7952767" lon="8.1771267"><ele>95.0</ele><time>2026-04-19T09:17:42.491Z</time></trkpt><trkpt lat="40.795235" lon="8.1770517"><ele>95.0</ele><time>2026-04-19T09:17:43.492Z</time></trkpt><trkpt lat="40.7951933" lon="8.1769667"><ele>95.0</ele><time>2026-04-19T09:17:44.491Z</time></trkpt><trkpt lat="40.795155" lon="8.1768867"><ele>96.8</ele><time>2026-04-19T09:17:45.491Z</time></trkpt><trkpt lat="40.7951167" lon="8.1768167"><ele>98.6</ele><time>2026-04-19T09:17:46.492Z</time></trkpt><trkpt lat="40.7950433" lon="8.1767"><ele>100.4</ele><time>2026-04-19T09:17:48.491Z</time></trkpt><trkpt lat="40.7949867" lon="8.1765983"><ele>102.2</ele><time>2026-04-19T09:17:50.491Z</time></trkpt><trkpt lat="40.7949167" lon="8.176445"><ele>104.0</ele><time>2026-04-19T09:17:52.491Z</time></trkpt><trkpt lat="40.794875" lon="8.1763667"><ele>103.99999999999999</ele><time>2026-04-19T09:17:53.492Z</time></trkpt><trkpt lat="40.794825" lon="8.1762883"><ele>104.0</ele><time>2026-04-19T09:17:54.492Z</time></trkpt><trkpt lat="40.794775" lon="8.176205"><ele>104.0</ele><time>2026-04-19T09:17:55.491Z</time></trkpt><trkpt lat="40.7947167" lon="8.176115"><ele>104.0</ele><time>2026-04-19T09:17:56.492Z</time></trkpt><trkpt lat="40.7946633" lon="8.17602"><ele>103.99999999999999</ele><time>2026-04-19T09:17:57.491Z</time></trkpt><trkpt lat="40.7946117" lon="8.1759217"><ele>104.0</ele><time>2026-04-19T09:17:58.491Z</time></trkpt><trkpt lat="40.7945617" lon="8.1758267"><ele>103.99999999999999</ele><time>2026-04-19T09:17:59.492Z</time></trkpt><trkpt lat="40.79451" lon="8.17573"><ele>104.0</ele><time>2026-04-19T09:18:00.492Z</time></trkpt><trkpt lat="40.7944667" lon="8.17563"><ele>104.0</ele><time>2026-04-19T09:18:01.491Z</time></trkpt><trkpt lat="40.7944183" lon="8.175525"><ele>104.0</ele><time>2026-04-19T09:18:02.492Z</time></trkpt><trkpt lat="40.794375" lon="8.175425"><ele>103.99999999999999</ele><time>2026-04-19T09:18:03.492Z</time></trkpt><trkpt lat="40.794335" lon="8.17533"><ele>104.0</ele><time>2026-04-19T09:18:04.491Z</time></trkpt><trkpt lat="40.794305" lon="8.1752367"><ele>104.83333333333333</ele><time>2026-04-19T09:18:05.491Z</time></trkpt><trkpt lat="40.794275" lon="8.1751417"><ele>105.66666666666666</ele><time>2026-04-19T09:18:06.49Z</time></trkpt><trkpt lat="40.7942483" lon="8.175065"><ele>106.5</ele><time>2026-04-19T09:18:07.491Z</time></trkpt><trkpt lat="40.7941883" lon="8.1749917"><ele>107.33333333333334</ele><time>2026-04-19T09:18:09.49Z</time></trkpt><trkpt lat="40.794095" lon="8.1750217"><ele>108.16666666666667</ele><time>2026-04-19T09:18:11.49Z</time></trkpt><trkpt lat="40.7940333" lon="8.17506"><ele>109.0</ele><time>2026-04-19T09:18:12.491Z</time></trkpt><trkpt lat="40.7939667" lon="8.1750967"><ele>109.00000000000001</ele><time>2026-04-19T09:18:13.49Z</time></trkpt><trkpt lat="40.7938867" lon="8.1751367"><ele>109.0</ele><time>2026-04-19T09:18:14.49Z</time></trkpt><trkpt lat="40.7938033" lon="8.17518"><ele>109.0</ele><time>2026-04-19T09:18:15.49Z</time></trkpt><trkpt lat="40.7937267" lon="8.1752217"><ele>109.0</ele><time>2026-04-19T09:18:16.49Z</time></trkpt><trkpt lat="40.793655" lon="8.1752567"><ele>109.00000000000001</ele><time>2026-04-19T09:18:17.491Z</time></trkpt><trkpt lat="40.79358" lon="8.175295"><ele>109.0</ele><time>2026-04-19T09:18:18.491Z</time></trkpt><trkpt lat="40.7935083" lon="8.17533"><ele>109.16666666666667</ele><time>2026-04-19T09:18:19.49Z</time></trkpt><trkpt lat="40.7934417" lon="8.1753717"><ele>109.33333333333334</ele><time>2026-04-19T09:18:20.49Z</time></trkpt><trkpt lat="40.7933767" lon="8.175415"><ele>109.5</ele><time>2026-04-19T09:18:21.491Z</time></trkpt><trkpt lat="40.7933067" lon="8.1754717"><ele>109.66666666666666</ele><time>2026-04-19T09:18:22.49Z</time></trkpt><trkpt lat="40.793235" lon="8.1755233"><ele>109.83333333333333</ele><time>2026-04-19T09:18:23.491Z</time></trkpt><trkpt lat="40.7931633" lon="8.1755733"><ele>110.0</ele><time>2026-04-19T09:18:24.49Z</time></trkpt><trkpt lat="40.7931033" lon="8.1756183"><ele>109.99999999999999</ele><time>2026-04-19T09:18:25.491Z</time></trkpt><trkpt lat="40.793045" lon="8.175675"><ele>110.0</ele><time>2026-04-19T09:18:26.491Z</time></trkpt><trkpt lat="40.792985" lon="8.17574"><ele>110.0</ele><time>2026-04-19T09:18:27.491Z</time></trkpt><trkpt lat="40.7929283" lon="8.1758017"><ele>110.0</ele><time>2026-04-19T09:18:28.491Z</time></trkpt><trkpt lat="40.79286" lon="8.17587"><ele>109.99999999999999</ele><time>2026-04-19T09:18:29.491Z</time></trkpt><trkpt lat="40.79279" lon="8.1759433"><ele>110.0</ele><time>2026-04-19T09:18:30.49Z</time></trkpt><trkpt lat="40.792725" lon="8.1760117"><ele>111.8</ele><time>2026-04-19T09:18:31.49Z</time></trkpt><trkpt lat="40.7926583" lon="8.1760717"><ele>113.6</ele><time>2026-04-19T09:18:32.49Z</time></trkpt><trkpt lat="40.7925833" lon="8.176125"><ele>115.4</ele><time>2026-04-19T09:18:33.49Z</time></trkpt><trkpt lat="40.7925" lon="8.176175"><ele>117.2</ele><time>2026-04-19T09:18:34.491Z</time></trkpt><trkpt lat="40.79241" lon="8.17622"><ele>119.0</ele><time>2026-04-19T09:18:35.491Z</time></trkpt><trkpt lat="40.7923117" lon="8.1762767"><ele>119.0</ele><time>2026-04-19T09:18:36.49Z</time></trkpt><trkpt lat="40.79222" lon="8.17633"><ele>119.0</ele><time>2026-04-19T09:18:37.49Z</time></trkpt><trkpt lat="40.7921333" lon="8.1763733"><ele>119.0</ele><time>2026-04-19T09:18:38.491Z</time></trkpt><trkpt lat="40.79205" lon="8.1764017"><ele>119.0</ele><time>2026-04-19T09:18:39.49Z</time></trkpt><trkpt lat="40.7919783" lon="8.1764183"><ele>119.0</ele><time>2026-04-19T09:18:40.49Z</time></trkpt><trkpt lat="40.7918783" lon="8.1764233"><ele>119.83333333333333</ele><time>2026-04-19T09:18:42.49Z</time></trkpt><trkpt lat="40.79181" lon="8.1764467"><ele>120.66666666666666</ele><time>2026-04-19T09:18:45.491Z</time></trkpt><trkpt lat="40.79173" lon="8.1765333"><ele>121.5</ele><time>2026-04-19T09:18:48.491Z</time></trkpt><trkpt lat="40.7916717" lon="8.176575"><ele>122.33333333333334</ele><time>2026-04-19T09:18:49.49Z</time></trkpt><trkpt lat="40.791605" lon="8.17661"><ele>123.16666666666667</ele><time>2026-04-19T09:18:50.49Z</time></trkpt><trkpt lat="40.79152" lon="8.1766483"><ele>124.0</ele><time>2026-04-19T09:18:51.49Z</time></trkpt><trkpt lat="40.7914283" lon="8.176675"><ele>124.00000000000001</ele><time>2026-04-19T09:18:52.49Z</time></trkpt><trkpt lat="40.7913367" lon="8.1766917"><ele>124.0</ele><time>2026-04-19T09:18:53.49Z</time></trkpt><trkpt lat="40.7912433" lon="8.1767017"><ele>124.0</ele><time>2026-04-19T09:18:54.491Z</time></trkpt><trkpt lat="40.791165" lon="8.1767033"><ele>124.0</ele><time>2026-04-19T09:18:55.491Z</time></trkpt><trkpt lat="40.7910867" lon="8.1766933"><ele>124.00000000000001</ele><time>2026-04-19T09:18:56.491Z</time></trkpt><trkpt lat="40.79101" lon="8.176665"><ele>124.0</ele><time>2026-04-19T09:18:57.491Z</time></trkpt><trkpt lat="40.7909317" lon="8.1766583"><ele>124.33333333333334</ele><time>2026-04-19T09:18:58.491Z</time></trkpt><trkpt lat="40.79085" lon="8.1766733"><ele>124.66666666666667</ele><time>2026-04-19T09:18:59.491Z</time></trkpt><trkpt lat="40.790775" lon="8.1767167"><ele>125.0</ele><time>2026-04-19T09:19:00.49Z</time></trkpt><trkpt lat="40.7907083" lon="8.1767583"><ele>125.33333333333334</ele><time>2026-04-19T09:19:01.491Z</time></trkpt><trkpt lat="40.790645" lon="8.1768083"><ele>125.66666666666667</ele><time>2026-04-19T09:19:02.49Z</time></trkpt><trkpt lat="40.7905867" lon="8.1768883"><ele>126.0</ele><time>2026-04-19T09:19:03.49Z</time></trkpt><trkpt lat="40.7905433" lon="8.1769967"><ele>126.0</ele><time>2026-04-19T09:19:04.49Z</time></trkpt><trkpt lat="40.7904783" lon="8.1771"><ele>126.0</ele><time>2026-04-19T09:19:05.49Z</time></trkpt><trkpt lat="40.7904183" lon="8.1771967"><ele>126.0</ele><time>2026-04-19T09:19:06.491Z</time></trkpt><trkpt lat="40.7903733" lon="8.177295"><ele>126.0</ele><time>2026-04-19T09:19:07.49Z</time></trkpt><trkpt lat="40.79033" lon="8.1774017"><ele>126.0</ele><time>2026-04-19T09:19:08.491Z</time></trkpt><trkpt lat="40.7902933" lon="8.1775033"><ele>126.0</ele><time>2026-04-19T09:19:09.491Z</time></trkpt><trkpt lat="40.7902667" lon="8.177615"><ele>126.0</ele><time>2026-04-19T09:19:10.491Z</time></trkpt><trkpt lat="40.7902417" lon="8.1777233"><ele>126.0</ele><time>2026-04-19T09:19:11.491Z</time></trkpt><trkpt lat="40.79022" lon="8.1778333"><ele>126.0</ele><time>2026-04-19T09:19:12.49Z</time></trkpt><trkpt lat="40.790185" lon="8.1779333"><ele>126.0</ele><time>2026-04-19T09:19:13.49Z</time></trkpt><trkpt lat="40.79014" lon="8.1780183"><ele>126.0</ele><time>2026-04-19T09:19:14.491Z</time></trkpt><trkpt lat="40.7900833" lon="8.1781067"><ele>125.0</ele><time>2026-04-19T09:19:15.491Z</time></trkpt><trkpt lat="40.7900233" lon="8.1781967"><ele>124.0</ele><time>2026-04-19T09:19:16.491Z</time></trkpt><trkpt lat="40.78998" lon="8.17831"><ele>123.0</ele><time>2026-04-19T09:19:17.49Z</time></trkpt><trkpt lat="40.7899483" lon="8.1784283"><ele>122.0</ele><time>2026-04-19T09:19:18.491Z</time></trkpt><trkpt lat="40.7899283" lon="8.1785533"><ele>121.0</ele><time>2026-04-19T09:19:19.49Z</time></trkpt><trkpt lat="40.7899233" lon="8.17869"><ele>121.0</ele><time>2026-04-19T09:19:20.491Z</time></trkpt><trkpt lat="40.7899317" lon="8.17884"><ele>121.0</ele><time>2026-04-19T09:19:21.49Z</time></trkpt><trkpt lat="40.78994" lon="8.17899"><ele>121.0</ele><time>2026-04-19T09:19:22.491Z</time></trkpt><trkpt lat="40.78994" lon="8.1791283"><ele>121.0</ele><time>2026-04-19T09:19:23.49Z</time></trkpt><trkpt lat="40.78994" lon="8.1792633"><ele>121.0</ele><time>2026-04-19T09:19:24.49Z</time></trkpt><trkpt lat="40.78993" lon="8.17941"><ele>120.75</ele><time>2026-04-19T09:19:25.49Z</time></trkpt><trkpt lat="40.789935" lon="8.179565"><ele>120.5</ele><time>2026-04-19T09:19:26.491Z</time></trkpt><trkpt lat="40.789955" lon="8.17972"><ele>120.25</ele><time>2026-04-19T09:19:27.49Z</time></trkpt><trkpt lat="40.78998" lon="8.1798633"><ele>120.0</ele><time>2026-04-19T09:19:28.49Z</time></trkpt><trkpt lat="40.7899883" lon="8.1799983"><ele>120.0</ele><time>2026-04-19T09:19:29.49Z</time></trkpt><trkpt lat="40.7899783" lon="8.1801317"><ele>120.0</ele><time>2026-04-19T09:19:30.491Z</time></trkpt><trkpt lat="40.7899467" lon="8.1802433"><ele>120.0</ele><time>2026-04-19T09:19:31.49Z</time></trkpt><trkpt lat="40.7898967" lon="8.1803433"><ele>120.0</ele><time>2026-04-19T09:19:32.491Z</time></trkpt><trkpt lat="40.789845" lon="8.1804517"><ele>120.0</ele><time>2026-04-19T09:19:33.491Z</time></trkpt><trkpt lat="40.7897983" lon="8.180555"><ele>120.0</ele><time>2026-04-19T09:19:34.49Z</time></trkpt><trkpt lat="40.7897517" lon="8.1806667"><ele>120.0</ele><time>2026-04-19T09:19:35.49Z</time></trkpt><trkpt lat="40.7897067" lon="8.1807817"><ele>120.0</ele><time>2026-04-19T09:19:36.49Z</time></trkpt><trkpt lat="40.7896583" lon="8.180875"><ele>120.0</ele><time>2026-04-19T09:19:37.491Z</time></trkpt><trkpt lat="40.7895983" lon="8.180955"><ele>120.0</ele><time>2026-04-19T09:19:38.49Z</time></trkpt><trkpt lat="40.7895283" lon="8.1810183"><ele>119.2</ele><time>2026-04-19T09:19:39.491Z</time></trkpt><trkpt lat="40.7894317" lon="8.181085"><ele>118.4</ele><time>2026-04-19T09:19:40.49Z</time></trkpt><trkpt lat="40.7893217" lon="8.1811483"><ele>117.6</ele><time>2026-04-19T09:19:41.49Z</time></trkpt><trkpt lat="40.789225" lon="8.1812033"><ele>116.8</ele><time>2026-04-19T09:19:42.491Z</time></trkpt><trkpt lat="40.7891333" lon="8.18128"><ele>116.0</ele><time>2026-04-19T09:19:43.49Z</time></trkpt><trkpt lat="40.789045" lon="8.1813517"><ele>115.6</ele><time>2026-04-19T09:19:44.49Z</time></trkpt><trkpt lat="40.7889483" lon="8.181425"><ele>115.19999999999999</ele><time>2026-04-19T09:19:45.491Z</time></trkpt><trkpt lat="40.7888683" lon="8.1814917"><ele>114.80000000000001</ele><time>2026-04-19T09:19:46.491Z</time></trkpt><trkpt lat="40.78879" lon="8.1815867"><ele>114.4</ele><time>2026-04-19T09:19:47.491Z</time></trkpt><trkpt lat="40.7887183" lon="8.1817"><ele>114.0</ele><time>2026-04-19T09:19:48.49Z</time></trkpt><trkpt lat="40.7886533" lon="8.18183"><ele>114.0</ele><time>2026-04-19T09:19:49.491Z</time></trkpt><trkpt lat="40.7886067" lon="8.1819483"><ele>114.0</ele><time>2026-04-19T09:19:50.491Z</time></trkpt><trkpt lat="40.78857" lon="8.18206"><ele>114.0</ele><time>2026-04-19T09:19:51.49Z</time></trkpt><trkpt lat="40.7885333" lon="8.1821633"><ele>114.0</ele><time>2026-04-19T09:19:52.49Z</time></trkpt><trkpt lat="40.7885033" lon="8.1822767"><ele>114.0</ele><time>2026-04-19T09:19:53.49Z</time></trkpt><trkpt lat="40.7884833" lon="8.1824"><ele>113.6</ele><time>2026-04-19T09:19:54.49Z</time></trkpt><trkpt lat="40.7884683" lon="8.182535"><ele>113.2</ele><time>2026-04-19T09:19:55.491Z</time></trkpt><trkpt lat="40.7884417" lon="8.1826467"><ele>112.79999999999998</ele><time>2026-04-19T09:19:56.49Z</time></trkpt><trkpt lat="40.7884033" lon="8.1827467"><ele>112.39999999999999</ele><time>2026-04-19T09:19:57.49Z</time></trkpt><trkpt lat="40.788345" lon="8.1828367"><ele>112.0</ele><time>2026-04-19T09:19:58.49Z</time></trkpt><trkpt lat="40.7882767" lon="8.18293"><ele>112.0</ele><time>2026-04-19T09:19:59.491Z</time></trkpt><trkpt lat="40.7882017" lon="8.1830233"><ele>111.99999999999999</ele><time>2026-04-19T09:20:00.49Z</time></trkpt><trkpt lat="40.7881217" lon="8.183125"><ele>111.99999999999999</ele><time>2026-04-19T09:20:01.491Z</time></trkpt><trkpt lat="40.7880433" lon="8.183235"><ele>112.0</ele><time>2026-04-19T09:20:02.491Z</time></trkpt><trkpt lat="40.7879717" lon="8.183345"><ele>112.0</ele><time>2026-04-19T09:20:03.49Z</time></trkpt><trkpt lat="40.7878983" lon="8.1834617"><ele>111.75</ele><time>2026-04-19T09:20:04.49Z</time></trkpt><trkpt lat="40.7878283" lon="8.1835933"><ele>111.5</ele><time>2026-04-19T09:20:05.49Z</time></trkpt><trkpt lat="40.7877733" lon="8.1837217"><ele>111.25</ele><time>2026-04-19T09:20:06.49Z</time></trkpt><trkpt lat="40.7877117" lon="8.18387"><ele>111.0</ele><time>2026-04-19T09:20:07.49Z</time></trkpt><trkpt lat="40.7876467" lon="8.1840117"><ele>111.4</ele><time>2026-04-19T09:20:08.49Z</time></trkpt><trkpt lat="40.787575" lon="8.184155"><ele>111.8</ele><time>2026-04-19T09:20:09.491Z</time></trkpt><trkpt lat="40.7875067" lon="8.1842767"><ele>112.20000000000002</ele><time>2026-04-19T09:20:10.49Z</time></trkpt><trkpt lat="40.78744" lon="8.1843833"><ele>112.60000000000001</ele><time>2026-04-19T09:20:11.49Z</time></trkpt><trkpt lat="40.7873833" lon="8.1844767"><ele>113.0</ele><time>2026-04-19T09:20:12.49Z</time></trkpt><trkpt lat="40.7873283" lon="8.1845633"><ele>112.99999999999999</ele><time>2026-04-19T09:20:13.49Z</time></trkpt><trkpt lat="40.7872633" lon="8.1846383"><ele>113.0</ele><time>2026-04-19T09:20:14.49Z</time></trkpt><trkpt lat="40.787215" lon="8.18472"><ele>113.0</ele><time>2026-04-19T09:20:15.49Z</time></trkpt><trkpt lat="40.7871883" lon="8.1848117"><ele>113.0</ele><time>2026-04-19T09:20:16.49Z</time></trkpt><trkpt lat="40.7871733" lon="8.184915"><ele>112.99999999999999</ele><time>2026-04-19T09:20:17.49Z</time></trkpt><trkpt lat="40.78718" lon="8.185025"><ele>113.0</ele><time>2026-04-19T09:20:18.49Z</time></trkpt><trkpt lat="40.7871983" lon="8.1851283"><ele>113.2</ele><time>2026-04-19T09:20:19.491Z</time></trkpt><trkpt lat="40.78722" lon="8.1852167"><ele>113.4</ele><time>2026-04-19T09:20:20.491Z</time></trkpt><trkpt lat="40.7872367" lon="8.1853267"><ele>113.60000000000001</ele><time>2026-04-19T09:20:22.491Z</time></trkpt><trkpt lat="40.787155" lon="8.18541"><ele>113.80000000000001</ele><time>2026-04-19T09:20:24.49Z</time></trkpt><trkpt lat="40.7870667" lon="8.1854483"><ele>114.0</ele><time>2026-04-19T09:20:25.49Z</time></trkpt><trkpt lat="40.7869617" lon="8.1854833"><ele>114.0</ele><time>2026-04-19T09:20:26.49Z</time></trkpt><trkpt lat="40.786865" lon="8.185525"><ele>114.0</ele><time>2026-04-19T09:20:27.491Z</time></trkpt><trkpt lat="40.7867717" lon="8.1855583"><ele>114.0</ele><time>2026-04-19T09:20:28.49Z</time></trkpt><trkpt lat="40.78668" lon="8.1855917"><ele>114.0</ele><time>2026-04-19T09:20:29.491Z</time></trkpt><trkpt lat="40.7865867" lon="8.1856183"><ele>114.0</ele><time>2026-04-19T09:20:30.49Z</time></trkpt><trkpt lat="40.7864983" lon="8.18565"><ele>115.2</ele><time>2026-04-19T09:20:31.49Z</time></trkpt><trkpt lat="40.786395" lon="8.18568"><ele>116.4</ele><time>2026-04-19T09:20:32.491Z</time></trkpt><trkpt lat="40.7862967" lon="8.1857217"><ele>117.6</ele><time>2026-04-19T09:20:33.49Z</time></trkpt><trkpt lat="40.7861983" lon="8.1857933"><ele>118.8</ele><time>2026-04-19T09:20:34.49Z</time></trkpt><trkpt lat="40.7861117" lon="8.18588"><ele>120.0</ele><time>2026-04-19T09:20:35.49Z</time></trkpt><trkpt lat="40.786015" lon="8.1859667"><ele>119.6</ele><time>2026-04-19T09:20:36.49Z</time></trkpt><trkpt lat="40.78591" lon="8.1860333"><ele>119.2</ele><time>2026-04-19T09:20:37.491Z</time></trkpt><trkpt lat="40.7857983" lon="8.1860717"><ele>118.80000000000001</ele><time>2026-04-19T09:20:38.49Z</time></trkpt><trkpt lat="40.78571" lon="8.1860983"><ele>118.4</ele><time>2026-04-19T09:20:39.491Z</time></trkpt><trkpt lat="40.78562" lon="8.186115"><ele>118.0</ele><time>2026-04-19T09:20:40.49Z</time></trkpt><trkpt lat="40.7855517" lon="8.18614"><ele>118.00000000000001</ele><time>2026-04-19T09:20:41.49Z</time></trkpt><trkpt lat="40.7854917" lon="8.1861717"><ele>118.0</ele><time>2026-04-19T09:20:42.491Z</time></trkpt><trkpt lat="40.785405" lon="8.186195"><ele>118.0</ele><time>2026-04-19T09:20:44.49Z</time></trkpt><trkpt lat="40.7853267" lon="8.1861067"><ele>118.0</ele><time>2026-04-19T09:20:46.49Z</time></trkpt><trkpt lat="40.7853083" lon="8.1860117"><ele>118.00000000000001</ele><time>2026-04-19T09:20:47.49Z</time></trkpt><trkpt lat="40.78529" lon="8.1858867"><ele>118.0</ele><time>2026-04-19T09:20:48.49Z</time></trkpt><trkpt lat="40.78527" lon="8.1857517"><ele>118.0</ele><time>2026-04-19T09:20:49.491Z</time></trkpt><trkpt lat="40.78525" lon="8.1856283"><ele>118.00000000000001</ele><time>2026-04-19T09:20:50.49Z</time></trkpt><trkpt lat="40.7852367" lon="8.1855067"><ele>118.00000000000001</ele><time>2026-04-19T09:20:51.491Z</time></trkpt><trkpt lat="40.78523" lon="8.1853867"><ele>118.0</ele><time>2026-04-19T09:20:52.49Z</time></trkpt><trkpt lat="40.785225" lon="8.1852767"><ele>118.0</ele><time>2026-04-19T09:20:53.491Z</time></trkpt><trkpt lat="40.785215" lon="8.1851517"><ele>118.00000000000001</ele><time>2026-04-19T09:20:54.491Z</time></trkpt><trkpt lat="40.7852017" lon="8.18503"><ele>118.0</ele><time>2026-04-19T09:20:55.49Z</time></trkpt><trkpt lat="40.7851683" lon="8.1849017"><ele>118.0</ele><time>2026-04-19T09:20:56.49Z</time></trkpt><trkpt lat="40.7851267" lon="8.1847967"><ele>118.0</ele><time>2026-04-19T09:20:57.491Z</time></trkpt><trkpt lat="40.7850933" lon="8.184705"><ele>118.00000000000001</ele><time>2026-04-19T09:20:58.491Z</time></trkpt><trkpt lat="40.78504" lon="8.1846217"><ele>118.0</ele><time>2026-04-19T09:20:59.491Z</time></trkpt><trkpt lat="40.7849767" lon="8.1845567"><ele>118.83333333333334</ele><time>2026-04-19T09:21:00.49Z</time></trkpt><trkpt lat="40.7848967" lon="8.184515"><ele>119.66666666666667</ele><time>2026-04-19T09:21:01.49Z</time></trkpt><trkpt lat="40.7848217" lon="8.1844917"><ele>120.5</ele><time>2026-04-19T09:21:02.49Z</time></trkpt><trkpt lat="40.784745" lon="8.1844567"><ele>121.33333333333334</ele><time>2026-04-19T09:21:03.49Z</time></trkpt><trkpt lat="40.7846883" lon="8.18442"><ele>122.16666666666667</ele><time>2026-04-19T09:21:04.49Z</time></trkpt><trkpt lat="40.7846083" lon="8.184305"><ele>123.0</ele><time>2026-04-19T09:21:06.491Z</time></trkpt><trkpt lat="40.7845883" lon="8.18421"><ele>123.0</ele><time>2026-04-19T09:21:07.49Z</time></trkpt><trkpt lat="40.7845833" lon="8.1840933"><ele>123.0</ele><time>2026-04-19T09:21:08.49Z</time></trkpt><trkpt lat="40.7845733" lon="8.1839967"><ele>123.0</ele><time>2026-04-19T09:21:09.49Z</time></trkpt><trkpt lat="40.784575" lon="8.1839017"><ele>123.0</ele><time>2026-04-19T09:21:10.491Z</time></trkpt><trkpt lat="40.7845483" lon="8.1838167"><ele>123.0</ele><time>2026-04-19T09:21:11.491Z</time></trkpt><trkpt lat="40.784505" lon="8.1837383"><ele>123.0</ele><time>2026-04-19T09:21:12.49Z</time></trkpt><trkpt lat="40.7844433" lon="8.183685"><ele>123.66666666666667</ele><time>2026-04-19T09:21:13.491Z</time></trkpt><trkpt lat="40.78437" lon="8.1836583"><ele>124.33333333333334</ele><time>2026-04-19T09:21:14.491Z</time></trkpt><trkpt lat="40.784285" lon="8.18363"><ele>125.0</ele><time>2026-04-19T09:21:15.491Z</time></trkpt><trkpt lat="40.7842083" lon="8.18359"><ele>125.66666666666667</ele><time>2026-04-19T09:21:16.491Z</time></trkpt><trkpt lat="40.78412" lon="8.1835383"><ele>126.33333333333334</ele><time>2026-04-19T09:21:17.49Z</time></trkpt><trkpt lat="40.7840383" lon="8.1834833"><ele>127.0</ele><time>2026-04-19T09:21:18.49Z</time></trkpt><trkpt lat="40.7839467" lon="8.18343"><ele>127.50000000000001</ele><time>2026-04-19T09:21:19.49Z</time></trkpt><trkpt lat="40.78387" lon="8.1833767"><ele>128.0</ele><time>2026-04-19T09:21:20.49Z</time></trkpt><trkpt lat="40.7837917" lon="8.183325"><ele>128.5</ele><time>2026-04-19T09:21:21.491Z</time></trkpt><trkpt lat="40.7837167" lon="8.1832567"><ele>129.0</ele><time>2026-04-19T09:21:22.491Z</time></trkpt><trkpt lat="40.7836467" lon="8.1831817"><ele>129.5</ele><time>2026-04-19T09:21:23.49Z</time></trkpt><trkpt lat="40.7835833" lon="8.183105"><ele>130.0</ele><time>2026-04-19T09:21:24.49Z</time></trkpt><trkpt lat="40.783525" lon="8.183035"><ele>131.33333333333334</ele><time>2026-04-19T09:21:25.491Z</time></trkpt><trkpt lat="40.7834167" lon="8.1829767"><ele>132.66666666666669</ele><time>2026-04-19T09:21:27.491Z</time></trkpt><trkpt lat="40.783355" lon="8.1829933"><ele>134.0</ele><time>2026-04-19T09:21:28.491Z</time></trkpt><trkpt lat="40.78329" lon="8.183035"><ele>135.33333333333334</ele><time>2026-04-19T09:21:29.491Z</time></trkpt><trkpt lat="40.7832333" lon="8.183075"><ele>136.66666666666666</ele><time>2026-04-19T09:21:30.49Z</time></trkpt><trkpt lat="40.7831717" lon="8.1831017"><ele>138.0</ele><time>2026-04-19T09:21:31.49Z</time></trkpt><trkpt lat="40.783095" lon="8.1831083"><ele>138.0</ele><time>2026-04-19T09:21:32.491Z</time></trkpt><trkpt lat="40.783005" lon="8.1830933"><ele>138.0</ele><time>2026-04-19T09:21:33.49Z</time></trkpt><trkpt lat="40.78292" lon="8.1830633"><ele>138.0</ele><time>2026-04-19T09:21:34.491Z</time></trkpt><trkpt lat="40.7828317" lon="8.183035"><ele>138.0</ele><time>2026-04-19T09:21:35.49Z</time></trkpt><trkpt lat="40.7827383" lon="8.1830233"><ele>138.0</ele><time>2026-04-19T09:21:36.49Z</time></trkpt><trkpt lat="40.7826383" lon="8.1830133"><ele>139.20000000000002</ele><time>2026-04-19T09:21:37.491Z</time></trkpt><trkpt lat="40.78254" lon="8.1830117"><ele>140.4</ele><time>2026-04-19T09:21:38.491Z</time></trkpt><trkpt lat="40.78245" lon="8.18301"><ele>141.60000000000002</ele><time>2026-04-19T09:21:39.491Z</time></trkpt><trkpt lat="40.7823533" lon="8.183005"><ele>142.8</ele><time>2026-04-19T09:21:40.491Z</time></trkpt><trkpt lat="40.7822583" lon="8.1829983"><ele>144.0</ele><time>2026-04-19T09:21:41.491Z</time></trkpt><trkpt lat="40.782165" lon="8.1829683"><ele>144.0</ele><time>2026-04-19T09:21:42.49Z</time></trkpt><trkpt lat="40.7820767" lon="8.1829183"><ele>144.0</ele><time>2026-04-19T09:21:43.491Z</time></trkpt><trkpt lat="40.7819667" lon="8.1828617"><ele>144.0</ele><time>2026-04-19T09:21:44.491Z</time></trkpt><trkpt lat="40.7818533" lon="8.182825"><ele>144.0</ele><time>2026-04-19T09:21:45.491Z</time></trkpt><trkpt lat="40.7817417" lon="8.1828033"><ele>144.0</ele><time>2026-04-19T09:21:46.491Z</time></trkpt><trkpt lat="40.7816317" lon="8.182785"><ele>144.75</ele><time>2026-04-19T09:21:47.491Z</time></trkpt><trkpt lat="40.7815167" lon="8.1827583"><ele>145.5</ele><time>2026-04-19T09:21:48.491Z</time></trkpt><trkpt lat="40.7813967" lon="8.1827283"><ele>146.25</ele><time>2026-04-19T09:21:49.49Z</time></trkpt><trkpt lat="40.78128" lon="8.1826867"><ele>147.0</ele><time>2026-04-19T09:21:50.49Z</time></trkpt><trkpt lat="40.7811567" lon="8.1826433"><ele>147.0</ele><time>2026-04-19T09:21:51.49Z</time></trkpt><trkpt lat="40.7810367" lon="8.1826167"><ele>147.0</ele><time>2026-04-19T09:21:52.491Z</time></trkpt><trkpt lat="40.7809217" lon="8.1825933"><ele>147.0</ele><time>2026-04-19T09:21:53.491Z</time></trkpt><trkpt lat="40.780815" lon="8.1825633"><ele>147.0</ele><time>2026-04-19T09:21:54.491Z</time></trkpt><trkpt lat="40.7807167" lon="8.1825333"><ele>147.0</ele><time>2026-04-19T09:21:55.491Z</time></trkpt><trkpt lat="40.7806317" lon="8.182505"><ele>148.2</ele><time>2026-04-19T09:21:56.491Z</time></trkpt><trkpt lat="40.78054" lon="8.1824917"><ele>149.39999999999998</ele><time>2026-04-19T09:21:57.49Z</time></trkpt><trkpt lat="40.780445" lon="8.1825167"><ele>150.60000000000002</ele><time>2026-04-19T09:21:58.491Z</time></trkpt><trkpt lat="40.7803433" lon="8.1825617"><ele>151.8</ele><time>2026-04-19T09:21:59.491Z</time></trkpt><trkpt lat="40.7802467" lon="8.1826317"><ele>153.0</ele><time>2026-04-19T09:22:00.49Z</time></trkpt><trkpt lat="40.7801583" lon="8.1827167"><ele>154.0</ele><time>2026-04-19T09:22:01.491Z</time></trkpt><trkpt lat="40.780075" lon="8.18279"><ele>155.0</ele><time>2026-04-19T09:22:02.49Z</time></trkpt><trkpt lat="40.7799983" lon="8.1828667"><ele>156.0</ele><time>2026-04-19T09:22:03.49Z</time></trkpt><trkpt lat="40.7799317" lon="8.182955"><ele>157.0</ele><time>2026-04-19T09:22:04.49Z</time></trkpt><trkpt lat="40.779885" lon="8.1830733"><ele>158.0</ele><time>2026-04-19T09:22:05.49Z</time></trkpt><trkpt lat="40.779845" lon="8.1831983"><ele>159.33333333333331</ele><time>2026-04-19T09:22:06.491Z</time></trkpt><trkpt lat="40.7798133" lon="8.1833283"><ele>160.66666666666666</ele><time>2026-04-19T09:22:07.49Z</time></trkpt><trkpt lat="40.7797717" lon="8.1834433"><ele>162.0</ele><time>2026-04-19T09:22:08.491Z</time></trkpt><trkpt lat="40.7797267" lon="8.1835417"><ele>163.33333333333334</ele><time>2026-04-19T09:22:09.491Z</time></trkpt><trkpt lat="40.779675" lon="8.1836117"><ele>164.66666666666669</ele><time>2026-04-19T09:22:10.49Z</time></trkpt><trkpt lat="40.779625" lon="8.1836683"><ele>166.0</ele><time>2026-04-19T09:22:11.49Z</time></trkpt><trkpt lat="40.7795183" lon="8.1837567"><ele>166.0</ele><time>2026-04-19T09:22:13.49Z</time></trkpt><trkpt lat="40.77945" lon="8.1837867"><ele>166.0</ele><time>2026-04-19T09:22:14.49Z</time></trkpt><trkpt lat="40.77937" lon="8.183815"><ele>166.0</ele><time>2026-04-19T09:22:15.49Z</time></trkpt><trkpt lat="40.7793" lon="8.1838367"><ele>166.0</ele><time>2026-04-19T09:22:16.49Z</time></trkpt><trkpt lat="40.7792317" lon="8.183855"><ele>166.0</ele><time>2026-04-19T09:22:17.49Z</time></trkpt><trkpt lat="40.7791217" lon="8.1838817"><ele>166.0</ele><time>2026-04-19T09:22:19.49Z</time></trkpt><trkpt lat="40.77904" lon="8.18389"><ele>167.66666666666669</ele><time>2026-04-19T09:22:21.491Z</time></trkpt><trkpt lat="40.7789433" lon="8.1838917"><ele>169.33333333333334</ele><time>2026-04-19T09:22:23.49Z</time></trkpt><trkpt lat="40.778825" lon="8.18385"><ele>171.0</ele><time>2026-04-19T09:22:25.49Z</time></trkpt><trkpt lat="40.77876" lon="8.1838233"><ele>172.66666666666666</ele><time>2026-04-19T09:22:26.491Z</time></trkpt><trkpt lat="40.7786883" lon="8.183795"><ele>174.33333333333331</ele><time>2026-04-19T09:22:27.491Z</time></trkpt><trkpt lat="40.77862" lon="8.1837617"><ele>176.0</ele><time>2026-04-19T09:22:28.491Z</time></trkpt><trkpt lat="40.7785417" lon="8.1837217"><ele>177.33333333333331</ele><time>2026-04-19T09:22:29.49Z</time></trkpt><trkpt lat="40.7784633" lon="8.18368"><ele>178.66666666666666</ele><time>2026-04-19T09:22:30.491Z</time></trkpt><trkpt lat="40.7783867" lon="8.1836367"><ele>180.0</ele><time>2026-04-19T09:22:31.49Z</time></trkpt><trkpt lat="40.7783217" lon="8.1835967"><ele>181.33333333333334</ele><time>2026-04-19T09:22:32.49Z</time></trkpt><trkpt lat="40.7782617" lon="8.1835417"><ele>182.66666666666669</ele><time>2026-04-19T09:22:33.491Z</time></trkpt><trkpt lat="40.7781967" lon="8.1834883"><ele>184.0</ele><time>2026-04-19T09:22:34.49Z</time></trkpt><trkpt lat="40.7781283" lon="8.1834333"><ele>184.0</ele><time>2026-04-19T09:22:35.491Z</time></trkpt><trkpt lat="40.7780417" lon="8.1833817"><ele>184.0</ele><time>2026-04-19T09:22:36.491Z</time></trkpt><trkpt lat="40.7779467" lon="8.1833317"><ele>184.0</ele><time>2026-04-19T09:22:37.49Z</time></trkpt><trkpt lat="40.7778483" lon="8.18328"><ele>184.0</ele><time>2026-04-19T09:22:38.49Z</time></trkpt><trkpt lat="40.7777433" lon="8.1832317"><ele>184.0</ele><time>2026-04-19T09:22:39.49Z</time></trkpt><trkpt lat="40.7776267" lon="8.1831917"><ele>184.5</ele><time>2026-04-19T09:22:40.491Z</time></trkpt><trkpt lat="40.777495" lon="8.1831767"><ele>185.0</ele><time>2026-04-19T09:22:41.49Z</time></trkpt><trkpt lat="40.7773433" lon="8.1831667"><ele>185.5</ele><time>2026-04-19T09:22:42.491Z</time></trkpt><trkpt lat="40.7771983" lon="8.1831533"><ele>186.0</ele><time>2026-04-19T09:22:43.49Z</time></trkpt><trkpt lat="40.7770617" lon="8.1831283"><ele>186.0</ele><time>2026-04-19T09:22:44.49Z</time></trkpt><trkpt lat="40.776935" lon="8.1831017"><ele>186.0</ele><time>2026-04-19T09:22:45.49Z</time></trkpt><trkpt lat="40.7768067" lon="8.1830717"><ele>186.0</ele><time>2026-04-19T09:22:46.49Z</time></trkpt><trkpt lat="40.776695" lon="8.1830517"><ele>186.0</ele><time>2026-04-19T09:22:47.49Z</time></trkpt><trkpt lat="40.7765767" lon="8.18303"><ele>187.60000000000002</ele><time>2026-04-19T09:22:48.491Z</time></trkpt><trkpt lat="40.7764717" lon="8.183"><ele>189.2</ele><time>2026-04-19T09:22:49.491Z</time></trkpt><trkpt lat="40.7763783" lon="8.182975"><ele>190.8</ele><time>2026-04-19T09:22:50.49Z</time></trkpt><trkpt lat="40.77628" lon="8.182945"><ele>192.39999999999998</ele><time>2026-04-19T09:22:51.491Z</time></trkpt><trkpt lat="40.77619" lon="8.182915"><ele>194.0</ele><time>2026-04-19T09:22:52.49Z</time></trkpt><trkpt lat="40.7761" lon="8.182895"><ele>193.83333333333334</ele><time>2026-04-19T09:22:53.491Z</time></trkpt><trkpt lat="40.7760183" lon="8.18288"><ele>193.66666666666669</ele><time>2026-04-19T09:22:54.49Z</time></trkpt><trkpt lat="40.77594" lon="8.1828883"><ele>193.5</ele><time>2026-04-19T09:22:55.49Z</time></trkpt><trkpt lat="40.7758567" lon="8.1829"><ele>193.33333333333331</ele><time>2026-04-19T09:22:56.49Z</time></trkpt><trkpt lat="40.7757783" lon="8.182915"><ele>193.16666666666666</ele><time>2026-04-19T09:22:57.491Z</time></trkpt><trkpt lat="40.7757067" lon="8.1829367"><ele>193.0</ele><time>2026-04-19T09:22:58.49Z</time></trkpt><trkpt lat="40.7756067" lon="8.1829833"><ele>193.0</ele><time>2026-04-19T09:23:00.49Z</time></trkpt><trkpt lat="40.7755333" lon="8.1830217"><ele>193.0</ele><time>2026-04-19T09:23:02.49Z</time></trkpt><trkpt lat="40.775435" lon="8.1830967"><ele>193.0</ele><time>2026-04-19T09:23:04.491Z</time></trkpt><trkpt lat="40.775345" lon="8.1831733"><ele>193.0</ele><time>2026-04-19T09:23:06.491Z</time></trkpt><trkpt lat="40.775245" lon="8.1831533"><ele>193.0</ele><time>2026-04-19T09:23:08.49Z</time></trkpt><trkpt lat="40.775145" lon="8.1830383"><ele>191.99999999999997</ele><time>2026-04-19T09:23:10.491Z</time></trkpt><trkpt lat="40.775085" lon="8.1829717"><ele>191.0</ele><time>2026-04-19T09:23:11.49Z</time></trkpt><trkpt lat="40.77502" lon="8.1829117"><ele>190.0</ele><time>2026-04-19T09:23:12.49Z</time></trkpt><trkpt lat="40.77495" lon="8.1828483"><ele>189.0</ele><time>2026-04-19T09:23:13.49Z</time></trkpt><trkpt lat="40.77488" lon="8.1827883"><ele>188.0</ele><time>2026-04-19T09:23:14.49Z</time></trkpt><trkpt lat="40.774805" lon="8.1827183"><ele>187.0</ele><time>2026-04-19T09:23:15.49Z</time></trkpt><trkpt lat="40.7747417" lon="8.1826417"><ele>187.0</ele><time>2026-04-19T09:23:16.49Z</time></trkpt><trkpt lat="40.7746717" lon="8.1825583"><ele>187.0</ele><time>2026-04-19T09:23:17.49Z</time></trkpt><trkpt lat="40.7746017" lon="8.1824817"><ele>187.0</ele><time>2026-04-19T09:23:18.491Z</time></trkpt><trkpt lat="40.7745267" lon="8.1824117"><ele>187.0</ele><time>2026-04-19T09:23:19.49Z</time></trkpt><trkpt lat="40.77446" lon="8.18234"><ele>187.0</ele><time>2026-04-19T09:23:20.491Z</time></trkpt><trkpt lat="40.7743917" lon="8.1822667"><ele>186.2</ele><time>2026-04-19T09:23:21.491Z</time></trkpt><trkpt lat="40.7743283" lon="8.1822067"><ele>185.39999999999998</ele><time>2026-04-19T09:23:22.491Z</time></trkpt><trkpt lat="40.77427" lon="8.1821583"><ele>184.60000000000002</ele><time>2026-04-19T09:23:23.49Z</time></trkpt><trkpt lat="40.7741667" lon="8.182085"><ele>183.8</ele><time>2026-04-19T09:23:25.49Z</time></trkpt><trkpt lat="40.7740733" lon="8.18204"><ele>183.0</ele><time>2026-04-19T09:23:27.49Z</time></trkpt><trkpt lat="40.7739583" lon="8.1820833"><ele>183.0</ele><time>2026-04-19T09:23:29.491Z</time></trkpt><trkpt lat="40.7739083" lon="8.1821383"><ele>183.0</ele><time>2026-04-19T09:23:30.49Z</time></trkpt><trkpt lat="40.77387" lon="8.18222"><ele>183.0</ele><time>2026-04-19T09:23:31.491Z</time></trkpt><trkpt lat="40.7738267" lon="8.182295"><ele>183.0</ele><time>2026-04-19T09:23:32.49Z</time></trkpt><trkpt lat="40.773785" lon="8.1823667"><ele>183.0</ele><time>2026-04-19T09:23:33.49Z</time></trkpt><trkpt lat="40.7737483" lon="8.1824483"><ele>183.0</ele><time>2026-04-19T09:23:34.49Z</time></trkpt><trkpt lat="40.77371" lon="8.1825317"><ele>183.0</ele><time>2026-04-19T09:23:35.491Z</time></trkpt><trkpt lat="40.773685" lon="8.1826117"><ele>182.0</ele><time>2026-04-19T09:23:36.49Z</time></trkpt><trkpt lat="40.7736467" lon="8.1827733"><ele>181.0</ele><time>2026-04-19T09:23:38.491Z</time></trkpt><trkpt lat="40.7736217" lon="8.182855"><ele>180.0</ele><time>2026-04-19T09:23:39.49Z</time></trkpt><trkpt lat="40.77357" lon="8.182985"><ele>179.0</ele><time>2026-04-19T09:23:41.49Z</time></trkpt><trkpt lat="40.7735267" lon="8.1831067"><ele>178.0</ele><time>2026-04-19T09:23:43.49Z</time></trkpt><trkpt lat="40.7734883" lon="8.18325"><ele>176.57142857142856</ele><time>2026-04-19T09:23:45.49Z</time></trkpt><trkpt lat="40.7734517" lon="8.183325"><ele>175.14285714285714</ele><time>2026-04-19T09:23:46.49Z</time></trkpt><trkpt lat="40.7734133" lon="8.1834017"><ele>173.71428571428572</ele><time>2026-04-19T09:23:47.49Z</time></trkpt><trkpt lat="40.773375" lon="8.1834783"><ele>172.28571428571428</ele><time>2026-04-19T09:23:48.49Z</time></trkpt><trkpt lat="40.7733367" lon="8.1835517"><ele>170.85714285714286</ele><time>2026-04-19T09:23:49.49Z</time></trkpt><trkpt lat="40.7732983" lon="8.18363"><ele>169.42857142857142</ele><time>2026-04-19T09:23:50.49Z</time></trkpt><trkpt lat="40.7732667" lon="8.1837033"><ele>168.0</ele><time>2026-04-19T09:23:51.491Z</time></trkpt><trkpt lat="40.773245" lon="8.1837917"><ele>168.0</ele><time>2026-04-19T09:23:52.49Z</time></trkpt><trkpt lat="40.7732317" lon="8.18388"><ele>168.0</ele><time>2026-04-19T09:23:53.491Z</time></trkpt><trkpt lat="40.77321" lon="8.1840583"><ele>168.0</ele><time>2026-04-19T09:23:55.491Z</time></trkpt><trkpt lat="40.7732033" lon="8.1841667"><ele>168.0</ele><time>2026-04-19T09:23:56.49Z</time></trkpt><trkpt lat="40.7731933" lon="8.1842767"><ele>168.0</ele><time>2026-04-19T09:23:57.49Z</time></trkpt><trkpt lat="40.773175" lon="8.18437"><ele>168.0</ele><time>2026-04-19T09:23:58.49Z</time></trkpt><trkpt lat="40.7731483" lon="8.1844633"><ele>167.0</ele><time>2026-04-19T09:23:59.491Z</time></trkpt><trkpt lat="40.7730917" lon="8.1845483"><ele>166.0</ele><time>2026-04-19T09:24:00.491Z</time></trkpt><trkpt lat="40.773025" lon="8.1846267"><ele>165.0</ele><time>2026-04-19T09:24:01.49Z</time></trkpt><trkpt lat="40.772955" lon="8.1847033"><ele>164.0</ele><time>2026-04-19T09:24:02.491Z</time></trkpt><trkpt lat="40.7728883" lon="8.1847883"><ele>163.0</ele><time>2026-04-19T09:24:03.491Z</time></trkpt><trkpt lat="40.772825" lon="8.18487"><ele>162.0</ele><time>2026-04-19T09:24:04.491Z</time></trkpt><trkpt lat="40.77277" lon="8.1849483"><ele>162.0</ele><time>2026-04-19T09:24:05.491Z</time></trkpt><trkpt lat="40.7727217" lon="8.185025"><ele>162.0</ele><time>2026-04-19T09:24:06.491Z</time></trkpt><trkpt lat="40.7726883" lon="8.185105"><ele>162.0</ele><time>2026-04-19T09:24:07.491Z</time></trkpt><trkpt lat="40.7726683" lon="8.1851867"><ele>162.0</ele><time>2026-04-19T09:24:08.491Z</time></trkpt><trkpt lat="40.77266" lon="8.1852817"><ele>162.0</ele><time>2026-04-19T09:24:09.49Z</time></trkpt><trkpt lat="40.7726717" lon="8.1853767"><ele>162.0</ele><time>2026-04-19T09:24:10.49Z</time></trkpt><trkpt lat="40.77269" lon="8.1854733"><ele>162.0</ele><time>2026-04-19T09:24:11.491Z</time></trkpt><trkpt lat="40.7726967" lon="8.1855617"><ele>162.0</ele><time>2026-04-19T09:24:12.491Z</time></trkpt><trkpt lat="40.772705" lon="8.1856717"><ele>162.0</ele><time>2026-04-19T09:24:13.49Z</time></trkpt><trkpt lat="40.77272" lon="8.1857917"><ele>162.0</ele><time>2026-04-19T09:24:14.49Z</time></trkpt><trkpt lat="40.7727433" lon="8.1859117"><ele>162.0</ele><time>2026-04-19T09:24:15.49Z</time></trkpt><trkpt lat="40.7727733" lon="8.186015"><ele>162.0</ele><time>2026-04-19T09:24:16.491Z</time></trkpt><trkpt lat="40.7728117" lon="8.1861117"><ele>162.0</ele><time>2026-04-19T09:24:17.49Z</time></trkpt><trkpt lat="40.77285" lon="8.186195"><ele>161.66666666666666</ele><time>2026-04-19T09:24:18.49Z</time></trkpt><trkpt lat="40.7728867" lon="8.1862733"><ele>161.33333333333334</ele><time>2026-04-19T09:24:19.49Z</time></trkpt><trkpt lat="40.77292" lon="8.1863517"><ele>161.0</ele><time>2026-04-19T09:24:20.491Z</time></trkpt><trkpt lat="40.7729783" lon="8.1864833"><ele>160.66666666666669</ele><time>2026-04-19T09:24:22.491Z</time></trkpt><trkpt lat="40.77301" lon="8.1865583"><ele>160.33333333333334</ele><time>2026-04-19T09:24:23.49Z</time></trkpt><trkpt lat="40.77305" lon="8.1866333"><ele>160.0</ele><time>2026-04-19T09:24:24.49Z</time></trkpt><trkpt lat="40.773085" lon="8.1867133"><ele>159.2</ele><time>2026-04-19T09:24:25.491Z</time></trkpt><trkpt lat="40.77312" lon="8.1868733"><ele>158.4</ele><time>2026-04-19T09:24:27.49Z</time></trkpt><trkpt lat="40.773105" lon="8.18697"><ele>157.6</ele><time>2026-04-19T09:24:28.491Z</time></trkpt><trkpt lat="40.7730767" lon="8.1870717"><ele>156.8</ele><time>2026-04-19T09:24:29.491Z</time></trkpt><trkpt lat="40.7730433" lon="8.18718"><ele>156.0</ele><time>2026-04-19T09:24:30.49Z</time></trkpt><trkpt lat="40.7730117" lon="8.1872917"><ele>155.33333333333334</ele><time>2026-04-19T09:24:31.491Z</time></trkpt><trkpt lat="40.7729917" lon="8.1874"><ele>154.66666666666666</ele><time>2026-04-19T09:24:32.491Z</time></trkpt><trkpt lat="40.7729717" lon="8.1875033"><ele>154.0</ele><time>2026-04-19T09:24:33.49Z</time></trkpt><trkpt lat="40.7729583" lon="8.1876067"><ele>153.33333333333331</ele><time>2026-04-19T09:24:34.49Z</time></trkpt><trkpt lat="40.772945" lon="8.1877183"><ele>152.66666666666666</ele><time>2026-04-19T09:24:35.491Z</time></trkpt><trkpt lat="40.7729383" lon="8.1878267"><ele>152.0</ele><time>2026-04-19T09:24:36.491Z</time></trkpt><trkpt lat="40.7729367" lon="8.1879267"><ele>152.0</ele><time>2026-04-19T09:24:37.49Z</time></trkpt><trkpt lat="40.7729417" lon="8.1880167"><ele>152.0</ele><time>2026-04-19T09:24:38.491Z</time></trkpt><trkpt lat="40.77295" lon="8.1881733"><ele>152.0</ele><time>2026-04-19T09:24:40.491Z</time></trkpt><trkpt lat="40.7729467" lon="8.1882633"><ele>152.0</ele><time>2026-04-19T09:24:41.491Z</time></trkpt><trkpt lat="40.7729517" lon="8.1883483"><ele>152.0</ele><time>2026-04-19T09:24:42.491Z</time></trkpt><trkpt lat="40.7729617" lon="8.1884417"><ele>152.0</ele><time>2026-04-19T09:24:43.491Z</time></trkpt><trkpt lat="40.7729717" lon="8.18854"><ele>151.5</ele><time>2026-04-19T09:24:44.49Z</time></trkpt><trkpt lat="40.7729833" lon="8.1886333"><ele>151.0</ele><time>2026-04-19T09:24:45.491Z</time></trkpt><trkpt lat="40.772975" lon="8.1887283"><ele>150.5</ele><time>2026-04-19T09:24:46.49Z</time></trkpt><trkpt lat="40.7729633" lon="8.1888167"><ele>150.0</ele><time>2026-04-19T09:24:47.491Z</time></trkpt><trkpt lat="40.7729483" lon="8.1889"><ele>149.5</ele><time>2026-04-19T09:24:48.491Z</time></trkpt><trkpt lat="40.7729033" lon="8.1890417"><ele>149.0</ele><time>2026-04-19T09:24:50.49Z</time></trkpt><trkpt lat="40.7728683" lon="8.1891167"><ele>148.6</ele><time>2026-04-19T09:24:51.49Z</time></trkpt><trkpt lat="40.7727967" lon="8.1892333"><ele>148.2</ele><time>2026-04-19T09:24:53.491Z</time></trkpt><trkpt lat="40.7727083" lon="8.18929"><ele>147.79999999999998</ele><time>2026-04-19T09:24:56.491Z</time></trkpt><trkpt lat="40.77259" lon="8.1892583"><ele>147.4</ele><time>2026-04-19T09:24:58.49Z</time></trkpt><trkpt lat="40.7725183" lon="8.18924"><ele>147.0</ele><time>2026-04-19T09:24:59.491Z</time></trkpt><trkpt lat="40.77244" lon="8.1892217"><ele>147.83333333333334</ele><time>2026-04-19T09:25:00.49Z</time></trkpt><trkpt lat="40.7723617" lon="8.1892117"><ele>148.66666666666666</ele><time>2026-04-19T09:25:01.49Z</time></trkpt><trkpt lat="40.772285" lon="8.1892083"><ele>149.5</ele><time>2026-04-19T09:25:02.49Z</time></trkpt><trkpt lat="40.7722117" lon="8.1892067"><ele>150.33333333333331</ele><time>2026-04-19T09:25:03.49Z</time></trkpt><trkpt lat="40.77213" lon="8.1892083"><ele>151.16666666666666</ele><time>2026-04-19T09:25:04.49Z</time></trkpt><trkpt lat="40.7720483" lon="8.1892067"><ele>152.0</ele><time>2026-04-19T09:25:05.49Z</time></trkpt><trkpt lat="40.7719517" lon="8.1891983"><ele>153.25</ele><time>2026-04-19T09:25:06.491Z</time></trkpt><trkpt lat="40.771845" lon="8.1891933"><ele>154.5</ele><time>2026-04-19T09:25:07.49Z</time></trkpt><trkpt lat="40.77173" lon="8.1891817"><ele>155.75</ele><time>2026-04-19T09:25:08.491Z</time></trkpt><trkpt lat="40.771605" lon="8.1891817"><ele>157.0</ele><time>2026-04-19T09:25:09.491Z</time></trkpt><trkpt lat="40.771455" lon="8.1891917"><ele>157.0</ele><time>2026-04-19T09:25:10.49Z</time></trkpt><trkpt lat="40.771295" lon="8.18921"><ele>157.0</ele><time>2026-04-19T09:25:11.49Z</time></trkpt><trkpt lat="40.7711267" lon="8.1892217"><ele>157.0</ele><time>2026-04-19T09:25:12.491Z</time></trkpt><trkpt lat="40.7709517" lon="8.1892683"><ele>156.33333333333334</ele><time>2026-04-19T09:25:13.49Z</time></trkpt><trkpt lat="40.770775" lon="8.1893467"><ele>155.66666666666666</ele><time>2026-04-19T09:25:14.49Z</time></trkpt><trkpt lat="40.77059" lon="8.1894383"><ele>155.0</ele><time>2026-04-19T09:25:15.49Z</time></trkpt><trkpt lat="40.770395" lon="8.1895317"><ele>155.0</ele><time>2026-04-19T09:25:16.49Z</time></trkpt><trkpt lat="40.7702017" lon="8.1896267"><ele>155.0</ele><time>2026-04-19T09:25:17.491Z</time></trkpt><trkpt lat="40.7700067" lon="8.18972"><ele>155.0</ele><time>2026-04-19T09:25:18.491Z</time></trkpt><trkpt lat="40.7698183" lon="8.18981"><ele>154.66666666666666</ele><time>2026-04-19T09:25:19.491Z</time></trkpt><trkpt lat="40.7696283" lon="8.18989"><ele>154.33333333333334</ele><time>2026-04-19T09:25:20.49Z</time></trkpt><trkpt lat="40.7694417" lon="8.1899783"><ele>154.0</ele><time>2026-04-19T09:25:21.49Z</time></trkpt><trkpt lat="40.7692533" lon="8.19007"><ele>156.0</ele><time>2026-04-19T09:25:22.49Z</time></trkpt><trkpt lat="40.7690783" lon="8.1901417"><ele>158.0</ele><time>2026-04-19T09:25:23.49Z</time></trkpt><trkpt lat="40.76891" lon="8.1902083"><ele>160.0</ele><time>2026-04-19T09:25:24.49Z</time></trkpt><trkpt lat="40.7687617" lon="8.19028"><ele>160.0</ele><time>2026-04-19T09:25:25.491Z</time></trkpt><trkpt lat="40.7686067" lon="8.1903433"><ele>160.0</ele><time>2026-04-19T09:25:26.49Z</time></trkpt><trkpt lat="40.7684483" lon="8.190405"><ele>160.0</ele><time>2026-04-19T09:25:27.49Z</time></trkpt><trkpt lat="40.7682967" lon="8.1904617"><ele>161.5</ele><time>2026-04-19T09:25:28.49Z</time></trkpt><trkpt lat="40.7681567" lon="8.1905167"><ele>163.0</ele><time>2026-04-19T09:25:29.49Z</time></trkpt><trkpt lat="40.7680183" lon="8.1905733"><ele>164.5</ele><time>2026-04-19T09:25:30.49Z</time></trkpt><trkpt lat="40.767875" lon="8.19063"><ele>166.0</ele><time>2026-04-19T09:25:31.491Z</time></trkpt><trkpt lat="40.7677417" lon="8.1907"><ele>166.66666666666669</ele><time>2026-04-19T09:25:32.491Z</time></trkpt><trkpt lat="40.7676217" lon="8.1908033"><ele>167.33333333333334</ele><time>2026-04-19T09:25:33.49Z</time></trkpt><trkpt lat="40.7675133" lon="8.1909467"><ele>168.0</ele><time>2026-04-19T09:25:34.49Z</time></trkpt><trkpt lat="40.7674217" lon="8.191115"><ele>168.0</ele><time>2026-04-19T09:25:35.491Z</time></trkpt><trkpt lat="40.76734" lon="8.1912817"><ele>168.0</ele><time>2026-04-19T09:25:36.49Z</time></trkpt><trkpt lat="40.7672717" lon="8.1914183"><ele>168.0</ele><time>2026-04-19T09:25:37.49Z</time></trkpt><trkpt lat="40.7672117" lon="8.191535"><ele>168.0</ele><time>2026-04-19T09:25:38.49Z</time></trkpt><trkpt lat="40.7671517" lon="8.1916433"><ele>168.16666666666666</ele><time>2026-04-19T09:25:39.491Z</time></trkpt><trkpt lat="40.7671" lon="8.1917433"><ele>168.33333333333334</ele><time>2026-04-19T09:25:40.49Z</time></trkpt><trkpt lat="40.767055" lon="8.191835"><ele>168.5</ele><time>2026-04-19T09:25:41.49Z</time></trkpt><trkpt lat="40.7670183" lon="8.19192"><ele>168.66666666666669</ele><time>2026-04-19T09:25:42.491Z</time></trkpt><trkpt lat="40.766955" lon="8.1920433"><ele>168.83333333333334</ele><time>2026-04-19T09:25:44.491Z</time></trkpt><trkpt lat="40.7669483" lon="8.1921417"><ele>169.0</ele><time>2026-04-19T09:25:47.491Z</time></trkpt><trkpt lat="40.76701" lon="8.1920683"><ele>169.0</ele><time>2026-04-19T09:25:50.491Z</time></trkpt><trkpt lat="40.7670433" lon="8.191995"><ele>169.0</ele><time>2026-04-19T09:25:51.49Z</time></trkpt><trkpt lat="40.7670817" lon="8.191905"><ele>169.0</ele><time>2026-04-19T09:25:52.49Z</time></trkpt><trkpt lat="40.767125" lon="8.1918067"><ele>169.0</ele><time>2026-04-19T09:25:53.49Z</time></trkpt><trkpt lat="40.767185" lon="8.1917"><ele>169.0</ele><time>2026-04-19T09:25:54.49Z</time></trkpt><trkpt lat="40.76724" lon="8.1915917"><ele>169.0</ele><time>2026-04-19T09:25:55.491Z</time></trkpt><trkpt lat="40.7672883" lon="8.1915117"><ele>168.83333333333334</ele><time>2026-04-19T09:25:56.49Z</time></trkpt><trkpt lat="40.7673217" lon="8.191435"><ele>168.66666666666669</ele><time>2026-04-19T09:25:57.491Z</time></trkpt><trkpt lat="40.7673567" lon="8.191315"><ele>168.5</ele><time>2026-04-19T09:25:59.491Z</time></trkpt><trkpt lat="40.7673217" lon="8.191245"><ele>168.33333333333334</ele><time>2026-04-19T09:26:01.49Z</time></trkpt><trkpt lat="40.7672317" lon="8.1912617"><ele>168.16666666666666</ele><time>2026-04-19T09:26:39.49Z</time></trkpt><trkpt lat="40.7671367" lon="8.1912817"><ele>168.0</ele><time>2026-04-19T09:26:41.49Z</time></trkpt><trkpt lat="40.767035" lon="8.1912667"><ele>168.0</ele><time>2026-04-19T09:26:43.49Z</time></trkpt><trkpt lat="40.7669567" lon="8.19119"><ele>168.0</ele><time>2026-04-19T09:26:45.489Z</time></trkpt><trkpt lat="40.7668733" lon="8.1910617"><ele>168.0</ele><time>2026-04-19T09:26:47.49Z</time></trkpt><trkpt lat="40.7667833" lon="8.1909383"><ele>168.0</ele><time>2026-04-19T09:26:49.49Z</time></trkpt><trkpt lat="40.766725" lon="8.190895"><ele>168.0</ele><time>2026-04-19T09:26:50.49Z</time></trkpt><trkpt lat="40.76666" lon="8.1908567"><ele>168.42857142857142</ele><time>2026-04-19T09:26:51.489Z</time></trkpt><trkpt lat="40.7665967" lon="8.1908383"><ele>168.85714285714286</ele><time>2026-04-19T09:26:52.49Z</time></trkpt><trkpt lat="40.7665233" lon="8.19082"><ele>169.28571428571428</ele><time>2026-04-19T09:26:53.489Z</time></trkpt><trkpt lat="40.7664483" lon="8.1908067"><ele>169.71428571428572</ele><time>2026-04-19T09:26:54.489Z</time></trkpt><trkpt lat="40.766375" lon="8.1907917"><ele>170.14285714285714</ele><time>2026-04-19T09:26:55.49Z</time></trkpt><trkpt lat="40.766315" lon="8.19076"><ele>170.57142857142856</ele><time>2026-04-19T09:26:56.49Z</time></trkpt><trkpt lat="40.76626" lon="8.1907167"><ele>171.0</ele><time>2026-04-19T09:26:57.489Z</time></trkpt><trkpt lat="40.7661583" lon="8.1906033"><ele>171.66666666666666</ele><time>2026-04-19T09:26:59.49Z</time></trkpt><trkpt lat="40.7661083" lon="8.190525"><ele>172.33333333333334</ele><time>2026-04-19T09:27:00.49Z</time></trkpt><trkpt lat="40.76606" lon="8.1904533"><ele>173.0</ele><time>2026-04-19T09:27:01.489Z</time></trkpt><trkpt lat="40.76596" lon="8.1903483"><ele>173.66666666666669</ele><time>2026-04-19T09:27:03.489Z</time></trkpt><trkpt lat="40.7658833" lon="8.1903067"><ele>174.33333333333334</ele><time>2026-04-19T09:27:04.489Z</time></trkpt><trkpt lat="40.7658" lon="8.19027"><ele>175.0</ele><time>2026-04-19T09:27:05.49Z</time></trkpt><trkpt lat="40.7657083" lon="8.1902267"><ele>175.0</ele><time>2026-04-19T09:27:06.489Z</time></trkpt><trkpt lat="40.7656267" lon="8.1901933"><ele>175.0</ele><time>2026-04-19T09:27:07.49Z</time></trkpt><trkpt lat="40.7655583" lon="8.1901583"><ele>175.0</ele><time>2026-04-19T09:27:08.49Z</time></trkpt><trkpt lat="40.7654833" lon="8.1901417"><ele>175.0</ele><time>2026-04-19T09:27:09.489Z</time></trkpt><trkpt lat="40.7654017" lon="8.1901433"><ele>175.0</ele><time>2026-04-19T09:27:10.489Z</time></trkpt><trkpt lat="40.7653183" lon="8.1901417"><ele>175.0</ele><time>2026-04-19T09:27:11.489Z</time></trkpt><trkpt lat="40.7652467" lon="8.19015"><ele>175.33333333333334</ele><time>2026-04-19T09:27:12.49Z</time></trkpt><trkpt lat="40.7651733" lon="8.190145"><ele>175.66666666666669</ele><time>2026-04-19T09:27:13.49Z</time></trkpt><trkpt lat="40.7651" lon="8.190125"><ele>176.0</ele><time>2026-04-19T09:27:14.489Z</time></trkpt><trkpt lat="40.7650233" lon="8.1900917"><ele>176.33333333333334</ele><time>2026-04-19T09:27:15.489Z</time></trkpt><trkpt lat="40.764955" lon="8.1900417"><ele>176.66666666666666</ele><time>2026-04-19T09:27:16.489Z</time></trkpt><trkpt lat="40.7648967" lon="8.18997"><ele>177.0</ele><time>2026-04-19T09:27:17.49Z</time></trkpt><trkpt lat="40.7648483" lon="8.1898833"><ele>178.2</ele><time>2026-04-19T09:27:18.489Z</time></trkpt><trkpt lat="40.7648067" lon="8.1897817"><ele>179.39999999999998</ele><time>2026-04-19T09:27:19.49Z</time></trkpt><trkpt lat="40.7647733" lon="8.189665"><ele>180.60000000000002</ele><time>2026-04-19T09:27:20.489Z</time></trkpt><trkpt lat="40.7647383" lon="8.1895367"><ele>181.8</ele><time>2026-04-19T09:27:21.489Z</time></trkpt><trkpt lat="40.7647067" lon="8.18941"><ele>183.0</ele><time>2026-04-19T09:27:22.49Z</time></trkpt><trkpt lat="40.7646883" lon="8.1892883"><ele>183.0</ele><time>2026-04-19T09:27:23.489Z</time></trkpt><trkpt lat="40.76467" lon="8.18917"><ele>183.0</ele><time>2026-04-19T09:27:24.49Z</time></trkpt><trkpt lat="40.7646617" lon="8.189055"><ele>183.0</ele><time>2026-04-19T09:27:25.489Z</time></trkpt><trkpt lat="40.76465" lon="8.1889383"><ele>183.0</ele><time>2026-04-19T09:27:26.49Z</time></trkpt><trkpt lat="40.764635" lon="8.188825"><ele>183.0</ele><time>2026-04-19T09:27:27.49Z</time></trkpt><trkpt lat="40.76463" lon="8.188715"><ele>183.0</ele><time>2026-04-19T09:27:28.489Z</time></trkpt><trkpt lat="40.7646183" lon="8.188605"><ele>184.16666666666666</ele><time>2026-04-19T09:27:29.49Z</time></trkpt><trkpt lat="40.7646083" lon="8.1885"><ele>185.33333333333334</ele><time>2026-04-19T09:27:30.489Z</time></trkpt><trkpt lat="40.7645933" lon="8.1883983"><ele>186.5</ele><time>2026-04-19T09:27:31.489Z</time></trkpt><trkpt lat="40.7645667" lon="8.1883083"><ele>187.66666666666669</ele><time>2026-04-19T09:27:32.49Z</time></trkpt><trkpt lat="40.76452" lon="8.188235"><ele>188.83333333333334</ele><time>2026-04-19T09:27:33.489Z</time></trkpt><trkpt lat="40.7644483" lon="8.18818"><ele>190.0</ele><time>2026-04-19T09:27:34.49Z</time></trkpt><trkpt lat="40.7643733" lon="8.1881433"><ele>190.0</ele><time>2026-04-19T09:27:35.49Z</time></trkpt><trkpt lat="40.7642983" lon="8.18811"><ele>190.0</ele><time>2026-04-19T09:27:36.489Z</time></trkpt><trkpt lat="40.7642233" lon="8.1880533"><ele>190.0</ele><time>2026-04-19T09:27:37.489Z</time></trkpt><trkpt lat="40.7641383" lon="8.1879833"><ele>190.0</ele><time>2026-04-19T09:27:38.489Z</time></trkpt><trkpt lat="40.7640567" lon="8.1879083"><ele>190.0</ele><time>2026-04-19T09:27:39.489Z</time></trkpt><trkpt lat="40.76397" lon="8.187835"><ele>190.0</ele><time>2026-04-19T09:27:40.489Z</time></trkpt><trkpt lat="40.7638833" lon="8.1877617"><ele>190.0</ele><time>2026-04-19T09:27:41.49Z</time></trkpt><trkpt lat="40.7638033" lon="8.187675"><ele>190.0</ele><time>2026-04-19T09:27:42.489Z</time></trkpt><trkpt lat="40.7637283" lon="8.1875683"><ele>190.0</ele><time>2026-04-19T09:27:43.49Z</time></trkpt><trkpt lat="40.76366" lon="8.1874617"><ele>190.0</ele><time>2026-04-19T09:27:44.49Z</time></trkpt><trkpt lat="40.7635933" lon="8.1873733"><ele>190.8</ele><time>2026-04-19T09:27:45.489Z</time></trkpt><trkpt lat="40.7635383" lon="8.18728"><ele>191.6</ele><time>2026-04-19T09:27:46.489Z</time></trkpt><trkpt lat="40.7634983" lon="8.1871983"><ele>192.39999999999998</ele><time>2026-04-19T09:27:47.489Z</time></trkpt><trkpt lat="40.7634517" lon="8.1870567"><ele>193.2</ele><time>2026-04-19T09:27:49.49Z</time></trkpt><trkpt lat="40.7634317" lon="8.1869133"><ele>194.0</ele><time>2026-04-19T09:27:51.49Z</time></trkpt><trkpt lat="40.76342" lon="8.18682"><ele>194.0</ele><time>2026-04-19T09:27:52.489Z</time></trkpt><trkpt lat="40.76341" lon="8.1867117"><ele>194.0</ele><time>2026-04-19T09:27:53.489Z</time></trkpt><trkpt lat="40.7633917" lon="8.1866"><ele>194.0</ele><time>2026-04-19T09:27:54.49Z</time></trkpt><trkpt lat="40.7633767" lon="8.1864783"><ele>194.0</ele><time>2026-04-19T09:27:55.49Z</time></trkpt><trkpt lat="40.7633617" lon="8.186345"><ele>194.0</ele><time>2026-04-19T09:27:56.489Z</time></trkpt><trkpt lat="40.763355" lon="8.1862117"><ele>194.79999999999998</ele><time>2026-04-19T09:27:57.489Z</time></trkpt><trkpt lat="40.7633583" lon="8.1860717"><ele>195.6</ele><time>2026-04-19T09:27:58.49Z</time></trkpt><trkpt lat="40.76336" lon="8.1859333"><ele>196.4</ele><time>2026-04-19T09:27:59.489Z</time></trkpt><trkpt lat="40.7633633" lon="8.185815"><ele>197.2</ele><time>2026-04-19T09:28:00.489Z</time></trkpt><trkpt lat="40.7633617" lon="8.1857117"><ele>198.0</ele><time>2026-04-19T09:28:01.49Z</time></trkpt><trkpt lat="40.7633567" lon="8.1856183"><ele>198.60000000000002</ele><time>2026-04-19T09:28:02.489Z</time></trkpt><trkpt lat="40.7633483" lon="8.185535"><ele>199.20000000000002</ele><time>2026-04-19T09:28:03.49Z</time></trkpt><trkpt lat="40.7633067" lon="8.1854083"><ele>199.8</ele><time>2026-04-19T09:28:05.489Z</time></trkpt><trkpt lat="40.76321" lon="8.1852983"><ele>200.4</ele><time>2026-04-19T09:28:07.49Z</time></trkpt><trkpt lat="40.7631333" lon="8.1852517"><ele>201.0</ele><time>2026-04-19T09:28:08.49Z</time></trkpt><trkpt lat="40.7630483" lon="8.18522"><ele>201.0</ele><time>2026-04-19T09:28:09.49Z</time></trkpt><trkpt lat="40.7629767" lon="8.1851917"><ele>201.0</ele><time>2026-04-19T09:28:10.49Z</time></trkpt><trkpt lat="40.762885" lon="8.18517"><ele>201.0</ele><time>2026-04-19T09:28:12.49Z</time></trkpt><trkpt lat="40.76282" lon="8.18514"><ele>201.0</ele><time>2026-04-19T09:28:14.489Z</time></trkpt><trkpt lat="40.7627683" lon="8.1850217"><ele>201.0</ele><time>2026-04-19T09:28:23.489Z</time></trkpt><trkpt lat="40.76275" lon="8.184915"><ele>201.0</ele><time>2026-04-19T09:28:26.489Z</time></trkpt><trkpt lat="40.7627383" lon="8.1848117"><ele>202.0</ele><time>2026-04-19T09:28:30.49Z</time></trkpt><trkpt lat="40.7627233" lon="8.1847"><ele>203.0</ele><time>2026-04-19T09:28:34.489Z</time></trkpt><trkpt lat="40.7627017" lon="8.1846067"><ele>204.0</ele><time>2026-04-19T09:28:36.49Z</time></trkpt><trkpt lat="40.7626717" lon="8.184485"><ele>205.0</ele><time>2026-04-19T09:28:38.49Z</time></trkpt><trkpt lat="40.7626683" lon="8.18437"><ele>206.0</ele><time>2026-04-19T09:28:40.49Z</time></trkpt><trkpt lat="40.76266" lon="8.1842183"><ele>206.00000000000003</ele><time>2026-04-19T09:28:42.489Z</time></trkpt><trkpt lat="40.7626567" lon="8.1841333"><ele>206.0</ele><time>2026-04-19T09:28:43.486Z</time></trkpt><trkpt lat="40.7626483" lon="8.1840467"><ele>206.0</ele><time>2026-04-19T09:28:44.49Z</time></trkpt><trkpt lat="40.762645" lon="8.1839467"><ele>206.0</ele><time>2026-04-19T09:28:45.489Z</time></trkpt><trkpt lat="40.7626433" lon="8.1838383"><ele>206.00000000000003</ele><time>2026-04-19T09:28:46.489Z</time></trkpt><trkpt lat="40.7626333" lon="8.1837267"><ele>206.0</ele><time>2026-04-19T09:28:47.49Z</time></trkpt><trkpt lat="40.762615" lon="8.1836083"><ele>207.16666666666669</ele><time>2026-04-19T09:28:48.489Z</time></trkpt><trkpt lat="40.7625933" lon="8.1834983"><ele>208.33333333333334</ele><time>2026-04-19T09:28:49.49Z</time></trkpt><trkpt lat="40.7625533" lon="8.1833917"><ele>209.5</ele><time>2026-04-19T09:28:50.489Z</time></trkpt><trkpt lat="40.7625067" lon="8.1833017"><ele>210.66666666666669</ele><time>2026-04-19T09:28:51.489Z</time></trkpt><trkpt lat="40.7624583" lon="8.1832267"><ele>211.83333333333334</ele><time>2026-04-19T09:28:52.489Z</time></trkpt><trkpt lat="40.7624083" lon="8.18316"><ele>213.0</ele><time>2026-04-19T09:28:53.49Z</time></trkpt><trkpt lat="40.7623633" lon="8.1830983"><ele>213.83333333333334</ele><time>2026-04-19T09:28:54.49Z</time></trkpt><trkpt lat="40.762315" lon="8.1830383"><ele>214.66666666666669</ele><time>2026-04-19T09:28:55.489Z</time></trkpt><trkpt lat="40.7622633" lon="8.182965"><ele>215.5</ele><time>2026-04-19T09:28:56.49Z</time></trkpt><trkpt lat="40.7622017" lon="8.1828983"><ele>216.33333333333334</ele><time>2026-04-19T09:28:57.489Z</time></trkpt><trkpt lat="40.7621267" lon="8.1828383"><ele>217.16666666666669</ele><time>2026-04-19T09:28:58.489Z</time></trkpt><trkpt lat="40.76204" lon="8.1828"><ele>218.0</ele><time>2026-04-19T09:28:59.49Z</time></trkpt><trkpt lat="40.76194" lon="8.18279"><ele>216.16666666666669</ele><time>2026-04-19T09:29:00.489Z</time></trkpt><trkpt lat="40.7618383" lon="8.182795"><ele>214.33333333333334</ele><time>2026-04-19T09:29:01.489Z</time></trkpt><trkpt lat="40.7617517" lon="8.182805"><ele>212.5</ele><time>2026-04-19T09:29:02.49Z</time></trkpt><trkpt lat="40.761675" lon="8.1828033"><ele>210.66666666666669</ele><time>2026-04-19T09:29:03.489Z</time></trkpt><trkpt lat="40.7615983" lon="8.1828"><ele>208.83333333333334</ele><time>2026-04-19T09:29:04.489Z</time></trkpt><trkpt lat="40.76153" lon="8.182795"><ele>207.0</ele><time>2026-04-19T09:29:05.49Z</time></trkpt><trkpt lat="40.76146" lon="8.1827833"><ele>207.00000000000003</ele><time>2026-04-19T09:29:06.49Z</time></trkpt><trkpt lat="40.7613917" lon="8.1827633"><ele>207.0</ele><time>2026-04-19T09:29:07.49Z</time></trkpt><trkpt lat="40.7613217" lon="8.1827417"><ele>207.0</ele><time>2026-04-19T09:29:08.49Z</time></trkpt><trkpt lat="40.7612517" lon="8.1827217"><ele>207.0</ele><time>2026-04-19T09:29:09.49Z</time></trkpt><trkpt lat="40.7611833" lon="8.182705"><ele>207.0</ele><time>2026-04-19T09:29:10.489Z</time></trkpt><trkpt lat="40.7611117" lon="8.1826883"><ele>207.00000000000003</ele><time>2026-04-19T09:29:11.489Z</time></trkpt><trkpt lat="40.761035" lon="8.1826817"><ele>207.0</ele><time>2026-04-19T09:29:12.49Z</time></trkpt><trkpt lat="40.7609583" lon="8.1826867"><ele>206.0</ele><time>2026-04-19T09:29:13.489Z</time></trkpt><trkpt lat="40.7608717" lon="8.1827017"><ele>205.0</ele><time>2026-04-19T09:29:14.489Z</time></trkpt><trkpt lat="40.76079" lon="8.182705"><ele>204.0</ele><time>2026-04-19T09:29:15.489Z</time></trkpt><trkpt lat="40.7607" lon="8.18269"><ele>203.0</ele><time>2026-04-19T09:29:16.49Z</time></trkpt><trkpt lat="40.7606183" lon="8.1826733"><ele>202.0</ele><time>2026-04-19T09:29:17.489Z</time></trkpt><trkpt lat="40.7605283" lon="8.1826583"><ele>201.0</ele><time>2026-04-19T09:29:18.489Z</time></trkpt><trkpt lat="40.7604333" lon="8.1826533"><ele>201.0</ele><time>2026-04-19T09:29:19.489Z</time></trkpt><trkpt lat="40.76033" lon="8.1826467"><ele>201.0</ele><time>2026-04-19T09:29:20.49Z</time></trkpt><trkpt lat="40.76022" lon="8.1826467"><ele>201.0</ele><time>2026-04-19T09:29:21.49Z</time></trkpt><trkpt lat="40.7601217" lon="8.1826533"><ele>201.0</ele><time>2026-04-19T09:29:22.489Z</time></trkpt><trkpt lat="40.76005" lon="8.18266"><ele>201.0</ele><time>2026-04-19T09:29:23.49Z</time></trkpt><trkpt lat="40.7599517" lon="8.1826717"><ele>200.0</ele><time>2026-04-19T09:29:25.49Z</time></trkpt><trkpt lat="40.7598867" lon="8.1826517"><ele>199.0</ele><time>2026-04-19T09:29:27.49Z</time></trkpt><trkpt lat="40.75982" lon="8.182645"><ele>198.0</ele><time>2026-04-19T09:29:29.489Z</time></trkpt><trkpt lat="40.759765" lon="8.1826867"><ele>197.0</ele><time>2026-04-19T09:29:31.489Z</time></trkpt><trkpt lat="40.7597017" lon="8.1827283"><ele>196.0</ele><time>2026-04-19T09:29:33.49Z</time></trkpt><trkpt lat="40.7596083" lon="8.182745"><ele>195.0</ele><time>2026-04-19T09:29:35.49Z</time></trkpt><trkpt lat="40.759495" lon="8.182725"><ele>195.0</ele><time>2026-04-19T09:29:37.489Z</time></trkpt><trkpt lat="40.7594317" lon="8.1827083"><ele>195.0</ele><time>2026-04-19T09:29:38.489Z</time></trkpt><trkpt lat="40.75937" lon="8.18269"><ele>195.0</ele><time>2026-04-19T09:29:39.489Z</time></trkpt><trkpt lat="40.7593" lon="8.182675"><ele>195.0</ele><time>2026-04-19T09:29:40.489Z</time></trkpt><trkpt lat="40.7592283" lon="8.182665"><ele>195.0</ele><time>2026-04-19T09:29:41.49Z</time></trkpt><trkpt lat="40.7591567" lon="8.1826533"><ele>195.0</ele><time>2026-04-19T09:29:42.489Z</time></trkpt><trkpt lat="40.7590867" lon="8.1826333"><ele>195.0</ele><time>2026-04-19T09:29:43.489Z</time></trkpt><trkpt lat="40.7590133" lon="8.1826133"><ele>194.16666666666666</ele><time>2026-04-19T09:29:44.489Z</time></trkpt><trkpt lat="40.7589417" lon="8.1825967"><ele>193.33333333333334</ele><time>2026-04-19T09:29:45.489Z</time></trkpt><trkpt lat="40.758865" lon="8.1825717"><ele>192.5</ele><time>2026-04-19T09:29:46.489Z</time></trkpt><trkpt lat="40.75879" lon="8.1825433"><ele>191.66666666666669</ele><time>2026-04-19T09:29:47.489Z</time></trkpt><trkpt lat="40.7587067" lon="8.1825033"><ele>190.83333333333334</ele><time>2026-04-19T09:29:48.489Z</time></trkpt><trkpt lat="40.7586283" lon="8.1824683"><ele>190.0</ele><time>2026-04-19T09:29:49.49Z</time></trkpt><trkpt lat="40.7585483" lon="8.18245"><ele>190.0</ele><time>2026-04-19T09:29:50.489Z</time></trkpt><trkpt lat="40.7584683" lon="8.18246"><ele>190.0</ele><time>2026-04-19T09:29:51.489Z</time></trkpt><trkpt lat="40.75839" lon="8.182505"><ele>190.0</ele><time>2026-04-19T09:29:52.489Z</time></trkpt><trkpt lat="40.7583183" lon="8.1825617"><ele>190.0</ele><time>2026-04-19T09:29:53.49Z</time></trkpt><trkpt lat="40.7582467" lon="8.1826183"><ele>190.0</ele><time>2026-04-19T09:29:54.49Z</time></trkpt><trkpt lat="40.7581783" lon="8.1826667"><ele>190.0</ele><time>2026-04-19T09:29:55.489Z</time></trkpt><trkpt lat="40.758115" lon="8.1827133"><ele>190.0</ele><time>2026-04-19T09:29:56.489Z</time></trkpt><trkpt lat="40.7580467" lon="8.182735"><ele>190.0</ele><time>2026-04-19T09:29:57.489Z</time></trkpt><trkpt lat="40.7579717" lon="8.18275"><ele>190.0</ele><time>2026-04-19T09:29:58.49Z</time></trkpt><trkpt lat="40.7578967" lon="8.1827617"><ele>190.0</ele><time>2026-04-19T09:29:59.489Z</time></trkpt><trkpt lat="40.7578217" lon="8.1827683"><ele>190.0</ele><time>2026-04-19T09:30:00.49Z</time></trkpt><trkpt lat="40.7577517" lon="8.18278"><ele>190.0</ele><time>2026-04-19T09:30:01.489Z</time></trkpt><trkpt lat="40.7576883" lon="8.1827933"><ele>190.0</ele><time>2026-04-19T09:30:02.49Z</time></trkpt><trkpt lat="40.757575" lon="8.1828067"><ele>189.33333333333334</ele><time>2026-04-19T09:30:04.489Z</time></trkpt><trkpt lat="40.7574717" lon="8.1827717"><ele>188.66666666666669</ele><time>2026-04-19T09:30:06.489Z</time></trkpt><trkpt lat="40.7573667" lon="8.1826967"><ele>188.0</ele><time>2026-04-19T09:30:08.49Z</time></trkpt><trkpt lat="40.75732" lon="8.1826383"><ele>187.33333333333334</ele><time>2026-04-19T09:30:09.489Z</time></trkpt><trkpt lat="40.7572683" lon="8.1825717"><ele>186.66666666666666</ele><time>2026-04-19T09:30:10.49Z</time></trkpt><trkpt lat="40.7572183" lon="8.18251"><ele>186.0</ele><time>2026-04-19T09:30:11.489Z</time></trkpt><trkpt lat="40.7571583" lon="8.1824583"><ele>186.0</ele><time>2026-04-19T09:30:12.49Z</time></trkpt><trkpt lat="40.7570433" lon="8.1824"><ele>186.0</ele><time>2026-04-19T09:30:14.49Z</time></trkpt><trkpt lat="40.7569533" lon="8.182365"><ele>186.0</ele><time>2026-04-19T09:30:16.49Z</time></trkpt><trkpt lat="40.75685" lon="8.1823517"><ele>186.0</ele><time>2026-04-19T09:30:18.489Z</time></trkpt><trkpt lat="40.7567767" lon="8.1823617"><ele>186.0</ele><time>2026-04-19T09:30:19.489Z</time></trkpt><trkpt lat="40.7566833" lon="8.1823867"><ele>184.25</ele><time>2026-04-19T09:30:20.49Z</time></trkpt><trkpt lat="40.7565767" lon="8.1824317"><ele>182.5</ele><time>2026-04-19T09:30:21.489Z</time></trkpt><trkpt lat="40.75646" lon="8.1824867"><ele>180.75</ele><time>2026-04-19T09:30:22.49Z</time></trkpt><trkpt lat="40.7563467" lon="8.1825567"><ele>179.0</ele><time>2026-04-19T09:30:23.49Z</time></trkpt><trkpt lat="40.7562367" lon="8.1826233"><ele>179.0</ele><time>2026-04-19T09:30:24.489Z</time></trkpt><trkpt lat="40.7561383" lon="8.1826817"><ele>179.0</ele><time>2026-04-19T09:30:25.49Z</time></trkpt><trkpt lat="40.75605" lon="8.1827367"><ele>179.0</ele><time>2026-04-19T09:30:26.489Z</time></trkpt><trkpt lat="40.755975" lon="8.18278"><ele>179.0</ele><time>2026-04-19T09:30:27.489Z</time></trkpt><trkpt lat="40.75591" lon="8.1828117"><ele>179.0</ele><time>2026-04-19T09:30:28.49Z</time></trkpt><trkpt lat="40.7557967" lon="8.1828233"><ele>178.83333333333331</ele><time>2026-04-19T09:30:30.49Z</time></trkpt><trkpt lat="40.7557333" lon="8.1828083"><ele>178.66666666666666</ele><time>2026-04-19T09:30:31.489Z</time></trkpt><trkpt lat="40.7556667" lon="8.1827733"><ele>178.5</ele><time>2026-04-19T09:30:32.489Z</time></trkpt><trkpt lat="40.755585" lon="8.18275"><ele>178.33333333333334</ele><time>2026-04-19T09:30:33.49Z</time></trkpt><trkpt lat="40.755505" lon="8.1827417"><ele>178.16666666666669</ele><time>2026-04-19T09:30:34.489Z</time></trkpt><trkpt lat="40.7554217" lon="8.1827533"><ele>178.0</ele><time>2026-04-19T09:30:35.489Z</time></trkpt><trkpt lat="40.75534" lon="8.182765"><ele>178.0</ele><time>2026-04-19T09:30:36.49Z</time></trkpt><trkpt lat="40.7552617" lon="8.1827833"><ele>178.0</ele><time>2026-04-19T09:30:37.489Z</time></trkpt><trkpt lat="40.7551833" lon="8.1827983"><ele>178.0</ele><time>2026-04-19T09:30:38.489Z</time></trkpt><trkpt lat="40.7551117" lon="8.1828083"><ele>178.0</ele><time>2026-04-19T09:30:39.49Z</time></trkpt><trkpt lat="40.7550383" lon="8.18281"><ele>178.0</ele><time>2026-04-19T09:30:40.49Z</time></trkpt><trkpt lat="40.754965" lon="8.1828"><ele>178.0</ele><time>2026-04-19T09:30:41.489Z</time></trkpt><trkpt lat="40.7548933" lon="8.1827867"><ele>175.66666666666669</ele><time>2026-04-19T09:30:42.489Z</time></trkpt><trkpt lat="40.7548217" lon="8.18277"><ele>173.33333333333334</ele><time>2026-04-19T09:30:43.489Z</time></trkpt><trkpt lat="40.7547467" lon="8.1827533"><ele>171.0</ele><time>2026-04-19T09:30:44.489Z</time></trkpt><trkpt lat="40.75468" lon="8.1827417"><ele>168.66666666666666</ele><time>2026-04-19T09:30:45.489Z</time></trkpt><trkpt lat="40.7545867" lon="8.1827217"><ele>166.33333333333331</ele><time>2026-04-19T09:30:47.49Z</time></trkpt><trkpt lat="40.7545233" lon="8.1826817"><ele>164.0</ele><time>2026-04-19T09:30:49.49Z</time></trkpt><trkpt lat="40.7544567" lon="8.1825617"><ele>164.0</ele><time>2026-04-19T09:30:51.489Z</time></trkpt><trkpt lat="40.7544233" lon="8.18249"><ele>164.0</ele><time>2026-04-19T09:30:52.49Z</time></trkpt><trkpt lat="40.7543783" lon="8.18242"><ele>164.0</ele><time>2026-04-19T09:30:53.489Z</time></trkpt><trkpt lat="40.7543267" lon="8.1823617"><ele>164.0</ele><time>2026-04-19T09:30:54.489Z</time></trkpt><trkpt lat="40.75427" lon="8.1823183"><ele>164.0</ele><time>2026-04-19T09:30:55.489Z</time></trkpt><trkpt lat="40.7541633" lon="8.1822933"><ele>164.0</ele><time>2026-04-19T09:30:57.489Z</time></trkpt><trkpt lat="40.7540633" lon="8.182285"><ele>160.0</ele><time>2026-04-19T09:30:59.49Z</time></trkpt><trkpt lat="40.7539983" lon="8.1822217"><ele>156.0</ele><time>2026-04-19T09:31:01.489Z</time></trkpt><trkpt lat="40.75396" lon="8.1821317"><ele>152.0</ele><time>2026-04-19T09:31:03.49Z</time></trkpt><trkpt lat="40.7539383" lon="8.1820383"><ele>148.0</ele><time>2026-04-19T09:31:05.489Z</time></trkpt><trkpt lat="40.7539683" lon="8.1819067"><ele>144.0</ele><time>2026-04-19T09:31:07.489Z</time></trkpt><trkpt lat="40.7540317" lon="8.1817817"><ele>144.0</ele><time>2026-04-19T09:31:09.49Z</time></trkpt><trkpt lat="40.7541433" lon="8.1817017"><ele>144.0</ele><time>2026-04-19T09:31:11.489Z</time></trkpt><trkpt lat="40.7542717" lon="8.1816933"><ele>144.0</ele><time>2026-04-19T09:31:13.49Z</time></trkpt><trkpt lat="40.75434" lon="8.1817083"><ele>144.0</ele><time>2026-04-19T09:31:14.489Z</time></trkpt><trkpt lat="40.7544117" lon="8.18172"><ele>144.0</ele><time>2026-04-19T09:31:15.49Z</time></trkpt><trkpt lat="40.7544867" lon="8.181735"><ele>143.71428571428572</ele><time>2026-04-19T09:31:16.49Z</time></trkpt><trkpt lat="40.75456" lon="8.1817483"><ele>143.42857142857144</ele><time>2026-04-19T09:31:17.49Z</time></trkpt><trkpt lat="40.7546333" lon="8.1817583"><ele>143.14285714285714</ele><time>2026-04-19T09:31:18.49Z</time></trkpt><trkpt lat="40.7547033" lon="8.1817467"><ele>142.85714285714286</ele><time>2026-04-19T09:31:19.489Z</time></trkpt><trkpt lat="40.75477" lon="8.1817183"><ele>142.57142857142856</ele><time>2026-04-19T09:31:20.489Z</time></trkpt><trkpt lat="40.7548217" lon="8.1816683"><ele>142.28571428571428</ele><time>2026-04-19T09:31:21.489Z</time></trkpt><trkpt lat="40.754865" lon="8.1816"><ele>142.0</ele><time>2026-04-19T09:31:22.49Z</time></trkpt><trkpt lat="40.7548833" lon="8.1814983"><ele>142.0</ele><time>2026-04-19T09:31:23.49Z</time></trkpt><trkpt lat="40.7548883" lon="8.18139"><ele>142.0</ele><time>2026-04-19T09:31:24.49Z</time></trkpt><trkpt lat="40.75489" lon="8.1812617"><ele>142.0</ele><time>2026-04-19T09:31:25.49Z</time></trkpt><trkpt lat="40.7548883" lon="8.181125"><ele>142.0</ele><time>2026-04-19T09:31:26.489Z</time></trkpt><trkpt lat="40.7548817" lon="8.18098"><ele>142.0</ele><time>2026-04-19T09:31:27.49Z</time></trkpt><trkpt lat="40.7548733" lon="8.1808333"><ele>142.0</ele><time>2026-04-19T09:31:28.49Z</time></trkpt><trkpt lat="40.7548617" lon="8.1807"><ele>142.0</ele><time>2026-04-19T09:31:29.49Z</time></trkpt><trkpt lat="40.754845" lon="8.180575"><ele>142.0</ele><time>2026-04-19T09:31:30.489Z</time></trkpt><trkpt lat="40.75485" lon="8.1804633"><ele>142.0</ele><time>2026-04-19T09:31:31.489Z</time></trkpt><trkpt lat="40.7548667" lon="8.1803583"><ele>142.0</ele><time>2026-04-19T09:31:32.489Z</time></trkpt><trkpt lat="40.7548817" lon="8.1802617"><ele>142.0</ele><time>2026-04-19T09:31:33.489Z</time></trkpt><trkpt lat="40.7548783" lon="8.180165"><ele>140.2</ele><time>2026-04-19T09:31:34.489Z</time></trkpt><trkpt lat="40.754865" lon="8.1800583"><ele>138.39999999999998</ele><time>2026-04-19T09:31:35.489Z</time></trkpt><trkpt lat="40.7548383" lon="8.17994"><ele>136.60000000000002</ele><time>2026-04-19T09:31:36.49Z</time></trkpt><trkpt lat="40.7547967" lon="8.1797983"><ele>134.8</ele><time>2026-04-19T09:31:37.49Z</time></trkpt><trkpt lat="40.7547433" lon="8.17966"><ele>133.0</ele><time>2026-04-19T09:31:38.489Z</time></trkpt><trkpt lat="40.7546767" lon="8.179515"><ele>132.25</ele><time>2026-04-19T09:31:39.489Z</time></trkpt><trkpt lat="40.7546133" lon="8.17936"><ele>131.5</ele><time>2026-04-19T09:31:40.489Z</time></trkpt><trkpt lat="40.7545433" lon="8.1792317"><ele>130.75</ele><time>2026-04-19T09:31:41.489Z</time></trkpt><trkpt lat="40.75447" lon="8.179115"><ele>130.0</ele><time>2026-04-19T09:31:42.49Z</time></trkpt><trkpt lat="40.7543967" lon="8.1790017"><ele>131.0</ele><time>2026-04-19T09:31:43.489Z</time></trkpt><trkpt lat="40.7543033" lon="8.1789"><ele>132.0</ele><time>2026-04-19T09:31:44.489Z</time></trkpt><trkpt lat="40.7542" lon="8.1787867"><ele>133.0</ele><time>2026-04-19T09:31:45.49Z</time></trkpt><trkpt lat="40.7540983" lon="8.1786883"><ele>134.0</ele><time>2026-04-19T09:31:46.489Z</time></trkpt><trkpt lat="40.753995" lon="8.178605"><ele>134.0</ele><time>2026-04-19T09:31:47.489Z</time></trkpt><trkpt lat="40.7539" lon="8.178535"><ele>134.0</ele><time>2026-04-19T09:31:48.489Z</time></trkpt><trkpt lat="40.7538217" lon="8.17847"><ele>134.0</ele><time>2026-04-19T09:31:49.49Z</time></trkpt><trkpt lat="40.7537433" lon="8.1784067"><ele>134.0</ele><time>2026-04-19T09:31:50.49Z</time></trkpt><trkpt lat="40.753675" lon="8.1783617"><ele>134.0</ele><time>2026-04-19T09:31:51.489Z</time></trkpt><trkpt lat="40.7536167" lon="8.1783133"><ele>134.0</ele><time>2026-04-19T09:31:52.489Z</time></trkpt><trkpt lat="40.7535417" lon="8.1782017"><ele>133.5</ele><time>2026-04-19T09:31:54.49Z</time></trkpt><trkpt lat="40.7535317" lon="8.1781183"><ele>133.0</ele><time>2026-04-19T09:31:55.49Z</time></trkpt><trkpt lat="40.7535383" lon="8.17802"><ele>132.5</ele><time>2026-04-19T09:31:56.49Z</time></trkpt><trkpt lat="40.7535683" lon="8.1779083"><ele>132.0</ele><time>2026-04-19T09:31:57.489Z</time></trkpt><trkpt lat="40.7535833" lon="8.1777967"><ele>131.5</ele><time>2026-04-19T09:31:58.489Z</time></trkpt><trkpt lat="40.7535783" lon="8.17768"><ele>131.0</ele><time>2026-04-19T09:31:59.49Z</time></trkpt><trkpt lat="40.7535533" lon="8.1775617"><ele>129.2</ele><time>2026-04-19T09:32:00.49Z</time></trkpt><trkpt lat="40.7535017" lon="8.1774433"><ele>127.39999999999999</ele><time>2026-04-19T09:32:01.49Z</time></trkpt><trkpt lat="40.7534383" lon="8.1773383"><ele>125.6</ele><time>2026-04-19T09:32:02.489Z</time></trkpt><trkpt lat="40.7533717" lon="8.1772233"><ele>123.8</ele><time>2026-04-19T09:32:03.489Z</time></trkpt><trkpt lat="40.7533133" lon="8.1771083"><ele>122.0</ele><time>2026-04-19T09:32:04.49Z</time></trkpt><trkpt lat="40.753255" lon="8.177005"><ele>121.49999999999999</ele><time>2026-04-19T09:32:05.49Z</time></trkpt><trkpt lat="40.753195" lon="8.1769217"><ele>121.0</ele><time>2026-04-19T09:32:06.489Z</time></trkpt><trkpt lat="40.753145" lon="8.176855"><ele>120.5</ele><time>2026-04-19T09:32:07.49Z</time></trkpt><trkpt lat="40.7530883" lon="8.176785"><ele>120.0</ele><time>2026-04-19T09:32:08.49Z</time></trkpt><trkpt lat="40.7530183" lon="8.1767233"><ele>119.49999999999999</ele><time>2026-04-19T09:32:09.489Z</time></trkpt><trkpt lat="40.7529517" lon="8.176675"><ele>119.0</ele><time>2026-04-19T09:32:10.489Z</time></trkpt><trkpt lat="40.75289" lon="8.17663"><ele>118.99999999999999</ele><time>2026-04-19T09:32:11.49Z</time></trkpt><trkpt lat="40.7528267" lon="8.1765683"><ele>119.0</ele><time>2026-04-19T09:32:12.489Z</time></trkpt><trkpt lat="40.752775" lon="8.1765017"><ele>119.0</ele><time>2026-04-19T09:32:13.49Z</time></trkpt><trkpt lat="40.752725" lon="8.1764217"><ele>119.0</ele><time>2026-04-19T09:32:14.49Z</time></trkpt><trkpt lat="40.7526733" lon="8.176325"><ele>118.99999999999999</ele><time>2026-04-19T09:32:15.49Z</time></trkpt><trkpt lat="40.7526267" lon="8.17623"><ele>119.0</ele><time>2026-04-19T09:32:16.489Z</time></trkpt><trkpt lat="40.7525917" lon="8.176125"><ele>117.80000000000001</ele><time>2026-04-19T09:32:17.489Z</time></trkpt><trkpt lat="40.7525717" lon="8.1760283"><ele>116.60000000000001</ele><time>2026-04-19T09:32:18.489Z</time></trkpt><trkpt lat="40.7525583" lon="8.17594"><ele>115.4</ele><time>2026-04-19T09:32:19.489Z</time></trkpt><trkpt lat="40.7525517" lon="8.1757967"><ele>114.2</ele><time>2026-04-19T09:32:21.489Z</time></trkpt><trkpt lat="40.7525033" lon="8.1756883"><ele>113.0</ele><time>2026-04-19T09:32:23.489Z</time></trkpt><trkpt lat="40.75242" lon="8.1755983"><ele>109.5</ele><time>2026-04-19T09:32:25.49Z</time></trkpt><trkpt lat="40.75231" lon="8.1755717"><ele>106.0</ele><time>2026-04-19T09:32:27.489Z</time></trkpt><trkpt lat="40.75219" lon="8.175605"><ele>102.5</ele><time>2026-04-19T09:32:29.489Z</time></trkpt><trkpt lat="40.75208" lon="8.1755883"><ele>99.0</ele><time>2026-04-19T09:32:31.49Z</time></trkpt><trkpt lat="40.752" lon="8.1754667"><ele>99.0</ele><time>2026-04-19T09:32:33.49Z</time></trkpt><trkpt lat="40.7519783" lon="8.17537"><ele>99.0</ele><time>2026-04-19T09:32:34.489Z</time></trkpt><trkpt lat="40.7519667" lon="8.1752617"><ele>99.0</ele><time>2026-04-19T09:32:35.489Z</time></trkpt><trkpt lat="40.7519667" lon="8.1751567"><ele>99.0</ele><time>2026-04-19T09:32:36.49Z</time></trkpt><trkpt lat="40.751975" lon="8.1750617"><ele>99.0</ele><time>2026-04-19T09:32:37.489Z</time></trkpt><trkpt lat="40.7519767" lon="8.17497"><ele>99.0</ele><time>2026-04-19T09:32:38.49Z</time></trkpt><trkpt lat="40.751965" lon="8.1748667"><ele>96.66666666666667</ele><time>2026-04-19T09:32:39.49Z</time></trkpt><trkpt lat="40.751955" lon="8.1747733"><ele>94.33333333333333</ele><time>2026-04-19T09:32:40.489Z</time></trkpt><trkpt lat="40.751945" lon="8.1746867"><ele>92.0</ele><time>2026-04-19T09:32:41.489Z</time></trkpt><trkpt lat="40.7519383" lon="8.1745983"><ele>89.66666666666666</ele><time>2026-04-19T09:32:42.489Z</time></trkpt><trkpt lat="40.7519383" lon="8.1745133"><ele>87.33333333333333</ele><time>2026-04-19T09:32:43.489Z</time></trkpt><trkpt lat="40.7519333" lon="8.1743567"><ele>85.0</ele><time>2026-04-19T09:32:45.489Z</time></trkpt><trkpt lat="40.7519283" lon="8.1742733"><ele>85.0</ele><time>2026-04-19T09:32:46.489Z</time></trkpt><trkpt lat="40.7519167" lon="8.1741867"><ele>85.0</ele><time>2026-04-19T09:32:47.489Z</time></trkpt><trkpt lat="40.7518983" lon="8.1740383"><ele>85.0</ele><time>2026-04-19T09:32:49.49Z</time></trkpt><trkpt lat="40.7518883" lon="8.1739033"><ele>85.0</ele><time>2026-04-19T09:32:51.49Z</time></trkpt><trkpt lat="40.7518817" lon="8.17375"><ele>85.0</ele><time>2026-04-19T09:32:53.489Z</time></trkpt><trkpt lat="40.7519117" lon="8.1736017"><ele>83.66666666666666</ele><time>2026-04-19T09:32:55.489Z</time></trkpt><trkpt lat="40.7519267" lon="8.1735133"><ele>82.33333333333333</ele><time>2026-04-19T09:32:56.489Z</time></trkpt><trkpt lat="40.75194" lon="8.1734183"><ele>81.0</ele><time>2026-04-19T09:32:57.489Z</time></trkpt><trkpt lat="40.751965" lon="8.1733067"><ele>79.66666666666667</ele><time>2026-04-19T09:32:58.489Z</time></trkpt><trkpt lat="40.7519933" lon="8.173195"><ele>78.33333333333334</ele><time>2026-04-19T09:32:59.489Z</time></trkpt><trkpt lat="40.752025" lon="8.1730667"><ele>77.0</ele><time>2026-04-19T09:33:00.489Z</time></trkpt><trkpt lat="40.7520533" lon="8.1729283"><ele>77.0</ele><time>2026-04-19T09:33:01.49Z</time></trkpt><trkpt lat="40.752075" lon="8.172805"><ele>77.0</ele><time>2026-04-19T09:33:02.489Z</time></trkpt><trkpt lat="40.7520933" lon="8.1726817"><ele>77.0</ele><time>2026-04-19T09:33:03.489Z</time></trkpt><trkpt lat="40.7521117" lon="8.1725517"><ele>77.0</ele><time>2026-04-19T09:33:04.489Z</time></trkpt><trkpt lat="40.7521167" lon="8.1724217"><ele>77.0</ele><time>2026-04-19T09:33:05.489Z</time></trkpt><trkpt lat="40.7521183" lon="8.17229"><ele>76.83333333333334</ele><time>2026-04-19T09:33:06.489Z</time></trkpt><trkpt lat="40.7521133" lon="8.17217"><ele>76.66666666666667</ele><time>2026-04-19T09:33:07.49Z</time></trkpt><trkpt lat="40.7521" lon="8.17206"><ele>76.5</ele><time>2026-04-19T09:33:08.489Z</time></trkpt><trkpt lat="40.7520933" lon="8.1719483"><ele>76.33333333333333</ele><time>2026-04-19T09:33:09.49Z</time></trkpt><trkpt lat="40.7520867" lon="8.1718367"><ele>76.16666666666666</ele><time>2026-04-19T09:33:10.489Z</time></trkpt><trkpt lat="40.7520833" lon="8.1717283"><ele>76.0</ele><time>2026-04-19T09:33:11.489Z</time></trkpt><trkpt lat="40.7520867" lon="8.17161"><ele>76.0</ele><time>2026-04-19T09:33:12.489Z</time></trkpt><trkpt lat="40.752095" lon="8.1714833"><ele>76.0</ele><time>2026-04-19T09:33:13.489Z</time></trkpt><trkpt lat="40.7520983" lon="8.1713583"><ele>76.0</ele><time>2026-04-19T09:33:14.489Z</time></trkpt><trkpt lat="40.7520767" lon="8.17124"><ele>76.0</ele><time>2026-04-19T09:33:15.49Z</time></trkpt><trkpt lat="40.7520533" lon="8.1711317"><ele>76.0</ele><time>2026-04-19T09:33:16.49Z</time></trkpt><trkpt lat="40.7520167" lon="8.1710333"><ele>76.0</ele><time>2026-04-19T09:33:17.49Z</time></trkpt><trkpt lat="40.751975" lon="8.1709383"><ele>76.0</ele><time>2026-04-19T09:33:18.489Z</time></trkpt><trkpt lat="40.75192" lon="8.1708483"><ele>76.0</ele><time>2026-04-19T09:33:19.49Z</time></trkpt><trkpt lat="40.7518683" lon="8.1707517"><ele>76.0</ele><time>2026-04-19T09:33:20.49Z</time></trkpt><trkpt lat="40.75182" lon="8.1706567"><ele>76.0</ele><time>2026-04-19T09:33:21.489Z</time></trkpt><trkpt lat="40.7517833" lon="8.1705533"><ele>76.0</ele><time>2026-04-19T09:33:22.489Z</time></trkpt><trkpt lat="40.7517467" lon="8.1704483"><ele>75.0</ele><time>2026-04-19T09:33:23.489Z</time></trkpt><trkpt lat="40.7517083" lon="8.170345"><ele>74.0</ele><time>2026-04-19T09:33:24.489Z</time></trkpt><trkpt lat="40.7516667" lon="8.17024"><ele>73.0</ele><time>2026-04-19T09:33:25.49Z</time></trkpt><trkpt lat="40.7516217" lon="8.170135"><ele>72.0</ele><time>2026-04-19T09:33:26.489Z</time></trkpt><trkpt lat="40.7515917" lon="8.1700033"><ele>71.0</ele><time>2026-04-19T09:33:27.49Z</time></trkpt><trkpt lat="40.7515717" lon="8.1698517"><ele>70.2</ele><time>2026-04-19T09:33:28.489Z</time></trkpt><trkpt lat="40.7515517" lon="8.16969"><ele>69.39999999999999</ele><time>2026-04-19T09:33:29.49Z</time></trkpt><trkpt lat="40.751525" lon="8.1695417"><ele>68.6</ele><time>2026-04-19T09:33:30.489Z</time></trkpt><trkpt lat="40.75151" lon="8.1694017"><ele>67.8</ele><time>2026-04-19T09:33:31.489Z</time></trkpt><trkpt lat="40.7514867" lon="8.1692733"><ele>67.0</ele><time>2026-04-19T09:33:32.489Z</time></trkpt><trkpt lat="40.75147" lon="8.16914"><ele>66.2</ele><time>2026-04-19T09:33:33.489Z</time></trkpt><trkpt lat="40.751455" lon="8.1690167"><ele>65.4</ele><time>2026-04-19T09:33:34.489Z</time></trkpt><trkpt lat="40.75143" lon="8.16889"><ele>64.6</ele><time>2026-04-19T09:33:35.489Z</time></trkpt><trkpt lat="40.7513933" lon="8.16875"><ele>63.8</ele><time>2026-04-19T09:33:36.489Z</time></trkpt><trkpt lat="40.751355" lon="8.168605"><ele>63.0</ele><time>2026-04-19T09:33:37.489Z</time></trkpt><trkpt lat="40.751325" lon="8.16847"><ele>63.0</ele><time>2026-04-19T09:33:38.489Z</time></trkpt><trkpt lat="40.7513" lon="8.168345"><ele>63.0</ele><time>2026-04-19T09:33:39.489Z</time></trkpt><trkpt lat="40.751275" lon="8.1682267"><ele>63.0</ele><time>2026-04-19T09:33:40.49Z</time></trkpt><trkpt lat="40.7512433" lon="8.1681267"><ele>63.0</ele><time>2026-04-19T09:33:41.489Z</time></trkpt><trkpt lat="40.751205" lon="8.1680483"><ele>63.0</ele><time>2026-04-19T09:33:42.49Z</time></trkpt><trkpt lat="40.7511467" lon="8.1679883"><ele>63.0</ele><time>2026-04-19T09:33:43.49Z</time></trkpt><trkpt lat="40.7510867" lon="8.1679367"><ele>62.166666666666664</ele><time>2026-04-19T09:33:44.489Z</time></trkpt><trkpt lat="40.7510317" lon="8.1678667"><ele>61.33333333333333</ele><time>2026-04-19T09:33:45.488Z</time></trkpt><trkpt lat="40.750985" lon="8.16776"><ele>60.5</ele><time>2026-04-19T09:33:46.488Z</time></trkpt><trkpt lat="40.750935" lon="8.1676417"><ele>59.666666666666664</ele><time>2026-04-19T09:33:47.489Z</time></trkpt><trkpt lat="40.750895" lon="8.167535"><ele>58.83333333333333</ele><time>2026-04-19T09:33:48.489Z</time></trkpt><trkpt lat="40.750865" lon="8.1674367"><ele>58.0</ele><time>2026-04-19T09:33:49.489Z</time></trkpt><trkpt lat="40.7508467" lon="8.1673467"><ele>58.0</ele><time>2026-04-19T09:33:50.489Z</time></trkpt><trkpt lat="40.750815" lon="8.1671917"><ele>58.0</ele><time>2026-04-19T09:33:52.488Z</time></trkpt><trkpt lat="40.7508083" lon="8.1671017"><ele>58.0</ele><time>2026-04-19T09:33:53.488Z</time></trkpt><trkpt lat="40.750795" lon="8.1669917"><ele>58.0</ele><time>2026-04-19T09:33:54.488Z</time></trkpt><trkpt lat="40.75078" lon="8.1668633"><ele>58.0</ele><time>2026-04-19T09:33:55.489Z</time></trkpt><trkpt lat="40.7507733" lon="8.166735"><ele>58.0</ele><time>2026-04-19T09:33:56.489Z</time></trkpt><trkpt lat="40.750755" lon="8.16661"><ele>58.0</ele><time>2026-04-19T09:33:57.488Z</time></trkpt><trkpt lat="40.7507533" lon="8.1664833"><ele>58.0</ele><time>2026-04-19T09:33:58.488Z</time></trkpt><trkpt lat="40.7507633" lon="8.166345"><ele>58.0</ele><time>2026-04-19T09:33:59.489Z</time></trkpt><trkpt lat="40.7507767" lon="8.1662033"><ele>58.0</ele><time>2026-04-19T09:34:00.489Z</time></trkpt><trkpt lat="40.75078" lon="8.1660583"><ele>57.599999999999994</ele><time>2026-04-19T09:34:01.488Z</time></trkpt><trkpt lat="40.750775" lon="8.165925"><ele>57.199999999999996</ele><time>2026-04-19T09:34:02.489Z</time></trkpt><trkpt lat="40.750775" lon="8.1657983"><ele>56.8</ele><time>2026-04-19T09:34:03.489Z</time></trkpt><trkpt lat="40.7507933" lon="8.1656783"><ele>56.4</ele><time>2026-04-19T09:34:04.489Z</time></trkpt><trkpt lat="40.7508133" lon="8.1655667"><ele>56.0</ele><time>2026-04-19T09:34:05.488Z</time></trkpt><trkpt lat="40.7508483" lon="8.1654383"><ele>54.599999999999994</ele><time>2026-04-19T09:34:06.489Z</time></trkpt><trkpt lat="40.75088" lon="8.1653133"><ele>53.199999999999996</ele><time>2026-04-19T09:34:07.488Z</time></trkpt><trkpt lat="40.7509217" lon="8.16519"><ele>51.8</ele><time>2026-04-19T09:34:08.489Z</time></trkpt><trkpt lat="40.7509617" lon="8.1650483"><ele>50.400000000000006</ele><time>2026-04-19T09:34:09.488Z</time></trkpt><trkpt lat="40.7509867" lon="8.1649067"><ele>49.0</ele><time>2026-04-19T09:34:10.489Z</time></trkpt><trkpt lat="40.7510117" lon="8.1647833"><ele>48.666666666666664</ele><time>2026-04-19T09:34:11.488Z</time></trkpt><trkpt lat="40.751025" lon="8.164675"><ele>48.33333333333333</ele><time>2026-04-19T09:34:12.488Z</time></trkpt><trkpt lat="40.7510283" lon="8.16457"><ele>48.0</ele><time>2026-04-19T09:34:13.489Z</time></trkpt><trkpt lat="40.7510317" lon="8.1644683"><ele>47.666666666666664</ele><time>2026-04-19T09:34:14.489Z</time></trkpt><trkpt lat="40.75102" lon="8.1643717"><ele>47.33333333333333</ele><time>2026-04-19T09:34:15.488Z</time></trkpt><trkpt lat="40.7509967" lon="8.1642683"><ele>47.0</ele><time>2026-04-19T09:34:16.488Z</time></trkpt><trkpt lat="40.7509483" lon="8.16416"><ele>47.0</ele><time>2026-04-19T09:34:17.489Z</time></trkpt><trkpt lat="40.750885" lon="8.1640433"><ele>47.0</ele><time>2026-04-19T09:34:18.488Z</time></trkpt><trkpt lat="40.750805" lon="8.1639333"><ele>47.0</ele><time>2026-04-19T09:34:19.489Z</time></trkpt><trkpt lat="40.7507333" lon="8.1638367"><ele>47.0</ele><time>2026-04-19T09:34:20.489Z</time></trkpt><trkpt lat="40.7506817" lon="8.1637433"><ele>47.0</ele><time>2026-04-19T09:34:21.489Z</time></trkpt><trkpt lat="40.750645" lon="8.163655"><ele>46.400000000000006</ele><time>2026-04-19T09:34:22.488Z</time></trkpt><trkpt lat="40.75061" lon="8.1635433"><ele>45.800000000000004</ele><time>2026-04-19T09:34:23.489Z</time></trkpt><trkpt lat="40.7505783" lon="8.1634033"><ele>45.2</ele><time>2026-04-19T09:34:24.488Z</time></trkpt><trkpt lat="40.7505467" lon="8.1632633"><ele>44.6</ele><time>2026-04-19T09:34:25.489Z</time></trkpt><trkpt lat="40.7505167" lon="8.16313"><ele>44.0</ele><time>2026-04-19T09:34:26.488Z</time></trkpt><trkpt lat="40.7504833" lon="8.163005"><ele>42.6</ele><time>2026-04-19T09:34:27.488Z</time></trkpt><trkpt lat="40.7504517" lon="8.1629017"><ele>41.2</ele><time>2026-04-19T09:34:28.489Z</time></trkpt><trkpt lat="40.7504233" lon="8.1627983"><ele>39.800000000000004</ele><time>2026-04-19T09:34:29.489Z</time></trkpt><trkpt lat="40.7503933" lon="8.1626767"><ele>38.400000000000006</ele><time>2026-04-19T09:34:30.489Z</time></trkpt><trkpt lat="40.7503717" lon="8.1625433"><ele>37.0</ele><time>2026-04-19T09:34:31.489Z</time></trkpt><trkpt lat="40.75035" lon="8.16239"><ele>35.6</ele><time>2026-04-19T09:34:32.489Z</time></trkpt><trkpt lat="40.75033" lon="8.16225"><ele>34.2</ele><time>2026-04-19T09:34:33.488Z</time></trkpt><trkpt lat="40.7503133" lon="8.1621167"><ele>32.8</ele><time>2026-04-19T09:34:34.489Z</time></trkpt><trkpt lat="40.75029" lon="8.1619867"><ele>31.4</ele><time>2026-04-19T09:34:35.488Z</time></trkpt><trkpt lat="40.7502617" lon="8.1618683"><ele>30.0</ele><time>2026-04-19T09:34:36.488Z</time></trkpt><trkpt lat="40.75023" lon="8.1617567"><ele>31.6</ele><time>2026-04-19T09:34:37.489Z</time></trkpt><trkpt lat="40.7501967" lon="8.16164"><ele>33.2</ele><time>2026-04-19T09:34:38.488Z</time></trkpt><trkpt lat="40.75017" lon="8.16153"><ele>34.8</ele><time>2026-04-19T09:34:39.489Z</time></trkpt><trkpt lat="40.7501433" lon="8.1614117"><ele>36.4</ele><time>2026-04-19T09:34:40.489Z</time></trkpt><trkpt lat="40.7501167" lon="8.16129"><ele>38.0</ele><time>2026-04-19T09:34:41.489Z</time></trkpt><trkpt lat="40.7500867" lon="8.1611633"><ele>38.0</ele><time>2026-04-19T09:34:42.489Z</time></trkpt><trkpt lat="40.7500617" lon="8.161035"><ele>38.0</ele><time>2026-04-19T09:34:43.488Z</time></trkpt><trkpt lat="40.750035" lon="8.1609033"><ele>38.0</ele><time>2026-04-19T09:34:44.489Z</time></trkpt><trkpt lat="40.750005" lon="8.160775"><ele>38.0</ele><time>2026-04-19T09:34:45.488Z</time></trkpt><trkpt lat="40.74998" lon="8.160655"><ele>38.0</ele><time>2026-04-19T09:34:46.488Z</time></trkpt><trkpt lat="40.7499517" lon="8.160525"><ele>37.199999999999996</ele><time>2026-04-19T09:34:47.488Z</time></trkpt><trkpt lat="40.74992" lon="8.1604017"><ele>36.4</ele><time>2026-04-19T09:34:48.488Z</time></trkpt><trkpt lat="40.7498783" lon="8.16028"><ele>35.599999999999994</ele><time>2026-04-19T09:34:49.489Z</time></trkpt><trkpt lat="40.7498333" lon="8.160155"><ele>34.8</ele><time>2026-04-19T09:34:50.489Z</time></trkpt><trkpt lat="40.7497917" lon="8.160015"><ele>34.0</ele><time>2026-04-19T09:34:51.489Z</time></trkpt><trkpt lat="40.7497533" lon="8.1598733"><ele>33.0</ele><time>2026-04-19T09:34:52.488Z</time></trkpt><trkpt lat="40.7497367" lon="8.1597333"><ele>32.0</ele><time>2026-04-19T09:34:53.488Z</time></trkpt><trkpt lat="40.749725" lon="8.1595983"><ele>31.0</ele><time>2026-04-19T09:34:54.488Z</time></trkpt><trkpt lat="40.7497067" lon="8.1594783"><ele>30.0</ele><time>2026-04-19T09:34:55.488Z</time></trkpt><trkpt lat="40.7496883" lon="8.1593633"><ele>29.0</ele><time>2026-04-19T09:34:56.488Z</time></trkpt><trkpt lat="40.7496667" lon="8.159255"><ele>29.000000000000004</ele><time>2026-04-19T09:34:57.488Z</time></trkpt><trkpt lat="40.7496467" lon="8.1591583"><ele>29.0</ele><time>2026-04-19T09:34:58.488Z</time></trkpt><trkpt lat="40.74963" lon="8.1590767"><ele>29.000000000000004</ele><time>2026-04-19T09:34:59.488Z</time></trkpt><trkpt lat="40.74962" lon="8.15899"><ele>29.000000000000004</ele><time>2026-04-19T09:35:00.489Z</time></trkpt><trkpt lat="40.749615" lon="8.1589017"><ele>29.0</ele><time>2026-04-19T09:35:01.488Z</time></trkpt><trkpt lat="40.7496083" lon="8.1587983"><ele>29.000000000000004</ele><time>2026-04-19T09:35:02.488Z</time></trkpt><trkpt lat="40.7496017" lon="8.158685"><ele>29.000000000000004</ele><time>2026-04-19T09:35:03.488Z</time></trkpt><trkpt lat="40.7496033" lon="8.15858"><ele>28.142857142857146</ele><time>2026-04-19T09:35:04.488Z</time></trkpt><trkpt lat="40.749605" lon="8.1584783"><ele>27.285714285714285</ele><time>2026-04-19T09:35:05.488Z</time></trkpt><trkpt lat="40.749605" lon="8.1583883"><ele>26.42857142857143</ele><time>2026-04-19T09:35:06.488Z</time></trkpt><trkpt lat="40.7495983" lon="8.1583017"><ele>25.571428571428573</ele><time>2026-04-19T09:35:07.488Z</time></trkpt><trkpt lat="40.7495917" lon="8.1582117"><ele>24.714285714285715</ele><time>2026-04-19T09:35:08.488Z</time></trkpt><trkpt lat="40.7495833" lon="8.1581267"><ele>23.857142857142858</ele><time>2026-04-19T09:35:09.488Z</time></trkpt><trkpt lat="40.7495833" lon="8.1580433"><ele>23.0</ele><time>2026-04-19T09:35:10.489Z</time></trkpt><trkpt lat="40.7496" lon="8.15788"><ele>21.2</ele><time>2026-04-19T09:35:12.489Z</time></trkpt><trkpt lat="40.7496067" lon="8.157795"><ele>19.4</ele><time>2026-04-19T09:35:13.489Z</time></trkpt><trkpt lat="40.749635" lon="8.1576367"><ele>17.599999999999998</ele><time>2026-04-19T09:35:15.488Z</time></trkpt><trkpt lat="40.749635" lon="8.157505"><ele>15.799999999999999</ele><time>2026-04-19T09:35:17.489Z</time></trkpt><trkpt lat="40.74958" lon="8.1574483"><ele>14.0</ele><time>2026-04-19T09:35:19.489Z</time></trkpt><trkpt lat="40.7494883" lon="8.15752"><ele>14.000000000000002</ele><time>2026-04-19T09:35:21.489Z</time></trkpt><trkpt lat="40.7494417" lon="8.157585"><ele>14.0</ele><time>2026-04-19T09:35:22.488Z</time></trkpt><trkpt lat="40.7493933" lon="8.1576567"><ele>14.0</ele><time>2026-04-19T09:35:23.489Z</time></trkpt><trkpt lat="40.74935" lon="8.1577383"><ele>14.0</ele><time>2026-04-19T09:35:24.489Z</time></trkpt><trkpt lat="40.7493" lon="8.15783"><ele>14.000000000000002</ele><time>2026-04-19T09:35:25.488Z</time></trkpt><trkpt lat="40.7492533" lon="8.157925"><ele>14.0</ele><time>2026-04-19T09:35:26.489Z</time></trkpt><trkpt lat="40.7492067" lon="8.158035"><ele>14.166666666666668</ele><time>2026-04-19T09:35:27.489Z</time></trkpt><trkpt lat="40.7491567" lon="8.15815"><ele>14.333333333333334</ele><time>2026-04-19T09:35:28.488Z</time></trkpt><trkpt lat="40.7491067" lon="8.158255"><ele>14.5</ele><time>2026-04-19T09:35:29.488Z</time></trkpt><trkpt lat="40.7490617" lon="8.15835"><ele>14.666666666666668</ele><time>2026-04-19T09:35:30.488Z</time></trkpt><trkpt lat="40.749015" lon="8.1584367"><ele>14.833333333333334</ele><time>2026-04-19T09:35:31.488Z</time></trkpt><trkpt lat="40.7489667" lon="8.1585283"><ele>15.0</ele><time>2026-04-19T09:35:32.488Z</time></trkpt><trkpt lat="40.74892" lon="8.1586217"><ele>15.0</ele><time>2026-04-19T09:35:33.489Z</time></trkpt><trkpt lat="40.7488783" lon="8.1587067"><ele>15.0</ele><time>2026-04-19T09:35:34.489Z</time></trkpt><trkpt lat="40.7488333" lon="8.1587717"><ele>15.0</ele><time>2026-04-19T09:35:35.489Z</time></trkpt><trkpt lat="40.7487867" lon="8.158835"><ele>15.0</ele><time>2026-04-19T09:35:36.488Z</time></trkpt><trkpt lat="40.748715" lon="8.158905"><ele>15.0</ele><time>2026-04-19T09:35:38.488Z</time></trkpt><trkpt lat="40.7486217" lon="8.158935"><ele>15.0</ele><time>2026-04-19T09:36:23.488Z</time></trkpt><trkpt lat="40.74853" lon="8.15897"><ele>13.2</ele><time>2026-04-19T09:36:25.488Z</time></trkpt><trkpt lat="40.74843" lon="8.1590067"><ele>11.4</ele><time>2026-04-19T09:36:27.488Z</time></trkpt><trkpt lat="40.74835" lon="8.1590483"><ele>9.6</ele><time>2026-04-19T09:36:29.489Z</time></trkpt><trkpt lat="40.748275" lon="8.15904"><ele>7.8</ele><time>2026-04-19T09:36:33.488Z</time></trkpt><trkpt lat="40.74828" lon="8.1589317"><ele>6.0</ele><time>2026-04-19T09:36:37.488Z</time></trkpt><trkpt lat="40.748355" lon="8.1588317"><ele>6.0</ele><time>2026-04-19T09:36:45.489Z</time></trkpt><trkpt lat="40.7483033" lon="8.1587533"><ele>6.0</ele><time>2026-04-19T09:40:21.488Z</time></trkpt><trkpt lat="40.7483053" lon="8.1586594"><ele>6.0</ele><time>2026-04-19T09:40:30.488Z</time></trkpt><trkpt lat="40.7482988" lon="8.1585765"><ele>6.0</ele><time>2026-04-19T09:40:37.488Z</time></trkpt><trkpt lat="40.7482958" lon="8.1584729"><ele>6.0</ele><time>2026-04-19T09:40:46.488Z</time></trkpt><trkpt lat="40.7482998" lon="8.1583798"><ele>6.0</ele><time>2026-04-19T09:40:54.488Z</time></trkpt><trkpt lat="40.7483024" lon="8.158215"><ele>6.0</ele><time>2026-04-19T09:41:11.487Z</time></trkpt><trkpt lat="40.7483226" lon="8.1581298"><ele>6.0</ele><time>2026-04-19T09:41:15.488Z</time></trkpt><trkpt lat="40.7483504" lon="8.1580369"><ele>6.0</ele><time>2026-04-19T09:41:24.487Z</time></trkpt><trkpt lat="40.7484198" lon="8.1579636"><ele>6.0</ele><time>2026-04-19T09:42:00.488Z</time></trkpt><trkpt lat="40.7483565" lon="8.1580178"><ele>6.0</ele><time>2026-04-19T10:47:07.481Z</time></trkpt><trkpt lat="40.7483172" lon="8.1580968"><ele>6.0</ele><time>2026-04-19T10:47:25.48Z</time></trkpt><trkpt lat="40.748301" lon="8.1581913"><ele>5.999999999999999</ele><time>2026-04-19T10:47:30.48Z</time></trkpt><trkpt lat="40.7482943" lon="8.1583412"><ele>6.0</ele><time>2026-04-19T10:47:42.481Z</time></trkpt><trkpt lat="40.7482878" lon="8.1584261"><ele>6.0</ele><time>2026-04-19T10:47:46.48Z</time></trkpt><trkpt lat="40.7482858" lon="8.1585137"><ele>6.0</ele><time>2026-04-19T10:47:52.48Z</time></trkpt><trkpt lat="40.7482888" lon="8.1586125"><ele>6.0</ele><time>2026-04-19T10:47:59.48Z</time></trkpt><trkpt lat="40.7482783" lon="8.158695"><ele>5.999999999999999</ele><time>2026-04-19T10:48:05.481Z</time></trkpt><trkpt lat="40.7482753" lon="8.1587786"><ele>6.0</ele><time>2026-04-19T10:48:11.481Z</time></trkpt><trkpt lat="40.74837" lon="8.1588383"><ele>5.999999999999999</ele><time>2026-04-19T10:52:21.479Z</time></trkpt><trkpt lat="40.74829" lon="8.1588433"><ele>6.0</ele><time>2026-04-19T10:53:23.479Z</time></trkpt><trkpt lat="40.7482233" lon="8.1588433"><ele>6.0</ele><time>2026-04-19T10:53:25.48Z</time></trkpt><trkpt lat="40.748165" lon="8.15888"><ele>6.0</ele><time>2026-04-19T10:53:27.479Z</time></trkpt><trkpt lat="40.7481383" lon="8.1589583"><ele>6.0</ele><time>2026-04-19T10:53:29.479Z</time></trkpt><trkpt lat="40.7481633" lon="8.15905"><ele>5.999999999999999</ele><time>2026-04-19T10:53:31.479Z</time></trkpt><trkpt lat="40.7481767" lon="8.15916"><ele>6.0</ele><time>2026-04-19T10:53:34.479Z</time></trkpt><trkpt lat="40.74813" lon="8.1592667"><ele>6.0</ele><time>2026-04-19T10:53:37.479Z</time></trkpt><trkpt lat="40.7480683" lon="8.1593433"><ele>6.0</ele><time>2026-04-19T10:53:39.48Z</time></trkpt><trkpt lat="40.747995" lon="8.1594283"><ele>6.0</ele><time>2026-04-19T10:53:41.479Z</time></trkpt><trkpt lat="40.7479367" lon="8.1594983"><ele>6.0</ele><time>2026-04-19T10:53:43.48Z</time></trkpt><trkpt lat="40.7478717" lon="8.1595267"><ele>6.0</ele><time>2026-04-19T10:53:46.48Z</time></trkpt><trkpt lat="40.747795" lon="8.15953"><ele>6.0</ele><time>2026-04-19T10:54:36.479Z</time></trkpt><trkpt lat="40.7477183" lon="8.1595583"><ele>6.6</ele><time>2026-04-19T10:54:38.48Z</time></trkpt><trkpt lat="40.7476383" lon="8.15967"><ele>7.199999999999999</ele><time>2026-04-19T10:54:40.48Z</time></trkpt><trkpt lat="40.747595" lon="8.1597483"><ele>7.800000000000001</ele><time>2026-04-19T10:54:41.479Z</time></trkpt><trkpt lat="40.7475517" lon="8.159835"><ele>8.4</ele><time>2026-04-19T10:54:42.479Z</time></trkpt><trkpt lat="40.747495" lon="8.1599333"><ele>9.0</ele><time>2026-04-19T10:54:43.479Z</time></trkpt><trkpt lat="40.7474367" lon="8.1600417"><ele>9.0</ele><time>2026-04-19T10:54:44.48Z</time></trkpt><trkpt lat="40.7473783" lon="8.160155"><ele>9.0</ele><time>2026-04-19T10:54:45.479Z</time></trkpt><trkpt lat="40.7473217" lon="8.1602667"><ele>9.0</ele><time>2026-04-19T10:54:46.479Z</time></trkpt><trkpt lat="40.7472683" lon="8.1603833"><ele>9.0</ele><time>2026-04-19T10:54:47.48Z</time></trkpt><trkpt lat="40.747215" lon="8.160495"><ele>9.0</ele><time>2026-04-19T10:54:48.48Z</time></trkpt><trkpt lat="40.7471633" lon="8.1606067"><ele>8.8</ele><time>2026-04-19T10:54:49.48Z</time></trkpt><trkpt lat="40.74712" lon="8.160715"><ele>8.600000000000001</ele><time>2026-04-19T10:54:50.479Z</time></trkpt><trkpt lat="40.7470933" lon="8.1608367"><ele>8.4</ele><time>2026-04-19T10:54:51.48Z</time></trkpt><trkpt lat="40.747075" lon="8.16096"><ele>8.200000000000001</ele><time>2026-04-19T10:54:52.48Z</time></trkpt><trkpt lat="40.7470633" lon="8.16109"><ele>8.0</ele><time>2026-04-19T10:54:53.479Z</time></trkpt><trkpt lat="40.74706" lon="8.1612217"><ele>8.0</ele><time>2026-04-19T10:54:54.479Z</time></trkpt><trkpt lat="40.7470717" lon="8.1613633"><ele>8.0</ele><time>2026-04-19T10:54:55.479Z</time></trkpt><trkpt lat="40.7470933" lon="8.1615083"><ele>8.0</ele><time>2026-04-19T10:54:56.479Z</time></trkpt><trkpt lat="40.7471267" lon="8.1616533"><ele>8.0</ele><time>2026-04-19T10:54:57.479Z</time></trkpt><trkpt lat="40.74717" lon="8.161805"><ele>8.75</ele><time>2026-04-19T10:54:58.478Z</time></trkpt><trkpt lat="40.7472117" lon="8.1619517"><ele>9.5</ele><time>2026-04-19T10:54:59.479Z</time></trkpt><trkpt lat="40.7472583" lon="8.1621067"><ele>10.25</ele><time>2026-04-19T10:55:00.478Z</time></trkpt><trkpt lat="40.7473067" lon="8.1622567"><ele>11.0</ele><time>2026-04-19T10:55:01.478Z</time></trkpt><trkpt lat="40.7473483" lon="8.1623983"><ele>12.200000000000001</ele><time>2026-04-19T10:55:02.478Z</time></trkpt><trkpt lat="40.7473917" lon="8.1625283"><ele>13.4</ele><time>2026-04-19T10:55:03.479Z</time></trkpt><trkpt lat="40.7474233" lon="8.1626533"><ele>14.6</ele><time>2026-04-19T10:55:04.479Z</time></trkpt><trkpt lat="40.7474617" lon="8.1627733"><ele>15.8</ele><time>2026-04-19T10:55:05.479Z</time></trkpt><trkpt lat="40.7474967" lon="8.1628983"><ele>17.0</ele><time>2026-04-19T10:55:06.478Z</time></trkpt><trkpt lat="40.74753" lon="8.1630417"><ele>17.0</ele><time>2026-04-19T10:55:07.479Z</time></trkpt><trkpt lat="40.747555" lon="8.1631917"><ele>17.0</ele><time>2026-04-19T10:55:08.478Z</time></trkpt><trkpt lat="40.7475617" lon="8.1633533"><ele>17.0</ele><time>2026-04-19T10:55:09.478Z</time></trkpt><trkpt lat="40.7475667" lon="8.163535"><ele>17.0</ele><time>2026-04-19T10:55:10.479Z</time></trkpt><trkpt lat="40.747565" lon="8.1637383"><ele>18.0</ele><time>2026-04-19T10:55:11.479Z</time></trkpt><trkpt lat="40.747565" lon="8.1639383"><ele>19.0</ele><time>2026-04-19T10:55:12.479Z</time></trkpt><trkpt lat="40.74757" lon="8.16414"><ele>20.0</ele><time>2026-04-19T10:55:13.478Z</time></trkpt><trkpt lat="40.74757" lon="8.1643417"><ele>20.333333333333336</ele><time>2026-04-19T10:55:14.479Z</time></trkpt><trkpt lat="40.747565" lon="8.1645617"><ele>20.666666666666668</ele><time>2026-04-19T10:55:15.478Z</time></trkpt><trkpt lat="40.74755" lon="8.1647833"><ele>21.0</ele><time>2026-04-19T10:55:16.478Z</time></trkpt><trkpt lat="40.7475383" lon="8.1650033"><ele>21.666666666666668</ele><time>2026-04-19T10:55:17.479Z</time></trkpt><trkpt lat="40.747535" lon="8.165235"><ele>22.333333333333336</ele><time>2026-04-19T10:55:18.479Z</time></trkpt><trkpt lat="40.7475167" lon="8.1654767"><ele>23.0</ele><time>2026-04-19T10:55:19.479Z</time></trkpt><trkpt lat="40.7474933" lon="8.1657217"><ele>23.0</ele><time>2026-04-19T10:55:20.479Z</time></trkpt><trkpt lat="40.7474733" lon="8.1659717"><ele>23.0</ele><time>2026-04-19T10:55:21.478Z</time></trkpt><trkpt lat="40.7474433" lon="8.1662083"><ele>23.0</ele><time>2026-04-19T10:55:22.479Z</time></trkpt><trkpt lat="40.74741" lon="8.1664483"><ele>23.333333333333336</ele><time>2026-04-19T10:55:23.479Z</time></trkpt><trkpt lat="40.7473767" lon="8.1666783"><ele>23.666666666666668</ele><time>2026-04-19T10:55:24.478Z</time></trkpt><trkpt lat="40.7473383" lon="8.1668883"><ele>24.0</ele><time>2026-04-19T10:55:25.479Z</time></trkpt><trkpt lat="40.747305" lon="8.1670767"><ele>24.0</ele><time>2026-04-19T10:55:26.478Z</time></trkpt><trkpt lat="40.7472717" lon="8.167245"><ele>24.0</ele><time>2026-04-19T10:55:27.478Z</time></trkpt><trkpt lat="40.7472383" lon="8.167395"><ele>24.0</ele><time>2026-04-19T10:55:28.478Z</time></trkpt><trkpt lat="40.7472117" lon="8.1675367"><ele>24.0</ele><time>2026-04-19T10:55:29.479Z</time></trkpt><trkpt lat="40.7472033" lon="8.167655"><ele>24.5</ele><time>2026-04-19T10:55:30.479Z</time></trkpt><trkpt lat="40.747215" lon="8.16776"><ele>25.0</ele><time>2026-04-19T10:55:31.479Z</time></trkpt><trkpt lat="40.747255" lon="8.1678483"><ele>25.5</ele><time>2026-04-19T10:55:32.478Z</time></trkpt><trkpt lat="40.7473033" lon="8.16791"><ele>26.0</ele><time>2026-04-19T10:55:33.479Z</time></trkpt><trkpt lat="40.7473717" lon="8.1679267"><ele>26.5</ele><time>2026-04-19T10:55:34.478Z</time></trkpt><trkpt lat="40.74745" lon="8.1678917"><ele>27.0</ele><time>2026-04-19T10:55:35.478Z</time></trkpt><trkpt lat="40.7475283" lon="8.1678"><ele>27.0</ele><time>2026-04-19T10:55:36.478Z</time></trkpt><trkpt lat="40.747595" lon="8.1676683"><ele>27.0</ele><time>2026-04-19T10:55:37.478Z</time></trkpt><trkpt lat="40.7476367" lon="8.1674983"><ele>27.0</ele><time>2026-04-19T10:55:38.479Z</time></trkpt><trkpt lat="40.747665" lon="8.1672917"><ele>27.0</ele><time>2026-04-19T10:55:39.478Z</time></trkpt><trkpt lat="40.747725" lon="8.16711"><ele>30.333333333333336</ele><time>2026-04-19T10:55:40.478Z</time></trkpt><trkpt lat="40.7478217" lon="8.1669617"><ele>33.66666666666667</ele><time>2026-04-19T10:55:41.478Z</time></trkpt><trkpt lat="40.7479383" lon="8.16682"><ele>37.0</ele><time>2026-04-19T10:55:42.478Z</time></trkpt><trkpt lat="40.7480283" lon="8.1666533"><ele>36.333333333333336</ele><time>2026-04-19T10:55:43.479Z</time></trkpt><trkpt lat="40.7480933" lon="8.1664483"><ele>35.666666666666664</ele><time>2026-04-19T10:55:44.478Z</time></trkpt><trkpt lat="40.74813" lon="8.1662333"><ele>35.0</ele><time>2026-04-19T10:55:45.479Z</time></trkpt><trkpt lat="40.7481533" lon="8.1660267"><ele>35.0</ele><time>2026-04-19T10:55:46.478Z</time></trkpt><trkpt lat="40.7482017" lon="8.1658367"><ele>35.0</ele><time>2026-04-19T10:55:47.478Z</time></trkpt><trkpt lat="40.7482583" lon="8.1656667"><ele>35.0</ele><time>2026-04-19T10:55:48.478Z</time></trkpt><trkpt lat="40.7483317" lon="8.1655133"><ele>35.0</ele><time>2026-04-19T10:55:49.479Z</time></trkpt><trkpt lat="40.7484167" lon="8.1653967"><ele>32.0</ele><time>2026-04-19T10:55:50.479Z</time></trkpt><trkpt lat="40.748515" lon="8.1653267"><ele>29.0</ele><time>2026-04-19T10:55:51.478Z</time></trkpt><trkpt lat="40.7486333" lon="8.1652967"><ele>26.0</ele><time>2026-04-19T10:55:52.478Z</time></trkpt><trkpt lat="40.7487483" lon="8.1653217"><ele>23.0</ele><time>2026-04-19T10:55:53.478Z</time></trkpt><trkpt lat="40.7488433" lon="8.1653883"><ele>23.0</ele><time>2026-04-19T10:55:54.479Z</time></trkpt><trkpt lat="40.7489433" lon="8.1655083"><ele>23.0</ele><time>2026-04-19T10:55:55.478Z</time></trkpt><trkpt lat="40.749025" lon="8.16569"><ele>23.0</ele><time>2026-04-19T10:55:56.479Z</time></trkpt><trkpt lat="40.7490783" lon="8.165895"><ele>26.333333333333336</ele><time>2026-04-19T10:55:57.478Z</time></trkpt><trkpt lat="40.7491017" lon="8.16609"><ele>29.666666666666668</ele><time>2026-04-19T10:55:58.478Z</time></trkpt><trkpt lat="40.749095" lon="8.1662917"><ele>33.0</ele><time>2026-04-19T10:55:59.479Z</time></trkpt><trkpt lat="40.7490383" lon="8.1665"><ele>33.666666666666664</ele><time>2026-04-19T10:56:00.479Z</time></trkpt><trkpt lat="40.74896" lon="8.16671"><ele>34.33333333333333</ele><time>2026-04-19T10:56:01.478Z</time></trkpt><trkpt lat="40.74887" lon="8.166915"><ele>35.0</ele><time>2026-04-19T10:56:02.479Z</time></trkpt><trkpt lat="40.7487717" lon="8.1671233"><ele>35.0</ele><time>2026-04-19T10:56:03.479Z</time></trkpt><trkpt lat="40.7486683" lon="8.1673367"><ele>35.0</ele><time>2026-04-19T10:56:04.478Z</time></trkpt><trkpt lat="40.7485667" lon="8.1675567"><ele>35.0</ele><time>2026-04-19T10:56:05.479Z</time></trkpt><trkpt lat="40.74847" lon="8.16776"><ele>38.0</ele><time>2026-04-19T10:56:06.478Z</time></trkpt><trkpt lat="40.74838" lon="8.1679667"><ele>41.0</ele><time>2026-04-19T10:56:07.479Z</time></trkpt><trkpt lat="40.7483" lon="8.1681683"><ele>44.0</ele><time>2026-04-19T10:56:08.478Z</time></trkpt><trkpt lat="40.7482367" lon="8.1683783"><ele>46.666666666666664</ele><time>2026-04-19T10:56:09.478Z</time></trkpt><trkpt lat="40.7482033" lon="8.1686067"><ele>49.33333333333333</ele><time>2026-04-19T10:56:10.479Z</time></trkpt><trkpt lat="40.748185" lon="8.168855"><ele>52.0</ele><time>2026-04-19T10:56:11.478Z</time></trkpt><trkpt lat="40.74817" lon="8.1691067"><ele>53.33333333333333</ele><time>2026-04-19T10:56:12.478Z</time></trkpt><trkpt lat="40.748155" lon="8.1693683"><ele>54.66666666666667</ele><time>2026-04-19T10:56:13.479Z</time></trkpt><trkpt lat="40.7481383" lon="8.1696267"><ele>56.0</ele><time>2026-04-19T10:56:14.478Z</time></trkpt><trkpt lat="40.7481167" lon="8.1698767"><ele>57.66666666666667</ele><time>2026-04-19T10:56:15.478Z</time></trkpt><trkpt lat="40.7480967" lon="8.17012"><ele>59.33333333333333</ele><time>2026-04-19T10:56:16.478Z</time></trkpt><trkpt lat="40.7480783" lon="8.1703467"><ele>61.0</ele><time>2026-04-19T10:56:17.479Z</time></trkpt><trkpt lat="40.748065" lon="8.1705583"><ele>61.0</ele><time>2026-04-19T10:56:18.478Z</time></trkpt><trkpt lat="40.74805" lon="8.1707617"><ele>61.0</ele><time>2026-04-19T10:56:19.478Z</time></trkpt><trkpt lat="40.7480417" lon="8.170975"><ele>61.0</ele><time>2026-04-19T10:56:20.479Z</time></trkpt><trkpt lat="40.7480233" lon="8.1711867"><ele>61.0</ele><time>2026-04-19T10:56:21.478Z</time></trkpt><trkpt lat="40.748015" lon="8.17139"><ele>61.0</ele><time>2026-04-19T10:56:22.479Z</time></trkpt><trkpt lat="40.7480067" lon="8.1715967"><ele>61.0</ele><time>2026-04-19T10:56:23.478Z</time></trkpt><trkpt lat="40.7480033" lon="8.1717867"><ele>62.5</ele><time>2026-04-19T10:56:24.478Z</time></trkpt><trkpt lat="40.7479967" lon="8.1719733"><ele>64.0</ele><time>2026-04-19T10:56:25.478Z</time></trkpt><trkpt lat="40.7479983" lon="8.17216"><ele>65.5</ele><time>2026-04-19T10:56:26.479Z</time></trkpt><trkpt lat="40.7479967" lon="8.17235"><ele>67.0</ele><time>2026-04-19T10:56:27.478Z</time></trkpt><trkpt lat="40.747995" lon="8.1725483"><ele>67.75</ele><time>2026-04-19T10:56:28.479Z</time></trkpt><trkpt lat="40.7479933" lon="8.17274"><ele>68.5</ele><time>2026-04-19T10:56:29.479Z</time></trkpt><trkpt lat="40.7479917" lon="8.1729283"><ele>69.25</ele><time>2026-04-19T10:56:30.478Z</time></trkpt><trkpt lat="40.74801" lon="8.1731217"><ele>70.0</ele><time>2026-04-19T10:56:31.479Z</time></trkpt><trkpt lat="40.74806" lon="8.1733083"><ele>71.5</ele><time>2026-04-19T10:56:32.479Z</time></trkpt><trkpt lat="40.748135" lon="8.17346"><ele>73.0</ele><time>2026-04-19T10:56:33.478Z</time></trkpt><trkpt lat="40.7482033" lon="8.1736017"><ele>74.5</ele><time>2026-04-19T10:56:34.478Z</time></trkpt><trkpt lat="40.748255" lon="8.1737483"><ele>76.0</ele><time>2026-04-19T10:56:35.478Z</time></trkpt><trkpt lat="40.7482733" lon="8.1739033"><ele>78.0</ele><time>2026-04-19T10:56:36.478Z</time></trkpt><trkpt lat="40.7482533" lon="8.1740617"><ele>80.0</ele><time>2026-04-19T10:56:37.478Z</time></trkpt><trkpt lat="40.748195" lon="8.1742167"><ele>82.0</ele><time>2026-04-19T10:56:38.478Z</time></trkpt><trkpt lat="40.7481317" lon="8.1743833"><ele>84.0</ele><time>2026-04-19T10:56:39.478Z</time></trkpt><trkpt lat="40.7480583" lon="8.1745633"><ele>84.0</ele><time>2026-04-19T10:56:40.479Z</time></trkpt><trkpt lat="40.7479917" lon="8.1747517"><ele>84.0</ele><time>2026-04-19T10:56:41.479Z</time></trkpt><trkpt lat="40.7479267" lon="8.17496"><ele>84.0</ele><time>2026-04-19T10:56:42.478Z</time></trkpt><trkpt lat="40.74787" lon="8.1751867"><ele>84.0</ele><time>2026-04-19T10:56:43.478Z</time></trkpt><trkpt lat="40.747835" lon="8.1754117"><ele>84.0</ele><time>2026-04-19T10:56:44.478Z</time></trkpt><trkpt lat="40.747815" lon="8.175645"><ele>84.0</ele><time>2026-04-19T10:56:45.479Z</time></trkpt><trkpt lat="40.7478017" lon="8.175875"><ele>86.0</ele><time>2026-04-19T10:56:46.479Z</time></trkpt><trkpt lat="40.7477933" lon="8.1760917"><ele>88.0</ele><time>2026-04-19T10:56:47.479Z</time></trkpt><trkpt lat="40.74779" lon="8.1762833"><ele>90.0</ele><time>2026-04-19T10:56:48.478Z</time></trkpt><trkpt lat="40.747785" lon="8.17646"><ele>92.0</ele><time>2026-04-19T10:56:49.479Z</time></trkpt><trkpt lat="40.747805" lon="8.1766517"><ele>94.0</ele><time>2026-04-19T10:56:50.478Z</time></trkpt><trkpt lat="40.7478583" lon="8.1768483"><ele>96.0</ele><time>2026-04-19T10:56:51.478Z</time></trkpt><trkpt lat="40.7479317" lon="8.1770483"><ele>98.0</ele><time>2026-04-19T10:56:52.478Z</time></trkpt><trkpt lat="40.7480017" lon="8.1772483"><ele>98.0</ele><time>2026-04-19T10:56:53.478Z</time></trkpt><trkpt lat="40.7480733" lon="8.177445"><ele>98.0</ele><time>2026-04-19T10:56:54.479Z</time></trkpt><trkpt lat="40.7481483" lon="8.1776417"><ele>98.0</ele><time>2026-04-19T10:56:55.478Z</time></trkpt><trkpt lat="40.7482283" lon="8.1778283"><ele>98.0</ele><time>2026-04-19T10:56:56.479Z</time></trkpt><trkpt lat="40.74831" lon="8.17799"><ele>98.0</ele><time>2026-04-19T10:56:57.479Z</time></trkpt><trkpt lat="40.7483967" lon="8.178145"><ele>98.0</ele><time>2026-04-19T10:56:58.479Z</time></trkpt><trkpt lat="40.74848" lon="8.1782983"><ele>98.0</ele><time>2026-04-19T10:56:59.478Z</time></trkpt><trkpt lat="40.7485233" lon="8.17847"><ele>95.5</ele><time>2026-04-19T10:57:00.479Z</time></trkpt><trkpt lat="40.7485517" lon="8.1786533"><ele>93.0</ele><time>2026-04-19T10:57:01.479Z</time></trkpt><trkpt lat="40.748555" lon="8.1788367"><ele>90.5</ele><time>2026-04-19T10:57:02.478Z</time></trkpt><trkpt lat="40.7485283" lon="8.17902"><ele>88.0</ele><time>2026-04-19T10:57:03.478Z</time></trkpt><trkpt lat="40.7484767" lon="8.1792017"><ele>95.66666666666666</ele><time>2026-04-19T10:57:04.479Z</time></trkpt><trkpt lat="40.748395" lon="8.1793733"><ele>103.33333333333333</ele><time>2026-04-19T10:57:05.478Z</time></trkpt><trkpt lat="40.7483083" lon="8.1795567"><ele>111.0</ele><time>2026-04-19T10:57:06.478Z</time></trkpt><trkpt lat="40.74822" lon="8.1797317"><ele>110.0</ele><time>2026-04-19T10:57:07.478Z</time></trkpt><trkpt lat="40.7481483" lon="8.1799"><ele>109.0</ele><time>2026-04-19T10:57:08.479Z</time></trkpt><trkpt lat="40.748095" lon="8.180085"><ele>108.0</ele><time>2026-04-19T10:57:09.479Z</time></trkpt><trkpt lat="40.7480683" lon="8.180285"><ele>108.0</ele><time>2026-04-19T10:57:10.478Z</time></trkpt><trkpt lat="40.7480633" lon="8.1804917"><ele>108.0</ele><time>2026-04-19T10:57:11.479Z</time></trkpt><trkpt lat="40.7480633" lon="8.18071"><ele>108.0</ele><time>2026-04-19T10:57:12.479Z</time></trkpt><trkpt lat="40.74807" lon="8.18093"><ele>108.33333333333334</ele><time>2026-04-19T10:57:13.478Z</time></trkpt><trkpt lat="40.7480733" lon="8.18116"><ele>108.66666666666667</ele><time>2026-04-19T10:57:14.478Z</time></trkpt><trkpt lat="40.74808" lon="8.1813817"><ele>109.0</ele><time>2026-04-19T10:57:15.478Z</time></trkpt><trkpt lat="40.7480967" lon="8.1815933"><ele>111.66666666666667</ele><time>2026-04-19T10:57:16.478Z</time></trkpt><trkpt lat="40.7481217" lon="8.1817967"><ele>114.33333333333334</ele><time>2026-04-19T10:57:17.479Z</time></trkpt><trkpt lat="40.7481767" lon="8.1819983"><ele>117.0</ele><time>2026-04-19T10:57:18.478Z</time></trkpt><trkpt lat="40.74825" lon="8.1821917"><ele>117.33333333333334</ele><time>2026-04-19T10:57:19.479Z</time></trkpt><trkpt lat="40.7483533" lon="8.1823783"><ele>117.66666666666667</ele><time>2026-04-19T10:57:20.479Z</time></trkpt><trkpt lat="40.7484667" lon="8.1825467"><ele>118.0</ele><time>2026-04-19T10:57:21.479Z</time></trkpt><trkpt lat="40.7485717" lon="8.1827133"><ele>118.0</ele><time>2026-04-19T10:57:22.479Z</time></trkpt><trkpt lat="40.7486533" lon="8.182885"><ele>118.0</ele><time>2026-04-19T10:57:23.479Z</time></trkpt><trkpt lat="40.7487083" lon="8.18307"><ele>118.0</ele><time>2026-04-19T10:57:24.478Z</time></trkpt><trkpt lat="40.74873" lon="8.1832533"><ele>118.0</ele><time>2026-04-19T10:57:25.478Z</time></trkpt><trkpt lat="40.7487533" lon="8.1834133"><ele>120.0</ele><time>2026-04-19T10:57:26.478Z</time></trkpt><trkpt lat="40.748785" lon="8.1835567"><ele>122.0</ele><time>2026-04-19T10:57:27.479Z</time></trkpt><trkpt lat="40.7488717" lon="8.1836667"><ele>124.0</ele><time>2026-04-19T10:57:28.479Z</time></trkpt><trkpt lat="40.7489867" lon="8.18373"><ele>126.0</ele><time>2026-04-19T10:57:29.478Z</time></trkpt><trkpt lat="40.7491133" lon="8.1837683"><ele>126.0</ele><time>2026-04-19T10:57:30.479Z</time></trkpt><trkpt lat="40.7492517" lon="8.1838017"><ele>126.0</ele><time>2026-04-19T10:57:31.478Z</time></trkpt><trkpt lat="40.74935" lon="8.1839"><ele>126.0</ele><time>2026-04-19T10:57:32.478Z</time></trkpt><trkpt lat="40.7494067" lon="8.1840183"><ele>126.0</ele><time>2026-04-19T10:57:33.479Z</time></trkpt><trkpt lat="40.74941" lon="8.1841617"><ele>128.5</ele><time>2026-04-19T10:57:34.478Z</time></trkpt><trkpt lat="40.7493733" lon="8.1843217"><ele>131.0</ele><time>2026-04-19T10:57:35.479Z</time></trkpt><trkpt lat="40.7493133" lon="8.1844783"><ele>133.5</ele><time>2026-04-19T10:57:36.478Z</time></trkpt><trkpt lat="40.749235" lon="8.184635"><ele>136.0</ele><time>2026-04-19T10:57:37.479Z</time></trkpt><trkpt lat="40.7491433" lon="8.1847967"><ele>137.0</ele><time>2026-04-19T10:57:38.478Z</time></trkpt><trkpt lat="40.7490517" lon="8.18497"><ele>138.0</ele><time>2026-04-19T10:57:39.479Z</time></trkpt><trkpt lat="40.74897" lon="8.185155"><ele>139.0</ele><time>2026-04-19T10:57:40.478Z</time></trkpt><trkpt lat="40.7488933" lon="8.18534"><ele>139.0</ele><time>2026-04-19T10:57:41.479Z</time></trkpt><trkpt lat="40.74883" lon="8.18552"><ele>139.0</ele><time>2026-04-19T10:57:42.478Z</time></trkpt><trkpt lat="40.748765" lon="8.1857033"><ele>139.0</ele><time>2026-04-19T10:57:43.478Z</time></trkpt><trkpt lat="40.7487033" lon="8.1858733"><ele>139.0</ele><time>2026-04-19T10:57:44.479Z</time></trkpt><trkpt lat="40.7486467" lon="8.1860467"><ele>138.25</ele><time>2026-04-19T10:57:45.478Z</time></trkpt><trkpt lat="40.7485917" lon="8.18622"><ele>137.5</ele><time>2026-04-19T10:57:46.478Z</time></trkpt><trkpt lat="40.748555" lon="8.1863917"><ele>136.75</ele><time>2026-04-19T10:57:47.479Z</time></trkpt><trkpt lat="40.7485367" lon="8.1865733"><ele>136.0</ele><time>2026-04-19T10:57:48.478Z</time></trkpt><trkpt lat="40.7485233" lon="8.1867517"><ele>136.0</ele><time>2026-04-19T10:57:49.479Z</time></trkpt><trkpt lat="40.7485183" lon="8.1869233"><ele>136.0</ele><time>2026-04-19T10:57:50.479Z</time></trkpt><trkpt lat="40.74851" lon="8.1870933"><ele>136.0</ele><time>2026-04-19T10:57:51.478Z</time></trkpt><trkpt lat="40.748495" lon="8.1872733"><ele>136.0</ele><time>2026-04-19T10:57:52.478Z</time></trkpt><trkpt lat="40.74846" lon="8.1874633"><ele>135.5</ele><time>2026-04-19T10:57:53.479Z</time></trkpt><trkpt lat="40.74843" lon="8.1876583"><ele>135.0</ele><time>2026-04-19T10:57:54.478Z</time></trkpt><trkpt lat="40.7484033" lon="8.1878433"><ele>134.5</ele><time>2026-04-19T10:57:55.478Z</time></trkpt><trkpt lat="40.7483683" lon="8.188035"><ele>134.0</ele><time>2026-04-19T10:57:56.479Z</time></trkpt><trkpt lat="40.74834" lon="8.1882317"><ele>134.0</ele><time>2026-04-19T10:57:57.479Z</time></trkpt><trkpt lat="40.7483133" lon="8.1884067"><ele>134.0</ele><time>2026-04-19T10:57:58.479Z</time></trkpt><trkpt lat="40.7482933" lon="8.1885617"><ele>134.0</ele><time>2026-04-19T10:57:59.479Z</time></trkpt><trkpt lat="40.7482717" lon="8.188705"><ele>134.0</ele><time>2026-04-19T10:58:00.479Z</time></trkpt><trkpt lat="40.74825" lon="8.18883"><ele>134.0</ele><time>2026-04-19T10:58:01.478Z</time></trkpt><trkpt lat="40.7482283" lon="8.1889383"><ele>134.0</ele><time>2026-04-19T10:58:02.478Z</time></trkpt><trkpt lat="40.748205" lon="8.1890383"><ele>134.0</ele><time>2026-04-19T10:58:03.478Z</time></trkpt><trkpt lat="40.7481717" lon="8.18914"><ele>134.0</ele><time>2026-04-19T10:58:04.479Z</time></trkpt><trkpt lat="40.748115" lon="8.1892417"><ele>134.0</ele><time>2026-04-19T10:58:05.479Z</time></trkpt><trkpt lat="40.7480533" lon="8.1893583"><ele>134.5</ele><time>2026-04-19T10:58:06.479Z</time></trkpt><trkpt lat="40.747985" lon="8.1894767"><ele>135.0</ele><time>2026-04-19T10:58:07.479Z</time></trkpt><trkpt lat="40.7478883" lon="8.1895967"><ele>135.5</ele><time>2026-04-19T10:58:08.479Z</time></trkpt><trkpt lat="40.7477817" lon="8.189715"><ele>136.0</ele><time>2026-04-19T10:58:09.479Z</time></trkpt><trkpt lat="40.7476617" lon="8.1898317"><ele>137.66666666666669</ele><time>2026-04-19T10:58:10.479Z</time></trkpt><trkpt lat="40.7475383" lon="8.1899667"><ele>139.33333333333334</ele><time>2026-04-19T10:58:11.478Z</time></trkpt><trkpt lat="40.74742" lon="8.1901"><ele>141.0</ele><time>2026-04-19T10:58:12.478Z</time></trkpt><trkpt lat="40.7473017" lon="8.1902267"><ele>141.0</ele><time>2026-04-19T10:58:13.479Z</time></trkpt><trkpt lat="40.747185" lon="8.1903517"><ele>141.0</ele><time>2026-04-19T10:58:14.479Z</time></trkpt><trkpt lat="40.7470733" lon="8.190465"><ele>141.0</ele><time>2026-04-19T10:58:15.479Z</time></trkpt><trkpt lat="40.74697" lon="8.1905767"><ele>141.0</ele><time>2026-04-19T10:58:16.478Z</time></trkpt><trkpt lat="40.74686" lon="8.190685"><ele>142.25</ele><time>2026-04-19T10:58:17.479Z</time></trkpt><trkpt lat="40.7467583" lon="8.1907867"><ele>143.5</ele><time>2026-04-19T10:58:18.478Z</time></trkpt><trkpt lat="40.7466683" lon="8.19089"><ele>144.75</ele><time>2026-04-19T10:58:19.478Z</time></trkpt><trkpt lat="40.7465767" lon="8.1909933"><ele>146.0</ele><time>2026-04-19T10:58:20.478Z</time></trkpt><trkpt lat="40.7464833" lon="8.1910833"><ele>146.0</ele><time>2026-04-19T10:58:21.479Z</time></trkpt><trkpt lat="40.746395" lon="8.191185"><ele>146.0</ele><time>2026-04-19T10:58:22.479Z</time></trkpt><trkpt lat="40.746295" lon="8.1912917"><ele>146.0</ele><time>2026-04-19T10:58:23.479Z</time></trkpt><trkpt lat="40.7461983" lon="8.1914017"><ele>146.0</ele><time>2026-04-19T10:58:24.479Z</time></trkpt><trkpt lat="40.7461067" lon="8.1915067"><ele>145.5</ele><time>2026-04-19T10:58:25.479Z</time></trkpt><trkpt lat="40.7460083" lon="8.19161"><ele>145.0</ele><time>2026-04-19T10:58:26.478Z</time></trkpt><trkpt lat="40.7459133" lon="8.1917183"><ele>144.5</ele><time>2026-04-19T10:58:27.478Z</time></trkpt><trkpt lat="40.745825" lon="8.1918283"><ele>144.0</ele><time>2026-04-19T10:58:28.478Z</time></trkpt><trkpt lat="40.74574" lon="8.19194"><ele>144.0</ele><time>2026-04-19T10:58:29.479Z</time></trkpt><trkpt lat="40.7456633" lon="8.1920633"><ele>144.0</ele><time>2026-04-19T10:58:30.478Z</time></trkpt><trkpt lat="40.7455933" lon="8.1922"><ele>144.0</ele><time>2026-04-19T10:58:31.478Z</time></trkpt><trkpt lat="40.7455217" lon="8.1923333"><ele>144.0</ele><time>2026-04-19T10:58:32.479Z</time></trkpt><trkpt lat="40.7454433" lon="8.1924733"><ele>143.5</ele><time>2026-04-19T10:58:33.479Z</time></trkpt><trkpt lat="40.7453733" lon="8.1926133"><ele>143.0</ele><time>2026-04-19T10:58:34.479Z</time></trkpt><trkpt lat="40.7453067" lon="8.19274"><ele>142.5</ele><time>2026-04-19T10:58:35.478Z</time></trkpt><trkpt lat="40.7452467" lon="8.192875"><ele>142.0</ele><time>2026-04-19T10:58:36.479Z</time></trkpt><trkpt lat="40.7452033" lon="8.1930117"><ele>141.5</ele><time>2026-04-19T10:58:37.479Z</time></trkpt><trkpt lat="40.74519" lon="8.1931633"><ele>141.0</ele><time>2026-04-19T10:58:38.479Z</time></trkpt><trkpt lat="40.745215" lon="8.1933167"><ele>140.5</ele><time>2026-04-19T10:58:39.479Z</time></trkpt><trkpt lat="40.7452633" lon="8.1934717"><ele>140.0</ele><time>2026-04-19T10:58:40.478Z</time></trkpt><trkpt lat="40.7453267" lon="8.1936317"><ele>139.5</ele><time>2026-04-19T10:58:41.479Z</time></trkpt><trkpt lat="40.7453833" lon="8.1937917"><ele>139.0</ele><time>2026-04-19T10:58:42.479Z</time></trkpt><trkpt lat="40.7454383" lon="8.1939633"><ele>138.5</ele><time>2026-04-19T10:58:43.479Z</time></trkpt><trkpt lat="40.7454817" lon="8.1941233"><ele>138.0</ele><time>2026-04-19T10:58:44.478Z</time></trkpt><trkpt lat="40.7455" lon="8.19429"><ele>138.0</ele><time>2026-04-19T10:58:45.478Z</time></trkpt><trkpt lat="40.7454967" lon="8.1944733"><ele>138.0</ele><time>2026-04-19T10:58:46.478Z</time></trkpt><trkpt lat="40.7454667" lon="8.1946683"><ele>138.0</ele><time>2026-04-19T10:58:47.479Z</time></trkpt><trkpt lat="40.7454467" lon="8.194855"><ele>138.0</ele><time>2026-04-19T10:58:48.478Z</time></trkpt><trkpt lat="40.7454283" lon="8.1950667"><ele>138.0</ele><time>2026-04-19T10:58:49.478Z</time></trkpt><trkpt lat="40.745405" lon="8.1952683"><ele>138.0</ele><time>2026-04-19T10:58:50.478Z</time></trkpt><trkpt lat="40.7453817" lon="8.195475"><ele>138.0</ele><time>2026-04-19T10:58:51.479Z</time></trkpt><trkpt lat="40.7453783" lon="8.195685"><ele>138.0</ele><time>2026-04-19T10:58:52.478Z</time></trkpt><trkpt lat="40.74539" lon="8.1958867"><ele>138.0</ele><time>2026-04-19T10:58:53.478Z</time></trkpt><trkpt lat="40.7454117" lon="8.1960783"><ele>138.0</ele><time>2026-04-19T10:58:54.478Z</time></trkpt><trkpt lat="40.7454317" lon="8.1962767"><ele>138.0</ele><time>2026-04-19T10:58:55.478Z</time></trkpt><trkpt lat="40.7454583" lon="8.1964767"><ele>138.0</ele><time>2026-04-19T10:58:56.478Z</time></trkpt><trkpt lat="40.7454867" lon="8.196675"><ele>138.0</ele><time>2026-04-19T10:58:57.479Z</time></trkpt><trkpt lat="40.7455517" lon="8.196865"><ele>139.33333333333334</ele><time>2026-04-19T10:58:58.478Z</time></trkpt><trkpt lat="40.745625" lon="8.1970567"><ele>140.66666666666669</ele><time>2026-04-19T10:58:59.479Z</time></trkpt><trkpt lat="40.745705" lon="8.1972417"><ele>142.0</ele><time>2026-04-19T10:59:00.479Z</time></trkpt><trkpt lat="40.74578" lon="8.1974083"><ele>143.0</ele><time>2026-04-19T10:59:01.478Z</time></trkpt><trkpt lat="40.7458483" lon="8.197575"><ele>144.0</ele><time>2026-04-19T10:59:02.479Z</time></trkpt><trkpt lat="40.7459117" lon="8.1977417"><ele>145.0</ele><time>2026-04-19T10:59:03.478Z</time></trkpt><trkpt lat="40.745945" lon="8.19793"><ele>146.0</ele><time>2026-04-19T10:59:04.478Z</time></trkpt><trkpt lat="40.7459683" lon="8.1981233"><ele>146.75</ele><time>2026-04-19T10:59:05.479Z</time></trkpt><trkpt lat="40.7459917" lon="8.1983167"><ele>147.5</ele><time>2026-04-19T10:59:06.478Z</time></trkpt><trkpt lat="40.74601" lon="8.1985033"><ele>148.25</ele><time>2026-04-19T10:59:07.479Z</time></trkpt><trkpt lat="40.74602" lon="8.1986883"><ele>149.0</ele><time>2026-04-19T10:59:08.478Z</time></trkpt><trkpt lat="40.746015" lon="8.1988817"><ele>148.75</ele><time>2026-04-19T10:59:09.479Z</time></trkpt><trkpt lat="40.7459983" lon="8.19908"><ele>148.5</ele><time>2026-04-19T10:59:10.479Z</time></trkpt><trkpt lat="40.7459867" lon="8.1992767"><ele>148.25</ele><time>2026-04-19T10:59:11.478Z</time></trkpt><trkpt lat="40.7459733" lon="8.1994717"><ele>148.0</ele><time>2026-04-19T10:59:12.478Z</time></trkpt><trkpt lat="40.7459583" lon="8.199675"><ele>146.75</ele><time>2026-04-19T10:59:13.478Z</time></trkpt><trkpt lat="40.745945" lon="8.19987"><ele>145.5</ele><time>2026-04-19T10:59:14.478Z</time></trkpt><trkpt lat="40.7459333" lon="8.2000567"><ele>144.25</ele><time>2026-04-19T10:59:15.479Z</time></trkpt><trkpt lat="40.7459367" lon="8.2002433"><ele>143.0</ele><time>2026-04-19T10:59:16.479Z</time></trkpt><trkpt lat="40.745975" lon="8.200425"><ele>143.0</ele><time>2026-04-19T10:59:17.479Z</time></trkpt><trkpt lat="40.746035" lon="8.2005883"><ele>143.0</ele><time>2026-04-19T10:59:18.479Z</time></trkpt><trkpt lat="40.7461" lon="8.200755"><ele>143.0</ele><time>2026-04-19T10:59:19.479Z</time></trkpt><trkpt lat="40.746175" lon="8.2009067"><ele>143.0</ele><time>2026-04-19T10:59:20.478Z</time></trkpt><trkpt lat="40.7462533" lon="8.2010533"><ele>141.25</ele><time>2026-04-19T10:59:21.478Z</time></trkpt><trkpt lat="40.7463233" lon="8.2011967"><ele>139.5</ele><time>2026-04-19T10:59:22.479Z</time></trkpt><trkpt lat="40.7463917" lon="8.2013333"><ele>137.75</ele><time>2026-04-19T10:59:23.478Z</time></trkpt><trkpt lat="40.7464483" lon="8.20148"><ele>136.0</ele><time>2026-04-19T10:59:24.478Z</time></trkpt><trkpt lat="40.746495" lon="8.20163"><ele>135.75</ele><time>2026-04-19T10:59:25.478Z</time></trkpt><trkpt lat="40.7465183" lon="8.2017767"><ele>135.5</ele><time>2026-04-19T10:59:26.479Z</time></trkpt><trkpt lat="40.746525" lon="8.20193"><ele>135.25</ele><time>2026-04-19T10:59:27.479Z</time></trkpt><trkpt lat="40.746505" lon="8.202095"><ele>135.0</ele><time>2026-04-19T10:59:28.479Z</time></trkpt><trkpt lat="40.74647" lon="8.20227"><ele>135.0</ele><time>2026-04-19T10:59:29.478Z</time></trkpt><trkpt lat="40.74643" lon="8.20244"><ele>135.0</ele><time>2026-04-19T10:59:30.478Z</time></trkpt><trkpt lat="40.7463833" lon="8.2026083"><ele>135.0</ele><time>2026-04-19T10:59:31.478Z</time></trkpt><trkpt lat="40.7463483" lon="8.20277"><ele>135.0</ele><time>2026-04-19T10:59:32.479Z</time></trkpt><trkpt lat="40.7463067" lon="8.2029333"><ele>135.0</ele><time>2026-04-19T10:59:33.479Z</time></trkpt><trkpt lat="40.746265" lon="8.2030933"><ele>135.0</ele><time>2026-04-19T10:59:34.479Z</time></trkpt><trkpt lat="40.7462217" lon="8.20326"><ele>135.0</ele><time>2026-04-19T10:59:35.479Z</time></trkpt><trkpt lat="40.74618" lon="8.2034267"><ele>135.0</ele><time>2026-04-19T10:59:36.479Z</time></trkpt><trkpt lat="40.74614" lon="8.2035833"><ele>136.0</ele><time>2026-04-19T10:59:37.478Z</time></trkpt><trkpt lat="40.7461" lon="8.2037417"><ele>137.0</ele><time>2026-04-19T10:59:38.478Z</time></trkpt><trkpt lat="40.7460633" lon="8.2038983"><ele>138.0</ele><time>2026-04-19T10:59:39.479Z</time></trkpt><trkpt lat="40.7460217" lon="8.2040533"><ele>139.0</ele><time>2026-04-19T10:59:40.479Z</time></trkpt><trkpt lat="40.745985" lon="8.20423"><ele>139.75</ele><time>2026-04-19T10:59:41.479Z</time></trkpt><trkpt lat="40.745945" lon="8.204395"><ele>140.5</ele><time>2026-04-19T10:59:42.478Z</time></trkpt><trkpt lat="40.7459067" lon="8.2045517"><ele>141.25</ele><time>2026-04-19T10:59:43.478Z</time></trkpt><trkpt lat="40.74587" lon="8.2046983"><ele>142.0</ele><time>2026-04-19T10:59:44.479Z</time></trkpt><trkpt lat="40.7458283" lon="8.2048383"><ele>142.0</ele><time>2026-04-19T10:59:45.478Z</time></trkpt><trkpt lat="40.7457783" lon="8.2049733"><ele>142.0</ele><time>2026-04-19T10:59:46.478Z</time></trkpt><trkpt lat="40.74572" lon="8.2050883"><ele>142.0</ele><time>2026-04-19T10:59:47.478Z</time></trkpt><trkpt lat="40.74566" lon="8.2051933"><ele>142.0</ele><time>2026-04-19T10:59:48.478Z</time></trkpt><trkpt lat="40.7456" lon="8.205295"><ele>142.0</ele><time>2026-04-19T10:59:49.478Z</time></trkpt><trkpt lat="40.7455467" lon="8.2053817"><ele>142.0</ele><time>2026-04-19T10:59:50.479Z</time></trkpt><trkpt lat="40.7455" lon="8.2054617"><ele>142.0</ele><time>2026-04-19T10:59:51.479Z</time></trkpt><trkpt lat="40.7454533" lon="8.2055333"><ele>142.0</ele><time>2026-04-19T10:59:52.479Z</time></trkpt><trkpt lat="40.7453467" lon="8.2056233"><ele>142.0</ele><time>2026-04-19T10:59:54.478Z</time></trkpt><trkpt lat="40.7452783" lon="8.2056233"><ele>142.0</ele><time>2026-04-19T10:59:55.478Z</time></trkpt><trkpt lat="40.74518" lon="8.20562"><ele>142.0</ele><time>2026-04-19T10:59:56.478Z</time></trkpt><trkpt lat="40.7450633" lon="8.2056317"><ele>141.5</ele><time>2026-04-19T10:59:57.478Z</time></trkpt><trkpt lat="40.7449383" lon="8.2056567"><ele>141.0</ele><time>2026-04-19T10:59:58.478Z</time></trkpt><trkpt lat="40.7448033" lon="8.2057083"><ele>140.5</ele><time>2026-04-19T10:59:59.478Z</time></trkpt><trkpt lat="40.74465" lon="8.2057717"><ele>140.0</ele><time>2026-04-19T11:00:00.478Z</time></trkpt><trkpt lat="40.7444933" lon="8.2058233"><ele>139.0</ele><time>2026-04-19T11:00:01.478Z</time></trkpt><trkpt lat="40.7443317" lon="8.2058983"><ele>138.0</ele><time>2026-04-19T11:00:02.478Z</time></trkpt><trkpt lat="40.7441633" lon="8.2059733"><ele>137.0</ele><time>2026-04-19T11:00:03.479Z</time></trkpt><trkpt lat="40.743985" lon="8.2060417"><ele>137.0</ele><time>2026-04-19T11:00:04.479Z</time></trkpt><trkpt lat="40.7438083" lon="8.2061033"><ele>137.0</ele><time>2026-04-19T11:00:05.479Z</time></trkpt><trkpt lat="40.74363" lon="8.2061733"><ele>137.0</ele><time>2026-04-19T11:00:06.478Z</time></trkpt><trkpt lat="40.7434483" lon="8.2062383"><ele>139.0</ele><time>2026-04-19T11:00:07.479Z</time></trkpt><trkpt lat="40.74326" lon="8.2062883"><ele>141.0</ele><time>2026-04-19T11:00:08.479Z</time></trkpt><trkpt lat="40.7430667" lon="8.20633"><ele>143.0</ele><time>2026-04-19T11:00:09.479Z</time></trkpt><trkpt lat="40.74287" lon="8.206375"><ele>143.33333333333331</ele><time>2026-04-19T11:00:10.479Z</time></trkpt><trkpt lat="40.7426617" lon="8.206415"><ele>143.66666666666666</ele><time>2026-04-19T11:00:11.478Z</time></trkpt><trkpt lat="40.7424483" lon="8.2064617"><ele>144.0</ele><time>2026-04-19T11:00:12.479Z</time></trkpt><trkpt lat="40.7422367" lon="8.2065"><ele>143.0</ele><time>2026-04-19T11:00:13.478Z</time></trkpt><trkpt lat="40.7420167" lon="8.2065383"><ele>142.0</ele><time>2026-04-19T11:00:14.478Z</time></trkpt><trkpt lat="40.7418033" lon="8.2065767"><ele>141.0</ele><time>2026-04-19T11:00:15.478Z</time></trkpt><trkpt lat="40.7415883" lon="8.2066233"><ele>141.0</ele><time>2026-04-19T11:00:16.479Z</time></trkpt><trkpt lat="40.7413867" lon="8.2066617"><ele>141.0</ele><time>2026-04-19T11:00:17.478Z</time></trkpt><trkpt lat="40.7411883" lon="8.2067017"><ele>141.0</ele><time>2026-04-19T11:00:18.479Z</time></trkpt><trkpt lat="40.7409967" lon="8.2067417"><ele>141.0</ele><time>2026-04-19T11:00:19.479Z</time></trkpt><trkpt lat="40.7407883" lon="8.2067833"><ele>141.0</ele><time>2026-04-19T11:00:20.479Z</time></trkpt><trkpt lat="40.740575" lon="8.2068467"><ele>141.0</ele><time>2026-04-19T11:00:21.478Z</time></trkpt><trkpt lat="40.740365" lon="8.2069233"><ele>140.66666666666666</ele><time>2026-04-19T11:00:22.478Z</time></trkpt><trkpt lat="40.7401533" lon="8.207"><ele>140.33333333333331</ele><time>2026-04-19T11:00:23.478Z</time></trkpt><trkpt lat="40.7399383" lon="8.2070783"><ele>140.0</ele><time>2026-04-19T11:00:24.479Z</time></trkpt><trkpt lat="40.7397317" lon="8.2071633"><ele>140.0</ele><time>2026-04-19T11:00:25.479Z</time></trkpt><trkpt lat="40.7395267" lon="8.2072433"><ele>140.0</ele><time>2026-04-19T11:00:26.478Z</time></trkpt><trkpt lat="40.73932" lon="8.2073167"><ele>140.0</ele><time>2026-04-19T11:00:27.478Z</time></trkpt><trkpt lat="40.7391267" lon="8.2073867"><ele>138.66666666666666</ele><time>2026-04-19T11:00:28.478Z</time></trkpt><trkpt lat="40.73893" lon="8.2074583"><ele>137.33333333333334</ele><time>2026-04-19T11:00:29.478Z</time></trkpt><trkpt lat="40.73874" lon="8.2075283"><ele>136.0</ele><time>2026-04-19T11:00:30.478Z</time></trkpt><trkpt lat="40.7385567" lon="8.2075967"><ele>136.0</ele><time>2026-04-19T11:00:31.479Z</time></trkpt><trkpt lat="40.738375" lon="8.2076633"><ele>136.0</ele><time>2026-04-19T11:00:32.479Z</time></trkpt><trkpt lat="40.7381933" lon="8.2077317"><ele>136.0</ele><time>2026-04-19T11:00:33.478Z</time></trkpt><trkpt lat="40.7380217" lon="8.2078117"><ele>136.0</ele><time>2026-04-19T11:00:34.478Z</time></trkpt><trkpt lat="40.737865" lon="8.207895"><ele>136.0</ele><time>2026-04-19T11:00:35.477Z</time></trkpt><trkpt lat="40.7377217" lon="8.2079817"><ele>136.0</ele><time>2026-04-19T11:00:36.478Z</time></trkpt><trkpt lat="40.737575" lon="8.208105"><ele>134.66666666666669</ele><time>2026-04-19T11:00:37.478Z</time></trkpt><trkpt lat="40.7374333" lon="8.208245"><ele>133.33333333333334</ele><time>2026-04-19T11:00:38.477Z</time></trkpt><trkpt lat="40.737295" lon="8.2084017"><ele>132.0</ele><time>2026-04-19T11:00:39.478Z</time></trkpt><trkpt lat="40.7371583" lon="8.2085583"><ele>132.0</ele><time>2026-04-19T11:00:40.477Z</time></trkpt><trkpt lat="40.73703" lon="8.208715"><ele>132.0</ele><time>2026-04-19T11:00:41.478Z</time></trkpt><trkpt lat="40.7369133" lon="8.2088667"><ele>132.0</ele><time>2026-04-19T11:00:42.477Z</time></trkpt><trkpt lat="40.7367917" lon="8.209015"><ele>131.33333333333334</ele><time>2026-04-19T11:00:43.477Z</time></trkpt><trkpt lat="40.736675" lon="8.209165"><ele>130.66666666666669</ele><time>2026-04-19T11:00:44.478Z</time></trkpt><trkpt lat="40.73656" lon="8.209305"><ele>130.0</ele><time>2026-04-19T11:00:45.477Z</time></trkpt><trkpt lat="40.7364483" lon="8.2094483"><ele>130.0</ele><time>2026-04-19T11:00:46.478Z</time></trkpt><trkpt lat="40.7363333" lon="8.20959"><ele>130.0</ele><time>2026-04-19T11:00:47.477Z</time></trkpt><trkpt lat="40.7362067" lon="8.209735"><ele>130.0</ele><time>2026-04-19T11:00:48.477Z</time></trkpt><trkpt lat="40.7360933" lon="8.209875"><ele>131.25</ele><time>2026-04-19T11:00:49.477Z</time></trkpt><trkpt lat="40.7359733" lon="8.2100067"><ele>132.5</ele><time>2026-04-19T11:00:50.477Z</time></trkpt><trkpt lat="40.73586" lon="8.2101267"><ele>133.75</ele><time>2026-04-19T11:00:51.478Z</time></trkpt><trkpt lat="40.735745" lon="8.2102333"><ele>135.0</ele><time>2026-04-19T11:00:52.477Z</time></trkpt><trkpt lat="40.7356267" lon="8.2103383"><ele>135.0</ele><time>2026-04-19T11:00:53.478Z</time></trkpt><trkpt lat="40.7355017" lon="8.2104517"><ele>135.0</ele><time>2026-04-19T11:00:54.477Z</time></trkpt><trkpt lat="40.7353767" lon="8.2105583"><ele>135.0</ele><time>2026-04-19T11:00:55.477Z</time></trkpt><trkpt lat="40.73524" lon="8.2106617"><ele>135.75</ele><time>2026-04-19T11:00:56.477Z</time></trkpt><trkpt lat="40.7350967" lon="8.2107633"><ele>136.5</ele><time>2026-04-19T11:00:57.477Z</time></trkpt><trkpt lat="40.7349683" lon="8.2108583"><ele>137.25</ele><time>2026-04-19T11:00:58.478Z</time></trkpt><trkpt lat="40.73485" lon="8.2109517"><ele>138.0</ele><time>2026-04-19T11:00:59.477Z</time></trkpt><trkpt lat="40.7347383" lon="8.2110417"><ele>138.0</ele><time>2026-04-19T11:01:00.478Z</time></trkpt><trkpt lat="40.7346283" lon="8.2111417"><ele>138.0</ele><time>2026-04-19T11:01:01.477Z</time></trkpt><trkpt lat="40.7345217" lon="8.21124"><ele>138.0</ele><time>2026-04-19T11:01:02.477Z</time></trkpt><trkpt lat="40.73441" lon="8.2113567"><ele>138.0</ele><time>2026-04-19T11:01:03.477Z</time></trkpt><trkpt lat="40.7342917" lon="8.2114833"><ele>137.0</ele><time>2026-04-19T11:01:04.477Z</time></trkpt><trkpt lat="40.7341783" lon="8.2116067"><ele>136.0</ele><time>2026-04-19T11:01:05.477Z</time></trkpt><trkpt lat="40.734055" lon="8.211735"><ele>135.0</ele><time>2026-04-19T11:01:06.477Z</time></trkpt><trkpt lat="40.7339433" lon="8.2118683"><ele>135.0</ele><time>2026-04-19T11:01:07.478Z</time></trkpt><trkpt lat="40.7338333" lon="8.21201"><ele>135.0</ele><time>2026-04-19T11:01:08.477Z</time></trkpt><trkpt lat="40.7337067" lon="8.2121633"><ele>135.0</ele><time>2026-04-19T11:01:09.478Z</time></trkpt><trkpt lat="40.7335883" lon="8.21232"><ele>134.0</ele><time>2026-04-19T11:01:10.477Z</time></trkpt><trkpt lat="40.73347" lon="8.212475"><ele>133.0</ele><time>2026-04-19T11:01:11.477Z</time></trkpt><trkpt lat="40.7333533" lon="8.212645"><ele>132.0</ele><time>2026-04-19T11:01:12.477Z</time></trkpt><trkpt lat="40.7332417" lon="8.212815"><ele>132.0</ele><time>2026-04-19T11:01:13.478Z</time></trkpt><trkpt lat="40.7331283" lon="8.2129867"><ele>132.0</ele><time>2026-04-19T11:01:14.477Z</time></trkpt><trkpt lat="40.7330217" lon="8.2131517"><ele>132.0</ele><time>2026-04-19T11:01:15.477Z</time></trkpt><trkpt lat="40.7329233" lon="8.2133183"><ele>131.66666666666666</ele><time>2026-04-19T11:01:16.477Z</time></trkpt><trkpt lat="40.732825" lon="8.2134783"><ele>131.33333333333331</ele><time>2026-04-19T11:01:17.478Z</time></trkpt><trkpt lat="40.7327367" lon="8.2136467"><ele>131.0</ele><time>2026-04-19T11:01:18.477Z</time></trkpt><trkpt lat="40.7326367" lon="8.2138017"><ele>131.75</ele><time>2026-04-19T11:01:19.478Z</time></trkpt><trkpt lat="40.732535" lon="8.21394"><ele>132.5</ele><time>2026-04-19T11:01:20.477Z</time></trkpt><trkpt lat="40.7324167" lon="8.21407"><ele>133.25</ele><time>2026-04-19T11:01:21.477Z</time></trkpt><trkpt lat="40.7322967" lon="8.214185"><ele>134.0</ele><time>2026-04-19T11:01:22.477Z</time></trkpt><trkpt lat="40.732175" lon="8.2142867"><ele>135.0</ele><time>2026-04-19T11:01:23.477Z</time></trkpt><trkpt lat="40.7320383" lon="8.214385"><ele>136.0</ele><time>2026-04-19T11:01:24.477Z</time></trkpt><trkpt lat="40.731895" lon="8.2144717"><ele>137.0</ele><time>2026-04-19T11:01:25.477Z</time></trkpt><trkpt lat="40.7317483" lon="8.21455"><ele>137.0</ele><time>2026-04-19T11:01:26.478Z</time></trkpt><trkpt lat="40.7316033" lon="8.2146167"><ele>137.0</ele><time>2026-04-19T11:01:27.477Z</time></trkpt><trkpt lat="40.731475" lon="8.214675"><ele>137.0</ele><time>2026-04-19T11:01:28.478Z</time></trkpt><trkpt lat="40.731345" lon="8.214735"><ele>137.0</ele><time>2026-04-19T11:01:29.478Z</time></trkpt><trkpt lat="40.7312217" lon="8.2148133"><ele>137.0</ele><time>2026-04-19T11:01:30.477Z</time></trkpt><trkpt lat="40.7310967" lon="8.21493"><ele>137.0</ele><time>2026-04-19T11:01:31.477Z</time></trkpt><trkpt lat="40.7309783" lon="8.2150517"><ele>137.0</ele><time>2026-04-19T11:01:32.477Z</time></trkpt><trkpt lat="40.7308567" lon="8.215165"><ele>137.0</ele><time>2026-04-19T11:01:33.478Z</time></trkpt><trkpt lat="40.730725" lon="8.2152617"><ele>137.0</ele><time>2026-04-19T11:01:34.478Z</time></trkpt><trkpt lat="40.7305833" lon="8.215335"><ele>137.0</ele><time>2026-04-19T11:01:35.477Z</time></trkpt><trkpt lat="40.7304383" lon="8.215385"><ele>137.0</ele><time>2026-04-19T11:01:36.478Z</time></trkpt><trkpt lat="40.730285" lon="8.2154217"><ele>137.0</ele><time>2026-04-19T11:01:37.478Z</time></trkpt><trkpt lat="40.73013" lon="8.2154517"><ele>137.0</ele><time>2026-04-19T11:01:38.478Z</time></trkpt><trkpt lat="40.729975" lon="8.215485"><ele>137.66666666666666</ele><time>2026-04-19T11:01:39.477Z</time></trkpt><trkpt lat="40.7298133" lon="8.2155033"><ele>138.33333333333334</ele><time>2026-04-19T11:01:40.477Z</time></trkpt><trkpt lat="40.72965" lon="8.2155033"><ele>139.0</ele><time>2026-04-19T11:01:41.478Z</time></trkpt><trkpt lat="40.7294933" lon="8.2154733"><ele>140.66666666666669</ele><time>2026-04-19T11:01:42.478Z</time></trkpt><trkpt lat="40.7293433" lon="8.21543"><ele>142.33333333333334</ele><time>2026-04-19T11:01:43.478Z</time></trkpt><trkpt lat="40.7291817" lon="8.2153783"><ele>144.0</ele><time>2026-04-19T11:01:44.477Z</time></trkpt><trkpt lat="40.7290133" lon="8.2153267"><ele>144.0</ele><time>2026-04-19T11:01:45.477Z</time></trkpt><trkpt lat="40.7288417" lon="8.2152717"><ele>144.0</ele><time>2026-04-19T11:01:46.477Z</time></trkpt><trkpt lat="40.7286783" lon="8.21522"><ele>144.0</ele><time>2026-04-19T11:01:47.477Z</time></trkpt><trkpt lat="40.7285133" lon="8.2151733"><ele>145.0</ele><time>2026-04-19T11:01:48.477Z</time></trkpt><trkpt lat="40.7283533" lon="8.2151283"><ele>146.0</ele><time>2026-04-19T11:01:49.478Z</time></trkpt><trkpt lat="40.7281933" lon="8.2150967"><ele>147.0</ele><time>2026-04-19T11:01:50.478Z</time></trkpt><trkpt lat="40.7280317" lon="8.2150983"><ele>147.0</ele><time>2026-04-19T11:01:51.478Z</time></trkpt><trkpt lat="40.7278617" lon="8.2151417"><ele>147.0</ele><time>2026-04-19T11:01:52.478Z</time></trkpt><trkpt lat="40.7277033" lon="8.2152067"><ele>147.0</ele><time>2026-04-19T11:01:53.477Z</time></trkpt><trkpt lat="40.7275433" lon="8.215265"><ele>148.66666666666666</ele><time>2026-04-19T11:01:54.477Z</time></trkpt><trkpt lat="40.7273717" lon="8.2153133"><ele>150.33333333333331</ele><time>2026-04-19T11:01:55.477Z</time></trkpt><trkpt lat="40.7272" lon="8.21536"><ele>152.0</ele><time>2026-04-19T11:01:56.478Z</time></trkpt><trkpt lat="40.7270133" lon="8.2154067"><ele>153.33333333333331</ele><time>2026-04-19T11:01:57.478Z</time></trkpt><trkpt lat="40.72684" lon="8.21546"><ele>154.66666666666666</ele><time>2026-04-19T11:01:58.478Z</time></trkpt><trkpt lat="40.726675" lon="8.2155333"><ele>156.0</ele><time>2026-04-19T11:01:59.478Z</time></trkpt><trkpt lat="40.726515" lon="8.2155933"><ele>156.0</ele><time>2026-04-19T11:02:00.477Z</time></trkpt><trkpt lat="40.7263533" lon="8.2156417"><ele>156.0</ele><time>2026-04-19T11:02:01.477Z</time></trkpt><trkpt lat="40.7261933" lon="8.2156767"><ele>156.0</ele><time>2026-04-19T11:02:02.477Z</time></trkpt><trkpt lat="40.7260517" lon="8.2156867"><ele>158.0</ele><time>2026-04-19T11:02:03.478Z</time></trkpt><trkpt lat="40.7259183" lon="8.2156617"><ele>160.0</ele><time>2026-04-19T11:02:04.477Z</time></trkpt><trkpt lat="40.7257867" lon="8.2156483"><ele>162.0</ele><time>2026-04-19T11:02:05.478Z</time></trkpt><trkpt lat="40.7256617" lon="8.2156633"><ele>164.0</ele><time>2026-04-19T11:02:06.478Z</time></trkpt><trkpt lat="40.725535" lon="8.2157183"><ele>164.0</ele><time>2026-04-19T11:02:07.477Z</time></trkpt><trkpt lat="40.725415" lon="8.2158117"><ele>164.0</ele><time>2026-04-19T11:02:08.478Z</time></trkpt><trkpt lat="40.7253233" lon="8.2159333"><ele>164.0</ele><time>2026-04-19T11:02:09.477Z</time></trkpt><trkpt lat="40.72524" lon="8.2160717"><ele>164.0</ele><time>2026-04-19T11:02:10.477Z</time></trkpt><trkpt lat="40.7251367" lon="8.21618"><ele>162.0</ele><time>2026-04-19T11:02:11.477Z</time></trkpt><trkpt lat="40.7250067" lon="8.2162467"><ele>160.0</ele><time>2026-04-19T11:02:12.477Z</time></trkpt><trkpt lat="40.7248483" lon="8.2162883"><ele>158.0</ele><time>2026-04-19T11:02:13.477Z</time></trkpt><trkpt lat="40.724665" lon="8.216315"><ele>158.0</ele><time>2026-04-19T11:02:14.477Z</time></trkpt><trkpt lat="40.7244817" lon="8.2163433"><ele>158.0</ele><time>2026-04-19T11:02:15.477Z</time></trkpt><trkpt lat="40.7243133" lon="8.2163733"><ele>158.0</ele><time>2026-04-19T11:02:16.478Z</time></trkpt><trkpt lat="40.7241633" lon="8.2164167"><ele>155.5</ele><time>2026-04-19T11:02:17.478Z</time></trkpt><trkpt lat="40.7240217" lon="8.2164867"><ele>153.0</ele><time>2026-04-19T11:02:18.477Z</time></trkpt><trkpt lat="40.7238983" lon="8.216585"><ele>150.5</ele><time>2026-04-19T11:02:19.478Z</time></trkpt><trkpt lat="40.7237817" lon="8.2166883"><ele>148.0</ele><time>2026-04-19T11:02:20.477Z</time></trkpt><trkpt lat="40.7236667" lon="8.2167567"><ele>147.0</ele><time>2026-04-19T11:02:21.478Z</time></trkpt><trkpt lat="40.72355" lon="8.2167733"><ele>146.0</ele><time>2026-04-19T11:02:22.477Z</time></trkpt><trkpt lat="40.723425" lon="8.2167317"><ele>145.0</ele><time>2026-04-19T11:02:23.478Z</time></trkpt><trkpt lat="40.72329" lon="8.216655"><ele>144.0</ele><time>2026-04-19T11:02:24.477Z</time></trkpt><trkpt lat="40.7231617" lon="8.2165833"><ele>144.0</ele><time>2026-04-19T11:02:25.478Z</time></trkpt><trkpt lat="40.7230233" lon="8.2165567"><ele>144.0</ele><time>2026-04-19T11:02:26.478Z</time></trkpt><trkpt lat="40.722875" lon="8.2165767"><ele>144.0</ele><time>2026-04-19T11:02:27.478Z</time></trkpt><trkpt lat="40.72273" lon="8.2166183"><ele>144.0</ele><time>2026-04-19T11:02:28.478Z</time></trkpt><trkpt lat="40.722595" lon="8.21665"><ele>143.0</ele><time>2026-04-19T11:02:29.477Z</time></trkpt><trkpt lat="40.7224533" lon="8.2166467"><ele>142.0</ele><time>2026-04-19T11:02:30.477Z</time></trkpt><trkpt lat="40.7222967" lon="8.2166517"><ele>141.0</ele><time>2026-04-19T11:02:31.478Z</time></trkpt><trkpt lat="40.7221433" lon="8.216665"><ele>141.0</ele><time>2026-04-19T11:02:32.477Z</time></trkpt><trkpt lat="40.72201" lon="8.2167117"><ele>141.0</ele><time>2026-04-19T11:02:33.478Z</time></trkpt><trkpt lat="40.7218867" lon="8.2167817"><ele>141.0</ele><time>2026-04-19T11:02:34.477Z</time></trkpt><trkpt lat="40.7217817" lon="8.2168467"><ele>141.0</ele><time>2026-04-19T11:02:35.478Z</time></trkpt><trkpt lat="40.72168" lon="8.2169067"><ele>139.25</ele><time>2026-04-19T11:02:36.478Z</time></trkpt><trkpt lat="40.7215667" lon="8.2169283"><ele>137.5</ele><time>2026-04-19T11:02:37.477Z</time></trkpt><trkpt lat="40.721445" lon="8.2168733"><ele>135.75</ele><time>2026-04-19T11:02:38.478Z</time></trkpt><trkpt lat="40.7213283" lon="8.21676"><ele>134.0</ele><time>2026-04-19T11:02:39.477Z</time></trkpt><trkpt lat="40.72123" lon="8.2166267"><ele>134.0</ele><time>2026-04-19T11:02:40.478Z</time></trkpt><trkpt lat="40.7211383" lon="8.216505"><ele>134.0</ele><time>2026-04-19T11:02:41.478Z</time></trkpt><trkpt lat="40.7210483" lon="8.2164033"><ele>134.0</ele><time>2026-04-19T11:02:42.478Z</time></trkpt><trkpt lat="40.7209433" lon="8.2163317"><ele>134.0</ele><time>2026-04-19T11:02:43.477Z</time></trkpt><trkpt lat="40.7208233" lon="8.216295"><ele>134.0</ele><time>2026-04-19T11:02:44.478Z</time></trkpt><trkpt lat="40.7207033" lon="8.2163017"><ele>134.0</ele><time>2026-04-19T11:02:45.477Z</time></trkpt><trkpt lat="40.7205817" lon="8.2163467"><ele>134.0</ele><time>2026-04-19T11:02:46.477Z</time></trkpt><trkpt lat="40.7204667" lon="8.216445"><ele>134.0</ele><time>2026-04-19T11:02:47.477Z</time></trkpt><trkpt lat="40.7203617" lon="8.21657"><ele>133.5</ele><time>2026-04-19T11:02:48.477Z</time></trkpt><trkpt lat="40.7202633" lon="8.2166983"><ele>133.0</ele><time>2026-04-19T11:02:49.477Z</time></trkpt><trkpt lat="40.7201633" lon="8.2168467"><ele>132.5</ele><time>2026-04-19T11:02:50.477Z</time></trkpt><trkpt lat="40.7200667" lon="8.2169983"><ele>132.0</ele><time>2026-04-19T11:02:51.478Z</time></trkpt><trkpt lat="40.7199833" lon="8.2171667"><ele>131.75</ele><time>2026-04-19T11:02:52.477Z</time></trkpt><trkpt lat="40.71992" lon="8.2173333"><ele>131.5</ele><time>2026-04-19T11:02:53.477Z</time></trkpt><trkpt lat="40.7198533" lon="8.2174967"><ele>131.25</ele><time>2026-04-19T11:02:54.477Z</time></trkpt><trkpt lat="40.7197883" lon="8.217665"><ele>131.0</ele><time>2026-04-19T11:02:55.478Z</time></trkpt><trkpt lat="40.71972" lon="8.2178267"><ele>131.0</ele><time>2026-04-19T11:02:56.477Z</time></trkpt><trkpt lat="40.7196233" lon="8.2179717"><ele>131.0</ele><time>2026-04-19T11:02:57.477Z</time></trkpt><trkpt lat="40.7195167" lon="8.218095"><ele>131.0</ele><time>2026-04-19T11:02:58.477Z</time></trkpt><trkpt lat="40.7193883" lon="8.2182033"><ele>131.0</ele><time>2026-04-19T11:02:59.478Z</time></trkpt><trkpt lat="40.7192583" lon="8.2182917"><ele>129.0</ele><time>2026-04-19T11:03:00.478Z</time></trkpt><trkpt lat="40.71913" lon="8.2183533"><ele>127.0</ele><time>2026-04-19T11:03:01.478Z</time></trkpt><trkpt lat="40.7189933" lon="8.218395"><ele>125.0</ele><time>2026-04-19T11:03:02.478Z</time></trkpt><trkpt lat="40.7188517" lon="8.218405"><ele>123.0</ele><time>2026-04-19T11:03:03.478Z</time></trkpt><trkpt lat="40.7187083" lon="8.2183683"><ele>123.0</ele><time>2026-04-19T11:03:04.478Z</time></trkpt><trkpt lat="40.7185717" lon="8.2182983"><ele>123.0</ele><time>2026-04-19T11:03:05.477Z</time></trkpt><trkpt lat="40.71844" lon="8.2182"><ele>123.0</ele><time>2026-04-19T11:03:06.478Z</time></trkpt><trkpt lat="40.7183183" lon="8.2181117"><ele>123.0</ele><time>2026-04-19T11:03:07.478Z</time></trkpt><trkpt lat="40.7181967" lon="8.2180467"><ele>123.0</ele><time>2026-04-19T11:03:08.477Z</time></trkpt><trkpt lat="40.7180617" lon="8.2180333"><ele>123.0</ele><time>2026-04-19T11:03:09.478Z</time></trkpt><trkpt lat="40.7179183" lon="8.218085"><ele>123.0</ele><time>2026-04-19T11:03:10.478Z</time></trkpt><trkpt lat="40.71778" lon="8.21819"><ele>123.0</ele><time>2026-04-19T11:03:11.478Z</time></trkpt><trkpt lat="40.7176367" lon="8.2183167"><ele>120.66666666666666</ele><time>2026-04-19T11:03:12.478Z</time></trkpt><trkpt lat="40.71749" lon="8.2184383"><ele>118.33333333333333</ele><time>2026-04-19T11:03:13.477Z</time></trkpt><trkpt lat="40.7173517" lon="8.218555"><ele>116.0</ele><time>2026-04-19T11:03:14.478Z</time></trkpt><trkpt lat="40.7172283" lon="8.2186617"><ele>116.0</ele><time>2026-04-19T11:03:15.478Z</time></trkpt><trkpt lat="40.71712" lon="8.218765"><ele>116.0</ele><time>2026-04-19T11:03:16.478Z</time></trkpt><trkpt lat="40.7170067" lon="8.2188567"><ele>116.0</ele><time>2026-04-19T11:03:17.478Z</time></trkpt><trkpt lat="40.71688" lon="8.21893"><ele>116.0</ele><time>2026-04-19T11:03:18.477Z</time></trkpt><trkpt lat="40.716745" lon="8.2189767"><ele>115.75</ele><time>2026-04-19T11:03:19.477Z</time></trkpt><trkpt lat="40.716605" lon="8.2189867"><ele>115.5</ele><time>2026-04-19T11:03:20.478Z</time></trkpt><trkpt lat="40.7164767" lon="8.218965"><ele>115.25</ele><time>2026-04-19T11:03:21.477Z</time></trkpt><trkpt lat="40.7163533" lon="8.218945"><ele>115.0</ele><time>2026-04-19T11:03:22.477Z</time></trkpt><trkpt lat="40.71624" lon="8.21895"><ele>115.0</ele><time>2026-04-19T11:03:23.477Z</time></trkpt><trkpt lat="40.7161367" lon="8.2189783"><ele>115.0</ele><time>2026-04-19T11:03:24.477Z</time></trkpt><trkpt lat="40.7160417" lon="8.2190517"><ele>115.0</ele><time>2026-04-19T11:03:25.477Z</time></trkpt><trkpt lat="40.7159717" lon="8.2191617"><ele>115.0</ele><time>2026-04-19T11:03:26.478Z</time></trkpt><trkpt lat="40.715935" lon="8.2193217"><ele>115.25</ele><time>2026-04-19T11:03:27.478Z</time></trkpt><trkpt lat="40.7159067" lon="8.2195017"><ele>115.5</ele><time>2026-04-19T11:03:28.478Z</time></trkpt><trkpt lat="40.7158867" lon="8.2196967"><ele>115.75</ele><time>2026-04-19T11:03:29.477Z</time></trkpt><trkpt lat="40.7158567" lon="8.2198733"><ele>116.0</ele><time>2026-04-19T11:03:30.478Z</time></trkpt><trkpt lat="40.7157917" lon="8.220025"><ele>115.5</ele><time>2026-04-19T11:03:31.478Z</time></trkpt><trkpt lat="40.7156967" lon="8.2201667"><ele>115.0</ele><time>2026-04-19T11:03:32.477Z</time></trkpt><trkpt lat="40.7155733" lon="8.2202767"><ele>114.5</ele><time>2026-04-19T11:03:33.477Z</time></trkpt><trkpt lat="40.7154483" lon="8.2203733"><ele>114.0</ele><time>2026-04-19T11:03:34.477Z</time></trkpt><trkpt lat="40.7153183" lon="8.2204667"><ele>114.25</ele><time>2026-04-19T11:03:35.477Z</time></trkpt><trkpt lat="40.7151983" lon="8.220565"><ele>114.5</ele><time>2026-04-19T11:03:36.478Z</time></trkpt><trkpt lat="40.7150817" lon="8.22065"><ele>114.75</ele><time>2026-04-19T11:03:37.477Z</time></trkpt><trkpt lat="40.71497" lon="8.220745"><ele>115.0</ele><time>2026-04-19T11:03:38.478Z</time></trkpt><trkpt lat="40.7148667" lon="8.2208383"><ele>113.75</ele><time>2026-04-19T11:03:39.478Z</time></trkpt><trkpt lat="40.714775" lon="8.220945"><ele>112.5</ele><time>2026-04-19T11:03:40.477Z</time></trkpt><trkpt lat="40.7146983" lon="8.2210733"><ele>111.25</ele><time>2026-04-19T11:03:41.478Z</time></trkpt><trkpt lat="40.714635" lon="8.22122"><ele>110.0</ele><time>2026-04-19T11:03:42.477Z</time></trkpt><trkpt lat="40.7145967" lon="8.2213917"><ele>109.75</ele><time>2026-04-19T11:03:43.477Z</time></trkpt><trkpt lat="40.7145783" lon="8.2215583"><ele>109.5</ele><time>2026-04-19T11:03:44.477Z</time></trkpt><trkpt lat="40.7145733" lon="8.2217217"><ele>109.25</ele><time>2026-04-19T11:03:45.477Z</time></trkpt><trkpt lat="40.71458" lon="8.2218783"><ele>109.0</ele><time>2026-04-19T11:03:46.477Z</time></trkpt><trkpt lat="40.7145833" lon="8.2220267"><ele>109.0</ele><time>2026-04-19T11:03:47.477Z</time></trkpt><trkpt lat="40.7145817" lon="8.222175"><ele>109.0</ele><time>2026-04-19T11:03:48.478Z</time></trkpt><trkpt lat="40.7145767" lon="8.222315"><ele>109.0</ele><time>2026-04-19T11:03:49.478Z</time></trkpt><trkpt lat="40.7145383" lon="8.2224433"><ele>109.0</ele><time>2026-04-19T11:03:50.477Z</time></trkpt><trkpt lat="40.7144833" lon="8.2225617"><ele>109.0</ele><time>2026-04-19T11:03:51.478Z</time></trkpt><trkpt lat="40.7144133" lon="8.2226583"><ele>108.25</ele><time>2026-04-19T11:03:52.477Z</time></trkpt><trkpt lat="40.7143083" lon="8.2227233"><ele>107.5</ele><time>2026-04-19T11:03:53.478Z</time></trkpt><trkpt lat="40.7141917" lon="8.2227417"><ele>106.75</ele><time>2026-04-19T11:03:54.477Z</time></trkpt><trkpt lat="40.7140433" lon="8.22272"><ele>106.0</ele><time>2026-04-19T11:03:55.477Z</time></trkpt><trkpt lat="40.7138667" lon="8.2226517"><ele>106.0</ele><time>2026-04-19T11:03:56.477Z</time></trkpt><trkpt lat="40.7136733" lon="8.22255"><ele>106.0</ele><time>2026-04-19T11:03:57.477Z</time></trkpt><trkpt lat="40.71348" lon="8.2224967"><ele>106.0</ele><time>2026-04-19T11:03:58.477Z</time></trkpt><trkpt lat="40.7132783" lon="8.222495"><ele>107.0</ele><time>2026-04-19T11:03:59.478Z</time></trkpt><trkpt lat="40.7130883" lon="8.2225383"><ele>108.0</ele><time>2026-04-19T11:04:00.477Z</time></trkpt><trkpt lat="40.7129217" lon="8.2226233"><ele>109.0</ele><time>2026-04-19T11:04:01.478Z</time></trkpt><trkpt lat="40.712775" lon="8.2227133"><ele>112.0</ele><time>2026-04-19T11:04:02.477Z</time></trkpt><trkpt lat="40.7126067" lon="8.2227717"><ele>115.0</ele><time>2026-04-19T11:04:03.477Z</time></trkpt><trkpt lat="40.71245" lon="8.2227883"><ele>118.0</ele><time>2026-04-19T11:04:04.477Z</time></trkpt><trkpt lat="40.712295" lon="8.2227967"><ele>118.0</ele><time>2026-04-19T11:04:05.478Z</time></trkpt><trkpt lat="40.7121417" lon="8.2228383"><ele>118.0</ele><time>2026-04-19T11:04:06.477Z</time></trkpt><trkpt lat="40.71198" lon="8.2229267"><ele>118.0</ele><time>2026-04-19T11:04:07.477Z</time></trkpt><trkpt lat="40.7118167" lon="8.2230467"><ele>115.0</ele><time>2026-04-19T11:04:08.477Z</time></trkpt><trkpt lat="40.7116667" lon="8.22317"><ele>112.0</ele><time>2026-04-19T11:04:09.478Z</time></trkpt><trkpt lat="40.711525" lon="8.223285"><ele>109.0</ele><time>2026-04-19T11:04:10.478Z</time></trkpt><trkpt lat="40.7113983" lon="8.2233783"><ele>109.0</ele><time>2026-04-19T11:04:11.477Z</time></trkpt><trkpt lat="40.71128" lon="8.2234617"><ele>109.0</ele><time>2026-04-19T11:04:12.478Z</time></trkpt><trkpt lat="40.711165" lon="8.2235333"><ele>109.0</ele><time>2026-04-19T11:04:13.477Z</time></trkpt><trkpt lat="40.7110533" lon="8.2236133"><ele>109.0</ele><time>2026-04-19T11:04:14.478Z</time></trkpt><trkpt lat="40.7109617" lon="8.2237033"><ele>109.25</ele><time>2026-04-19T11:04:15.477Z</time></trkpt><trkpt lat="40.7108767" lon="8.2238217"><ele>109.5</ele><time>2026-04-19T11:04:16.478Z</time></trkpt><trkpt lat="40.7107967" lon="8.22396"><ele>109.75</ele><time>2026-04-19T11:04:17.478Z</time></trkpt><trkpt lat="40.7107133" lon="8.2241133"><ele>110.0</ele><time>2026-04-19T11:04:18.477Z</time></trkpt><trkpt lat="40.71064" lon="8.22428"><ele>109.75</ele><time>2026-04-19T11:04:19.477Z</time></trkpt><trkpt lat="40.7105767" lon="8.2244533"><ele>109.5</ele><time>2026-04-19T11:04:20.478Z</time></trkpt><trkpt lat="40.7105217" lon="8.2246267"><ele>109.25</ele><time>2026-04-19T11:04:21.477Z</time></trkpt><trkpt lat="40.71047" lon="8.2247983"><ele>109.0</ele><time>2026-04-19T11:04:22.477Z</time></trkpt><trkpt lat="40.7104167" lon="8.224965"><ele>109.0</ele><time>2026-04-19T11:04:23.478Z</time></trkpt><trkpt lat="40.7103533" lon="8.2251183"><ele>109.0</ele><time>2026-04-19T11:04:24.478Z</time></trkpt><trkpt lat="40.71028" lon="8.22525"><ele>109.0</ele><time>2026-04-19T11:04:25.478Z</time></trkpt><trkpt lat="40.7101933" lon="8.22537"><ele>109.0</ele><time>2026-04-19T11:04:26.477Z</time></trkpt><trkpt lat="40.710095" lon="8.2254833"><ele>109.0</ele><time>2026-04-19T11:04:27.477Z</time></trkpt><trkpt lat="40.7099867" lon="8.22559"><ele>109.0</ele><time>2026-04-19T11:04:28.478Z</time></trkpt><trkpt lat="40.7098667" lon="8.2256967"><ele>109.0</ele><time>2026-04-19T11:04:29.477Z</time></trkpt><trkpt lat="40.7097533" lon="8.2258017"><ele>109.0</ele><time>2026-04-19T11:04:30.478Z</time></trkpt><trkpt lat="40.7096383" lon="8.22591"><ele>109.0</ele><time>2026-04-19T11:04:31.477Z</time></trkpt><trkpt lat="40.70952" lon="8.226015"><ele>109.0</ele><time>2026-04-19T11:04:32.477Z</time></trkpt><trkpt lat="40.7093967" lon="8.226125"><ele>109.0</ele><time>2026-04-19T11:04:33.477Z</time></trkpt><trkpt lat="40.7092617" lon="8.2262333"><ele>109.0</ele><time>2026-04-19T11:04:34.477Z</time></trkpt><trkpt lat="40.7091217" lon="8.2263367"><ele>106.0</ele><time>2026-04-19T11:04:35.477Z</time></trkpt><trkpt lat="40.708985" lon="8.226425"><ele>103.0</ele><time>2026-04-19T11:04:36.477Z</time></trkpt><trkpt lat="40.7088383" lon="8.2264983"><ele>100.0</ele><time>2026-04-19T11:04:37.477Z</time></trkpt><trkpt lat="40.7086917" lon="8.2265617"><ele>98.0</ele><time>2026-04-19T11:04:38.477Z</time></trkpt><trkpt lat="40.7085383" lon="8.2266217"><ele>96.0</ele><time>2026-04-19T11:04:39.477Z</time></trkpt><trkpt lat="40.708375" lon="8.22667"><ele>94.0</ele><time>2026-04-19T11:04:40.477Z</time></trkpt><trkpt lat="40.7082083" lon="8.2267167"><ele>94.0</ele><time>2026-04-19T11:04:41.478Z</time></trkpt><trkpt lat="40.7080483" lon="8.2267633"><ele>94.0</ele><time>2026-04-19T11:04:42.477Z</time></trkpt><trkpt lat="40.7078817" lon="8.2268083"><ele>94.0</ele><time>2026-04-19T11:04:43.477Z</time></trkpt><trkpt lat="40.7077117" lon="8.2268533"><ele>94.0</ele><time>2026-04-19T11:04:44.477Z</time></trkpt><trkpt lat="40.7075417" lon="8.2269017"><ele>94.0</ele><time>2026-04-19T11:04:45.478Z</time></trkpt><trkpt lat="40.7073783" lon="8.22695"><ele>94.0</ele><time>2026-04-19T11:04:46.477Z</time></trkpt><trkpt lat="40.7072133" lon="8.226995"><ele>94.0</ele><time>2026-04-19T11:04:47.478Z</time></trkpt><trkpt lat="40.7070533" lon="8.2270583"><ele>94.0</ele><time>2026-04-19T11:04:48.478Z</time></trkpt><trkpt lat="40.7068833" lon="8.22709"><ele>94.0</ele><time>2026-04-19T11:04:49.478Z</time></trkpt><trkpt lat="40.7067167" lon="8.2271317"><ele>93.33333333333333</ele><time>2026-04-19T11:04:50.478Z</time></trkpt><trkpt lat="40.706545" lon="8.2271767"><ele>92.66666666666667</ele><time>2026-04-19T11:04:51.478Z</time></trkpt><trkpt lat="40.7063833" lon="8.227215"><ele>92.0</ele><time>2026-04-19T11:04:52.478Z</time></trkpt><trkpt lat="40.7062233" lon="8.22727"><ele>92.0</ele><time>2026-04-19T11:04:53.478Z</time></trkpt><trkpt lat="40.7060583" lon="8.2273133"><ele>92.0</ele><time>2026-04-19T11:04:54.478Z</time></trkpt><trkpt lat="40.7058833" lon="8.2273667"><ele>92.0</ele><time>2026-04-19T11:04:55.478Z</time></trkpt><trkpt lat="40.7057067" lon="8.2274117"><ele>92.0</ele><time>2026-04-19T11:04:56.478Z</time></trkpt><trkpt lat="40.7055367" lon="8.2274583"><ele>92.0</ele><time>2026-04-19T11:04:57.478Z</time></trkpt><trkpt lat="40.7053583" lon="8.2275033"><ele>92.0</ele><time>2026-04-19T11:04:58.478Z</time></trkpt><trkpt lat="40.7051817" lon="8.22755"><ele>91.66666666666667</ele><time>2026-04-19T11:04:59.477Z</time></trkpt><trkpt lat="40.705005" lon="8.227605"><ele>91.33333333333333</ele><time>2026-04-19T11:05:00.478Z</time></trkpt><trkpt lat="40.7048083" lon="8.2276583"><ele>91.0</ele><time>2026-04-19T11:05:01.477Z</time></trkpt><trkpt lat="40.704625" lon="8.22772"><ele>91.0</ele><time>2026-04-19T11:05:02.478Z</time></trkpt><trkpt lat="40.7044417" lon="8.227775"><ele>91.0</ele><time>2026-04-19T11:05:03.478Z</time></trkpt><trkpt lat="40.7042567" lon="8.2278217"><ele>91.0</ele><time>2026-04-19T11:05:04.477Z</time></trkpt><trkpt lat="40.7040817" lon="8.2278617"><ele>90.33333333333333</ele><time>2026-04-19T11:05:05.478Z</time></trkpt><trkpt lat="40.7039083" lon="8.227905"><ele>89.66666666666667</ele><time>2026-04-19T11:05:06.478Z</time></trkpt><trkpt lat="40.7037467" lon="8.2279433"><ele>89.0</ele><time>2026-04-19T11:05:07.477Z</time></trkpt><trkpt lat="40.7035817" lon="8.2279917"><ele>88.66666666666667</ele><time>2026-04-19T11:05:08.478Z</time></trkpt><trkpt lat="40.7034167" lon="8.22804"><ele>88.33333333333333</ele><time>2026-04-19T11:05:09.477Z</time></trkpt><trkpt lat="40.7032467" lon="8.22808"><ele>88.0</ele><time>2026-04-19T11:05:10.477Z</time></trkpt><trkpt lat="40.703065" lon="8.228155"><ele>87.33333333333333</ele><time>2026-04-19T11:05:11.477Z</time></trkpt><trkpt lat="40.70289" lon="8.2282317"><ele>86.66666666666667</ele><time>2026-04-19T11:05:12.477Z</time></trkpt><trkpt lat="40.7027167" lon="8.2283233"><ele>86.0</ele><time>2026-04-19T11:05:13.477Z</time></trkpt><trkpt lat="40.702545" lon="8.22843"><ele>85.0</ele><time>2026-04-19T11:05:14.477Z</time></trkpt><trkpt lat="40.7023733" lon="8.2285383"><ele>84.0</ele><time>2026-04-19T11:05:15.477Z</time></trkpt><trkpt lat="40.702205" lon="8.2286517"><ele>83.0</ele><time>2026-04-19T11:05:16.478Z</time></trkpt><trkpt lat="40.70205" lon="8.2287533"><ele>82.0</ele><time>2026-04-19T11:05:17.477Z</time></trkpt><trkpt lat="40.7018933" lon="8.2288633"><ele>81.0</ele><time>2026-04-19T11:05:18.477Z</time></trkpt><trkpt lat="40.7017417" lon="8.228985"><ele>80.0</ele><time>2026-04-19T11:05:19.478Z</time></trkpt><trkpt lat="40.7016017" lon="8.229125"><ele>80.0</ele><time>2026-04-19T11:05:20.477Z</time></trkpt><trkpt lat="40.7014617" lon="8.2292783"><ele>80.0</ele><time>2026-04-19T11:05:21.477Z</time></trkpt><trkpt lat="40.7013217" lon="8.2294417"><ele>80.0</ele><time>2026-04-19T11:05:22.478Z</time></trkpt><trkpt lat="40.7011933" lon="8.2296133"><ele>79.66666666666667</ele><time>2026-04-19T11:05:23.477Z</time></trkpt><trkpt lat="40.7010683" lon="8.22978"><ele>79.33333333333333</ele><time>2026-04-19T11:05:24.477Z</time></trkpt><trkpt lat="40.700945" lon="8.229945"><ele>79.0</ele><time>2026-04-19T11:05:25.478Z</time></trkpt><trkpt lat="40.70082" lon="8.230105"><ele>79.66666666666666</ele><time>2026-04-19T11:05:26.477Z</time></trkpt><trkpt lat="40.70067" lon="8.2302433"><ele>80.33333333333333</ele><time>2026-04-19T11:05:27.477Z</time></trkpt><trkpt lat="40.7005183" lon="8.23037"><ele>81.0</ele><time>2026-04-19T11:05:28.477Z</time></trkpt><trkpt lat="40.70035" lon="8.230475"><ele>80.33333333333333</ele><time>2026-04-19T11:05:29.477Z</time></trkpt><trkpt lat="40.7001667" lon="8.23057"><ele>79.66666666666666</ele><time>2026-04-19T11:05:30.478Z</time></trkpt><trkpt lat="40.699995" lon="8.2306667"><ele>79.0</ele><time>2026-04-19T11:05:31.478Z</time></trkpt><trkpt lat="40.699825" lon="8.2307667"><ele>78.33333333333333</ele><time>2026-04-19T11:05:32.477Z</time></trkpt><trkpt lat="40.6996567" lon="8.2308683"><ele>77.66666666666667</ele><time>2026-04-19T11:05:33.477Z</time></trkpt><trkpt lat="40.6994767" lon="8.2309667"><ele>77.0</ele><time>2026-04-19T11:05:34.477Z</time></trkpt><trkpt lat="40.69929" lon="8.2310717"><ele>76.33333333333334</ele><time>2026-04-19T11:05:35.478Z</time></trkpt><trkpt lat="40.699095" lon="8.2311867"><ele>75.66666666666667</ele><time>2026-04-19T11:05:36.478Z</time></trkpt><trkpt lat="40.6989083" lon="8.2312967"><ele>75.0</ele><time>2026-04-19T11:05:37.478Z</time></trkpt><trkpt lat="40.6987183" lon="8.2314083"><ele>75.0</ele><time>2026-04-19T11:05:38.477Z</time></trkpt><trkpt lat="40.6985267" lon="8.2315267"><ele>75.0</ele><time>2026-04-19T11:05:39.478Z</time></trkpt><trkpt lat="40.6983467" lon="8.231635"><ele>75.0</ele><time>2026-04-19T11:05:40.478Z</time></trkpt><trkpt lat="40.6981633" lon="8.2317467"><ele>75.0</ele><time>2026-04-19T11:05:41.477Z</time></trkpt><trkpt lat="40.6979733" lon="8.231855"><ele>75.0</ele><time>2026-04-19T11:05:42.477Z</time></trkpt><trkpt lat="40.6977917" lon="8.23196"><ele>75.0</ele><time>2026-04-19T11:05:43.477Z</time></trkpt><trkpt lat="40.69761" lon="8.2320617"><ele>74.66666666666667</ele><time>2026-04-19T11:05:44.477Z</time></trkpt><trkpt lat="40.6974417" lon="8.23216"><ele>74.33333333333334</ele><time>2026-04-19T11:05:45.477Z</time></trkpt><trkpt lat="40.6972867" lon="8.2322467"><ele>74.0</ele><time>2026-04-19T11:05:46.478Z</time></trkpt><trkpt lat="40.6971367" lon="8.2323317"><ele>74.0</ele><time>2026-04-19T11:05:47.478Z</time></trkpt><trkpt lat="40.697" lon="8.2324167"><ele>74.0</ele><time>2026-04-19T11:05:48.477Z</time></trkpt><trkpt lat="40.6968683" lon="8.2325317"><ele>74.0</ele><time>2026-04-19T11:05:49.477Z</time></trkpt><trkpt lat="40.69675" lon="8.2327017"><ele>72.66666666666667</ele><time>2026-04-19T11:05:50.478Z</time></trkpt><trkpt lat="40.6966583" lon="8.2329017"><ele>71.33333333333333</ele><time>2026-04-19T11:05:51.477Z</time></trkpt><trkpt lat="40.6965633" lon="8.2331067"><ele>70.0</ele><time>2026-04-19T11:05:52.478Z</time></trkpt><trkpt lat="40.6964733" lon="8.2333117"><ele>69.0</ele><time>2026-04-19T11:05:53.477Z</time></trkpt><trkpt lat="40.6963733" lon="8.233515"><ele>68.0</ele><time>2026-04-19T11:05:54.477Z</time></trkpt><trkpt lat="40.6962867" lon="8.2337033"><ele>67.0</ele><time>2026-04-19T11:05:55.477Z</time></trkpt><trkpt lat="40.6962" lon="8.2338883"><ele>66.66666666666666</ele><time>2026-04-19T11:05:56.478Z</time></trkpt><trkpt lat="40.696115" lon="8.2340717"><ele>66.33333333333333</ele><time>2026-04-19T11:05:57.478Z</time></trkpt><trkpt lat="40.69601" lon="8.2342367"><ele>66.0</ele><time>2026-04-19T11:05:58.478Z</time></trkpt><trkpt lat="40.6958883" lon="8.23439"><ele>61.66666666666667</ele><time>2026-04-19T11:05:59.478Z</time></trkpt><trkpt lat="40.69573" lon="8.2345333"><ele>57.333333333333336</ele><time>2026-04-19T11:06:00.477Z</time></trkpt><trkpt lat="40.69557" lon="8.23466"><ele>53.0</ele><time>2026-04-19T11:06:01.478Z</time></trkpt><trkpt lat="40.6953983" lon="8.234775"><ele>51.0</ele><time>2026-04-19T11:06:02.477Z</time></trkpt><trkpt lat="40.695235" lon="8.2348733"><ele>49.0</ele><time>2026-04-19T11:06:03.478Z</time></trkpt><trkpt lat="40.6950567" lon="8.2349817"><ele>47.0</ele><time>2026-04-19T11:06:04.478Z</time></trkpt><trkpt lat="40.6948583" lon="8.2350867"><ele>47.0</ele><time>2026-04-19T11:06:05.477Z</time></trkpt><trkpt lat="40.6946583" lon="8.2352033"><ele>47.0</ele><time>2026-04-19T11:06:06.478Z</time></trkpt><trkpt lat="40.6944567" lon="8.2353117"><ele>47.0</ele><time>2026-04-19T11:06:07.477Z</time></trkpt><trkpt lat="40.69426" lon="8.235425"><ele>47.666666666666664</ele><time>2026-04-19T11:06:08.477Z</time></trkpt><trkpt lat="40.6940517" lon="8.235535"><ele>48.33333333333333</ele><time>2026-04-19T11:06:09.477Z</time></trkpt><trkpt lat="40.6938467" lon="8.2356467"><ele>49.0</ele><time>2026-04-19T11:06:10.477Z</time></trkpt><trkpt lat="40.69365" lon="8.2357533"><ele>52.0</ele><time>2026-04-19T11:06:11.477Z</time></trkpt><trkpt lat="40.6934517" lon="8.2358617"><ele>55.0</ele><time>2026-04-19T11:06:12.478Z</time></trkpt><trkpt lat="40.6932583" lon="8.2359717"><ele>58.0</ele><time>2026-04-19T11:06:13.478Z</time></trkpt><trkpt lat="40.6930717" lon="8.2361067"><ele>58.0</ele><time>2026-04-19T11:06:14.478Z</time></trkpt><trkpt lat="40.692905" lon="8.2362583"><ele>58.0</ele><time>2026-04-19T11:06:15.477Z</time></trkpt><trkpt lat="40.692765" lon="8.2364133"><ele>58.0</ele><time>2026-04-19T11:06:16.477Z</time></trkpt><trkpt lat="40.6926383" lon="8.23656"><ele>61.666666666666664</ele><time>2026-04-19T11:06:17.478Z</time></trkpt><trkpt lat="40.6925233" lon="8.236705"><ele>65.33333333333333</ele><time>2026-04-19T11:06:18.477Z</time></trkpt><trkpt lat="40.692435" lon="8.2368717"><ele>69.0</ele><time>2026-04-19T11:06:19.477Z</time></trkpt><trkpt lat="40.69235" lon="8.2370467"><ele>69.0</ele><time>2026-04-19T11:06:20.478Z</time></trkpt><trkpt lat="40.692265" lon="8.2372367"><ele>69.0</ele><time>2026-04-19T11:06:21.478Z</time></trkpt><trkpt lat="40.6921917" lon="8.2374317"><ele>69.0</ele><time>2026-04-19T11:06:22.477Z</time></trkpt><trkpt lat="40.6921117" lon="8.2376283"><ele>69.66666666666667</ele><time>2026-04-19T11:06:23.477Z</time></trkpt><trkpt lat="40.6920283" lon="8.2378267"><ele>70.33333333333334</ele><time>2026-04-19T11:06:24.477Z</time></trkpt><trkpt lat="40.6919517" lon="8.2380333"><ele>71.0</ele><time>2026-04-19T11:06:25.477Z</time></trkpt><trkpt lat="40.6918717" lon="8.2382317"><ele>71.0</ele><time>2026-04-19T11:06:26.478Z</time></trkpt><trkpt lat="40.69179" lon="8.2384267"><ele>71.0</ele><time>2026-04-19T11:06:27.477Z</time></trkpt><trkpt lat="40.6917033" lon="8.2386167"><ele>71.0</ele><time>2026-04-19T11:06:28.477Z</time></trkpt><trkpt lat="40.691625" lon="8.2388083"><ele>70.66666666666667</ele><time>2026-04-19T11:06:29.477Z</time></trkpt><trkpt lat="40.6915433" lon="8.2389933"><ele>70.33333333333333</ele><time>2026-04-19T11:06:30.477Z</time></trkpt><trkpt lat="40.6914583" lon="8.2391783"><ele>70.0</ele><time>2026-04-19T11:06:31.477Z</time></trkpt><trkpt lat="40.691375" lon="8.2393767"><ele>70.0</ele><time>2026-04-19T11:06:32.478Z</time></trkpt><trkpt lat="40.69129" lon="8.2395667"><ele>70.0</ele><time>2026-04-19T11:06:33.477Z</time></trkpt><trkpt lat="40.6912083" lon="8.2397567"><ele>70.0</ele><time>2026-04-19T11:06:34.477Z</time></trkpt><trkpt lat="40.6911317" lon="8.2399467"><ele>69.33333333333333</ele><time>2026-04-19T11:06:35.477Z</time></trkpt><trkpt lat="40.6910467" lon="8.24014"><ele>68.66666666666667</ele><time>2026-04-19T11:06:36.478Z</time></trkpt><trkpt lat="40.6909583" lon="8.24035"><ele>68.0</ele><time>2026-04-19T11:06:37.478Z</time></trkpt><trkpt lat="40.6908633" lon="8.24055"><ele>68.0</ele><time>2026-04-19T11:06:38.478Z</time></trkpt><trkpt lat="40.69078" lon="8.2407467"><ele>68.0</ele><time>2026-04-19T11:06:39.477Z</time></trkpt><trkpt lat="40.6906883" lon="8.2409367"><ele>68.0</ele><time>2026-04-19T11:06:40.478Z</time></trkpt><trkpt lat="40.6906033" lon="8.2411233"><ele>68.0</ele><time>2026-04-19T11:06:41.477Z</time></trkpt><trkpt lat="40.690525" lon="8.2413117"><ele>68.0</ele><time>2026-04-19T11:06:42.478Z</time></trkpt><trkpt lat="40.6904583" lon="8.2415"><ele>68.0</ele><time>2026-04-19T11:06:43.477Z</time></trkpt><trkpt lat="40.690395" lon="8.241675"><ele>68.0</ele><time>2026-04-19T11:06:44.477Z</time></trkpt><trkpt lat="40.6903267" lon="8.2418367"><ele>68.0</ele><time>2026-04-19T11:06:45.477Z</time></trkpt><trkpt lat="40.6902583" lon="8.24198"><ele>68.0</ele><time>2026-04-19T11:06:46.477Z</time></trkpt><trkpt lat="40.690175" lon="8.2421033"><ele>68.0</ele><time>2026-04-19T11:06:47.478Z</time></trkpt><trkpt lat="40.69006" lon="8.242185"><ele>68.0</ele><time>2026-04-19T11:06:48.478Z</time></trkpt><trkpt lat="40.68993" lon="8.242215"><ele>68.0</ele><time>2026-04-19T11:06:49.478Z</time></trkpt><trkpt lat="40.6897767" lon="8.24222"><ele>68.0</ele><time>2026-04-19T11:06:50.478Z</time></trkpt><trkpt lat="40.68962" lon="8.242225"><ele>68.0</ele><time>2026-04-19T11:06:51.477Z</time></trkpt><trkpt lat="40.6894633" lon="8.2422383"><ele>67.33333333333334</ele><time>2026-04-19T11:06:52.477Z</time></trkpt><trkpt lat="40.6893017" lon="8.24225"><ele>66.66666666666667</ele><time>2026-04-19T11:06:53.478Z</time></trkpt><trkpt lat="40.6891333" lon="8.242265"><ele>66.0</ele><time>2026-04-19T11:06:54.477Z</time></trkpt><trkpt lat="40.688975" lon="8.2422883"><ele>66.0</ele><time>2026-04-19T11:06:55.478Z</time></trkpt><trkpt lat="40.688815" lon="8.242305"><ele>66.0</ele><time>2026-04-19T11:06:56.477Z</time></trkpt><trkpt lat="40.68865" lon="8.242315"><ele>66.0</ele><time>2026-04-19T11:06:57.477Z</time></trkpt><trkpt lat="40.6884883" lon="8.2423317"><ele>66.0</ele><time>2026-04-19T11:06:58.477Z</time></trkpt><trkpt lat="40.688335" lon="8.24235"><ele>66.0</ele><time>2026-04-19T11:06:59.477Z</time></trkpt><trkpt lat="40.6881717" lon="8.24236"><ele>66.0</ele><time>2026-04-19T11:07:00.478Z</time></trkpt><trkpt lat="40.68801" lon="8.2423767"><ele>66.0</ele><time>2026-04-19T11:07:01.478Z</time></trkpt><trkpt lat="40.687835" lon="8.24239"><ele>66.0</ele><time>2026-04-19T11:07:02.477Z</time></trkpt><trkpt lat="40.6876667" lon="8.2424067"><ele>66.0</ele><time>2026-04-19T11:07:03.477Z</time></trkpt><trkpt lat="40.6874883" lon="8.2424267"><ele>65.66666666666667</ele><time>2026-04-19T11:07:04.477Z</time></trkpt><trkpt lat="40.68731" lon="8.2424417"><ele>65.33333333333334</ele><time>2026-04-19T11:07:05.478Z</time></trkpt><trkpt lat="40.687125" lon="8.2424567"><ele>65.0</ele><time>2026-04-19T11:07:06.478Z</time></trkpt><trkpt lat="40.6869483" lon="8.2424683"><ele>65.0</ele><time>2026-04-19T11:07:07.477Z</time></trkpt><trkpt lat="40.6867617" lon="8.242485"><ele>65.0</ele><time>2026-04-19T11:07:08.478Z</time></trkpt><trkpt lat="40.6865767" lon="8.2425067"><ele>65.0</ele><time>2026-04-19T11:07:09.477Z</time></trkpt><trkpt lat="40.686405" lon="8.242525"><ele>65.0</ele><time>2026-04-19T11:07:10.478Z</time></trkpt><trkpt lat="40.6862233" lon="8.242545"><ele>65.0</ele><time>2026-04-19T11:07:11.477Z</time></trkpt><trkpt lat="40.68605" lon="8.2425617"><ele>65.0</ele><time>2026-04-19T11:07:12.477Z</time></trkpt><trkpt lat="40.68587" lon="8.24258"><ele>64.66666666666667</ele><time>2026-04-19T11:07:13.477Z</time></trkpt><trkpt lat="40.6856933" lon="8.2426033"><ele>64.33333333333333</ele><time>2026-04-19T11:07:14.478Z</time></trkpt><trkpt lat="40.6855133" lon="8.2426217"><ele>64.0</ele><time>2026-04-19T11:07:15.478Z</time></trkpt><trkpt lat="40.6853217" lon="8.2426467"><ele>63.33333333333333</ele><time>2026-04-19T11:07:16.478Z</time></trkpt><trkpt lat="40.6851383" lon="8.242665"><ele>62.66666666666667</ele><time>2026-04-19T11:07:17.478Z</time></trkpt><trkpt lat="40.6849517" lon="8.2426817"><ele>62.0</ele><time>2026-04-19T11:07:18.477Z</time></trkpt><trkpt lat="40.684765" lon="8.2427033"><ele>62.0</ele><time>2026-04-19T11:07:19.477Z</time></trkpt><trkpt lat="40.6845667" lon="8.2427217"><ele>62.0</ele><time>2026-04-19T11:07:20.478Z</time></trkpt><trkpt lat="40.684365" lon="8.2427333"><ele>62.0</ele><time>2026-04-19T11:07:21.477Z</time></trkpt><trkpt lat="40.6841667" lon="8.2427483"><ele>62.0</ele><time>2026-04-19T11:07:22.478Z</time></trkpt><trkpt lat="40.6839683" lon="8.242775"><ele>62.0</ele><time>2026-04-19T11:07:23.477Z</time></trkpt><trkpt lat="40.6837717" lon="8.24279"><ele>62.0</ele><time>2026-04-19T11:07:24.477Z</time></trkpt><trkpt lat="40.683575" lon="8.24282"><ele>61.0</ele><time>2026-04-19T11:07:25.478Z</time></trkpt><trkpt lat="40.683365" lon="8.242835"><ele>60.0</ele><time>2026-04-19T11:07:26.477Z</time></trkpt><trkpt lat="40.6831567" lon="8.2428517"><ele>59.0</ele><time>2026-04-19T11:07:27.477Z</time></trkpt><trkpt lat="40.6829467" lon="8.2428717"><ele>58.66666666666667</ele><time>2026-04-19T11:07:28.477Z</time></trkpt><trkpt lat="40.6827367" lon="8.2428967"><ele>58.33333333333333</ele><time>2026-04-19T11:07:29.477Z</time></trkpt><trkpt lat="40.6825267" lon="8.2429183"><ele>58.0</ele><time>2026-04-19T11:07:30.477Z</time></trkpt><trkpt lat="40.682315" lon="8.24294"><ele>58.0</ele><time>2026-04-19T11:07:31.478Z</time></trkpt><trkpt lat="40.6821033" lon="8.242965"><ele>58.0</ele><time>2026-04-19T11:07:32.478Z</time></trkpt><trkpt lat="40.6818883" lon="8.2429817"><ele>58.0</ele><time>2026-04-19T11:07:33.477Z</time></trkpt><trkpt lat="40.6816817" lon="8.2429933"><ele>57.33333333333333</ele><time>2026-04-19T11:07:34.477Z</time></trkpt><trkpt lat="40.6814633" lon="8.2430167"><ele>56.66666666666667</ele><time>2026-04-19T11:07:35.477Z</time></trkpt><trkpt lat="40.6812467" lon="8.2430417"><ele>56.0</ele><time>2026-04-19T11:07:36.477Z</time></trkpt><trkpt lat="40.68103" lon="8.2430633"><ele>55.66666666666667</ele><time>2026-04-19T11:07:37.478Z</time></trkpt><trkpt lat="40.6808133" lon="8.243085"><ele>55.33333333333333</ele><time>2026-04-19T11:07:38.477Z</time></trkpt><trkpt lat="40.6805883" lon="8.243105"><ele>55.0</ele><time>2026-04-19T11:07:39.477Z</time></trkpt><trkpt lat="40.680375" lon="8.2431317"><ele>55.5</ele><time>2026-04-19T11:07:40.477Z</time></trkpt><trkpt lat="40.6801533" lon="8.2431567"><ele>56.0</ele><time>2026-04-19T11:07:41.477Z</time></trkpt><trkpt lat="40.67992" lon="8.2431833"><ele>56.0</ele><time>2026-04-19T11:07:42.477Z</time></trkpt><trkpt lat="40.6796933" lon="8.243205"><ele>56.0</ele><time>2026-04-19T11:07:43.478Z</time></trkpt><trkpt lat="40.6794617" lon="8.2432217"><ele>55.66666666666667</ele><time>2026-04-19T11:07:44.478Z</time></trkpt><trkpt lat="40.67924" lon="8.2432417"><ele>55.33333333333333</ele><time>2026-04-19T11:07:45.477Z</time></trkpt><trkpt lat="40.6790183" lon="8.2432733"><ele>55.0</ele><time>2026-04-19T11:07:46.477Z</time></trkpt><trkpt lat="40.6787917" lon="8.2432967"><ele>54.666666666666664</ele><time>2026-04-19T11:07:47.478Z</time></trkpt><trkpt lat="40.6785717" lon="8.2433233"><ele>54.33333333333333</ele><time>2026-04-19T11:07:48.478Z</time></trkpt><trkpt lat="40.6783567" lon="8.24334"><ele>54.0</ele><time>2026-04-19T11:07:49.477Z</time></trkpt><trkpt lat="40.6781517" lon="8.2433533"><ele>54.0</ele><time>2026-04-19T11:07:50.477Z</time></trkpt><trkpt lat="40.67795" lon="8.2433633"><ele>54.0</ele><time>2026-04-19T11:07:51.478Z</time></trkpt><trkpt lat="40.6777467" lon="8.243385"><ele>54.0</ele><time>2026-04-19T11:07:52.477Z</time></trkpt><trkpt lat="40.6775533" lon="8.2434017"><ele>53.66666666666667</ele><time>2026-04-19T11:07:53.478Z</time></trkpt><trkpt lat="40.677355" lon="8.243425"><ele>53.333333333333336</ele><time>2026-04-19T11:07:54.478Z</time></trkpt><trkpt lat="40.67716" lon="8.24344"><ele>53.0</ele><time>2026-04-19T11:07:55.477Z</time></trkpt><trkpt lat="40.6769583" lon="8.2434667"><ele>52.333333333333336</ele><time>2026-04-19T11:07:56.478Z</time></trkpt><trkpt lat="40.67676" lon="8.24349"><ele>51.66666666666667</ele><time>2026-04-19T11:07:57.477Z</time></trkpt><trkpt lat="40.6765783" lon="8.2435167"><ele>51.0</ele><time>2026-04-19T11:07:58.477Z</time></trkpt><trkpt lat="40.6763867" lon="8.2435333"><ele>51.0</ele><time>2026-04-19T11:07:59.478Z</time></trkpt><trkpt lat="40.676195" lon="8.2435483"><ele>51.0</ele><time>2026-04-19T11:08:00.478Z</time></trkpt><trkpt lat="40.676" lon="8.2435767"><ele>51.0</ele><time>2026-04-19T11:08:01.477Z</time></trkpt><trkpt lat="40.6758217" lon="8.2435967"><ele>51.33333333333333</ele><time>2026-04-19T11:08:02.478Z</time></trkpt><trkpt lat="40.67562" lon="8.2436083"><ele>51.666666666666664</ele><time>2026-04-19T11:08:03.477Z</time></trkpt><trkpt lat="40.675405" lon="8.2436233"><ele>52.0</ele><time>2026-04-19T11:08:04.478Z</time></trkpt><trkpt lat="40.6751917" lon="8.2436383"><ele>51.33333333333333</ele><time>2026-04-19T11:08:05.478Z</time></trkpt><trkpt lat="40.674985" lon="8.2436617"><ele>50.66666666666667</ele><time>2026-04-19T11:08:06.477Z</time></trkpt><trkpt lat="40.67478" lon="8.2436833"><ele>50.0</ele><time>2026-04-19T11:08:07.478Z</time></trkpt><trkpt lat="40.6745717" lon="8.24371"><ele>49.333333333333336</ele><time>2026-04-19T11:08:08.477Z</time></trkpt><trkpt lat="40.6743583" lon="8.2437283"><ele>48.66666666666667</ele><time>2026-04-19T11:08:09.478Z</time></trkpt><trkpt lat="40.67415" lon="8.2437517"><ele>48.0</ele><time>2026-04-19T11:08:10.478Z</time></trkpt><trkpt lat="40.673945" lon="8.243765"><ele>48.0</ele><time>2026-04-19T11:08:11.477Z</time></trkpt><trkpt lat="40.6737467" lon="8.24379"><ele>48.0</ele><time>2026-04-19T11:08:12.478Z</time></trkpt><trkpt lat="40.6735467" lon="8.2438"><ele>48.0</ele><time>2026-04-19T11:08:13.478Z</time></trkpt><trkpt lat="40.6733617" lon="8.2438183"><ele>47.0</ele><time>2026-04-19T11:08:14.477Z</time></trkpt><trkpt lat="40.673175" lon="8.24384"><ele>46.0</ele><time>2026-04-19T11:08:15.477Z</time></trkpt><trkpt lat="40.6729817" lon="8.2438583"><ele>45.0</ele><time>2026-04-19T11:08:16.478Z</time></trkpt><trkpt lat="40.67279" lon="8.243875"><ele>45.0</ele><time>2026-04-19T11:08:17.477Z</time></trkpt><trkpt lat="40.6725983" lon="8.2438967"><ele>45.0</ele><time>2026-04-19T11:08:18.477Z</time></trkpt><trkpt lat="40.67241" lon="8.2439183"><ele>45.0</ele><time>2026-04-19T11:08:19.477Z</time></trkpt><trkpt lat="40.6722033" lon="8.2439433"><ele>45.0</ele><time>2026-04-19T11:08:20.478Z</time></trkpt><trkpt lat="40.672005" lon="8.2439583"><ele>45.0</ele><time>2026-04-19T11:08:21.478Z</time></trkpt><trkpt lat="40.671805" lon="8.2439767"><ele>45.0</ele><time>2026-04-19T11:08:22.478Z</time></trkpt><trkpt lat="40.671605" lon="8.243995"><ele>44.333333333333336</ele><time>2026-04-19T11:08:23.477Z</time></trkpt><trkpt lat="40.6713933" lon="8.2440217"><ele>43.66666666666667</ele><time>2026-04-19T11:08:24.478Z</time></trkpt><trkpt lat="40.6711767" lon="8.2440483"><ele>43.0</ele><time>2026-04-19T11:08:25.477Z</time></trkpt><trkpt lat="40.67097" lon="8.24406"><ele>42.0</ele><time>2026-04-19T11:08:26.478Z</time></trkpt><trkpt lat="40.6707683" lon="8.2440833"><ele>41.0</ele><time>2026-04-19T11:08:27.477Z</time></trkpt><trkpt lat="40.67056" lon="8.2441133"><ele>40.0</ele><time>2026-04-19T11:08:28.478Z</time></trkpt><trkpt lat="40.6703533" lon="8.244135"><ele>40.333333333333336</ele><time>2026-04-19T11:08:29.477Z</time></trkpt><trkpt lat="40.6701517" lon="8.24416"><ele>40.666666666666664</ele><time>2026-04-19T11:08:30.477Z</time></trkpt><trkpt lat="40.6699567" lon="8.24418"><ele>41.0</ele><time>2026-04-19T11:08:31.478Z</time></trkpt><trkpt lat="40.6697533" lon="8.2441967"><ele>41.0</ele><time>2026-04-19T11:08:32.477Z</time></trkpt><trkpt lat="40.6695383" lon="8.2442067"><ele>41.0</ele><time>2026-04-19T11:08:33.478Z</time></trkpt><trkpt lat="40.6693317" lon="8.2442233"><ele>41.0</ele><time>2026-04-19T11:08:34.478Z</time></trkpt><trkpt lat="40.669125" lon="8.24424"><ele>41.33333333333333</ele><time>2026-04-19T11:08:35.478Z</time></trkpt><trkpt lat="40.668915" lon="8.244265"><ele>41.666666666666664</ele><time>2026-04-19T11:08:36.477Z</time></trkpt><trkpt lat="40.66871" lon="8.2442867"><ele>42.0</ele><time>2026-04-19T11:08:37.478Z</time></trkpt><trkpt lat="40.668515" lon="8.2443083"><ele>42.0</ele><time>2026-04-19T11:08:38.478Z</time></trkpt><trkpt lat="40.6683283" lon="8.2443233"><ele>42.0</ele><time>2026-04-19T11:08:39.478Z</time></trkpt><trkpt lat="40.6681417" lon="8.2443417"><ele>42.0</ele><time>2026-04-19T11:08:40.477Z</time></trkpt><trkpt lat="40.667955" lon="8.2443583"><ele>42.0</ele><time>2026-04-19T11:08:41.478Z</time></trkpt><trkpt lat="40.6677667" lon="8.244385"><ele>42.0</ele><time>2026-04-19T11:08:42.477Z</time></trkpt><trkpt lat="40.6675633" lon="8.24441"><ele>42.0</ele><time>2026-04-19T11:08:43.477Z</time></trkpt><trkpt lat="40.6673567" lon="8.2444417"><ele>42.0</ele><time>2026-04-19T11:08:44.477Z</time></trkpt><trkpt lat="40.6671483" lon="8.2444617"><ele>42.0</ele><time>2026-04-19T11:08:45.477Z</time></trkpt><trkpt lat="40.6669283" lon="8.24448"><ele>42.0</ele><time>2026-04-19T11:08:46.477Z</time></trkpt><trkpt lat="40.66671" lon="8.2444833"><ele>41.666666666666664</ele><time>2026-04-19T11:08:47.477Z</time></trkpt><trkpt lat="40.6665017" lon="8.2444967"><ele>41.33333333333333</ele><time>2026-04-19T11:08:48.477Z</time></trkpt><trkpt lat="40.66629" lon="8.2445267"><ele>41.0</ele><time>2026-04-19T11:08:49.477Z</time></trkpt><trkpt lat="40.66608" lon="8.2445533"><ele>40.666666666666664</ele><time>2026-04-19T11:08:50.477Z</time></trkpt><trkpt lat="40.665875" lon="8.2445717"><ele>40.333333333333336</ele><time>2026-04-19T11:08:51.478Z</time></trkpt><trkpt lat="40.6656683" lon="8.2445883"><ele>40.0</ele><time>2026-04-19T11:08:52.477Z</time></trkpt><trkpt lat="40.6654667" lon="8.244615"><ele>39.66666666666667</ele><time>2026-04-19T11:08:53.478Z</time></trkpt><trkpt lat="40.6652667" lon="8.24464"><ele>39.333333333333336</ele><time>2026-04-19T11:08:54.477Z</time></trkpt><trkpt lat="40.66508" lon="8.2446583"><ele>39.0</ele><time>2026-04-19T11:08:55.478Z</time></trkpt><trkpt lat="40.6648883" lon="8.2446767"><ele>39.0</ele><time>2026-04-19T11:08:56.478Z</time></trkpt><trkpt lat="40.6646933" lon="8.244685"><ele>39.0</ele><time>2026-04-19T11:08:57.477Z</time></trkpt><trkpt lat="40.6645" lon="8.2447033"><ele>39.0</ele><time>2026-04-19T11:08:58.478Z</time></trkpt><trkpt lat="40.6643033" lon="8.244715"><ele>38.666666666666664</ele><time>2026-04-19T11:08:59.478Z</time></trkpt><trkpt lat="40.6641183" lon="8.244735"><ele>38.33333333333333</ele><time>2026-04-19T11:09:00.477Z</time></trkpt><trkpt lat="40.6639317" lon="8.244755"><ele>38.0</ele><time>2026-04-19T11:09:01.478Z</time></trkpt><trkpt lat="40.6637383" lon="8.2447733"><ele>38.0</ele><time>2026-04-19T11:09:02.478Z</time></trkpt><trkpt lat="40.6635417" lon="8.2447933"><ele>38.0</ele><time>2026-04-19T11:09:03.477Z</time></trkpt><trkpt lat="40.6633433" lon="8.2447983"><ele>38.0</ele><time>2026-04-19T11:09:04.478Z</time></trkpt><trkpt lat="40.663155" lon="8.2448267"><ele>38.0</ele><time>2026-04-19T11:09:05.478Z</time></trkpt><trkpt lat="40.6629683" lon="8.24485"><ele>38.0</ele><time>2026-04-19T11:09:06.477Z</time></trkpt><trkpt lat="40.6627717" lon="8.2448717"><ele>38.0</ele><time>2026-04-19T11:09:07.477Z</time></trkpt><trkpt lat="40.6625817" lon="8.2448867"><ele>37.33333333333333</ele><time>2026-04-19T11:09:08.477Z</time></trkpt><trkpt lat="40.66239" lon="8.2449067"><ele>36.666666666666664</ele><time>2026-04-19T11:09:09.477Z</time></trkpt><trkpt lat="40.6621983" lon="8.244925"><ele>36.0</ele><time>2026-04-19T11:09:10.478Z</time></trkpt><trkpt lat="40.6620067" lon="8.2449383"><ele>36.0</ele><time>2026-04-19T11:09:11.477Z</time></trkpt><trkpt lat="40.6618233" lon="8.2449533"><ele>36.0</ele><time>2026-04-19T11:09:12.477Z</time></trkpt><trkpt lat="40.6616467" lon="8.2449733"><ele>36.0</ele><time>2026-04-19T11:09:13.478Z</time></trkpt><trkpt lat="40.6614717" lon="8.24499"><ele>36.0</ele><time>2026-04-19T11:09:14.478Z</time></trkpt><trkpt lat="40.6613" lon="8.2450117"><ele>36.0</ele><time>2026-04-19T11:09:15.477Z</time></trkpt><trkpt lat="40.6611283" lon="8.24503"><ele>36.0</ele><time>2026-04-19T11:09:16.477Z</time></trkpt><trkpt lat="40.6609567" lon="8.2450467"><ele>36.0</ele><time>2026-04-19T11:09:17.478Z</time></trkpt><trkpt lat="40.6607933" lon="8.245055"><ele>36.0</ele><time>2026-04-19T11:09:18.478Z</time></trkpt><trkpt lat="40.660625" lon="8.2450717"><ele>36.0</ele><time>2026-04-19T11:09:19.478Z</time></trkpt><trkpt lat="40.66046" lon="8.2450883"><ele>36.0</ele><time>2026-04-19T11:09:20.478Z</time></trkpt><trkpt lat="40.660295" lon="8.2451017"><ele>36.0</ele><time>2026-04-19T11:09:21.477Z</time></trkpt><trkpt lat="40.6601217" lon="8.245115"><ele>36.0</ele><time>2026-04-19T11:09:22.478Z</time></trkpt><trkpt lat="40.6599533" lon="8.2451317"><ele>36.333333333333336</ele><time>2026-04-19T11:09:23.477Z</time></trkpt><trkpt lat="40.659785" lon="8.2451467"><ele>36.66666666666667</ele><time>2026-04-19T11:09:24.478Z</time></trkpt><trkpt lat="40.65961" lon="8.245165"><ele>37.0</ele><time>2026-04-19T11:09:25.477Z</time></trkpt><trkpt lat="40.6594333" lon="8.2451867"><ele>36.0</ele><time>2026-04-19T11:09:26.477Z</time></trkpt><trkpt lat="40.65926" lon="8.24521"><ele>35.0</ele><time>2026-04-19T11:09:27.477Z</time></trkpt><trkpt lat="40.659095" lon="8.2452283"><ele>34.0</ele><time>2026-04-19T11:09:28.478Z</time></trkpt><trkpt lat="40.65893" lon="8.24525"><ele>34.0</ele><time>2026-04-19T11:09:29.478Z</time></trkpt><trkpt lat="40.6587667" lon="8.24526"><ele>34.0</ele><time>2026-04-19T11:09:30.477Z</time></trkpt><trkpt lat="40.6586067" lon="8.2452767"><ele>34.0</ele><time>2026-04-19T11:09:31.477Z</time></trkpt><trkpt lat="40.6584483" lon="8.24529"><ele>34.0</ele><time>2026-04-19T11:09:32.478Z</time></trkpt><trkpt lat="40.6582817" lon="8.2453067"><ele>34.0</ele><time>2026-04-19T11:09:33.476Z</time></trkpt><trkpt lat="40.6581183" lon="8.2453217"><ele>34.0</ele><time>2026-04-19T11:09:34.477Z</time></trkpt><trkpt lat="40.6579567" lon="8.2453317"><ele>34.0</ele><time>2026-04-19T11:09:35.476Z</time></trkpt><trkpt lat="40.6577967" lon="8.245345"><ele>34.0</ele><time>2026-04-19T11:09:36.477Z</time></trkpt><trkpt lat="40.6576483" lon="8.24536"><ele>34.0</ele><time>2026-04-19T11:09:37.477Z</time></trkpt><trkpt lat="40.6575083" lon="8.245375"><ele>33.75</ele><time>2026-04-19T11:09:38.477Z</time></trkpt><trkpt lat="40.6573767" lon="8.2453917"><ele>33.5</ele><time>2026-04-19T11:09:39.477Z</time></trkpt><trkpt lat="40.6572617" lon="8.2453983"><ele>33.25</ele><time>2026-04-19T11:09:40.476Z</time></trkpt><trkpt lat="40.657155" lon="8.2454133"><ele>33.0</ele><time>2026-04-19T11:09:41.477Z</time></trkpt><trkpt lat="40.6570567" lon="8.24542"><ele>33.0</ele><time>2026-04-19T11:09:42.477Z</time></trkpt><trkpt lat="40.6569683" lon="8.2454217"><ele>33.0</ele><time>2026-04-19T11:09:43.476Z</time></trkpt><trkpt lat="40.6568867" lon="8.2454133"><ele>33.0</ele><time>2026-04-19T11:09:44.477Z</time></trkpt><trkpt lat="40.6568267" lon="8.2453783"><ele>33.0</ele><time>2026-04-19T11:09:45.476Z</time></trkpt><trkpt lat="40.6567767" lon="8.2453267"><ele>33.0</ele><time>2026-04-19T11:09:46.477Z</time></trkpt><trkpt lat="40.6567183" lon="8.245175"><ele>33.0</ele><time>2026-04-19T11:09:48.476Z</time></trkpt><trkpt lat="40.6567083" lon="8.2450683"><ele>33.199999999999996</ele><time>2026-04-19T11:09:49.476Z</time></trkpt><trkpt lat="40.6566983" lon="8.2449483"><ele>33.4</ele><time>2026-04-19T11:09:50.477Z</time></trkpt><trkpt lat="40.6566933" lon="8.2448183"><ele>33.599999999999994</ele><time>2026-04-19T11:09:51.476Z</time></trkpt><trkpt lat="40.65669" lon="8.244685"><ele>33.8</ele><time>2026-04-19T11:09:52.477Z</time></trkpt><trkpt lat="40.656685" lon="8.2445517"><ele>34.0</ele><time>2026-04-19T11:09:53.476Z</time></trkpt><trkpt lat="40.6566783" lon="8.2444133"><ele>34.0</ele><time>2026-04-19T11:09:54.476Z</time></trkpt><trkpt lat="40.6566767" lon="8.2442833"><ele>34.0</ele><time>2026-04-19T11:09:55.476Z</time></trkpt><trkpt lat="40.6566667" lon="8.244155"><ele>34.0</ele><time>2026-04-19T11:09:56.476Z</time></trkpt><trkpt lat="40.6566567" lon="8.2440183"><ele>34.0</ele><time>2026-04-19T11:09:57.477Z</time></trkpt><trkpt lat="40.65665" lon="8.24388"><ele>34.0</ele><time>2026-04-19T11:09:58.476Z</time></trkpt><trkpt lat="40.6566467" lon="8.2437367"><ele>34.0</ele><time>2026-04-19T11:09:59.477Z</time></trkpt><trkpt lat="40.656645" lon="8.243595"><ele>34.0</ele><time>2026-04-19T11:10:00.476Z</time></trkpt><trkpt lat="40.6566417" lon="8.243455"><ele>34.0</ele><time>2026-04-19T11:10:01.476Z</time></trkpt><trkpt lat="40.6566383" lon="8.2433267"><ele>34.0</ele><time>2026-04-19T11:10:02.477Z</time></trkpt><trkpt lat="40.6566283" lon="8.24321"><ele>34.0</ele><time>2026-04-19T11:10:03.477Z</time></trkpt><trkpt lat="40.6566167" lon="8.2430933"><ele>34.2</ele><time>2026-04-19T11:10:04.477Z</time></trkpt><trkpt lat="40.65661" lon="8.24297"><ele>34.4</ele><time>2026-04-19T11:10:05.476Z</time></trkpt><trkpt lat="40.6566017" lon="8.2428367"><ele>34.6</ele><time>2026-04-19T11:10:06.477Z</time></trkpt><trkpt lat="40.656595" lon="8.2427033"><ele>34.8</ele><time>2026-04-19T11:10:07.477Z</time></trkpt><trkpt lat="40.6565883" lon="8.2425717"><ele>35.0</ele><time>2026-04-19T11:10:08.476Z</time></trkpt><trkpt lat="40.65658" lon="8.2424383"><ele>35.0</ele><time>2026-04-19T11:10:09.477Z</time></trkpt><trkpt lat="40.6565733" lon="8.2422983"><ele>35.0</ele><time>2026-04-19T11:10:10.476Z</time></trkpt><trkpt lat="40.6565683" lon="8.2421633"><ele>35.0</ele><time>2026-04-19T11:10:11.476Z</time></trkpt><trkpt lat="40.6565567" lon="8.2420167"><ele>35.0</ele><time>2026-04-19T11:10:12.476Z</time></trkpt><trkpt lat="40.6565417" lon="8.2418767"><ele>35.0</ele><time>2026-04-19T11:10:13.476Z</time></trkpt><trkpt lat="40.6565333" lon="8.2417333"><ele>35.0</ele><time>2026-04-19T11:10:14.476Z</time></trkpt><trkpt lat="40.6565233" lon="8.2415833"><ele>35.0</ele><time>2026-04-19T11:10:15.477Z</time></trkpt><trkpt lat="40.6565167" lon="8.2414433"><ele>35.0</ele><time>2026-04-19T11:10:16.477Z</time></trkpt><trkpt lat="40.65651" lon="8.2413"><ele>35.0</ele><time>2026-04-19T11:10:17.477Z</time></trkpt><trkpt lat="40.6565017" lon="8.2411617"><ele>35.0</ele><time>2026-04-19T11:10:18.476Z</time></trkpt><trkpt lat="40.6564883" lon="8.2410183"><ele>35.0</ele><time>2026-04-19T11:10:19.477Z</time></trkpt><trkpt lat="40.6564833" lon="8.2408633"><ele>35.0</ele><time>2026-04-19T11:10:20.476Z</time></trkpt><trkpt lat="40.6564783" lon="8.2407117"><ele>35.0</ele><time>2026-04-19T11:10:21.476Z</time></trkpt><trkpt lat="40.65647" lon="8.24055"><ele>35.0</ele><time>2026-04-19T11:10:22.476Z</time></trkpt><trkpt lat="40.6564633" lon="8.2403933"><ele>35.0</ele><time>2026-04-19T11:10:23.476Z</time></trkpt><trkpt lat="40.656455" lon="8.24023"><ele>35.0</ele><time>2026-04-19T11:10:24.476Z</time></trkpt><trkpt lat="40.6564533" lon="8.24006"><ele>35.0</ele><time>2026-04-19T11:10:25.476Z</time></trkpt><trkpt lat="40.656445" lon="8.2398867"><ele>35.0</ele><time>2026-04-19T11:10:26.477Z</time></trkpt><trkpt lat="40.6564333" lon="8.2397033"><ele>35.0</ele><time>2026-04-19T11:10:27.477Z</time></trkpt><trkpt lat="40.65642" lon="8.2395233"><ele>35.0</ele><time>2026-04-19T11:10:28.476Z</time></trkpt><trkpt lat="40.656405" lon="8.239325"><ele>35.0</ele><time>2026-04-19T11:10:29.477Z</time></trkpt><trkpt lat="40.65639" lon="8.2391183"><ele>35.0</ele><time>2026-04-19T11:10:30.476Z</time></trkpt><trkpt lat="40.65638" lon="8.2389167"><ele>35.0</ele><time>2026-04-19T11:10:31.476Z</time></trkpt><trkpt lat="40.65637" lon="8.238705"><ele>35.0</ele><time>2026-04-19T11:10:32.476Z</time></trkpt><trkpt lat="40.656355" lon="8.2384933"><ele>35.0</ele><time>2026-04-19T11:10:33.476Z</time></trkpt><trkpt lat="40.6563333" lon="8.2382767"><ele>35.0</ele><time>2026-04-19T11:10:34.477Z</time></trkpt><trkpt lat="40.65632" lon="8.2380617"><ele>35.0</ele><time>2026-04-19T11:10:35.476Z</time></trkpt><trkpt lat="40.6563083" lon="8.23785"><ele>35.0</ele><time>2026-04-19T11:10:36.476Z</time></trkpt><trkpt lat="40.656295" lon="8.237635"><ele>35.0</ele><time>2026-04-19T11:10:37.476Z</time></trkpt><trkpt lat="40.6562883" lon="8.237405"><ele>35.0</ele><time>2026-04-19T11:10:38.476Z</time></trkpt><trkpt lat="40.6562717" lon="8.2371833"><ele>35.0</ele><time>2026-04-19T11:10:39.476Z</time></trkpt><trkpt lat="40.6562583" lon="8.236955"><ele>35.0</ele><time>2026-04-19T11:10:40.477Z</time></trkpt><trkpt lat="40.6562483" lon="8.2367367"><ele>35.0</ele><time>2026-04-19T11:10:41.476Z</time></trkpt><trkpt lat="40.6562333" lon="8.2365217"><ele>35.0</ele><time>2026-04-19T11:10:42.476Z</time></trkpt><trkpt lat="40.6562167" lon="8.2363033"><ele>35.0</ele><time>2026-04-19T11:10:43.475Z</time></trkpt><trkpt lat="40.6562" lon="8.2360867"><ele>35.0</ele><time>2026-04-19T11:10:44.476Z</time></trkpt><trkpt lat="40.6561867" lon="8.235875"><ele>35.0</ele><time>2026-04-19T11:10:45.477Z</time></trkpt><trkpt lat="40.656175" lon="8.2356683"><ele>35.666666666666664</ele><time>2026-04-19T11:10:46.476Z</time></trkpt><trkpt lat="40.65616" lon="8.2354533"><ele>36.333333333333336</ele><time>2026-04-19T11:10:47.476Z</time></trkpt><trkpt lat="40.65615" lon="8.2352367"><ele>37.0</ele><time>2026-04-19T11:10:48.476Z</time></trkpt><trkpt lat="40.6561333" lon="8.2350367"><ele>37.0</ele><time>2026-04-19T11:10:49.476Z</time></trkpt><trkpt lat="40.6561217" lon="8.2348283"><ele>37.0</ele><time>2026-04-19T11:10:50.477Z</time></trkpt><trkpt lat="40.6561167" lon="8.2346283"><ele>37.0</ele><time>2026-04-19T11:10:51.477Z</time></trkpt><trkpt lat="40.656105" lon="8.2344233"><ele>36.66666666666667</ele><time>2026-04-19T11:10:52.476Z</time></trkpt><trkpt lat="40.65609" lon="8.2342167"><ele>36.333333333333336</ele><time>2026-04-19T11:10:53.476Z</time></trkpt><trkpt lat="40.65608" lon="8.234"><ele>36.0</ele><time>2026-04-19T11:10:54.477Z</time></trkpt><trkpt lat="40.656065" lon="8.2337767"><ele>36.0</ele><time>2026-04-19T11:10:55.476Z</time></trkpt><trkpt lat="40.65605" lon="8.2335583"><ele>36.0</ele><time>2026-04-19T11:10:56.477Z</time></trkpt><trkpt lat="40.6560417" lon="8.23334"><ele>36.0</ele><time>2026-04-19T11:10:57.476Z</time></trkpt><trkpt lat="40.6560333" lon="8.2331267"><ele>35.666666666666664</ele><time>2026-04-19T11:10:58.477Z</time></trkpt><trkpt lat="40.6560217" lon="8.2329083"><ele>35.33333333333333</ele><time>2026-04-19T11:10:59.477Z</time></trkpt><trkpt lat="40.65601" lon="8.2326983"><ele>35.0</ele><time>2026-04-19T11:11:00.476Z</time></trkpt><trkpt lat="40.656" lon="8.232485"><ele>35.0</ele><time>2026-04-19T11:11:01.477Z</time></trkpt><trkpt lat="40.6559883" lon="8.2322733"><ele>35.0</ele><time>2026-04-19T11:11:02.476Z</time></trkpt><trkpt lat="40.6559783" lon="8.232065"><ele>35.0</ele><time>2026-04-19T11:11:03.476Z</time></trkpt><trkpt lat="40.6559667" lon="8.2318683"><ele>35.0</ele><time>2026-04-19T11:11:04.477Z</time></trkpt><trkpt lat="40.6559567" lon="8.2316583"><ele>35.0</ele><time>2026-04-19T11:11:05.476Z</time></trkpt><trkpt lat="40.6559483" lon="8.2314517"><ele>35.0</ele><time>2026-04-19T11:11:06.476Z</time></trkpt><trkpt lat="40.6559317" lon="8.2312367"><ele>35.0</ele><time>2026-04-19T11:11:07.477Z</time></trkpt><trkpt lat="40.6559183" lon="8.23102"><ele>35.0</ele><time>2026-04-19T11:11:08.476Z</time></trkpt><trkpt lat="40.6559" lon="8.23082"><ele>35.0</ele><time>2026-04-19T11:11:09.476Z</time></trkpt><trkpt lat="40.65589" lon="8.23061"><ele>35.33333333333333</ele><time>2026-04-19T11:11:10.477Z</time></trkpt><trkpt lat="40.6558767" lon="8.2303833"><ele>35.666666666666664</ele><time>2026-04-19T11:11:11.476Z</time></trkpt><trkpt lat="40.65586" lon="8.230145"><ele>36.0</ele><time>2026-04-19T11:11:12.476Z</time></trkpt><trkpt lat="40.655845" lon="8.2299133"><ele>36.0</ele><time>2026-04-19T11:11:13.476Z</time></trkpt><trkpt lat="40.655835" lon="8.229675"><ele>36.0</ele><time>2026-04-19T11:11:14.477Z</time></trkpt><trkpt lat="40.655815" lon="8.2294333"><ele>36.0</ele><time>2026-04-19T11:11:15.476Z</time></trkpt><trkpt lat="40.6558067" lon="8.2291983"><ele>36.0</ele><time>2026-04-19T11:11:16.476Z</time></trkpt><trkpt lat="40.6557883" lon="8.2289583"><ele>36.0</ele><time>2026-04-19T11:11:17.476Z</time></trkpt><trkpt lat="40.6557683" lon="8.2287217"><ele>36.0</ele><time>2026-04-19T11:11:18.477Z</time></trkpt><trkpt lat="40.6557567" lon="8.228495"><ele>36.0</ele><time>2026-04-19T11:11:19.476Z</time></trkpt><trkpt lat="40.6557433" lon="8.2282733"><ele>36.0</ele><time>2026-04-19T11:11:20.476Z</time></trkpt><trkpt lat="40.6557267" lon="8.2280417"><ele>36.0</ele><time>2026-04-19T11:11:21.477Z</time></trkpt><trkpt lat="40.655715" lon="8.2278067"><ele>35.333333333333336</ele><time>2026-04-19T11:11:22.476Z</time></trkpt><trkpt lat="40.6557" lon="8.2275767"><ele>34.66666666666667</ele><time>2026-04-19T11:11:23.477Z</time></trkpt><trkpt lat="40.65568" lon="8.2273383"><ele>34.0</ele><time>2026-04-19T11:11:24.477Z</time></trkpt><trkpt lat="40.6556717" lon="8.2271067"><ele>34.0</ele><time>2026-04-19T11:11:25.476Z</time></trkpt><trkpt lat="40.655665" lon="8.22688"><ele>34.0</ele><time>2026-04-19T11:11:26.477Z</time></trkpt><trkpt lat="40.6556533" lon="8.226655"><ele>34.0</ele><time>2026-04-19T11:11:27.476Z</time></trkpt><trkpt lat="40.6556433" lon="8.2264283"><ele>34.0</ele><time>2026-04-19T11:11:28.477Z</time></trkpt><trkpt lat="40.6556333" lon="8.2261883"><ele>34.0</ele><time>2026-04-19T11:11:29.476Z</time></trkpt><trkpt lat="40.6556133" lon="8.2259617"><ele>34.0</ele><time>2026-04-19T11:11:30.476Z</time></trkpt><trkpt lat="40.6555967" lon="8.2257217"><ele>34.0</ele><time>2026-04-19T11:11:31.476Z</time></trkpt><trkpt lat="40.6555717" lon="8.2254883"><ele>34.0</ele><time>2026-04-19T11:11:32.476Z</time></trkpt><trkpt lat="40.655565" lon="8.22525"><ele>34.0</ele><time>2026-04-19T11:11:33.477Z</time></trkpt><trkpt lat="40.655555" lon="8.2250183"><ele>34.0</ele><time>2026-04-19T11:11:34.476Z</time></trkpt><trkpt lat="40.6555417" lon="8.2247917"><ele>34.0</ele><time>2026-04-19T11:11:35.476Z</time></trkpt><trkpt lat="40.6555333" lon="8.2245617"><ele>34.0</ele><time>2026-04-19T11:11:36.477Z</time></trkpt><trkpt lat="40.6555183" lon="8.2243383"><ele>34.0</ele><time>2026-04-19T11:11:37.477Z</time></trkpt><trkpt lat="40.6555083" lon="8.2241167"><ele>34.0</ele><time>2026-04-19T11:11:38.476Z</time></trkpt><trkpt lat="40.65549" lon="8.2238817"><ele>34.0</ele><time>2026-04-19T11:11:39.477Z</time></trkpt><trkpt lat="40.6554783" lon="8.2236467"><ele>34.0</ele><time>2026-04-19T11:11:40.476Z</time></trkpt><trkpt lat="40.6554633" lon="8.2234067"><ele>34.0</ele><time>2026-04-19T11:11:41.476Z</time></trkpt><trkpt lat="40.655455" lon="8.2231617"><ele>34.0</ele><time>2026-04-19T11:11:42.476Z</time></trkpt><trkpt lat="40.6554367" lon="8.22291"><ele>34.0</ele><time>2026-04-19T11:11:43.477Z</time></trkpt><trkpt lat="40.6554217" lon="8.2226483"><ele>34.0</ele><time>2026-04-19T11:11:44.476Z</time></trkpt><trkpt lat="40.6554067" lon="8.2223833"><ele>34.0</ele><time>2026-04-19T11:11:45.476Z</time></trkpt><trkpt lat="40.65539" lon="8.2221333"><ele>34.0</ele><time>2026-04-19T11:11:46.476Z</time></trkpt><trkpt lat="40.6553733" lon="8.2218883"><ele>34.0</ele><time>2026-04-19T11:11:47.476Z</time></trkpt><trkpt lat="40.65537" lon="8.221635"><ele>34.0</ele><time>2026-04-19T11:11:48.476Z</time></trkpt><trkpt lat="40.6553567" lon="8.221385"><ele>34.333333333333336</ele><time>2026-04-19T11:11:49.476Z</time></trkpt><trkpt lat="40.6553433" lon="8.2211233"><ele>34.666666666666664</ele><time>2026-04-19T11:11:50.476Z</time></trkpt><trkpt lat="40.6553267" lon="8.22086"><ele>35.0</ele><time>2026-04-19T11:11:51.476Z</time></trkpt><trkpt lat="40.65531" lon="8.2206033"><ele>35.0</ele><time>2026-04-19T11:11:52.476Z</time></trkpt><trkpt lat="40.6552967" lon="8.2203483"><ele>35.0</ele><time>2026-04-19T11:11:53.477Z</time></trkpt><trkpt lat="40.6552917" lon="8.220095"><ele>35.0</ele><time>2026-04-19T11:11:54.477Z</time></trkpt><trkpt lat="40.655275" lon="8.2198383"><ele>35.666666666666664</ele><time>2026-04-19T11:11:55.477Z</time></trkpt><trkpt lat="40.65526" lon="8.2195883"><ele>36.333333333333336</ele><time>2026-04-19T11:11:56.476Z</time></trkpt><trkpt lat="40.6552417" lon="8.219325"><ele>37.0</ele><time>2026-04-19T11:11:57.476Z</time></trkpt><trkpt lat="40.6552233" lon="8.2190617"><ele>37.0</ele><time>2026-04-19T11:11:58.477Z</time></trkpt><trkpt lat="40.655205" lon="8.2187917"><ele>37.0</ele><time>2026-04-19T11:11:59.476Z</time></trkpt><trkpt lat="40.65519" lon="8.2185283"><ele>37.0</ele><time>2026-04-19T11:12:00.477Z</time></trkpt><trkpt lat="40.6551717" lon="8.2182667"><ele>37.0</ele><time>2026-04-19T11:12:01.477Z</time></trkpt><trkpt lat="40.6551533" lon="8.2179983"><ele>37.0</ele><time>2026-04-19T11:12:02.476Z</time></trkpt><trkpt lat="40.6551367" lon="8.2177317"><ele>37.0</ele><time>2026-04-19T11:12:03.477Z</time></trkpt><trkpt lat="40.6551217" lon="8.217465"><ele>37.0</ele><time>2026-04-19T11:12:04.476Z</time></trkpt><trkpt lat="40.6551067" lon="8.2171967"><ele>37.0</ele><time>2026-04-19T11:12:05.477Z</time></trkpt><trkpt lat="40.6550983" lon="8.2169367"><ele>37.0</ele><time>2026-04-19T11:12:06.477Z</time></trkpt><trkpt lat="40.6550833" lon="8.216675"><ele>37.0</ele><time>2026-04-19T11:12:07.477Z</time></trkpt><trkpt lat="40.655065" lon="8.2164217"><ele>37.0</ele><time>2026-04-19T11:12:08.476Z</time></trkpt><trkpt lat="40.65505" lon="8.21616"><ele>37.0</ele><time>2026-04-19T11:12:09.477Z</time></trkpt><trkpt lat="40.65504" lon="8.2158917"><ele>37.0</ele><time>2026-04-19T11:12:10.476Z</time></trkpt><trkpt lat="40.65503" lon="8.2156283"><ele>37.0</ele><time>2026-04-19T11:12:11.476Z</time></trkpt><trkpt lat="40.6550067" lon="8.2153617"><ele>37.0</ele><time>2026-04-19T11:12:12.477Z</time></trkpt><trkpt lat="40.6549917" lon="8.2151"><ele>37.0</ele><time>2026-04-19T11:12:13.476Z</time></trkpt><trkpt lat="40.6549733" lon="8.2148283"><ele>37.0</ele><time>2026-04-19T11:12:14.476Z</time></trkpt><trkpt lat="40.6549567" lon="8.2145717"><ele>37.0</ele><time>2026-04-19T11:12:15.477Z</time></trkpt><trkpt lat="40.6549433" lon="8.2143167"><ele>37.0</ele><time>2026-04-19T11:12:16.477Z</time></trkpt><trkpt lat="40.654925" lon="8.2140667"><ele>37.0</ele><time>2026-04-19T11:12:17.477Z</time></trkpt><trkpt lat="40.6549117" lon="8.2138117"><ele>37.0</ele><time>2026-04-19T11:12:18.477Z</time></trkpt><trkpt lat="40.6549017" lon="8.2135633"><ele>37.0</ele><time>2026-04-19T11:12:19.477Z</time></trkpt><trkpt lat="40.654885" lon="8.2133167"><ele>37.0</ele><time>2026-04-19T11:12:20.476Z</time></trkpt><trkpt lat="40.6548783" lon="8.2130683"><ele>37.0</ele><time>2026-04-19T11:12:21.477Z</time></trkpt><trkpt lat="40.6548667" lon="8.2128233"><ele>37.0</ele><time>2026-04-19T11:12:22.477Z</time></trkpt><trkpt lat="40.6548567" lon="8.2125767"><ele>37.0</ele><time>2026-04-19T11:12:23.477Z</time></trkpt><trkpt lat="40.6548383" lon="8.2123317"><ele>37.0</ele><time>2026-04-19T11:12:24.476Z</time></trkpt><trkpt lat="40.6548217" lon="8.2120817"><ele>37.0</ele><time>2026-04-19T11:12:25.477Z</time></trkpt><trkpt lat="40.6548033" lon="8.2118267"><ele>37.0</ele><time>2026-04-19T11:12:26.476Z</time></trkpt><trkpt lat="40.654785" lon="8.211575"><ele>37.0</ele><time>2026-04-19T11:12:27.477Z</time></trkpt><trkpt lat="40.654775" lon="8.21132"><ele>37.0</ele><time>2026-04-19T11:12:28.476Z</time></trkpt><trkpt lat="40.654755" lon="8.2110717"><ele>37.0</ele><time>2026-04-19T11:12:29.476Z</time></trkpt><trkpt lat="40.6547433" lon="8.2108267"><ele>37.0</ele><time>2026-04-19T11:12:30.477Z</time></trkpt><trkpt lat="40.654725" lon="8.2105917"><ele>37.333333333333336</ele><time>2026-04-19T11:12:31.477Z</time></trkpt><trkpt lat="40.654695" lon="8.21036"><ele>37.666666666666664</ele><time>2026-04-19T11:12:32.477Z</time></trkpt><trkpt lat="40.6546433" lon="8.2101333"><ele>38.0</ele><time>2026-04-19T11:12:33.476Z</time></trkpt><trkpt lat="40.6545733" lon="8.2099117"><ele>38.33333333333333</ele><time>2026-04-19T11:12:34.476Z</time></trkpt><trkpt lat="40.6544817" lon="8.2097033"><ele>38.666666666666664</ele><time>2026-04-19T11:12:35.476Z</time></trkpt><trkpt lat="40.6543717" lon="8.20951"><ele>39.0</ele><time>2026-04-19T11:12:36.476Z</time></trkpt><trkpt lat="40.654255" lon="8.2093283"><ele>39.0</ele><time>2026-04-19T11:12:37.477Z</time></trkpt><trkpt lat="40.6541117" lon="8.20915"><ele>39.0</ele><time>2026-04-19T11:12:38.477Z</time></trkpt><trkpt lat="40.6539683" lon="8.2089667"><ele>39.0</ele><time>2026-04-19T11:12:39.477Z</time></trkpt><trkpt lat="40.653845" lon="8.2087833"><ele>38.666666666666664</ele><time>2026-04-19T11:12:40.477Z</time></trkpt><trkpt lat="40.6537183" lon="8.2086083"><ele>38.33333333333333</ele><time>2026-04-19T11:12:41.476Z</time></trkpt><trkpt lat="40.6535883" lon="8.2084417"><ele>38.0</ele><time>2026-04-19T11:12:42.476Z</time></trkpt><trkpt lat="40.6534633" lon="8.2082683"><ele>37.33333333333333</ele><time>2026-04-19T11:12:43.476Z</time></trkpt><trkpt lat="40.6533333" lon="8.2080917"><ele>36.666666666666664</ele><time>2026-04-19T11:12:44.477Z</time></trkpt><trkpt lat="40.6532" lon="8.2079133"><ele>36.0</ele><time>2026-04-19T11:12:45.477Z</time></trkpt><trkpt lat="40.6530683" lon="8.20774"><ele>36.0</ele><time>2026-04-19T11:12:46.477Z</time></trkpt><trkpt lat="40.6529383" lon="8.2075617"><ele>36.0</ele><time>2026-04-19T11:12:47.477Z</time></trkpt><trkpt lat="40.652805" lon="8.2073717"><ele>36.0</ele><time>2026-04-19T11:12:48.476Z</time></trkpt><trkpt lat="40.6526733" lon="8.2071933"><ele>36.0</ele><time>2026-04-19T11:12:49.477Z</time></trkpt><trkpt lat="40.6525417" lon="8.2070167"><ele>36.0</ele><time>2026-04-19T11:12:50.477Z</time></trkpt><trkpt lat="40.6524133" lon="8.206835"><ele>36.0</ele><time>2026-04-19T11:12:51.477Z</time></trkpt><trkpt lat="40.6522833" lon="8.2066533"><ele>35.666666666666664</ele><time>2026-04-19T11:12:52.476Z</time></trkpt><trkpt lat="40.65215" lon="8.2064767"><ele>35.33333333333333</ele><time>2026-04-19T11:12:53.476Z</time></trkpt><trkpt lat="40.6520217" lon="8.2063"><ele>35.0</ele><time>2026-04-19T11:12:54.477Z</time></trkpt><trkpt lat="40.6518867" lon="8.20612"><ele>35.0</ele><time>2026-04-19T11:12:55.476Z</time></trkpt><trkpt lat="40.6517533" lon="8.2059417"><ele>35.0</ele><time>2026-04-19T11:12:56.477Z</time></trkpt><trkpt lat="40.6516267" lon="8.2057617"><ele>35.0</ele><time>2026-04-19T11:12:57.477Z</time></trkpt><trkpt lat="40.6514983" lon="8.2055783"><ele>34.666666666666664</ele><time>2026-04-19T11:12:58.476Z</time></trkpt><trkpt lat="40.65137" lon="8.20539"><ele>34.333333333333336</ele><time>2026-04-19T11:12:59.476Z</time></trkpt><trkpt lat="40.6512367" lon="8.2052017"><ele>34.0</ele><time>2026-04-19T11:13:00.476Z</time></trkpt><trkpt lat="40.651105" lon="8.2050217"><ele>34.0</ele><time>2026-04-19T11:13:01.477Z</time></trkpt><trkpt lat="40.65097" lon="8.20484"><ele>34.0</ele><time>2026-04-19T11:13:02.476Z</time></trkpt><trkpt lat="40.6508333" lon="8.2046533"><ele>34.0</ele><time>2026-04-19T11:13:03.476Z</time></trkpt><trkpt lat="40.6507067" lon="8.2044667"><ele>34.0</ele><time>2026-04-19T11:13:04.476Z</time></trkpt><trkpt lat="40.65057" lon="8.2042833"><ele>34.0</ele><time>2026-04-19T11:13:05.476Z</time></trkpt><trkpt lat="40.6504383" lon="8.2041"><ele>34.0</ele><time>2026-04-19T11:13:06.476Z</time></trkpt><trkpt lat="40.6502983" lon="8.2039183"><ele>33.66666666666667</ele><time>2026-04-19T11:13:07.477Z</time></trkpt><trkpt lat="40.6501517" lon="8.2037217"><ele>33.333333333333336</ele><time>2026-04-19T11:13:08.476Z</time></trkpt><trkpt lat="40.6500017" lon="8.2035233"><ele>33.0</ele><time>2026-04-19T11:13:09.477Z</time></trkpt><trkpt lat="40.6498583" lon="8.203315"><ele>33.0</ele><time>2026-04-19T11:13:10.476Z</time></trkpt><trkpt lat="40.64971" lon="8.2031033"><ele>33.0</ele><time>2026-04-19T11:13:11.477Z</time></trkpt><trkpt lat="40.6495583" lon="8.20289"><ele>33.0</ele><time>2026-04-19T11:13:12.477Z</time></trkpt><trkpt lat="40.6494033" lon="8.20268"><ele>33.0</ele><time>2026-04-19T11:13:13.476Z</time></trkpt><trkpt lat="40.6492417" lon="8.2024617"><ele>33.0</ele><time>2026-04-19T11:13:14.476Z</time></trkpt><trkpt lat="40.6490867" lon="8.2022383"><ele>32.666666666666664</ele><time>2026-04-19T11:13:15.477Z</time></trkpt><trkpt lat="40.6489333" lon="8.20202"><ele>32.33333333333333</ele><time>2026-04-19T11:13:16.477Z</time></trkpt><trkpt lat="40.6487767" lon="8.20181"><ele>32.0</ele><time>2026-04-19T11:13:17.477Z</time></trkpt><trkpt lat="40.648625" lon="8.20162"><ele>32.0</ele><time>2026-04-19T11:13:18.476Z</time></trkpt><trkpt lat="40.6484833" lon="8.201445"><ele>32.0</ele><time>2026-04-19T11:13:19.476Z</time></trkpt><trkpt lat="40.64833" lon="8.2012933"><ele>32.0</ele><time>2026-04-19T11:13:20.477Z</time></trkpt><trkpt lat="40.6481733" lon="8.2011533"><ele>32.0</ele><time>2026-04-19T11:13:21.477Z</time></trkpt><trkpt lat="40.6480067" lon="8.2010383"><ele>32.0</ele><time>2026-04-19T11:13:22.476Z</time></trkpt><trkpt lat="40.6478267" lon="8.2009533"><ele>32.0</ele><time>2026-04-19T11:13:23.477Z</time></trkpt><trkpt lat="40.6476417" lon="8.2008817"><ele>31.666666666666664</ele><time>2026-04-19T11:13:24.477Z</time></trkpt><trkpt lat="40.6474433" lon="8.20083"><ele>31.333333333333336</ele><time>2026-04-19T11:13:25.477Z</time></trkpt><trkpt lat="40.6472433" lon="8.2007967"><ele>31.0</ele><time>2026-04-19T11:13:26.476Z</time></trkpt><trkpt lat="40.647035" lon="8.2007717"><ele>31.0</ele><time>2026-04-19T11:13:27.476Z</time></trkpt><trkpt lat="40.6468317" lon="8.2007367"><ele>31.0</ele><time>2026-04-19T11:13:28.476Z</time></trkpt><trkpt lat="40.646635" lon="8.2006983"><ele>31.0</ele><time>2026-04-19T11:13:29.477Z</time></trkpt><trkpt lat="40.64643" lon="8.2006583"><ele>30.666666666666668</ele><time>2026-04-19T11:13:30.477Z</time></trkpt><trkpt lat="40.6462183" lon="8.2006217"><ele>30.333333333333336</ele><time>2026-04-19T11:13:31.476Z</time></trkpt><trkpt lat="40.646015" lon="8.2005833"><ele>30.0</ele><time>2026-04-19T11:13:32.476Z</time></trkpt><trkpt lat="40.64581" lon="8.20054"><ele>30.0</ele><time>2026-04-19T11:13:33.476Z</time></trkpt><trkpt lat="40.645605" lon="8.2005017"><ele>30.0</ele><time>2026-04-19T11:13:34.476Z</time></trkpt><trkpt lat="40.645395" lon="8.2004633"><ele>30.0</ele><time>2026-04-19T11:13:35.477Z</time></trkpt><trkpt lat="40.6451867" lon="8.2004217"><ele>29.666666666666664</ele><time>2026-04-19T11:13:36.476Z</time></trkpt><trkpt lat="40.6449717" lon="8.20038"><ele>29.333333333333332</ele><time>2026-04-19T11:13:37.477Z</time></trkpt><trkpt lat="40.644765" lon="8.2003367"><ele>29.0</ele><time>2026-04-19T11:13:38.477Z</time></trkpt><trkpt lat="40.6445517" lon="8.2002983"><ele>29.0</ele><time>2026-04-19T11:13:39.477Z</time></trkpt><trkpt lat="40.6443433" lon="8.2002583"><ele>29.0</ele><time>2026-04-19T11:13:40.477Z</time></trkpt><trkpt lat="40.6441417" lon="8.2002167"><ele>29.0</ele><time>2026-04-19T11:13:41.476Z</time></trkpt><trkpt lat="40.643945" lon="8.2001767"><ele>29.0</ele><time>2026-04-19T11:13:42.476Z</time></trkpt><trkpt lat="40.6437417" lon="8.2001433"><ele>29.0</ele><time>2026-04-19T11:13:43.477Z</time></trkpt><trkpt lat="40.6435367" lon="8.2001083"><ele>29.0</ele><time>2026-04-19T11:13:44.476Z</time></trkpt><trkpt lat="40.6433367" lon="8.2000667"><ele>28.666666666666664</ele><time>2026-04-19T11:13:45.476Z</time></trkpt><trkpt lat="40.643145" lon="8.20003"><ele>28.333333333333336</ele><time>2026-04-19T11:13:46.476Z</time></trkpt><trkpt lat="40.6429567" lon="8.1999933"><ele>28.0</ele><time>2026-04-19T11:13:47.476Z</time></trkpt><trkpt lat="40.6427717" lon="8.19996"><ele>28.0</ele><time>2026-04-19T11:13:48.476Z</time></trkpt><trkpt lat="40.642575" lon="8.1999267"><ele>28.0</ele><time>2026-04-19T11:13:49.477Z</time></trkpt><trkpt lat="40.6423817" lon="8.1998883"><ele>28.0</ele><time>2026-04-19T11:13:50.476Z</time></trkpt><trkpt lat="40.6421883" lon="8.199855"><ele>27.333333333333336</ele><time>2026-04-19T11:13:51.477Z</time></trkpt><trkpt lat="40.6419917" lon="8.19982"><ele>26.666666666666664</ele><time>2026-04-19T11:13:52.477Z</time></trkpt><trkpt lat="40.641805" lon="8.19978"><ele>26.0</ele><time>2026-04-19T11:13:53.476Z</time></trkpt><trkpt lat="40.6416117" lon="8.1997367"><ele>26.0</ele><time>2026-04-19T11:13:54.477Z</time></trkpt><trkpt lat="40.64142" lon="8.1996967"><ele>26.0</ele><time>2026-04-19T11:13:55.476Z</time></trkpt><trkpt lat="40.6412317" lon="8.1996633"><ele>26.0</ele><time>2026-04-19T11:13:56.477Z</time></trkpt><trkpt lat="40.6410483" lon="8.1996283"><ele>26.0</ele><time>2026-04-19T11:13:57.477Z</time></trkpt><trkpt lat="40.6408617" lon="8.1995883"><ele>26.0</ele><time>2026-04-19T11:13:58.477Z</time></trkpt><trkpt lat="40.6406667" lon="8.1995533"><ele>26.0</ele><time>2026-04-19T11:13:59.477Z</time></trkpt><trkpt lat="40.640465" lon="8.1995167"><ele>26.0</ele><time>2026-04-19T11:14:00.476Z</time></trkpt><trkpt lat="40.640275" lon="8.199475"><ele>26.0</ele><time>2026-04-19T11:14:01.477Z</time></trkpt><trkpt lat="40.64009" lon="8.1994483"><ele>26.0</ele><time>2026-04-19T11:14:02.477Z</time></trkpt><trkpt lat="40.63991" lon="8.1994117"><ele>26.0</ele><time>2026-04-19T11:14:03.476Z</time></trkpt><trkpt lat="40.6397217" lon="8.199375"><ele>26.0</ele><time>2026-04-19T11:14:04.477Z</time></trkpt><trkpt lat="40.6395383" lon="8.1993417"><ele>26.0</ele><time>2026-04-19T11:14:05.476Z</time></trkpt><trkpt lat="40.6393533" lon="8.1993017"><ele>26.0</ele><time>2026-04-19T11:14:06.477Z</time></trkpt><trkpt lat="40.6391733" lon="8.1992683"><ele>26.0</ele><time>2026-04-19T11:14:07.476Z</time></trkpt><trkpt lat="40.638985" lon="8.1992283"><ele>26.0</ele><time>2026-04-19T11:14:08.477Z</time></trkpt><trkpt lat="40.638805" lon="8.1991883"><ele>25.666666666666664</ele><time>2026-04-19T11:14:09.476Z</time></trkpt><trkpt lat="40.638625" lon="8.1991517"><ele>25.333333333333336</ele><time>2026-04-19T11:14:10.477Z</time></trkpt><trkpt lat="40.63844" lon="8.1991183"><ele>25.0</ele><time>2026-04-19T11:14:11.477Z</time></trkpt><trkpt lat="40.63826" lon="8.1990867"><ele>25.0</ele><time>2026-04-19T11:14:12.476Z</time></trkpt><trkpt lat="40.6380667" lon="8.1990517"><ele>25.0</ele><time>2026-04-19T11:14:13.476Z</time></trkpt><trkpt lat="40.6378817" lon="8.1990167"><ele>25.0</ele><time>2026-04-19T11:14:14.477Z</time></trkpt><trkpt lat="40.637705" lon="8.198985"><ele>25.0</ele><time>2026-04-19T11:14:15.477Z</time></trkpt><trkpt lat="40.6375217" lon="8.1989433"><ele>25.0</ele><time>2026-04-19T11:14:16.476Z</time></trkpt><trkpt lat="40.6373367" lon="8.1989067"><ele>25.0</ele><time>2026-04-19T11:14:17.476Z</time></trkpt><trkpt lat="40.63715" lon="8.1988767"><ele>24.666666666666668</ele><time>2026-04-19T11:14:18.477Z</time></trkpt><trkpt lat="40.6369583" lon="8.1988417"><ele>24.333333333333336</ele><time>2026-04-19T11:14:19.476Z</time></trkpt><trkpt lat="40.63677" lon="8.1988017"><ele>24.0</ele><time>2026-04-19T11:14:20.477Z</time></trkpt><trkpt lat="40.6365833" lon="8.19877"><ele>24.0</ele><time>2026-04-19T11:14:21.477Z</time></trkpt><trkpt lat="40.6363917" lon="8.1987417"><ele>24.0</ele><time>2026-04-19T11:14:22.476Z</time></trkpt><trkpt lat="40.6362083" lon="8.1987067"><ele>24.0</ele><time>2026-04-19T11:14:23.476Z</time></trkpt><trkpt lat="40.636025" lon="8.1986683"><ele>23.666666666666668</ele><time>2026-04-19T11:14:24.476Z</time></trkpt><trkpt lat="40.635835" lon="8.198625"><ele>23.333333333333336</ele><time>2026-04-19T11:14:25.476Z</time></trkpt><trkpt lat="40.63564" lon="8.198595"><ele>23.0</ele><time>2026-04-19T11:14:26.477Z</time></trkpt><trkpt lat="40.63544" lon="8.198555"><ele>22.333333333333336</ele><time>2026-04-19T11:14:27.477Z</time></trkpt><trkpt lat="40.63524" lon="8.19852"><ele>21.666666666666668</ele><time>2026-04-19T11:14:28.476Z</time></trkpt><trkpt lat="40.63504" lon="8.19848"><ele>21.0</ele><time>2026-04-19T11:14:29.477Z</time></trkpt><trkpt lat="40.6348367" lon="8.1984383"><ele>21.0</ele><time>2026-04-19T11:14:30.477Z</time></trkpt><trkpt lat="40.6346317" lon="8.1984017"><ele>21.0</ele><time>2026-04-19T11:14:31.476Z</time></trkpt><trkpt lat="40.6344283" lon="8.198355"><ele>21.0</ele><time>2026-04-19T11:14:32.476Z</time></trkpt><trkpt lat="40.6342333" lon="8.1983133"><ele>20.666666666666668</ele><time>2026-04-19T11:14:33.476Z</time></trkpt><trkpt lat="40.6340383" lon="8.1982717"><ele>20.333333333333336</ele><time>2026-04-19T11:14:34.477Z</time></trkpt><trkpt lat="40.6338467" lon="8.1982333"><ele>20.0</ele><time>2026-04-19T11:14:35.476Z</time></trkpt><trkpt lat="40.63365" lon="8.1982017"><ele>19.666666666666668</ele><time>2026-04-19T11:14:36.476Z</time></trkpt><trkpt lat="40.63345" lon="8.19817"><ele>19.333333333333332</ele><time>2026-04-19T11:14:37.476Z</time></trkpt><trkpt lat="40.6332633" lon="8.198125"><ele>19.0</ele><time>2026-04-19T11:14:38.477Z</time></trkpt><trkpt lat="40.6330667" lon="8.1980917"><ele>18.666666666666664</ele><time>2026-04-19T11:14:39.477Z</time></trkpt><trkpt lat="40.63287" lon="8.1980667"><ele>18.333333333333332</ele><time>2026-04-19T11:14:40.476Z</time></trkpt><trkpt lat="40.632665" lon="8.19803"><ele>18.0</ele><time>2026-04-19T11:14:41.476Z</time></trkpt><trkpt lat="40.6324617" lon="8.1979883"><ele>17.666666666666668</ele><time>2026-04-19T11:14:42.476Z</time></trkpt><trkpt lat="40.6322567" lon="8.1979433"><ele>17.333333333333336</ele><time>2026-04-19T11:14:43.477Z</time></trkpt><trkpt lat="40.63204" lon="8.1979067"><ele>17.0</ele><time>2026-04-19T11:14:44.476Z</time></trkpt><trkpt lat="40.63182" lon="8.1978667"><ele>16.666666666666668</ele><time>2026-04-19T11:14:45.476Z</time></trkpt><trkpt lat="40.6316067" lon="8.1978283"><ele>16.333333333333332</ele><time>2026-04-19T11:14:46.477Z</time></trkpt><trkpt lat="40.6313917" lon="8.19779"><ele>16.0</ele><time>2026-04-19T11:14:47.476Z</time></trkpt><trkpt lat="40.63118" lon="8.1977483"><ele>15.333333333333332</ele><time>2026-04-19T11:14:48.476Z</time></trkpt><trkpt lat="40.6309717" lon="8.1977133"><ele>14.666666666666668</ele><time>2026-04-19T11:14:49.477Z</time></trkpt><trkpt lat="40.6307667" lon="8.1976767"><ele>14.0</ele><time>2026-04-19T11:14:50.476Z</time></trkpt><trkpt lat="40.6305583" lon="8.1976367"><ele>14.0</ele><time>2026-04-19T11:14:51.476Z</time></trkpt><trkpt lat="40.6303533" lon="8.1975983"><ele>14.0</ele><time>2026-04-19T11:14:52.476Z</time></trkpt><trkpt lat="40.63015" lon="8.197555"><ele>14.0</ele><time>2026-04-19T11:14:53.477Z</time></trkpt><trkpt lat="40.629945" lon="8.1975083"><ele>14.0</ele><time>2026-04-19T11:14:54.477Z</time></trkpt><trkpt lat="40.62974" lon="8.1974717"><ele>14.0</ele><time>2026-04-19T11:14:55.476Z</time></trkpt><trkpt lat="40.6295317" lon="8.19743"><ele>14.0</ele><time>2026-04-19T11:14:56.476Z</time></trkpt><trkpt lat="40.6293233" lon="8.19739"><ele>13.666666666666668</ele><time>2026-04-19T11:14:57.476Z</time></trkpt><trkpt lat="40.629115" lon="8.19735"><ele>13.333333333333332</ele><time>2026-04-19T11:14:58.476Z</time></trkpt><trkpt lat="40.6288983" lon="8.1973183"><ele>13.0</ele><time>2026-04-19T11:14:59.477Z</time></trkpt><trkpt lat="40.6286967" lon="8.1972817"><ele>12.333333333333332</ele><time>2026-04-19T11:15:00.476Z</time></trkpt><trkpt lat="40.6284867" lon="8.1972417"><ele>11.666666666666666</ele><time>2026-04-19T11:15:01.477Z</time></trkpt><trkpt lat="40.6283" lon="8.1972033"><ele>11.0</ele><time>2026-04-19T11:15:02.477Z</time></trkpt><trkpt lat="40.6281217" lon="8.197175"><ele>11.0</ele><time>2026-04-19T11:15:03.477Z</time></trkpt><trkpt lat="40.6279567" lon="8.1971467"><ele>11.0</ele><time>2026-04-19T11:15:04.477Z</time></trkpt><trkpt lat="40.6277933" lon="8.19712"><ele>11.0</ele><time>2026-04-19T11:15:05.477Z</time></trkpt><trkpt lat="40.6276317" lon="8.1970933"><ele>10.0</ele><time>2026-04-19T11:15:06.477Z</time></trkpt><trkpt lat="40.6274717" lon="8.1970667"><ele>9.0</ele><time>2026-04-19T11:15:07.476Z</time></trkpt><trkpt lat="40.6273033" lon="8.197025"><ele>8.0</ele><time>2026-04-19T11:15:08.477Z</time></trkpt><trkpt lat="40.6271367" lon="8.1969833"><ele>7.666666666666666</ele><time>2026-04-19T11:15:09.476Z</time></trkpt><trkpt lat="40.62696" lon="8.1969467"><ele>7.333333333333334</ele><time>2026-04-19T11:15:10.476Z</time></trkpt><trkpt lat="40.6267817" lon="8.1969083"><ele>7.0</ele><time>2026-04-19T11:15:11.477Z</time></trkpt><trkpt lat="40.6265933" lon="8.1968767"><ele>7.0</ele><time>2026-04-19T11:15:12.476Z</time></trkpt><trkpt lat="40.62641" lon="8.1968483"><ele>7.0</ele><time>2026-04-19T11:15:13.477Z</time></trkpt><trkpt lat="40.6262367" lon="8.19682"><ele>7.0</ele><time>2026-04-19T11:15:14.476Z</time></trkpt><trkpt lat="40.6260733" lon="8.1967883"><ele>7.0</ele><time>2026-04-19T11:15:15.477Z</time></trkpt><trkpt lat="40.62591" lon="8.1967633"><ele>7.0</ele><time>2026-04-19T11:15:16.476Z</time></trkpt><trkpt lat="40.6257467" lon="8.196735"><ele>7.0</ele><time>2026-04-19T11:15:17.477Z</time></trkpt><trkpt lat="40.6255867" lon="8.1966917"><ele>7.0</ele><time>2026-04-19T11:15:18.476Z</time></trkpt><trkpt lat="40.6254317" lon="8.19666"><ele>7.0</ele><time>2026-04-19T11:15:19.476Z</time></trkpt><trkpt lat="40.6252917" lon="8.196635"><ele>7.0</ele><time>2026-04-19T11:15:20.476Z</time></trkpt><trkpt lat="40.6251567" lon="8.19661"><ele>7.0</ele><time>2026-04-19T11:15:21.477Z</time></trkpt><trkpt lat="40.6250183" lon="8.196585"><ele>6.5</ele><time>2026-04-19T11:15:22.477Z</time></trkpt><trkpt lat="40.624885" lon="8.19656"><ele>6.0</ele><time>2026-04-19T11:15:23.476Z</time></trkpt><trkpt lat="40.6247633" lon="8.196535"><ele>5.5</ele><time>2026-04-19T11:15:24.476Z</time></trkpt><trkpt lat="40.6246517" lon="8.1965067"><ele>5.0</ele><time>2026-04-19T11:15:25.477Z</time></trkpt><trkpt lat="40.6245333" lon="8.1964867"><ele>4.8</ele><time>2026-04-19T11:15:26.476Z</time></trkpt><trkpt lat="40.6244183" lon="8.1964733"><ele>4.6</ele><time>2026-04-19T11:15:27.477Z</time></trkpt><trkpt lat="40.6243133" lon="8.19645"><ele>4.4</ele><time>2026-04-19T11:15:28.476Z</time></trkpt><trkpt lat="40.6242117" lon="8.19642"><ele>4.2</ele><time>2026-04-19T11:15:29.476Z</time></trkpt><trkpt lat="40.6241283" lon="8.196385"><ele>4.0</ele><time>2026-04-19T11:15:30.477Z</time></trkpt><trkpt lat="40.624055" lon="8.1963717"><ele>4.0</ele><time>2026-04-19T11:15:31.477Z</time></trkpt><trkpt lat="40.6239467" lon="8.1964283"><ele>4.0</ele><time>2026-04-19T11:15:33.477Z</time></trkpt><trkpt lat="40.6239033" lon="8.1965867"><ele>4.0</ele><time>2026-04-19T11:15:35.476Z</time></trkpt><trkpt lat="40.6238967" lon="8.1967133"><ele>4.0</ele><time>2026-04-19T11:15:36.477Z</time></trkpt><trkpt lat="40.6238983" lon="8.1968467"><ele>4.0</ele><time>2026-04-19T11:15:37.476Z</time></trkpt><trkpt lat="40.6238883" lon="8.19698"><ele>4.0</ele><time>2026-04-19T11:15:38.476Z</time></trkpt><trkpt lat="40.6238517" lon="8.19711"><ele>4.0</ele><time>2026-04-19T11:15:39.477Z</time></trkpt><trkpt lat="40.6238183" lon="8.1972367"><ele>4.0</ele><time>2026-04-19T11:15:40.477Z</time></trkpt><trkpt lat="40.62378" lon="8.1973533"><ele>4.0</ele><time>2026-04-19T11:15:41.477Z</time></trkpt><trkpt lat="40.6237433" lon="8.19747"><ele>4.0</ele><time>2026-04-19T11:15:42.477Z</time></trkpt><trkpt lat="40.6237067" lon="8.1975933"><ele>4.0</ele><time>2026-04-19T11:15:43.477Z</time></trkpt><trkpt lat="40.623665" lon="8.1977217"><ele>4.0</ele><time>2026-04-19T11:15:44.476Z</time></trkpt><trkpt lat="40.623625" lon="8.197855"><ele>4.0</ele><time>2026-04-19T11:15:45.477Z</time></trkpt><trkpt lat="40.6235867" lon="8.1979883"><ele>4.0</ele><time>2026-04-19T11:15:46.476Z</time></trkpt><trkpt lat="40.6235483" lon="8.1981317"><ele>4.0</ele><time>2026-04-19T11:15:47.476Z</time></trkpt><trkpt lat="40.6235067" lon="8.198285"><ele>4.25</ele><time>2026-04-19T11:15:48.476Z</time></trkpt><trkpt lat="40.62346" lon="8.1984467"><ele>4.5</ele><time>2026-04-19T11:15:49.476Z</time></trkpt><trkpt lat="40.623415" lon="8.198615"><ele>4.75</ele><time>2026-04-19T11:15:50.476Z</time></trkpt><trkpt lat="40.6233617" lon="8.1988033"><ele>5.0</ele><time>2026-04-19T11:15:51.477Z</time></trkpt><trkpt lat="40.6233017" lon="8.1989967"><ele>5.0</ele><time>2026-04-19T11:15:52.476Z</time></trkpt><trkpt lat="40.623245" lon="8.1991883"><ele>5.0</ele><time>2026-04-19T11:15:53.476Z</time></trkpt><trkpt lat="40.6231867" lon="8.1993883"><ele>5.0</ele><time>2026-04-19T11:15:54.477Z</time></trkpt><trkpt lat="40.6231267" lon="8.1995983"><ele>5.0</ele><time>2026-04-19T11:15:55.476Z</time></trkpt><trkpt lat="40.6230717" lon="8.1998133"><ele>5.0</ele><time>2026-04-19T11:15:56.477Z</time></trkpt><trkpt lat="40.6230183" lon="8.2000233"><ele>5.0</ele><time>2026-04-19T11:15:57.477Z</time></trkpt><trkpt lat="40.62296" lon="8.2002317"><ele>5.0</ele><time>2026-04-19T11:15:58.476Z</time></trkpt><trkpt lat="40.622895" lon="8.2004433"><ele>5.0</ele><time>2026-04-19T11:15:59.476Z</time></trkpt><trkpt lat="40.622825" lon="8.2006567"><ele>5.0</ele><time>2026-04-19T11:16:00.476Z</time></trkpt><trkpt lat="40.6227633" lon="8.2008683"><ele>5.666666666666667</ele><time>2026-04-19T11:16:01.477Z</time></trkpt><trkpt lat="40.6227033" lon="8.2010683"><ele>6.333333333333334</ele><time>2026-04-19T11:16:02.477Z</time></trkpt><trkpt lat="40.6226383" lon="8.20128"><ele>7.0</ele><time>2026-04-19T11:16:03.476Z</time></trkpt><trkpt lat="40.6225767" lon="8.2014883"><ele>7.333333333333334</ele><time>2026-04-19T11:16:04.477Z</time></trkpt><trkpt lat="40.6225167" lon="8.2016917"><ele>7.666666666666666</ele><time>2026-04-19T11:16:05.476Z</time></trkpt><trkpt lat="40.6224583" lon="8.2019"><ele>8.0</ele><time>2026-04-19T11:16:06.476Z</time></trkpt><trkpt lat="40.6223983" lon="8.2021083"><ele>8.0</ele><time>2026-04-19T11:16:07.476Z</time></trkpt><trkpt lat="40.6223333" lon="8.2023283"><ele>8.0</ele><time>2026-04-19T11:16:08.477Z</time></trkpt><trkpt lat="40.6222717" lon="8.2025517"><ele>8.0</ele><time>2026-04-19T11:16:09.477Z</time></trkpt><trkpt lat="40.622215" lon="8.20277"><ele>7.666666666666666</ele><time>2026-04-19T11:16:10.477Z</time></trkpt><trkpt lat="40.6221567" lon="8.2029767"><ele>7.333333333333334</ele><time>2026-04-19T11:16:11.477Z</time></trkpt><trkpt lat="40.6221017" lon="8.2031717"><ele>7.0</ele><time>2026-04-19T11:16:12.476Z</time></trkpt><trkpt lat="40.622045" lon="8.2033633"><ele>7.0</ele><time>2026-04-19T11:16:13.476Z</time></trkpt><trkpt lat="40.6219867" lon="8.20356"><ele>7.0</ele><time>2026-04-19T11:16:14.476Z</time></trkpt><trkpt lat="40.6219283" lon="8.2037567"><ele>7.0</ele><time>2026-04-19T11:16:15.477Z</time></trkpt><trkpt lat="40.62187" lon="8.20395"><ele>7.333333333333334</ele><time>2026-04-19T11:16:16.477Z</time></trkpt><trkpt lat="40.6218167" lon="8.2041417"><ele>7.666666666666666</ele><time>2026-04-19T11:16:17.476Z</time></trkpt><trkpt lat="40.6217633" lon="8.2043317"><ele>8.0</ele><time>2026-04-19T11:16:18.477Z</time></trkpt><trkpt lat="40.6217117" lon="8.2045217"><ele>8.0</ele><time>2026-04-19T11:16:19.476Z</time></trkpt><trkpt lat="40.621665" lon="8.2047033"><ele>8.0</ele><time>2026-04-19T11:16:20.477Z</time></trkpt><trkpt lat="40.621615" lon="8.2048767"><ele>8.0</ele><time>2026-04-19T11:16:21.476Z</time></trkpt><trkpt lat="40.6215667" lon="8.2050583"><ele>8.0</ele><time>2026-04-19T11:16:22.477Z</time></trkpt><trkpt lat="40.62151" lon="8.2052483"><ele>8.0</ele><time>2026-04-19T11:16:23.477Z</time></trkpt><trkpt lat="40.6214567" lon="8.20544"><ele>8.0</ele><time>2026-04-19T11:16:24.477Z</time></trkpt><trkpt lat="40.6213983" lon="8.205635"><ele>8.0</ele><time>2026-04-19T11:16:25.477Z</time></trkpt><trkpt lat="40.6213417" lon="8.205825"><ele>8.0</ele><time>2026-04-19T11:16:26.477Z</time></trkpt><trkpt lat="40.6212833" lon="8.2060167"><ele>8.0</ele><time>2026-04-19T11:16:27.476Z</time></trkpt><trkpt lat="40.6212283" lon="8.2062167"><ele>8.0</ele><time>2026-04-19T11:16:28.476Z</time></trkpt><trkpt lat="40.6211683" lon="8.2064183"><ele>8.0</ele><time>2026-04-19T11:16:29.477Z</time></trkpt><trkpt lat="40.6211117" lon="8.2066217"><ele>8.0</ele><time>2026-04-19T11:16:30.477Z</time></trkpt><trkpt lat="40.6210533" lon="8.20682"><ele>8.0</ele><time>2026-04-19T11:16:31.477Z</time></trkpt><trkpt lat="40.6209983" lon="8.20702"><ele>8.0</ele><time>2026-04-19T11:16:32.476Z</time></trkpt><trkpt lat="40.6209417" lon="8.2072167"><ele>8.0</ele><time>2026-04-19T11:16:33.476Z</time></trkpt><trkpt lat="40.620875" lon="8.2074083"><ele>8.0</ele><time>2026-04-19T11:16:34.476Z</time></trkpt><trkpt lat="40.6208" lon="8.2075967"><ele>7.666666666666666</ele><time>2026-04-19T11:16:35.476Z</time></trkpt><trkpt lat="40.6207033" lon="8.2077667"><ele>7.333333333333334</ele><time>2026-04-19T11:16:36.476Z</time></trkpt><trkpt lat="40.6206033" lon="8.20792"><ele>7.0</ele><time>2026-04-19T11:16:37.477Z</time></trkpt><trkpt lat="40.6204933" lon="8.2080733"><ele>7.333333333333334</ele><time>2026-04-19T11:16:38.476Z</time></trkpt><trkpt lat="40.6203783" lon="8.2082283"><ele>7.666666666666666</ele><time>2026-04-19T11:16:39.476Z</time></trkpt><trkpt lat="40.62026" lon="8.2083917"><ele>8.0</ele><time>2026-04-19T11:16:40.476Z</time></trkpt><trkpt lat="40.62014" lon="8.2085533"><ele>8.0</ele><time>2026-04-19T11:16:41.476Z</time></trkpt><trkpt lat="40.62002" lon="8.20871"><ele>8.0</ele><time>2026-04-19T11:16:42.476Z</time></trkpt><trkpt lat="40.6198967" lon="8.208875"><ele>8.0</ele><time>2026-04-19T11:16:43.477Z</time></trkpt><trkpt lat="40.61977" lon="8.2090417"><ele>8.333333333333332</ele><time>2026-04-19T11:16:44.477Z</time></trkpt><trkpt lat="40.6196483" lon="8.2092117"><ele>8.666666666666666</ele><time>2026-04-19T11:16:45.476Z</time></trkpt><trkpt lat="40.6195267" lon="8.2093783"><ele>9.0</ele><time>2026-04-19T11:16:46.476Z</time></trkpt><trkpt lat="40.6194167" lon="8.2095433"><ele>9.333333333333334</ele><time>2026-04-19T11:16:47.477Z</time></trkpt><trkpt lat="40.6192967" lon="8.2096933"><ele>9.666666666666668</ele><time>2026-04-19T11:16:48.476Z</time></trkpt><trkpt lat="40.61918" lon="8.20985"><ele>10.0</ele><time>2026-04-19T11:16:49.477Z</time></trkpt><trkpt lat="40.61906" lon="8.2100083"><ele>10.0</ele><time>2026-04-19T11:16:50.476Z</time></trkpt><trkpt lat="40.6189417" lon="8.2101733"><ele>10.0</ele><time>2026-04-19T11:16:51.477Z</time></trkpt><trkpt lat="40.6188183" lon="8.21034"><ele>10.0</ele><time>2026-04-19T11:16:52.476Z</time></trkpt><trkpt lat="40.6186917" lon="8.21051"><ele>10.333333333333334</ele><time>2026-04-19T11:16:53.477Z</time></trkpt><trkpt lat="40.61856" lon="8.21069"><ele>10.666666666666666</ele><time>2026-04-19T11:16:54.476Z</time></trkpt><trkpt lat="40.6184267" lon="8.2108783"><ele>11.0</ele><time>2026-04-19T11:16:55.477Z</time></trkpt><trkpt lat="40.618285" lon="8.2110717"><ele>11.0</ele><time>2026-04-19T11:16:56.476Z</time></trkpt><trkpt lat="40.6181433" lon="8.2112633"><ele>11.0</ele><time>2026-04-19T11:16:57.477Z</time></trkpt><trkpt lat="40.6180033" lon="8.2114583"><ele>11.0</ele><time>2026-04-19T11:16:58.477Z</time></trkpt><trkpt lat="40.6178633" lon="8.211645"><ele>12.0</ele><time>2026-04-19T11:16:59.476Z</time></trkpt><trkpt lat="40.6177267" lon="8.21183"><ele>13.0</ele><time>2026-04-19T11:17:00.476Z</time></trkpt><trkpt lat="40.6175967" lon="8.2120033"><ele>14.0</ele><time>2026-04-19T11:17:01.476Z</time></trkpt><trkpt lat="40.6174633" lon="8.2121767"><ele>15.666666666666668</ele><time>2026-04-19T11:17:02.476Z</time></trkpt><trkpt lat="40.617335" lon="8.21234"><ele>17.333333333333332</ele><time>2026-04-19T11:17:03.476Z</time></trkpt><trkpt lat="40.6172167" lon="8.212495"><ele>19.0</ele><time>2026-04-19T11:17:04.476Z</time></trkpt><trkpt lat="40.6171083" lon="8.2126417"><ele>19.0</ele><time>2026-04-19T11:17:05.477Z</time></trkpt><trkpt lat="40.6169967" lon="8.2127917"><ele>19.0</ele><time>2026-04-19T11:17:06.476Z</time></trkpt><trkpt lat="40.616885" lon="8.2129483"><ele>19.0</ele><time>2026-04-19T11:17:07.476Z</time></trkpt><trkpt lat="40.6167667" lon="8.2131033"><ele>19.333333333333332</ele><time>2026-04-19T11:17:08.476Z</time></trkpt><trkpt lat="40.6166567" lon="8.2132633"><ele>19.666666666666668</ele><time>2026-04-19T11:17:09.476Z</time></trkpt><trkpt lat="40.6165367" lon="8.213425"><ele>20.0</ele><time>2026-04-19T11:17:10.477Z</time></trkpt><trkpt lat="40.6164183" lon="8.2135917"><ele>20.0</ele><time>2026-04-19T11:17:11.476Z</time></trkpt><trkpt lat="40.6163017" lon="8.2137683"><ele>20.0</ele><time>2026-04-19T11:17:12.476Z</time></trkpt><trkpt lat="40.61618" lon="8.2139433"><ele>20.0</ele><time>2026-04-19T11:17:13.476Z</time></trkpt><trkpt lat="40.6160517" lon="8.2141233"><ele>20.333333333333336</ele><time>2026-04-19T11:17:14.477Z</time></trkpt><trkpt lat="40.6159183" lon="8.214315"><ele>20.666666666666668</ele><time>2026-04-19T11:17:15.476Z</time></trkpt><trkpt lat="40.615775" lon="8.214515"><ele>21.0</ele><time>2026-04-19T11:17:16.477Z</time></trkpt><trkpt lat="40.6156283" lon="8.214715"><ele>21.0</ele><time>2026-04-19T11:17:17.476Z</time></trkpt><trkpt lat="40.6154783" lon="8.2149017"><ele>21.0</ele><time>2026-04-19T11:17:18.477Z</time></trkpt><trkpt lat="40.6153367" lon="8.2150833"><ele>21.0</ele><time>2026-04-19T11:17:19.476Z</time></trkpt><trkpt lat="40.615205" lon="8.215255"><ele>20.666666666666668</ele><time>2026-04-19T11:17:20.477Z</time></trkpt><trkpt lat="40.6150767" lon="8.2154133"><ele>20.333333333333336</ele><time>2026-04-19T11:17:21.476Z</time></trkpt><trkpt lat="40.6149533" lon="8.2155567"><ele>20.0</ele><time>2026-04-19T11:17:22.477Z</time></trkpt><trkpt lat="40.6148167" lon="8.215685"><ele>20.0</ele><time>2026-04-19T11:17:23.476Z</time></trkpt><trkpt lat="40.614685" lon="8.2157833"><ele>20.0</ele><time>2026-04-19T11:17:24.476Z</time></trkpt><trkpt lat="40.6145283" lon="8.2158833"><ele>20.0</ele><time>2026-04-19T11:17:25.477Z</time></trkpt><trkpt lat="40.6143633" lon="8.2159533"><ele>19.333333333333336</ele><time>2026-04-19T11:17:26.476Z</time></trkpt><trkpt lat="40.6142033" lon="8.2160167"><ele>18.666666666666668</ele><time>2026-04-19T11:17:27.476Z</time></trkpt><trkpt lat="40.61404" lon="8.2160683"><ele>18.0</ele><time>2026-04-19T11:17:28.476Z</time></trkpt><trkpt lat="40.6138683" lon="8.2161217"><ele>18.0</ele><time>2026-04-19T11:17:29.477Z</time></trkpt><trkpt lat="40.6136967" lon="8.2161883"><ele>18.0</ele><time>2026-04-19T11:17:30.476Z</time></trkpt><trkpt lat="40.61353" lon="8.2162517"><ele>18.0</ele><time>2026-04-19T11:17:31.476Z</time></trkpt><trkpt lat="40.6133683" lon="8.2163083"><ele>17.333333333333332</ele><time>2026-04-19T11:17:32.476Z</time></trkpt><trkpt lat="40.6132" lon="8.21637"><ele>16.666666666666664</ele><time>2026-04-19T11:17:33.477Z</time></trkpt><trkpt lat="40.61304" lon="8.216435"><ele>16.0</ele><time>2026-04-19T11:17:34.476Z</time></trkpt><trkpt lat="40.6128933" lon="8.216485"><ele>16.333333333333332</ele><time>2026-04-19T11:17:35.477Z</time></trkpt><trkpt lat="40.6127467" lon="8.2165433"><ele>16.666666666666668</ele><time>2026-04-19T11:17:36.477Z</time></trkpt><trkpt lat="40.6126033" lon="8.2165967"><ele>17.0</ele><time>2026-04-19T11:17:37.477Z</time></trkpt><trkpt lat="40.61246" lon="8.2166433"><ele>17.0</ele><time>2026-04-19T11:17:38.476Z</time></trkpt><trkpt lat="40.6123183" lon="8.2167017"><ele>17.0</ele><time>2026-04-19T11:17:39.477Z</time></trkpt><trkpt lat="40.6121767" lon="8.2167583"><ele>17.0</ele><time>2026-04-19T11:17:40.477Z</time></trkpt><trkpt lat="40.6120383" lon="8.216815"><ele>17.0</ele><time>2026-04-19T11:17:41.477Z</time></trkpt><trkpt lat="40.6118983" lon="8.216865"><ele>16.75</ele><time>2026-04-19T11:17:42.477Z</time></trkpt><trkpt lat="40.6117567" lon="8.2169183"><ele>16.5</ele><time>2026-04-19T11:17:43.476Z</time></trkpt><trkpt lat="40.61161" lon="8.2169767"><ele>16.25</ele><time>2026-04-19T11:17:44.477Z</time></trkpt><trkpt lat="40.6114733" lon="8.2170333"><ele>16.0</ele><time>2026-04-19T11:17:45.477Z</time></trkpt><trkpt lat="40.6113367" lon="8.21709"><ele>16.0</ele><time>2026-04-19T11:17:46.476Z</time></trkpt><trkpt lat="40.6111933" lon="8.2171483"><ele>16.0</ele><time>2026-04-19T11:17:47.477Z</time></trkpt><trkpt lat="40.611045" lon="8.2172033"><ele>16.0</ele><time>2026-04-19T11:17:48.477Z</time></trkpt><trkpt lat="40.610895" lon="8.2172667"><ele>16.0</ele><time>2026-04-19T11:17:49.477Z</time></trkpt><trkpt lat="40.6107383" lon="8.2173267"><ele>16.0</ele><time>2026-04-19T11:17:50.477Z</time></trkpt><trkpt lat="40.6105733" lon="8.217395"><ele>16.0</ele><time>2026-04-19T11:17:51.477Z</time></trkpt><trkpt lat="40.6104033" lon="8.2174633"><ele>15.666666666666666</ele><time>2026-04-19T11:17:52.477Z</time></trkpt><trkpt lat="40.6102317" lon="8.2175317"><ele>15.333333333333332</ele><time>2026-04-19T11:17:53.476Z</time></trkpt><trkpt lat="40.6100617" lon="8.217595"><ele>15.0</ele><time>2026-04-19T11:17:54.476Z</time></trkpt><trkpt lat="40.6099" lon="8.2176517"><ele>15.0</ele><time>2026-04-19T11:17:55.477Z</time></trkpt><trkpt lat="40.6097517" lon="8.2177083"><ele>15.0</ele><time>2026-04-19T11:17:56.476Z</time></trkpt><trkpt lat="40.60961" lon="8.2177633"><ele>15.0</ele><time>2026-04-19T11:17:57.476Z</time></trkpt><trkpt lat="40.6094783" lon="8.2178083"><ele>15.0</ele><time>2026-04-19T11:17:58.477Z</time></trkpt><trkpt lat="40.6093733" lon="8.2178483"><ele>15.0</ele><time>2026-04-19T11:17:59.476Z</time></trkpt><trkpt lat="40.6092833" lon="8.217885"><ele>15.0</ele><time>2026-04-19T11:18:00.477Z</time></trkpt><trkpt lat="40.6092033" lon="8.21792"><ele>15.0</ele><time>2026-04-19T11:18:01.476Z</time></trkpt><trkpt lat="40.6091433" lon="8.2179533"><ele>15.0</ele><time>2026-04-19T11:18:02.477Z</time></trkpt><trkpt lat="40.609075" lon="8.2180517"><ele>15.0</ele><time>2026-04-19T11:18:04.477Z</time></trkpt><trkpt lat="40.6090467" lon="8.2181283"><ele>15.0</ele><time>2026-04-19T11:18:05.476Z</time></trkpt><trkpt lat="40.6090117" lon="8.218205"><ele>15.0</ele><time>2026-04-19T11:18:06.476Z</time></trkpt><trkpt lat="40.608965" lon="8.21827"><ele>15.0</ele><time>2026-04-19T11:18:07.476Z</time></trkpt><trkpt lat="40.608915" lon="8.2183367"><ele>15.0</ele><time>2026-04-19T11:18:08.476Z</time></trkpt><trkpt lat="40.608865" lon="8.2183967"><ele>15.0</ele><time>2026-04-19T11:18:09.476Z</time></trkpt><trkpt lat="40.608815" lon="8.2184517"><ele>15.0</ele><time>2026-04-19T11:18:10.477Z</time></trkpt><trkpt lat="40.608735" lon="8.2185333"><ele>15.0</ele><time>2026-04-19T11:18:12.476Z</time></trkpt><trkpt lat="40.6086567" lon="8.2186417"><ele>15.0</ele><time>2026-04-19T11:18:14.476Z</time></trkpt><trkpt lat="40.6085867" lon="8.2187367"><ele>15.0</ele><time>2026-04-19T11:18:16.477Z</time></trkpt><trkpt lat="40.6085267" lon="8.218815"><ele>15.0</ele><time>2026-04-19T11:18:18.476Z</time></trkpt><trkpt lat="40.6084833" lon="8.2188967"><ele>15.0</ele><time>2026-04-19T11:18:20.476Z</time></trkpt><trkpt lat="40.608435" lon="8.2189517"><ele>15.0</ele><time>2026-04-19T11:18:22.477Z</time></trkpt><trkpt lat="40.6083733" lon="8.21904"><ele>15.0</ele><time>2026-04-19T11:18:24.477Z</time></trkpt><trkpt lat="40.6082883" lon="8.219165"><ele>15.333333333333334</ele><time>2026-04-19T11:18:26.477Z</time></trkpt><trkpt lat="40.6082383" lon="8.2192483"><ele>15.666666666666668</ele><time>2026-04-19T11:18:27.476Z</time></trkpt><trkpt lat="40.60819" lon="8.219325"><ele>16.0</ele><time>2026-04-19T11:18:28.477Z</time></trkpt><trkpt lat="40.608135" lon="8.2194"><ele>16.333333333333336</ele><time>2026-04-19T11:18:29.477Z</time></trkpt><trkpt lat="40.6080767" lon="8.219475"><ele>16.666666666666668</ele><time>2026-04-19T11:18:30.476Z</time></trkpt><trkpt lat="40.6080183" lon="8.2195367"><ele>17.0</ele><time>2026-04-19T11:18:31.477Z</time></trkpt><trkpt lat="40.6079483" lon="8.21963"><ele>17.0</ele><time>2026-04-19T11:18:33.476Z</time></trkpt><trkpt lat="40.60791" lon="8.2197267"><ele>17.0</ele><time>2026-04-19T11:18:35.476Z</time></trkpt><trkpt lat="40.6079083" lon="8.2198433"><ele>17.0</ele><time>2026-04-19T11:18:37.476Z</time></trkpt><trkpt lat="40.6079267" lon="8.2200133"><ele>17.0</ele><time>2026-04-19T11:18:39.476Z</time></trkpt><trkpt lat="40.607935" lon="8.2200983"><ele>17.0</ele><time>2026-04-19T11:18:40.476Z</time></trkpt><trkpt lat="40.6079433" lon="8.220245"><ele>17.333333333333336</ele><time>2026-04-19T11:18:42.476Z</time></trkpt><trkpt lat="40.6079533" lon="8.2204067"><ele>17.666666666666668</ele><time>2026-04-19T11:18:44.477Z</time></trkpt><trkpt lat="40.6079617" lon="8.2205017"><ele>18.0</ele><time>2026-04-19T11:18:45.476Z</time></trkpt><trkpt lat="40.6079717" lon="8.2206"><ele>18.333333333333332</ele><time>2026-04-19T11:18:46.477Z</time></trkpt><trkpt lat="40.6079833" lon="8.220705"><ele>18.666666666666664</ele><time>2026-04-19T11:18:47.476Z</time></trkpt><trkpt lat="40.6079883" lon="8.2208017"><ele>19.0</ele><time>2026-04-19T11:18:48.477Z</time></trkpt><trkpt lat="40.6079967" lon="8.2208917"><ele>19.5</ele><time>2026-04-19T11:18:49.476Z</time></trkpt><trkpt lat="40.60801" lon="8.2209883"><ele>20.0</ele><time>2026-04-19T11:18:50.476Z</time></trkpt><trkpt lat="40.608025" lon="8.2210883"><ele>20.5</ele><time>2026-04-19T11:18:51.476Z</time></trkpt><trkpt lat="40.6080283" lon="8.2211833"><ele>21.0</ele><time>2026-04-19T11:18:52.477Z</time></trkpt><trkpt lat="40.60804" lon="8.2212817"><ele>21.5</ele><time>2026-04-19T11:18:53.477Z</time></trkpt><trkpt lat="40.6080517" lon="8.221395"><ele>22.0</ele><time>2026-04-19T11:18:54.477Z</time></trkpt><trkpt lat="40.6080667" lon="8.2214983"><ele>22.166666666666664</ele><time>2026-04-19T11:18:55.476Z</time></trkpt><trkpt lat="40.60808" lon="8.221595"><ele>22.333333333333332</ele><time>2026-04-19T11:18:56.477Z</time></trkpt><trkpt lat="40.6080867" lon="8.2216783"><ele>22.5</ele><time>2026-04-19T11:18:57.476Z</time></trkpt><trkpt lat="40.6080933" lon="8.2218317"><ele>22.666666666666668</ele><time>2026-04-19T11:18:59.477Z</time></trkpt><trkpt lat="40.6081033" lon="8.2219183"><ele>22.833333333333336</ele><time>2026-04-19T11:19:00.476Z</time></trkpt><trkpt lat="40.608115" lon="8.2220033"><ele>23.0</ele><time>2026-04-19T11:19:01.476Z</time></trkpt><trkpt lat="40.6081383" lon="8.2221667"><ele>23.0</ele><time>2026-04-19T11:19:03.476Z</time></trkpt><trkpt lat="40.6081517" lon="8.2222483"><ele>23.0</ele><time>2026-04-19T11:19:04.476Z</time></trkpt><trkpt lat="40.6081683" lon="8.222395"><ele>23.0</ele><time>2026-04-19T11:19:06.477Z</time></trkpt><trkpt lat="40.6081817" lon="8.22252"><ele>23.0</ele><time>2026-04-19T11:19:08.477Z</time></trkpt><trkpt lat="40.6081967" lon="8.2226417"><ele>23.0</ele><time>2026-04-19T11:19:10.476Z</time></trkpt><trkpt lat="40.6082167" lon="8.2228"><ele>23.571428571428573</ele><time>2026-04-19T11:19:12.476Z</time></trkpt><trkpt lat="40.608225" lon="8.2228933"><ele>24.142857142857142</ele><time>2026-04-19T11:19:13.476Z</time></trkpt><trkpt lat="40.6082367" lon="8.2229833"><ele>24.714285714285715</ele><time>2026-04-19T11:19:14.476Z</time></trkpt><trkpt lat="40.6082517" lon="8.2230767"><ele>25.285714285714285</ele><time>2026-04-19T11:19:15.476Z</time></trkpt><trkpt lat="40.608265" lon="8.223175"><ele>25.857142857142854</ele><time>2026-04-19T11:19:16.476Z</time></trkpt><trkpt lat="40.6082683" lon="8.2232833"><ele>26.428571428571427</ele><time>2026-04-19T11:19:17.477Z</time></trkpt><trkpt lat="40.608275" lon="8.223385"><ele>27.0</ele><time>2026-04-19T11:19:18.476Z</time></trkpt><trkpt lat="40.60828" lon="8.223475"><ele>27.8</ele><time>2026-04-19T11:19:19.476Z</time></trkpt><trkpt lat="40.608295" lon="8.2236233"><ele>28.6</ele><time>2026-04-19T11:19:21.477Z</time></trkpt><trkpt lat="40.608335" lon="8.2237417"><ele>29.400000000000002</ele><time>2026-04-19T11:19:23.477Z</time></trkpt><trkpt lat="40.60837" lon="8.223875"><ele>30.200000000000003</ele><time>2026-04-19T11:19:25.476Z</time></trkpt><trkpt lat="40.6083817" lon="8.22403"><ele>31.0</ele><time>2026-04-19T11:19:27.476Z</time></trkpt><trkpt lat="40.6083867" lon="8.2241267"><ele>31.833333333333336</ele><time>2026-04-19T11:19:28.476Z</time></trkpt><trkpt lat="40.6083883" lon="8.224235"><ele>32.66666666666667</ele><time>2026-04-19T11:19:29.476Z</time></trkpt><trkpt lat="40.6083883" lon="8.2243517"><ele>33.5</ele><time>2026-04-19T11:19:30.476Z</time></trkpt><trkpt lat="40.6083883" lon="8.2244633"><ele>34.333333333333336</ele><time>2026-04-19T11:19:31.477Z</time></trkpt><trkpt lat="40.6083933" lon="8.224585"><ele>35.166666666666664</ele><time>2026-04-19T11:19:32.476Z</time></trkpt><trkpt lat="40.608405" lon="8.224705"><ele>36.0</ele><time>2026-04-19T11:19:33.476Z</time></trkpt><trkpt lat="40.60842" lon="8.2248217"><ele>37.0</ele><time>2026-04-19T11:19:34.476Z</time></trkpt><trkpt lat="40.6084333" lon="8.2249467"><ele>38.0</ele><time>2026-04-19T11:19:35.476Z</time></trkpt><trkpt lat="40.6084367" lon="8.22507"><ele>39.0</ele><time>2026-04-19T11:19:36.476Z</time></trkpt><trkpt lat="40.6084317" lon="8.2251933"><ele>40.0</ele><time>2026-04-19T11:19:37.476Z</time></trkpt><trkpt lat="40.60843" lon="8.2253133"><ele>41.0</ele><time>2026-04-19T11:19:38.476Z</time></trkpt><trkpt lat="40.608435" lon="8.22544"><ele>41.0</ele><time>2026-04-19T11:19:39.477Z</time></trkpt><trkpt lat="40.60844" lon="8.2255783"><ele>41.0</ele><time>2026-04-19T11:19:40.477Z</time></trkpt><trkpt lat="40.6084433" lon="8.225705"><ele>41.0</ele><time>2026-04-19T11:19:41.477Z</time></trkpt><trkpt lat="40.6084533" lon="8.22583"><ele>41.0</ele><time>2026-04-19T11:19:42.476Z</time></trkpt><trkpt lat="40.6084717" lon="8.2259517"><ele>41.0</ele><time>2026-04-19T11:19:43.476Z</time></trkpt><trkpt lat="40.608485" lon="8.226075"><ele>42.166666666666664</ele><time>2026-04-19T11:19:44.477Z</time></trkpt><trkpt lat="40.608485" lon="8.2261867"><ele>43.33333333333333</ele><time>2026-04-19T11:19:45.476Z</time></trkpt><trkpt lat="40.6084783" lon="8.226275"><ele>44.5</ele><time>2026-04-19T11:19:46.476Z</time></trkpt><trkpt lat="40.6084683" lon="8.2264283"><ele>45.666666666666664</ele><time>2026-04-19T11:19:48.477Z</time></trkpt><trkpt lat="40.6085217" lon="8.2265217"><ele>46.833333333333336</ele><time>2026-04-19T11:19:50.477Z</time></trkpt><trkpt lat="40.6085" lon="8.2266183"><ele>48.0</ele><time>2026-04-19T11:19:55.475Z</time></trkpt><trkpt lat="40.60847" lon="8.2267233"><ele>49.599999999999994</ele><time>2026-04-19T11:19:57.475Z</time></trkpt><trkpt lat="40.60847" lon="8.2268533"><ele>51.199999999999996</ele><time>2026-04-19T11:19:59.476Z</time></trkpt><trkpt lat="40.6084733" lon="8.22701"><ele>52.8</ele><time>2026-04-19T11:20:01.475Z</time></trkpt><trkpt lat="40.6084517" lon="8.2271733"><ele>54.4</ele><time>2026-04-19T11:20:03.476Z</time></trkpt><trkpt lat="40.6084267" lon="8.22726"><ele>56.0</ele><time>2026-04-19T11:20:04.476Z</time></trkpt><trkpt lat="40.608405" lon="8.227345"><ele>57.4</ele><time>2026-04-19T11:20:05.475Z</time></trkpt><trkpt lat="40.6083817" lon="8.22743"><ele>58.8</ele><time>2026-04-19T11:20:06.475Z</time></trkpt><trkpt lat="40.60834" lon="8.22756"><ele>60.199999999999996</ele><time>2026-04-19T11:20:08.476Z</time></trkpt><trkpt lat="40.60831" lon="8.2276567"><ele>61.599999999999994</ele><time>2026-04-19T11:20:10.476Z</time></trkpt><trkpt lat="40.6082767" lon="8.22779"><ele>63.0</ele><time>2026-04-19T11:20:12.475Z</time></trkpt><trkpt lat="40.6082683" lon="8.2279167"><ele>63.0</ele><time>2026-04-19T11:20:14.475Z</time></trkpt><trkpt lat="40.6082717" lon="8.22803"><ele>63.0</ele><time>2026-04-19T11:20:16.475Z</time></trkpt><trkpt lat="40.6082733" lon="8.2281567"><ele>63.0</ele><time>2026-04-19T11:20:18.476Z</time></trkpt><trkpt lat="40.6082633" lon="8.22828"><ele>63.0</ele><time>2026-04-19T11:20:20.475Z</time></trkpt><trkpt lat="40.608265" lon="8.228415"><ele>63.0</ele><time>2026-04-19T11:20:22.476Z</time></trkpt><trkpt lat="40.6082533" lon="8.2285667"><ele>64.4</ele><time>2026-04-19T11:20:24.476Z</time></trkpt><trkpt lat="40.6082417" lon="8.2286733"><ele>65.8</ele><time>2026-04-19T11:20:26.475Z</time></trkpt><trkpt lat="40.6082167" lon="8.2287683"><ele>67.2</ele><time>2026-04-19T11:20:28.475Z</time></trkpt><trkpt lat="40.60821" lon="8.2288917"><ele>68.6</ele><time>2026-04-19T11:20:30.475Z</time></trkpt><trkpt lat="40.6082033" lon="8.2290283"><ele>70.0</ele><time>2026-04-19T11:20:32.476Z</time></trkpt><trkpt lat="40.608205" lon="8.22918"><ele>71.8</ele><time>2026-04-19T11:20:34.475Z</time></trkpt><trkpt lat="40.6081917" lon="8.2293017"><ele>73.6</ele><time>2026-04-19T11:20:36.475Z</time></trkpt><trkpt lat="40.6081717" lon="8.22941"><ele>75.4</ele><time>2026-04-19T11:20:38.475Z</time></trkpt><trkpt lat="40.6081733" lon="8.229545"><ele>77.2</ele><time>2026-04-19T11:20:40.476Z</time></trkpt><trkpt lat="40.60818" lon="8.2296667"><ele>79.0</ele><time>2026-04-19T11:20:42.476Z</time></trkpt><trkpt lat="40.6081817" lon="8.229775"><ele>80.5</ele><time>2026-04-19T11:20:44.476Z</time></trkpt><trkpt lat="40.6081867" lon="8.2298617"><ele>82.0</ele><time>2026-04-19T11:20:46.475Z</time></trkpt><trkpt lat="40.6082017" lon="8.2299583"><ele>83.5</ele><time>2026-04-19T11:20:48.475Z</time></trkpt><trkpt lat="40.6082167" lon="8.2300783"><ele>85.0</ele><time>2026-04-19T11:20:50.475Z</time></trkpt><trkpt lat="40.60823" lon="8.23022"><ele>86.5</ele><time>2026-04-19T11:20:52.475Z</time></trkpt><trkpt lat="40.60824" lon="8.2303517"><ele>88.0</ele><time>2026-04-19T11:20:54.475Z</time></trkpt><trkpt lat="40.6082433" lon="8.23048"><ele>88.0</ele><time>2026-04-19T11:20:56.476Z</time></trkpt><trkpt lat="40.60823" lon="8.23059"><ele>88.0</ele><time>2026-04-19T11:20:58.475Z</time></trkpt><trkpt lat="40.6082217" lon="8.2306767"><ele>88.0</ele><time>2026-04-19T11:21:01.475Z</time></trkpt><trkpt lat="40.6082417" lon="8.23079"><ele>88.0</ele><time>2026-04-19T11:21:04.476Z</time></trkpt><trkpt lat="40.6082733" lon="8.2309033"><ele>88.0</ele><time>2026-04-19T11:21:06.476Z</time></trkpt><trkpt lat="40.608325" lon="8.2310133"><ele>88.0</ele><time>2026-04-19T11:21:08.476Z</time></trkpt><trkpt lat="40.6083833" lon="8.2310567"><ele>90.4</ele><time>2026-04-19T11:21:10.476Z</time></trkpt><trkpt lat="40.6084633" lon="8.2310933"><ele>92.80000000000001</ele><time>2026-04-19T11:21:14.475Z</time></trkpt><trkpt lat="40.6085433" lon="8.2311217"><ele>95.2</ele><time>2026-04-19T11:21:16.475Z</time></trkpt><trkpt lat="40.608645" lon="8.2311483"><ele>97.6</ele><time>2026-04-19T11:21:18.475Z</time></trkpt><trkpt lat="40.6087517" lon="8.2312"><ele>100.0</ele><time>2026-04-19T11:21:20.475Z</time></trkpt><trkpt lat="40.6088067" lon="8.2312683"><ele>100.00000000000001</ele><time>2026-04-19T11:21:23.475Z</time></trkpt><trkpt lat="40.6087417" lon="8.231285"><ele>100.0</ele><time>2026-04-19T11:21:26.475Z</time></trkpt><trkpt lat="40.60865" lon="8.2312517"><ele>100.0</ele><time>2026-04-19T11:21:28.476Z</time></trkpt><trkpt lat="40.6085517" lon="8.2312133"><ele>100.0</ele><time>2026-04-19T11:21:30.476Z</time></trkpt><trkpt lat="40.6084867" lon="8.2311967"><ele>100.00000000000001</ele><time>2026-04-19T11:21:32.475Z</time></trkpt><trkpt lat="40.6084217" lon="8.23119"><ele>100.0</ele><time>2026-04-19T11:21:35.476Z</time></trkpt><trkpt lat="40.6085383" lon="8.2311867"><ele>100.00000000000001</ele><time>2026-04-19T11:22:03.475Z</time></trkpt><trkpt lat="40.6086083" lon="8.2312283"><ele>100.0</ele><time>2026-04-19T11:22:15.476Z</time></trkpt><trkpt lat="40.608675" lon="8.2312467"><ele>100.0</ele><time>2026-04-19T11:22:16.475Z</time></trkpt><trkpt lat="40.6088017" lon="8.2312533"><ele>100.0</ele><time>2026-04-19T11:22:18.476Z</time></trkpt><trkpt lat="40.6088917" lon="8.2312483"><ele>100.00000000000001</ele><time>2026-04-19T11:22:20.475Z</time></trkpt><trkpt lat="40.608935" lon="8.2313317"><ele>100.0</ele><time>2026-04-19T11:22:24.475Z</time></trkpt><trkpt lat="40.608905" lon="8.2314217"><ele>102.66666666666667</ele><time>2026-04-19T11:22:26.476Z</time></trkpt><trkpt lat="40.6088383" lon="8.2315033"><ele>105.33333333333334</ele><time>2026-04-19T11:22:28.475Z</time></trkpt><trkpt lat="40.6087633" lon="8.2315633"><ele>108.0</ele><time>2026-04-19T11:22:30.476Z</time></trkpt><trkpt lat="40.6086867" lon="8.231625"><ele>110.66666666666666</ele><time>2026-04-19T11:22:33.475Z</time></trkpt><trkpt lat="40.608595" lon="8.231665"><ele>113.33333333333333</ele><time>2026-04-19T11:22:35.476Z</time></trkpt><trkpt lat="40.6085333" lon="8.2317033"><ele>116.0</ele><time>2026-04-19T11:22:36.476Z</time></trkpt><trkpt lat="40.6084667" lon="8.2317567"><ele>115.99999999999999</ele><time>2026-04-19T11:22:37.475Z</time></trkpt><trkpt lat="40.6084033" lon="8.2318133"><ele>116.0</ele><time>2026-04-19T11:22:38.475Z</time></trkpt><trkpt lat="40.60833" lon="8.23187"><ele>116.0</ele><time>2026-04-19T11:22:39.476Z</time></trkpt><trkpt lat="40.60826" lon="8.2319183"><ele>116.0</ele><time>2026-04-19T11:22:40.475Z</time></trkpt><trkpt lat="40.6082" lon="8.2319767"><ele>115.99999999999999</ele><time>2026-04-19T11:22:41.475Z</time></trkpt><trkpt lat="40.6081467" lon="8.2320333"><ele>116.0</ele><time>2026-04-19T11:22:42.476Z</time></trkpt><trkpt lat="40.6080917" lon="8.2320983"><ele>115.99999999999999</ele><time>2026-04-19T11:22:43.475Z</time></trkpt><trkpt lat="40.6080433" lon="8.2321533"><ele>116.0</ele><time>2026-04-19T11:22:44.475Z</time></trkpt><trkpt lat="40.6079933" lon="8.2322233"><ele>116.0</ele><time>2026-04-19T11:22:45.476Z</time></trkpt><trkpt lat="40.6079167" lon="8.2323183"><ele>116.0</ele><time>2026-04-19T11:22:47.475Z</time></trkpt><trkpt lat="40.6078517" lon="8.2323683"><ele>115.99999999999999</ele><time>2026-04-19T11:22:51.475Z</time></trkpt><trkpt lat="40.607765" lon="8.2323883"><ele>116.0</ele><time>2026-04-19T11:22:53.475Z</time></trkpt><trkpt lat="40.6076383" lon="8.2323767"><ele>118.19999999999999</ele><time>2026-04-19T11:22:55.476Z</time></trkpt><trkpt lat="40.60757" lon="8.23237"><ele>120.39999999999999</ele><time>2026-04-19T11:22:56.476Z</time></trkpt><trkpt lat="40.6075067" lon="8.232365"><ele>122.6</ele><time>2026-04-19T11:22:57.476Z</time></trkpt><trkpt lat="40.607385" lon="8.23235"><ele>124.8</ele><time>2026-04-19T11:22:59.475Z</time></trkpt><trkpt lat="40.6072883" lon="8.2323483"><ele>127.0</ele><time>2026-04-19T11:23:01.475Z</time></trkpt><trkpt lat="40.6071833" lon="8.2323333"><ele>123.39999999999999</ele><time>2026-04-19T11:23:03.475Z</time></trkpt><trkpt lat="40.60708" lon="8.2322833"><ele>119.79999999999998</ele><time>2026-04-19T11:23:05.475Z</time></trkpt><trkpt lat="40.6069633" lon="8.2322267"><ele>116.2</ele><time>2026-04-19T11:23:07.476Z</time></trkpt><trkpt lat="40.60685" lon="8.2321767"><ele>112.6</ele><time>2026-04-19T11:23:09.476Z</time></trkpt><trkpt lat="40.606785" lon="8.2321533"><ele>109.0</ele><time>2026-04-19T11:23:10.475Z</time></trkpt><trkpt lat="40.6067117" lon="8.2321417"><ele>107.50000000000001</ele><time>2026-04-19T11:23:11.475Z</time></trkpt><trkpt lat="40.6066467" lon="8.232125"><ele>106.0</ele><time>2026-04-19T11:23:12.475Z</time></trkpt><trkpt lat="40.60658" lon="8.2321133"><ele>104.5</ele><time>2026-04-19T11:23:13.476Z</time></trkpt><trkpt lat="40.6065067" lon="8.2321233"><ele>103.0</ele><time>2026-04-19T11:23:14.475Z</time></trkpt><trkpt lat="40.6063817" lon="8.2321233"><ele>101.50000000000001</ele><time>2026-04-19T11:23:16.476Z</time></trkpt><trkpt lat="40.6062767" lon="8.23211"><ele>100.0</ele><time>2026-04-19T11:23:18.475Z</time></trkpt><trkpt lat="40.6061867" lon="8.23206"><ele>98.4</ele><time>2026-04-19T11:23:20.475Z</time></trkpt><trkpt lat="40.6060883" lon="8.2320117"><ele>96.8</ele><time>2026-04-19T11:23:22.476Z</time></trkpt><trkpt lat="40.6059767" lon="8.2319567"><ele>95.19999999999999</ele><time>2026-04-19T11:23:24.476Z</time></trkpt><trkpt lat="40.6058583" lon="8.2319583"><ele>93.6</ele><time>2026-04-19T11:23:26.475Z</time></trkpt><trkpt lat="40.60579" lon="8.2319633"><ele>92.0</ele><time>2026-04-19T11:23:27.476Z</time></trkpt><trkpt lat="40.6057183" lon="8.2319667"><ele>92.0</ele><time>2026-04-19T11:23:28.475Z</time></trkpt><trkpt lat="40.6056417" lon="8.2319633"><ele>92.0</ele><time>2026-04-19T11:23:29.475Z</time></trkpt><trkpt lat="40.6055667" lon="8.2319583"><ele>92.0</ele><time>2026-04-19T11:23:30.475Z</time></trkpt><trkpt lat="40.6055033" lon="8.23197"><ele>92.0</ele><time>2026-04-19T11:23:31.475Z</time></trkpt><trkpt lat="40.60538" lon="8.23202"><ele>92.0</ele><time>2026-04-19T11:23:33.476Z</time></trkpt><trkpt lat="40.6053033" lon="8.2320517"><ele>92.0</ele><time>2026-04-19T11:23:34.476Z</time></trkpt><trkpt lat="40.605205" lon="8.23209"><ele>90.16666666666667</ele><time>2026-04-19T11:23:35.475Z</time></trkpt><trkpt lat="40.6051183" lon="8.2321283"><ele>88.33333333333334</ele><time>2026-04-19T11:23:36.475Z</time></trkpt><trkpt lat="40.6050333" lon="8.2321783"><ele>86.5</ele><time>2026-04-19T11:23:37.476Z</time></trkpt><trkpt lat="40.604955" lon="8.23222"><ele>84.66666666666667</ele><time>2026-04-19T11:23:38.475Z</time></trkpt><trkpt lat="40.6048783" lon="8.2322533"><ele>82.83333333333333</ele><time>2026-04-19T11:23:39.475Z</time></trkpt><trkpt lat="40.6048" lon="8.23229"><ele>81.0</ele><time>2026-04-19T11:23:40.475Z</time></trkpt><trkpt lat="40.6047217" lon="8.232325"><ele>82.6</ele><time>2026-04-19T11:23:41.475Z</time></trkpt><trkpt lat="40.604635" lon="8.2323717"><ele>84.19999999999999</ele><time>2026-04-19T11:23:42.475Z</time></trkpt><trkpt lat="40.6045433" lon="8.232415"><ele>85.80000000000001</ele><time>2026-04-19T11:23:43.475Z</time></trkpt><trkpt lat="40.6044533" lon="8.2324683"><ele>87.4</ele><time>2026-04-19T11:23:44.475Z</time></trkpt><trkpt lat="40.60437" lon="8.2325133"><ele>89.0</ele><time>2026-04-19T11:23:45.475Z</time></trkpt><trkpt lat="40.6042883" lon="8.232555"><ele>89.0</ele><time>2026-04-19T11:23:46.475Z</time></trkpt><trkpt lat="40.6042183" lon="8.23259"><ele>89.0</ele><time>2026-04-19T11:23:47.475Z</time></trkpt><trkpt lat="40.6041583" lon="8.2326233"><ele>89.0</ele><time>2026-04-19T11:23:48.475Z</time></trkpt><trkpt lat="40.6040517" lon="8.2326967"><ele>89.0</ele><time>2026-04-19T11:23:50.476Z</time></trkpt><trkpt lat="40.6039983" lon="8.2327417"><ele>89.0</ele><time>2026-04-19T11:23:51.476Z</time></trkpt><trkpt lat="40.6039383" lon="8.2327883"><ele>89.0</ele><time>2026-04-19T11:23:52.476Z</time></trkpt><trkpt lat="40.603875" lon="8.2328333"><ele>89.0</ele><time>2026-04-19T11:23:53.476Z</time></trkpt><trkpt lat="40.6037767" lon="8.23292"><ele>89.0</ele><time>2026-04-19T11:23:55.475Z</time></trkpt><trkpt lat="40.6037283" lon="8.232975"><ele>89.0</ele><time>2026-04-19T11:23:56.476Z</time></trkpt><trkpt lat="40.6036767" lon="8.2330383"><ele>89.0</ele><time>2026-04-19T11:23:57.475Z</time></trkpt><trkpt lat="40.6036317" lon="8.2331183"><ele>89.0</ele><time>2026-04-19T11:23:58.476Z</time></trkpt><trkpt lat="40.6035867" lon="8.2331883"><ele>89.0</ele><time>2026-04-19T11:23:59.476Z</time></trkpt><trkpt lat="40.60351" lon="8.23331"><ele>88.5</ele><time>2026-04-19T11:24:01.476Z</time></trkpt><trkpt lat="40.6034433" lon="8.2334233"><ele>88.0</ele><time>2026-04-19T11:24:03.475Z</time></trkpt><trkpt lat="40.6034367" lon="8.2335633"><ele>87.5</ele><time>2026-04-19T11:24:05.476Z</time></trkpt><trkpt lat="40.6034517" lon="8.2336517"><ele>87.0</ele><time>2026-04-19T11:24:06.475Z</time></trkpt><trkpt lat="40.6034583" lon="8.2337533"><ele>86.5</ele><time>2026-04-19T11:24:07.475Z</time></trkpt><trkpt lat="40.6034617" lon="8.2338417"><ele>86.0</ele><time>2026-04-19T11:24:08.475Z</time></trkpt><trkpt lat="40.6034567" lon="8.233925"><ele>88.83333333333334</ele><time>2026-04-19T11:24:09.475Z</time></trkpt><trkpt lat="40.6034333" lon="8.2340567"><ele>91.66666666666667</ele><time>2026-04-19T11:24:11.475Z</time></trkpt><trkpt lat="40.603395" lon="8.2341383"><ele>94.5</ele><time>2026-04-19T11:24:13.476Z</time></trkpt><trkpt lat="40.6033067" lon="8.23417"><ele>97.33333333333334</ele><time>2026-04-19T11:24:15.475Z</time></trkpt><trkpt lat="40.6032117" lon="8.2341317"><ele>100.16666666666667</ele><time>2026-04-19T11:24:17.476Z</time></trkpt><trkpt lat="40.60315" lon="8.2340917"><ele>103.0</ele><time>2026-04-19T11:24:18.475Z</time></trkpt><trkpt lat="40.6030633" lon="8.2340433"><ele>103.00000000000001</ele><time>2026-04-19T11:24:19.475Z</time></trkpt><trkpt lat="40.6029833" lon="8.2339867"><ele>103.0</ele><time>2026-04-19T11:24:20.475Z</time></trkpt><trkpt lat="40.6029017" lon="8.2339183"><ele>103.0</ele><time>2026-04-19T11:24:21.476Z</time></trkpt><trkpt lat="40.6028183" lon="8.233855"><ele>103.0</ele><time>2026-04-19T11:24:22.475Z</time></trkpt><trkpt lat="40.6027467" lon="8.2338067"><ele>103.00000000000001</ele><time>2026-04-19T11:24:23.476Z</time></trkpt><trkpt lat="40.60267" lon="8.2337883"><ele>103.0</ele><time>2026-04-19T11:24:24.476Z</time></trkpt><trkpt lat="40.6025867" lon="8.2337667"><ele>98.66666666666667</ele><time>2026-04-19T11:24:25.476Z</time></trkpt><trkpt lat="40.6025033" lon="8.23375"><ele>94.33333333333334</ele><time>2026-04-19T11:24:26.475Z</time></trkpt><trkpt lat="40.602415" lon="8.2337317"><ele>90.0</ele><time>2026-04-19T11:24:27.476Z</time></trkpt><trkpt lat="40.6023317" lon="8.23372"><ele>85.66666666666667</ele><time>2026-04-19T11:24:28.475Z</time></trkpt><trkpt lat="40.6022433" lon="8.2337167"><ele>81.33333333333334</ele><time>2026-04-19T11:24:29.476Z</time></trkpt><trkpt lat="40.60216" lon="8.2337117"><ele>77.0</ele><time>2026-04-19T11:24:30.476Z</time></trkpt><trkpt lat="40.6020733" lon="8.2337083"><ele>76.2</ele><time>2026-04-19T11:24:31.475Z</time></trkpt><trkpt lat="40.6019817" lon="8.233715"><ele>75.4</ele><time>2026-04-19T11:24:32.475Z</time></trkpt><trkpt lat="40.601895" lon="8.2337267"><ele>74.6</ele><time>2026-04-19T11:24:33.476Z</time></trkpt><trkpt lat="40.6018017" lon="8.2337383"><ele>73.8</ele><time>2026-04-19T11:24:34.475Z</time></trkpt><trkpt lat="40.6017083" lon="8.2337517"><ele>73.0</ele><time>2026-04-19T11:24:35.475Z</time></trkpt><trkpt lat="40.6016117" lon="8.23378"><ele>73.0</ele><time>2026-04-19T11:24:36.475Z</time></trkpt><trkpt lat="40.6015217" lon="8.2338017"><ele>73.0</ele><time>2026-04-19T11:24:37.475Z</time></trkpt><trkpt lat="40.6014333" lon="8.2338267"><ele>73.0</ele><time>2026-04-19T11:24:38.475Z</time></trkpt><trkpt lat="40.6013517" lon="8.2338433"><ele>73.0</ele><time>2026-04-19T11:24:39.476Z</time></trkpt><trkpt lat="40.6012733" lon="8.233865"><ele>73.0</ele><time>2026-04-19T11:24:40.476Z</time></trkpt><trkpt lat="40.6011967" lon="8.2338933"><ele>73.0</ele><time>2026-04-19T11:24:41.475Z</time></trkpt><trkpt lat="40.601105" lon="8.2339317"><ele>70.8</ele><time>2026-04-19T11:24:42.476Z</time></trkpt><trkpt lat="40.6010133" lon="8.2339683"><ele>68.6</ele><time>2026-04-19T11:24:43.475Z</time></trkpt><trkpt lat="40.6009267" lon="8.2340017"><ele>66.4</ele><time>2026-04-19T11:24:44.476Z</time></trkpt><trkpt lat="40.60084" lon="8.2340433"><ele>64.2</ele><time>2026-04-19T11:24:45.476Z</time></trkpt><trkpt lat="40.6007517" lon="8.2340883"><ele>62.0</ele><time>2026-04-19T11:24:46.476Z</time></trkpt><trkpt lat="40.6006683" lon="8.2341283"><ele>63.2</ele><time>2026-04-19T11:24:47.475Z</time></trkpt><trkpt lat="40.600585" lon="8.2341783"><ele>64.4</ele><time>2026-04-19T11:24:48.475Z</time></trkpt><trkpt lat="40.6004917" lon="8.2342317"><ele>65.6</ele><time>2026-04-19T11:24:49.475Z</time></trkpt><trkpt lat="40.600405" lon="8.2342883"><ele>66.8</ele><time>2026-04-19T11:24:50.476Z</time></trkpt><trkpt lat="40.6003217" lon="8.2343433"><ele>68.0</ele><time>2026-04-19T11:24:51.476Z</time></trkpt><trkpt lat="40.6002433" lon="8.2344017"><ele>68.0</ele><time>2026-04-19T11:24:52.476Z</time></trkpt><trkpt lat="40.6001583" lon="8.2344617"><ele>68.0</ele><time>2026-04-19T11:24:53.476Z</time></trkpt><trkpt lat="40.60007" lon="8.2345333"><ele>68.0</ele><time>2026-04-19T11:24:54.475Z</time></trkpt><trkpt lat="40.59999" lon="8.2345967"><ele>68.0</ele><time>2026-04-19T11:24:55.476Z</time></trkpt><trkpt lat="40.5999117" lon="8.23467"><ele>68.0</ele><time>2026-04-19T11:24:56.476Z</time></trkpt><trkpt lat="40.5998283" lon="8.2347483"><ele>67.8</ele><time>2026-04-19T11:24:57.476Z</time></trkpt><trkpt lat="40.59974" lon="8.23483"><ele>67.6</ele><time>2026-04-19T11:24:58.476Z</time></trkpt><trkpt lat="40.5996733" lon="8.2349033"><ele>67.4</ele><time>2026-04-19T11:24:59.475Z</time></trkpt><trkpt lat="40.5996033" lon="8.234985"><ele>67.2</ele><time>2026-04-19T11:25:00.476Z</time></trkpt><trkpt lat="40.59953" lon="8.23507"><ele>67.0</ele><time>2026-04-19T11:25:01.476Z</time></trkpt><trkpt lat="40.5994617" lon="8.23516"><ele>67.0</ele><time>2026-04-19T11:25:02.476Z</time></trkpt><trkpt lat="40.5993933" lon="8.2352567"><ele>67.0</ele><time>2026-04-19T11:25:03.475Z</time></trkpt><trkpt lat="40.599325" lon="8.2353517"><ele>67.0</ele><time>2026-04-19T11:25:04.476Z</time></trkpt><trkpt lat="40.599265" lon="8.2354383"><ele>67.0</ele><time>2026-04-19T11:25:05.476Z</time></trkpt><trkpt lat="40.5992033" lon="8.2355217"><ele>67.0</ele><time>2026-04-19T11:25:06.476Z</time></trkpt><trkpt lat="40.5991367" lon="8.2356117"><ele>70.0</ele><time>2026-04-19T11:25:07.476Z</time></trkpt><trkpt lat="40.5990717" lon="8.2357083"><ele>73.0</ele><time>2026-04-19T11:25:08.476Z</time></trkpt><trkpt lat="40.5990183" lon="8.2358033"><ele>76.0</ele><time>2026-04-19T11:25:09.475Z</time></trkpt><trkpt lat="40.5989667" lon="8.235895"><ele>79.0</ele><time>2026-04-19T11:25:10.476Z</time></trkpt><trkpt lat="40.598915" lon="8.2359883"><ele>82.0</ele><time>2026-04-19T11:25:11.475Z</time></trkpt><trkpt lat="40.5988567" lon="8.236095"><ele>82.0</ele><time>2026-04-19T11:25:12.476Z</time></trkpt><trkpt lat="40.5987967" lon="8.236215"><ele>82.0</ele><time>2026-04-19T11:25:13.475Z</time></trkpt><trkpt lat="40.5987383" lon="8.236335"><ele>82.0</ele><time>2026-04-19T11:25:14.475Z</time></trkpt><trkpt lat="40.5986817" lon="8.2364583"><ele>82.0</ele><time>2026-04-19T11:25:15.475Z</time></trkpt><trkpt lat="40.59863" lon="8.2365883"><ele>82.0</ele><time>2026-04-19T11:25:16.475Z</time></trkpt><trkpt lat="40.5985783" lon="8.23673"><ele>81.25</ele><time>2026-04-19T11:25:17.475Z</time></trkpt><trkpt lat="40.5985167" lon="8.23688"><ele>80.5</ele><time>2026-04-19T11:25:18.476Z</time></trkpt><trkpt lat="40.5984667" lon="8.237035"><ele>79.75</ele><time>2026-04-19T11:25:19.476Z</time></trkpt><trkpt lat="40.5984233" lon="8.2371767"><ele>79.0</ele><time>2026-04-19T11:25:20.475Z</time></trkpt><trkpt lat="40.5983833" lon="8.2373183"><ele>79.0</ele><time>2026-04-19T11:25:21.476Z</time></trkpt><trkpt lat="40.5983433" lon="8.23745"><ele>79.0</ele><time>2026-04-19T11:25:22.475Z</time></trkpt><trkpt lat="40.5983067" lon="8.237575"><ele>79.0</ele><time>2026-04-19T11:25:23.475Z</time></trkpt><trkpt lat="40.5982717" lon="8.2376783"><ele>79.0</ele><time>2026-04-19T11:25:24.475Z</time></trkpt><trkpt lat="40.5982333" lon="8.2377733"><ele>79.0</ele><time>2026-04-19T11:25:25.475Z</time></trkpt><trkpt lat="40.5981883" lon="8.2378683"><ele>79.0</ele><time>2026-04-19T11:25:26.476Z</time></trkpt><trkpt lat="40.5981517" lon="8.2379717"><ele>79.0</ele><time>2026-04-19T11:25:27.476Z</time></trkpt><trkpt lat="40.5981283" lon="8.238065"><ele>79.0</ele><time>2026-04-19T11:25:28.475Z</time></trkpt><trkpt lat="40.5981083" lon="8.2382067"><ele>79.0</ele><time>2026-04-19T11:25:30.476Z</time></trkpt><trkpt lat="40.5980917" lon="8.2383317"><ele>79.0</ele><time>2026-04-19T11:25:32.475Z</time></trkpt><trkpt lat="40.59807" lon="8.2384733"><ele>81.0</ele><time>2026-04-19T11:25:34.476Z</time></trkpt><trkpt lat="40.598055" lon="8.2385617"><ele>83.0</ele><time>2026-04-19T11:25:35.475Z</time></trkpt><trkpt lat="40.59804" lon="8.2386567"><ele>85.0</ele><time>2026-04-19T11:25:36.476Z</time></trkpt><trkpt lat="40.59803" lon="8.23876"><ele>87.0</ele><time>2026-04-19T11:25:37.475Z</time></trkpt><trkpt lat="40.5980267" lon="8.238865"><ele>89.0</ele><time>2026-04-19T11:25:38.476Z</time></trkpt><trkpt lat="40.5980233" lon="8.2389733"><ele>91.0</ele><time>2026-04-19T11:25:39.475Z</time></trkpt><trkpt lat="40.59802" lon="8.239085"><ele>91.5</ele><time>2026-04-19T11:25:40.475Z</time></trkpt><trkpt lat="40.5980183" lon="8.2391917"><ele>92.0</ele><time>2026-04-19T11:25:41.476Z</time></trkpt><trkpt lat="40.59802" lon="8.2392983"><ele>92.5</ele><time>2026-04-19T11:25:42.476Z</time></trkpt><trkpt lat="40.5980183" lon="8.239405"><ele>93.0</ele><time>2026-04-19T11:25:43.476Z</time></trkpt><trkpt lat="40.598015" lon="8.2395067"><ele>93.5</ele><time>2026-04-19T11:25:44.475Z</time></trkpt><trkpt lat="40.5980017" lon="8.239615"><ele>94.0</ele><time>2026-04-19T11:25:45.475Z</time></trkpt><trkpt lat="40.59799" lon="8.2397267"><ele>93.83333333333333</ele><time>2026-04-19T11:25:46.476Z</time></trkpt><trkpt lat="40.5979783" lon="8.239835"><ele>93.66666666666666</ele><time>2026-04-19T11:25:47.475Z</time></trkpt><trkpt lat="40.59797" lon="8.2399417"><ele>93.5</ele><time>2026-04-19T11:25:48.475Z</time></trkpt><trkpt lat="40.5979517" lon="8.24004"><ele>93.33333333333333</ele><time>2026-04-19T11:25:49.475Z</time></trkpt><trkpt lat="40.5979383" lon="8.2401417"><ele>93.16666666666667</ele><time>2026-04-19T11:25:50.475Z</time></trkpt><trkpt lat="40.5979317" lon="8.2402417"><ele>93.0</ele><time>2026-04-19T11:25:51.475Z</time></trkpt><trkpt lat="40.5979267" lon="8.2403317"><ele>93.0</ele><time>2026-04-19T11:25:52.475Z</time></trkpt><trkpt lat="40.5979433" lon="8.2404867"><ele>93.0</ele><time>2026-04-19T11:25:54.476Z</time></trkpt><trkpt lat="40.5980033" lon="8.2405867"><ele>93.0</ele><time>2026-04-19T11:25:56.476Z</time></trkpt><trkpt lat="40.5980583" lon="8.2406667"><ele>93.0</ele><time>2026-04-19T11:26:09.476Z</time></trkpt><trkpt lat="40.59813" lon="8.2407667"><ele>93.0</ele><time>2026-04-19T11:26:11.476Z</time></trkpt><trkpt lat="40.5982233" lon="8.2408667"><ele>92.4</ele><time>2026-04-19T11:26:13.476Z</time></trkpt><trkpt lat="40.59829" lon="8.2409667"><ele>91.80000000000001</ele><time>2026-04-19T11:26:15.475Z</time></trkpt><trkpt lat="40.5983533" lon="8.24106"><ele>91.2</ele><time>2026-04-19T11:26:17.475Z</time></trkpt><trkpt lat="40.5984183" lon="8.2411667"><ele>90.6</ele><time>2026-04-19T11:26:19.476Z</time></trkpt><trkpt lat="40.5984767" lon="8.2412833"><ele>90.0</ele><time>2026-04-19T11:26:21.475Z</time></trkpt><trkpt lat="40.598545" lon="8.241355"><ele>90.0</ele><time>2026-04-19T11:26:23.476Z</time></trkpt><trkpt lat="40.5986183" lon="8.2414383"><ele>90.0</ele><time>2026-04-19T11:26:25.476Z</time></trkpt><trkpt lat="40.5986917" lon="8.2415083"><ele>90.0</ele><time>2026-04-19T11:26:27.476Z</time></trkpt><trkpt lat="40.59877" lon="8.241585"><ele>90.0</ele><time>2026-04-19T11:26:29.475Z</time></trkpt><trkpt lat="40.5988583" lon="8.24166"><ele>90.0</ele><time>2026-04-19T11:26:31.475Z</time></trkpt><trkpt lat="40.5989383" lon="8.241725"><ele>93.25</ele><time>2026-04-19T11:26:33.475Z</time></trkpt><trkpt lat="40.5990233" lon="8.2418033"><ele>96.5</ele><time>2026-04-19T11:26:35.475Z</time></trkpt><trkpt lat="40.59913" lon="8.2419033"><ele>99.75</ele><time>2026-04-19T11:26:37.476Z</time></trkpt><trkpt lat="40.5992383" lon="8.2419767"><ele>103.0</ele><time>2026-04-19T11:26:39.476Z</time></trkpt><trkpt lat="40.599345" lon="8.2420283"><ele>103.0</ele><time>2026-04-19T11:26:41.475Z</time></trkpt><trkpt lat="40.5994533" lon="8.2420817"><ele>103.0</ele><time>2026-04-19T11:26:43.475Z</time></trkpt><trkpt lat="40.5995567" lon="8.2421333"><ele>103.0</ele><time>2026-04-19T11:26:45.476Z</time></trkpt><trkpt lat="40.5996483" lon="8.2421817"><ele>103.0</ele><time>2026-04-19T11:26:47.476Z</time></trkpt><trkpt lat="40.5997483" lon="8.2422433"><ele>103.0</ele><time>2026-04-19T11:26:49.475Z</time></trkpt><trkpt lat="40.5998367" lon="8.2423117"><ele>103.60000000000001</ele><time>2026-04-19T11:26:51.475Z</time></trkpt><trkpt lat="40.599925" lon="8.242375"><ele>104.2</ele><time>2026-04-19T11:26:53.476Z</time></trkpt><trkpt lat="40.6000167" lon="8.2424367"><ele>104.8</ele><time>2026-04-19T11:26:55.475Z</time></trkpt><trkpt lat="40.6001217" lon="8.2424867"><ele>105.4</ele><time>2026-04-19T11:26:57.476Z</time></trkpt><trkpt lat="40.60024" lon="8.24252"><ele>106.0</ele><time>2026-04-19T11:26:59.476Z</time></trkpt><trkpt lat="40.60031" lon="8.2425383"><ele>107.85714285714286</ele><time>2026-04-19T11:27:00.475Z</time></trkpt><trkpt lat="40.60038" lon="8.2425567"><ele>109.71428571428571</ele><time>2026-04-19T11:27:01.475Z</time></trkpt><trkpt lat="40.60045" lon="8.2425817"><ele>111.57142857142857</ele><time>2026-04-19T11:27:02.475Z</time></trkpt><trkpt lat="40.6005217" lon="8.2426117"><ele>113.42857142857143</ele><time>2026-04-19T11:27:03.475Z</time></trkpt><trkpt lat="40.600585" lon="8.2426283"><ele>115.28571428571428</ele><time>2026-04-19T11:27:04.475Z</time></trkpt><trkpt lat="40.600655" lon="8.2426483"><ele>117.14285714285714</ele><time>2026-04-19T11:27:05.476Z</time></trkpt><trkpt lat="40.6007267" lon="8.242665"><ele>119.0</ele><time>2026-04-19T11:27:06.475Z</time></trkpt><trkpt lat="40.6007983" lon="8.242685"><ele>118.99999999999999</ele><time>2026-04-19T11:27:07.476Z</time></trkpt><trkpt lat="40.6008633" lon="8.2427017"><ele>119.0</ele><time>2026-04-19T11:27:08.475Z</time></trkpt><trkpt lat="40.6009283" lon="8.242715"><ele>119.0</ele><time>2026-04-19T11:27:09.476Z</time></trkpt><trkpt lat="40.6010267" lon="8.2427533"><ele>119.0</ele><time>2026-04-19T11:27:11.476Z</time></trkpt><trkpt lat="40.6009917" lon="8.2428517"><ele>118.99999999999999</ele><time>2026-04-19T11:27:16.476Z</time></trkpt><trkpt lat="40.6008767" lon="8.2429133"><ele>119.0</ele><time>2026-04-19T11:27:18.475Z</time></trkpt><trkpt lat="40.6008067" lon="8.2429583"><ele>118.99999999999999</ele><time>2026-04-19T11:27:19.475Z</time></trkpt><trkpt lat="40.6007183" lon="8.2430133"><ele>119.0</ele><time>2026-04-19T11:27:20.476Z</time></trkpt><trkpt lat="40.6006267" lon="8.24307"><ele>119.0</ele><time>2026-04-19T11:27:21.476Z</time></trkpt><trkpt lat="40.6005483" lon="8.24312"><ele>119.0</ele><time>2026-04-19T11:27:22.476Z</time></trkpt><trkpt lat="40.6004883" lon="8.2431683"><ele>118.99999999999999</ele><time>2026-04-19T11:27:23.475Z</time></trkpt><trkpt lat="40.6004317" lon="8.243225"><ele>119.0</ele><time>2026-04-19T11:27:24.475Z</time></trkpt><trkpt lat="40.600345" lon="8.243305"><ele>117.80000000000001</ele><time>2026-04-19T11:27:26.476Z</time></trkpt><trkpt lat="40.60027" lon="8.2433717"><ele>116.60000000000001</ele><time>2026-04-19T11:27:28.476Z</time></trkpt><trkpt lat="40.600195" lon="8.243445"><ele>115.4</ele><time>2026-04-19T11:27:30.476Z</time></trkpt><trkpt lat="40.6000883" lon="8.2435383"><ele>114.2</ele><time>2026-04-19T11:27:32.475Z</time></trkpt><trkpt lat="40.600025" lon="8.2435917"><ele>113.0</ele><time>2026-04-19T11:27:33.476Z</time></trkpt><trkpt lat="40.5999567" lon="8.243645"><ele>112.99999999999999</ele><time>2026-04-19T11:27:34.476Z</time></trkpt><trkpt lat="40.599895" lon="8.2437017"><ele>113.0</ele><time>2026-04-19T11:27:35.476Z</time></trkpt><trkpt lat="40.5998117" lon="8.2437917"><ele>113.0</ele><time>2026-04-19T11:27:37.475Z</time></trkpt><trkpt lat="40.59971" lon="8.2438183"><ele>113.0</ele><time>2026-04-19T11:27:39.475Z</time></trkpt><trkpt lat="40.599645" lon="8.2438033"><ele>112.99999999999999</ele><time>2026-04-19T11:27:40.475Z</time></trkpt><trkpt lat="40.5995733" lon="8.2437817"><ele>113.0</ele><time>2026-04-19T11:27:41.475Z</time></trkpt><trkpt lat="40.5995033" lon="8.2437517"><ele>112.33333333333333</ele><time>2026-04-19T11:27:42.475Z</time></trkpt><trkpt lat="40.599435" lon="8.2437267"><ele>111.66666666666666</ele><time>2026-04-19T11:27:43.476Z</time></trkpt><trkpt lat="40.5993583" lon="8.2436983"><ele>111.0</ele><time>2026-04-19T11:27:44.476Z</time></trkpt><trkpt lat="40.5992767" lon="8.2436733"><ele>110.33333333333334</ele><time>2026-04-19T11:27:45.476Z</time></trkpt><trkpt lat="40.5991983" lon="8.2436567"><ele>109.66666666666667</ele><time>2026-04-19T11:27:46.476Z</time></trkpt><trkpt lat="40.599125" lon="8.243635"><ele>109.0</ele><time>2026-04-19T11:27:47.476Z</time></trkpt><trkpt lat="40.5990583" lon="8.2436133"><ele>109.0</ele><time>2026-04-19T11:27:48.475Z</time></trkpt><trkpt lat="40.5989967" lon="8.2435867"><ele>109.0</ele><time>2026-04-19T11:27:49.475Z</time></trkpt><trkpt lat="40.5989317" lon="8.2435717"><ele>109.0</ele><time>2026-04-19T11:27:50.476Z</time></trkpt><trkpt lat="40.5988683" lon="8.243555"><ele>109.0</ele><time>2026-04-19T11:27:51.476Z</time></trkpt><trkpt lat="40.5988017" lon="8.24355"><ele>109.0</ele><time>2026-04-19T11:27:52.475Z</time></trkpt><trkpt lat="40.5987283" lon="8.243535"><ele>109.0</ele><time>2026-04-19T11:27:53.476Z</time></trkpt><trkpt lat="40.5986583" lon="8.2435133"><ele>109.0</ele><time>2026-04-19T11:27:54.475Z</time></trkpt><trkpt lat="40.5985933" lon="8.2434917"><ele>109.0</ele><time>2026-04-19T11:27:55.475Z</time></trkpt><trkpt lat="40.5985283" lon="8.2434633"><ele>109.0</ele><time>2026-04-19T11:27:56.476Z</time></trkpt><trkpt lat="40.59841" lon="8.243415"><ele>109.0</ele><time>2026-04-19T11:27:58.476Z</time></trkpt><trkpt lat="40.5982867" lon="8.24336"><ele>109.0</ele><time>2026-04-19T11:28:00.476Z</time></trkpt><trkpt lat="40.5982167" lon="8.2433333"><ele>109.0</ele><time>2026-04-19T11:28:01.475Z</time></trkpt><trkpt lat="40.5981467" lon="8.2432983"><ele>109.00000000000001</ele><time>2026-04-19T11:28:02.475Z</time></trkpt><trkpt lat="40.598075" lon="8.24326"><ele>109.0</ele><time>2026-04-19T11:28:03.476Z</time></trkpt><trkpt lat="40.598" lon="8.2432267"><ele>109.0</ele><time>2026-04-19T11:28:04.475Z</time></trkpt><trkpt lat="40.59792" lon="8.2431917"><ele>109.0</ele><time>2026-04-19T11:28:05.476Z</time></trkpt><trkpt lat="40.5978417" lon="8.2431667"><ele>109.00000000000001</ele><time>2026-04-19T11:28:06.475Z</time></trkpt><trkpt lat="40.59776" lon="8.243155"><ele>109.0</ele><time>2026-04-19T11:28:07.476Z</time></trkpt><trkpt lat="40.59767" lon="8.2431633"><ele>108.50000000000001</ele><time>2026-04-19T11:28:08.475Z</time></trkpt><trkpt lat="40.5975817" lon="8.2431783"><ele>108.0</ele><time>2026-04-19T11:28:09.475Z</time></trkpt><trkpt lat="40.5975" lon="8.2432033"><ele>107.5</ele><time>2026-04-19T11:28:10.476Z</time></trkpt><trkpt lat="40.59742" lon="8.2432217"><ele>107.0</ele><time>2026-04-19T11:28:11.475Z</time></trkpt><trkpt lat="40.5973433" lon="8.243235"><ele>106.50000000000001</ele><time>2026-04-19T11:28:12.476Z</time></trkpt><trkpt lat="40.59727" lon="8.243255"><ele>106.0</ele><time>2026-04-19T11:28:13.475Z</time></trkpt><trkpt lat="40.5972" lon="8.2432883"><ele>106.00000000000001</ele><time>2026-04-19T11:28:14.475Z</time></trkpt><trkpt lat="40.5971367" lon="8.2433183"><ele>106.0</ele><time>2026-04-19T11:28:15.475Z</time></trkpt><trkpt lat="40.5970617" lon="8.2433533"><ele>106.0</ele><time>2026-04-19T11:28:16.475Z</time></trkpt><trkpt lat="40.5969817" lon="8.2433833"><ele>106.0</ele><time>2026-04-19T11:28:17.475Z</time></trkpt><trkpt lat="40.5969" lon="8.2434133"><ele>106.00000000000001</ele><time>2026-04-19T11:28:18.475Z</time></trkpt><trkpt lat="40.596815" lon="8.2434567"><ele>106.0</ele><time>2026-04-19T11:28:19.476Z</time></trkpt><trkpt lat="40.5967283" lon="8.2435033"><ele>103.4</ele><time>2026-04-19T11:28:20.475Z</time></trkpt><trkpt lat="40.596655" lon="8.243555"><ele>100.8</ele><time>2026-04-19T11:28:21.476Z</time></trkpt><trkpt lat="40.5965833" lon="8.24362"><ele>98.2</ele><time>2026-04-19T11:28:22.476Z</time></trkpt><trkpt lat="40.5965" lon="8.2436867"><ele>95.60000000000001</ele><time>2026-04-19T11:28:23.476Z</time></trkpt><trkpt lat="40.59641" lon="8.2437583"><ele>93.0</ele><time>2026-04-19T11:28:24.476Z</time></trkpt><trkpt lat="40.5963167" lon="8.243835"><ele>93.0</ele><time>2026-04-19T11:28:25.475Z</time></trkpt><trkpt lat="40.5962217" lon="8.2439167"><ele>93.0</ele><time>2026-04-19T11:28:26.475Z</time></trkpt><trkpt lat="40.596125" lon="8.2440017"><ele>93.0</ele><time>2026-04-19T11:28:27.475Z</time></trkpt><trkpt lat="40.5960367" lon="8.2440883"><ele>93.0</ele><time>2026-04-19T11:28:28.476Z</time></trkpt><trkpt lat="40.5959567" lon="8.2441733"><ele>93.0</ele><time>2026-04-19T11:28:29.475Z</time></trkpt><trkpt lat="40.5958733" lon="8.2442567"><ele>92.4</ele><time>2026-04-19T11:28:30.475Z</time></trkpt><trkpt lat="40.595785" lon="8.24435"><ele>91.80000000000001</ele><time>2026-04-19T11:28:31.476Z</time></trkpt><trkpt lat="40.595695" lon="8.2444367"><ele>91.2</ele><time>2026-04-19T11:28:32.475Z</time></trkpt><trkpt lat="40.5956167" lon="8.2445233"><ele>90.6</ele><time>2026-04-19T11:28:33.476Z</time></trkpt><trkpt lat="40.595535" lon="8.2446217"><ele>90.0</ele><time>2026-04-19T11:28:34.476Z</time></trkpt><trkpt lat="40.5954617" lon="8.2446983"><ele>90.0</ele><time>2026-04-19T11:28:35.476Z</time></trkpt><trkpt lat="40.5953833" lon="8.24478"><ele>90.0</ele><time>2026-04-19T11:28:36.475Z</time></trkpt><trkpt lat="40.59532" lon="8.2448633"><ele>90.0</ele><time>2026-04-19T11:28:37.476Z</time></trkpt><trkpt lat="40.5952567" lon="8.2449417"><ele>90.0</ele><time>2026-04-19T11:28:38.476Z</time></trkpt><trkpt lat="40.5951983" lon="8.2450217"><ele>90.0</ele><time>2026-04-19T11:28:39.476Z</time></trkpt><trkpt lat="40.5951417" lon="8.2450833"><ele>90.0</ele><time>2026-04-19T11:28:40.475Z</time></trkpt><trkpt lat="40.5950867" lon="8.2451667"><ele>90.66666666666667</ele><time>2026-04-19T11:28:41.475Z</time></trkpt><trkpt lat="40.59503" lon="8.2452367"><ele>91.33333333333333</ele><time>2026-04-19T11:28:42.475Z</time></trkpt><trkpt lat="40.5949733" lon="8.24531"><ele>92.0</ele><time>2026-04-19T11:28:43.474Z</time></trkpt><trkpt lat="40.59492" lon="8.24539"><ele>92.66666666666666</ele><time>2026-04-19T11:28:44.474Z</time></trkpt><trkpt lat="40.594875" lon="8.2454783"><ele>93.33333333333333</ele><time>2026-04-19T11:28:45.475Z</time></trkpt><trkpt lat="40.594835" lon="8.245575"><ele>94.0</ele><time>2026-04-19T11:28:46.474Z</time></trkpt><trkpt lat="40.5948" lon="8.2456733"><ele>94.0</ele><time>2026-04-19T11:28:47.474Z</time></trkpt><trkpt lat="40.5947717" lon="8.2457667"><ele>94.0</ele><time>2026-04-19T11:28:48.475Z</time></trkpt><trkpt lat="40.59474" lon="8.2458533"><ele>94.0</ele><time>2026-04-19T11:28:49.475Z</time></trkpt><trkpt lat="40.5947167" lon="8.2459433"><ele>94.0</ele><time>2026-04-19T11:28:50.474Z</time></trkpt><trkpt lat="40.5946867" lon="8.24602"><ele>94.0</ele><time>2026-04-19T11:28:51.474Z</time></trkpt><trkpt lat="40.5946617" lon="8.2460967"><ele>94.0</ele><time>2026-04-19T11:28:52.474Z</time></trkpt><trkpt lat="40.5946367" lon="8.2461883"><ele>94.0</ele><time>2026-04-19T11:28:53.475Z</time></trkpt><trkpt lat="40.594615" lon="8.2462833"><ele>94.0</ele><time>2026-04-19T11:28:54.474Z</time></trkpt><trkpt lat="40.5945933" lon="8.2463967"><ele>94.0</ele><time>2026-04-19T11:28:55.475Z</time></trkpt><trkpt lat="40.594585" lon="8.2465133"><ele>94.0</ele><time>2026-04-19T11:28:56.475Z</time></trkpt><trkpt lat="40.59457" lon="8.246645"><ele>94.0</ele><time>2026-04-19T11:28:57.475Z</time></trkpt><trkpt lat="40.5945483" lon="8.2467733"><ele>94.0</ele><time>2026-04-19T11:28:58.475Z</time></trkpt><trkpt lat="40.5945267" lon="8.2469017"><ele>94.83333333333333</ele><time>2026-04-19T11:28:59.474Z</time></trkpt><trkpt lat="40.594515" lon="8.2470167"><ele>95.66666666666666</ele><time>2026-04-19T11:29:00.475Z</time></trkpt><trkpt lat="40.5945017" lon="8.2471317"><ele>96.5</ele><time>2026-04-19T11:29:01.475Z</time></trkpt><trkpt lat="40.594495" lon="8.2472483"><ele>97.33333333333333</ele><time>2026-04-19T11:29:02.475Z</time></trkpt><trkpt lat="40.594475" lon="8.24736"><ele>98.16666666666667</ele><time>2026-04-19T11:29:03.474Z</time></trkpt><trkpt lat="40.59446" lon="8.2474617"><ele>99.0</ele><time>2026-04-19T11:29:04.474Z</time></trkpt><trkpt lat="40.5944433" lon="8.2475667"><ele>93.4</ele><time>2026-04-19T11:29:05.474Z</time></trkpt><trkpt lat="40.5944267" lon="8.2476917"><ele>87.80000000000001</ele><time>2026-04-19T11:29:06.474Z</time></trkpt><trkpt lat="40.5944283" lon="8.24782"><ele>82.19999999999999</ele><time>2026-04-19T11:29:07.475Z</time></trkpt><trkpt lat="40.5944233" lon="8.2479567"><ele>76.6</ele><time>2026-04-19T11:29:08.475Z</time></trkpt><trkpt lat="40.5944117" lon="8.2480833"><ele>71.0</ele><time>2026-04-19T11:29:09.475Z</time></trkpt><trkpt lat="40.5943967" lon="8.2481833"><ele>70.5</ele><time>2026-04-19T11:29:10.474Z</time></trkpt><trkpt lat="40.59438" lon="8.248275"><ele>70.0</ele><time>2026-04-19T11:29:11.475Z</time></trkpt><trkpt lat="40.5943667" lon="8.2483833"><ele>69.5</ele><time>2026-04-19T11:29:12.475Z</time></trkpt><trkpt lat="40.5943517" lon="8.2485"><ele>69.0</ele><time>2026-04-19T11:29:13.474Z</time></trkpt><trkpt lat="40.594335" lon="8.2486233"><ele>68.5</ele><time>2026-04-19T11:29:14.475Z</time></trkpt><trkpt lat="40.5943183" lon="8.2487483"><ele>68.0</ele><time>2026-04-19T11:29:15.474Z</time></trkpt><trkpt lat="40.5943067" lon="8.2488767"><ele>68.2</ele><time>2026-04-19T11:29:16.474Z</time></trkpt><trkpt lat="40.5942883" lon="8.24899"><ele>68.4</ele><time>2026-04-19T11:29:17.474Z</time></trkpt><trkpt lat="40.5942767" lon="8.249105"><ele>68.60000000000001</ele><time>2026-04-19T11:29:18.474Z</time></trkpt><trkpt lat="40.5942683" lon="8.249225"><ele>68.8</ele><time>2026-04-19T11:29:19.475Z</time></trkpt><trkpt lat="40.5942533" lon="8.24935"><ele>69.0</ele><time>2026-04-19T11:29:20.474Z</time></trkpt><trkpt lat="40.5942433" lon="8.2494783"><ele>69.0</ele><time>2026-04-19T11:29:21.474Z</time></trkpt><trkpt lat="40.5942283" lon="8.2496033"><ele>69.0</ele><time>2026-04-19T11:29:22.475Z</time></trkpt><trkpt lat="40.5942117" lon="8.2497417"><ele>69.0</ele><time>2026-04-19T11:29:23.475Z</time></trkpt><trkpt lat="40.5941917" lon="8.2498833"><ele>69.0</ele><time>2026-04-19T11:29:24.475Z</time></trkpt><trkpt lat="40.5941733" lon="8.2500133"><ele>69.0</ele><time>2026-04-19T11:29:25.474Z</time></trkpt><trkpt lat="40.594165" lon="8.2501417"><ele>69.0</ele><time>2026-04-19T11:29:26.474Z</time></trkpt><trkpt lat="40.5941633" lon="8.2502667"><ele>69.0</ele><time>2026-04-19T11:29:27.474Z</time></trkpt><trkpt lat="40.5941483" lon="8.2503917"><ele>69.0</ele><time>2026-04-19T11:29:28.475Z</time></trkpt><trkpt lat="40.59414" lon="8.2505033"><ele>69.0</ele><time>2026-04-19T11:29:29.474Z</time></trkpt><trkpt lat="40.5941333" lon="8.25061"><ele>69.0</ele><time>2026-04-19T11:29:30.474Z</time></trkpt><trkpt lat="40.594125" lon="8.25071"><ele>69.0</ele><time>2026-04-19T11:29:31.474Z</time></trkpt><trkpt lat="40.5941083" lon="8.250805"><ele>69.0</ele><time>2026-04-19T11:29:32.474Z</time></trkpt><trkpt lat="40.5940917" lon="8.250905"><ele>69.0</ele><time>2026-04-19T11:29:33.475Z</time></trkpt><trkpt lat="40.5940817" lon="8.251"><ele>69.0</ele><time>2026-04-19T11:29:34.475Z</time></trkpt><trkpt lat="40.5940767" lon="8.251095"><ele>69.0</ele><time>2026-04-19T11:29:35.475Z</time></trkpt><trkpt lat="40.59407" lon="8.25118"><ele>69.0</ele><time>2026-04-19T11:29:36.474Z</time></trkpt><trkpt lat="40.5940633" lon="8.25127"><ele>69.0</ele><time>2026-04-19T11:29:37.474Z</time></trkpt><trkpt lat="40.5940517" lon="8.251355"><ele>69.0</ele><time>2026-04-19T11:29:38.474Z</time></trkpt><trkpt lat="40.5940383" lon="8.2514433"><ele>69.0</ele><time>2026-04-19T11:29:39.475Z</time></trkpt><trkpt lat="40.594035" lon="8.2515367"><ele>69.0</ele><time>2026-04-19T11:29:40.475Z</time></trkpt><trkpt lat="40.5940183" lon="8.2516283"><ele>69.0</ele><time>2026-04-19T11:29:41.475Z</time></trkpt><trkpt lat="40.594005" lon="8.2517583"><ele>69.0</ele><time>2026-04-19T11:29:43.474Z</time></trkpt><trkpt lat="40.593945" lon="8.2518133"><ele>69.0</ele><time>2026-04-19T11:29:45.475Z</time></trkpt><trkpt lat="40.5938517" lon="8.2518117"><ele>69.0</ele><time>2026-04-19T11:29:47.474Z</time></trkpt><trkpt lat="40.593735" lon="8.251785"><ele>67.42857142857143</ele><time>2026-04-19T11:29:49.475Z</time></trkpt><trkpt lat="40.59367" lon="8.2517667"><ele>65.85714285714286</ele><time>2026-04-19T11:29:50.474Z</time></trkpt><trkpt lat="40.5936033" lon="8.2517383"><ele>64.28571428571429</ele><time>2026-04-19T11:29:51.474Z</time></trkpt><trkpt lat="40.5935283" lon="8.2517117"><ele>62.71428571428572</ele><time>2026-04-19T11:29:52.474Z</time></trkpt><trkpt lat="40.5934533" lon="8.2516883"><ele>61.142857142857146</ele><time>2026-04-19T11:29:53.475Z</time></trkpt><trkpt lat="40.5933817" lon="8.25166"><ele>59.571428571428584</ele><time>2026-04-19T11:29:54.474Z</time></trkpt><trkpt lat="40.593315" lon="8.2516283"><ele>58.00000000000001</ele><time>2026-04-19T11:29:55.475Z</time></trkpt><trkpt lat="40.59325" lon="8.2516017"><ele>57.99999999999999</ele><time>2026-04-19T11:29:56.475Z</time></trkpt><trkpt lat="40.593185" lon="8.2515717"><ele>58.0</ele><time>2026-04-19T11:29:57.474Z</time></trkpt><trkpt lat="40.5931233" lon="8.2515483"><ele>58.0</ele><time>2026-04-19T11:29:58.474Z</time></trkpt><trkpt lat="40.5930617" lon="8.25152"><ele>58.0</ele><time>2026-04-19T11:29:59.475Z</time></trkpt><trkpt lat="40.5929983" lon="8.251485"><ele>57.99999999999999</ele><time>2026-04-19T11:30:00.474Z</time></trkpt><trkpt lat="40.5928933" lon="8.2514317"><ele>58.0</ele><time>2026-04-19T11:30:02.475Z</time></trkpt><trkpt lat="40.592825" lon="8.2514117"><ele>56.99999999999999</ele><time>2026-04-19T11:30:04.474Z</time></trkpt><trkpt lat="40.592765" lon="8.251375"><ele>56.0</ele><time>2026-04-19T11:30:06.474Z</time></trkpt><trkpt lat="40.592685" lon="8.25141"><ele>55.0</ele><time>2026-04-19T11:31:00.475Z</time></trkpt><trkpt lat="40.5926533" lon="8.2514883"><ele>54.0</ele><time>2026-04-19T11:31:02.475Z</time></trkpt><trkpt lat="40.592615" lon="8.2516483"><ele>52.99999999999999</ele><time>2026-04-19T11:31:04.474Z</time></trkpt><trkpt lat="40.592595" lon="8.2517483"><ele>52.0</ele><time>2026-04-19T11:31:05.475Z</time></trkpt><trkpt lat="40.5925717" lon="8.2518667"><ele>52.0</ele><time>2026-04-19T11:31:06.474Z</time></trkpt><trkpt lat="40.5925467" lon="8.252"><ele>52.0</ele><time>2026-04-19T11:31:07.474Z</time></trkpt><trkpt lat="40.592515" lon="8.2521533"><ele>52.0</ele><time>2026-04-19T11:31:08.474Z</time></trkpt><trkpt lat="40.5924783" lon="8.252315"><ele>52.0</ele><time>2026-04-19T11:31:09.474Z</time></trkpt><trkpt lat="40.59244" lon="8.2524817"><ele>52.0</ele><time>2026-04-19T11:31:10.475Z</time></trkpt><trkpt lat="40.5924033" lon="8.2526467"><ele>52.0</ele><time>2026-04-19T11:31:11.475Z</time></trkpt><trkpt lat="40.592375" lon="8.2528217"><ele>52.0</ele><time>2026-04-19T11:31:12.475Z</time></trkpt><trkpt lat="40.592345" lon="8.2529967"><ele>52.0</ele><time>2026-04-19T11:31:13.474Z</time></trkpt><trkpt lat="40.5923117" lon="8.2531783"><ele>52.0</ele><time>2026-04-19T11:31:14.475Z</time></trkpt><trkpt lat="40.5922733" lon="8.2533517"><ele>52.0</ele><time>2026-04-19T11:31:15.475Z</time></trkpt><trkpt lat="40.592235" lon="8.25353"><ele>52.0</ele><time>2026-04-19T11:31:16.475Z</time></trkpt><trkpt lat="40.592205" lon="8.2537267"><ele>52.0</ele><time>2026-04-19T11:31:17.475Z</time></trkpt><trkpt lat="40.5921633" lon="8.2539117"><ele>51.75</ele><time>2026-04-19T11:31:18.475Z</time></trkpt><trkpt lat="40.5921183" lon="8.2540983"><ele>51.5</ele><time>2026-04-19T11:31:19.474Z</time></trkpt><trkpt lat="40.59208" lon="8.25428"><ele>51.25</ele><time>2026-04-19T11:31:20.474Z</time></trkpt><trkpt lat="40.59204" lon="8.2544733"><ele>51.0</ele><time>2026-04-19T11:31:21.474Z</time></trkpt><trkpt lat="40.59201" lon="8.2546667"><ele>48.0</ele><time>2026-04-19T11:31:22.474Z</time></trkpt><trkpt lat="40.5919733" lon="8.2548567"><ele>45.0</ele><time>2026-04-19T11:31:23.475Z</time></trkpt><trkpt lat="40.59194" lon="8.25505"><ele>42.0</ele><time>2026-04-19T11:31:24.474Z</time></trkpt><trkpt lat="40.5919017" lon="8.2552317"><ele>39.0</ele><time>2026-04-19T11:31:25.474Z</time></trkpt><trkpt lat="40.5918617" lon="8.2554217"><ele>39.0</ele><time>2026-04-19T11:31:26.474Z</time></trkpt><trkpt lat="40.5918217" lon="8.2556183"><ele>39.0</ele><time>2026-04-19T11:31:27.474Z</time></trkpt><trkpt lat="40.5917883" lon="8.2558167"><ele>39.0</ele><time>2026-04-19T11:31:28.475Z</time></trkpt><trkpt lat="40.591745" lon="8.256015"><ele>38.333333333333336</ele><time>2026-04-19T11:31:29.475Z</time></trkpt><trkpt lat="40.5917083" lon="8.2562067"><ele>37.66666666666667</ele><time>2026-04-19T11:31:30.474Z</time></trkpt><trkpt lat="40.591665" lon="8.256405"><ele>37.0</ele><time>2026-04-19T11:31:31.474Z</time></trkpt><trkpt lat="40.591625" lon="8.256595"><ele>37.0</ele><time>2026-04-19T11:31:32.474Z</time></trkpt><trkpt lat="40.5915833" lon="8.2567833"><ele>37.0</ele><time>2026-04-19T11:31:33.475Z</time></trkpt><trkpt lat="40.5915483" lon="8.256995"><ele>37.0</ele><time>2026-04-19T11:31:34.475Z</time></trkpt><trkpt lat="40.5915117" lon="8.2572133"><ele>37.0</ele><time>2026-04-19T11:31:35.474Z</time></trkpt><trkpt lat="40.5914683" lon="8.2574383"><ele>37.0</ele><time>2026-04-19T11:31:36.474Z</time></trkpt><trkpt lat="40.5914267" lon="8.25766"><ele>37.0</ele><time>2026-04-19T11:31:37.474Z</time></trkpt><trkpt lat="40.5914017" lon="8.2579"><ele>37.333333333333336</ele><time>2026-04-19T11:31:38.474Z</time></trkpt><trkpt lat="40.5913917" lon="8.2581433"><ele>37.666666666666664</ele><time>2026-04-19T11:31:39.475Z</time></trkpt><trkpt lat="40.5914067" lon="8.2583867"><ele>38.0</ele><time>2026-04-19T11:31:40.474Z</time></trkpt><trkpt lat="40.591435" lon="8.2586217"><ele>38.0</ele><time>2026-04-19T11:31:41.474Z</time></trkpt><trkpt lat="40.5914683" lon="8.258855"><ele>38.0</ele><time>2026-04-19T11:31:42.474Z</time></trkpt><trkpt lat="40.5915083" lon="8.2590833"><ele>38.0</ele><time>2026-04-19T11:31:43.474Z</time></trkpt><trkpt lat="40.5915467" lon="8.259325"><ele>36.33333333333333</ele><time>2026-04-19T11:31:44.474Z</time></trkpt><trkpt lat="40.5915883" lon="8.259555"><ele>34.666666666666664</ele><time>2026-04-19T11:31:45.474Z</time></trkpt><trkpt lat="40.5916317" lon="8.2597867"><ele>33.0</ele><time>2026-04-19T11:31:46.475Z</time></trkpt><trkpt lat="40.5916733" lon="8.260015"><ele>31.0</ele><time>2026-04-19T11:31:47.474Z</time></trkpt><trkpt lat="40.59171" lon="8.2602467"><ele>29.0</ele><time>2026-04-19T11:31:48.474Z</time></trkpt><trkpt lat="40.5917483" lon="8.2604617"><ele>27.0</ele><time>2026-04-19T11:31:49.475Z</time></trkpt><trkpt lat="40.5917817" lon="8.2606817"><ele>25.666666666666668</ele><time>2026-04-19T11:31:50.474Z</time></trkpt><trkpt lat="40.5918167" lon="8.260895"><ele>24.333333333333336</ele><time>2026-04-19T11:31:51.475Z</time></trkpt><trkpt lat="40.5918567" lon="8.2611067"><ele>23.0</ele><time>2026-04-19T11:31:52.474Z</time></trkpt><trkpt lat="40.5918983" lon="8.2613283"><ele>22.333333333333336</ele><time>2026-04-19T11:31:53.475Z</time></trkpt><trkpt lat="40.5919317" lon="8.2615533"><ele>21.666666666666668</ele><time>2026-04-19T11:31:54.475Z</time></trkpt><trkpt lat="40.59197" lon="8.261775"><ele>21.0</ele><time>2026-04-19T11:31:55.475Z</time></trkpt><trkpt lat="40.5920083" lon="8.2619967"><ele>22.0</ele><time>2026-04-19T11:31:56.475Z</time></trkpt><trkpt lat="40.5920433" lon="8.26222"><ele>23.0</ele><time>2026-04-19T11:31:57.474Z</time></trkpt><trkpt lat="40.5920867" lon="8.2624467"><ele>24.0</ele><time>2026-04-19T11:31:58.475Z</time></trkpt><trkpt lat="40.59213" lon="8.26268"><ele>24.0</ele><time>2026-04-19T11:31:59.475Z</time></trkpt><trkpt lat="40.5921767" lon="8.2629233"><ele>24.0</ele><time>2026-04-19T11:32:00.475Z</time></trkpt><trkpt lat="40.5922233" lon="8.26317"><ele>24.0</ele><time>2026-04-19T11:32:01.475Z</time></trkpt><trkpt lat="40.5922617" lon="8.263425"><ele>23.0</ele><time>2026-04-19T11:32:02.474Z</time></trkpt><trkpt lat="40.5923017" lon="8.2636733"><ele>22.0</ele><time>2026-04-19T11:32:03.475Z</time></trkpt><trkpt lat="40.5923433" lon="8.2639283"><ele>21.0</ele><time>2026-04-19T11:32:04.474Z</time></trkpt><trkpt lat="40.5923867" lon="8.2641933"><ele>20.666666666666668</ele><time>2026-04-19T11:32:05.475Z</time></trkpt><trkpt lat="40.59243" lon="8.264455"><ele>20.333333333333336</ele><time>2026-04-19T11:32:06.475Z</time></trkpt><trkpt lat="40.592475" lon="8.264715"><ele>20.0</ele><time>2026-04-19T11:32:07.475Z</time></trkpt><trkpt lat="40.5925217" lon="8.26497"><ele>19.666666666666668</ele><time>2026-04-19T11:32:08.475Z</time></trkpt><trkpt lat="40.59256" lon="8.2652217"><ele>19.333333333333332</ele><time>2026-04-19T11:32:09.474Z</time></trkpt><trkpt lat="40.592605" lon="8.2654817"><ele>19.0</ele><time>2026-04-19T11:32:10.474Z</time></trkpt><trkpt lat="40.59265" lon="8.265735"><ele>18.0</ele><time>2026-04-19T11:32:11.474Z</time></trkpt><trkpt lat="40.5927017" lon="8.2659833"><ele>17.0</ele><time>2026-04-19T11:32:12.474Z</time></trkpt><trkpt lat="40.5927483" lon="8.2662233"><ele>16.0</ele><time>2026-04-19T11:32:13.474Z</time></trkpt><trkpt lat="40.59279" lon="8.26647"><ele>15.333333333333332</ele><time>2026-04-19T11:32:14.474Z</time></trkpt><trkpt lat="40.5928383" lon="8.2667217"><ele>14.666666666666668</ele><time>2026-04-19T11:32:15.474Z</time></trkpt><trkpt lat="40.59287" lon="8.2669783"><ele>14.0</ele><time>2026-04-19T11:32:16.474Z</time></trkpt><trkpt lat="40.5929117" lon="8.26723"><ele>15.666666666666668</ele><time>2026-04-19T11:32:17.475Z</time></trkpt><trkpt lat="40.5929633" lon="8.2674883"><ele>17.333333333333332</ele><time>2026-04-19T11:32:18.475Z</time></trkpt><trkpt lat="40.5930067" lon="8.2677417"><ele>19.0</ele><time>2026-04-19T11:32:19.475Z</time></trkpt><trkpt lat="40.593045" lon="8.2680033"><ele>18.333333333333332</ele><time>2026-04-19T11:32:20.475Z</time></trkpt><trkpt lat="40.5930917" lon="8.2682517"><ele>17.666666666666668</ele><time>2026-04-19T11:32:21.474Z</time></trkpt><trkpt lat="40.5931333" lon="8.268515"><ele>17.0</ele><time>2026-04-19T11:32:22.474Z</time></trkpt><trkpt lat="40.59318" lon="8.2687717"><ele>16.666666666666668</ele><time>2026-04-19T11:32:23.474Z</time></trkpt><trkpt lat="40.5932217" lon="8.2690417"><ele>16.333333333333332</ele><time>2026-04-19T11:32:24.475Z</time></trkpt><trkpt lat="40.5932633" lon="8.2693083"><ele>16.0</ele><time>2026-04-19T11:32:25.475Z</time></trkpt><trkpt lat="40.59331" lon="8.2695733"><ele>16.666666666666664</ele><time>2026-04-19T11:32:26.475Z</time></trkpt><trkpt lat="40.59336" lon="8.2698417"><ele>17.333333333333332</ele><time>2026-04-19T11:32:27.474Z</time></trkpt><trkpt lat="40.5934083" lon="8.2701033"><ele>18.0</ele><time>2026-04-19T11:32:28.474Z</time></trkpt><trkpt lat="40.5934617" lon="8.27038"><ele>17.333333333333332</ele><time>2026-04-19T11:32:29.474Z</time></trkpt><trkpt lat="40.59351" lon="8.2706517"><ele>16.666666666666664</ele><time>2026-04-19T11:32:30.474Z</time></trkpt><trkpt lat="40.5935533" lon="8.270925"><ele>16.0</ele><time>2026-04-19T11:32:31.475Z</time></trkpt><trkpt lat="40.5935883" lon="8.2711783"><ele>15.666666666666666</ele><time>2026-04-19T11:32:32.475Z</time></trkpt><trkpt lat="40.5936317" lon="8.2714467"><ele>15.333333333333332</ele><time>2026-04-19T11:32:33.475Z</time></trkpt><trkpt lat="40.59368" lon="8.2717183"><ele>15.0</ele><time>2026-04-19T11:32:34.475Z</time></trkpt><trkpt lat="40.593725" lon="8.271985"><ele>15.666666666666668</ele><time>2026-04-19T11:32:35.475Z</time></trkpt><trkpt lat="40.59377" lon="8.272245"><ele>16.333333333333336</ele><time>2026-04-19T11:32:36.474Z</time></trkpt><trkpt lat="40.5938183" lon="8.2725"><ele>17.0</ele><time>2026-04-19T11:32:37.475Z</time></trkpt><trkpt lat="40.5938633" lon="8.272755"><ele>16.0</ele><time>2026-04-19T11:32:38.474Z</time></trkpt><trkpt lat="40.59391" lon="8.2730017"><ele>15.0</ele><time>2026-04-19T11:32:39.475Z</time></trkpt><trkpt lat="40.5939583" lon="8.273255"><ele>14.0</ele><time>2026-04-19T11:32:40.474Z</time></trkpt><trkpt lat="40.593995" lon="8.273515"><ele>14.0</ele><time>2026-04-19T11:32:41.475Z</time></trkpt><trkpt lat="40.5940367" lon="8.2737717"><ele>14.0</ele><time>2026-04-19T11:32:42.474Z</time></trkpt><trkpt lat="40.59408" lon="8.2740233"><ele>14.0</ele><time>2026-04-19T11:32:43.474Z</time></trkpt><trkpt lat="40.5941267" lon="8.2742767"><ele>14.0</ele><time>2026-04-19T11:32:44.474Z</time></trkpt><trkpt lat="40.5941717" lon="8.2745217"><ele>14.0</ele><time>2026-04-19T11:32:45.474Z</time></trkpt><trkpt lat="40.5942167" lon="8.274775"><ele>14.0</ele><time>2026-04-19T11:32:46.474Z</time></trkpt><trkpt lat="40.5942567" lon="8.2750133"><ele>14.0</ele><time>2026-04-19T11:32:47.475Z</time></trkpt><trkpt lat="40.5943" lon="8.275265"><ele>14.0</ele><time>2026-04-19T11:32:48.475Z</time></trkpt><trkpt lat="40.5943433" lon="8.2755167"><ele>14.0</ele><time>2026-04-19T11:32:49.474Z</time></trkpt><trkpt lat="40.5943917" lon="8.275765"><ele>14.0</ele><time>2026-04-19T11:32:50.474Z</time></trkpt><trkpt lat="40.59443" lon="8.2760167"><ele>14.0</ele><time>2026-04-19T11:32:51.474Z</time></trkpt><trkpt lat="40.5944717" lon="8.2762567"><ele>14.0</ele><time>2026-04-19T11:32:52.474Z</time></trkpt><trkpt lat="40.5945067" lon="8.276495"><ele>14.0</ele><time>2026-04-19T11:32:53.474Z</time></trkpt><trkpt lat="40.5945433" lon="8.276725"><ele>14.0</ele><time>2026-04-19T11:32:54.474Z</time></trkpt><trkpt lat="40.594585" lon="8.2769517"><ele>14.0</ele><time>2026-04-19T11:32:55.475Z</time></trkpt><trkpt lat="40.5946267" lon="8.2771783"><ele>13.333333333333334</ele><time>2026-04-19T11:32:56.475Z</time></trkpt><trkpt lat="40.5946617" lon="8.27741"><ele>12.666666666666668</ele><time>2026-04-19T11:32:57.474Z</time></trkpt><trkpt lat="40.5946983" lon="8.27765"><ele>12.0</ele><time>2026-04-19T11:32:58.475Z</time></trkpt><trkpt lat="40.5947417" lon="8.2778883"><ele>11.666666666666666</ele><time>2026-04-19T11:32:59.474Z</time></trkpt><trkpt lat="40.5947817" lon="8.2781217"><ele>11.333333333333332</ele><time>2026-04-19T11:33:00.475Z</time></trkpt><trkpt lat="40.5948217" lon="8.2783583"><ele>11.0</ele><time>2026-04-19T11:33:01.475Z</time></trkpt><trkpt lat="40.5948583" lon="8.278595"><ele>11.0</ele><time>2026-04-19T11:33:02.475Z</time></trkpt><trkpt lat="40.5948983" lon="8.2788283"><ele>11.0</ele><time>2026-04-19T11:33:03.475Z</time></trkpt><trkpt lat="40.5949367" lon="8.279055"><ele>11.0</ele><time>2026-04-19T11:33:04.475Z</time></trkpt><trkpt lat="40.5949767" lon="8.27927"><ele>11.0</ele><time>2026-04-19T11:33:05.474Z</time></trkpt><trkpt lat="40.5950117" lon="8.2794783"><ele>11.0</ele><time>2026-04-19T11:33:06.474Z</time></trkpt><trkpt lat="40.595045" lon="8.27968"><ele>11.0</ele><time>2026-04-19T11:33:07.475Z</time></trkpt><trkpt lat="40.595075" lon="8.2798983"><ele>11.0</ele><time>2026-04-19T11:33:08.474Z</time></trkpt><trkpt lat="40.595105" lon="8.2801067"><ele>11.0</ele><time>2026-04-19T11:33:09.474Z</time></trkpt><trkpt lat="40.5951433" lon="8.2803017"><ele>11.0</ele><time>2026-04-19T11:33:10.474Z</time></trkpt><trkpt lat="40.5951767" lon="8.2805"><ele>11.0</ele><time>2026-04-19T11:33:11.475Z</time></trkpt><trkpt lat="40.5952083" lon="8.2806867"><ele>11.0</ele><time>2026-04-19T11:33:12.474Z</time></trkpt><trkpt lat="40.5952383" lon="8.28086"><ele>11.0</ele><time>2026-04-19T11:33:13.474Z</time></trkpt><trkpt lat="40.59526" lon="8.2810383"><ele>11.0</ele><time>2026-04-19T11:33:14.474Z</time></trkpt><trkpt lat="40.5952933" lon="8.28121"><ele>11.0</ele><time>2026-04-19T11:33:15.475Z</time></trkpt><trkpt lat="40.595325" lon="8.281375"><ele>11.0</ele><time>2026-04-19T11:33:16.475Z</time></trkpt><trkpt lat="40.59535" lon="8.2815417"><ele>11.0</ele><time>2026-04-19T11:33:17.474Z</time></trkpt><trkpt lat="40.5953733" lon="8.2817"><ele>11.0</ele><time>2026-04-19T11:33:18.474Z</time></trkpt><trkpt lat="40.5953967" lon="8.28185"><ele>11.0</ele><time>2026-04-19T11:33:19.474Z</time></trkpt><trkpt lat="40.5954133" lon="8.281995"><ele>11.0</ele><time>2026-04-19T11:33:20.475Z</time></trkpt><trkpt lat="40.5954433" lon="8.2821217"><ele>11.0</ele><time>2026-04-19T11:33:21.475Z</time></trkpt><trkpt lat="40.5954633" lon="8.2822383"><ele>11.0</ele><time>2026-04-19T11:33:22.474Z</time></trkpt><trkpt lat="40.5954833" lon="8.2823367"><ele>11.0</ele><time>2026-04-19T11:33:23.474Z</time></trkpt><trkpt lat="40.5955017" lon="8.2824217"><ele>11.0</ele><time>2026-04-19T11:33:24.474Z</time></trkpt><trkpt lat="40.5955233" lon="8.2825733"><ele>11.0</ele><time>2026-04-19T11:33:26.474Z</time></trkpt><trkpt lat="40.5955317" lon="8.2827033"><ele>11.0</ele><time>2026-04-19T11:33:28.474Z</time></trkpt><trkpt lat="40.595555" lon="8.282865"><ele>11.0</ele><time>2026-04-19T11:33:30.474Z</time></trkpt><trkpt lat="40.5955783" lon="8.2829567"><ele>11.0</ele><time>2026-04-19T11:33:31.474Z</time></trkpt><trkpt lat="40.5955933" lon="8.2830533"><ele>11.0</ele><time>2026-04-19T11:33:32.475Z</time></trkpt><trkpt lat="40.5956033" lon="8.2831567"><ele>11.0</ele><time>2026-04-19T11:33:33.474Z</time></trkpt><trkpt lat="40.5955983" lon="8.2832667"><ele>11.0</ele><time>2026-04-19T11:33:34.474Z</time></trkpt><trkpt lat="40.5955883" lon="8.2833883"><ele>11.0</ele><time>2026-04-19T11:33:35.474Z</time></trkpt><trkpt lat="40.5955733" lon="8.283515"><ele>11.0</ele><time>2026-04-19T11:33:36.474Z</time></trkpt><trkpt lat="40.595555" lon="8.2836483"><ele>11.0</ele><time>2026-04-19T11:33:37.475Z</time></trkpt><trkpt lat="40.5955283" lon="8.2837767"><ele>11.0</ele><time>2026-04-19T11:33:38.474Z</time></trkpt><trkpt lat="40.5955117" lon="8.2839233"><ele>11.0</ele><time>2026-04-19T11:33:39.475Z</time></trkpt><trkpt lat="40.5955017" lon="8.28408"><ele>11.0</ele><time>2026-04-19T11:33:40.475Z</time></trkpt><trkpt lat="40.595485" lon="8.2842333"><ele>11.0</ele><time>2026-04-19T11:33:41.475Z</time></trkpt><trkpt lat="40.5954633" lon="8.2843783"><ele>10.25</ele><time>2026-04-19T11:33:42.474Z</time></trkpt><trkpt lat="40.595445" lon="8.2845417"><ele>9.5</ele><time>2026-04-19T11:33:43.475Z</time></trkpt><trkpt lat="40.5954233" lon="8.28469"><ele>8.75</ele><time>2026-04-19T11:33:44.475Z</time></trkpt><trkpt lat="40.5954" lon="8.2848417"><ele>8.0</ele><time>2026-04-19T11:33:45.475Z</time></trkpt><trkpt lat="40.595385" lon="8.2850017"><ele>7.75</ele><time>2026-04-19T11:33:46.475Z</time></trkpt><trkpt lat="40.5953767" lon="8.285155"><ele>7.5</ele><time>2026-04-19T11:33:47.474Z</time></trkpt><trkpt lat="40.59536" lon="8.2853117"><ele>7.25</ele><time>2026-04-19T11:33:48.475Z</time></trkpt><trkpt lat="40.595335" lon="8.28546"><ele>7.0</ele><time>2026-04-19T11:33:49.474Z</time></trkpt><trkpt lat="40.59532" lon="8.2856317"><ele>7.75</ele><time>2026-04-19T11:33:50.475Z</time></trkpt><trkpt lat="40.5953033" lon="8.2857983"><ele>8.5</ele><time>2026-04-19T11:33:51.475Z</time></trkpt><trkpt lat="40.5952867" lon="8.2859633"><ele>9.25</ele><time>2026-04-19T11:33:52.475Z</time></trkpt><trkpt lat="40.5952617" lon="8.2861267"><ele>10.0</ele><time>2026-04-19T11:33:53.474Z</time></trkpt><trkpt lat="40.5952317" lon="8.286305"><ele>8.75</ele><time>2026-04-19T11:33:54.475Z</time></trkpt><trkpt lat="40.5952067" lon="8.2864817"><ele>7.5</ele><time>2026-04-19T11:33:55.475Z</time></trkpt><trkpt lat="40.595185" lon="8.28666"><ele>6.25</ele><time>2026-04-19T11:33:56.475Z</time></trkpt><trkpt lat="40.5951617" lon="8.286845"><ele>5.0</ele><time>2026-04-19T11:33:57.475Z</time></trkpt><trkpt lat="40.5951433" lon="8.287025"><ele>5.0</ele><time>2026-04-19T11:33:58.475Z</time></trkpt><trkpt lat="40.5951233" lon="8.2872083"><ele>5.0</ele><time>2026-04-19T11:33:59.475Z</time></trkpt><trkpt lat="40.5951017" lon="8.2874"><ele>5.0</ele><time>2026-04-19T11:34:00.475Z</time></trkpt><trkpt lat="40.595075" lon="8.2875917"><ele>5.0</ele><time>2026-04-19T11:34:01.475Z</time></trkpt><trkpt lat="40.5950567" lon="8.2877867"><ele>4.333333333333334</ele><time>2026-04-19T11:34:02.475Z</time></trkpt><trkpt lat="40.595035" lon="8.2879833"><ele>3.666666666666667</ele><time>2026-04-19T11:34:03.474Z</time></trkpt><trkpt lat="40.5950117" lon="8.2881783"><ele>3.0</ele><time>2026-04-19T11:34:04.475Z</time></trkpt><trkpt lat="40.59498" lon="8.2883767"><ele>3.0</ele><time>2026-04-19T11:34:05.474Z</time></trkpt><trkpt lat="40.594955" lon="8.2885817"><ele>3.0</ele><time>2026-04-19T11:34:06.475Z</time></trkpt><trkpt lat="40.59493" lon="8.28879"><ele>3.0</ele><time>2026-04-19T11:34:07.474Z</time></trkpt><trkpt lat="40.5949067" lon="8.2889967"><ele>3.666666666666667</ele><time>2026-04-19T11:34:08.475Z</time></trkpt><trkpt lat="40.59488" lon="8.28921"><ele>4.333333333333334</ele><time>2026-04-19T11:34:09.475Z</time></trkpt><trkpt lat="40.5948583" lon="8.2894217"><ele>5.0</ele><time>2026-04-19T11:34:10.474Z</time></trkpt><trkpt lat="40.5948317" lon="8.289635"><ele>6.0</ele><time>2026-04-19T11:34:11.474Z</time></trkpt><trkpt lat="40.5948067" lon="8.2898517"><ele>7.0</ele><time>2026-04-19T11:34:12.475Z</time></trkpt><trkpt lat="40.5947867" lon="8.2900667"><ele>8.0</ele><time>2026-04-19T11:34:13.474Z</time></trkpt><trkpt lat="40.5947617" lon="8.2902833"><ele>8.0</ele><time>2026-04-19T11:34:14.475Z</time></trkpt><trkpt lat="40.594735" lon="8.2904983"><ele>8.0</ele><time>2026-04-19T11:34:15.475Z</time></trkpt><trkpt lat="40.59471" lon="8.2907083"><ele>8.0</ele><time>2026-04-19T11:34:16.475Z</time></trkpt><trkpt lat="40.59468" lon="8.2909183"><ele>8.0</ele><time>2026-04-19T11:34:17.474Z</time></trkpt><trkpt lat="40.594645" lon="8.291125"><ele>8.0</ele><time>2026-04-19T11:34:18.474Z</time></trkpt><trkpt lat="40.5946017" lon="8.2913233"><ele>8.0</ele><time>2026-04-19T11:34:19.475Z</time></trkpt><trkpt lat="40.594555" lon="8.2915017"><ele>8.0</ele><time>2026-04-19T11:34:20.474Z</time></trkpt><trkpt lat="40.5945117" lon="8.2916817"><ele>8.0</ele><time>2026-04-19T11:34:21.474Z</time></trkpt><trkpt lat="40.5944683" lon="8.29186"><ele>8.0</ele><time>2026-04-19T11:34:22.474Z</time></trkpt><trkpt lat="40.5944117" lon="8.2920367"><ele>8.0</ele><time>2026-04-19T11:34:23.474Z</time></trkpt><trkpt lat="40.5943717" lon="8.29221"><ele>6.75</ele><time>2026-04-19T11:34:24.474Z</time></trkpt><trkpt lat="40.594325" lon="8.2923867"><ele>5.5</ele><time>2026-04-19T11:34:25.474Z</time></trkpt><trkpt lat="40.5942783" lon="8.2925683"><ele>4.25</ele><time>2026-04-19T11:34:26.474Z</time></trkpt><trkpt lat="40.5942383" lon="8.2927467"><ele>3.0</ele><time>2026-04-19T11:34:27.475Z</time></trkpt><trkpt lat="40.5941917" lon="8.292915"><ele>3.0</ele><time>2026-04-19T11:34:28.474Z</time></trkpt><trkpt lat="40.594155" lon="8.2930667"><ele>3.0</ele><time>2026-04-19T11:34:29.474Z</time></trkpt><trkpt lat="40.594125" lon="8.2932133"><ele>3.0</ele><time>2026-04-19T11:34:30.474Z</time></trkpt><trkpt lat="40.5940983" lon="8.293345"><ele>3.0</ele><time>2026-04-19T11:34:31.474Z</time></trkpt><trkpt lat="40.5940633" lon="8.2934683"><ele>3.0</ele><time>2026-04-19T11:34:32.474Z</time></trkpt><trkpt lat="40.5940067" lon="8.29359"><ele>2.75</ele><time>2026-04-19T11:34:33.474Z</time></trkpt><trkpt lat="40.5939467" lon="8.2937217"><ele>2.5</ele><time>2026-04-19T11:34:34.474Z</time></trkpt><trkpt lat="40.5938833" lon="8.2938617"><ele>2.25</ele><time>2026-04-19T11:34:35.474Z</time></trkpt><trkpt lat="40.59382" lon="8.2940083"><ele>2.0</ele><time>2026-04-19T11:34:36.475Z</time></trkpt><trkpt lat="40.5937567" lon="8.2941567"><ele>2.0</ele><time>2026-04-19T11:34:37.475Z</time></trkpt><trkpt lat="40.5936933" lon="8.2943117"><ele>2.0</ele><time>2026-04-19T11:34:38.475Z</time></trkpt><trkpt lat="40.59363" lon="8.2944717"><ele>2.0</ele><time>2026-04-19T11:34:39.474Z</time></trkpt><trkpt lat="40.5935633" lon="8.2946283"><ele>2.0</ele><time>2026-04-19T11:34:40.474Z</time></trkpt><trkpt lat="40.5935033" lon="8.2947967"><ele>1.75</ele><time>2026-04-19T11:34:41.474Z</time></trkpt><trkpt lat="40.593435" lon="8.2949667"><ele>1.5</ele><time>2026-04-19T11:34:42.475Z</time></trkpt><trkpt lat="40.5933633" lon="8.2951417"><ele>1.25</ele><time>2026-04-19T11:34:43.474Z</time></trkpt><trkpt lat="40.59329" lon="8.29531"><ele>1.0</ele><time>2026-04-19T11:34:44.474Z</time></trkpt><trkpt lat="40.59322" lon="8.295485"><ele>1.25</ele><time>2026-04-19T11:34:45.474Z</time></trkpt><trkpt lat="40.5931467" lon="8.29566"><ele>1.5</ele><time>2026-04-19T11:34:46.475Z</time></trkpt><trkpt lat="40.5930767" lon="8.2958267"><ele>1.75</ele><time>2026-04-19T11:34:47.474Z</time></trkpt><trkpt lat="40.5930117" lon="8.295985"><ele>2.0</ele><time>2026-04-19T11:34:48.474Z</time></trkpt><trkpt lat="40.5929483" lon="8.29615"><ele>2.0</ele><time>2026-04-19T11:34:49.475Z</time></trkpt><trkpt lat="40.592885" lon="8.2963133"><ele>2.0</ele><time>2026-04-19T11:34:50.474Z</time></trkpt><trkpt lat="40.5928167" lon="8.2964733"><ele>2.0</ele><time>2026-04-19T11:34:51.474Z</time></trkpt><trkpt lat="40.5927517" lon="8.2966283"><ele>2.0</ele><time>2026-04-19T11:34:52.474Z</time></trkpt><trkpt lat="40.592685" lon="8.2967783"><ele>2.0</ele><time>2026-04-19T11:34:53.474Z</time></trkpt><trkpt lat="40.5926167" lon="8.2969333"><ele>2.0</ele><time>2026-04-19T11:34:54.475Z</time></trkpt><trkpt lat="40.5925433" lon="8.2970967"><ele>2.0</ele><time>2026-04-19T11:34:55.474Z</time></trkpt><trkpt lat="40.59248" lon="8.2972683"><ele>2.0</ele><time>2026-04-19T11:34:56.475Z</time></trkpt><trkpt lat="40.5924133" lon="8.297435"><ele>2.0</ele><time>2026-04-19T11:34:57.475Z</time></trkpt><trkpt lat="40.59235" lon="8.2976067"><ele>2.0</ele><time>2026-04-19T11:34:58.474Z</time></trkpt><trkpt lat="40.592285" lon="8.2977883"><ele>2.0</ele><time>2026-04-19T11:34:59.474Z</time></trkpt><trkpt lat="40.5922117" lon="8.29796"><ele>2.0</ele><time>2026-04-19T11:35:00.474Z</time></trkpt><trkpt lat="40.5921333" lon="8.2981533"><ele>2.333333333333333</ele><time>2026-04-19T11:35:01.475Z</time></trkpt><trkpt lat="40.5920533" lon="8.2983533"><ele>2.6666666666666665</ele><time>2026-04-19T11:35:02.475Z</time></trkpt><trkpt lat="40.591965" lon="8.2985683"><ele>3.0</ele><time>2026-04-19T11:35:03.474Z</time></trkpt><trkpt lat="40.59187" lon="8.29879"><ele>2.3333333333333335</ele><time>2026-04-19T11:35:04.474Z</time></trkpt><trkpt lat="40.5917783" lon="8.2990117"><ele>1.6666666666666665</ele><time>2026-04-19T11:35:05.475Z</time></trkpt><trkpt lat="40.5916867" lon="8.2992317"><ele>1.0</ele><time>2026-04-19T11:35:06.474Z</time></trkpt><trkpt lat="40.5916067" lon="8.2994533"><ele>1.0</ele><time>2026-04-19T11:35:07.474Z</time></trkpt><trkpt lat="40.5915217" lon="8.2996767"><ele>1.0</ele><time>2026-04-19T11:35:08.474Z</time></trkpt><trkpt lat="40.59143" lon="8.2998983"><ele>1.0</ele><time>2026-04-19T11:35:09.474Z</time></trkpt><trkpt lat="40.5913383" lon="8.3001117"><ele>1.0</ele><time>2026-04-19T11:35:10.474Z</time></trkpt><trkpt lat="40.5912517" lon="8.30031"><ele>1.0</ele><time>2026-04-19T11:35:11.475Z</time></trkpt><trkpt lat="40.591175" lon="8.3005067"><ele>1.0</ele><time>2026-04-19T11:35:12.475Z</time></trkpt><trkpt lat="40.5910933" lon="8.3006933"><ele>1.0</ele><time>2026-04-19T11:35:13.475Z</time></trkpt><trkpt lat="40.591005" lon="8.3008933"><ele>1.0</ele><time>2026-04-19T11:35:14.474Z</time></trkpt><trkpt lat="40.5909183" lon="8.3010883"><ele>1.0</ele><time>2026-04-19T11:35:15.475Z</time></trkpt><trkpt lat="40.5908433" lon="8.3012683"><ele>2.0</ele><time>2026-04-19T11:35:16.475Z</time></trkpt><trkpt lat="40.5907617" lon="8.3014417"><ele>3.0</ele><time>2026-04-19T11:35:17.474Z</time></trkpt><trkpt lat="40.5906767" lon="8.3016067"><ele>4.0</ele><time>2026-04-19T11:35:18.474Z</time></trkpt><trkpt lat="40.5905833" lon="8.30177"><ele>4.0</ele><time>2026-04-19T11:35:19.474Z</time></trkpt><trkpt lat="40.5904867" lon="8.3019267"><ele>4.0</ele><time>2026-04-19T11:35:20.474Z</time></trkpt><trkpt lat="40.59039" lon="8.3020767"><ele>4.0</ele><time>2026-04-19T11:35:21.474Z</time></trkpt><trkpt lat="40.59028" lon="8.3022267"><ele>3.6666666666666665</ele><time>2026-04-19T11:35:22.475Z</time></trkpt><trkpt lat="40.590175" lon="8.30238"><ele>3.333333333333333</ele><time>2026-04-19T11:35:23.474Z</time></trkpt><trkpt lat="40.5900717" lon="8.302545"><ele>3.0</ele><time>2026-04-19T11:35:24.475Z</time></trkpt><trkpt lat="40.5899683" lon="8.3026917"><ele>3.0</ele><time>2026-04-19T11:35:25.474Z</time></trkpt><trkpt lat="40.5898733" lon="8.3028417"><ele>3.0</ele><time>2026-04-19T11:35:26.474Z</time></trkpt><trkpt lat="40.58977" lon="8.3029967"><ele>3.0</ele><time>2026-04-19T11:35:27.474Z</time></trkpt><trkpt lat="40.5896683" lon="8.3031433"><ele>3.0</ele><time>2026-04-19T11:35:28.475Z</time></trkpt><trkpt lat="40.5895783" lon="8.3032833"><ele>3.0</ele><time>2026-04-19T11:35:29.474Z</time></trkpt><trkpt lat="40.589475" lon="8.303435"><ele>3.0</ele><time>2026-04-19T11:35:30.474Z</time></trkpt><trkpt lat="40.5893733" lon="8.303585"><ele>3.0</ele><time>2026-04-19T11:35:31.474Z</time></trkpt><trkpt lat="40.5892817" lon="8.3037317"><ele>3.333333333333333</ele><time>2026-04-19T11:35:32.475Z</time></trkpt><trkpt lat="40.589185" lon="8.303875"><ele>3.6666666666666665</ele><time>2026-04-19T11:35:33.475Z</time></trkpt><trkpt lat="40.58909" lon="8.3040283"><ele>4.0</ele><time>2026-04-19T11:35:34.474Z</time></trkpt><trkpt lat="40.5889883" lon="8.304185"><ele>3.5</ele><time>2026-04-19T11:35:35.475Z</time></trkpt><trkpt lat="40.588895" lon="8.304335"><ele>3.0</ele><time>2026-04-19T11:35:36.474Z</time></trkpt><trkpt lat="40.5887983" lon="8.304485"><ele>2.5</ele><time>2026-04-19T11:35:37.474Z</time></trkpt><trkpt lat="40.5887" lon="8.30463"><ele>2.0</ele><time>2026-04-19T11:35:38.474Z</time></trkpt><trkpt lat="40.5886" lon="8.304775"><ele>2.0</ele><time>2026-04-19T11:35:39.475Z</time></trkpt><trkpt lat="40.5885" lon="8.3049217"><ele>2.0</ele><time>2026-04-19T11:35:40.474Z</time></trkpt><trkpt lat="40.588405" lon="8.305065"><ele>2.0</ele><time>2026-04-19T11:35:41.475Z</time></trkpt><trkpt lat="40.5883117" lon="8.3052017"><ele>2.0</ele><time>2026-04-19T11:35:42.475Z</time></trkpt><trkpt lat="40.5882167" lon="8.3053417"><ele>2.0</ele><time>2026-04-19T11:35:43.474Z</time></trkpt><trkpt lat="40.58813" lon="8.3054883"><ele>2.0</ele><time>2026-04-19T11:35:44.474Z</time></trkpt><trkpt lat="40.5880433" lon="8.3056217"><ele>2.0</ele><time>2026-04-19T11:35:45.474Z</time></trkpt><trkpt lat="40.5879483" lon="8.3057517"><ele>2.0</ele><time>2026-04-19T11:35:46.475Z</time></trkpt><trkpt lat="40.5878683" lon="8.30588"><ele>2.5</ele><time>2026-04-19T11:35:47.475Z</time></trkpt><trkpt lat="40.58779" lon="8.30601"><ele>3.0</ele><time>2026-04-19T11:35:48.475Z</time></trkpt><trkpt lat="40.587705" lon="8.3061267"><ele>3.5</ele><time>2026-04-19T11:35:49.475Z</time></trkpt><trkpt lat="40.5876217" lon="8.3062467"><ele>4.0</ele><time>2026-04-19T11:35:50.475Z</time></trkpt><trkpt lat="40.58754" lon="8.3063667"><ele>4.0</ele><time>2026-04-19T11:35:51.474Z</time></trkpt><trkpt lat="40.58746" lon="8.306485"><ele>4.0</ele><time>2026-04-19T11:35:52.474Z</time></trkpt><trkpt lat="40.5873867" lon="8.306595"><ele>4.0</ele><time>2026-04-19T11:35:53.475Z</time></trkpt><trkpt lat="40.5873167" lon="8.3067"><ele>4.0</ele><time>2026-04-19T11:35:54.475Z</time></trkpt><trkpt lat="40.5872517" lon="8.3068033"><ele>4.0</ele><time>2026-04-19T11:35:55.475Z</time></trkpt><trkpt lat="40.58719" lon="8.3069033"><ele>4.0</ele><time>2026-04-19T11:35:56.474Z</time></trkpt><trkpt lat="40.5871267" lon="8.3069933"><ele>4.0</ele><time>2026-04-19T11:35:57.475Z</time></trkpt><trkpt lat="40.587065" lon="8.307075"><ele>4.0</ele><time>2026-04-19T11:35:58.474Z</time></trkpt><trkpt lat="40.5870033" lon="8.3071717"><ele>4.0</ele><time>2026-04-19T11:35:59.474Z</time></trkpt><trkpt lat="40.5869367" lon="8.30726"><ele>4.0</ele><time>2026-04-19T11:36:00.475Z</time></trkpt><trkpt lat="40.5868767" lon="8.30736"><ele>4.800000000000001</ele><time>2026-04-19T11:36:01.475Z</time></trkpt><trkpt lat="40.5868083" lon="8.3074583"><ele>5.6000000000000005</ele><time>2026-04-19T11:36:02.475Z</time></trkpt><trkpt lat="40.58674" lon="8.307565"><ele>6.4</ele><time>2026-04-19T11:36:03.474Z</time></trkpt><trkpt lat="40.586665" lon="8.3076733"><ele>7.2</ele><time>2026-04-19T11:36:04.474Z</time></trkpt><trkpt lat="40.5865917" lon="8.3077933"><ele>8.0</ele><time>2026-04-19T11:36:05.474Z</time></trkpt><trkpt lat="40.586505" lon="8.3079333"><ele>8.0</ele><time>2026-04-19T11:36:06.474Z</time></trkpt><trkpt lat="40.586415" lon="8.308075"><ele>8.0</ele><time>2026-04-19T11:36:07.475Z</time></trkpt><trkpt lat="40.5863317" lon="8.3082083"><ele>8.0</ele><time>2026-04-19T11:36:08.474Z</time></trkpt><trkpt lat="40.58624" lon="8.3083433"><ele>8.0</ele><time>2026-04-19T11:36:09.475Z</time></trkpt><trkpt lat="40.5861633" lon="8.30845"><ele>8.4</ele><time>2026-04-19T11:36:10.474Z</time></trkpt><trkpt lat="40.58609" lon="8.3085467"><ele>8.8</ele><time>2026-04-19T11:36:11.475Z</time></trkpt><trkpt lat="40.5860217" lon="8.308635"><ele>9.2</ele><time>2026-04-19T11:36:12.474Z</time></trkpt><trkpt lat="40.5859633" lon="8.3087083"><ele>9.6</ele><time>2026-04-19T11:36:13.475Z</time></trkpt><trkpt lat="40.5858917" lon="8.3087967"><ele>10.0</ele><time>2026-04-19T11:36:14.475Z</time></trkpt><trkpt lat="40.5858067" lon="8.3088867"><ele>9.25</ele><time>2026-04-19T11:36:15.474Z</time></trkpt><trkpt lat="40.5857167" lon="8.3089733"><ele>8.5</ele><time>2026-04-19T11:36:16.474Z</time></trkpt><trkpt lat="40.5856033" lon="8.3090733"><ele>7.75</ele><time>2026-04-19T11:36:17.474Z</time></trkpt><trkpt lat="40.5854833" lon="8.3091733"><ele>7.0</ele><time>2026-04-19T11:36:18.474Z</time></trkpt><trkpt lat="40.5853567" lon="8.30929"><ele>9.0</ele><time>2026-04-19T11:36:19.474Z</time></trkpt><trkpt lat="40.5852333" lon="8.3094033"><ele>11.0</ele><time>2026-04-19T11:36:20.474Z</time></trkpt><trkpt lat="40.5851117" lon="8.3095267"><ele>13.0</ele><time>2026-04-19T11:36:21.474Z</time></trkpt><trkpt lat="40.5849933" lon="8.3096517"><ele>11.75</ele><time>2026-04-19T11:36:22.474Z</time></trkpt><trkpt lat="40.5848783" lon="8.3097667"><ele>10.5</ele><time>2026-04-19T11:36:23.475Z</time></trkpt><trkpt lat="40.5847683" lon="8.3098817"><ele>9.25</ele><time>2026-04-19T11:36:24.475Z</time></trkpt><trkpt lat="40.584675" lon="8.3099833"><ele>8.0</ele><time>2026-04-19T11:36:25.475Z</time></trkpt><trkpt lat="40.5845833" lon="8.31009"><ele>9.0</ele><time>2026-04-19T11:36:26.474Z</time></trkpt><trkpt lat="40.5844767" lon="8.3101917"><ele>10.0</ele><time>2026-04-19T11:36:27.474Z</time></trkpt><trkpt lat="40.584375" lon="8.31029"><ele>11.0</ele><time>2026-04-19T11:36:28.474Z</time></trkpt><trkpt lat="40.58427" lon="8.3103883"><ele>12.0</ele><time>2026-04-19T11:36:29.474Z</time></trkpt><trkpt lat="40.584165" lon="8.3104867"><ele>10.5</ele><time>2026-04-19T11:36:30.475Z</time></trkpt><trkpt lat="40.5840567" lon="8.3105783"><ele>9.0</ele><time>2026-04-19T11:36:31.474Z</time></trkpt><trkpt lat="40.5839467" lon="8.3106633"><ele>7.5</ele><time>2026-04-19T11:36:32.474Z</time></trkpt><trkpt lat="40.5838383" lon="8.3107317"><ele>6.0</ele><time>2026-04-19T11:36:33.475Z</time></trkpt><trkpt lat="40.58372" lon="8.3108"><ele>7.25</ele><time>2026-04-19T11:36:34.474Z</time></trkpt><trkpt lat="40.5835933" lon="8.310865"><ele>8.5</ele><time>2026-04-19T11:36:35.475Z</time></trkpt><trkpt lat="40.5834717" lon="8.310925"><ele>9.75</ele><time>2026-04-19T11:36:36.475Z</time></trkpt><trkpt lat="40.583335" lon="8.31099"><ele>11.0</ele><time>2026-04-19T11:36:37.474Z</time></trkpt><trkpt lat="40.5831967" lon="8.311045"><ele>11.0</ele><time>2026-04-19T11:36:38.475Z</time></trkpt><trkpt lat="40.5830667" lon="8.3110967"><ele>11.0</ele><time>2026-04-19T11:36:39.475Z</time></trkpt><trkpt lat="40.5829417" lon="8.31115"><ele>11.0</ele><time>2026-04-19T11:36:40.474Z</time></trkpt><trkpt lat="40.5828133" lon="8.3112033"><ele>11.0</ele><time>2026-04-19T11:36:41.475Z</time></trkpt><trkpt lat="40.5826767" lon="8.3112633"><ele>11.75</ele><time>2026-04-19T11:36:42.474Z</time></trkpt><trkpt lat="40.5825367" lon="8.3113233"><ele>12.5</ele><time>2026-04-19T11:36:43.475Z</time></trkpt><trkpt lat="40.5824033" lon="8.31138"><ele>13.25</ele><time>2026-04-19T11:36:44.475Z</time></trkpt><trkpt lat="40.5822767" lon="8.3114383"><ele>14.0</ele><time>2026-04-19T11:36:45.475Z</time></trkpt><trkpt lat="40.5821567" lon="8.3114883"><ele>12.0</ele><time>2026-04-19T11:36:46.474Z</time></trkpt><trkpt lat="40.5820383" lon="8.3115333"><ele>10.0</ele><time>2026-04-19T11:36:47.474Z</time></trkpt><trkpt lat="40.581915" lon="8.3115767"><ele>8.0</ele><time>2026-04-19T11:36:48.474Z</time></trkpt><trkpt lat="40.5817867" lon="8.3116167"><ele>6.0</ele><time>2026-04-19T11:36:49.475Z</time></trkpt><trkpt lat="40.581665" lon="8.3116617"><ele>6.0</ele><time>2026-04-19T11:36:50.475Z</time></trkpt><trkpt lat="40.5815383" lon="8.311705"><ele>6.0</ele><time>2026-04-19T11:36:51.474Z</time></trkpt><trkpt lat="40.5814167" lon="8.3117383"><ele>6.0</ele><time>2026-04-19T11:36:52.474Z</time></trkpt><trkpt lat="40.5812967" lon="8.31178"><ele>6.0</ele><time>2026-04-19T11:36:53.475Z</time></trkpt><trkpt lat="40.58118" lon="8.3118133"><ele>5.8</ele><time>2026-04-19T11:36:54.475Z</time></trkpt><trkpt lat="40.581075" lon="8.3118517"><ele>5.6</ele><time>2026-04-19T11:36:55.474Z</time></trkpt><trkpt lat="40.580965" lon="8.31189"><ele>5.4</ele><time>2026-04-19T11:36:56.475Z</time></trkpt><trkpt lat="40.5808583" lon="8.3119167"><ele>5.2</ele><time>2026-04-19T11:36:57.475Z</time></trkpt><trkpt lat="40.5807617" lon="8.3119483"><ele>5.0</ele><time>2026-04-19T11:36:58.475Z</time></trkpt><trkpt lat="40.5806533" lon="8.31199"><ele>5.0</ele><time>2026-04-19T11:36:59.474Z</time></trkpt><trkpt lat="40.5805383" lon="8.312035"><ele>5.0</ele><time>2026-04-19T11:37:00.475Z</time></trkpt><trkpt lat="40.5804217" lon="8.3120717"><ele>5.0</ele><time>2026-04-19T11:37:01.474Z</time></trkpt><trkpt lat="40.5803283" lon="8.3121017"><ele>5.0</ele><time>2026-04-19T11:37:02.474Z</time></trkpt><trkpt lat="40.5802433" lon="8.312125"><ele>5.0</ele><time>2026-04-19T11:37:03.474Z</time></trkpt><trkpt lat="40.58018" lon="8.3121417"><ele>5.0</ele><time>2026-04-19T11:37:04.475Z</time></trkpt><trkpt lat="40.5800917" lon="8.3121667"><ele>5.0</ele><time>2026-04-19T11:37:06.475Z</time></trkpt><trkpt lat="40.5800083" lon="8.3122017"><ele>5.0</ele><time>2026-04-19T11:37:08.474Z</time></trkpt><trkpt lat="40.5799067" lon="8.3122517"><ele>5.0</ele><time>2026-04-19T11:37:10.475Z</time></trkpt><trkpt lat="40.579785" lon="8.3123017"><ele>5.0</ele><time>2026-04-19T11:37:12.474Z</time></trkpt><trkpt lat="40.5797117" lon="8.3123467"><ele>4.833333333333334</ele><time>2026-04-19T11:37:13.474Z</time></trkpt><trkpt lat="40.57964" lon="8.3123983"><ele>4.666666666666667</ele><time>2026-04-19T11:37:14.474Z</time></trkpt><trkpt lat="40.5795583" lon="8.3124517"><ele>4.5</ele><time>2026-04-19T11:37:15.475Z</time></trkpt><trkpt lat="40.5794833" lon="8.3125017"><ele>4.333333333333333</ele><time>2026-04-19T11:37:16.474Z</time></trkpt><trkpt lat="40.5794117" lon="8.3125617"><ele>4.166666666666666</ele><time>2026-04-19T11:37:17.474Z</time></trkpt><trkpt lat="40.57934" lon="8.312615"><ele>4.0</ele><time>2026-04-19T11:37:18.474Z</time></trkpt><trkpt lat="40.5792667" lon="8.3126717"><ele>4.333333333333333</ele><time>2026-04-19T11:37:19.475Z</time></trkpt><trkpt lat="40.579195" lon="8.31273"><ele>4.666666666666666</ele><time>2026-04-19T11:37:20.475Z</time></trkpt><trkpt lat="40.5791233" lon="8.3127783"><ele>5.0</ele><time>2026-04-19T11:37:21.474Z</time></trkpt><trkpt lat="40.5790483" lon="8.312825"><ele>5.333333333333333</ele><time>2026-04-19T11:37:22.475Z</time></trkpt><trkpt lat="40.5789717" lon="8.3128717"><ele>5.666666666666667</ele><time>2026-04-19T11:37:23.475Z</time></trkpt><trkpt lat="40.57889" lon="8.31293"><ele>6.0</ele><time>2026-04-19T11:37:24.474Z</time></trkpt><trkpt lat="40.5788117" lon="8.3129917"><ele>6.0</ele><time>2026-04-19T11:37:25.474Z</time></trkpt><trkpt lat="40.578745" lon="8.3130433"><ele>6.0</ele><time>2026-04-19T11:37:26.475Z</time></trkpt><trkpt lat="40.578675" lon="8.3131033"><ele>6.0</ele><time>2026-04-19T11:37:27.475Z</time></trkpt><trkpt lat="40.5785983" lon="8.3131567"><ele>6.0</ele><time>2026-04-19T11:37:28.474Z</time></trkpt><trkpt lat="40.57852" lon="8.31321"><ele>6.0</ele><time>2026-04-19T11:37:29.474Z</time></trkpt><trkpt lat="40.5784417" lon="8.313265"><ele>6.0</ele><time>2026-04-19T11:37:30.475Z</time></trkpt><trkpt lat="40.578365" lon="8.313315"><ele>6.0</ele><time>2026-04-19T11:37:31.474Z</time></trkpt><trkpt lat="40.57829" lon="8.3133633"><ele>6.0</ele><time>2026-04-19T11:37:32.475Z</time></trkpt><trkpt lat="40.57822" lon="8.3134083"><ele>6.0</ele><time>2026-04-19T11:37:33.474Z</time></trkpt><trkpt lat="40.578155" lon="8.313445"><ele>6.0</ele><time>2026-04-19T11:37:34.474Z</time></trkpt><trkpt lat="40.5780817" lon="8.3134817"><ele>6.0</ele><time>2026-04-19T11:37:35.474Z</time></trkpt><trkpt lat="40.57801" lon="8.313515"><ele>6.0</ele><time>2026-04-19T11:37:36.474Z</time></trkpt><trkpt lat="40.5779417" lon="8.3135433"><ele>5.999999999999999</ele><time>2026-04-19T11:37:37.474Z</time></trkpt><trkpt lat="40.5778717" lon="8.3135767"><ele>6.0</ele><time>2026-04-19T11:37:38.475Z</time></trkpt><trkpt lat="40.5778017" lon="8.3136033"><ele>6.0</ele><time>2026-04-19T11:37:39.474Z</time></trkpt><trkpt lat="40.5777283" lon="8.313635"><ele>6.0</ele><time>2026-04-19T11:37:40.474Z</time></trkpt><trkpt lat="40.5776567" lon="8.3136683"><ele>6.0</ele><time>2026-04-19T11:37:41.475Z</time></trkpt><trkpt lat="40.57759" lon="8.3137033"><ele>5.999999999999999</ele><time>2026-04-19T11:37:42.475Z</time></trkpt><trkpt lat="40.57752" lon="8.3137333"><ele>6.0</ele><time>2026-04-19T11:37:43.474Z</time></trkpt><trkpt lat="40.577455" lon="8.3137567"><ele>5.7142857142857135</ele><time>2026-04-19T11:37:44.474Z</time></trkpt><trkpt lat="40.5773867" lon="8.3137833"><ele>5.428571428571429</ele><time>2026-04-19T11:37:45.474Z</time></trkpt><trkpt lat="40.5773267" lon="8.31382"><ele>5.142857142857142</ele><time>2026-04-19T11:37:46.474Z</time></trkpt><trkpt lat="40.5772683" lon="8.3138617"><ele>4.857142857142857</ele><time>2026-04-19T11:37:47.474Z</time></trkpt><trkpt lat="40.57721" lon="8.3138967"><ele>4.571428571428571</ele><time>2026-04-19T11:37:48.475Z</time></trkpt><trkpt lat="40.57714" lon="8.3139417"><ele>4.285714285714286</ele><time>2026-04-19T11:37:50.475Z</time></trkpt><trkpt lat="40.5770633" lon="8.314005"><ele>4.0</ele><time>2026-04-19T11:37:57.474Z</time></trkpt><trkpt lat="40.5770067" lon="8.3140567"><ele>3.4000000000000004</ele><time>2026-04-19T11:37:58.474Z</time></trkpt><trkpt lat="40.5769183" lon="8.3141233"><ele>2.8000000000000003</ele><time>2026-04-19T11:38:00.475Z</time></trkpt><trkpt lat="40.5768533" lon="8.3141883"><ele>2.2</ele><time>2026-04-19T11:38:02.475Z</time></trkpt><trkpt lat="40.5767833" lon="8.31424"><ele>1.6</ele><time>2026-04-19T11:38:04.475Z</time></trkpt><trkpt lat="40.5767" lon="8.3143033"><ele>1.0</ele><time>2026-04-19T11:38:06.475Z</time></trkpt><trkpt lat="40.5766117" lon="8.3143883"><ele>0.9999999999999999</ele><time>2026-04-19T11:38:08.475Z</time></trkpt><trkpt lat="40.5765117" lon="8.31448"><ele>1.0</ele><time>2026-04-19T11:38:10.474Z</time></trkpt><trkpt lat="40.57641" lon="8.3145717"><ele>1.0</ele><time>2026-04-19T11:38:12.474Z</time></trkpt><trkpt lat="40.5763583" lon="8.3146233"><ele>1.0</ele><time>2026-04-19T11:38:13.475Z</time></trkpt><trkpt lat="40.5763" lon="8.3146667"><ele>0.9999999999999999</ele><time>2026-04-19T11:38:14.475Z</time></trkpt><trkpt lat="40.5762467" lon="8.314715"><ele>1.0</ele><time>2026-04-19T11:38:15.474Z</time></trkpt><trkpt lat="40.5761933" lon="8.31476"><ele>1.4</ele><time>2026-04-19T11:38:16.474Z</time></trkpt><trkpt lat="40.5761367" lon="8.3148133"><ele>1.8</ele><time>2026-04-19T11:38:17.475Z</time></trkpt><trkpt lat="40.57608" lon="8.314865"><ele>2.1999999999999997</ele><time>2026-04-19T11:38:18.475Z</time></trkpt><trkpt lat="40.5759783" lon="8.3149417"><ele>2.6</ele><time>2026-04-19T11:38:20.474Z</time></trkpt><trkpt lat="40.57588" lon="8.315025"><ele>3.0</ele><time>2026-04-19T11:38:22.475Z</time></trkpt><trkpt lat="40.5757967" lon="8.3151117"><ele>3.0</ele><time>2026-04-19T11:38:24.475Z</time></trkpt><trkpt lat="40.5757233" lon="8.3151733"><ele>3.0</ele><time>2026-04-19T11:38:26.474Z</time></trkpt><trkpt lat="40.5756583" lon="8.315225"><ele>3.0</ele><time>2026-04-19T11:38:28.474Z</time></trkpt><trkpt lat="40.5755833" lon="8.3152817"><ele>3.0</ele><time>2026-04-19T11:38:30.475Z</time></trkpt><trkpt lat="40.5755217" lon="8.3153317"><ele>3.0</ele><time>2026-04-19T11:38:33.475Z</time></trkpt><trkpt lat="40.5754533" lon="8.3153833"><ele>3.0</ele><time>2026-04-19T11:38:42.474Z</time></trkpt><trkpt lat="40.575365" lon="8.3154767"><ele>2.8333333333333335</ele><time>2026-04-19T11:38:44.474Z</time></trkpt><trkpt lat="40.575315" lon="8.3155317"><ele>2.6666666666666665</ele><time>2026-04-19T11:38:45.474Z</time></trkpt><trkpt lat="40.5752567" lon="8.3155933"><ele>2.5</ele><time>2026-04-19T11:38:46.475Z</time></trkpt><trkpt lat="40.5751917" lon="8.3156517"><ele>2.333333333333333</ele><time>2026-04-19T11:38:47.475Z</time></trkpt><trkpt lat="40.57512" lon="8.3157167"><ele>2.1666666666666665</ele><time>2026-04-19T11:38:48.475Z</time></trkpt><trkpt lat="40.5750433" lon="8.315785"><ele>2.0</ele><time>2026-04-19T11:38:49.475Z</time></trkpt><trkpt lat="40.574965" lon="8.3158533"><ele>1.9999999999999998</ele><time>2026-04-19T11:38:50.474Z</time></trkpt><trkpt lat="40.5748867" lon="8.3159133"><ele>2.0</ele><time>2026-04-19T11:38:51.474Z</time></trkpt><trkpt lat="40.5748133" lon="8.31597"><ele>2.0</ele><time>2026-04-19T11:38:52.475Z</time></trkpt><trkpt lat="40.57474" lon="8.31604"><ele>2.0</ele><time>2026-04-19T11:38:53.475Z</time></trkpt><trkpt lat="40.5746733" lon="8.3161083"><ele>1.9999999999999998</ele><time>2026-04-19T11:38:54.474Z</time></trkpt><trkpt lat="40.5746" lon="8.3161767"><ele>2.0</ele><time>2026-04-19T11:38:55.474Z</time></trkpt><trkpt lat="40.5745283" lon="8.3162333"><ele>1.8333333333333333</ele><time>2026-04-19T11:38:56.475Z</time></trkpt><trkpt lat="40.5744567" lon="8.3162967"><ele>1.6666666666666665</ele><time>2026-04-19T11:38:57.475Z</time></trkpt><trkpt lat="40.574385" lon="8.3163667"><ele>1.5</ele><time>2026-04-19T11:38:58.475Z</time></trkpt><trkpt lat="40.574315" lon="8.3164367"><ele>1.3333333333333333</ele><time>2026-04-19T11:38:59.474Z</time></trkpt><trkpt lat="40.5742367" lon="8.3165067"><ele>1.1666666666666665</ele><time>2026-04-19T11:39:00.475Z</time></trkpt><trkpt lat="40.5741583" lon="8.3165667"><ele>1.0</ele><time>2026-04-19T11:39:01.474Z</time></trkpt><trkpt lat="40.574075" lon="8.3166367"><ele>1.0</ele><time>2026-04-19T11:39:02.474Z</time></trkpt><trkpt lat="40.5739867" lon="8.3167067"><ele>1.0</ele><time>2026-04-19T11:39:03.475Z</time></trkpt><trkpt lat="40.5739083" lon="8.31678"><ele>1.0</ele><time>2026-04-19T11:39:04.475Z</time></trkpt><trkpt lat="40.5738333" lon="8.3168467"><ele>1.0</ele><time>2026-04-19T11:39:05.474Z</time></trkpt><trkpt lat="40.573755" lon="8.3169217"><ele>1.0</ele><time>2026-04-19T11:39:06.474Z</time></trkpt><trkpt lat="40.5736717" lon="8.317"><ele>0.8</ele><time>2026-04-19T11:39:07.473Z</time></trkpt><trkpt lat="40.573595" lon="8.317075"><ele>0.6000000000000001</ele><time>2026-04-19T11:39:08.473Z</time></trkpt><trkpt lat="40.5735133" lon="8.3171533"><ele>0.4</ele><time>2026-04-19T11:39:09.473Z</time></trkpt><trkpt lat="40.5734283" lon="8.317225"><ele>0.2</ele><time>2026-04-19T11:39:10.474Z</time></trkpt><trkpt lat="40.57334" lon="8.3172933"><ele>0.0</ele><time>2026-04-19T11:39:11.474Z</time></trkpt><trkpt lat="40.57326" lon="8.3173667"><ele>0.0</ele><time>2026-04-19T11:39:12.474Z</time></trkpt><trkpt lat="40.5731767" lon="8.3174383"><ele>0.0</ele><time>2026-04-19T11:39:13.474Z</time></trkpt><trkpt lat="40.5730933" lon="8.3174933"><ele>0.0</ele><time>2026-04-19T11:39:14.474Z</time></trkpt><trkpt lat="40.5730083" lon="8.317535"><ele>0.0</ele><time>2026-04-19T11:39:15.473Z</time></trkpt><trkpt lat="40.5729333" lon="8.31757"><ele>0.0</ele><time>2026-04-19T11:39:16.473Z</time></trkpt><trkpt lat="40.5728617" lon="8.3175967"><ele>0.0</ele><time>2026-04-19T11:39:17.474Z</time></trkpt><trkpt lat="40.5728" lon="8.3176267"><ele>0.0</ele><time>2026-04-19T11:39:18.474Z</time></trkpt><trkpt lat="40.5727383" lon="8.3176517"><ele>0.0</ele><time>2026-04-19T11:39:19.473Z</time></trkpt><trkpt lat="40.572675" lon="8.317675"><ele>0.0</ele><time>2026-04-19T11:39:20.474Z</time></trkpt><trkpt lat="40.5725617" lon="8.3177133"><ele>0.0</ele><time>2026-04-19T11:39:22.474Z</time></trkpt><trkpt lat="40.5724567" lon="8.3177617"><ele>0.0</ele><time>2026-04-19T11:39:24.474Z</time></trkpt><trkpt lat="40.5723617" lon="8.317805"><ele>0.0</ele><time>2026-04-19T11:39:26.474Z</time></trkpt><trkpt lat="40.572245" lon="8.3178567"><ele>0.0</ele><time>2026-04-19T11:39:28.474Z</time></trkpt><trkpt lat="40.5721717" lon="8.3178867"><ele>0.0</ele><time>2026-04-19T11:39:29.473Z</time></trkpt><trkpt lat="40.57209" lon="8.3179167"><ele>0.0</ele><time>2026-04-19T11:39:30.473Z</time></trkpt><trkpt lat="40.5720083" lon="8.3179467"><ele>0.0</ele><time>2026-04-19T11:39:31.474Z</time></trkpt><trkpt lat="40.57193" lon="8.317985"><ele>0.0</ele><time>2026-04-19T11:39:32.474Z</time></trkpt><trkpt lat="40.571845" lon="8.31802"><ele>0.0</ele><time>2026-04-19T11:39:33.474Z</time></trkpt><trkpt lat="40.5717633" lon="8.3180517"><ele>0.0</ele><time>2026-04-19T11:39:34.474Z</time></trkpt><trkpt lat="40.57169" lon="8.3180817"><ele>0.0</ele><time>2026-04-19T11:39:35.473Z</time></trkpt><trkpt lat="40.5716267" lon="8.318105"><ele>0.0</ele><time>2026-04-19T11:39:36.474Z</time></trkpt><trkpt lat="40.5715183" lon="8.31815"><ele>0.0</ele><time>2026-04-19T11:39:38.474Z</time></trkpt><trkpt lat="40.571435" lon="8.31818"><ele>0.4</ele><time>2026-04-19T11:39:40.473Z</time></trkpt><trkpt lat="40.5713417" lon="8.3182133"><ele>0.8</ele><time>2026-04-19T11:39:42.473Z</time></trkpt><trkpt lat="40.5712383" lon="8.3182467"><ele>1.2000000000000002</ele><time>2026-04-19T11:39:44.473Z</time></trkpt><trkpt lat="40.5711267" lon="8.318285"><ele>1.6</ele><time>2026-04-19T11:39:46.474Z</time></trkpt><trkpt lat="40.5710617" lon="8.3183083"><ele>2.0</ele><time>2026-04-19T11:39:47.474Z</time></trkpt><trkpt lat="40.5709917" lon="8.3183367"><ele>1.9999999999999998</ele><time>2026-04-19T11:39:48.474Z</time></trkpt><trkpt lat="40.5709217" lon="8.31837"><ele>2.0</ele><time>2026-04-19T11:39:49.473Z</time></trkpt><trkpt lat="40.5708483" lon="8.3183983"><ele>2.0</ele><time>2026-04-19T11:39:50.473Z</time></trkpt><trkpt lat="40.5707717" lon="8.31842"><ele>2.0</ele><time>2026-04-19T11:39:51.473Z</time></trkpt><trkpt lat="40.5706967" lon="8.3184483"><ele>1.9999999999999998</ele><time>2026-04-19T11:39:52.474Z</time></trkpt><trkpt lat="40.5706183" lon="8.3184817"><ele>2.0</ele><time>2026-04-19T11:39:53.473Z</time></trkpt><trkpt lat="40.5705317" lon="8.3185183"><ele>2.0</ele><time>2026-04-19T11:39:54.473Z</time></trkpt><trkpt lat="40.57044" lon="8.3185567"><ele>2.0</ele><time>2026-04-19T11:39:55.474Z</time></trkpt><trkpt lat="40.5703417" lon="8.3185983"><ele>2.0</ele><time>2026-04-19T11:39:56.473Z</time></trkpt><trkpt lat="40.5702517" lon="8.318645"><ele>2.0</ele><time>2026-04-19T11:39:57.474Z</time></trkpt><trkpt lat="40.57016" lon="8.3186767"><ele>2.0</ele><time>2026-04-19T11:39:58.474Z</time></trkpt><trkpt lat="40.5700667" lon="8.31872"><ele>1.6</ele><time>2026-04-19T11:39:59.473Z</time></trkpt><trkpt lat="40.56997" lon="8.3187583"><ele>1.2000000000000002</ele><time>2026-04-19T11:40:00.474Z</time></trkpt><trkpt lat="40.569885" lon="8.3187867"><ele>0.8</ele><time>2026-04-19T11:40:01.474Z</time></trkpt><trkpt lat="40.5697983" lon="8.3188167"><ele>0.4</ele><time>2026-04-19T11:40:02.474Z</time></trkpt><trkpt lat="40.56971" lon="8.31885"><ele>0.0</ele><time>2026-04-19T11:40:03.474Z</time></trkpt><trkpt lat="40.5696283" lon="8.31889"><ele>0.5</ele><time>2026-04-19T11:40:04.474Z</time></trkpt><trkpt lat="40.5695383" lon="8.3189367"><ele>1.0</ele><time>2026-04-19T11:40:05.473Z</time></trkpt><trkpt lat="40.569465" lon="8.3189917"><ele>1.5</ele><time>2026-04-19T11:40:06.473Z</time></trkpt><trkpt lat="40.5693933" lon="8.31904"><ele>2.0</ele><time>2026-04-19T11:40:07.474Z</time></trkpt><trkpt lat="40.5693283" lon="8.3190817"><ele>2.5</ele><time>2026-04-19T11:40:08.474Z</time></trkpt><trkpt lat="40.5692567" lon="8.3191217"><ele>3.0</ele><time>2026-04-19T11:40:09.474Z</time></trkpt><trkpt lat="40.5691867" lon="8.31915"><ele>2.9999999999999996</ele><time>2026-04-19T11:40:10.473Z</time></trkpt><trkpt lat="40.5691183" lon="8.3191683"><ele>3.0</ele><time>2026-04-19T11:40:11.473Z</time></trkpt><trkpt lat="40.569045" lon="8.31918"><ele>3.0</ele><time>2026-04-19T11:40:12.473Z</time></trkpt><trkpt lat="40.56897" lon="8.3191917"><ele>3.0</ele><time>2026-04-19T11:40:13.473Z</time></trkpt><trkpt lat="40.5689017" lon="8.319205"><ele>3.0</ele><time>2026-04-19T11:40:14.473Z</time></trkpt><trkpt lat="40.5688317" lon="8.3192083"><ele>2.9999999999999996</ele><time>2026-04-19T11:40:15.474Z</time></trkpt><trkpt lat="40.5687633" lon="8.319205"><ele>3.0</ele><time>2026-04-19T11:40:16.474Z</time></trkpt><trkpt lat="40.5686917" lon="8.3191917"><ele>3.0</ele><time>2026-04-19T11:40:17.473Z</time></trkpt><trkpt lat="40.5686167" lon="8.319185"><ele>3.0</ele><time>2026-04-19T11:40:18.474Z</time></trkpt><trkpt lat="40.5685367" lon="8.3191633"><ele>3.0</ele><time>2026-04-19T11:40:19.473Z</time></trkpt><trkpt lat="40.5684517" lon="8.3191567"><ele>3.0</ele><time>2026-04-19T11:40:20.473Z</time></trkpt><trkpt lat="40.5683717" lon="8.3191533"><ele>3.0</ele><time>2026-04-19T11:40:21.473Z</time></trkpt><trkpt lat="40.568295" lon="8.3191383"><ele>3.0</ele><time>2026-04-19T11:40:22.474Z</time></trkpt><trkpt lat="40.56822" lon="8.319125"><ele>3.0</ele><time>2026-04-19T11:40:23.473Z</time></trkpt><trkpt lat="40.5681517" lon="8.3191133"><ele>3.0</ele><time>2026-04-19T11:40:24.474Z</time></trkpt><trkpt lat="40.5680733" lon="8.3191017"><ele>3.0</ele><time>2026-04-19T11:40:25.473Z</time></trkpt><trkpt lat="40.5679967" lon="8.3190833"><ele>3.0</ele><time>2026-04-19T11:40:26.473Z</time></trkpt><trkpt lat="40.5679167" lon="8.3190683"><ele>3.0</ele><time>2026-04-19T11:40:27.473Z</time></trkpt><trkpt lat="40.5678383" lon="8.3190617"><ele>3.0</ele><time>2026-04-19T11:40:28.473Z</time></trkpt><trkpt lat="40.5677617" lon="8.319045"><ele>3.0</ele><time>2026-04-19T11:40:29.474Z</time></trkpt><trkpt lat="40.567675" lon="8.3190317"><ele>3.0</ele><time>2026-04-19T11:40:30.473Z</time></trkpt><trkpt lat="40.5675917" lon="8.3190067"><ele>3.0</ele><time>2026-04-19T11:40:31.474Z</time></trkpt><trkpt lat="40.5675" lon="8.3189833"><ele>3.0</ele><time>2026-04-19T11:40:32.473Z</time></trkpt><trkpt lat="40.5674067" lon="8.3189567"><ele>3.0</ele><time>2026-04-19T11:40:33.473Z</time></trkpt><trkpt lat="40.5673183" lon="8.31893"><ele>3.0</ele><time>2026-04-19T11:40:34.474Z</time></trkpt><trkpt lat="40.5672283" lon="8.3189033"><ele>3.0</ele><time>2026-04-19T11:40:35.473Z</time></trkpt><trkpt lat="40.5671383" lon="8.3188817"><ele>3.0</ele><time>2026-04-19T11:40:36.473Z</time></trkpt><trkpt lat="40.5670483" lon="8.3188517"><ele>3.0</ele><time>2026-04-19T11:40:37.473Z</time></trkpt><trkpt lat="40.5669583" lon="8.3188217"><ele>3.0</ele><time>2026-04-19T11:40:38.474Z</time></trkpt><trkpt lat="40.5668783" lon="8.3187917"><ele>2.5</ele><time>2026-04-19T11:40:39.473Z</time></trkpt><trkpt lat="40.5667933" lon="8.3187667"><ele>2.0</ele><time>2026-04-19T11:40:40.474Z</time></trkpt><trkpt lat="40.5667117" lon="8.3187367"><ele>1.5</ele><time>2026-04-19T11:40:41.473Z</time></trkpt><trkpt lat="40.5666417" lon="8.3186983"><ele>1.0</ele><time>2026-04-19T11:40:42.473Z</time></trkpt><trkpt lat="40.5665783" lon="8.3186717"><ele>0.5</ele><time>2026-04-19T11:40:43.474Z</time></trkpt><trkpt lat="40.5664717" lon="8.3186233"><ele>0.0</ele><time>2026-04-19T11:40:45.474Z</time></trkpt><trkpt lat="40.5663783" lon="8.318585"><ele>0.0</ele><time>2026-04-19T11:40:47.473Z</time></trkpt><trkpt lat="40.5663" lon="8.318555"><ele>0.0</ele><time>2026-04-19T11:40:50.474Z</time></trkpt><trkpt lat="40.566225" lon="8.3185283"><ele>0.0</ele><time>2026-04-19T11:40:53.473Z</time></trkpt><trkpt lat="40.56613" lon="8.318475"><ele>0.0</ele><time>2026-04-19T11:41:01.473Z</time></trkpt><trkpt lat="40.5660217" lon="8.3184167"><ele>0.0</ele><time>2026-04-19T11:41:03.473Z</time></trkpt><trkpt lat="40.56595" lon="8.3183683"><ele>0.0</ele><time>2026-04-19T11:41:04.473Z</time></trkpt><trkpt lat="40.5658783" lon="8.31832"><ele>0.0</ele><time>2026-04-19T11:41:05.474Z</time></trkpt><trkpt lat="40.56581" lon="8.31828"><ele>0.0</ele><time>2026-04-19T11:41:06.474Z</time></trkpt><trkpt lat="40.5657417" lon="8.3182417"><ele>0.0</ele><time>2026-04-19T11:41:07.473Z</time></trkpt><trkpt lat="40.56568" lon="8.3181933"><ele>0.0</ele><time>2026-04-19T11:41:08.473Z</time></trkpt><trkpt lat="40.5656217" lon="8.3181483"><ele>0.0</ele><time>2026-04-19T11:41:09.474Z</time></trkpt><trkpt lat="40.5655133" lon="8.3180633"><ele>0.0</ele><time>2026-04-19T11:41:11.474Z</time></trkpt><trkpt lat="40.565455" lon="8.3180217"><ele>0.0</ele><time>2026-04-19T11:41:12.473Z</time></trkpt><trkpt lat="40.5653967" lon="8.3179767"><ele>0.0</ele><time>2026-04-19T11:41:13.473Z</time></trkpt><trkpt lat="40.56533" lon="8.317935"><ele>0.0</ele><time>2026-04-19T11:41:14.473Z</time></trkpt><trkpt lat="40.5652683" lon="8.31789"><ele>0.0</ele><time>2026-04-19T11:41:15.474Z</time></trkpt><trkpt lat="40.5652117" lon="8.317845"><ele>0.0</ele><time>2026-04-19T11:41:16.474Z</time></trkpt><trkpt lat="40.5651533" lon="8.3178067"><ele>0.0</ele><time>2026-04-19T11:41:17.474Z</time></trkpt><trkpt lat="40.5650517" lon="8.3177383"><ele>0.2</ele><time>2026-04-19T11:41:19.473Z</time></trkpt><trkpt lat="40.5649333" lon="8.3176567"><ele>0.4</ele><time>2026-04-19T11:41:21.473Z</time></trkpt><trkpt lat="40.5648617" lon="8.3176"><ele>0.6000000000000001</ele><time>2026-04-19T11:41:22.474Z</time></trkpt><trkpt lat="40.56479" lon="8.3175483"><ele>0.8</ele><time>2026-04-19T11:41:23.473Z</time></trkpt><trkpt lat="40.56472" lon="8.3174983"><ele>1.0</ele><time>2026-04-19T11:41:24.473Z</time></trkpt><trkpt lat="40.5646517" lon="8.317445"><ele>1.0</ele><time>2026-04-19T11:41:25.474Z</time></trkpt><trkpt lat="40.56459" lon="8.3173983"><ele>0.9999999999999999</ele><time>2026-04-19T11:41:26.474Z</time></trkpt><trkpt lat="40.564525" lon="8.3173567"><ele>1.0</ele><time>2026-04-19T11:41:27.474Z</time></trkpt><trkpt lat="40.5644633" lon="8.3173133"><ele>1.0</ele><time>2026-04-19T11:41:28.473Z</time></trkpt><trkpt lat="40.564395" lon="8.3172667"><ele>0.9999999999999999</ele><time>2026-04-19T11:41:29.474Z</time></trkpt><trkpt lat="40.5643267" lon="8.3172283"><ele>1.0</ele><time>2026-04-19T11:41:30.473Z</time></trkpt><trkpt lat="40.564255" lon="8.31719"><ele>1.0</ele><time>2026-04-19T11:41:31.474Z</time></trkpt><trkpt lat="40.564185" lon="8.3171483"><ele>0.9999999999999999</ele><time>2026-04-19T11:41:32.473Z</time></trkpt><trkpt lat="40.564115" lon="8.3171067"><ele>1.0</ele><time>2026-04-19T11:41:33.473Z</time></trkpt><trkpt lat="40.5640433" lon="8.3170633"><ele>1.0</ele><time>2026-04-19T11:41:34.473Z</time></trkpt><trkpt lat="40.5639683" lon="8.3170183"><ele>1.0</ele><time>2026-04-19T11:41:35.473Z</time></trkpt><trkpt lat="40.5639017" lon="8.3169817"><ele>0.9999999999999999</ele><time>2026-04-19T11:41:36.473Z</time></trkpt><trkpt lat="40.56384" lon="8.31694"><ele>1.0</ele><time>2026-04-19T11:41:37.473Z</time></trkpt><trkpt lat="40.563775" lon="8.3168983"><ele>0.9999999999999999</ele><time>2026-04-19T11:41:38.474Z</time></trkpt><trkpt lat="40.5637167" lon="8.3168667"><ele>1.0</ele><time>2026-04-19T11:41:39.474Z</time></trkpt><trkpt lat="40.5636583" lon="8.316835"><ele>1.0</ele><time>2026-04-19T11:41:40.473Z</time></trkpt><trkpt lat="40.5635683" lon="8.31678"><ele>1.0</ele><time>2026-04-19T11:41:42.473Z</time></trkpt><trkpt lat="40.5634983" lon="8.3167417"><ele>0.9999999999999999</ele><time>2026-04-19T11:41:44.473Z</time></trkpt><trkpt lat="40.5634167" lon="8.3166867"><ele>1.0</ele><time>2026-04-19T11:42:09.473Z</time></trkpt><trkpt lat="40.56333" lon="8.3166333"><ele>1.1666666666666665</ele><time>2026-04-19T11:42:11.474Z</time></trkpt><trkpt lat="40.5632717" lon="8.3166017"><ele>1.3333333333333333</ele><time>2026-04-19T11:42:12.473Z</time></trkpt><trkpt lat="40.56321" lon="8.3165667"><ele>1.5</ele><time>2026-04-19T11:42:13.474Z</time></trkpt><trkpt lat="40.563145" lon="8.3165417"><ele>1.6666666666666665</ele><time>2026-04-19T11:42:14.473Z</time></trkpt><trkpt lat="40.5630367" lon="8.3164767"><ele>1.8333333333333333</ele><time>2026-04-19T11:42:16.474Z</time></trkpt><trkpt lat="40.5629267" lon="8.3164083"><ele>2.0</ele><time>2026-04-19T11:42:18.473Z</time></trkpt><trkpt lat="40.5628133" lon="8.31634"><ele>2.0</ele><time>2026-04-19T11:42:20.473Z</time></trkpt><trkpt lat="40.5627517" lon="8.3163083"><ele>1.9999999999999998</ele><time>2026-04-19T11:42:21.474Z</time></trkpt><trkpt lat="40.5626917" lon="8.3162733"><ele>2.0</ele><time>2026-04-19T11:42:22.474Z</time></trkpt><trkpt lat="40.5626333" lon="8.3162417"><ele>2.0</ele><time>2026-04-19T11:42:23.474Z</time></trkpt><trkpt lat="40.5625717" lon="8.3162033"><ele>1.9999999999999998</ele><time>2026-04-19T11:42:24.474Z</time></trkpt><trkpt lat="40.5625083" lon="8.3161733"><ele>2.0</ele><time>2026-04-19T11:42:25.473Z</time></trkpt><trkpt lat="40.5624383" lon="8.3161367"><ele>2.0</ele><time>2026-04-19T11:42:26.474Z</time></trkpt><trkpt lat="40.5623617" lon="8.3160933"><ele>1.9999999999999998</ele><time>2026-04-19T11:42:27.473Z</time></trkpt><trkpt lat="40.562285" lon="8.31605"><ele>2.0</ele><time>2026-04-19T11:42:28.473Z</time></trkpt><trkpt lat="40.562215" lon="8.31601"><ele>2.0</ele><time>2026-04-19T11:42:29.473Z</time></trkpt><trkpt lat="40.562145" lon="8.31597"><ele>2.0</ele><time>2026-04-19T11:42:30.474Z</time></trkpt><trkpt lat="40.562075" lon="8.3159267"><ele>1.9999999999999998</ele><time>2026-04-19T11:42:31.473Z</time></trkpt><trkpt lat="40.5620017" lon="8.3158867"><ele>2.0</ele><time>2026-04-19T11:42:32.474Z</time></trkpt><trkpt lat="40.561925" lon="8.3158383"><ele>1.9999999999999998</ele><time>2026-04-19T11:42:33.473Z</time></trkpt><trkpt lat="40.5618517" lon="8.3157917"><ele>2.0</ele><time>2026-04-19T11:42:34.474Z</time></trkpt><trkpt lat="40.5617767" lon="8.3157417"><ele>2.0</ele><time>2026-04-19T11:42:35.474Z</time></trkpt><trkpt lat="40.5617033" lon="8.3156967"><ele>2.0</ele><time>2026-04-19T11:42:36.473Z</time></trkpt><trkpt lat="40.561625" lon="8.315655"><ele>1.9999999999999998</ele><time>2026-04-19T11:42:37.473Z</time></trkpt><trkpt lat="40.5615583" lon="8.315605"><ele>2.0</ele><time>2026-04-19T11:42:38.473Z</time></trkpt><trkpt lat="40.5614883" lon="8.31557"><ele>1.6666666666666665</ele><time>2026-04-19T11:42:39.474Z</time></trkpt><trkpt lat="40.5614183" lon="8.3155367"><ele>1.3333333333333333</ele><time>2026-04-19T11:42:40.473Z</time></trkpt><trkpt lat="40.561345" lon="8.3155033"><ele>1.0</ele><time>2026-04-19T11:42:41.474Z</time></trkpt><trkpt lat="40.5612733" lon="8.3154617"><ele>0.6666666666666666</ele><time>2026-04-19T11:42:42.473Z</time></trkpt><trkpt lat="40.561195" lon="8.3154217"><ele>0.3333333333333333</ele><time>2026-04-19T11:42:43.473Z</time></trkpt><trkpt lat="40.5611217" lon="8.3153817"><ele>0.0</ele><time>2026-04-19T11:42:44.474Z</time></trkpt><trkpt lat="40.561055" lon="8.3153417"><ele>0.0</ele><time>2026-04-19T11:42:45.474Z</time></trkpt><trkpt lat="40.5609817" lon="8.31531"><ele>0.0</ele><time>2026-04-19T11:42:46.474Z</time></trkpt><trkpt lat="40.5609183" lon="8.3152817"><ele>0.0</ele><time>2026-04-19T11:42:47.474Z</time></trkpt><trkpt lat="40.560855" lon="8.3152583"><ele>0.0</ele><time>2026-04-19T11:42:48.473Z</time></trkpt><trkpt lat="40.5607467" lon="8.3151933"><ele>0.0</ele><time>2026-04-19T11:42:50.473Z</time></trkpt><trkpt lat="40.560635" lon="8.3151267"><ele>0.0</ele><time>2026-04-19T11:42:52.474Z</time></trkpt><trkpt lat="40.5605283" lon="8.3150767"><ele>0.0</ele><time>2026-04-19T11:42:54.473Z</time></trkpt><trkpt lat="40.5604417" lon="8.3150517"><ele>0.0</ele><time>2026-04-19T11:42:56.474Z</time></trkpt><trkpt lat="40.560335" lon="8.315065"><ele>0.0</ele><time>2026-04-19T11:42:58.473Z</time></trkpt><trkpt lat="40.5602717" lon="8.31508"><ele>0.0</ele><time>2026-04-19T11:42:59.473Z</time></trkpt><trkpt lat="40.5602083" lon="8.3151017"><ele>0.0</ele><time>2026-04-19T11:43:00.473Z</time></trkpt><trkpt lat="40.5601483" lon="8.315135"><ele>0.8333333333333334</ele><time>2026-04-19T11:43:01.474Z</time></trkpt><trkpt lat="40.560055" lon="8.315205"><ele>1.6666666666666667</ele><time>2026-04-19T11:43:03.474Z</time></trkpt><trkpt lat="40.559985" lon="8.31527"><ele>2.5</ele><time>2026-04-19T11:43:05.473Z</time></trkpt><trkpt lat="40.559905" lon="8.3152833"><ele>3.3333333333333335</ele><time>2026-04-19T11:43:18.473Z</time></trkpt><trkpt lat="40.559845" lon="8.31521"><ele>4.166666666666667</ele><time>2026-04-19T11:43:21.474Z</time></trkpt><trkpt lat="40.55983" lon="8.3151283"><ele>5.0</ele><time>2026-04-19T11:43:24.473Z</time></trkpt><trkpt lat="40.5597917" lon="8.3150033"><ele>5.0</ele><time>2026-04-19T11:43:32.474Z</time></trkpt><trkpt lat="40.5597183" lon="8.31492"><ele>5.0</ele><time>2026-04-19T11:43:34.473Z</time></trkpt><trkpt lat="40.5596267" lon="8.3149033"><ele>5.0</ele><time>2026-04-19T11:43:36.473Z</time></trkpt><trkpt lat="40.5595067" lon="8.314865"><ele>5.0</ele><time>2026-04-19T11:43:38.473Z</time></trkpt><trkpt lat="40.5594417" lon="8.3148633"><ele>5.0</ele><time>2026-04-19T11:43:39.473Z</time></trkpt><trkpt lat="40.559375" lon="8.3148883"><ele>5.0</ele><time>2026-04-19T11:43:40.474Z</time></trkpt><trkpt lat="40.5593033" lon="8.3149317"><ele>6.5</ele><time>2026-04-19T11:43:41.473Z</time></trkpt><trkpt lat="40.559235" lon="8.31499"><ele>8.0</ele><time>2026-04-19T11:43:42.474Z</time></trkpt><trkpt lat="40.5591683" lon="8.3150517"><ele>9.5</ele><time>2026-04-19T11:43:43.473Z</time></trkpt><trkpt lat="40.559105" lon="8.3151067"><ele>11.0</ele><time>2026-04-19T11:43:44.474Z</time></trkpt><trkpt lat="40.55905" lon="8.3151567"><ele>12.500000000000002</ele><time>2026-04-19T11:43:45.474Z</time></trkpt><trkpt lat="40.5589517" lon="8.3152467"><ele>14.0</ele><time>2026-04-19T11:43:47.474Z</time></trkpt><trkpt lat="40.55889" lon="8.3152883"><ele>14.000000000000002</ele><time>2026-04-19T11:43:48.473Z</time></trkpt><trkpt lat="40.5588283" lon="8.31532"><ele>14.0</ele><time>2026-04-19T11:43:49.474Z</time></trkpt><trkpt lat="40.558775" lon="8.3153683"><ele>14.0</ele><time>2026-04-19T11:43:50.473Z</time></trkpt><trkpt lat="40.558725" lon="8.3154733"><ele>14.0</ele><time>2026-04-19T11:43:52.474Z</time></trkpt><trkpt lat="40.5587383" lon="8.315575"><ele>14.000000000000002</ele><time>2026-04-19T11:43:54.473Z</time></trkpt><trkpt lat="40.5587767" lon="8.3156717"><ele>14.0</ele><time>2026-04-19T11:43:56.473Z</time></trkpt><trkpt lat="40.5588267" lon="8.31577"><ele>13.833333333333334</ele><time>2026-04-19T11:43:58.473Z</time></trkpt><trkpt lat="40.5588533" lon="8.3158467"><ele>13.666666666666668</ele><time>2026-04-19T11:44:00.474Z</time></trkpt><trkpt lat="40.5588783" lon="8.31593"><ele>13.5</ele><time>2026-04-19T11:44:02.473Z</time></trkpt><trkpt lat="40.5589067" lon="8.31603"><ele>13.333333333333332</ele><time>2026-04-19T11:44:06.473Z</time></trkpt><trkpt lat="40.5589517" lon="8.3161317"><ele>13.166666666666666</ele><time>2026-04-19T11:44:09.473Z</time></trkpt><trkpt lat="40.5590217" lon="8.3162533"><ele>13.0</ele><time>2026-04-19T11:44:11.474Z</time></trkpt><trkpt lat="40.5590583" lon="8.3163233"><ele>13.25</ele><time>2026-04-19T11:44:12.473Z</time></trkpt><trkpt lat="40.5591133" lon="8.3164433"><ele>13.5</ele><time>2026-04-19T11:44:14.473Z</time></trkpt><trkpt lat="40.55917" lon="8.316575"><ele>13.75</ele><time>2026-04-19T11:44:16.473Z</time></trkpt><trkpt lat="40.5592717" lon="8.3168117"><ele>14.0</ele><time>2026-04-19T11:44:19.474Z</time></trkpt><trkpt lat="40.5593183" lon="8.3168983"><ele>14.000000000000002</ele><time>2026-04-19T11:44:20.474Z</time></trkpt><trkpt lat="40.559365" lon="8.3169917"><ele>14.0</ele><time>2026-04-19T11:44:21.473Z</time></trkpt><trkpt lat="40.559405" lon="8.3170917"><ele>14.0</ele><time>2026-04-19T11:44:22.473Z</time></trkpt><trkpt lat="40.5594417" lon="8.3171867"><ele>14.0</ele><time>2026-04-19T11:44:23.473Z</time></trkpt><trkpt lat="40.55948" lon="8.3172733"><ele>14.000000000000002</ele><time>2026-04-19T11:44:24.473Z</time></trkpt><trkpt lat="40.55952" lon="8.31735"><ele>14.0</ele><time>2026-04-19T11:44:25.474Z</time></trkpt><trkpt lat="40.5595533" lon="8.3174367"><ele>14.000000000000002</ele><time>2026-04-19T11:44:26.473Z</time></trkpt><trkpt lat="40.5595817" lon="8.3175267"><ele>14.0</ele><time>2026-04-19T11:44:27.473Z</time></trkpt><trkpt lat="40.5596133" lon="8.3176033"><ele>14.0</ele><time>2026-04-19T11:44:28.473Z</time></trkpt><trkpt lat="40.5596583" lon="8.31772"><ele>14.0</ele><time>2026-04-19T11:44:30.473Z</time></trkpt><trkpt lat="40.5597033" lon="8.3178083"><ele>14.000000000000002</ele><time>2026-04-19T11:44:54.474Z</time></trkpt><trkpt lat="40.55975" lon="8.3179083"><ele>14.0</ele><time>2026-04-19T11:44:56.473Z</time></trkpt><trkpt lat="40.55979" lon="8.3179817"><ele>14.166666666666668</ele><time>2026-04-19T11:44:57.473Z</time></trkpt><trkpt lat="40.5598267" lon="8.31807"><ele>14.333333333333334</ele><time>2026-04-19T11:44:58.474Z</time></trkpt><trkpt lat="40.5598683" lon="8.3181683"><ele>14.5</ele><time>2026-04-19T11:44:59.474Z</time></trkpt><trkpt lat="40.5599167" lon="8.31827"><ele>14.666666666666668</ele><time>2026-04-19T11:45:00.474Z</time></trkpt><trkpt lat="40.5599717" lon="8.318375"><ele>14.833333333333334</ele><time>2026-04-19T11:45:01.474Z</time></trkpt><trkpt lat="40.5600217" lon="8.3184783"><ele>15.0</ele><time>2026-04-19T11:45:02.473Z</time></trkpt><trkpt lat="40.5600767" lon="8.3185933"><ele>15.0</ele><time>2026-04-19T11:45:03.473Z</time></trkpt><trkpt lat="40.5601317" lon="8.3187117"><ele>15.0</ele><time>2026-04-19T11:45:04.474Z</time></trkpt><trkpt lat="40.5601833" lon="8.3188383"><ele>15.0</ele><time>2026-04-19T11:45:05.474Z</time></trkpt><trkpt lat="40.5602483" lon="8.3189683"><ele>15.0</ele><time>2026-04-19T11:45:06.473Z</time></trkpt><trkpt lat="40.5603067" lon="8.319095"><ele>15.0</ele><time>2026-04-19T11:45:07.474Z</time></trkpt><trkpt lat="40.5603733" lon="8.319225"><ele>15.0</ele><time>2026-04-19T11:45:08.474Z</time></trkpt><trkpt lat="40.5604333" lon="8.319365"><ele>15.0</ele><time>2026-04-19T11:45:09.473Z</time></trkpt><trkpt lat="40.5604833" lon="8.319505"><ele>15.0</ele><time>2026-04-19T11:45:10.474Z</time></trkpt><trkpt lat="40.5605483" lon="8.3196517"><ele>15.0</ele><time>2026-04-19T11:45:11.474Z</time></trkpt><trkpt lat="40.5606183" lon="8.3198033"><ele>15.25</ele><time>2026-04-19T11:45:12.473Z</time></trkpt><trkpt lat="40.5606867" lon="8.3199417"><ele>15.5</ele><time>2026-04-19T11:45:13.473Z</time></trkpt><trkpt lat="40.560755" lon="8.32007"><ele>15.75</ele><time>2026-04-19T11:45:14.473Z</time></trkpt><trkpt lat="40.5608167" lon="8.32019"><ele>16.0</ele><time>2026-04-19T11:45:15.474Z</time></trkpt><trkpt lat="40.5608717" lon="8.3203117"><ele>16.0</ele><time>2026-04-19T11:45:16.474Z</time></trkpt><trkpt lat="40.5609317" lon="8.3204333"><ele>16.0</ele><time>2026-04-19T11:45:17.474Z</time></trkpt><trkpt lat="40.560995" lon="8.320565"><ele>16.0</ele><time>2026-04-19T11:45:18.474Z</time></trkpt><trkpt lat="40.5610517" lon="8.3207067"><ele>16.0</ele><time>2026-04-19T11:45:19.473Z</time></trkpt><trkpt lat="40.561115" lon="8.320845"><ele>15.75</ele><time>2026-04-19T11:45:20.474Z</time></trkpt><trkpt lat="40.5611817" lon="8.3209883"><ele>15.5</ele><time>2026-04-19T11:45:21.473Z</time></trkpt><trkpt lat="40.5612433" lon="8.3211283"><ele>15.25</ele><time>2026-04-19T11:45:22.474Z</time></trkpt><trkpt lat="40.5612983" lon="8.3212567"><ele>15.0</ele><time>2026-04-19T11:45:23.474Z</time></trkpt><trkpt lat="40.56135" lon="8.3213833"><ele>15.25</ele><time>2026-04-19T11:45:24.473Z</time></trkpt><trkpt lat="40.56141" lon="8.3215083"><ele>15.5</ele><time>2026-04-19T11:45:25.474Z</time></trkpt><trkpt lat="40.5614683" lon="8.3216367"><ele>15.75</ele><time>2026-04-19T11:45:26.474Z</time></trkpt><trkpt lat="40.561525" lon="8.3217767"><ele>16.0</ele><time>2026-04-19T11:45:27.474Z</time></trkpt><trkpt lat="40.561585" lon="8.3219"><ele>16.0</ele><time>2026-04-19T11:45:28.474Z</time></trkpt><trkpt lat="40.5616567" lon="8.3220317"><ele>16.0</ele><time>2026-04-19T11:45:29.474Z</time></trkpt><trkpt lat="40.5617383" lon="8.3221667"><ele>16.0</ele><time>2026-04-19T11:45:30.473Z</time></trkpt><trkpt lat="40.5617917" lon="8.3222983"><ele>16.0</ele><time>2026-04-19T11:45:31.473Z</time></trkpt><trkpt lat="40.56184" lon="8.3224417"><ele>16.25</ele><time>2026-04-19T11:45:32.474Z</time></trkpt><trkpt lat="40.5618917" lon="8.322565"><ele>16.5</ele><time>2026-04-19T11:45:33.473Z</time></trkpt><trkpt lat="40.5619433" lon="8.3227067"><ele>16.75</ele><time>2026-04-19T11:45:34.474Z</time></trkpt><trkpt lat="40.562005" lon="8.3228467"><ele>17.0</ele><time>2026-04-19T11:45:35.473Z</time></trkpt><trkpt lat="40.5620617" lon="8.3229933"><ele>16.75</ele><time>2026-04-19T11:45:36.473Z</time></trkpt><trkpt lat="40.5621167" lon="8.3231433"><ele>16.5</ele><time>2026-04-19T11:45:37.474Z</time></trkpt><trkpt lat="40.5621867" lon="8.3232917"><ele>16.25</ele><time>2026-04-19T11:45:38.474Z</time></trkpt><trkpt lat="40.5622567" lon="8.323455"><ele>16.0</ele><time>2026-04-19T11:45:39.474Z</time></trkpt><trkpt lat="40.5623283" lon="8.3236167"><ele>16.0</ele><time>2026-04-19T11:45:40.473Z</time></trkpt><trkpt lat="40.5624117" lon="8.3237767"><ele>16.0</ele><time>2026-04-19T11:45:41.473Z</time></trkpt><trkpt lat="40.562495" lon="8.3239233"><ele>16.0</ele><time>2026-04-19T11:45:42.473Z</time></trkpt><trkpt lat="40.56258" lon="8.324075"><ele>16.0</ele><time>2026-04-19T11:45:43.474Z</time></trkpt><trkpt lat="40.5626533" lon="8.3242333"><ele>16.0</ele><time>2026-04-19T11:45:44.474Z</time></trkpt><trkpt lat="40.5627133" lon="8.324405"><ele>16.0</ele><time>2026-04-19T11:45:45.473Z</time></trkpt><trkpt lat="40.5627567" lon="8.3245833"><ele>16.0</ele><time>2026-04-19T11:45:46.473Z</time></trkpt><trkpt lat="40.5628283" lon="8.3247467"><ele>16.0</ele><time>2026-04-19T11:45:47.473Z</time></trkpt><trkpt lat="40.5629033" lon="8.3248967"><ele>15.25</ele><time>2026-04-19T11:45:48.473Z</time></trkpt><trkpt lat="40.56299" lon="8.32504"><ele>14.5</ele><time>2026-04-19T11:45:49.474Z</time></trkpt><trkpt lat="40.56306" lon="8.3251867"><ele>13.75</ele><time>2026-04-19T11:45:50.473Z</time></trkpt><trkpt lat="40.5631283" lon="8.325325"><ele>13.0</ele><time>2026-04-19T11:45:51.473Z</time></trkpt><trkpt lat="40.5632033" lon="8.3254517"><ele>13.25</ele><time>2026-04-19T11:45:52.474Z</time></trkpt><trkpt lat="40.56326" lon="8.3255867"><ele>13.5</ele><time>2026-04-19T11:45:53.473Z</time></trkpt><trkpt lat="40.5633233" lon="8.3257133"><ele>13.75</ele><time>2026-04-19T11:45:54.474Z</time></trkpt><trkpt lat="40.5633883" lon="8.3258433"><ele>14.0</ele><time>2026-04-19T11:45:55.474Z</time></trkpt><trkpt lat="40.5634483" lon="8.32597"><ele>14.0</ele><time>2026-04-19T11:45:56.474Z</time></trkpt><trkpt lat="40.563505" lon="8.326085"><ele>13.999999999999998</ele><time>2026-04-19T11:45:57.474Z</time></trkpt><trkpt lat="40.56355" lon="8.3261917"><ele>13.999999999999998</ele><time>2026-04-19T11:45:58.473Z</time></trkpt><trkpt lat="40.563585" lon="8.32629"><ele>14.0</ele><time>2026-04-19T11:45:59.473Z</time></trkpt><trkpt lat="40.5636217" lon="8.326375"><ele>14.0</ele><time>2026-04-19T11:46:00.474Z</time></trkpt><trkpt lat="40.5636683" lon="8.326505"><ele>14.142857142857142</ele><time>2026-04-19T11:46:02.473Z</time></trkpt><trkpt lat="40.56367" lon="8.32663"><ele>14.285714285714285</ele><time>2026-04-19T11:46:04.473Z</time></trkpt><trkpt lat="40.56365" lon="8.32671"><ele>14.428571428571429</ele><time>2026-04-19T11:46:05.473Z</time></trkpt><trkpt lat="40.5636467" lon="8.3268"><ele>14.571428571428571</ele><time>2026-04-19T11:46:06.473Z</time></trkpt><trkpt lat="40.5636717" lon="8.32688"><ele>14.714285714285714</ele><time>2026-04-19T11:46:07.473Z</time></trkpt><trkpt lat="40.5637217" lon="8.32694"><ele>14.857142857142858</ele><time>2026-04-19T11:46:08.473Z</time></trkpt><trkpt lat="40.5637883" lon="8.3269683"><ele>15.0</ele><time>2026-04-19T11:46:09.473Z</time></trkpt><trkpt lat="40.5638633" lon="8.3270133"><ele>15.0</ele><time>2026-04-19T11:46:10.474Z</time></trkpt><trkpt lat="40.5639233" lon="8.327075"><ele>15.0</ele><time>2026-04-19T11:46:11.474Z</time></trkpt><trkpt lat="40.563975" lon="8.3271533"><ele>15.0</ele><time>2026-04-19T11:46:12.474Z</time></trkpt><trkpt lat="40.564015" lon="8.3272483"><ele>15.0</ele><time>2026-04-19T11:46:13.473Z</time></trkpt><trkpt lat="40.56406" lon="8.3273567"><ele>15.0</ele><time>2026-04-19T11:46:14.474Z</time></trkpt><trkpt lat="40.5641017" lon="8.3274517"><ele>15.0</ele><time>2026-04-19T11:46:15.474Z</time></trkpt><trkpt lat="40.56414" lon="8.327535"><ele>15.0</ele><time>2026-04-19T11:46:16.474Z</time></trkpt><trkpt lat="40.56419" lon="8.3276267"><ele>15.0</ele><time>2026-04-19T11:46:18.473Z</time></trkpt><trkpt lat="40.564235" lon="8.3277417"><ele>15.0</ele><time>2026-04-19T11:46:22.473Z</time></trkpt><trkpt lat="40.5643117" lon="8.327895"><ele>15.0</ele><time>2026-04-19T11:46:24.474Z</time></trkpt><trkpt lat="40.5643633" lon="8.32799"><ele>15.0</ele><time>2026-04-19T11:46:25.474Z</time></trkpt><trkpt lat="40.564425" lon="8.3281067"><ele>15.25</ele><time>2026-04-19T11:46:26.473Z</time></trkpt><trkpt lat="40.5644933" lon="8.32825"><ele>15.5</ele><time>2026-04-19T11:46:27.473Z</time></trkpt><trkpt lat="40.5645733" lon="8.3284083"><ele>15.75</ele><time>2026-04-19T11:46:28.473Z</time></trkpt><trkpt lat="40.56465" lon="8.3285917"><ele>16.0</ele><time>2026-04-19T11:46:29.474Z</time></trkpt><trkpt lat="40.5647233" lon="8.3287933"><ele>16.333333333333332</ele><time>2026-04-19T11:46:30.473Z</time></trkpt><trkpt lat="40.5648" lon="8.329"><ele>16.666666666666668</ele><time>2026-04-19T11:46:31.474Z</time></trkpt><trkpt lat="40.564885" lon="8.3291983"><ele>17.0</ele><time>2026-04-19T11:46:32.473Z</time></trkpt><trkpt lat="40.5649717" lon="8.3293883"><ele>17.0</ele><time>2026-04-19T11:46:33.474Z</time></trkpt><trkpt lat="40.5650567" lon="8.32957"><ele>17.0</ele><time>2026-04-19T11:46:34.474Z</time></trkpt><trkpt lat="40.56513" lon="8.3297467"><ele>17.0</ele><time>2026-04-19T11:46:35.474Z</time></trkpt><trkpt lat="40.5652017" lon="8.3299133"><ele>17.25</ele><time>2026-04-19T11:46:36.473Z</time></trkpt><trkpt lat="40.5652817" lon="8.3300717"><ele>17.5</ele><time>2026-04-19T11:46:37.473Z</time></trkpt><trkpt lat="40.5653433" lon="8.3302117"><ele>17.75</ele><time>2026-04-19T11:46:38.474Z</time></trkpt><trkpt lat="40.5653967" lon="8.3303367"><ele>18.0</ele><time>2026-04-19T11:46:39.474Z</time></trkpt><trkpt lat="40.56545" lon="8.3304417"><ele>18.166666666666668</ele><time>2026-04-19T11:46:40.474Z</time></trkpt><trkpt lat="40.5654883" lon="8.330535"><ele>18.333333333333332</ele><time>2026-04-19T11:46:41.474Z</time></trkpt><trkpt lat="40.5655117" lon="8.3306217"><ele>18.5</ele><time>2026-04-19T11:46:42.473Z</time></trkpt><trkpt lat="40.5655183" lon="8.33072"><ele>18.666666666666664</ele><time>2026-04-19T11:46:43.473Z</time></trkpt><trkpt lat="40.5655117" lon="8.3308317"><ele>18.833333333333332</ele><time>2026-04-19T11:46:44.474Z</time></trkpt><trkpt lat="40.5655083" lon="8.33096"><ele>19.0</ele><time>2026-04-19T11:46:45.474Z</time></trkpt><trkpt lat="40.5655317" lon="8.3310883"><ele>19.2</ele><time>2026-04-19T11:46:46.473Z</time></trkpt><trkpt lat="40.5655867" lon="8.331195"><ele>19.4</ele><time>2026-04-19T11:46:47.474Z</time></trkpt><trkpt lat="40.5656733" lon="8.3312683"><ele>19.6</ele><time>2026-04-19T11:46:48.473Z</time></trkpt><trkpt lat="40.565765" lon="8.33133"><ele>19.8</ele><time>2026-04-19T11:46:49.473Z</time></trkpt><trkpt lat="40.565845" lon="8.3313983"><ele>20.0</ele><time>2026-04-19T11:46:50.474Z</time></trkpt><trkpt lat="40.5659283" lon="8.33149"><ele>20.0</ele><time>2026-04-19T11:46:51.473Z</time></trkpt><trkpt lat="40.566" lon="8.33162"><ele>20.0</ele><time>2026-04-19T11:46:52.473Z</time></trkpt><trkpt lat="40.5660633" lon="8.3317817"><ele>20.0</ele><time>2026-04-19T11:46:53.473Z</time></trkpt><trkpt lat="40.5661383" lon="8.3319567"><ele>20.0</ele><time>2026-04-19T11:46:54.474Z</time></trkpt><trkpt lat="40.5662117" lon="8.3321217"><ele>19.666666666666668</ele><time>2026-04-19T11:46:55.473Z</time></trkpt><trkpt lat="40.5662933" lon="8.3323"><ele>19.333333333333332</ele><time>2026-04-19T11:46:56.473Z</time></trkpt><trkpt lat="40.5663783" lon="8.3324817"><ele>19.0</ele><time>2026-04-19T11:46:57.473Z</time></trkpt><trkpt lat="40.56646" lon="8.3326717"><ele>19.0</ele><time>2026-04-19T11:46:58.473Z</time></trkpt><trkpt lat="40.5665483" lon="8.332865"><ele>19.0</ele><time>2026-04-19T11:46:59.473Z</time></trkpt><trkpt lat="40.5666417" lon="8.333065"><ele>19.0</ele><time>2026-04-19T11:47:00.474Z</time></trkpt><trkpt lat="40.5667383" lon="8.333275"><ele>19.666666666666664</ele><time>2026-04-19T11:47:01.474Z</time></trkpt><trkpt lat="40.5668417" lon="8.3334933"><ele>20.333333333333332</ele><time>2026-04-19T11:47:02.473Z</time></trkpt><trkpt lat="40.566945" lon="8.3337217"><ele>21.0</ele><time>2026-04-19T11:47:03.474Z</time></trkpt><trkpt lat="40.5670483" lon="8.3339517"><ele>21.333333333333332</ele><time>2026-04-19T11:47:04.474Z</time></trkpt><trkpt lat="40.5671533" lon="8.3341683"><ele>21.666666666666664</ele><time>2026-04-19T11:47:05.473Z</time></trkpt><trkpt lat="40.567245" lon="8.3343733"><ele>22.0</ele><time>2026-04-19T11:47:06.473Z</time></trkpt><trkpt lat="40.5673283" lon="8.334565"><ele>22.333333333333332</ele><time>2026-04-19T11:47:07.474Z</time></trkpt><trkpt lat="40.56741" lon="8.33475"><ele>22.666666666666668</ele><time>2026-04-19T11:47:08.474Z</time></trkpt><trkpt lat="40.5675" lon="8.3349417"><ele>23.0</ele><time>2026-04-19T11:47:09.474Z</time></trkpt><trkpt lat="40.5675833" lon="8.33513"><ele>23.0</ele><time>2026-04-19T11:47:10.473Z</time></trkpt><trkpt lat="40.5676667" lon="8.335305"><ele>23.0</ele><time>2026-04-19T11:47:11.473Z</time></trkpt><trkpt lat="40.567735" lon="8.3354617"><ele>23.0</ele><time>2026-04-19T11:47:12.474Z</time></trkpt><trkpt lat="40.5678017" lon="8.3356167"><ele>23.0</ele><time>2026-04-19T11:47:13.473Z</time></trkpt><trkpt lat="40.5678617" lon="8.3357667"><ele>23.333333333333336</ele><time>2026-04-19T11:47:14.474Z</time></trkpt><trkpt lat="40.567935" lon="8.3359283"><ele>23.666666666666668</ele><time>2026-04-19T11:47:15.473Z</time></trkpt><trkpt lat="40.56801" lon="8.3361017"><ele>24.0</ele><time>2026-04-19T11:47:16.473Z</time></trkpt><trkpt lat="40.56809" lon="8.336285"><ele>24.0</ele><time>2026-04-19T11:47:17.474Z</time></trkpt><trkpt lat="40.5681867" lon="8.336465"><ele>24.0</ele><time>2026-04-19T11:47:18.474Z</time></trkpt><trkpt lat="40.5682817" lon="8.336655"><ele>24.0</ele><time>2026-04-19T11:47:19.473Z</time></trkpt><trkpt lat="40.5683833" lon="8.3368367"><ele>24.0</ele><time>2026-04-19T11:47:20.474Z</time></trkpt><trkpt lat="40.568485" lon="8.3370217"><ele>24.0</ele><time>2026-04-19T11:47:21.474Z</time></trkpt><trkpt lat="40.56859" lon="8.3371967"><ele>24.0</ele><time>2026-04-19T11:47:22.474Z</time></trkpt><trkpt lat="40.5686917" lon="8.3373633"><ele>25.0</ele><time>2026-04-19T11:47:23.473Z</time></trkpt><trkpt lat="40.5687883" lon="8.3375317"><ele>26.0</ele><time>2026-04-19T11:47:24.473Z</time></trkpt><trkpt lat="40.5688933" lon="8.3377"><ele>27.0</ele><time>2026-04-19T11:47:25.473Z</time></trkpt><trkpt lat="40.5689983" lon="8.337875"><ele>27.0</ele><time>2026-04-19T11:47:26.473Z</time></trkpt><trkpt lat="40.5690967" lon="8.33805"><ele>27.0</ele><time>2026-04-19T11:47:27.474Z</time></trkpt><trkpt lat="40.5691933" lon="8.3382183"><ele>27.0</ele><time>2026-04-19T11:47:28.473Z</time></trkpt><trkpt lat="40.56929" lon="8.3383933"><ele>27.333333333333336</ele><time>2026-04-19T11:47:29.473Z</time></trkpt><trkpt lat="40.5693917" lon="8.3385583"><ele>27.666666666666668</ele><time>2026-04-19T11:47:30.474Z</time></trkpt><trkpt lat="40.5694917" lon="8.338725"><ele>28.0</ele><time>2026-04-19T11:47:31.473Z</time></trkpt><trkpt lat="40.569585" lon="8.3388883"><ele>28.25</ele><time>2026-04-19T11:47:32.474Z</time></trkpt><trkpt lat="40.5696717" lon="8.3390317"><ele>28.5</ele><time>2026-04-19T11:47:33.473Z</time></trkpt><trkpt lat="40.5697533" lon="8.3391667"><ele>28.75</ele><time>2026-04-19T11:47:34.473Z</time></trkpt><trkpt lat="40.5698267" lon="8.3393"><ele>29.0</ele><time>2026-04-19T11:47:35.473Z</time></trkpt><trkpt lat="40.5699067" lon="8.3394483"><ele>29.0</ele><time>2026-04-19T11:47:36.474Z</time></trkpt><trkpt lat="40.569995" lon="8.3396033"><ele>29.0</ele><time>2026-04-19T11:47:37.474Z</time></trkpt><trkpt lat="40.5700833" lon="8.3397617"><ele>29.0</ele><time>2026-04-19T11:47:38.474Z</time></trkpt><trkpt lat="40.5701633" lon="8.339925"><ele>29.0</ele><time>2026-04-19T11:47:39.474Z</time></trkpt><trkpt lat="40.5702333" lon="8.3400917"><ele>29.666666666666664</ele><time>2026-04-19T11:47:40.474Z</time></trkpt><trkpt lat="40.5703033" lon="8.34027"><ele>30.333333333333336</ele><time>2026-04-19T11:47:41.474Z</time></trkpt><trkpt lat="40.570365" lon="8.34045"><ele>31.0</ele><time>2026-04-19T11:47:42.473Z</time></trkpt><trkpt lat="40.570425" lon="8.34064"><ele>31.333333333333336</ele><time>2026-04-19T11:47:43.474Z</time></trkpt><trkpt lat="40.570485" lon="8.34083"><ele>31.666666666666664</ele><time>2026-04-19T11:47:44.474Z</time></trkpt><trkpt lat="40.5705383" lon="8.34102"><ele>32.0</ele><time>2026-04-19T11:47:45.473Z</time></trkpt><trkpt lat="40.5706" lon="8.34122"><ele>32.0</ele><time>2026-04-19T11:47:46.473Z</time></trkpt><trkpt lat="40.5706633" lon="8.3414167"><ele>32.0</ele><time>2026-04-19T11:47:47.474Z</time></trkpt><trkpt lat="40.5707217" lon="8.3416183"><ele>32.0</ele><time>2026-04-19T11:47:48.473Z</time></trkpt><trkpt lat="40.570785" lon="8.341825"><ele>32.0</ele><time>2026-04-19T11:47:49.473Z</time></trkpt><trkpt lat="40.5708517" lon="8.3420433"><ele>32.0</ele><time>2026-04-19T11:47:50.474Z</time></trkpt><trkpt lat="40.5709117" lon="8.34227"><ele>32.0</ele><time>2026-04-19T11:47:51.473Z</time></trkpt><trkpt lat="40.57098" lon="8.3424967"><ele>32.33333333333333</ele><time>2026-04-19T11:47:52.473Z</time></trkpt><trkpt lat="40.5710517" lon="8.34272"><ele>32.666666666666664</ele><time>2026-04-19T11:47:53.473Z</time></trkpt><trkpt lat="40.5711233" lon="8.3429333"><ele>33.0</ele><time>2026-04-19T11:47:54.473Z</time></trkpt><trkpt lat="40.57119" lon="8.3431367"><ele>33.0</ele><time>2026-04-19T11:47:55.474Z</time></trkpt><trkpt lat="40.5712467" lon="8.3433333"><ele>33.0</ele><time>2026-04-19T11:47:56.473Z</time></trkpt><trkpt lat="40.5712983" lon="8.343515"><ele>33.0</ele><time>2026-04-19T11:47:57.474Z</time></trkpt><trkpt lat="40.5713533" lon="8.343705"><ele>33.666666666666664</ele><time>2026-04-19T11:47:58.473Z</time></trkpt><trkpt lat="40.5714117" lon="8.343895"><ele>34.33333333333333</ele><time>2026-04-19T11:47:59.473Z</time></trkpt><trkpt lat="40.57146" lon="8.3440817"><ele>35.0</ele><time>2026-04-19T11:48:00.473Z</time></trkpt><trkpt lat="40.57151" lon="8.3442733"><ele>35.0</ele><time>2026-04-19T11:48:01.474Z</time></trkpt><trkpt lat="40.571575" lon="8.3444667"><ele>35.0</ele><time>2026-04-19T11:48:02.474Z</time></trkpt><trkpt lat="40.5716333" lon="8.3446667"><ele>35.0</ele><time>2026-04-19T11:48:03.474Z</time></trkpt><trkpt lat="40.5716933" lon="8.3448833"><ele>35.33333333333333</ele><time>2026-04-19T11:48:04.474Z</time></trkpt><trkpt lat="40.57176" lon="8.345095"><ele>35.666666666666664</ele><time>2026-04-19T11:48:05.473Z</time></trkpt><trkpt lat="40.5718233" lon="8.345315"><ele>36.0</ele><time>2026-04-19T11:48:06.473Z</time></trkpt><trkpt lat="40.5718967" lon="8.3455433"><ele>35.666666666666664</ele><time>2026-04-19T11:48:07.473Z</time></trkpt><trkpt lat="40.5719633" lon="8.34576"><ele>35.33333333333333</ele><time>2026-04-19T11:48:08.473Z</time></trkpt><trkpt lat="40.5720383" lon="8.3459783"><ele>35.0</ele><time>2026-04-19T11:48:09.474Z</time></trkpt><trkpt lat="40.5721033" lon="8.3461933"><ele>36.0</ele><time>2026-04-19T11:48:10.473Z</time></trkpt><trkpt lat="40.5721717" lon="8.3464133"><ele>37.0</ele><time>2026-04-19T11:48:11.473Z</time></trkpt><trkpt lat="40.5722383" lon="8.3466333"><ele>38.0</ele><time>2026-04-19T11:48:12.473Z</time></trkpt><trkpt lat="40.57231" lon="8.3468567"><ele>38.0</ele><time>2026-04-19T11:48:13.473Z</time></trkpt><trkpt lat="40.5723717" lon="8.3470733"><ele>38.0</ele><time>2026-04-19T11:48:14.473Z</time></trkpt><trkpt lat="40.57244" lon="8.3472983"><ele>38.0</ele><time>2026-04-19T11:48:15.473Z</time></trkpt><trkpt lat="40.5725033" lon="8.3475183"><ele>38.0</ele><time>2026-04-19T11:48:16.473Z</time></trkpt><trkpt lat="40.5725717" lon="8.34775"><ele>38.0</ele><time>2026-04-19T11:48:17.474Z</time></trkpt><trkpt lat="40.572625" lon="8.3479783"><ele>38.0</ele><time>2026-04-19T11:48:18.474Z</time></trkpt><trkpt lat="40.5726667" lon="8.3482117"><ele>38.0</ele><time>2026-04-19T11:48:19.474Z</time></trkpt><trkpt lat="40.5727017" lon="8.34843"><ele>38.0</ele><time>2026-04-19T11:48:20.474Z</time></trkpt><trkpt lat="40.57272" lon="8.3486517"><ele>38.0</ele><time>2026-04-19T11:48:21.473Z</time></trkpt><trkpt lat="40.5727333" lon="8.3488767"><ele>38.0</ele><time>2026-04-19T11:48:22.473Z</time></trkpt><trkpt lat="40.572745" lon="8.349105"><ele>38.0</ele><time>2026-04-19T11:48:23.473Z</time></trkpt><trkpt lat="40.5727617" lon="8.3493417"><ele>38.0</ele><time>2026-04-19T11:48:24.473Z</time></trkpt><trkpt lat="40.5727767" lon="8.3495867"><ele>37.33333333333333</ele><time>2026-04-19T11:48:25.473Z</time></trkpt><trkpt lat="40.5727983" lon="8.3498317"><ele>36.666666666666664</ele><time>2026-04-19T11:48:26.473Z</time></trkpt><trkpt lat="40.572835" lon="8.3500767"><ele>36.0</ele><time>2026-04-19T11:48:27.473Z</time></trkpt><trkpt lat="40.57287" lon="8.3503267"><ele>36.666666666666664</ele><time>2026-04-19T11:48:28.473Z</time></trkpt><trkpt lat="40.57292" lon="8.3505867"><ele>37.33333333333333</ele><time>2026-04-19T11:48:29.474Z</time></trkpt><trkpt lat="40.5729817" lon="8.35084"><ele>38.0</ele><time>2026-04-19T11:48:30.474Z</time></trkpt><trkpt lat="40.5730517" lon="8.351095"><ele>38.0</ele><time>2026-04-19T11:48:31.474Z</time></trkpt><trkpt lat="40.5731233" lon="8.35135"><ele>38.0</ele><time>2026-04-19T11:48:32.473Z</time></trkpt><trkpt lat="40.5731983" lon="8.3516133"><ele>38.0</ele><time>2026-04-19T11:48:33.474Z</time></trkpt><trkpt lat="40.5732683" lon="8.35187"><ele>36.33333333333333</ele><time>2026-04-19T11:48:34.473Z</time></trkpt><trkpt lat="40.57334" lon="8.35213"><ele>34.666666666666664</ele><time>2026-04-19T11:48:35.473Z</time></trkpt><trkpt lat="40.57341" lon="8.3523967"><ele>33.0</ele><time>2026-04-19T11:48:36.474Z</time></trkpt><trkpt lat="40.5734833" lon="8.3526617"><ele>30.666666666666664</ele><time>2026-04-19T11:48:37.473Z</time></trkpt><trkpt lat="40.5735517" lon="8.3529233"><ele>28.333333333333332</ele><time>2026-04-19T11:48:38.473Z</time></trkpt><trkpt lat="40.5736233" lon="8.3531933"><ele>26.0</ele><time>2026-04-19T11:48:39.474Z</time></trkpt><trkpt lat="40.5737" lon="8.3534633"><ele>26.0</ele><time>2026-04-19T11:48:40.473Z</time></trkpt><trkpt lat="40.5737733" lon="8.3537433"><ele>26.0</ele><time>2026-04-19T11:48:41.473Z</time></trkpt><trkpt lat="40.5738433" lon="8.3540167"><ele>26.0</ele><time>2026-04-19T11:48:42.474Z</time></trkpt><trkpt lat="40.5739133" lon="8.3542867"><ele>24.333333333333332</ele><time>2026-04-19T11:48:43.473Z</time></trkpt><trkpt lat="40.5739867" lon="8.3545633"><ele>22.666666666666664</ele><time>2026-04-19T11:48:44.474Z</time></trkpt><trkpt lat="40.5740583" lon="8.354835"><ele>21.0</ele><time>2026-04-19T11:48:45.473Z</time></trkpt><trkpt lat="40.57413" lon="8.35511"><ele>21.0</ele><time>2026-04-19T11:48:46.473Z</time></trkpt><trkpt lat="40.5742017" lon="8.3553883"><ele>21.0</ele><time>2026-04-19T11:48:47.473Z</time></trkpt><trkpt lat="40.5742733" lon="8.3556583"><ele>21.0</ele><time>2026-04-19T11:48:48.473Z</time></trkpt><trkpt lat="40.5743467" lon="8.35593"><ele>22.0</ele><time>2026-04-19T11:48:49.473Z</time></trkpt><trkpt lat="40.5744283" lon="8.35621"><ele>23.0</ele><time>2026-04-19T11:48:50.473Z</time></trkpt><trkpt lat="40.5744967" lon="8.3564967"><ele>21.666666666666668</ele><time>2026-04-19T11:48:51.473Z</time></trkpt><trkpt lat="40.5745533" lon="8.3567717"><ele>20.333333333333332</ele><time>2026-04-19T11:48:52.474Z</time></trkpt><trkpt lat="40.5746117" lon="8.35705"><ele>19.0</ele><time>2026-04-19T11:48:53.474Z</time></trkpt><trkpt lat="40.5746667" lon="8.35733"><ele>19.0</ele><time>2026-04-19T11:48:54.473Z</time></trkpt><trkpt lat="40.574725" lon="8.3576033"><ele>19.0</ele><time>2026-04-19T11:48:55.474Z</time></trkpt><trkpt lat="40.574785" lon="8.3578817"><ele>19.0</ele><time>2026-04-19T11:48:56.472Z</time></trkpt><trkpt lat="40.57484" lon="8.3581567"><ele>19.666666666666664</ele><time>2026-04-19T11:48:57.472Z</time></trkpt><trkpt lat="40.5748967" lon="8.35843"><ele>20.333333333333332</ele><time>2026-04-19T11:48:58.472Z</time></trkpt><trkpt lat="40.5749483" lon="8.35871"><ele>21.0</ele><time>2026-04-19T11:48:59.472Z</time></trkpt><trkpt lat="40.575005" lon="8.3589867"><ele>21.333333333333332</ele><time>2026-04-19T11:49:00.472Z</time></trkpt><trkpt lat="40.57506" lon="8.359255"><ele>21.666666666666664</ele><time>2026-04-19T11:49:01.473Z</time></trkpt><trkpt lat="40.5751133" lon="8.3595183"><ele>22.0</ele><time>2026-04-19T11:49:02.473Z</time></trkpt><trkpt lat="40.5751617" lon="8.3597767"><ele>22.0</ele><time>2026-04-19T11:49:03.472Z</time></trkpt><trkpt lat="40.5752083" lon="8.3600217"><ele>22.0</ele><time>2026-04-19T11:49:04.473Z</time></trkpt><trkpt lat="40.575255" lon="8.36027"><ele>22.0</ele><time>2026-04-19T11:49:05.473Z</time></trkpt><trkpt lat="40.5753" lon="8.3605167"><ele>21.666666666666664</ele><time>2026-04-19T11:49:06.472Z</time></trkpt><trkpt lat="40.5753517" lon="8.36076"><ele>21.333333333333332</ele><time>2026-04-19T11:49:07.472Z</time></trkpt><trkpt lat="40.5754033" lon="8.360995"><ele>21.0</ele><time>2026-04-19T11:49:08.472Z</time></trkpt><trkpt lat="40.57545" lon="8.361235"><ele>21.666666666666668</ele><time>2026-04-19T11:49:09.472Z</time></trkpt><trkpt lat="40.5754983" lon="8.3614633"><ele>22.333333333333336</ele><time>2026-04-19T11:49:10.472Z</time></trkpt><trkpt lat="40.5755417" lon="8.3616933"><ele>23.0</ele><time>2026-04-19T11:49:11.473Z</time></trkpt><trkpt lat="40.5755833" lon="8.3619083"><ele>23.0</ele><time>2026-04-19T11:49:12.473Z</time></trkpt><trkpt lat="40.5756283" lon="8.362115"><ele>23.0</ele><time>2026-04-19T11:49:13.472Z</time></trkpt><trkpt lat="40.5756617" lon="8.3623083"><ele>23.0</ele><time>2026-04-19T11:49:14.472Z</time></trkpt><trkpt lat="40.5757017" lon="8.3624917"><ele>23.25</ele><time>2026-04-19T11:49:15.473Z</time></trkpt><trkpt lat="40.57574" lon="8.36267"><ele>23.5</ele><time>2026-04-19T11:49:16.473Z</time></trkpt><trkpt lat="40.575775" lon="8.3628317"><ele>23.75</ele><time>2026-04-19T11:49:17.472Z</time></trkpt><trkpt lat="40.5758083" lon="8.362975"><ele>24.0</ele><time>2026-04-19T11:49:18.472Z</time></trkpt><trkpt lat="40.57584" lon="8.36311"><ele>23.6</ele><time>2026-04-19T11:49:19.472Z</time></trkpt><trkpt lat="40.575875" lon="8.3632317"><ele>23.2</ele><time>2026-04-19T11:49:20.472Z</time></trkpt><trkpt lat="40.5759083" lon="8.3633517"><ele>22.8</ele><time>2026-04-19T11:49:21.472Z</time></trkpt><trkpt lat="40.5759367" lon="8.363465"><ele>22.400000000000002</ele><time>2026-04-19T11:49:22.472Z</time></trkpt><trkpt lat="40.57595" lon="8.363585"><ele>22.0</ele><time>2026-04-19T11:49:23.473Z</time></trkpt><trkpt lat="40.5759367" lon="8.3637033"><ele>22.0</ele><time>2026-04-19T11:49:24.473Z</time></trkpt><trkpt lat="40.5759017" lon="8.3638283"><ele>22.0</ele><time>2026-04-19T11:49:25.473Z</time></trkpt><trkpt lat="40.57586" lon="8.3639567"><ele>22.0</ele><time>2026-04-19T11:49:26.472Z</time></trkpt><trkpt lat="40.5758167" lon="8.3641"><ele>22.0</ele><time>2026-04-19T11:49:27.473Z</time></trkpt><trkpt lat="40.5757733" lon="8.36426"><ele>21.75</ele><time>2026-04-19T11:49:28.472Z</time></trkpt><trkpt lat="40.5757333" lon="8.36442"><ele>21.5</ele><time>2026-04-19T11:49:29.473Z</time></trkpt><trkpt lat="40.5756917" lon="8.36459"><ele>21.25</ele><time>2026-04-19T11:49:30.473Z</time></trkpt><trkpt lat="40.57565" lon="8.3647617"><ele>21.0</ele><time>2026-04-19T11:49:31.472Z</time></trkpt><trkpt lat="40.5756" lon="8.3649333"><ele>20.666666666666668</ele><time>2026-04-19T11:49:32.473Z</time></trkpt><trkpt lat="40.57555" lon="8.3651183"><ele>20.333333333333336</ele><time>2026-04-19T11:49:33.472Z</time></trkpt><trkpt lat="40.5754983" lon="8.3653067"><ele>20.0</ele><time>2026-04-19T11:49:34.473Z</time></trkpt><trkpt lat="40.5754533" lon="8.365505"><ele>20.666666666666668</ele><time>2026-04-19T11:49:35.472Z</time></trkpt><trkpt lat="40.5754033" lon="8.3657017"><ele>21.333333333333332</ele><time>2026-04-19T11:49:36.473Z</time></trkpt><trkpt lat="40.575345" lon="8.3659133"><ele>22.0</ele><time>2026-04-19T11:49:37.473Z</time></trkpt><trkpt lat="40.5752867" lon="8.3661283"><ele>22.333333333333332</ele><time>2026-04-19T11:49:38.473Z</time></trkpt><trkpt lat="40.57524" lon="8.366345"><ele>22.666666666666668</ele><time>2026-04-19T11:49:39.473Z</time></trkpt><trkpt lat="40.57519" lon="8.3665583"><ele>23.0</ele><time>2026-04-19T11:49:40.473Z</time></trkpt><trkpt lat="40.5751333" lon="8.3667783"><ele>22.333333333333336</ele><time>2026-04-19T11:49:41.472Z</time></trkpt><trkpt lat="40.57508" lon="8.367"><ele>21.666666666666668</ele><time>2026-04-19T11:49:42.472Z</time></trkpt><trkpt lat="40.575025" lon="8.3672067"><ele>21.0</ele><time>2026-04-19T11:49:43.473Z</time></trkpt><trkpt lat="40.57497" lon="8.3674267"><ele>20.666666666666668</ele><time>2026-04-19T11:49:44.473Z</time></trkpt><trkpt lat="40.574915" lon="8.3676267"><ele>20.333333333333336</ele><time>2026-04-19T11:49:45.472Z</time></trkpt><trkpt lat="40.5748533" lon="8.3678233"><ele>20.0</ele><time>2026-04-19T11:49:46.472Z</time></trkpt><trkpt lat="40.5748017" lon="8.368035"><ele>20.0</ele><time>2026-04-19T11:49:47.472Z</time></trkpt><trkpt lat="40.5747483" lon="8.3682267"><ele>20.0</ele><time>2026-04-19T11:49:48.472Z</time></trkpt><trkpt lat="40.5747067" lon="8.368425"><ele>20.0</ele><time>2026-04-19T11:49:49.473Z</time></trkpt><trkpt lat="40.5746683" lon="8.36863"><ele>20.0</ele><time>2026-04-19T11:49:50.473Z</time></trkpt><trkpt lat="40.5746467" lon="8.3688317"><ele>20.0</ele><time>2026-04-19T11:49:51.473Z</time></trkpt><trkpt lat="40.5746333" lon="8.3690467"><ele>20.0</ele><time>2026-04-19T11:49:52.472Z</time></trkpt><trkpt lat="40.5746117" lon="8.3692733"><ele>21.333333333333336</ele><time>2026-04-19T11:49:53.472Z</time></trkpt><trkpt lat="40.57459" lon="8.3694967"><ele>22.666666666666668</ele><time>2026-04-19T11:49:54.472Z</time></trkpt><trkpt lat="40.5745683" lon="8.369735"><ele>24.0</ele><time>2026-04-19T11:49:55.473Z</time></trkpt><trkpt lat="40.5745517" lon="8.3699667"><ele>24.0</ele><time>2026-04-19T11:49:56.473Z</time></trkpt><trkpt lat="40.5745333" lon="8.3701933"><ele>24.0</ele><time>2026-04-19T11:49:57.472Z</time></trkpt><trkpt lat="40.574515" lon="8.3704133"><ele>24.0</ele><time>2026-04-19T11:49:58.473Z</time></trkpt><trkpt lat="40.5744917" lon="8.3706267"><ele>24.333333333333336</ele><time>2026-04-19T11:49:59.473Z</time></trkpt><trkpt lat="40.5744783" lon="8.3708317"><ele>24.666666666666668</ele><time>2026-04-19T11:50:00.473Z</time></trkpt><trkpt lat="40.5744583" lon="8.3710433"><ele>25.0</ele><time>2026-04-19T11:50:01.472Z</time></trkpt><trkpt lat="40.5744367" lon="8.37127"><ele>25.666666666666668</ele><time>2026-04-19T11:50:02.472Z</time></trkpt><trkpt lat="40.5744167" lon="8.3714933"><ele>26.333333333333336</ele><time>2026-04-19T11:50:03.472Z</time></trkpt><trkpt lat="40.5743833" lon="8.371715"><ele>27.0</ele><time>2026-04-19T11:50:04.472Z</time></trkpt><trkpt lat="40.57435" lon="8.3719367"><ele>27.0</ele><time>2026-04-19T11:50:05.473Z</time></trkpt><trkpt lat="40.57433" lon="8.37215"><ele>27.0</ele><time>2026-04-19T11:50:06.472Z</time></trkpt><trkpt lat="40.5742933" lon="8.372345"><ele>27.0</ele><time>2026-04-19T11:50:07.472Z</time></trkpt><trkpt lat="40.5742683" lon="8.3725167"><ele>27.0</ele><time>2026-04-19T11:50:08.473Z</time></trkpt><trkpt lat="40.5742417" lon="8.372675"><ele>27.5</ele><time>2026-04-19T11:50:09.473Z</time></trkpt><trkpt lat="40.5742133" lon="8.37283"><ele>28.0</ele><time>2026-04-19T11:50:10.472Z</time></trkpt><trkpt lat="40.574185" lon="8.372975"><ele>28.5</ele><time>2026-04-19T11:50:11.472Z</time></trkpt><trkpt lat="40.57415" lon="8.3731167"><ele>29.0</ele><time>2026-04-19T11:50:12.472Z</time></trkpt><trkpt lat="40.57413" lon="8.3732483"><ele>29.0</ele><time>2026-04-19T11:50:13.473Z</time></trkpt><trkpt lat="40.574115" lon="8.373385"><ele>29.0</ele><time>2026-04-19T11:50:14.472Z</time></trkpt><trkpt lat="40.5741283" lon="8.373525"><ele>29.0</ele><time>2026-04-19T11:50:15.472Z</time></trkpt><trkpt lat="40.5741633" lon="8.37367"><ele>29.0</ele><time>2026-04-19T11:50:16.473Z</time></trkpt><trkpt lat="40.5742167" lon="8.3738217"><ele>29.333333333333332</ele><time>2026-04-19T11:50:17.473Z</time></trkpt><trkpt lat="40.5742967" lon="8.37398"><ele>29.666666666666664</ele><time>2026-04-19T11:50:18.472Z</time></trkpt><trkpt lat="40.5743833" lon="8.3741433"><ele>30.0</ele><time>2026-04-19T11:50:19.473Z</time></trkpt><trkpt lat="40.5744783" lon="8.3743167"><ele>29.333333333333336</ele><time>2026-04-19T11:50:20.473Z</time></trkpt><trkpt lat="40.574575" lon="8.3744933"><ele>28.666666666666668</ele><time>2026-04-19T11:50:21.473Z</time></trkpt><trkpt lat="40.57467" lon="8.3746633"><ele>28.0</ele><time>2026-04-19T11:50:22.472Z</time></trkpt><trkpt lat="40.5747567" lon="8.3748383"><ele>28.0</ele><time>2026-04-19T11:50:23.472Z</time></trkpt><trkpt lat="40.5748417" lon="8.3750183"><ele>28.0</ele><time>2026-04-19T11:50:24.473Z</time></trkpt><trkpt lat="40.574915" lon="8.37521"><ele>28.0</ele><time>2026-04-19T11:50:25.473Z</time></trkpt><trkpt lat="40.5749917" lon="8.3754017"><ele>28.0</ele><time>2026-04-19T11:50:26.472Z</time></trkpt><trkpt lat="40.5750583" lon="8.3755833"><ele>28.0</ele><time>2026-04-19T11:50:27.472Z</time></trkpt><trkpt lat="40.5751267" lon="8.375755"><ele>28.0</ele><time>2026-04-19T11:50:28.472Z</time></trkpt><trkpt lat="40.5752" lon="8.3759317"><ele>28.0</ele><time>2026-04-19T11:50:29.473Z</time></trkpt><trkpt lat="40.57526" lon="8.3761167"><ele>28.0</ele><time>2026-04-19T11:50:30.473Z</time></trkpt><trkpt lat="40.5753" lon="8.3762967"><ele>28.0</ele><time>2026-04-19T11:50:31.473Z</time></trkpt><trkpt lat="40.5753317" lon="8.37646"><ele>28.0</ele><time>2026-04-19T11:50:32.472Z</time></trkpt><trkpt lat="40.5753733" lon="8.3766333"><ele>28.666666666666668</ele><time>2026-04-19T11:50:33.472Z</time></trkpt><trkpt lat="40.5754467" lon="8.376795"><ele>29.333333333333336</ele><time>2026-04-19T11:50:34.472Z</time></trkpt><trkpt lat="40.5755417" lon="8.3769467"><ele>30.0</ele><time>2026-04-19T11:50:35.473Z</time></trkpt><trkpt lat="40.5756383" lon="8.3771133"><ele>30.0</ele><time>2026-04-19T11:50:36.472Z</time></trkpt><trkpt lat="40.5757267" lon="8.3772683"><ele>30.0</ele><time>2026-04-19T11:50:37.472Z</time></trkpt><trkpt lat="40.5757967" lon="8.3774367"><ele>30.0</ele><time>2026-04-19T11:50:38.472Z</time></trkpt><trkpt lat="40.5758617" lon="8.3776233"><ele>30.0</ele><time>2026-04-19T11:50:39.473Z</time></trkpt><trkpt lat="40.575925" lon="8.37781"><ele>30.0</ele><time>2026-04-19T11:50:40.472Z</time></trkpt><trkpt lat="40.5759733" lon="8.3780033"><ele>30.0</ele><time>2026-04-19T11:50:41.473Z</time></trkpt><trkpt lat="40.575995" lon="8.3782083"><ele>30.0</ele><time>2026-04-19T11:50:42.472Z</time></trkpt><trkpt lat="40.5760033" lon="8.37842"><ele>30.0</ele><time>2026-04-19T11:50:43.472Z</time></trkpt><trkpt lat="40.5760217" lon="8.3786417"><ele>30.0</ele><time>2026-04-19T11:50:44.472Z</time></trkpt><trkpt lat="40.5760383" lon="8.3788583"><ele>30.0</ele><time>2026-04-19T11:50:45.473Z</time></trkpt><trkpt lat="40.57606" lon="8.379085"><ele>30.0</ele><time>2026-04-19T11:50:46.473Z</time></trkpt><trkpt lat="40.5761" lon="8.3793217"><ele>30.0</ele><time>2026-04-19T11:50:47.472Z</time></trkpt><trkpt lat="40.5761467" lon="8.3795617"><ele>30.0</ele><time>2026-04-19T11:50:48.472Z</time></trkpt><trkpt lat="40.576205" lon="8.3797883"><ele>31.0</ele><time>2026-04-19T11:50:49.473Z</time></trkpt><trkpt lat="40.5762483" lon="8.3800367"><ele>32.0</ele><time>2026-04-19T11:50:50.472Z</time></trkpt><trkpt lat="40.5762983" lon="8.3802567"><ele>33.0</ele><time>2026-04-19T11:50:51.472Z</time></trkpt><trkpt lat="40.576345" lon="8.3805017"><ele>32.666666666666664</ele><time>2026-04-19T11:50:52.473Z</time></trkpt><trkpt lat="40.5764" lon="8.3807433"><ele>32.33333333333333</ele><time>2026-04-19T11:50:53.473Z</time></trkpt><trkpt lat="40.5764567" lon="8.3809817"><ele>32.0</ele><time>2026-04-19T11:50:54.473Z</time></trkpt><trkpt lat="40.576505" lon="8.3812017"><ele>31.666666666666664</ele><time>2026-04-19T11:50:55.473Z</time></trkpt><trkpt lat="40.5765467" lon="8.381415"><ele>31.333333333333336</ele><time>2026-04-19T11:50:56.472Z</time></trkpt><trkpt lat="40.5765917" lon="8.38163"><ele>31.0</ele><time>2026-04-19T11:50:57.473Z</time></trkpt><trkpt lat="40.5766483" lon="8.3818417"><ele>31.0</ele><time>2026-04-19T11:50:58.472Z</time></trkpt><trkpt lat="40.5766967" lon="8.3820417"><ele>31.0</ele><time>2026-04-19T11:50:59.472Z</time></trkpt><trkpt lat="40.57676" lon="8.3822333"><ele>31.0</ele><time>2026-04-19T11:51:00.472Z</time></trkpt><trkpt lat="40.57685" lon="8.3824183"><ele>31.0</ele><time>2026-04-19T11:51:01.472Z</time></trkpt><trkpt lat="40.57695" lon="8.3825933"><ele>31.0</ele><time>2026-04-19T11:51:02.473Z</time></trkpt><trkpt lat="40.5770617" lon="8.38277"><ele>31.0</ele><time>2026-04-19T11:51:03.472Z</time></trkpt><trkpt lat="40.57718" lon="8.3829467"><ele>31.666666666666668</ele><time>2026-04-19T11:51:04.472Z</time></trkpt><trkpt lat="40.5772933" lon="8.383125"><ele>32.333333333333336</ele><time>2026-04-19T11:51:05.472Z</time></trkpt><trkpt lat="40.5773967" lon="8.383305"><ele>33.0</ele><time>2026-04-19T11:51:06.472Z</time></trkpt><trkpt lat="40.5775" lon="8.383485"><ele>33.0</ele><time>2026-04-19T11:51:07.473Z</time></trkpt><trkpt lat="40.577605" lon="8.3836567"><ele>33.0</ele><time>2026-04-19T11:51:08.472Z</time></trkpt><trkpt lat="40.5777033" lon="8.383815"><ele>33.0</ele><time>2026-04-19T11:51:09.472Z</time></trkpt><trkpt lat="40.5777933" lon="8.38398"><ele>34.333333333333336</ele><time>2026-04-19T11:51:10.473Z</time></trkpt><trkpt lat="40.5778833" lon="8.3841433"><ele>35.66666666666667</ele><time>2026-04-19T11:51:11.472Z</time></trkpt><trkpt lat="40.5779533" lon="8.384345"><ele>37.0</ele><time>2026-04-19T11:51:12.473Z</time></trkpt><trkpt lat="40.5780017" lon="8.3845483"><ele>37.0</ele><time>2026-04-19T11:51:13.472Z</time></trkpt><trkpt lat="40.5780417" lon="8.384775"><ele>37.0</ele><time>2026-04-19T11:51:14.473Z</time></trkpt><trkpt lat="40.5780833" lon="8.3850017"><ele>37.0</ele><time>2026-04-19T11:51:15.472Z</time></trkpt><trkpt lat="40.57812" lon="8.38522"><ele>37.0</ele><time>2026-04-19T11:51:16.472Z</time></trkpt><trkpt lat="40.578165" lon="8.385435"><ele>37.0</ele><time>2026-04-19T11:51:17.472Z</time></trkpt><trkpt lat="40.578215" lon="8.385655"><ele>37.0</ele><time>2026-04-19T11:51:18.472Z</time></trkpt><trkpt lat="40.578265" lon="8.3858817"><ele>36.66666666666667</ele><time>2026-04-19T11:51:19.472Z</time></trkpt><trkpt lat="40.578305" lon="8.3860983"><ele>36.333333333333336</ele><time>2026-04-19T11:51:20.472Z</time></trkpt><trkpt lat="40.5783383" lon="8.3862983"><ele>36.0</ele><time>2026-04-19T11:51:21.472Z</time></trkpt><trkpt lat="40.5783683" lon="8.3865067"><ele>36.0</ele><time>2026-04-19T11:51:22.472Z</time></trkpt><trkpt lat="40.5783883" lon="8.386725"><ele>36.0</ele><time>2026-04-19T11:51:23.472Z</time></trkpt><trkpt lat="40.5784083" lon="8.3869267"><ele>36.0</ele><time>2026-04-19T11:51:24.472Z</time></trkpt><trkpt lat="40.5784283" lon="8.3871267"><ele>36.333333333333336</ele><time>2026-04-19T11:51:25.473Z</time></trkpt><trkpt lat="40.5784583" lon="8.3873133"><ele>36.66666666666667</ele><time>2026-04-19T11:51:26.472Z</time></trkpt><trkpt lat="40.5784983" lon="8.3875083"><ele>37.0</ele><time>2026-04-19T11:51:27.472Z</time></trkpt><trkpt lat="40.5785533" lon="8.3877067"><ele>37.0</ele><time>2026-04-19T11:51:28.473Z</time></trkpt><trkpt lat="40.5786167" lon="8.3879"><ele>37.0</ele><time>2026-04-19T11:51:29.472Z</time></trkpt><trkpt lat="40.5786783" lon="8.3880867"><ele>37.0</ele><time>2026-04-19T11:51:30.472Z</time></trkpt><trkpt lat="40.5787283" lon="8.3882833"><ele>37.66666666666667</ele><time>2026-04-19T11:51:31.473Z</time></trkpt><trkpt lat="40.5787783" lon="8.3884817"><ele>38.333333333333336</ele><time>2026-04-19T11:51:32.472Z</time></trkpt><trkpt lat="40.5788283" lon="8.3886783"><ele>39.0</ele><time>2026-04-19T11:51:33.473Z</time></trkpt><trkpt lat="40.57887" lon="8.3888783"><ele>39.0</ele><time>2026-04-19T11:51:34.472Z</time></trkpt><trkpt lat="40.5789033" lon="8.389065"><ele>39.0</ele><time>2026-04-19T11:51:35.473Z</time></trkpt><trkpt lat="40.578935" lon="8.3892567"><ele>39.0</ele><time>2026-04-19T11:51:36.472Z</time></trkpt><trkpt lat="40.57897" lon="8.3894233"><ele>39.0</ele><time>2026-04-19T11:51:37.472Z</time></trkpt><trkpt lat="40.5789867" lon="8.389585"><ele>39.0</ele><time>2026-04-19T11:51:38.473Z</time></trkpt><trkpt lat="40.5789833" lon="8.3897533"><ele>39.0</ele><time>2026-04-19T11:51:39.473Z</time></trkpt><trkpt lat="40.5789583" lon="8.3899333"><ele>39.0</ele><time>2026-04-19T11:51:40.472Z</time></trkpt><trkpt lat="40.5789267" lon="8.3901367"><ele>39.0</ele><time>2026-04-19T11:51:41.472Z</time></trkpt><trkpt lat="40.57888" lon="8.3903533"><ele>39.333333333333336</ele><time>2026-04-19T11:51:42.472Z</time></trkpt><trkpt lat="40.578845" lon="8.390575"><ele>39.66666666666667</ele><time>2026-04-19T11:51:43.473Z</time></trkpt><trkpt lat="40.5788183" lon="8.3907883"><ele>40.0</ele><time>2026-04-19T11:51:44.472Z</time></trkpt><trkpt lat="40.5787983" lon="8.3909833"><ele>40.0</ele><time>2026-04-19T11:51:45.472Z</time></trkpt><trkpt lat="40.5787783" lon="8.3911783"><ele>40.0</ele><time>2026-04-19T11:51:46.472Z</time></trkpt><trkpt lat="40.5787633" lon="8.3913767"><ele>40.0</ele><time>2026-04-19T11:51:47.472Z</time></trkpt><trkpt lat="40.578745" lon="8.391565"><ele>40.0</ele><time>2026-04-19T11:51:48.473Z</time></trkpt><trkpt lat="40.5787167" lon="8.3917483"><ele>40.25</ele><time>2026-04-19T11:51:49.472Z</time></trkpt><trkpt lat="40.5786883" lon="8.3919233"><ele>40.5</ele><time>2026-04-19T11:51:50.473Z</time></trkpt><trkpt lat="40.5786617" lon="8.3921067"><ele>40.75</ele><time>2026-04-19T11:51:51.472Z</time></trkpt><trkpt lat="40.5786283" lon="8.3922917"><ele>41.0</ele><time>2026-04-19T11:51:52.472Z</time></trkpt><trkpt lat="40.57859" lon="8.3924733"><ele>41.666666666666664</ele><time>2026-04-19T11:51:53.473Z</time></trkpt><trkpt lat="40.5785583" lon="8.3926683"><ele>42.333333333333336</ele><time>2026-04-19T11:51:54.472Z</time></trkpt><trkpt lat="40.5785233" lon="8.3928683"><ele>43.0</ele><time>2026-04-19T11:51:55.472Z</time></trkpt><trkpt lat="40.5784817" lon="8.3930767"><ele>43.333333333333336</ele><time>2026-04-19T11:51:56.472Z</time></trkpt><trkpt lat="40.57844" lon="8.3932867"><ele>43.666666666666664</ele><time>2026-04-19T11:51:57.472Z</time></trkpt><trkpt lat="40.5784067" lon="8.3935017"><ele>44.0</ele><time>2026-04-19T11:51:58.472Z</time></trkpt><trkpt lat="40.5783683" lon="8.3937083"><ele>43.666666666666664</ele><time>2026-04-19T11:51:59.472Z</time></trkpt><trkpt lat="40.5783317" lon="8.3939217"><ele>43.333333333333336</ele><time>2026-04-19T11:52:00.472Z</time></trkpt><trkpt lat="40.5782967" lon="8.3941233"><ele>43.0</ele><time>2026-04-19T11:52:01.472Z</time></trkpt><trkpt lat="40.5782583" lon="8.3943283"><ele>43.0</ele><time>2026-04-19T11:52:02.472Z</time></trkpt><trkpt lat="40.5782217" lon="8.39454"><ele>43.0</ele><time>2026-04-19T11:52:03.473Z</time></trkpt><trkpt lat="40.5781783" lon="8.394755"><ele>43.0</ele><time>2026-04-19T11:52:04.472Z</time></trkpt><trkpt lat="40.5781467" lon="8.3949583"><ele>44.0</ele><time>2026-04-19T11:52:05.473Z</time></trkpt><trkpt lat="40.5781167" lon="8.3951567"><ele>45.0</ele><time>2026-04-19T11:52:06.472Z</time></trkpt><trkpt lat="40.5780883" lon="8.3953567"><ele>46.0</ele><time>2026-04-19T11:52:07.472Z</time></trkpt><trkpt lat="40.5780567" lon="8.395575"><ele>47.333333333333336</ele><time>2026-04-19T11:52:08.472Z</time></trkpt><trkpt lat="40.578025" lon="8.3958"><ele>48.66666666666667</ele><time>2026-04-19T11:52:09.473Z</time></trkpt><trkpt lat="40.577995" lon="8.396035"><ele>50.0</ele><time>2026-04-19T11:52:10.472Z</time></trkpt><trkpt lat="40.5779583" lon="8.3962783"><ele>51.66666666666667</ele><time>2026-04-19T11:52:11.473Z</time></trkpt><trkpt lat="40.57793" lon="8.39653"><ele>53.33333333333333</ele><time>2026-04-19T11:52:12.472Z</time></trkpt><trkpt lat="40.5779033" lon="8.3967783"><ele>55.0</ele><time>2026-04-19T11:52:13.472Z</time></trkpt><trkpt lat="40.5778783" lon="8.3970367"><ele>55.0</ele><time>2026-04-19T11:52:14.473Z</time></trkpt><trkpt lat="40.57786" lon="8.3972983"><ele>55.0</ele><time>2026-04-19T11:52:15.472Z</time></trkpt><trkpt lat="40.5778333" lon="8.39755"><ele>55.0</ele><time>2026-04-19T11:52:16.473Z</time></trkpt><trkpt lat="40.5778" lon="8.397805"><ele>57.0</ele><time>2026-04-19T11:52:17.472Z</time></trkpt><trkpt lat="40.577785" lon="8.3980533"><ele>59.0</ele><time>2026-04-19T11:52:18.473Z</time></trkpt><trkpt lat="40.5777767" lon="8.3982917"><ele>61.0</ele><time>2026-04-19T11:52:19.473Z</time></trkpt><trkpt lat="40.5777717" lon="8.398515"><ele>61.0</ele><time>2026-04-19T11:52:20.472Z</time></trkpt><trkpt lat="40.5777767" lon="8.39873"><ele>61.0</ele><time>2026-04-19T11:52:21.473Z</time></trkpt><trkpt lat="40.577785" lon="8.398945"><ele>61.0</ele><time>2026-04-19T11:52:22.472Z</time></trkpt><trkpt lat="40.5778" lon="8.399155"><ele>64.0</ele><time>2026-04-19T11:52:23.472Z</time></trkpt><trkpt lat="40.577815" lon="8.39937"><ele>67.0</ele><time>2026-04-19T11:52:24.473Z</time></trkpt><trkpt lat="40.5778467" lon="8.3995733"><ele>70.0</ele><time>2026-04-19T11:52:25.472Z</time></trkpt><trkpt lat="40.5778917" lon="8.39978"><ele>73.66666666666666</ele><time>2026-04-19T11:52:26.472Z</time></trkpt><trkpt lat="40.5779483" lon="8.3999817"><ele>77.33333333333333</ele><time>2026-04-19T11:52:27.472Z</time></trkpt><trkpt lat="40.578005" lon="8.4001783"><ele>81.0</ele><time>2026-04-19T11:52:28.472Z</time></trkpt><trkpt lat="40.57807" lon="8.4003533"><ele>81.25</ele><time>2026-04-19T11:52:29.473Z</time></trkpt><trkpt lat="40.5781267" lon="8.4005133"><ele>81.5</ele><time>2026-04-19T11:52:30.473Z</time></trkpt><trkpt lat="40.5781867" lon="8.4006583"><ele>81.75</ele><time>2026-04-19T11:52:31.472Z</time></trkpt><trkpt lat="40.578245" lon="8.4008033"><ele>82.0</ele><time>2026-04-19T11:52:32.472Z</time></trkpt><trkpt lat="40.578305" lon="8.4009567"><ele>82.0</ele><time>2026-04-19T11:52:33.472Z</time></trkpt><trkpt lat="40.5783583" lon="8.4011217"><ele>82.0</ele><time>2026-04-19T11:52:34.473Z</time></trkpt><trkpt lat="40.578415" lon="8.4013083"><ele>82.0</ele><time>2026-04-19T11:52:35.472Z</time></trkpt><trkpt lat="40.5784733" lon="8.4014983"><ele>82.0</ele><time>2026-04-19T11:52:36.472Z</time></trkpt><trkpt lat="40.5785217" lon="8.40169"><ele>80.66666666666666</ele><time>2026-04-19T11:52:37.472Z</time></trkpt><trkpt lat="40.5785733" lon="8.401875"><ele>79.33333333333333</ele><time>2026-04-19T11:52:38.472Z</time></trkpt><trkpt lat="40.5785983" lon="8.40207"><ele>78.0</ele><time>2026-04-19T11:52:39.473Z</time></trkpt><trkpt lat="40.578625" lon="8.4022883"><ele>77.0</ele><time>2026-04-19T11:52:40.473Z</time></trkpt><trkpt lat="40.5786383" lon="8.4025133"><ele>76.0</ele><time>2026-04-19T11:52:41.472Z</time></trkpt><trkpt lat="40.5786483" lon="8.4027383"><ele>75.0</ele><time>2026-04-19T11:52:42.472Z</time></trkpt><trkpt lat="40.5786633" lon="8.40296"><ele>72.66666666666667</ele><time>2026-04-19T11:52:43.472Z</time></trkpt><trkpt lat="40.57867" lon="8.4031833"><ele>70.33333333333334</ele><time>2026-04-19T11:52:44.473Z</time></trkpt><trkpt lat="40.5786783" lon="8.403405"><ele>68.0</ele><time>2026-04-19T11:52:45.472Z</time></trkpt><trkpt lat="40.5786883" lon="8.4036217"><ele>67.0</ele><time>2026-04-19T11:52:46.472Z</time></trkpt><trkpt lat="40.578695" lon="8.4038267"><ele>66.0</ele><time>2026-04-19T11:52:47.472Z</time></trkpt><trkpt lat="40.57869" lon="8.4040383"><ele>65.0</ele><time>2026-04-19T11:52:48.473Z</time></trkpt><trkpt lat="40.5786717" lon="8.4042467"><ele>65.0</ele><time>2026-04-19T11:52:49.472Z</time></trkpt><trkpt lat="40.5786583" lon="8.4044533"><ele>65.0</ele><time>2026-04-19T11:52:50.473Z</time></trkpt><trkpt lat="40.5786267" lon="8.4046617"><ele>65.0</ele><time>2026-04-19T11:52:51.472Z</time></trkpt><trkpt lat="40.578605" lon="8.4048683"><ele>64.0</ele><time>2026-04-19T11:52:52.473Z</time></trkpt><trkpt lat="40.578595" lon="8.4050817"><ele>63.0</ele><time>2026-04-19T11:52:53.472Z</time></trkpt><trkpt lat="40.578605" lon="8.4053033"><ele>62.0</ele><time>2026-04-19T11:52:54.473Z</time></trkpt><trkpt lat="40.5786233" lon="8.405525"><ele>62.0</ele><time>2026-04-19T11:52:55.472Z</time></trkpt><trkpt lat="40.5786417" lon="8.405755"><ele>62.0</ele><time>2026-04-19T11:52:56.473Z</time></trkpt><trkpt lat="40.5786617" lon="8.4059733"><ele>62.0</ele><time>2026-04-19T11:52:57.472Z</time></trkpt><trkpt lat="40.578685" lon="8.4061883"><ele>63.0</ele><time>2026-04-19T11:52:58.473Z</time></trkpt><trkpt lat="40.5787117" lon="8.4064033"><ele>64.0</ele><time>2026-04-19T11:52:59.472Z</time></trkpt><trkpt lat="40.5787283" lon="8.406625"><ele>65.0</ele><time>2026-04-19T11:53:00.472Z</time></trkpt><trkpt lat="40.5787433" lon="8.406845"><ele>65.0</ele><time>2026-04-19T11:53:01.473Z</time></trkpt><trkpt lat="40.57876" lon="8.4070667"><ele>65.0</ele><time>2026-04-19T11:53:02.473Z</time></trkpt><trkpt lat="40.57877" lon="8.407285"><ele>65.0</ele><time>2026-04-19T11:53:03.472Z</time></trkpt><trkpt lat="40.57877" lon="8.40751"><ele>67.0</ele><time>2026-04-19T11:53:04.472Z</time></trkpt><trkpt lat="40.57877" lon="8.4077383"><ele>69.0</ele><time>2026-04-19T11:53:05.473Z</time></trkpt><trkpt lat="40.5787733" lon="8.40797"><ele>71.0</ele><time>2026-04-19T11:53:06.473Z</time></trkpt><trkpt lat="40.5787767" lon="8.408195"><ele>73.0</ele><time>2026-04-19T11:53:07.473Z</time></trkpt><trkpt lat="40.5787833" lon="8.408425"><ele>75.0</ele><time>2026-04-19T11:53:08.473Z</time></trkpt><trkpt lat="40.578785" lon="8.4086533"><ele>77.0</ele><time>2026-04-19T11:53:09.472Z</time></trkpt><trkpt lat="40.5787917" lon="8.4089017"><ele>78.66666666666667</ele><time>2026-04-19T11:53:10.473Z</time></trkpt><trkpt lat="40.5788067" lon="8.4091483"><ele>80.33333333333333</ele><time>2026-04-19T11:53:11.473Z</time></trkpt><trkpt lat="40.5788083" lon="8.40938"><ele>82.0</ele><time>2026-04-19T11:53:12.473Z</time></trkpt><trkpt lat="40.578815" lon="8.4096"><ele>82.0</ele><time>2026-04-19T11:53:13.473Z</time></trkpt><trkpt lat="40.57884" lon="8.409815"><ele>82.0</ele><time>2026-04-19T11:53:14.473Z</time></trkpt><trkpt lat="40.5788817" lon="8.410015"><ele>82.0</ele><time>2026-04-19T11:53:15.473Z</time></trkpt><trkpt lat="40.5789333" lon="8.41021"><ele>82.0</ele><time>2026-04-19T11:53:16.472Z</time></trkpt><trkpt lat="40.578985" lon="8.4103867"><ele>82.0</ele><time>2026-04-19T11:53:17.473Z</time></trkpt><trkpt lat="40.57903" lon="8.4105683"><ele>82.0</ele><time>2026-04-19T11:53:18.472Z</time></trkpt><trkpt lat="40.5790733" lon="8.4107567"><ele>82.0</ele><time>2026-04-19T11:53:19.473Z</time></trkpt><trkpt lat="40.5791167" lon="8.4109633"><ele>81.33333333333333</ele><time>2026-04-19T11:53:20.472Z</time></trkpt><trkpt lat="40.5791533" lon="8.41116"><ele>80.66666666666667</ele><time>2026-04-19T11:53:21.472Z</time></trkpt><trkpt lat="40.579195" lon="8.411355"><ele>80.0</ele><time>2026-04-19T11:53:22.472Z</time></trkpt><trkpt lat="40.579235" lon="8.4115483"><ele>78.33333333333334</ele><time>2026-04-19T11:53:23.472Z</time></trkpt><trkpt lat="40.5792717" lon="8.4117467"><ele>76.66666666666667</ele><time>2026-04-19T11:53:24.473Z</time></trkpt><trkpt lat="40.5792883" lon="8.4119633"><ele>75.0</ele><time>2026-04-19T11:53:25.472Z</time></trkpt><trkpt lat="40.5792917" lon="8.4121733"><ele>73.0</ele><time>2026-04-19T11:53:26.472Z</time></trkpt><trkpt lat="40.5792967" lon="8.412375"><ele>71.0</ele><time>2026-04-19T11:53:27.472Z</time></trkpt><trkpt lat="40.5793" lon="8.41258"><ele>69.0</ele><time>2026-04-19T11:53:28.472Z</time></trkpt><trkpt lat="40.5792983" lon="8.4127817"><ele>69.0</ele><time>2026-04-19T11:53:29.473Z</time></trkpt><trkpt lat="40.579295" lon="8.41297"><ele>69.0</ele><time>2026-04-19T11:53:30.472Z</time></trkpt><trkpt lat="40.57929" lon="8.4131417"><ele>69.0</ele><time>2026-04-19T11:53:31.472Z</time></trkpt><trkpt lat="40.5792883" lon="8.4132983"><ele>69.0</ele><time>2026-04-19T11:53:32.472Z</time></trkpt><trkpt lat="40.5792867" lon="8.4134483"><ele>68.66666666666667</ele><time>2026-04-19T11:53:33.472Z</time></trkpt><trkpt lat="40.579285" lon="8.4135833"><ele>68.33333333333333</ele><time>2026-04-19T11:53:34.472Z</time></trkpt><trkpt lat="40.579275" lon="8.413705"><ele>68.0</ele><time>2026-04-19T11:53:35.472Z</time></trkpt><trkpt lat="40.5792617" lon="8.4138033"><ele>67.66666666666666</ele><time>2026-04-19T11:53:36.472Z</time></trkpt><trkpt lat="40.579245" lon="8.41394"><ele>67.33333333333333</ele><time>2026-04-19T11:53:38.472Z</time></trkpt><trkpt lat="40.57927" lon="8.41403"><ele>67.0</ele><time>2026-04-19T11:53:40.472Z</time></trkpt><trkpt lat="40.5793833" lon="8.41405"><ele>69.0</ele><time>2026-04-19T11:53:42.473Z</time></trkpt><trkpt lat="40.5794633" lon="8.414025"><ele>71.0</ele><time>2026-04-19T11:53:43.473Z</time></trkpt><trkpt lat="40.5795533" lon="8.4140033"><ele>73.0</ele><time>2026-04-19T11:53:44.472Z</time></trkpt><trkpt lat="40.5796567" lon="8.4139883"><ele>75.0</ele><time>2026-04-19T11:53:45.472Z</time></trkpt><trkpt lat="40.5797683" lon="8.413995"><ele>77.0</ele><time>2026-04-19T11:53:46.473Z</time></trkpt><trkpt lat="40.5798817" lon="8.41401"><ele>77.0</ele><time>2026-04-19T11:53:47.473Z</time></trkpt><trkpt lat="40.5799817" lon="8.4140483"><ele>77.0</ele><time>2026-04-19T11:53:48.473Z</time></trkpt><trkpt lat="40.5800833" lon="8.4140733"><ele>77.0</ele><time>2026-04-19T11:53:49.472Z</time></trkpt><trkpt lat="40.5801767" lon="8.414095"><ele>77.0</ele><time>2026-04-19T11:53:50.473Z</time></trkpt><trkpt lat="40.5802717" lon="8.4140733"><ele>77.0</ele><time>2026-04-19T11:53:51.472Z</time></trkpt><trkpt lat="40.58036" lon="8.414025"><ele>77.75</ele><time>2026-04-19T11:53:52.472Z</time></trkpt><trkpt lat="40.5804483" lon="8.41396"><ele>78.5</ele><time>2026-04-19T11:53:53.473Z</time></trkpt><trkpt lat="40.58054" lon="8.4138633"><ele>79.25</ele><time>2026-04-19T11:53:54.473Z</time></trkpt><trkpt lat="40.5806267" lon="8.4137467"><ele>80.0</ele><time>2026-04-19T11:53:55.472Z</time></trkpt><trkpt lat="40.5807217" lon="8.413605"><ele>80.0</ele><time>2026-04-19T11:53:56.473Z</time></trkpt><trkpt lat="40.5808183" lon="8.413455"><ele>80.0</ele><time>2026-04-19T11:53:57.472Z</time></trkpt><trkpt lat="40.5809067" lon="8.4132917"><ele>80.0</ele><time>2026-04-19T11:53:58.472Z</time></trkpt><trkpt lat="40.5810017" lon="8.4131433"><ele>80.0</ele><time>2026-04-19T11:53:59.473Z</time></trkpt><trkpt lat="40.581065" lon="8.413015"><ele>80.4</ele><time>2026-04-19T11:54:00.472Z</time></trkpt><trkpt lat="40.5811217" lon="8.4129067"><ele>80.8</ele><time>2026-04-19T11:54:01.472Z</time></trkpt><trkpt lat="40.58119" lon="8.4128117"><ele>81.19999999999999</ele><time>2026-04-19T11:54:02.472Z</time></trkpt><trkpt lat="40.5812683" lon="8.4127433"><ele>81.6</ele><time>2026-04-19T11:54:03.473Z</time></trkpt><trkpt lat="40.5813483" lon="8.4127033"><ele>82.0</ele><time>2026-04-19T11:54:04.472Z</time></trkpt><trkpt lat="40.5814483" lon="8.412695"><ele>82.0</ele><time>2026-04-19T11:54:05.473Z</time></trkpt><trkpt lat="40.5815533" lon="8.4127283"><ele>82.0</ele><time>2026-04-19T11:54:06.472Z</time></trkpt><trkpt lat="40.5816583" lon="8.4128"><ele>82.0</ele><time>2026-04-19T11:54:07.473Z</time></trkpt><trkpt lat="40.58176" lon="8.4128967"><ele>82.0</ele><time>2026-04-19T11:54:08.473Z</time></trkpt><trkpt lat="40.581865" lon="8.4129983"><ele>83.75</ele><time>2026-04-19T11:54:09.473Z</time></trkpt><trkpt lat="40.5819833" lon="8.413095"><ele>85.5</ele><time>2026-04-19T11:54:10.472Z</time></trkpt><trkpt lat="40.582115" lon="8.413185"><ele>87.25</ele><time>2026-04-19T11:54:11.472Z</time></trkpt><trkpt lat="40.58225" lon="8.4132767"><ele>89.0</ele><time>2026-04-19T11:54:12.473Z</time></trkpt><trkpt lat="40.582395" lon="8.41338"><ele>89.0</ele><time>2026-04-19T11:54:13.472Z</time></trkpt><trkpt lat="40.5825433" lon="8.41349"><ele>89.0</ele><time>2026-04-19T11:54:14.472Z</time></trkpt><trkpt lat="40.5826767" lon="8.4135917"><ele>89.0</ele><time>2026-04-19T11:54:15.472Z</time></trkpt><trkpt lat="40.582805" lon="8.413685"><ele>86.25</ele><time>2026-04-19T11:54:16.472Z</time></trkpt><trkpt lat="40.582925" lon="8.4137683"><ele>83.5</ele><time>2026-04-19T11:54:17.472Z</time></trkpt><trkpt lat="40.583035" lon="8.413865"><ele>80.75</ele><time>2026-04-19T11:54:18.472Z</time></trkpt><trkpt lat="40.58314" lon="8.41396"><ele>78.0</ele><time>2026-04-19T11:54:19.472Z</time></trkpt><trkpt lat="40.5832333" lon="8.41408"><ele>84.25</ele><time>2026-04-19T11:54:20.472Z</time></trkpt><trkpt lat="40.583305" lon="8.4142117"><ele>90.5</ele><time>2026-04-19T11:54:21.473Z</time></trkpt><trkpt lat="40.5833667" lon="8.4143633"><ele>96.75</ele><time>2026-04-19T11:54:22.473Z</time></trkpt><trkpt lat="40.5834233" lon="8.4145317"><ele>103.0</ele><time>2026-04-19T11:54:23.472Z</time></trkpt><trkpt lat="40.5834867" lon="8.414715"><ele>107.0</ele><time>2026-04-19T11:54:24.472Z</time></trkpt><trkpt lat="40.5835483" lon="8.4149117"><ele>111.0</ele><time>2026-04-19T11:54:25.472Z</time></trkpt><trkpt lat="40.583605" lon="8.415105"><ele>115.0</ele><time>2026-04-19T11:54:26.473Z</time></trkpt><trkpt lat="40.5836667" lon="8.4153017"><ele>113.33333333333334</ele><time>2026-04-19T11:54:27.473Z</time></trkpt><trkpt lat="40.5837267" lon="8.4155133"><ele>111.66666666666666</ele><time>2026-04-19T11:54:28.472Z</time></trkpt><trkpt lat="40.5837833" lon="8.415735"><ele>110.0</ele><time>2026-04-19T11:54:29.473Z</time></trkpt><trkpt lat="40.5838417" lon="8.4159483"><ele>110.0</ele><time>2026-04-19T11:54:30.472Z</time></trkpt><trkpt lat="40.5838867" lon="8.4161567"><ele>110.0</ele><time>2026-04-19T11:54:31.472Z</time></trkpt><trkpt lat="40.583915" lon="8.4163517"><ele>110.0</ele><time>2026-04-19T11:54:32.472Z</time></trkpt><trkpt lat="40.5839067" lon="8.41653"><ele>110.75</ele><time>2026-04-19T11:54:33.472Z</time></trkpt><trkpt lat="40.58388" lon="8.4167033"><ele>111.5</ele><time>2026-04-19T11:54:34.473Z</time></trkpt><trkpt lat="40.583835" lon="8.41688"><ele>112.25</ele><time>2026-04-19T11:54:35.473Z</time></trkpt><trkpt lat="40.5837917" lon="8.41707"><ele>113.0</ele><time>2026-04-19T11:54:36.472Z</time></trkpt><trkpt lat="40.58377" lon="8.4172667"><ele>113.25</ele><time>2026-04-19T11:54:37.472Z</time></trkpt><trkpt lat="40.583755" lon="8.4174583"><ele>113.5</ele><time>2026-04-19T11:54:38.472Z</time></trkpt><trkpt lat="40.5837433" lon="8.41764"><ele>113.75</ele><time>2026-04-19T11:54:39.472Z</time></trkpt><trkpt lat="40.58374" lon="8.4177933"><ele>114.0</ele><time>2026-04-19T11:54:40.473Z</time></trkpt><trkpt lat="40.5837183" lon="8.4179433"><ele>120.5</ele><time>2026-04-19T11:54:41.472Z</time></trkpt><trkpt lat="40.5836717" lon="8.4180983"><ele>127.0</ele><time>2026-04-19T11:54:42.472Z</time></trkpt><trkpt lat="40.5836033" lon="8.4182567"><ele>133.5</ele><time>2026-04-19T11:54:43.472Z</time></trkpt><trkpt lat="40.58354" lon="8.418415"><ele>140.0</ele><time>2026-04-19T11:54:44.473Z</time></trkpt><trkpt lat="40.5834833" lon="8.4185617"><ele>140.0</ele><time>2026-04-19T11:54:45.472Z</time></trkpt><trkpt lat="40.5834133" lon="8.41871"><ele>140.0</ele><time>2026-04-19T11:54:46.473Z</time></trkpt><trkpt lat="40.5833383" lon="8.4188367"><ele>140.0</ele><time>2026-04-19T11:54:47.472Z</time></trkpt><trkpt lat="40.5832583" lon="8.4189617"><ele>140.0</ele><time>2026-04-19T11:54:48.472Z</time></trkpt><trkpt lat="40.5831933" lon="8.419085"><ele>139.0</ele><time>2026-04-19T11:54:49.472Z</time></trkpt><trkpt lat="40.58314" lon="8.4192067"><ele>138.0</ele><time>2026-04-19T11:54:50.473Z</time></trkpt><trkpt lat="40.5831" lon="8.4193167"><ele>137.0</ele><time>2026-04-19T11:54:51.473Z</time></trkpt><trkpt lat="40.5830917" lon="8.4194333"><ele>136.0</ele><time>2026-04-19T11:54:52.473Z</time></trkpt><trkpt lat="40.5831033" lon="8.419575"><ele>135.0</ele><time>2026-04-19T11:54:53.473Z</time></trkpt><trkpt lat="40.58314" lon="8.419715"><ele>135.0</ele><time>2026-04-19T11:54:54.472Z</time></trkpt><trkpt lat="40.5831817" lon="8.4198783"><ele>135.0</ele><time>2026-04-19T11:54:55.472Z</time></trkpt><trkpt lat="40.5832283" lon="8.4200467"><ele>135.0</ele><time>2026-04-19T11:54:56.472Z</time></trkpt><trkpt lat="40.5832667" lon="8.42022"><ele>135.0</ele><time>2026-04-19T11:54:57.473Z</time></trkpt><trkpt lat="40.5832967" lon="8.4204033"><ele>136.0</ele><time>2026-04-19T11:54:58.472Z</time></trkpt><trkpt lat="40.58331" lon="8.4205917"><ele>137.0</ele><time>2026-04-19T11:54:59.472Z</time></trkpt><trkpt lat="40.5833067" lon="8.420795"><ele>138.0</ele><time>2026-04-19T11:55:00.472Z</time></trkpt><trkpt lat="40.5833" lon="8.4210233"><ele>138.0</ele><time>2026-04-19T11:55:01.472Z</time></trkpt><trkpt lat="40.58329" lon="8.421255"><ele>138.0</ele><time>2026-04-19T11:55:02.472Z</time></trkpt><trkpt lat="40.5832817" lon="8.421495"><ele>138.0</ele><time>2026-04-19T11:55:03.472Z</time></trkpt><trkpt lat="40.58327" lon="8.4217317"><ele>138.33333333333334</ele><time>2026-04-19T11:55:04.472Z</time></trkpt><trkpt lat="40.5832533" lon="8.4219767"><ele>138.66666666666669</ele><time>2026-04-19T11:55:05.473Z</time></trkpt><trkpt lat="40.5832233" lon="8.4222283"><ele>139.0</ele><time>2026-04-19T11:55:06.473Z</time></trkpt><trkpt lat="40.5831733" lon="8.4224783"><ele>140.0</ele><time>2026-04-19T11:55:07.473Z</time></trkpt><trkpt lat="40.5831317" lon="8.42273"><ele>141.0</ele><time>2026-04-19T11:55:08.473Z</time></trkpt><trkpt lat="40.5830767" lon="8.4229767"><ele>142.0</ele><time>2026-04-19T11:55:09.473Z</time></trkpt><trkpt lat="40.583025" lon="8.423215"><ele>143.0</ele><time>2026-04-19T11:55:10.473Z</time></trkpt><trkpt lat="40.5829683" lon="8.4234417"><ele>144.0</ele><time>2026-04-19T11:55:11.473Z</time></trkpt><trkpt lat="40.5829217" lon="8.42367"><ele>145.0</ele><time>2026-04-19T11:55:12.472Z</time></trkpt><trkpt lat="40.5828767" lon="8.4239083"><ele>151.0</ele><time>2026-04-19T11:55:13.473Z</time></trkpt><trkpt lat="40.5828367" lon="8.4241467"><ele>157.0</ele><time>2026-04-19T11:55:14.472Z</time></trkpt><trkpt lat="40.58279" lon="8.4243933"><ele>163.0</ele><time>2026-04-19T11:55:15.473Z</time></trkpt><trkpt lat="40.5827383" lon="8.4246267"><ele>163.33333333333334</ele><time>2026-04-19T11:55:16.472Z</time></trkpt><trkpt lat="40.5826983" lon="8.4248583"><ele>163.66666666666666</ele><time>2026-04-19T11:55:17.472Z</time></trkpt><trkpt lat="40.582665" lon="8.42509"><ele>164.0</ele><time>2026-04-19T11:55:18.473Z</time></trkpt><trkpt lat="40.5826233" lon="8.4253267"><ele>164.33333333333331</ele><time>2026-04-19T11:55:19.472Z</time></trkpt><trkpt lat="40.5825667" lon="8.42556"><ele>164.66666666666666</ele><time>2026-04-19T11:55:20.472Z</time></trkpt><trkpt lat="40.5825" lon="8.42576"><ele>165.0</ele><time>2026-04-19T11:55:21.473Z</time></trkpt><trkpt lat="40.5824317" lon="8.42594"><ele>165.0</ele><time>2026-04-19T11:55:22.472Z</time></trkpt><trkpt lat="40.582375" lon="8.426095"><ele>165.0</ele><time>2026-04-19T11:55:23.472Z</time></trkpt><trkpt lat="40.5823217" lon="8.426245"><ele>165.0</ele><time>2026-04-19T11:55:24.472Z</time></trkpt><trkpt lat="40.5822733" lon="8.42638"><ele>165.0</ele><time>2026-04-19T11:55:25.472Z</time></trkpt><trkpt lat="40.5822233" lon="8.4264933"><ele>165.0</ele><time>2026-04-19T11:55:26.472Z</time></trkpt><trkpt lat="40.582165" lon="8.4265833"><ele>165.0</ele><time>2026-04-19T11:55:27.473Z</time></trkpt><trkpt lat="40.5820883" lon="8.4266633"><ele>165.0</ele><time>2026-04-19T11:55:28.472Z</time></trkpt><trkpt lat="40.5820117" lon="8.4267233"><ele>165.0</ele><time>2026-04-19T11:55:29.473Z</time></trkpt><trkpt lat="40.58193" lon="8.4267633"><ele>165.0</ele><time>2026-04-19T11:55:30.473Z</time></trkpt><trkpt lat="40.5818367" lon="8.4267617"><ele>165.0</ele><time>2026-04-19T11:55:31.472Z</time></trkpt><trkpt lat="40.5817233" lon="8.4267383"><ele>165.0</ele><time>2026-04-19T11:55:32.473Z</time></trkpt><trkpt lat="40.5815917" lon="8.4267017"><ele>165.0</ele><time>2026-04-19T11:55:33.472Z</time></trkpt><trkpt lat="40.581455" lon="8.42666"><ele>165.0</ele><time>2026-04-19T11:55:34.472Z</time></trkpt><trkpt lat="40.581315" lon="8.4266367"><ele>165.25</ele><time>2026-04-19T11:55:35.472Z</time></trkpt><trkpt lat="40.5811783" lon="8.4266417"><ele>165.5</ele><time>2026-04-19T11:55:36.472Z</time></trkpt><trkpt lat="40.58105" lon="8.426675"><ele>165.75</ele><time>2026-04-19T11:55:37.472Z</time></trkpt><trkpt lat="40.5809317" lon="8.4267483"><ele>166.0</ele><time>2026-04-19T11:55:38.473Z</time></trkpt><trkpt lat="40.5808117" lon="8.4268433"><ele>166.0</ele><time>2026-04-19T11:55:39.473Z</time></trkpt><trkpt lat="40.5806983" lon="8.4269483"><ele>166.0</ele><time>2026-04-19T11:55:40.472Z</time></trkpt><trkpt lat="40.5805967" lon="8.4270583"><ele>166.0</ele><time>2026-04-19T11:55:41.473Z</time></trkpt><trkpt lat="40.5804767" lon="8.4271517"><ele>166.0</ele><time>2026-04-19T11:55:42.473Z</time></trkpt><trkpt lat="40.5803417" lon="8.42724"><ele>165.5</ele><time>2026-04-19T11:55:43.472Z</time></trkpt><trkpt lat="40.5802183" lon="8.427325"><ele>165.0</ele><time>2026-04-19T11:55:44.473Z</time></trkpt><trkpt lat="40.5801083" lon="8.4274167"><ele>164.5</ele><time>2026-04-19T11:55:45.473Z</time></trkpt><trkpt lat="40.5800017" lon="8.427505"><ele>164.0</ele><time>2026-04-19T11:55:46.472Z</time></trkpt><trkpt lat="40.579885" lon="8.42758"><ele>164.0</ele><time>2026-04-19T11:55:47.472Z</time></trkpt><trkpt lat="40.5797617" lon="8.4276267"><ele>164.0</ele><time>2026-04-19T11:55:48.473Z</time></trkpt><trkpt lat="40.5796483" lon="8.4276817"><ele>164.0</ele><time>2026-04-19T11:55:49.472Z</time></trkpt><trkpt lat="40.5795467" lon="8.4277733"><ele>164.0</ele><time>2026-04-19T11:55:50.473Z</time></trkpt><trkpt lat="40.5794733" lon="8.4278917"><ele>165.25</ele><time>2026-04-19T11:55:51.473Z</time></trkpt><trkpt lat="40.5794417" lon="8.42805"><ele>166.5</ele><time>2026-04-19T11:55:52.472Z</time></trkpt><trkpt lat="40.5794283" lon="8.4282367"><ele>167.75</ele><time>2026-04-19T11:55:53.473Z</time></trkpt><trkpt lat="40.5794117" lon="8.4284383"><ele>169.0</ele><time>2026-04-19T11:55:54.472Z</time></trkpt><trkpt lat="40.5793867" lon="8.42864"><ele>169.75</ele><time>2026-04-19T11:55:55.472Z</time></trkpt><trkpt lat="40.579355" lon="8.4288217"><ele>170.5</ele><time>2026-04-19T11:55:56.473Z</time></trkpt><trkpt lat="40.579355" lon="8.4289983"><ele>171.25</ele><time>2026-04-19T11:55:57.473Z</time></trkpt><trkpt lat="40.579385" lon="8.4291517"><ele>172.0</ele><time>2026-04-19T11:55:58.473Z</time></trkpt><trkpt lat="40.5794483" lon="8.42928"><ele>170.25</ele><time>2026-04-19T11:55:59.472Z</time></trkpt><trkpt lat="40.5795517" lon="8.4293933"><ele>168.5</ele><time>2026-04-19T11:56:00.472Z</time></trkpt><trkpt lat="40.579665" lon="8.4294833"><ele>166.75</ele><time>2026-04-19T11:56:01.473Z</time></trkpt><trkpt lat="40.5797683" lon="8.429565"><ele>165.0</ele><time>2026-04-19T11:56:02.472Z</time></trkpt><trkpt lat="40.5798567" lon="8.4296583"><ele>165.0</ele><time>2026-04-19T11:56:03.473Z</time></trkpt><trkpt lat="40.57994" lon="8.4297767"><ele>165.0</ele><time>2026-04-19T11:56:04.472Z</time></trkpt><trkpt lat="40.5800083" lon="8.429925"><ele>165.0</ele><time>2026-04-19T11:56:05.472Z</time></trkpt><trkpt lat="40.58006" lon="8.4301017"><ele>165.0</ele><time>2026-04-19T11:56:06.473Z</time></trkpt><trkpt lat="40.5801017" lon="8.4302867"><ele>166.33333333333334</ele><time>2026-04-19T11:56:07.473Z</time></trkpt><trkpt lat="40.5801217" lon="8.4304867"><ele>167.66666666666669</ele><time>2026-04-19T11:56:08.472Z</time></trkpt><trkpt lat="40.5801267" lon="8.4306867"><ele>169.0</ele><time>2026-04-19T11:56:09.472Z</time></trkpt><trkpt lat="40.5801333" lon="8.43088"><ele>169.0</ele><time>2026-04-19T11:56:10.473Z</time></trkpt><trkpt lat="40.5801533" lon="8.4310667"><ele>169.0</ele><time>2026-04-19T11:56:11.472Z</time></trkpt><trkpt lat="40.5801933" lon="8.4312517"><ele>169.0</ele><time>2026-04-19T11:56:12.473Z</time></trkpt><trkpt lat="40.5802283" lon="8.4314233"><ele>169.0</ele><time>2026-04-19T11:56:13.473Z</time></trkpt><trkpt lat="40.58025" lon="8.43159"><ele>170.5</ele><time>2026-04-19T11:56:14.473Z</time></trkpt><trkpt lat="40.580255" lon="8.4317667"><ele>172.0</ele><time>2026-04-19T11:56:15.473Z</time></trkpt><trkpt lat="40.5802467" lon="8.4319283"><ele>173.5</ele><time>2026-04-19T11:56:16.472Z</time></trkpt><trkpt lat="40.5802317" lon="8.4320667"><ele>175.0</ele><time>2026-04-19T11:56:17.473Z</time></trkpt><trkpt lat="40.5801917" lon="8.4322033"><ele>176.0</ele><time>2026-04-19T11:56:18.473Z</time></trkpt><trkpt lat="40.5801283" lon="8.4323317"><ele>177.0</ele><time>2026-04-19T11:56:19.473Z</time></trkpt><trkpt lat="40.580075" lon="8.4324533"><ele>178.0</ele><time>2026-04-19T11:56:20.473Z</time></trkpt><trkpt lat="40.5800317" lon="8.4325967"><ele>179.0</ele><time>2026-04-19T11:56:21.472Z</time></trkpt><trkpt lat="40.5800017" lon="8.4327567"><ele>179.0</ele><time>2026-04-19T11:56:22.472Z</time></trkpt><trkpt lat="40.5799767" lon="8.4329083"><ele>179.0</ele><time>2026-04-19T11:56:23.472Z</time></trkpt><trkpt lat="40.5799433" lon="8.4330467"><ele>179.0</ele><time>2026-04-19T11:56:24.473Z</time></trkpt><trkpt lat="40.5798983" lon="8.4331833"><ele>179.0</ele><time>2026-04-19T11:56:25.472Z</time></trkpt><trkpt lat="40.5798433" lon="8.4333083"><ele>179.2</ele><time>2026-04-19T11:56:26.473Z</time></trkpt><trkpt lat="40.5797867" lon="8.4334433"><ele>179.39999999999998</ele><time>2026-04-19T11:56:27.472Z</time></trkpt><trkpt lat="40.5797317" lon="8.43357"><ele>179.6</ele><time>2026-04-19T11:56:28.472Z</time></trkpt><trkpt lat="40.57967" lon="8.43368"><ele>179.8</ele><time>2026-04-19T11:56:29.472Z</time></trkpt><trkpt lat="40.5796067" lon="8.433785"><ele>180.0</ele><time>2026-04-19T11:56:30.472Z</time></trkpt><trkpt lat="40.5795417" lon="8.4339"><ele>180.6</ele><time>2026-04-19T11:56:31.472Z</time></trkpt><trkpt lat="40.5794783" lon="8.4340083"><ele>181.2</ele><time>2026-04-19T11:56:32.472Z</time></trkpt><trkpt lat="40.5794167" lon="8.434125"><ele>181.8</ele><time>2026-04-19T11:56:33.472Z</time></trkpt><trkpt lat="40.57938" lon="8.4342517"><ele>182.4</ele><time>2026-04-19T11:56:34.472Z</time></trkpt><trkpt lat="40.57937" lon="8.434385"><ele>183.0</ele><time>2026-04-19T11:56:35.472Z</time></trkpt><trkpt lat="40.5793667" lon="8.43452"><ele>183.0</ele><time>2026-04-19T11:56:36.472Z</time></trkpt><trkpt lat="40.5793767" lon="8.4346733"><ele>183.0</ele><time>2026-04-19T11:56:37.472Z</time></trkpt><trkpt lat="40.57938" lon="8.434845"><ele>183.0</ele><time>2026-04-19T11:56:38.473Z</time></trkpt><trkpt lat="40.5793767" lon="8.435035"><ele>183.0</ele><time>2026-04-19T11:56:39.473Z</time></trkpt><trkpt lat="40.579375" lon="8.4352417"><ele>183.0</ele><time>2026-04-19T11:56:40.472Z</time></trkpt><trkpt lat="40.57938" lon="8.4354667"><ele>183.0</ele><time>2026-04-19T11:56:41.473Z</time></trkpt><trkpt lat="40.57938" lon="8.4357017"><ele>183.0</ele><time>2026-04-19T11:56:42.472Z</time></trkpt><trkpt lat="40.5793833" lon="8.43593"><ele>183.0</ele><time>2026-04-19T11:56:43.473Z</time></trkpt><trkpt lat="40.5794083" lon="8.4361467"><ele>183.0</ele><time>2026-04-19T11:56:44.472Z</time></trkpt><trkpt lat="40.5794467" lon="8.43636"><ele>183.0</ele><time>2026-04-19T11:56:45.472Z</time></trkpt><trkpt lat="40.5795183" lon="8.4365667"><ele>182.75</ele><time>2026-04-19T11:56:46.473Z</time></trkpt><trkpt lat="40.5795833" lon="8.4367517"><ele>182.5</ele><time>2026-04-19T11:56:47.473Z</time></trkpt><trkpt lat="40.57964" lon="8.436925"><ele>182.25</ele><time>2026-04-19T11:56:48.472Z</time></trkpt><trkpt lat="40.5796617" lon="8.437085"><ele>182.0</ele><time>2026-04-19T11:56:49.472Z</time></trkpt><trkpt lat="40.5796617" lon="8.4372483"><ele>184.0</ele><time>2026-04-19T11:56:50.473Z</time></trkpt><trkpt lat="40.57965" lon="8.4374183"><ele>186.0</ele><time>2026-04-19T11:56:51.472Z</time></trkpt><trkpt lat="40.5796183" lon="8.437605"><ele>188.0</ele><time>2026-04-19T11:56:52.473Z</time></trkpt><trkpt lat="40.5795883" lon="8.4378083"><ele>190.0</ele><time>2026-04-19T11:56:53.473Z</time></trkpt><trkpt lat="40.57957" lon="8.4380217"><ele>191.0</ele><time>2026-04-19T11:56:54.473Z</time></trkpt><trkpt lat="40.5795517" lon="8.4382433"><ele>192.0</ele><time>2026-04-19T11:56:55.472Z</time></trkpt><trkpt lat="40.5795367" lon="8.43848"><ele>193.0</ele><time>2026-04-19T11:56:56.472Z</time></trkpt><trkpt lat="40.5795167" lon="8.4386967"><ele>194.75</ele><time>2026-04-19T11:56:57.472Z</time></trkpt><trkpt lat="40.5795" lon="8.43888"><ele>196.5</ele><time>2026-04-19T11:56:58.472Z</time></trkpt><trkpt lat="40.579485" lon="8.4390467"><ele>198.25</ele><time>2026-04-19T11:56:59.473Z</time></trkpt><trkpt lat="40.57947" lon="8.439185"><ele>200.0</ele><time>2026-04-19T11:57:00.472Z</time></trkpt><trkpt lat="40.5794583" lon="8.4393033"><ele>200.0</ele><time>2026-04-19T11:57:01.473Z</time></trkpt><trkpt lat="40.5794517" lon="8.439425"><ele>200.0</ele><time>2026-04-19T11:57:02.472Z</time></trkpt><trkpt lat="40.5794383" lon="8.43955"><ele>200.0</ele><time>2026-04-19T11:57:03.472Z</time></trkpt><trkpt lat="40.579425" lon="8.439665"><ele>200.0</ele><time>2026-04-19T11:57:04.473Z</time></trkpt><trkpt lat="40.5794" lon="8.43978"><ele>200.0</ele><time>2026-04-19T11:57:05.473Z</time></trkpt><trkpt lat="40.5793583" lon="8.439885"><ele>200.75</ele><time>2026-04-19T11:57:06.472Z</time></trkpt><trkpt lat="40.57929" lon="8.4399917"><ele>201.5</ele><time>2026-04-19T11:57:07.472Z</time></trkpt><trkpt lat="40.579215" lon="8.44011"><ele>202.25</ele><time>2026-04-19T11:57:08.472Z</time></trkpt><trkpt lat="40.5791417" lon="8.4402483"><ele>203.0</ele><time>2026-04-19T11:57:09.472Z</time></trkpt><trkpt lat="40.5790783" lon="8.4403883"><ele>201.25</ele><time>2026-04-19T11:57:10.472Z</time></trkpt><trkpt lat="40.579025" lon="8.4405317"><ele>199.5</ele><time>2026-04-19T11:57:11.473Z</time></trkpt><trkpt lat="40.5789883" lon="8.4406817"><ele>197.75</ele><time>2026-04-19T11:57:12.472Z</time></trkpt><trkpt lat="40.5789733" lon="8.440835"><ele>196.0</ele><time>2026-04-19T11:57:13.473Z</time></trkpt><trkpt lat="40.578955" lon="8.440985"><ele>196.0</ele><time>2026-04-19T11:57:14.472Z</time></trkpt><trkpt lat="40.5789333" lon="8.44112"><ele>196.0</ele><time>2026-04-19T11:57:15.472Z</time></trkpt><trkpt lat="40.5788967" lon="8.441265"><ele>196.0</ele><time>2026-04-19T11:57:16.473Z</time></trkpt><trkpt lat="40.5788517" lon="8.4413967"><ele>196.0</ele><time>2026-04-19T11:57:17.473Z</time></trkpt><trkpt lat="40.5787917" lon="8.44152"><ele>196.0</ele><time>2026-04-19T11:57:18.472Z</time></trkpt><trkpt lat="40.5787267" lon="8.4416467"><ele>195.75</ele><time>2026-04-19T11:57:19.473Z</time></trkpt><trkpt lat="40.5786583" lon="8.4417617"><ele>195.5</ele><time>2026-04-19T11:57:20.472Z</time></trkpt><trkpt lat="40.5785767" lon="8.4418667"><ele>195.25</ele><time>2026-04-19T11:57:21.472Z</time></trkpt><trkpt lat="40.57848" lon="8.4419717"><ele>195.0</ele><time>2026-04-19T11:57:22.472Z</time></trkpt><trkpt lat="40.5783783" lon="8.4420817"><ele>192.5</ele><time>2026-04-19T11:57:23.473Z</time></trkpt><trkpt lat="40.5782683" lon="8.442205"><ele>190.0</ele><time>2026-04-19T11:57:24.472Z</time></trkpt><trkpt lat="40.578165" lon="8.4423383"><ele>187.5</ele><time>2026-04-19T11:57:25.472Z</time></trkpt><trkpt lat="40.5780617" lon="8.4424833"><ele>185.0</ele><time>2026-04-19T11:57:26.472Z</time></trkpt><trkpt lat="40.5779767" lon="8.4426333"><ele>185.0</ele><time>2026-04-19T11:57:27.473Z</time></trkpt><trkpt lat="40.5778917" lon="8.4428083"><ele>185.0</ele><time>2026-04-19T11:57:28.473Z</time></trkpt><trkpt lat="40.5778117" lon="8.443"><ele>185.0</ele><time>2026-04-19T11:57:29.472Z</time></trkpt><trkpt lat="40.5777317" lon="8.4431933"><ele>184.66666666666666</ele><time>2026-04-19T11:57:30.472Z</time></trkpt><trkpt lat="40.5776467" lon="8.44339"><ele>184.33333333333334</ele><time>2026-04-19T11:57:31.472Z</time></trkpt><trkpt lat="40.577565" lon="8.4435833"><ele>184.0</ele><time>2026-04-19T11:57:32.472Z</time></trkpt><trkpt lat="40.5774867" lon="8.4438"><ele>184.0</ele><time>2026-04-19T11:57:33.472Z</time></trkpt><trkpt lat="40.5774083" lon="8.4440283"><ele>184.0</ele><time>2026-04-19T11:57:34.473Z</time></trkpt><trkpt lat="40.5773483" lon="8.4442567"><ele>184.0</ele><time>2026-04-19T11:57:35.472Z</time></trkpt><trkpt lat="40.5773033" lon="8.4444717"><ele>184.5</ele><time>2026-04-19T11:57:36.473Z</time></trkpt><trkpt lat="40.5772617" lon="8.4446633"><ele>185.0</ele><time>2026-04-19T11:57:37.473Z</time></trkpt><trkpt lat="40.5772283" lon="8.4448367"><ele>185.5</ele><time>2026-04-19T11:57:38.472Z</time></trkpt><trkpt lat="40.5771833" lon="8.4450033"><ele>186.0</ele><time>2026-04-19T11:57:39.473Z</time></trkpt><trkpt lat="40.5771333" lon="8.4451533"><ele>186.0</ele><time>2026-04-19T11:57:40.473Z</time></trkpt><trkpt lat="40.5770733" lon="8.445285"><ele>186.0</ele><time>2026-04-19T11:57:41.472Z</time></trkpt><trkpt lat="40.5769917" lon="8.44541"><ele>186.0</ele><time>2026-04-19T11:57:42.472Z</time></trkpt><trkpt lat="40.5768883" lon="8.4455367"><ele>186.0</ele><time>2026-04-19T11:57:43.472Z</time></trkpt><trkpt lat="40.5767767" lon="8.4456667"><ele>185.66666666666666</ele><time>2026-04-19T11:57:44.472Z</time></trkpt><trkpt lat="40.5766617" lon="8.4458067"><ele>185.33333333333331</ele><time>2026-04-19T11:57:45.473Z</time></trkpt><trkpt lat="40.5765417" lon="8.4459617"><ele>185.0</ele><time>2026-04-19T11:57:46.472Z</time></trkpt><trkpt lat="40.5764183" lon="8.44612"><ele>185.0</ele><time>2026-04-19T11:57:47.473Z</time></trkpt><trkpt lat="40.5762983" lon="8.4462733"><ele>185.0</ele><time>2026-04-19T11:57:48.473Z</time></trkpt><trkpt lat="40.5761717" lon="8.4464317"><ele>185.0</ele><time>2026-04-19T11:57:49.472Z</time></trkpt><trkpt lat="40.57605" lon="8.4466"><ele>184.66666666666666</ele><time>2026-04-19T11:57:50.473Z</time></trkpt><trkpt lat="40.575935" lon="8.4467733"><ele>184.33333333333334</ele><time>2026-04-19T11:57:51.473Z</time></trkpt><trkpt lat="40.5758333" lon="8.44696"><ele>184.0</ele><time>2026-04-19T11:57:52.473Z</time></trkpt><trkpt lat="40.5757317" lon="8.4471317"><ele>184.0</ele><time>2026-04-19T11:57:53.472Z</time></trkpt><trkpt lat="40.5756233" lon="8.44729"><ele>184.0</ele><time>2026-04-19T11:57:54.472Z</time></trkpt><trkpt lat="40.57551" lon="8.4474283"><ele>184.0</ele><time>2026-04-19T11:57:55.472Z</time></trkpt><trkpt lat="40.5753733" lon="8.4475533"><ele>185.0</ele><time>2026-04-19T11:57:56.473Z</time></trkpt><trkpt lat="40.5752233" lon="8.4476633"><ele>186.0</ele><time>2026-04-19T11:57:57.473Z</time></trkpt><trkpt lat="40.5750683" lon="8.4477833"><ele>187.0</ele><time>2026-04-19T11:57:58.473Z</time></trkpt><trkpt lat="40.5749217" lon="8.447895"><ele>186.66666666666669</ele><time>2026-04-19T11:57:59.472Z</time></trkpt><trkpt lat="40.5747817" lon="8.4480183"><ele>186.33333333333334</ele><time>2026-04-19T11:58:00.472Z</time></trkpt><trkpt lat="40.574645" lon="8.4481483"><ele>186.0</ele><time>2026-04-19T11:58:01.473Z</time></trkpt><trkpt lat="40.5745083" lon="8.4482917"><ele>187.33333333333334</ele><time>2026-04-19T11:58:02.473Z</time></trkpt><trkpt lat="40.5743717" lon="8.448445"><ele>188.66666666666669</ele><time>2026-04-19T11:58:03.473Z</time></trkpt><trkpt lat="40.574245" lon="8.4486017"><ele>190.0</ele><time>2026-04-19T11:58:04.473Z</time></trkpt><trkpt lat="40.57412" lon="8.4487483"><ele>189.25</ele><time>2026-04-19T11:58:05.473Z</time></trkpt><trkpt lat="40.5740117" lon="8.4488933"><ele>188.5</ele><time>2026-04-19T11:58:06.473Z</time></trkpt><trkpt lat="40.573915" lon="8.4490383"><ele>187.75</ele><time>2026-04-19T11:58:07.473Z</time></trkpt><trkpt lat="40.5738383" lon="8.449205"><ele>187.0</ele><time>2026-04-19T11:58:08.472Z</time></trkpt><trkpt lat="40.5737783" lon="8.4493783"><ele>187.0</ele><time>2026-04-19T11:58:09.473Z</time></trkpt><trkpt lat="40.5737267" lon="8.4495483"><ele>187.0</ele><time>2026-04-19T11:58:10.473Z</time></trkpt><trkpt lat="40.573655" lon="8.4497133"><ele>187.0</ele><time>2026-04-19T11:58:11.473Z</time></trkpt><trkpt lat="40.5735667" lon="8.4498617"><ele>187.0</ele><time>2026-04-19T11:58:12.473Z</time></trkpt><trkpt lat="40.5734483" lon="8.4499983"><ele>188.33333333333334</ele><time>2026-04-19T11:58:13.472Z</time></trkpt><trkpt lat="40.5733267" lon="8.4501417"><ele>189.66666666666666</ele><time>2026-04-19T11:58:14.473Z</time></trkpt><trkpt lat="40.57322" lon="8.450295"><ele>191.0</ele><time>2026-04-19T11:58:15.473Z</time></trkpt><trkpt lat="40.5731183" lon="8.4504583"><ele>193.33333333333331</ele><time>2026-04-19T11:58:16.473Z</time></trkpt><trkpt lat="40.57302" lon="8.45063"><ele>195.66666666666666</ele><time>2026-04-19T11:58:17.472Z</time></trkpt><trkpt lat="40.5729283" lon="8.45079"><ele>198.0</ele><time>2026-04-19T11:58:18.472Z</time></trkpt><trkpt lat="40.5728467" lon="8.4509367"><ele>200.25</ele><time>2026-04-19T11:58:19.472Z</time></trkpt><trkpt lat="40.5727633" lon="8.45107"><ele>202.5</ele><time>2026-04-19T11:58:20.473Z</time></trkpt><trkpt lat="40.5726667" lon="8.4511983"><ele>204.75</ele><time>2026-04-19T11:58:21.473Z</time></trkpt><trkpt lat="40.5725733" lon="8.4513133"><ele>207.0</ele><time>2026-04-19T11:58:22.473Z</time></trkpt><trkpt lat="40.57247" lon="8.4514383"><ele>208.0</ele><time>2026-04-19T11:58:23.472Z</time></trkpt><trkpt lat="40.572365" lon="8.4515683"><ele>209.0</ele><time>2026-04-19T11:58:24.472Z</time></trkpt><trkpt lat="40.5722467" lon="8.4517017"><ele>210.0</ele><time>2026-04-19T11:58:25.473Z</time></trkpt><trkpt lat="40.5721217" lon="8.4518283"><ele>211.33333333333331</ele><time>2026-04-19T11:58:26.472Z</time></trkpt><trkpt lat="40.5719933" lon="8.4519467"><ele>212.66666666666666</ele><time>2026-04-19T11:58:27.472Z</time></trkpt><trkpt lat="40.5718567" lon="8.45207"><ele>214.0</ele><time>2026-04-19T11:58:28.472Z</time></trkpt><trkpt lat="40.5717117" lon="8.4522"><ele>214.0</ele><time>2026-04-19T11:58:29.473Z</time></trkpt><trkpt lat="40.5715783" lon="8.4523267"><ele>214.0</ele><time>2026-04-19T11:58:30.472Z</time></trkpt><trkpt lat="40.5714533" lon="8.4524633"><ele>214.0</ele><time>2026-04-19T11:58:31.473Z</time></trkpt><trkpt lat="40.5713217" lon="8.452595"><ele>216.0</ele><time>2026-04-19T11:58:32.472Z</time></trkpt><trkpt lat="40.571175" lon="8.4527217"><ele>218.0</ele><time>2026-04-19T11:58:33.473Z</time></trkpt><trkpt lat="40.5710333" lon="8.4528433"><ele>220.0</ele><time>2026-04-19T11:58:34.472Z</time></trkpt><trkpt lat="40.5708967" lon="8.4529683"><ele>220.0</ele><time>2026-04-19T11:58:35.472Z</time></trkpt><trkpt lat="40.5707633" lon="8.453105"><ele>220.0</ele><time>2026-04-19T11:58:36.473Z</time></trkpt><trkpt lat="40.57063" lon="8.45325"><ele>220.0</ele><time>2026-04-19T11:58:37.472Z</time></trkpt><trkpt lat="40.5704933" lon="8.4533983"><ele>220.0</ele><time>2026-04-19T11:58:38.472Z</time></trkpt><trkpt lat="40.570365" lon="8.4535633"><ele>220.0</ele><time>2026-04-19T11:58:39.472Z</time></trkpt><trkpt lat="40.5702133" lon="8.453685"><ele>220.0</ele><time>2026-04-19T11:58:40.473Z</time></trkpt><trkpt lat="40.5700733" lon="8.4538233"><ele>219.33333333333331</ele><time>2026-04-19T11:58:41.472Z</time></trkpt><trkpt lat="40.569935" lon="8.4539617"><ele>218.66666666666669</ele><time>2026-04-19T11:58:42.472Z</time></trkpt><trkpt lat="40.5698" lon="8.4541117"><ele>218.0</ele><time>2026-04-19T11:58:43.473Z</time></trkpt><trkpt lat="40.5696617" lon="8.4542633"><ele>219.66666666666669</ele><time>2026-04-19T11:58:44.473Z</time></trkpt><trkpt lat="40.5695167" lon="8.4543967"><ele>221.33333333333331</ele><time>2026-04-19T11:58:45.472Z</time></trkpt><trkpt lat="40.5693567" lon="8.454535"><ele>223.0</ele><time>2026-04-19T11:58:46.473Z</time></trkpt><trkpt lat="40.569195" lon="8.4546683"><ele>219.66666666666666</ele><time>2026-04-19T11:58:47.472Z</time></trkpt><trkpt lat="40.5690433" lon="8.454795"><ele>216.33333333333331</ele><time>2026-04-19T11:58:48.473Z</time></trkpt><trkpt lat="40.5688883" lon="8.4549333"><ele>213.0</ele><time>2026-04-19T11:58:49.472Z</time></trkpt><trkpt lat="40.5687333" lon="8.4550867"><ele>213.66666666666669</ele><time>2026-04-19T11:58:50.472Z</time></trkpt><trkpt lat="40.5685867" lon="8.4552417"><ele>214.33333333333334</ele><time>2026-04-19T11:58:51.472Z</time></trkpt><trkpt lat="40.5684483" lon="8.4553883"><ele>215.0</ele><time>2026-04-19T11:58:52.471Z</time></trkpt><trkpt lat="40.56832" lon="8.4555317"><ele>215.0</ele><time>2026-04-19T11:58:53.471Z</time></trkpt><trkpt lat="40.5681917" lon="8.4556667"><ele>215.0</ele><time>2026-04-19T11:58:54.471Z</time></trkpt><trkpt lat="40.5680617" lon="8.4558017"><ele>215.0</ele><time>2026-04-19T11:58:55.471Z</time></trkpt><trkpt lat="40.5679433" lon="8.4559317"><ele>215.0</ele><time>2026-04-19T11:58:56.472Z</time></trkpt><trkpt lat="40.5678283" lon="8.45605"><ele>215.0</ele><time>2026-04-19T11:58:57.471Z</time></trkpt><trkpt lat="40.5677167" lon="8.4561533"><ele>215.0</ele><time>2026-04-19T11:58:58.472Z</time></trkpt><trkpt lat="40.5676133" lon="8.4562583"><ele>215.0</ele><time>2026-04-19T11:58:59.471Z</time></trkpt><trkpt lat="40.5675017" lon="8.45637"><ele>215.0</ele><time>2026-04-19T11:59:00.471Z</time></trkpt><trkpt lat="40.5673867" lon="8.4564717"><ele>215.0</ele><time>2026-04-19T11:59:01.472Z</time></trkpt><trkpt lat="40.567255" lon="8.4565717"><ele>215.0</ele><time>2026-04-19T11:59:02.472Z</time></trkpt><trkpt lat="40.56713" lon="8.4566733"><ele>215.0</ele><time>2026-04-19T11:59:03.471Z</time></trkpt><trkpt lat="40.5670067" lon="8.45676"><ele>217.25</ele><time>2026-04-19T11:59:04.471Z</time></trkpt><trkpt lat="40.5668933" lon="8.4568433"><ele>219.5</ele><time>2026-04-19T11:59:05.471Z</time></trkpt><trkpt lat="40.5667967" lon="8.4569217"><ele>221.75</ele><time>2026-04-19T11:59:06.472Z</time></trkpt><trkpt lat="40.5666967" lon="8.4570117"><ele>224.0</ele><time>2026-04-19T11:59:07.471Z</time></trkpt><trkpt lat="40.5665983" lon="8.4570883"><ele>223.39999999999998</ele><time>2026-04-19T11:59:08.472Z</time></trkpt><trkpt lat="40.5665033" lon="8.4571567"><ele>222.79999999999998</ele><time>2026-04-19T11:59:09.471Z</time></trkpt><trkpt lat="40.5664" lon="8.4572133"><ele>222.20000000000002</ele><time>2026-04-19T11:59:10.471Z</time></trkpt><trkpt lat="40.56629" lon="8.457265"><ele>221.60000000000002</ele><time>2026-04-19T11:59:11.472Z</time></trkpt><trkpt lat="40.5661967" lon="8.4573267"><ele>221.0</ele><time>2026-04-19T11:59:12.471Z</time></trkpt><trkpt lat="40.5661083" lon="8.4573783"><ele>221.00000000000003</ele><time>2026-04-19T11:59:13.472Z</time></trkpt><trkpt lat="40.5660217" lon="8.4574167"><ele>221.0</ele><time>2026-04-19T11:59:14.471Z</time></trkpt><trkpt lat="40.56595" lon="8.4574633"><ele>221.0</ele><time>2026-04-19T11:59:15.472Z</time></trkpt><trkpt lat="40.5658967" lon="8.45752"><ele>221.0</ele><time>2026-04-19T11:59:16.471Z</time></trkpt><trkpt lat="40.5658683" lon="8.4575983"><ele>221.00000000000003</ele><time>2026-04-19T11:59:17.471Z</time></trkpt><trkpt lat="40.5658633" lon="8.4577117"><ele>221.0</ele><time>2026-04-19T11:59:18.472Z</time></trkpt><trkpt lat="40.56588" lon="8.457835"><ele>221.00000000000003</ele><time>2026-04-19T11:59:19.471Z</time></trkpt><trkpt lat="40.5659067" lon="8.4579517"><ele>221.0</ele><time>2026-04-19T11:59:20.472Z</time></trkpt><trkpt lat="40.5659467" lon="8.4580583"><ele>221.0</ele><time>2026-04-19T11:59:21.471Z</time></trkpt><trkpt lat="40.5659917" lon="8.4581383"><ele>221.0</ele><time>2026-04-19T11:59:22.471Z</time></trkpt><trkpt lat="40.5660933" lon="8.458185"><ele>221.00000000000003</ele><time>2026-04-19T11:59:24.471Z</time></trkpt><trkpt lat="40.5661317" lon="8.458265"><ele>221.0</ele><time>2026-04-19T11:59:27.472Z</time></trkpt><trkpt lat="40.5660617" lon="8.4582983"><ele>222.20000000000002</ele><time>2026-04-19T11:59:29.471Z</time></trkpt><trkpt lat="40.5659883" lon="8.4582933"><ele>223.40000000000003</ele><time>2026-04-19T11:59:30.471Z</time></trkpt><trkpt lat="40.565895" lon="8.458285"><ele>224.6</ele><time>2026-04-19T11:59:31.471Z</time></trkpt><trkpt lat="40.565785" lon="8.45828"><ele>225.8</ele><time>2026-04-19T11:59:32.471Z</time></trkpt><trkpt lat="40.565655" lon="8.45828"><ele>227.0</ele><time>2026-04-19T11:59:33.471Z</time></trkpt><trkpt lat="40.5655217" lon="8.4582833"><ele>227.0</ele><time>2026-04-19T11:59:34.472Z</time></trkpt><trkpt lat="40.5653733" lon="8.4582933"><ele>227.0</ele><time>2026-04-19T11:59:35.471Z</time></trkpt><trkpt lat="40.5652233" lon="8.4583"><ele>227.0</ele><time>2026-04-19T11:59:36.471Z</time></trkpt><trkpt lat="40.56508" lon="8.458315"><ele>227.0</ele><time>2026-04-19T11:59:37.471Z</time></trkpt><trkpt lat="40.564945" lon="8.4583233"><ele>228.25</ele><time>2026-04-19T11:59:38.471Z</time></trkpt><trkpt lat="40.5648133" lon="8.45832"><ele>229.5</ele><time>2026-04-19T11:59:39.471Z</time></trkpt><trkpt lat="40.5646833" lon="8.4583233"><ele>230.75</ele><time>2026-04-19T11:59:40.472Z</time></trkpt><trkpt lat="40.56455" lon="8.458325"><ele>232.0</ele><time>2026-04-19T11:59:41.471Z</time></trkpt><trkpt lat="40.5644267" lon="8.45831"><ele>233.6</ele><time>2026-04-19T11:59:42.471Z</time></trkpt><trkpt lat="40.5643117" lon="8.458295"><ele>235.2</ele><time>2026-04-19T11:59:43.472Z</time></trkpt><trkpt lat="40.5642067" lon="8.4582733"><ele>236.8</ele><time>2026-04-19T11:59:44.471Z</time></trkpt><trkpt lat="40.564105" lon="8.4582517"><ele>238.4</ele><time>2026-04-19T11:59:45.472Z</time></trkpt><trkpt lat="40.5639983" lon="8.4582283"><ele>240.0</ele><time>2026-04-19T11:59:46.471Z</time></trkpt><trkpt lat="40.563885" lon="8.4582183"><ele>240.0</ele><time>2026-04-19T11:59:47.472Z</time></trkpt><trkpt lat="40.56378" lon="8.4582017"><ele>240.0</ele><time>2026-04-19T11:59:48.472Z</time></trkpt><trkpt lat="40.563685" lon="8.4581867"><ele>240.0</ele><time>2026-04-19T11:59:49.472Z</time></trkpt><trkpt lat="40.5635917" lon="8.4581733"><ele>240.0</ele><time>2026-04-19T11:59:50.472Z</time></trkpt><trkpt lat="40.5634833" lon="8.4581567"><ele>240.0</ele><time>2026-04-19T11:59:51.472Z</time></trkpt><trkpt lat="40.5633783" lon="8.458135"><ele>242.8</ele><time>2026-04-19T11:59:52.471Z</time></trkpt><trkpt lat="40.5632883" lon="8.4581133"><ele>245.6</ele><time>2026-04-19T11:59:53.471Z</time></trkpt><trkpt lat="40.5631917" lon="8.4580983"><ele>248.39999999999998</ele><time>2026-04-19T11:59:54.471Z</time></trkpt><trkpt lat="40.5630967" lon="8.4580883"><ele>251.2</ele><time>2026-04-19T11:59:55.471Z</time></trkpt><trkpt lat="40.5630067" lon="8.4580917"><ele>254.0</ele><time>2026-04-19T11:59:56.471Z</time></trkpt><trkpt lat="40.56292" lon="8.4581067"><ele>254.16666666666669</ele><time>2026-04-19T11:59:57.471Z</time></trkpt><trkpt lat="40.5628367" lon="8.458125"><ele>254.33333333333334</ele><time>2026-04-19T11:59:58.471Z</time></trkpt><trkpt lat="40.5627533" lon="8.4581533"><ele>254.5</ele><time>2026-04-19T11:59:59.472Z</time></trkpt><trkpt lat="40.5626817" lon="8.4581967"><ele>254.66666666666669</ele><time>2026-04-19T12:00:00.471Z</time></trkpt><trkpt lat="40.5626083" lon="8.4582483"><ele>254.83333333333334</ele><time>2026-04-19T12:00:01.472Z</time></trkpt><trkpt lat="40.5625383" lon="8.458305"><ele>255.0</ele><time>2026-04-19T12:00:02.472Z</time></trkpt><trkpt lat="40.56247" lon="8.4583617"><ele>255.0</ele><time>2026-04-19T12:00:03.471Z</time></trkpt><trkpt lat="40.5624067" lon="8.4584233"><ele>255.0</ele><time>2026-04-19T12:00:04.471Z</time></trkpt><trkpt lat="40.5623467" lon="8.4584867"><ele>255.0</ele><time>2026-04-19T12:00:05.472Z</time></trkpt><trkpt lat="40.56228" lon="8.4585517"><ele>255.0</ele><time>2026-04-19T12:00:06.471Z</time></trkpt><trkpt lat="40.5622167" lon="8.45861"><ele>255.0</ele><time>2026-04-19T12:00:07.471Z</time></trkpt><trkpt lat="40.562155" lon="8.458665"><ele>255.0</ele><time>2026-04-19T12:00:08.471Z</time></trkpt><trkpt lat="40.5621" lon="8.458715"><ele>256.4</ele><time>2026-04-19T12:00:09.472Z</time></trkpt><trkpt lat="40.5620067" lon="8.4588033"><ele>257.8</ele><time>2026-04-19T12:00:11.472Z</time></trkpt><trkpt lat="40.5619467" lon="8.4588633"><ele>259.2</ele><time>2026-04-19T12:00:13.472Z</time></trkpt><trkpt lat="40.5618783" lon="8.4589183"><ele>260.6</ele><time>2026-04-19T12:01:02.471Z</time></trkpt><trkpt lat="40.561775" lon="8.4590083"><ele>262.0</ele><time>2026-04-19T12:01:04.471Z</time></trkpt><trkpt lat="40.5617217" lon="8.4590667"><ele>262.0</ele><time>2026-04-19T12:01:05.472Z</time></trkpt><trkpt lat="40.56166" lon="8.4591233"><ele>262.0</ele><time>2026-04-19T12:01:06.472Z</time></trkpt><trkpt lat="40.5615983" lon="8.45919"><ele>262.0</ele><time>2026-04-19T12:01:07.471Z</time></trkpt><trkpt lat="40.5615233" lon="8.4592617"><ele>262.0</ele><time>2026-04-19T12:01:08.471Z</time></trkpt><trkpt lat="40.561445" lon="8.4593383"><ele>262.0</ele><time>2026-04-19T12:01:09.472Z</time></trkpt><trkpt lat="40.561365" lon="8.459415"><ele>262.0</ele><time>2026-04-19T12:01:10.472Z</time></trkpt><trkpt lat="40.5612833" lon="8.45949"><ele>262.0</ele><time>2026-04-19T12:01:11.471Z</time></trkpt><trkpt lat="40.5612083" lon="8.4595667"><ele>262.0</ele><time>2026-04-19T12:01:12.471Z</time></trkpt><trkpt lat="40.5611283" lon="8.4596417"><ele>262.0</ele><time>2026-04-19T12:01:13.472Z</time></trkpt><trkpt lat="40.5610433" lon="8.459715"><ele>262.0</ele><time>2026-04-19T12:01:14.471Z</time></trkpt><trkpt lat="40.56096" lon="8.4597833"><ele>262.0</ele><time>2026-04-19T12:01:15.472Z</time></trkpt><trkpt lat="40.5608833" lon="8.459855"><ele>262.5</ele><time>2026-04-19T12:01:16.472Z</time></trkpt><trkpt lat="40.56081" lon="8.4599217"><ele>263.0</ele><time>2026-04-19T12:01:17.471Z</time></trkpt><trkpt lat="40.560745" lon="8.45999"><ele>263.5</ele><time>2026-04-19T12:01:18.472Z</time></trkpt><trkpt lat="40.5606933" lon="8.46004"><ele>264.0</ele><time>2026-04-19T12:01:19.472Z</time></trkpt><trkpt lat="40.5606" lon="8.4601233"><ele>264.5</ele><time>2026-04-19T12:01:21.471Z</time></trkpt><trkpt lat="40.560555" lon="8.4601867"><ele>265.0</ele><time>2026-04-19T12:01:23.471Z</time></trkpt><trkpt lat="40.5605433" lon="8.460295"><ele>265.0</ele><time>2026-04-19T12:01:25.471Z</time></trkpt><trkpt lat="40.56056" lon="8.4603783"><ele>265.0</ele><time>2026-04-19T12:01:26.472Z</time></trkpt><trkpt lat="40.5605833" lon="8.4604617"><ele>265.0</ele><time>2026-04-19T12:01:27.472Z</time></trkpt><trkpt lat="40.56061" lon="8.4605383"><ele>265.0</ele><time>2026-04-19T12:01:28.472Z</time></trkpt><trkpt lat="40.5606717" lon="8.4606667"><ele>265.0</ele><time>2026-04-19T12:01:30.471Z</time></trkpt><trkpt lat="40.5606817" lon="8.460775"><ele>265.0</ele><time>2026-04-19T12:01:32.471Z</time></trkpt><trkpt lat="40.5606" lon="8.460895"><ele>265.3333333333333</ele><time>2026-04-19T12:01:34.471Z</time></trkpt><trkpt lat="40.5605483" lon="8.4609483"><ele>265.66666666666663</ele><time>2026-04-19T12:01:35.471Z</time></trkpt><trkpt lat="40.5605017" lon="8.461045"><ele>266.0</ele><time>2026-04-19T12:01:37.471Z</time></trkpt><trkpt lat="40.5604583" lon="8.46114"><ele>266.3333333333333</ele><time>2026-04-19T12:01:40.471Z</time></trkpt><trkpt lat="40.560385" lon="8.4612"><ele>266.6666666666667</ele><time>2026-04-19T12:01:43.471Z</time></trkpt><trkpt lat="40.5603317" lon="8.4612467"><ele>267.0</ele><time>2026-04-19T12:01:46.472Z</time></trkpt><trkpt lat="40.5603533" lon="8.4613283"><ele>267.0</ele><time>2026-04-19T12:02:57.471Z</time></trkpt><trkpt lat="40.56044" lon="8.4612833"><ele>267.0</ele><time>2026-04-19T12:03:00.471Z</time></trkpt><trkpt lat="40.5605017" lon="8.46124"><ele>267.0</ele><time>2026-04-19T12:03:01.471Z</time></trkpt><trkpt lat="40.5605617" lon="8.46121"><ele>267.0</ele><time>2026-04-19T12:03:02.471Z</time></trkpt><trkpt lat="40.56063" lon="8.46119"><ele>267.0</ele><time>2026-04-19T12:03:03.471Z</time></trkpt><trkpt lat="40.5607" lon="8.4611967"><ele>267.0</ele><time>2026-04-19T12:03:04.471Z</time></trkpt><trkpt lat="40.5607817" lon="8.461225"><ele>267.0</ele><time>2026-04-19T12:03:05.472Z</time></trkpt><trkpt lat="40.5608517" lon="8.461265"><ele>267.0</ele><time>2026-04-19T12:03:06.471Z</time></trkpt><trkpt lat="40.5609117" lon="8.4612967"><ele>267.0</ele><time>2026-04-19T12:03:07.471Z</time></trkpt><trkpt lat="40.5610167" lon="8.4613333"><ele>267.0</ele><time>2026-04-19T12:03:09.471Z</time></trkpt><trkpt lat="40.561115" lon="8.4613267"><ele>267.0</ele><time>2026-04-19T12:03:11.471Z</time></trkpt><trkpt lat="40.5611883" lon="8.4613267"><ele>267.0</ele><time>2026-04-19T12:03:13.472Z</time></trkpt><trkpt lat="40.56124" lon="8.46142"><ele>266.14285714285717</ele><time>2026-04-19T12:03:15.471Z</time></trkpt><trkpt lat="40.5612533" lon="8.4615017"><ele>265.2857142857143</ele><time>2026-04-19T12:03:16.472Z</time></trkpt><trkpt lat="40.5612667" lon="8.4615867"><ele>264.42857142857144</ele><time>2026-04-19T12:03:17.471Z</time></trkpt><trkpt lat="40.5613" lon="8.4616783"><ele>263.57142857142856</ele><time>2026-04-19T12:03:18.472Z</time></trkpt><trkpt lat="40.5613367" lon="8.461765"><ele>262.7142857142857</ele><time>2026-04-19T12:03:19.471Z</time></trkpt><trkpt lat="40.5613767" lon="8.461845"><ele>261.8571428571429</ele><time>2026-04-19T12:03:20.472Z</time></trkpt><trkpt lat="40.5614267" lon="8.4619183"><ele>261.0</ele><time>2026-04-19T12:03:21.471Z</time></trkpt><trkpt lat="40.5614767" lon="8.4619867"><ele>261.0</ele><time>2026-04-19T12:03:22.471Z</time></trkpt><trkpt lat="40.561515" lon="8.462055"><ele>261.0</ele><time>2026-04-19T12:03:23.472Z</time></trkpt><trkpt lat="40.5615417" lon="8.462135"><ele>261.0</ele><time>2026-04-19T12:03:24.472Z</time></trkpt><trkpt lat="40.561565" lon="8.46222"><ele>261.0</ele><time>2026-04-19T12:03:25.471Z</time></trkpt><trkpt lat="40.5615783" lon="8.4623133"><ele>261.0</ele><time>2026-04-19T12:03:26.471Z</time></trkpt><trkpt lat="40.56159" lon="8.462405"><ele>261.0</ele><time>2026-04-19T12:03:27.471Z</time></trkpt><trkpt lat="40.5615933" lon="8.4624967"><ele>261.0</ele><time>2026-04-19T12:03:28.472Z</time></trkpt><trkpt lat="40.5615817" lon="8.46259"><ele>259.7142857142857</ele><time>2026-04-19T12:03:29.471Z</time></trkpt><trkpt lat="40.56156" lon="8.4626867"><ele>258.42857142857144</ele><time>2026-04-19T12:03:30.471Z</time></trkpt><trkpt lat="40.5615433" lon="8.4627783"><ele>257.1428571428571</ele><time>2026-04-19T12:03:31.471Z</time></trkpt><trkpt lat="40.5615367" lon="8.462875"><ele>255.85714285714286</ele><time>2026-04-19T12:03:32.471Z</time></trkpt><trkpt lat="40.56153" lon="8.4629717"><ele>254.57142857142856</ele><time>2026-04-19T12:03:33.471Z</time></trkpt><trkpt lat="40.5615317" lon="8.4630667"><ele>253.28571428571428</ele><time>2026-04-19T12:03:34.472Z</time></trkpt><trkpt lat="40.56154" lon="8.46316"><ele>252.0</ele><time>2026-04-19T12:03:35.472Z</time></trkpt><trkpt lat="40.56157" lon="8.463315"><ele>250.33333333333334</ele><time>2026-04-19T12:03:37.471Z</time></trkpt><trkpt lat="40.5615883" lon="8.46348"><ele>248.66666666666669</ele><time>2026-04-19T12:03:39.471Z</time></trkpt><trkpt lat="40.5616" lon="8.463565"><ele>247.0</ele><time>2026-04-19T12:03:40.471Z</time></trkpt><trkpt lat="40.56162" lon="8.4636467"><ele>245.33333333333334</ele><time>2026-04-19T12:03:41.471Z</time></trkpt><trkpt lat="40.561655" lon="8.4637317"><ele>243.66666666666669</ele><time>2026-04-19T12:03:42.472Z</time></trkpt><trkpt lat="40.561695" lon="8.46381"><ele>242.0</ele><time>2026-04-19T12:03:43.471Z</time></trkpt><trkpt lat="40.5617333" lon="8.4638933"><ele>240.83333333333334</ele><time>2026-04-19T12:03:44.472Z</time></trkpt><trkpt lat="40.5617733" lon="8.4639867"><ele>239.66666666666669</ele><time>2026-04-19T12:03:45.472Z</time></trkpt><trkpt lat="40.5618183" lon="8.4640817"><ele>238.5</ele><time>2026-04-19T12:03:46.471Z</time></trkpt><trkpt lat="40.5618633" lon="8.4641817"><ele>237.33333333333331</ele><time>2026-04-19T12:03:47.472Z</time></trkpt><trkpt lat="40.5619117" lon="8.4642817"><ele>236.16666666666666</ele><time>2026-04-19T12:03:48.472Z</time></trkpt><trkpt lat="40.5619567" lon="8.464385"><ele>235.0</ele><time>2026-04-19T12:03:49.472Z</time></trkpt><trkpt lat="40.562005" lon="8.4644933"><ele>234.0</ele><time>2026-04-19T12:03:50.472Z</time></trkpt><trkpt lat="40.5620533" lon="8.4646017"><ele>233.0</ele><time>2026-04-19T12:03:51.472Z</time></trkpt><trkpt lat="40.562105" lon="8.4647133"><ele>232.0</ele><time>2026-04-19T12:03:52.471Z</time></trkpt><trkpt lat="40.5621583" lon="8.4648333"><ele>231.0</ele><time>2026-04-19T12:03:53.472Z</time></trkpt><trkpt lat="40.5622183" lon="8.4649367"><ele>230.0</ele><time>2026-04-19T12:03:54.471Z</time></trkpt><trkpt lat="40.562285" lon="8.4650333"><ele>230.0</ele><time>2026-04-19T12:03:55.471Z</time></trkpt><trkpt lat="40.56236" lon="8.46512"><ele>230.0</ele><time>2026-04-19T12:03:56.472Z</time></trkpt><trkpt lat="40.5624317" lon="8.4652117"><ele>230.0</ele><time>2026-04-19T12:03:57.472Z</time></trkpt><trkpt lat="40.5625017" lon="8.4652933"><ele>230.0</ele><time>2026-04-19T12:03:58.472Z</time></trkpt><trkpt lat="40.5625633" lon="8.46539"><ele>230.0</ele><time>2026-04-19T12:03:59.471Z</time></trkpt><trkpt lat="40.562625" lon="8.4654883"><ele>230.0</ele><time>2026-04-19T12:04:00.471Z</time></trkpt><trkpt lat="40.562685" lon="8.4655883"><ele>230.0</ele><time>2026-04-19T12:04:01.471Z</time></trkpt><trkpt lat="40.5627483" lon="8.46569"><ele>230.0</ele><time>2026-04-19T12:04:02.472Z</time></trkpt><trkpt lat="40.562805" lon="8.4658017"><ele>230.0</ele><time>2026-04-19T12:04:03.472Z</time></trkpt><trkpt lat="40.5628617" lon="8.4659183"><ele>230.0</ele><time>2026-04-19T12:04:04.471Z</time></trkpt><trkpt lat="40.56291" lon="8.46603"><ele>231.33333333333334</ele><time>2026-04-19T12:04:05.471Z</time></trkpt><trkpt lat="40.5629517" lon="8.46614"><ele>232.66666666666669</ele><time>2026-04-19T12:04:06.471Z</time></trkpt><trkpt lat="40.5629933" lon="8.4662417"><ele>234.0</ele><time>2026-04-19T12:04:07.472Z</time></trkpt><trkpt lat="40.56305" lon="8.4663317"><ele>235.33333333333331</ele><time>2026-04-19T12:04:08.471Z</time></trkpt><trkpt lat="40.5631117" lon="8.4664217"><ele>236.66666666666666</ele><time>2026-04-19T12:04:09.472Z</time></trkpt><trkpt lat="40.563175" lon="8.4664933"><ele>238.0</ele><time>2026-04-19T12:04:10.471Z</time></trkpt><trkpt lat="40.5632367" lon="8.466555"><ele>238.0</ele><time>2026-04-19T12:04:11.472Z</time></trkpt><trkpt lat="40.5633" lon="8.466615"><ele>238.0</ele><time>2026-04-19T12:04:12.472Z</time></trkpt><trkpt lat="40.563375" lon="8.4666783"><ele>238.0</ele><time>2026-04-19T12:04:13.472Z</time></trkpt><trkpt lat="40.5634567" lon="8.4667383"><ele>238.0</ele><time>2026-04-19T12:04:14.472Z</time></trkpt><trkpt lat="40.5635367" lon="8.46682"><ele>238.0</ele><time>2026-04-19T12:04:15.471Z</time></trkpt><trkpt lat="40.563615" lon="8.46692"><ele>240.75</ele><time>2026-04-19T12:04:16.471Z</time></trkpt><trkpt lat="40.5637033" lon="8.4670367"><ele>243.5</ele><time>2026-04-19T12:04:17.472Z</time></trkpt><trkpt lat="40.5637967" lon="8.4671617"><ele>246.25</ele><time>2026-04-19T12:04:18.471Z</time></trkpt><trkpt lat="40.5638983" lon="8.4672783"><ele>249.0</ele><time>2026-04-19T12:04:19.472Z</time></trkpt><trkpt lat="40.5640033" lon="8.4673933"><ele>249.0</ele><time>2026-04-19T12:04:20.472Z</time></trkpt><trkpt lat="40.564115" lon="8.467505"><ele>249.0</ele><time>2026-04-19T12:04:21.471Z</time></trkpt><trkpt lat="40.56423" lon="8.4675983"><ele>249.0</ele><time>2026-04-19T12:04:22.472Z</time></trkpt><trkpt lat="40.5643283" lon="8.46767"><ele>249.0</ele><time>2026-04-19T12:04:23.472Z</time></trkpt><trkpt lat="40.5644167" lon="8.4677217"><ele>249.0</ele><time>2026-04-19T12:04:24.472Z</time></trkpt><trkpt lat="40.5645067" lon="8.4677717"><ele>248.99999999999997</ele><time>2026-04-19T12:04:25.471Z</time></trkpt><trkpt lat="40.5645867" lon="8.4678217"><ele>248.99999999999997</ele><time>2026-04-19T12:04:26.471Z</time></trkpt><trkpt lat="40.5646617" lon="8.4678833"><ele>249.0</ele><time>2026-04-19T12:04:27.472Z</time></trkpt><trkpt lat="40.564735" lon="8.4679583"><ele>249.0</ele><time>2026-04-19T12:04:28.471Z</time></trkpt><trkpt lat="40.56481" lon="8.4680467"><ele>251.16666666666666</ele><time>2026-04-19T12:04:29.472Z</time></trkpt><trkpt lat="40.5648767" lon="8.4681333"><ele>253.33333333333331</ele><time>2026-04-19T12:04:30.471Z</time></trkpt><trkpt lat="40.5649317" lon="8.468205"><ele>255.5</ele><time>2026-04-19T12:04:31.471Z</time></trkpt><trkpt lat="40.5650017" lon="8.4683017"><ele>257.66666666666663</ele><time>2026-04-19T12:04:33.471Z</time></trkpt><trkpt lat="40.5650033" lon="8.4684033"><ele>259.8333333333333</ele><time>2026-04-19T12:04:37.471Z</time></trkpt><trkpt lat="40.5650883" lon="8.4684417"><ele>262.0</ele><time>2026-04-19T12:19:41.468Z</time></trkpt><trkpt lat="40.5652033" lon="8.468525"><ele>262.0</ele><time>2026-04-19T12:19:43.469Z</time></trkpt><trkpt lat="40.5653333" lon="8.4685517"><ele>262.0</ele><time>2026-04-19T12:19:45.468Z</time></trkpt><trkpt lat="40.56542" lon="8.468555"><ele>262.0</ele><time>2026-04-19T12:19:46.468Z</time></trkpt><trkpt lat="40.5655017" lon="8.4685583"><ele>262.0</ele><time>2026-04-19T12:19:47.468Z</time></trkpt><trkpt lat="40.5656033" lon="8.468575"><ele>262.0</ele><time>2026-04-19T12:19:48.468Z</time></trkpt><trkpt lat="40.5657067" lon="8.46861"><ele>262.25</ele><time>2026-04-19T12:19:49.468Z</time></trkpt><trkpt lat="40.5658183" lon="8.468675"><ele>262.5</ele><time>2026-04-19T12:19:50.468Z</time></trkpt><trkpt lat="40.5659317" lon="8.4687467"><ele>262.75</ele><time>2026-04-19T12:19:51.468Z</time></trkpt><trkpt lat="40.5660483" lon="8.4688067"><ele>263.0</ele><time>2026-04-19T12:19:52.468Z</time></trkpt><trkpt lat="40.566165" lon="8.4688533"><ele>264.75</ele><time>2026-04-19T12:19:53.469Z</time></trkpt><trkpt lat="40.566295" lon="8.4689267"><ele>266.5</ele><time>2026-04-19T12:19:54.468Z</time></trkpt><trkpt lat="40.5664167" lon="8.4690217"><ele>268.25</ele><time>2026-04-19T12:19:55.469Z</time></trkpt><trkpt lat="40.5665467" lon="8.4691167"><ele>270.0</ele><time>2026-04-19T12:19:56.468Z</time></trkpt><trkpt lat="40.5666817" lon="8.4691867"><ele>270.0</ele><time>2026-04-19T12:19:57.469Z</time></trkpt><trkpt lat="40.5668083" lon="8.4692167"><ele>270.0</ele><time>2026-04-19T12:19:58.469Z</time></trkpt><trkpt lat="40.5669117" lon="8.4692517"><ele>270.0</ele><time>2026-04-19T12:19:59.468Z</time></trkpt><trkpt lat="40.5670083" lon="8.4693"><ele>270.0</ele><time>2026-04-19T12:20:00.469Z</time></trkpt><trkpt lat="40.5671" lon="8.4693817"><ele>270.0</ele><time>2026-04-19T12:20:01.468Z</time></trkpt><trkpt lat="40.5671967" lon="8.4694717"><ele>271.0</ele><time>2026-04-19T12:20:02.469Z</time></trkpt><trkpt lat="40.567305" lon="8.4695733"><ele>272.0</ele><time>2026-04-19T12:20:03.469Z</time></trkpt><trkpt lat="40.5674133" lon="8.4696883"><ele>273.0</ele><time>2026-04-19T12:20:04.468Z</time></trkpt><trkpt lat="40.567525" lon="8.4698017"><ele>274.0</ele><time>2026-04-19T12:20:05.468Z</time></trkpt><trkpt lat="40.567635" lon="8.4699133"><ele>275.0</ele><time>2026-04-19T12:20:06.468Z</time></trkpt><trkpt lat="40.5677383" lon="8.470025"><ele>276.0</ele><time>2026-04-19T12:20:07.468Z</time></trkpt><trkpt lat="40.567835" lon="8.4701383"><ele>277.0</ele><time>2026-04-19T12:20:08.468Z</time></trkpt><trkpt lat="40.5679283" lon="8.4702367"><ele>278.0</ele><time>2026-04-19T12:20:09.468Z</time></trkpt><trkpt lat="40.5680183" lon="8.470325"><ele>280.0</ele><time>2026-04-19T12:20:10.469Z</time></trkpt><trkpt lat="40.5681133" lon="8.4704117"><ele>282.0</ele><time>2026-04-19T12:20:11.469Z</time></trkpt><trkpt lat="40.56822" lon="8.4704967"><ele>284.0</ele><time>2026-04-19T12:20:12.469Z</time></trkpt><trkpt lat="40.5683183" lon="8.47059"><ele>286.0</ele><time>2026-04-19T12:20:13.468Z</time></trkpt><trkpt lat="40.568415" lon="8.4706917"><ele>287.0</ele><time>2026-04-19T12:20:14.468Z</time></trkpt><trkpt lat="40.56851" lon="8.4708233"><ele>288.0</ele><time>2026-04-19T12:20:15.469Z</time></trkpt><trkpt lat="40.568595" lon="8.4709583"><ele>289.0</ele><time>2026-04-19T12:20:16.468Z</time></trkpt><trkpt lat="40.5686683" lon="8.4710783"><ele>290.0</ele><time>2026-04-19T12:20:17.468Z</time></trkpt><trkpt lat="40.5687383" lon="8.4712133"><ele>292.0</ele><time>2026-04-19T12:20:18.468Z</time></trkpt><trkpt lat="40.568795" lon="8.4713667"><ele>294.0</ele><time>2026-04-19T12:20:19.468Z</time></trkpt><trkpt lat="40.5688617" lon="8.471535"><ele>296.0</ele><time>2026-04-19T12:20:20.467Z</time></trkpt><trkpt lat="40.5689167" lon="8.4717017"><ele>298.0</ele><time>2026-04-19T12:20:21.468Z</time></trkpt><trkpt lat="40.56898" lon="8.4718683"><ele>298.0</ele><time>2026-04-19T12:20:22.468Z</time></trkpt><trkpt lat="40.5690517" lon="8.4720317"><ele>298.0</ele><time>2026-04-19T12:20:23.467Z</time></trkpt><trkpt lat="40.5691167" lon="8.4721967"><ele>298.0</ele><time>2026-04-19T12:20:24.467Z</time></trkpt><trkpt lat="40.5691817" lon="8.4723417"><ele>298.0</ele><time>2026-04-19T12:20:25.467Z</time></trkpt><trkpt lat="40.5692533" lon="8.4724617"><ele>299.4</ele><time>2026-04-19T12:20:26.468Z</time></trkpt><trkpt lat="40.5693217" lon="8.47256"><ele>300.8</ele><time>2026-04-19T12:20:27.467Z</time></trkpt><trkpt lat="40.5693883" lon="8.472635"><ele>302.2</ele><time>2026-04-19T12:20:28.468Z</time></trkpt><trkpt lat="40.5694567" lon="8.4726967"><ele>303.6</ele><time>2026-04-19T12:20:29.468Z</time></trkpt><trkpt lat="40.5695417" lon="8.4727383"><ele>305.0</ele><time>2026-04-19T12:20:30.467Z</time></trkpt><trkpt lat="40.5696383" lon="8.4727817"><ele>305.25</ele><time>2026-04-19T12:20:31.467Z</time></trkpt><trkpt lat="40.569745" lon="8.4728367"><ele>305.5</ele><time>2026-04-19T12:20:32.467Z</time></trkpt><trkpt lat="40.569865" lon="8.472895"><ele>305.75</ele><time>2026-04-19T12:20:33.468Z</time></trkpt><trkpt lat="40.5700033" lon="8.4729483"><ele>306.0</ele><time>2026-04-19T12:20:34.467Z</time></trkpt><trkpt lat="40.57014" lon="8.473005"><ele>307.25</ele><time>2026-04-19T12:20:35.467Z</time></trkpt><trkpt lat="40.5702783" lon="8.4730467"><ele>308.5</ele><time>2026-04-19T12:20:36.468Z</time></trkpt><trkpt lat="40.5704217" lon="8.47308"><ele>309.75</ele><time>2026-04-19T12:20:37.468Z</time></trkpt><trkpt lat="40.5705717" lon="8.4730967"><ele>311.0</ele><time>2026-04-19T12:20:38.468Z</time></trkpt><trkpt lat="40.5707167" lon="8.47311"><ele>311.5</ele><time>2026-04-19T12:20:39.467Z</time></trkpt><trkpt lat="40.57086" lon="8.4731217"><ele>312.0</ele><time>2026-04-19T12:20:40.468Z</time></trkpt><trkpt lat="40.5710067" lon="8.4731333"><ele>312.5</ele><time>2026-04-19T12:20:41.468Z</time></trkpt><trkpt lat="40.5711617" lon="8.4731333"><ele>313.0</ele><time>2026-04-19T12:20:42.468Z</time></trkpt><trkpt lat="40.57132" lon="8.473135"><ele>314.66666666666663</ele><time>2026-04-19T12:20:43.467Z</time></trkpt><trkpt lat="40.5714767" lon="8.4731417"><ele>316.3333333333333</ele><time>2026-04-19T12:20:44.468Z</time></trkpt><trkpt lat="40.57163" lon="8.4731567"><ele>318.0</ele><time>2026-04-19T12:20:45.468Z</time></trkpt><trkpt lat="40.5717817" lon="8.4731583"><ele>318.0</ele><time>2026-04-19T12:20:46.467Z</time></trkpt><trkpt lat="40.571935" lon="8.4731467"><ele>318.0</ele><time>2026-04-19T12:20:47.467Z</time></trkpt><trkpt lat="40.5720867" lon="8.4731417"><ele>318.0</ele><time>2026-04-19T12:20:48.468Z</time></trkpt><trkpt lat="40.5722267" lon="8.4731483"><ele>318.0</ele><time>2026-04-19T12:20:49.468Z</time></trkpt><trkpt lat="40.5723517" lon="8.4731783"><ele>319.25</ele><time>2026-04-19T12:20:50.467Z</time></trkpt><trkpt lat="40.572475" lon="8.4732333"><ele>320.5</ele><time>2026-04-19T12:20:51.468Z</time></trkpt><trkpt lat="40.5726017" lon="8.4733083"><ele>321.75</ele><time>2026-04-19T12:20:52.467Z</time></trkpt><trkpt lat="40.57273" lon="8.473395"><ele>323.0</ele><time>2026-04-19T12:20:53.467Z</time></trkpt><trkpt lat="40.5728483" lon="8.4734767"><ele>323.75</ele><time>2026-04-19T12:20:54.467Z</time></trkpt><trkpt lat="40.5729517" lon="8.4735533"><ele>324.5</ele><time>2026-04-19T12:20:55.468Z</time></trkpt><trkpt lat="40.5730517" lon="8.4736533"><ele>325.25</ele><time>2026-04-19T12:20:56.468Z</time></trkpt><trkpt lat="40.5731467" lon="8.47377"><ele>326.0</ele><time>2026-04-19T12:20:57.468Z</time></trkpt><trkpt lat="40.5732467" lon="8.4739067"><ele>326.5</ele><time>2026-04-19T12:20:58.467Z</time></trkpt><trkpt lat="40.5733517" lon="8.4740533"><ele>327.0</ele><time>2026-04-19T12:20:59.467Z</time></trkpt><trkpt lat="40.5734567" lon="8.4741967"><ele>327.5</ele><time>2026-04-19T12:21:00.467Z</time></trkpt><trkpt lat="40.5735533" lon="8.4743383"><ele>328.0</ele><time>2026-04-19T12:21:01.467Z</time></trkpt><trkpt lat="40.573645" lon="8.47447"><ele>328.25</ele><time>2026-04-19T12:21:02.467Z</time></trkpt><trkpt lat="40.573725" lon="8.4745867"><ele>328.5</ele><time>2026-04-19T12:21:03.467Z</time></trkpt><trkpt lat="40.573805" lon="8.47471"><ele>328.75</ele><time>2026-04-19T12:21:04.467Z</time></trkpt><trkpt lat="40.5738833" lon="8.4748367"><ele>329.0</ele><time>2026-04-19T12:21:05.468Z</time></trkpt><trkpt lat="40.5739567" lon="8.474955"><ele>328.6</ele><time>2026-04-19T12:21:06.468Z</time></trkpt><trkpt lat="40.5740317" lon="8.475065"><ele>328.2</ele><time>2026-04-19T12:21:07.467Z</time></trkpt><trkpt lat="40.5740983" lon="8.4751533"><ele>327.8</ele><time>2026-04-19T12:21:08.468Z</time></trkpt><trkpt lat="40.57416" lon="8.4752133"><ele>327.40000000000003</ele><time>2026-04-19T12:21:09.467Z</time></trkpt><trkpt lat="40.5742283" lon="8.475265"><ele>327.0</ele><time>2026-04-19T12:21:10.468Z</time></trkpt><trkpt lat="40.5743167" lon="8.4753233"><ele>327.0</ele><time>2026-04-19T12:21:11.467Z</time></trkpt><trkpt lat="40.57442" lon="8.475375"><ele>327.0</ele><time>2026-04-19T12:21:12.468Z</time></trkpt><trkpt lat="40.574525" lon="8.4754383"><ele>327.0</ele><time>2026-04-19T12:21:13.468Z</time></trkpt><trkpt lat="40.5746217" lon="8.4754767"><ele>327.0</ele><time>2026-04-19T12:21:14.467Z</time></trkpt><trkpt lat="40.57472" lon="8.4755067"><ele>327.0</ele><time>2026-04-19T12:21:15.467Z</time></trkpt><trkpt lat="40.5748233" lon="8.47555"><ele>324.5</ele><time>2026-04-19T12:21:16.468Z</time></trkpt><trkpt lat="40.5749217" lon="8.47561"><ele>322.0</ele><time>2026-04-19T12:21:17.468Z</time></trkpt><trkpt lat="40.575" lon="8.4756967"><ele>319.5</ele><time>2026-04-19T12:21:18.468Z</time></trkpt><trkpt lat="40.5750767" lon="8.4758133"><ele>317.0</ele><time>2026-04-19T12:21:19.467Z</time></trkpt><trkpt lat="40.5751667" lon="8.4759533"><ele>317.0</ele><time>2026-04-19T12:21:20.468Z</time></trkpt><trkpt lat="40.5752567" lon="8.4761067"><ele>317.0</ele><time>2026-04-19T12:21:21.467Z</time></trkpt><trkpt lat="40.5753533" lon="8.476245"><ele>317.0</ele><time>2026-04-19T12:21:22.468Z</time></trkpt><trkpt lat="40.5754533" lon="8.476365"><ele>317.0</ele><time>2026-04-19T12:21:23.467Z</time></trkpt><trkpt lat="40.57555" lon="8.4764817"><ele>315.25</ele><time>2026-04-19T12:21:24.468Z</time></trkpt><trkpt lat="40.5756383" lon="8.47659"><ele>313.5</ele><time>2026-04-19T12:21:25.468Z</time></trkpt><trkpt lat="40.575715" lon="8.476705"><ele>311.75</ele><time>2026-04-19T12:21:26.467Z</time></trkpt><trkpt lat="40.57577" lon="8.476835"><ele>310.0</ele><time>2026-04-19T12:21:27.468Z</time></trkpt><trkpt lat="40.57581" lon="8.4769933"><ele>308.66666666666663</ele><time>2026-04-19T12:21:28.467Z</time></trkpt><trkpt lat="40.5758483" lon="8.47718"><ele>307.3333333333333</ele><time>2026-04-19T12:21:29.468Z</time></trkpt><trkpt lat="40.5758917" lon="8.4773767"><ele>306.0</ele><time>2026-04-19T12:21:30.468Z</time></trkpt><trkpt lat="40.5759333" lon="8.477565"><ele>306.0</ele><time>2026-04-19T12:21:31.468Z</time></trkpt><trkpt lat="40.575975" lon="8.477745"><ele>306.0</ele><time>2026-04-19T12:21:32.467Z</time></trkpt><trkpt lat="40.57602" lon="8.4779267"><ele>306.0</ele><time>2026-04-19T12:21:33.467Z</time></trkpt><trkpt lat="40.5760717" lon="8.4780983"><ele>306.0</ele><time>2026-04-19T12:21:34.468Z</time></trkpt><trkpt lat="40.5761267" lon="8.478255"><ele>306.0</ele><time>2026-04-19T12:21:35.468Z</time></trkpt><trkpt lat="40.5761817" lon="8.4783933"><ele>306.0</ele><time>2026-04-19T12:21:36.468Z</time></trkpt><trkpt lat="40.5762367" lon="8.4785183"><ele>306.0</ele><time>2026-04-19T12:21:37.468Z</time></trkpt><trkpt lat="40.5762883" lon="8.4786367"><ele>306.0</ele><time>2026-04-19T12:21:38.468Z</time></trkpt><trkpt lat="40.5763333" lon="8.4787533"><ele>306.0</ele><time>2026-04-19T12:21:39.468Z</time></trkpt><trkpt lat="40.576365" lon="8.4788633"><ele>306.0</ele><time>2026-04-19T12:21:40.468Z</time></trkpt><trkpt lat="40.5763883" lon="8.47897"><ele>306.0</ele><time>2026-04-19T12:21:41.468Z</time></trkpt><trkpt lat="40.5763967" lon="8.4790733"><ele>306.0</ele><time>2026-04-19T12:21:42.468Z</time></trkpt><trkpt lat="40.5763867" lon="8.4791867"><ele>306.0</ele><time>2026-04-19T12:21:43.467Z</time></trkpt><trkpt lat="40.57636" lon="8.479315"><ele>306.0</ele><time>2026-04-19T12:21:44.467Z</time></trkpt><trkpt lat="40.5763233" lon="8.47946"><ele>306.5</ele><time>2026-04-19T12:21:45.468Z</time></trkpt><trkpt lat="40.57629" lon="8.47962"><ele>307.0</ele><time>2026-04-19T12:21:46.468Z</time></trkpt><trkpt lat="40.576265" lon="8.4797917"><ele>307.5</ele><time>2026-04-19T12:21:47.468Z</time></trkpt><trkpt lat="40.5762517" lon="8.4799733"><ele>308.0</ele><time>2026-04-19T12:21:48.467Z</time></trkpt><trkpt lat="40.5762483" lon="8.4801633"><ele>308.0</ele><time>2026-04-19T12:21:49.467Z</time></trkpt><trkpt lat="40.5762483" lon="8.4803567"><ele>308.0</ele><time>2026-04-19T12:21:50.468Z</time></trkpt><trkpt lat="40.5762567" lon="8.4805433"><ele>308.0</ele><time>2026-04-19T12:21:51.467Z</time></trkpt><trkpt lat="40.5762683" lon="8.480715"><ele>308.0</ele><time>2026-04-19T12:21:52.468Z</time></trkpt><trkpt lat="40.5762817" lon="8.4808717"><ele>307.6</ele><time>2026-04-19T12:21:53.468Z</time></trkpt><trkpt lat="40.5763067" lon="8.4810167"><ele>307.20000000000005</ele><time>2026-04-19T12:21:54.467Z</time></trkpt><trkpt lat="40.5763417" lon="8.4811367"><ele>306.8</ele><time>2026-04-19T12:21:55.467Z</time></trkpt><trkpt lat="40.576385" lon="8.48125"><ele>306.40000000000003</ele><time>2026-04-19T12:21:56.467Z</time></trkpt><trkpt lat="40.57645" lon="8.481355"><ele>306.0</ele><time>2026-04-19T12:21:57.467Z</time></trkpt><trkpt lat="40.5765267" lon="8.4814383"><ele>303.5</ele><time>2026-04-19T12:21:58.467Z</time></trkpt><trkpt lat="40.5766217" lon="8.4815017"><ele>301.0</ele><time>2026-04-19T12:21:59.468Z</time></trkpt><trkpt lat="40.5767367" lon="8.4815667"><ele>298.5</ele><time>2026-04-19T12:22:00.467Z</time></trkpt><trkpt lat="40.5768717" lon="8.48163"><ele>296.0</ele><time>2026-04-19T12:22:01.467Z</time></trkpt><trkpt lat="40.5770083" lon="8.481705"><ele>297.25</ele><time>2026-04-19T12:22:02.468Z</time></trkpt><trkpt lat="40.577135" lon="8.48178"><ele>298.5</ele><time>2026-04-19T12:22:03.467Z</time></trkpt><trkpt lat="40.577255" lon="8.4818517"><ele>299.75</ele><time>2026-04-19T12:22:04.467Z</time></trkpt><trkpt lat="40.5773633" lon="8.481925"><ele>301.0</ele><time>2026-04-19T12:22:05.468Z</time></trkpt><trkpt lat="40.577455" lon="8.481985"><ele>301.0</ele><time>2026-04-19T12:22:06.468Z</time></trkpt><trkpt lat="40.577545" lon="8.4820483"><ele>301.0</ele><time>2026-04-19T12:22:07.468Z</time></trkpt><trkpt lat="40.57761" lon="8.4821217"><ele>301.0</ele><time>2026-04-19T12:22:08.468Z</time></trkpt><trkpt lat="40.57768" lon="8.4822383"><ele>301.0</ele><time>2026-04-19T12:22:09.468Z</time></trkpt><trkpt lat="40.5777467" lon="8.48236"><ele>301.0</ele><time>2026-04-19T12:22:10.467Z</time></trkpt><trkpt lat="40.5778067" lon="8.482475"><ele>299.5</ele><time>2026-04-19T12:22:11.468Z</time></trkpt><trkpt lat="40.5778633" lon="8.4825783"><ele>298.0</ele><time>2026-04-19T12:22:12.468Z</time></trkpt><trkpt lat="40.577915" lon="8.4826933"><ele>296.5</ele><time>2026-04-19T12:22:13.468Z</time></trkpt><trkpt lat="40.57796" lon="8.4827917"><ele>295.0</ele><time>2026-04-19T12:22:14.467Z</time></trkpt><trkpt lat="40.5779933" lon="8.4828767"><ele>293.5</ele><time>2026-04-19T12:22:15.467Z</time></trkpt><trkpt lat="40.5780333" lon="8.4829583"><ele>292.0</ele><time>2026-04-19T12:22:16.467Z</time></trkpt><trkpt lat="40.5780683" lon="8.48304"><ele>291.0</ele><time>2026-04-19T12:22:17.468Z</time></trkpt><trkpt lat="40.5781033" lon="8.4831167"><ele>290.0</ele><time>2026-04-19T12:22:18.468Z</time></trkpt><trkpt lat="40.5781883" lon="8.4832433"><ele>289.0</ele><time>2026-04-19T12:22:20.467Z</time></trkpt><trkpt lat="40.578245" lon="8.4833167"><ele>288.0</ele><time>2026-04-19T12:22:21.468Z</time></trkpt><trkpt lat="40.5783" lon="8.483385"><ele>287.0</ele><time>2026-04-19T12:22:22.467Z</time></trkpt><trkpt lat="40.5783583" lon="8.483445"><ele>286.0</ele><time>2026-04-19T12:22:23.467Z</time></trkpt><trkpt lat="40.578425" lon="8.4834967"><ele>286.0</ele><time>2026-04-19T12:22:24.467Z</time></trkpt><trkpt lat="40.5785" lon="8.483535"><ele>286.0</ele><time>2026-04-19T12:22:25.468Z</time></trkpt><trkpt lat="40.5785833" lon="8.4835783"><ele>286.0</ele><time>2026-04-19T12:22:26.467Z</time></trkpt><trkpt lat="40.578675" lon="8.4836067"><ele>286.0</ele><time>2026-04-19T12:22:27.467Z</time></trkpt><trkpt lat="40.578755" lon="8.4836283"><ele>286.0</ele><time>2026-04-19T12:22:28.467Z</time></trkpt><trkpt lat="40.578835" lon="8.4836583"><ele>286.0</ele><time>2026-04-19T12:22:29.468Z</time></trkpt><trkpt lat="40.5789183" lon="8.483675"><ele>285.57142857142856</ele><time>2026-04-19T12:22:30.468Z</time></trkpt><trkpt lat="40.579" lon="8.4836933"><ele>285.1428571428571</ele><time>2026-04-19T12:22:31.468Z</time></trkpt><trkpt lat="40.5790683" lon="8.4837183"><ele>284.7142857142857</ele><time>2026-04-19T12:22:32.467Z</time></trkpt><trkpt lat="40.579135" lon="8.4837567"><ele>284.2857142857143</ele><time>2026-04-19T12:22:33.467Z</time></trkpt><trkpt lat="40.5791933" lon="8.483815"><ele>283.8571428571429</ele><time>2026-04-19T12:22:34.467Z</time></trkpt><trkpt lat="40.5792367" lon="8.4838783"><ele>283.42857142857144</ele><time>2026-04-19T12:22:35.467Z</time></trkpt><trkpt lat="40.5792733" lon="8.4839617"><ele>283.0</ele><time>2026-04-19T12:22:36.468Z</time></trkpt><trkpt lat="40.5792967" lon="8.4840783"><ele>281.5</ele><time>2026-04-19T12:22:37.467Z</time></trkpt><trkpt lat="40.579315" lon="8.4842167"><ele>280.0</ele><time>2026-04-19T12:22:38.468Z</time></trkpt><trkpt lat="40.5793283" lon="8.4843767"><ele>278.5</ele><time>2026-04-19T12:22:39.468Z</time></trkpt><trkpt lat="40.5793367" lon="8.4845317"><ele>277.0</ele><time>2026-04-19T12:22:40.467Z</time></trkpt><trkpt lat="40.5793433" lon="8.484685"><ele>276.25</ele><time>2026-04-19T12:22:41.467Z</time></trkpt><trkpt lat="40.5793383" lon="8.4848333"><ele>275.5</ele><time>2026-04-19T12:22:42.467Z</time></trkpt><trkpt lat="40.5793317" lon="8.484985"><ele>274.75</ele><time>2026-04-19T12:22:43.467Z</time></trkpt><trkpt lat="40.5793217" lon="8.4851283"><ele>274.0</ele><time>2026-04-19T12:22:44.468Z</time></trkpt><trkpt lat="40.5793083" lon="8.48529"><ele>273.5</ele><time>2026-04-19T12:22:45.468Z</time></trkpt><trkpt lat="40.5792967" lon="8.48544"><ele>273.0</ele><time>2026-04-19T12:22:46.467Z</time></trkpt><trkpt lat="40.57928" lon="8.4855867"><ele>272.5</ele><time>2026-04-19T12:22:47.467Z</time></trkpt><trkpt lat="40.5792583" lon="8.4857417"><ele>272.0</ele><time>2026-04-19T12:22:48.468Z</time></trkpt><trkpt lat="40.5792233" lon="8.4859017"><ele>272.0</ele><time>2026-04-19T12:22:49.467Z</time></trkpt><trkpt lat="40.5792" lon="8.486055"><ele>272.0</ele><time>2026-04-19T12:22:50.468Z</time></trkpt><trkpt lat="40.57918" lon="8.4862133"><ele>272.0</ele><time>2026-04-19T12:22:51.467Z</time></trkpt><trkpt lat="40.57916" lon="8.48638"><ele>272.0</ele><time>2026-04-19T12:22:52.468Z</time></trkpt><trkpt lat="40.5791483" lon="8.486545"><ele>271.5</ele><time>2026-04-19T12:22:53.468Z</time></trkpt><trkpt lat="40.5791367" lon="8.4867083"><ele>271.0</ele><time>2026-04-19T12:22:54.468Z</time></trkpt><trkpt lat="40.5791267" lon="8.486865"><ele>270.5</ele><time>2026-04-19T12:22:55.467Z</time></trkpt><trkpt lat="40.5791233" lon="8.4870183"><ele>270.0</ele><time>2026-04-19T12:22:56.467Z</time></trkpt><trkpt lat="40.5791167" lon="8.4871683"><ele>269.4</ele><time>2026-04-19T12:22:57.467Z</time></trkpt><trkpt lat="40.5791083" lon="8.4873117"><ele>268.8</ele><time>2026-04-19T12:22:58.468Z</time></trkpt><trkpt lat="40.579105" lon="8.4874483"><ele>268.2</ele><time>2026-04-19T12:22:59.467Z</time></trkpt><trkpt lat="40.5790983" lon="8.4875767"><ele>267.6</ele><time>2026-04-19T12:23:00.468Z</time></trkpt><trkpt lat="40.579105" lon="8.4877017"><ele>267.0</ele><time>2026-04-19T12:23:01.467Z</time></trkpt><trkpt lat="40.5791333" lon="8.4878217"><ele>266.2</ele><time>2026-04-19T12:23:02.467Z</time></trkpt><trkpt lat="40.5791767" lon="8.487945"><ele>265.4</ele><time>2026-04-19T12:23:03.467Z</time></trkpt><trkpt lat="40.5792383" lon="8.4880733"><ele>264.6</ele><time>2026-04-19T12:23:04.467Z</time></trkpt><trkpt lat="40.579295" lon="8.4882017"><ele>263.8</ele><time>2026-04-19T12:23:05.467Z</time></trkpt><trkpt lat="40.579335" lon="8.4883367"><ele>263.0</ele><time>2026-04-19T12:23:06.467Z</time></trkpt><trkpt lat="40.5793717" lon="8.4884783"><ele>263.0</ele><time>2026-04-19T12:23:07.468Z</time></trkpt><trkpt lat="40.5794067" lon="8.4886217"><ele>263.0</ele><time>2026-04-19T12:23:08.467Z</time></trkpt><trkpt lat="40.5794367" lon="8.48877"><ele>263.0</ele><time>2026-04-19T12:23:09.467Z</time></trkpt><trkpt lat="40.5794633" lon="8.4889133"><ele>263.0</ele><time>2026-04-19T12:23:10.467Z</time></trkpt><trkpt lat="40.5794967" lon="8.4890533"><ele>262.5</ele><time>2026-04-19T12:23:11.467Z</time></trkpt><trkpt lat="40.5795317" lon="8.4892017"><ele>262.0</ele><time>2026-04-19T12:23:12.468Z</time></trkpt><trkpt lat="40.5795683" lon="8.4893583"><ele>261.5</ele><time>2026-04-19T12:23:13.467Z</time></trkpt><trkpt lat="40.5796033" lon="8.4894967"><ele>261.0</ele><time>2026-04-19T12:23:14.467Z</time></trkpt><trkpt lat="40.5796367" lon="8.489635"><ele>260.6</ele><time>2026-04-19T12:23:15.467Z</time></trkpt><trkpt lat="40.5796683" lon="8.4897633"><ele>260.20000000000005</ele><time>2026-04-19T12:23:16.467Z</time></trkpt><trkpt lat="40.5797033" lon="8.4898933"><ele>259.79999999999995</ele><time>2026-04-19T12:23:17.467Z</time></trkpt><trkpt lat="40.5797567" lon="8.4900217"><ele>259.4</ele><time>2026-04-19T12:23:18.468Z</time></trkpt><trkpt lat="40.5798233" lon="8.4901467"><ele>259.0</ele><time>2026-04-19T12:23:19.467Z</time></trkpt><trkpt lat="40.5798983" lon="8.4902633"><ele>259.0</ele><time>2026-04-19T12:23:20.468Z</time></trkpt><trkpt lat="40.5799783" lon="8.4903783"><ele>259.0</ele><time>2026-04-19T12:23:21.468Z</time></trkpt><trkpt lat="40.5800533" lon="8.4904833"><ele>259.0</ele><time>2026-04-19T12:23:22.467Z</time></trkpt><trkpt lat="40.580125" lon="8.4905767"><ele>259.0</ele><time>2026-04-19T12:23:23.468Z</time></trkpt><trkpt lat="40.5802033" lon="8.4906467"><ele>259.0</ele><time>2026-04-19T12:23:24.468Z</time></trkpt><trkpt lat="40.5802733" lon="8.4906933"><ele>258.4</ele><time>2026-04-19T12:23:25.468Z</time></trkpt><trkpt lat="40.5803483" lon="8.4907217"><ele>257.79999999999995</ele><time>2026-04-19T12:23:26.468Z</time></trkpt><trkpt lat="40.5804433" lon="8.4907083"><ele>257.20000000000005</ele><time>2026-04-19T12:23:27.468Z</time></trkpt><trkpt lat="40.5805383" lon="8.49066"><ele>256.6</ele><time>2026-04-19T12:23:28.467Z</time></trkpt><trkpt lat="40.5806317" lon="8.4906083"><ele>256.0</ele><time>2026-04-19T12:23:29.467Z</time></trkpt><trkpt lat="40.5807267" lon="8.4905383"><ele>255.4</ele><time>2026-04-19T12:23:30.468Z</time></trkpt><trkpt lat="40.5808117" lon="8.4904567"><ele>254.8</ele><time>2026-04-19T12:23:31.468Z</time></trkpt><trkpt lat="40.5808867" lon="8.49036"><ele>254.20000000000002</ele><time>2026-04-19T12:23:32.467Z</time></trkpt><trkpt lat="40.5809683" lon="8.4902517"><ele>253.60000000000002</ele><time>2026-04-19T12:23:33.468Z</time></trkpt><trkpt lat="40.5810417" lon="8.4901367"><ele>253.0</ele><time>2026-04-19T12:23:34.467Z</time></trkpt><trkpt lat="40.5811067" lon="8.490015"><ele>253.0</ele><time>2026-04-19T12:23:35.467Z</time></trkpt><trkpt lat="40.5811617" lon="8.4899017"><ele>253.0</ele><time>2026-04-19T12:23:36.467Z</time></trkpt><trkpt lat="40.58122" lon="8.4897867"><ele>253.0</ele><time>2026-04-19T12:23:37.467Z</time></trkpt><trkpt lat="40.581275" lon="8.489685"><ele>253.0</ele><time>2026-04-19T12:23:38.467Z</time></trkpt><trkpt lat="40.581335" lon="8.4896033"><ele>253.0</ele><time>2026-04-19T12:23:39.467Z</time></trkpt><trkpt lat="40.5813933" lon="8.4895433"><ele>252.2</ele><time>2026-04-19T12:23:40.467Z</time></trkpt><trkpt lat="40.58146" lon="8.489505"><ele>251.4</ele><time>2026-04-19T12:23:41.468Z</time></trkpt><trkpt lat="40.5815417" lon="8.489495"><ele>250.59999999999997</ele><time>2026-04-19T12:23:42.468Z</time></trkpt><trkpt lat="40.58164" lon="8.489515"><ele>249.79999999999998</ele><time>2026-04-19T12:23:43.467Z</time></trkpt><trkpt lat="40.58175" lon="8.4895867"><ele>249.0</ele><time>2026-04-19T12:23:44.467Z</time></trkpt><trkpt lat="40.58187" lon="8.4896817"><ele>247.5</ele><time>2026-04-19T12:23:45.468Z</time></trkpt><trkpt lat="40.5819783" lon="8.489795"><ele>246.0</ele><time>2026-04-19T12:23:46.467Z</time></trkpt><trkpt lat="40.5820833" lon="8.489915"><ele>244.5</ele><time>2026-04-19T12:23:47.467Z</time></trkpt><trkpt lat="40.5821783" lon="8.4900467"><ele>243.0</ele><time>2026-04-19T12:23:48.468Z</time></trkpt><trkpt lat="40.5822667" lon="8.4901883"><ele>243.0</ele><time>2026-04-19T12:23:49.467Z</time></trkpt><trkpt lat="40.5823467" lon="8.49035"><ele>243.0</ele><time>2026-04-19T12:23:50.468Z</time></trkpt><trkpt lat="40.5824383" lon="8.4905317"><ele>243.0</ele><time>2026-04-19T12:23:51.467Z</time></trkpt><trkpt lat="40.58252" lon="8.4907383"><ele>241.0</ele><time>2026-04-19T12:23:52.467Z</time></trkpt><trkpt lat="40.5826" lon="8.4909467"><ele>239.0</ele><time>2026-04-19T12:23:53.468Z</time></trkpt><trkpt lat="40.5826933" lon="8.4911467"><ele>237.0</ele><time>2026-04-19T12:23:54.467Z</time></trkpt><trkpt lat="40.5827817" lon="8.491335"><ele>236.75</ele><time>2026-04-19T12:23:55.468Z</time></trkpt><trkpt lat="40.5828633" lon="8.49152"><ele>236.5</ele><time>2026-04-19T12:23:56.467Z</time></trkpt><trkpt lat="40.5829267" lon="8.49168"><ele>236.25</ele><time>2026-04-19T12:23:57.468Z</time></trkpt><trkpt lat="40.582975" lon="8.49182"><ele>236.0</ele><time>2026-04-19T12:23:58.467Z</time></trkpt><trkpt lat="40.5830167" lon="8.4919533"><ele>236.0</ele><time>2026-04-19T12:23:59.467Z</time></trkpt><trkpt lat="40.583025" lon="8.49208"><ele>236.00000000000003</ele><time>2026-04-19T12:24:00.468Z</time></trkpt><trkpt lat="40.5829917" lon="8.492195"><ele>236.00000000000003</ele><time>2026-04-19T12:24:01.467Z</time></trkpt><trkpt lat="40.58292" lon="8.4923083"><ele>236.0</ele><time>2026-04-19T12:24:02.467Z</time></trkpt><trkpt lat="40.5828367" lon="8.4924317"><ele>236.0</ele><time>2026-04-19T12:24:03.468Z</time></trkpt><trkpt lat="40.5827583" lon="8.4925867"><ele>235.66666666666669</ele><time>2026-04-19T12:24:04.467Z</time></trkpt><trkpt lat="40.5827017" lon="8.4927667"><ele>235.33333333333331</ele><time>2026-04-19T12:24:05.468Z</time></trkpt><trkpt lat="40.5826617" lon="8.4929617"><ele>235.0</ele><time>2026-04-19T12:24:06.467Z</time></trkpt><trkpt lat="40.582635" lon="8.493165"><ele>236.5</ele><time>2026-04-19T12:24:07.467Z</time></trkpt><trkpt lat="40.5826233" lon="8.4933667"><ele>238.0</ele><time>2026-04-19T12:24:08.467Z</time></trkpt><trkpt lat="40.582635" lon="8.4935583"><ele>239.5</ele><time>2026-04-19T12:24:09.467Z</time></trkpt><trkpt lat="40.5826567" lon="8.4937317"><ele>241.0</ele><time>2026-04-19T12:24:10.468Z</time></trkpt><trkpt lat="40.5827067" lon="8.4938933"><ele>241.66666666666666</ele><time>2026-04-19T12:24:11.467Z</time></trkpt><trkpt lat="40.5827767" lon="8.4940567"><ele>242.33333333333331</ele><time>2026-04-19T12:24:12.468Z</time></trkpt><trkpt lat="40.5828633" lon="8.4942183"><ele>243.0</ele><time>2026-04-19T12:24:13.467Z</time></trkpt><trkpt lat="40.5829583" lon="8.49439"><ele>245.5</ele><time>2026-04-19T12:24:14.467Z</time></trkpt><trkpt lat="40.583045" lon="8.4945533"><ele>248.0</ele><time>2026-04-19T12:24:15.467Z</time></trkpt><trkpt lat="40.5831233" lon="8.494715"><ele>250.5</ele><time>2026-04-19T12:24:16.468Z</time></trkpt><trkpt lat="40.5831817" lon="8.494875"><ele>253.0</ele><time>2026-04-19T12:24:17.468Z</time></trkpt><trkpt lat="40.5832283" lon="8.4950383"><ele>253.5</ele><time>2026-04-19T12:24:18.468Z</time></trkpt><trkpt lat="40.58325" lon="8.495215"><ele>254.0</ele><time>2026-04-19T12:24:19.468Z</time></trkpt><trkpt lat="40.58327" lon="8.495405"><ele>254.5</ele><time>2026-04-19T12:24:20.467Z</time></trkpt><trkpt lat="40.5832867" lon="8.49559"><ele>255.0</ele><time>2026-04-19T12:24:21.467Z</time></trkpt><trkpt lat="40.583295" lon="8.4957633"><ele>255.75</ele><time>2026-04-19T12:24:22.467Z</time></trkpt><trkpt lat="40.5833033" lon="8.49593"><ele>256.5</ele><time>2026-04-19T12:24:23.467Z</time></trkpt><trkpt lat="40.5832967" lon="8.4960967"><ele>257.25</ele><time>2026-04-19T12:24:24.467Z</time></trkpt><trkpt lat="40.5832817" lon="8.4962767"><ele>258.0</ele><time>2026-04-19T12:24:25.467Z</time></trkpt><trkpt lat="40.5832633" lon="8.4964767"><ele>258.3333333333333</ele><time>2026-04-19T12:24:26.468Z</time></trkpt><trkpt lat="40.5832517" lon="8.4966733"><ele>258.66666666666663</ele><time>2026-04-19T12:24:27.468Z</time></trkpt><trkpt lat="40.5832517" lon="8.496885"><ele>259.0</ele><time>2026-04-19T12:24:28.468Z</time></trkpt><trkpt lat="40.5832583" lon="8.4970983"><ele>259.3333333333333</ele><time>2026-04-19T12:24:29.467Z</time></trkpt><trkpt lat="40.5832683" lon="8.4973167"><ele>259.6666666666667</ele><time>2026-04-19T12:24:30.467Z</time></trkpt><trkpt lat="40.5832683" lon="8.4975417"><ele>260.0</ele><time>2026-04-19T12:24:31.468Z</time></trkpt><trkpt lat="40.5832733" lon="8.49777"><ele>260.33333333333337</ele><time>2026-04-19T12:24:32.468Z</time></trkpt><trkpt lat="40.5832817" lon="8.4980017"><ele>260.6666666666667</ele><time>2026-04-19T12:24:33.468Z</time></trkpt><trkpt lat="40.5832867" lon="8.49824"><ele>261.0</ele><time>2026-04-19T12:24:34.467Z</time></trkpt><trkpt lat="40.5832867" lon="8.4984933"><ele>261.0</ele><time>2026-04-19T12:24:35.468Z</time></trkpt><trkpt lat="40.5832917" lon="8.4987467"><ele>261.0</ele><time>2026-04-19T12:24:36.467Z</time></trkpt><trkpt lat="40.5833033" lon="8.4989983"><ele>261.0</ele><time>2026-04-19T12:24:37.467Z</time></trkpt><trkpt lat="40.5833117" lon="8.4992333"><ele>262.0</ele><time>2026-04-19T12:24:38.467Z</time></trkpt><trkpt lat="40.5833233" lon="8.499465"><ele>263.0</ele><time>2026-04-19T12:24:39.468Z</time></trkpt><trkpt lat="40.5833333" lon="8.49969"><ele>264.0</ele><time>2026-04-19T12:24:40.467Z</time></trkpt><trkpt lat="40.583345" lon="8.4999167"><ele>264.6666666666667</ele><time>2026-04-19T12:24:41.468Z</time></trkpt><trkpt lat="40.5833517" lon="8.50015"><ele>265.33333333333337</ele><time>2026-04-19T12:24:42.468Z</time></trkpt><trkpt lat="40.583365" lon="8.5003867"><ele>266.0</ele><time>2026-04-19T12:24:43.468Z</time></trkpt><trkpt lat="40.5833683" lon="8.50062"><ele>266.6666666666667</ele><time>2026-04-19T12:24:44.467Z</time></trkpt><trkpt lat="40.5833633" lon="8.5008317"><ele>267.3333333333333</ele><time>2026-04-19T12:24:45.467Z</time></trkpt><trkpt lat="40.5833533" lon="8.5010333"><ele>268.0</ele><time>2026-04-19T12:24:46.466Z</time></trkpt><trkpt lat="40.58334" lon="8.501235"><ele>269.0</ele><time>2026-04-19T12:24:47.466Z</time></trkpt><trkpt lat="40.5833117" lon="8.50143"><ele>270.0</ele><time>2026-04-19T12:24:48.467Z</time></trkpt><trkpt lat="40.5832667" lon="8.501635"><ele>271.0</ele><time>2026-04-19T12:24:49.466Z</time></trkpt><trkpt lat="40.58321" lon="8.5018417"><ele>271.0</ele><time>2026-04-19T12:24:50.466Z</time></trkpt><trkpt lat="40.5831567" lon="8.50203"><ele>271.0</ele><time>2026-04-19T12:24:51.466Z</time></trkpt><trkpt lat="40.5831033" lon="8.5022183"><ele>271.0</ele><time>2026-04-19T12:24:52.467Z</time></trkpt><trkpt lat="40.5830633" lon="8.5024"><ele>271.0</ele><time>2026-04-19T12:24:53.466Z</time></trkpt><trkpt lat="40.5830333" lon="8.502585"><ele>271.25</ele><time>2026-04-19T12:24:54.467Z</time></trkpt><trkpt lat="40.5830217" lon="8.5027633"><ele>271.5</ele><time>2026-04-19T12:24:55.467Z</time></trkpt><trkpt lat="40.583025" lon="8.5029583"><ele>271.75</ele><time>2026-04-19T12:24:56.466Z</time></trkpt><trkpt lat="40.583045" lon="8.503155"><ele>272.0</ele><time>2026-04-19T12:24:57.467Z</time></trkpt><trkpt lat="40.583075" lon="8.5033583"><ele>272.0</ele><time>2026-04-19T12:24:58.466Z</time></trkpt><trkpt lat="40.5831083" lon="8.50356"><ele>272.0</ele><time>2026-04-19T12:24:59.466Z</time></trkpt><trkpt lat="40.5831367" lon="8.5037633"><ele>272.0</ele><time>2026-04-19T12:25:00.467Z</time></trkpt><trkpt lat="40.5831583" lon="8.5039633"><ele>272.33333333333337</ele><time>2026-04-19T12:25:01.466Z</time></trkpt><trkpt lat="40.5831683" lon="8.504165"><ele>272.6666666666667</ele><time>2026-04-19T12:25:02.466Z</time></trkpt><trkpt lat="40.5831683" lon="8.5043733"><ele>273.0</ele><time>2026-04-19T12:25:03.467Z</time></trkpt><trkpt lat="40.58315" lon="8.5045817"><ele>273.3333333333333</ele><time>2026-04-19T12:25:04.466Z</time></trkpt><trkpt lat="40.583125" lon="8.5047833"><ele>273.66666666666663</ele><time>2026-04-19T12:25:05.466Z</time></trkpt><trkpt lat="40.5830967" lon="8.5049867"><ele>274.0</ele><time>2026-04-19T12:25:06.467Z</time></trkpt><trkpt lat="40.5830667" lon="8.5051917"><ele>274.0</ele><time>2026-04-19T12:25:07.466Z</time></trkpt><trkpt lat="40.5830467" lon="8.5053967"><ele>274.0</ele><time>2026-04-19T12:25:08.467Z</time></trkpt><trkpt lat="40.5830433" lon="8.5055867"><ele>274.0</ele><time>2026-04-19T12:25:09.467Z</time></trkpt><trkpt lat="40.5830483" lon="8.5057833"><ele>273.75</ele><time>2026-04-19T12:25:10.466Z</time></trkpt><trkpt lat="40.58308" lon="8.50597"><ele>273.5</ele><time>2026-04-19T12:25:11.466Z</time></trkpt><trkpt lat="40.5831283" lon="8.5061367"><ele>273.25</ele><time>2026-04-19T12:25:12.466Z</time></trkpt><trkpt lat="40.5832017" lon="8.50631"><ele>273.0</ele><time>2026-04-19T12:25:13.467Z</time></trkpt><trkpt lat="40.5832933" lon="8.5064833"><ele>272.0</ele><time>2026-04-19T12:25:14.466Z</time></trkpt><trkpt lat="40.5833883" lon="8.50665"><ele>271.0</ele><time>2026-04-19T12:25:15.467Z</time></trkpt><trkpt lat="40.5834833" lon="8.5068017"><ele>270.0</ele><time>2026-04-19T12:25:16.466Z</time></trkpt><trkpt lat="40.5835833" lon="8.5069583"><ele>271.0</ele><time>2026-04-19T12:25:17.467Z</time></trkpt><trkpt lat="40.58369" lon="8.5071017"><ele>272.0</ele><time>2026-04-19T12:25:18.466Z</time></trkpt><trkpt lat="40.583785" lon="8.50724"><ele>273.0</ele><time>2026-04-19T12:25:19.467Z</time></trkpt><trkpt lat="40.5838767" lon="8.5073933"><ele>274.0</ele><time>2026-04-19T12:25:20.466Z</time></trkpt><trkpt lat="40.5839633" lon="8.5075517"><ele>274.0</ele><time>2026-04-19T12:25:21.467Z</time></trkpt><trkpt lat="40.5840433" lon="8.5077117"><ele>274.0</ele><time>2026-04-19T12:25:22.466Z</time></trkpt><trkpt lat="40.5841167" lon="8.507865"><ele>274.0</ele><time>2026-04-19T12:25:23.467Z</time></trkpt><trkpt lat="40.584185" lon="8.5080033"><ele>274.0</ele><time>2026-04-19T12:25:24.466Z</time></trkpt><trkpt lat="40.5842483" lon="8.5081317"><ele>274.25</ele><time>2026-04-19T12:25:25.466Z</time></trkpt><trkpt lat="40.5843117" lon="8.5082567"><ele>274.5</ele><time>2026-04-19T12:25:26.466Z</time></trkpt><trkpt lat="40.584365" lon="8.5083967"><ele>274.75</ele><time>2026-04-19T12:25:27.466Z</time></trkpt><trkpt lat="40.5844067" lon="8.508555"><ele>275.0</ele><time>2026-04-19T12:25:28.467Z</time></trkpt><trkpt lat="40.5844267" lon="8.50874"><ele>276.0</ele><time>2026-04-19T12:25:29.466Z</time></trkpt><trkpt lat="40.584445" lon="8.508935"><ele>277.0</ele><time>2026-04-19T12:25:30.467Z</time></trkpt><trkpt lat="40.5844567" lon="8.509145"><ele>278.0</ele><time>2026-04-19T12:25:31.467Z</time></trkpt><trkpt lat="40.58446" lon="8.509365"><ele>278.0</ele><time>2026-04-19T12:25:32.467Z</time></trkpt><trkpt lat="40.5844667" lon="8.5095667"><ele>278.0</ele><time>2026-04-19T12:25:33.466Z</time></trkpt><trkpt lat="40.5844667" lon="8.5097567"><ele>278.0</ele><time>2026-04-19T12:25:34.467Z</time></trkpt><trkpt lat="40.5844683" lon="8.509925"><ele>278.0</ele><time>2026-04-19T12:25:35.466Z</time></trkpt><trkpt lat="40.5844533" lon="8.5100717"><ele>279.25</ele><time>2026-04-19T12:25:36.467Z</time></trkpt><trkpt lat="40.58442" lon="8.5102167"><ele>280.5</ele><time>2026-04-19T12:25:37.466Z</time></trkpt><trkpt lat="40.5843683" lon="8.510365"><ele>281.75</ele><time>2026-04-19T12:25:38.466Z</time></trkpt><trkpt lat="40.5843067" lon="8.5105317"><ele>283.0</ele><time>2026-04-19T12:25:39.466Z</time></trkpt><trkpt lat="40.5842383" lon="8.5107083"><ele>283.75</ele><time>2026-04-19T12:25:40.466Z</time></trkpt><trkpt lat="40.5841667" lon="8.510885"><ele>284.5</ele><time>2026-04-19T12:25:41.466Z</time></trkpt><trkpt lat="40.5840917" lon="8.5110617"><ele>285.25</ele><time>2026-04-19T12:25:42.466Z</time></trkpt><trkpt lat="40.5840217" lon="8.5112183"><ele>286.0</ele><time>2026-04-19T12:25:43.467Z</time></trkpt><trkpt lat="40.583945" lon="8.51136"><ele>288.0</ele><time>2026-04-19T12:25:44.466Z</time></trkpt><trkpt lat="40.58387" lon="8.5114967"><ele>290.0</ele><time>2026-04-19T12:25:45.466Z</time></trkpt><trkpt lat="40.583795" lon="8.5116333"><ele>292.0</ele><time>2026-04-19T12:25:46.467Z</time></trkpt><trkpt lat="40.58373" lon="8.5117767"><ele>294.0</ele><time>2026-04-19T12:25:47.466Z</time></trkpt><trkpt lat="40.5836717" lon="8.511945"><ele>295.6666666666667</ele><time>2026-04-19T12:25:48.467Z</time></trkpt><trkpt lat="40.5836283" lon="8.51213"><ele>297.33333333333337</ele><time>2026-04-19T12:25:49.466Z</time></trkpt><trkpt lat="40.5835833" lon="8.5123283"><ele>299.0</ele><time>2026-04-19T12:25:50.467Z</time></trkpt><trkpt lat="40.58354" lon="8.5125317"><ele>299.0</ele><time>2026-04-19T12:25:51.467Z</time></trkpt><trkpt lat="40.5835067" lon="8.5127467"><ele>299.0</ele><time>2026-04-19T12:25:52.467Z</time></trkpt><trkpt lat="40.5834783" lon="8.512965"><ele>299.0</ele><time>2026-04-19T12:25:53.466Z</time></trkpt><trkpt lat="40.5834483" lon="8.5131717"><ele>300.75</ele><time>2026-04-19T12:25:54.466Z</time></trkpt><trkpt lat="40.583415" lon="8.5133767"><ele>302.5</ele><time>2026-04-19T12:25:55.467Z</time></trkpt><trkpt lat="40.58338" lon="8.51357"><ele>304.25</ele><time>2026-04-19T12:25:56.467Z</time></trkpt><trkpt lat="40.5833483" lon="8.5137383"><ele>306.0</ele><time>2026-04-19T12:25:57.467Z</time></trkpt><trkpt lat="40.5833133" lon="8.513895"><ele>307.75</ele><time>2026-04-19T12:25:58.466Z</time></trkpt><trkpt lat="40.5832733" lon="8.5140483"><ele>309.5</ele><time>2026-04-19T12:25:59.466Z</time></trkpt><trkpt lat="40.5832" lon="8.514195"><ele>311.25</ele><time>2026-04-19T12:26:00.467Z</time></trkpt><trkpt lat="40.583125" lon="8.5143483"><ele>313.0</ele><time>2026-04-19T12:26:01.467Z</time></trkpt><trkpt lat="40.5830617" lon="8.514515"><ele>313.3333333333333</ele><time>2026-04-19T12:26:02.466Z</time></trkpt><trkpt lat="40.5830117" lon="8.5147017"><ele>313.6666666666667</ele><time>2026-04-19T12:26:03.466Z</time></trkpt><trkpt lat="40.58296" lon="8.5149"><ele>314.0</ele><time>2026-04-19T12:26:04.467Z</time></trkpt><trkpt lat="40.5829167" lon="8.5151083"><ele>314.0</ele><time>2026-04-19T12:26:05.467Z</time></trkpt><trkpt lat="40.58286" lon="8.51531"><ele>314.0</ele><time>2026-04-19T12:26:06.467Z</time></trkpt><trkpt lat="40.5828117" lon="8.5155033"><ele>314.0</ele><time>2026-04-19T12:26:07.466Z</time></trkpt><trkpt lat="40.5827683" lon="8.5156783"><ele>313.75</ele><time>2026-04-19T12:26:08.467Z</time></trkpt><trkpt lat="40.5827267" lon="8.5158333"><ele>313.5</ele><time>2026-04-19T12:26:09.466Z</time></trkpt><trkpt lat="40.5826867" lon="8.5159783"><ele>313.25</ele><time>2026-04-19T12:26:10.466Z</time></trkpt><trkpt lat="40.5826367" lon="8.5161383"><ele>313.0</ele><time>2026-04-19T12:26:11.466Z</time></trkpt><trkpt lat="40.5825733" lon="8.51629"><ele>313.0</ele><time>2026-04-19T12:26:12.466Z</time></trkpt><trkpt lat="40.5824833" lon="8.5164333"><ele>313.0</ele><time>2026-04-19T12:26:13.467Z</time></trkpt><trkpt lat="40.5823817" lon="8.5165883"><ele>313.0</ele><time>2026-04-19T12:26:14.467Z</time></trkpt><trkpt lat="40.582275" lon="8.5167483"><ele>313.0</ele><time>2026-04-19T12:26:15.467Z</time></trkpt><trkpt lat="40.5821683" lon="8.5169167"><ele>313.0</ele><time>2026-04-19T12:26:16.466Z</time></trkpt><trkpt lat="40.58205" lon="8.5170933"><ele>313.0</ele><time>2026-04-19T12:26:17.466Z</time></trkpt><trkpt lat="40.5819367" lon="8.5172717"><ele>313.66666666666663</ele><time>2026-04-19T12:26:18.467Z</time></trkpt><trkpt lat="40.5818183" lon="8.517455"><ele>314.3333333333333</ele><time>2026-04-19T12:26:19.467Z</time></trkpt><trkpt lat="40.5817033" lon="8.5176383"><ele>315.0</ele><time>2026-04-19T12:26:20.467Z</time></trkpt><trkpt lat="40.581595" lon="8.5178217"><ele>315.3333333333333</ele><time>2026-04-19T12:26:21.467Z</time></trkpt><trkpt lat="40.58149" lon="8.51799"><ele>315.66666666666663</ele><time>2026-04-19T12:26:22.466Z</time></trkpt><trkpt lat="40.58139" lon="8.51816"><ele>316.0</ele><time>2026-04-19T12:26:23.467Z</time></trkpt><trkpt lat="40.5813017" lon="8.5183467"><ele>316.0</ele><time>2026-04-19T12:26:24.466Z</time></trkpt><trkpt lat="40.581225" lon="8.5185333"><ele>316.0</ele><time>2026-04-19T12:26:25.467Z</time></trkpt><trkpt lat="40.5811467" lon="8.518725"><ele>316.0</ele><time>2026-04-19T12:26:26.466Z</time></trkpt><trkpt lat="40.5810467" lon="8.518915"><ele>317.3333333333333</ele><time>2026-04-19T12:26:27.467Z</time></trkpt><trkpt lat="40.5809317" lon="8.5191067"><ele>318.6666666666667</ele><time>2026-04-19T12:26:28.467Z</time></trkpt><trkpt lat="40.5808083" lon="8.5192917"><ele>320.0</ele><time>2026-04-19T12:26:29.466Z</time></trkpt><trkpt lat="40.5806833" lon="8.519465"><ele>320.0</ele><time>2026-04-19T12:26:30.466Z</time></trkpt><trkpt lat="40.5805633" lon="8.51964"><ele>320.0</ele><time>2026-04-19T12:26:31.466Z</time></trkpt><trkpt lat="40.5804517" lon="8.51981"><ele>320.0</ele><time>2026-04-19T12:26:32.467Z</time></trkpt><trkpt lat="40.5803467" lon="8.5199933"><ele>321.6666666666667</ele><time>2026-04-19T12:26:33.466Z</time></trkpt><trkpt lat="40.58026" lon="8.5201833"><ele>323.3333333333333</ele><time>2026-04-19T12:26:34.467Z</time></trkpt><trkpt lat="40.5801717" lon="8.52038"><ele>325.0</ele><time>2026-04-19T12:26:35.466Z</time></trkpt><trkpt lat="40.5800917" lon="8.5205633"><ele>325.0</ele><time>2026-04-19T12:26:36.466Z</time></trkpt><trkpt lat="40.5800267" lon="8.5207483"><ele>325.0</ele><time>2026-04-19T12:26:37.467Z</time></trkpt><trkpt lat="40.5799683" lon="8.520935"><ele>325.0</ele><time>2026-04-19T12:26:38.466Z</time></trkpt><trkpt lat="40.5799233" lon="8.52112"><ele>324.0</ele><time>2026-04-19T12:26:39.467Z</time></trkpt><trkpt lat="40.5799083" lon="8.5212983"><ele>323.0</ele><time>2026-04-19T12:26:40.466Z</time></trkpt><trkpt lat="40.5799083" lon="8.5214733"><ele>322.0</ele><time>2026-04-19T12:26:41.466Z</time></trkpt><trkpt lat="40.579925" lon="8.5216383"><ele>321.0</ele><time>2026-04-19T12:26:42.466Z</time></trkpt><trkpt lat="40.579945" lon="8.5217967"><ele>321.0</ele><time>2026-04-19T12:26:43.467Z</time></trkpt><trkpt lat="40.5799467" lon="8.5219583"><ele>321.0</ele><time>2026-04-19T12:26:44.466Z</time></trkpt><trkpt lat="40.579915" lon="8.5221083"><ele>321.0</ele><time>2026-04-19T12:26:45.466Z</time></trkpt><trkpt lat="40.57986" lon="8.5222633"><ele>321.0</ele><time>2026-04-19T12:26:46.466Z</time></trkpt><trkpt lat="40.5797967" lon="8.5224183"><ele>320.0</ele><time>2026-04-19T12:26:47.466Z</time></trkpt><trkpt lat="40.57974" lon="8.5225833"><ele>319.0</ele><time>2026-04-19T12:26:48.466Z</time></trkpt><trkpt lat="40.5796817" lon="8.52275"><ele>318.0</ele><time>2026-04-19T12:26:49.467Z</time></trkpt><trkpt lat="40.5796333" lon="8.5229383"><ele>317.0</ele><time>2026-04-19T12:26:50.467Z</time></trkpt><trkpt lat="40.5795933" lon="8.5231383"><ele>316.25</ele><time>2026-04-19T12:26:51.467Z</time></trkpt><trkpt lat="40.5795717" lon="8.52333"><ele>315.5</ele><time>2026-04-19T12:26:52.467Z</time></trkpt><trkpt lat="40.579565" lon="8.5235183"><ele>314.75</ele><time>2026-04-19T12:26:53.466Z</time></trkpt><trkpt lat="40.5795583" lon="8.5236933"><ele>314.0</ele><time>2026-04-19T12:26:54.467Z</time></trkpt><trkpt lat="40.5795483" lon="8.52387"><ele>313.75</ele><time>2026-04-19T12:26:55.466Z</time></trkpt><trkpt lat="40.5795417" lon="8.52405"><ele>313.5</ele><time>2026-04-19T12:26:56.467Z</time></trkpt><trkpt lat="40.57953" lon="8.5242433"><ele>313.25</ele><time>2026-04-19T12:26:57.466Z</time></trkpt><trkpt lat="40.5795233" lon="8.5244383"><ele>313.0</ele><time>2026-04-19T12:26:58.466Z</time></trkpt><trkpt lat="40.579515" lon="8.5246167"><ele>313.75</ele><time>2026-04-19T12:26:59.467Z</time></trkpt><trkpt lat="40.5795133" lon="8.52479"><ele>314.5</ele><time>2026-04-19T12:27:00.467Z</time></trkpt><trkpt lat="40.5795167" lon="8.5249583"><ele>315.25</ele><time>2026-04-19T12:27:01.467Z</time></trkpt><trkpt lat="40.579525" lon="8.525125"><ele>316.0</ele><time>2026-04-19T12:27:02.466Z</time></trkpt><trkpt lat="40.5795517" lon="8.525295"><ele>315.5</ele><time>2026-04-19T12:27:03.466Z</time></trkpt><trkpt lat="40.579595" lon="8.5254483"><ele>315.0</ele><time>2026-04-19T12:27:04.466Z</time></trkpt><trkpt lat="40.57967" lon="8.5255833"><ele>314.5</ele><time>2026-04-19T12:27:05.467Z</time></trkpt><trkpt lat="40.579775" lon="8.52568"><ele>314.0</ele><time>2026-04-19T12:27:06.467Z</time></trkpt><trkpt lat="40.579895" lon="8.5257717"><ele>314.0</ele><time>2026-04-19T12:27:07.466Z</time></trkpt><trkpt lat="40.5800217" lon="8.5258617"><ele>314.0</ele><time>2026-04-19T12:27:08.466Z</time></trkpt><trkpt lat="40.5801467" lon="8.5259567"><ele>314.0</ele><time>2026-04-19T12:27:09.466Z</time></trkpt><trkpt lat="40.5802617" lon="8.5260517"><ele>314.0</ele><time>2026-04-19T12:27:10.466Z</time></trkpt><trkpt lat="40.580375" lon="8.52616"><ele>312.5</ele><time>2026-04-19T12:27:11.466Z</time></trkpt><trkpt lat="40.5804683" lon="8.526275"><ele>311.0</ele><time>2026-04-19T12:27:12.467Z</time></trkpt><trkpt lat="40.5805417" lon="8.5264033"><ele>309.5</ele><time>2026-04-19T12:27:13.467Z</time></trkpt><trkpt lat="40.5805983" lon="8.5265333"><ele>308.0</ele><time>2026-04-19T12:27:14.467Z</time></trkpt><trkpt lat="40.58064" lon="8.52667"><ele>308.0</ele><time>2026-04-19T12:27:15.466Z</time></trkpt><trkpt lat="40.580685" lon="8.5268167"><ele>308.0</ele><time>2026-04-19T12:27:16.466Z</time></trkpt><trkpt lat="40.580735" lon="8.5269667"><ele>308.0</ele><time>2026-04-19T12:27:17.467Z</time></trkpt><trkpt lat="40.58078" lon="8.5271117"><ele>308.0</ele><time>2026-04-19T12:27:18.466Z</time></trkpt><trkpt lat="40.5808233" lon="8.5272533"><ele>308.0</ele><time>2026-04-19T12:27:19.466Z</time></trkpt><trkpt lat="40.58083" lon="8.52739"><ele>308.0</ele><time>2026-04-19T12:27:20.466Z</time></trkpt><trkpt lat="40.5808183" lon="8.5275183"><ele>308.0</ele><time>2026-04-19T12:27:21.467Z</time></trkpt><trkpt lat="40.5807883" lon="8.527635"><ele>308.0</ele><time>2026-04-19T12:27:22.467Z</time></trkpt><trkpt lat="40.5807383" lon="8.5277467"><ele>308.0</ele><time>2026-04-19T12:27:23.466Z</time></trkpt><trkpt lat="40.580685" lon="8.5278467"><ele>307.6</ele><time>2026-04-19T12:27:24.466Z</time></trkpt><trkpt lat="40.5806533" lon="8.5279483"><ele>307.20000000000005</ele><time>2026-04-19T12:27:25.467Z</time></trkpt><trkpt lat="40.5806467" lon="8.5280567"><ele>306.8</ele><time>2026-04-19T12:27:26.467Z</time></trkpt><trkpt lat="40.5806667" lon="8.5281617"><ele>306.40000000000003</ele><time>2026-04-19T12:27:27.466Z</time></trkpt><trkpt lat="40.580705" lon="8.5282917"><ele>306.0</ele><time>2026-04-19T12:27:28.467Z</time></trkpt><trkpt lat="40.5807667" lon="8.52845"><ele>306.0</ele><time>2026-04-19T12:27:29.466Z</time></trkpt><trkpt lat="40.5808433" lon="8.5286267"><ele>306.0</ele><time>2026-04-19T12:27:30.466Z</time></trkpt><trkpt lat="40.5809233" lon="8.5287983"><ele>306.0</ele><time>2026-04-19T12:27:31.467Z</time></trkpt><trkpt lat="40.5810067" lon="8.528965"><ele>307.25</ele><time>2026-04-19T12:27:32.466Z</time></trkpt><trkpt lat="40.5810967" lon="8.52912"><ele>308.5</ele><time>2026-04-19T12:27:33.466Z</time></trkpt><trkpt lat="40.5811833" lon="8.529275"><ele>309.75</ele><time>2026-04-19T12:27:34.467Z</time></trkpt><trkpt lat="40.5812783" lon="8.5294067"><ele>311.0</ele><time>2026-04-19T12:27:35.467Z</time></trkpt><trkpt lat="40.5813683" lon="8.52955"><ele>306.0</ele><time>2026-04-19T12:27:36.466Z</time></trkpt><trkpt lat="40.581465" lon="8.5296883"><ele>301.0</ele><time>2026-04-19T12:27:37.467Z</time></trkpt><trkpt lat="40.5815567" lon="8.529825"><ele>296.0</ele><time>2026-04-19T12:27:38.467Z</time></trkpt><trkpt lat="40.58164" lon="8.52998"><ele>291.0</ele><time>2026-04-19T12:27:39.467Z</time></trkpt><trkpt lat="40.581715" lon="8.5301267"><ele>291.0</ele><time>2026-04-19T12:27:40.466Z</time></trkpt><trkpt lat="40.5817767" lon="8.5302717"><ele>291.0</ele><time>2026-04-19T12:27:41.466Z</time></trkpt><trkpt lat="40.58183" lon="8.5304217"><ele>291.0</ele><time>2026-04-19T12:27:42.467Z</time></trkpt><trkpt lat="40.581885" lon="8.5305583"><ele>291.0</ele><time>2026-04-19T12:27:43.466Z</time></trkpt><trkpt lat="40.5819167" lon="8.5307"><ele>291.6</ele><time>2026-04-19T12:27:44.467Z</time></trkpt><trkpt lat="40.5819317" lon="8.5308267"><ele>292.20000000000005</ele><time>2026-04-19T12:27:45.466Z</time></trkpt><trkpt lat="40.58192" lon="8.5309333"><ele>292.79999999999995</ele><time>2026-04-19T12:27:46.467Z</time></trkpt><trkpt lat="40.5818817" lon="8.5310367"><ele>293.4</ele><time>2026-04-19T12:27:47.467Z</time></trkpt><trkpt lat="40.5818017" lon="8.5311233"><ele>294.0</ele><time>2026-04-19T12:27:48.467Z</time></trkpt><trkpt lat="40.5816883" lon="8.5312"><ele>290.0</ele><time>2026-04-19T12:27:49.467Z</time></trkpt><trkpt lat="40.5815733" lon="8.5312833"><ele>286.0</ele><time>2026-04-19T12:27:50.466Z</time></trkpt><trkpt lat="40.5814567" lon="8.5313483"><ele>282.0</ele><time>2026-04-19T12:27:51.466Z</time></trkpt><trkpt lat="40.5813233" lon="8.5314067"><ele>278.0</ele><time>2026-04-19T12:27:52.467Z</time></trkpt><trkpt lat="40.5811833" lon="8.531465"><ele>281.6666666666667</ele><time>2026-04-19T12:27:53.467Z</time></trkpt><trkpt lat="40.58104" lon="8.5315333"><ele>285.3333333333333</ele><time>2026-04-19T12:27:54.466Z</time></trkpt><trkpt lat="40.5808817" lon="8.5316117"><ele>289.0</ele><time>2026-04-19T12:27:55.467Z</time></trkpt><trkpt lat="40.5807333" lon="8.5317017"><ele>289.0</ele><time>2026-04-19T12:27:56.467Z</time></trkpt><trkpt lat="40.5805917" lon="8.5317883"><ele>289.0</ele><time>2026-04-19T12:27:57.467Z</time></trkpt><trkpt lat="40.5804467" lon="8.53187"><ele>289.0</ele><time>2026-04-19T12:27:58.466Z</time></trkpt><trkpt lat="40.580305" lon="8.5319417"><ele>285.0</ele><time>2026-04-19T12:27:59.467Z</time></trkpt><trkpt lat="40.580155" lon="8.5320167"><ele>281.0</ele><time>2026-04-19T12:28:00.467Z</time></trkpt><trkpt lat="40.5800067" lon="8.53209"><ele>277.0</ele><time>2026-04-19T12:28:01.466Z</time></trkpt><trkpt lat="40.579865" lon="8.5321667"><ele>277.0</ele><time>2026-04-19T12:28:02.466Z</time></trkpt><trkpt lat="40.579715" lon="8.5322483"><ele>277.0</ele><time>2026-04-19T12:28:03.467Z</time></trkpt><trkpt lat="40.5795733" lon="8.5323383"><ele>277.0</ele><time>2026-04-19T12:28:04.466Z</time></trkpt><trkpt lat="40.5794283" lon="8.5324333"><ele>281.0</ele><time>2026-04-19T12:28:05.466Z</time></trkpt><trkpt lat="40.5792867" lon="8.5325267"><ele>285.0</ele><time>2026-04-19T12:28:06.466Z</time></trkpt><trkpt lat="40.5791433" lon="8.5326083"><ele>289.0</ele><time>2026-04-19T12:28:07.467Z</time></trkpt><trkpt lat="40.579015" lon="8.53269"><ele>289.0</ele><time>2026-04-19T12:28:08.466Z</time></trkpt><trkpt lat="40.5788817" lon="8.53277"><ele>289.0</ele><time>2026-04-19T12:28:09.466Z</time></trkpt><trkpt lat="40.57876" lon="8.532845"><ele>289.0</ele><time>2026-04-19T12:28:10.466Z</time></trkpt><trkpt lat="40.57865" lon="8.5329217"><ele>289.0</ele><time>2026-04-19T12:28:11.466Z</time></trkpt><trkpt lat="40.578545" lon="8.53301"><ele>288.0</ele><time>2026-04-19T12:28:12.466Z</time></trkpt><trkpt lat="40.57847" lon="8.5330983"><ele>287.0</ele><time>2026-04-19T12:28:13.466Z</time></trkpt><trkpt lat="40.5784183" lon="8.533195"><ele>286.0</ele><time>2026-04-19T12:28:14.466Z</time></trkpt><trkpt lat="40.5784017" lon="8.5332967"><ele>285.0</ele><time>2026-04-19T12:28:15.466Z</time></trkpt><trkpt lat="40.5784617" lon="8.533435"><ele>284.0</ele><time>2026-04-19T12:28:17.466Z</time></trkpt><trkpt lat="40.57859" lon="8.533425"><ele>284.0</ele><time>2026-04-19T12:28:19.467Z</time></trkpt><trkpt lat="40.5786633" lon="8.5333583"><ele>284.0</ele><time>2026-04-19T12:28:20.466Z</time></trkpt><trkpt lat="40.5787433" lon="8.53328"><ele>284.0</ele><time>2026-04-19T12:28:21.467Z</time></trkpt><trkpt lat="40.57884" lon="8.5331967"><ele>284.0</ele><time>2026-04-19T12:28:22.466Z</time></trkpt><trkpt lat="40.5789417" lon="8.5331167"><ele>284.0</ele><time>2026-04-19T12:28:23.467Z</time></trkpt><trkpt lat="40.5790517" lon="8.5330317"><ele>285.0</ele><time>2026-04-19T12:28:24.466Z</time></trkpt><trkpt lat="40.5791533" lon="8.5329617"><ele>286.0</ele><time>2026-04-19T12:28:25.466Z</time></trkpt><trkpt lat="40.5792583" lon="8.5328883"><ele>287.0</ele><time>2026-04-19T12:28:26.466Z</time></trkpt><trkpt lat="40.57936" lon="8.53284"><ele>288.0</ele><time>2026-04-19T12:28:27.467Z</time></trkpt><trkpt lat="40.5794617" lon="8.5328017"><ele>289.0</ele><time>2026-04-19T12:28:28.467Z</time></trkpt><trkpt lat="40.579575" lon="8.53281"><ele>286.0</ele><time>2026-04-19T12:28:29.466Z</time></trkpt><trkpt lat="40.579695" lon="8.532825"><ele>283.0</ele><time>2026-04-19T12:28:30.467Z</time></trkpt><trkpt lat="40.5798167" lon="8.5328317"><ele>280.0</ele><time>2026-04-19T12:28:31.467Z</time></trkpt><trkpt lat="40.5799467" lon="8.5328067"><ele>277.0</ele><time>2026-04-19T12:28:32.466Z</time></trkpt><trkpt lat="40.58009" lon="8.5327817"><ele>277.0</ele><time>2026-04-19T12:28:33.467Z</time></trkpt><trkpt lat="40.5802367" lon="8.53277"><ele>277.0</ele><time>2026-04-19T12:28:34.467Z</time></trkpt><trkpt lat="40.5803867" lon="8.5327867"><ele>277.0</ele><time>2026-04-19T12:28:35.467Z</time></trkpt><trkpt lat="40.5805183" lon="8.5328117"><ele>277.0</ele><time>2026-04-19T12:28:36.466Z</time></trkpt><trkpt lat="40.5806467" lon="8.53284"><ele>276.0</ele><time>2026-04-19T12:28:37.467Z</time></trkpt><trkpt lat="40.580755" lon="8.53286"><ele>275.0</ele><time>2026-04-19T12:28:38.467Z</time></trkpt><trkpt lat="40.5808583" lon="8.53288"><ele>274.0</ele><time>2026-04-19T12:28:39.467Z</time></trkpt><trkpt lat="40.5809667" lon="8.532885"><ele>273.0</ele><time>2026-04-19T12:28:40.467Z</time></trkpt><trkpt lat="40.5810817" lon="8.532885"><ele>272.0</ele><time>2026-04-19T12:28:41.466Z</time></trkpt><trkpt lat="40.5812083" lon="8.5328767"><ele>270.75</ele><time>2026-04-19T12:28:42.467Z</time></trkpt><trkpt lat="40.581345" lon="8.5328483"><ele>269.5</ele><time>2026-04-19T12:28:43.467Z</time></trkpt><trkpt lat="40.5814817" lon="8.53283"><ele>268.25</ele><time>2026-04-19T12:28:44.466Z</time></trkpt><trkpt lat="40.5816167" lon="8.5328317"><ele>267.0</ele><time>2026-04-19T12:28:45.467Z</time></trkpt><trkpt lat="40.5817483" lon="8.5328617"><ele>269.0</ele><time>2026-04-19T12:28:46.467Z</time></trkpt><trkpt lat="40.58188" lon="8.5329017"><ele>271.0</ele><time>2026-04-19T12:28:47.467Z</time></trkpt><trkpt lat="40.5820033" lon="8.53293"><ele>273.0</ele><time>2026-04-19T12:28:48.467Z</time></trkpt><trkpt lat="40.58212" lon="8.5329717"><ele>275.0</ele><time>2026-04-19T12:28:49.467Z</time></trkpt><trkpt lat="40.58223" lon="8.533015"><ele>275.0</ele><time>2026-04-19T12:28:50.467Z</time></trkpt><trkpt lat="40.5823417" lon="8.5330533"><ele>275.0</ele><time>2026-04-19T12:28:51.466Z</time></trkpt><trkpt lat="40.5824483" lon="8.5330683"><ele>275.0</ele><time>2026-04-19T12:28:52.466Z</time></trkpt><trkpt lat="40.58255" lon="8.53309"><ele>275.0</ele><time>2026-04-19T12:28:53.467Z</time></trkpt><trkpt lat="40.582645" lon="8.5331"><ele>275.0</ele><time>2026-04-19T12:28:54.467Z</time></trkpt><trkpt lat="40.582735" lon="8.5331067"><ele>275.0</ele><time>2026-04-19T12:28:55.466Z</time></trkpt><trkpt lat="40.582815" lon="8.5331083"><ele>275.0</ele><time>2026-04-19T12:28:56.466Z</time></trkpt><trkpt lat="40.582885" lon="8.5331183"><ele>275.0</ele><time>2026-04-19T12:28:57.467Z</time></trkpt><trkpt lat="40.5829583" lon="8.5331283"><ele>275.0</ele><time>2026-04-19T12:28:58.466Z</time></trkpt><trkpt lat="40.5830317" lon="8.5331367"><ele>275.0</ele><time>2026-04-19T12:28:59.466Z</time></trkpt><trkpt lat="40.583105" lon="8.5331567"><ele>275.0</ele><time>2026-04-19T12:29:00.467Z</time></trkpt><trkpt lat="40.58318" lon="8.5331817"><ele>275.0</ele><time>2026-04-19T12:29:01.466Z</time></trkpt><trkpt lat="40.5832533" lon="8.533225"><ele>275.0</ele><time>2026-04-19T12:29:02.466Z</time></trkpt><trkpt lat="40.583315" lon="8.53328"><ele>275.0</ele><time>2026-04-19T12:29:03.467Z</time></trkpt><trkpt lat="40.5833683" lon="8.5333317"><ele>275.0</ele><time>2026-04-19T12:29:04.467Z</time></trkpt><trkpt lat="40.583425" lon="8.533405"><ele>275.0</ele><time>2026-04-19T12:29:05.466Z</time></trkpt><trkpt lat="40.583475" lon="8.5334867"><ele>275.0</ele><time>2026-04-19T12:29:06.466Z</time></trkpt><trkpt lat="40.5835283" lon="8.5335583"><ele>275.0</ele><time>2026-04-19T12:29:07.466Z</time></trkpt><trkpt lat="40.58358" lon="8.533625"><ele>275.0</ele><time>2026-04-19T12:29:08.467Z</time></trkpt><trkpt lat="40.5836317" lon="8.5336883"><ele>275.0</ele><time>2026-04-19T12:29:09.467Z</time></trkpt><trkpt lat="40.5836867" lon="8.533755"><ele>275.0</ele><time>2026-04-19T12:29:10.467Z</time></trkpt><trkpt lat="40.5837417" lon="8.5338183"><ele>275.0</ele><time>2026-04-19T12:29:11.466Z</time></trkpt><trkpt lat="40.583825" lon="8.5339333"><ele>275.0</ele><time>2026-04-19T12:29:13.466Z</time></trkpt><trkpt lat="40.5839" lon="8.5340133"><ele>276.0</ele><time>2026-04-19T12:29:15.466Z</time></trkpt><trkpt lat="40.5839567" lon="8.534065"><ele>277.0</ele><time>2026-04-19T12:29:17.467Z</time></trkpt><trkpt lat="40.58401" lon="8.5341383"><ele>278.0</ele><time>2026-04-19T12:29:19.466Z</time></trkpt><trkpt lat="40.5840983" lon="8.5342483"><ele>279.0</ele><time>2026-04-19T12:29:21.467Z</time></trkpt><trkpt lat="40.5841533" lon="8.5343117"><ele>280.0</ele><time>2026-04-19T12:29:22.466Z</time></trkpt><trkpt lat="40.5842083" lon="8.534375"><ele>281.0</ele><time>2026-04-19T12:29:23.466Z</time></trkpt><trkpt lat="40.58426" lon="8.534435"><ele>281.0</ele><time>2026-04-19T12:29:24.466Z</time></trkpt><trkpt lat="40.5843083" lon="8.5344983"><ele>281.0</ele><time>2026-04-19T12:29:25.466Z</time></trkpt><trkpt lat="40.5843617" lon="8.53457"><ele>281.0</ele><time>2026-04-19T12:29:26.467Z</time></trkpt><trkpt lat="40.5844283" lon="8.5346467"><ele>281.0</ele><time>2026-04-19T12:29:27.467Z</time></trkpt><trkpt lat="40.5845083" lon="8.5347367"><ele>281.0</ele><time>2026-04-19T12:29:28.467Z</time></trkpt><trkpt lat="40.5845967" lon="8.534835"><ele>283.0</ele><time>2026-04-19T12:29:29.467Z</time></trkpt><trkpt lat="40.584695" lon="8.5349417"><ele>285.0</ele><time>2026-04-19T12:29:30.466Z</time></trkpt><trkpt lat="40.5847983" lon="8.5350583"><ele>287.0</ele><time>2026-04-19T12:29:31.466Z</time></trkpt><trkpt lat="40.5849033" lon="8.5351917"><ele>289.0</ele><time>2026-04-19T12:29:32.466Z</time></trkpt><trkpt lat="40.5850167" lon="8.5353233"><ele>290.25</ele><time>2026-04-19T12:29:33.467Z</time></trkpt><trkpt lat="40.5851283" lon="8.5354667"><ele>291.5</ele><time>2026-04-19T12:29:34.466Z</time></trkpt><trkpt lat="40.5852317" lon="8.5356083"><ele>292.75</ele><time>2026-04-19T12:29:35.466Z</time></trkpt><trkpt lat="40.585325" lon="8.5357383"><ele>294.0</ele><time>2026-04-19T12:29:36.467Z</time></trkpt><trkpt lat="40.585415" lon="8.535865"><ele>296.5</ele><time>2026-04-19T12:29:37.466Z</time></trkpt><trkpt lat="40.5854933" lon="8.535985"><ele>299.0</ele><time>2026-04-19T12:29:38.467Z</time></trkpt><trkpt lat="40.5855583" lon="8.5361167"><ele>301.5</ele><time>2026-04-19T12:29:39.467Z</time></trkpt><trkpt lat="40.585605" lon="8.53628"><ele>304.0</ele><time>2026-04-19T12:29:40.466Z</time></trkpt><trkpt lat="40.5856483" lon="8.536455"><ele>304.25</ele><time>2026-04-19T12:29:41.466Z</time></trkpt><trkpt lat="40.5856833" lon="8.53663"><ele>304.5</ele><time>2026-04-19T12:29:42.466Z</time></trkpt><trkpt lat="40.58572" lon="8.536825"><ele>304.75</ele><time>2026-04-19T12:29:43.466Z</time></trkpt><trkpt lat="40.5857583" lon="8.5370183"><ele>305.0</ele><time>2026-04-19T12:29:44.466Z</time></trkpt><trkpt lat="40.5857967" lon="8.53722"><ele>306.0</ele><time>2026-04-19T12:29:45.466Z</time></trkpt><trkpt lat="40.5858333" lon="8.5374333"><ele>307.0</ele><time>2026-04-19T12:29:46.467Z</time></trkpt><trkpt lat="40.58586" lon="8.5376367"><ele>308.0</ele><time>2026-04-19T12:29:47.467Z</time></trkpt><trkpt lat="40.5858783" lon="8.5378367"><ele>309.5</ele><time>2026-04-19T12:29:48.466Z</time></trkpt><trkpt lat="40.5858917" lon="8.5380317"><ele>311.0</ele><time>2026-04-19T12:29:49.467Z</time></trkpt><trkpt lat="40.585895" lon="8.538225"><ele>312.5</ele><time>2026-04-19T12:29:50.467Z</time></trkpt><trkpt lat="40.5859017" lon="8.5384083"><ele>314.0</ele><time>2026-04-19T12:29:51.466Z</time></trkpt><trkpt lat="40.5859067" lon="8.5385917"><ele>314.75</ele><time>2026-04-19T12:29:52.467Z</time></trkpt><trkpt lat="40.5859067" lon="8.538765"><ele>315.5</ele><time>2026-04-19T12:29:53.466Z</time></trkpt><trkpt lat="40.5859083" lon="8.5389317"><ele>316.25</ele><time>2026-04-19T12:29:54.466Z</time></trkpt><trkpt lat="40.5858983" lon="8.53909"><ele>317.0</ele><time>2026-04-19T12:29:55.466Z</time></trkpt><trkpt lat="40.5858833" lon="8.53925"><ele>317.0</ele><time>2026-04-19T12:29:56.467Z</time></trkpt><trkpt lat="40.585865" lon="8.5394167"><ele>317.0</ele><time>2026-04-19T12:29:57.467Z</time></trkpt><trkpt lat="40.5858433" lon="8.5395967"><ele>317.0</ele><time>2026-04-19T12:29:58.467Z</time></trkpt><trkpt lat="40.585825" lon="8.5397767"><ele>317.0</ele><time>2026-04-19T12:29:59.466Z</time></trkpt><trkpt lat="40.585805" lon="8.5399383"><ele>315.6</ele><time>2026-04-19T12:30:00.466Z</time></trkpt><trkpt lat="40.5857783" lon="8.5400917"><ele>314.2</ele><time>2026-04-19T12:30:01.467Z</time></trkpt><trkpt lat="40.5857617" lon="8.5402217"><ele>312.8</ele><time>2026-04-19T12:30:02.467Z</time></trkpt><trkpt lat="40.5857467" lon="8.5403467"><ele>311.4</ele><time>2026-04-19T12:30:03.467Z</time></trkpt><trkpt lat="40.5857283" lon="8.5404483"><ele>310.0</ele><time>2026-04-19T12:30:04.467Z</time></trkpt><trkpt lat="40.58571" lon="8.5405317"><ele>309.6</ele><time>2026-04-19T12:30:05.466Z</time></trkpt><trkpt lat="40.58569" lon="8.54064"><ele>309.2</ele><time>2026-04-19T12:30:06.466Z</time></trkpt><trkpt lat="40.585665" lon="8.5407617"><ele>308.8</ele><time>2026-04-19T12:30:07.466Z</time></trkpt><trkpt lat="40.5856367" lon="8.5409017"><ele>308.4</ele><time>2026-04-19T12:30:08.466Z</time></trkpt><trkpt lat="40.5855983" lon="8.54105"><ele>308.0</ele><time>2026-04-19T12:30:09.467Z</time></trkpt><trkpt lat="40.5855583" lon="8.5412167"><ele>308.0</ele><time>2026-04-19T12:30:10.467Z</time></trkpt><trkpt lat="40.585535" lon="8.54138"><ele>308.0</ele><time>2026-04-19T12:30:11.467Z</time></trkpt><trkpt lat="40.5855183" lon="8.54155"><ele>308.0</ele><time>2026-04-19T12:30:12.467Z</time></trkpt><trkpt lat="40.5855117" lon="8.541725"><ele>308.0</ele><time>2026-04-19T12:30:13.467Z</time></trkpt><trkpt lat="40.5855067" lon="8.5418717"><ele>308.0</ele><time>2026-04-19T12:30:14.466Z</time></trkpt><trkpt lat="40.5855017" lon="8.5419983"><ele>308.0</ele><time>2026-04-19T12:30:15.466Z</time></trkpt><trkpt lat="40.5855017" lon="8.542115"><ele>308.0</ele><time>2026-04-19T12:30:16.466Z</time></trkpt><trkpt lat="40.5855317" lon="8.5422083"><ele>308.0</ele><time>2026-04-19T12:30:17.467Z</time></trkpt><trkpt lat="40.5855783" lon="8.542285"><ele>308.0</ele><time>2026-04-19T12:30:18.466Z</time></trkpt><trkpt lat="40.58567" lon="8.54233"><ele>308.0</ele><time>2026-04-19T12:30:19.466Z</time></trkpt><trkpt lat="40.5857833" lon="8.5423617"><ele>307.5</ele><time>2026-04-19T12:30:20.466Z</time></trkpt><trkpt lat="40.5858933" lon="8.5424083"><ele>307.0</ele><time>2026-04-19T12:30:21.466Z</time></trkpt><trkpt lat="40.5860017" lon="8.5424733"><ele>306.5</ele><time>2026-04-19T12:30:22.466Z</time></trkpt><trkpt lat="40.5861017" lon="8.542565"><ele>306.0</ele><time>2026-04-19T12:30:23.466Z</time></trkpt><trkpt lat="40.5861967" lon="8.542685"><ele>306.0</ele><time>2026-04-19T12:30:24.466Z</time></trkpt><trkpt lat="40.5862833" lon="8.5428333"><ele>306.0</ele><time>2026-04-19T12:30:25.467Z</time></trkpt><trkpt lat="40.5863717" lon="8.5430017"><ele>306.0</ele><time>2026-04-19T12:30:26.467Z</time></trkpt><trkpt lat="40.586465" lon="8.5431867"><ele>311.0</ele><time>2026-04-19T12:30:27.466Z</time></trkpt><trkpt lat="40.586555" lon="8.54338"><ele>316.0</ele><time>2026-04-19T12:30:28.466Z</time></trkpt><trkpt lat="40.5866467" lon="8.54358"><ele>321.0</ele><time>2026-04-19T12:30:29.466Z</time></trkpt><trkpt lat="40.586745" lon="8.5437817"><ele>322.6666666666667</ele><time>2026-04-19T12:30:30.466Z</time></trkpt><trkpt lat="40.5868483" lon="8.543975"><ele>324.33333333333337</ele><time>2026-04-19T12:30:31.466Z</time></trkpt><trkpt lat="40.5869467" lon="8.544155"><ele>326.0</ele><time>2026-04-19T12:30:32.466Z</time></trkpt><trkpt lat="40.5870333" lon="8.5443333"><ele>326.0</ele><time>2026-04-19T12:30:33.467Z</time></trkpt><trkpt lat="40.5871117" lon="8.5444983"><ele>326.0</ele><time>2026-04-19T12:30:34.466Z</time></trkpt><trkpt lat="40.58718" lon="8.5446667"><ele>326.0</ele><time>2026-04-19T12:30:35.467Z</time></trkpt><trkpt lat="40.58723" lon="8.5448417"><ele>326.0</ele><time>2026-04-19T12:30:36.467Z</time></trkpt><trkpt lat="40.5872667" lon="8.5450333"><ele>327.33333333333337</ele><time>2026-04-19T12:30:37.466Z</time></trkpt><trkpt lat="40.5872867" lon="8.5452333"><ele>328.6666666666667</ele><time>2026-04-19T12:30:38.465Z</time></trkpt><trkpt lat="40.58731" lon="8.5454433"><ele>330.0</ele><time>2026-04-19T12:30:39.466Z</time></trkpt><trkpt lat="40.5873267" lon="8.5456283"><ele>331.5</ele><time>2026-04-19T12:30:40.465Z</time></trkpt><trkpt lat="40.5873467" lon="8.54581"><ele>333.0</ele><time>2026-04-19T12:30:41.465Z</time></trkpt><trkpt lat="40.5873867" lon="8.545975"><ele>334.5</ele><time>2026-04-19T12:30:42.465Z</time></trkpt><trkpt lat="40.58746" lon="8.546135"><ele>336.0</ele><time>2026-04-19T12:30:43.465Z</time></trkpt><trkpt lat="40.5875417" lon="8.546295"><ele>336.75</ele><time>2026-04-19T12:30:44.465Z</time></trkpt><trkpt lat="40.58761" lon="8.546445"><ele>337.5</ele><time>2026-04-19T12:30:45.466Z</time></trkpt><trkpt lat="40.58767" lon="8.546585"><ele>338.25</ele><time>2026-04-19T12:30:46.465Z</time></trkpt><trkpt lat="40.5876967" lon="8.54671"><ele>339.0</ele><time>2026-04-19T12:30:47.465Z</time></trkpt><trkpt lat="40.5876933" lon="8.5468567"><ele>339.0</ele><time>2026-04-19T12:30:48.465Z</time></trkpt><trkpt lat="40.5876667" lon="8.5469983"><ele>339.0</ele><time>2026-04-19T12:30:49.465Z</time></trkpt><trkpt lat="40.5876267" lon="8.5471567"><ele>339.0</ele><time>2026-04-19T12:30:50.465Z</time></trkpt><trkpt lat="40.5875883" lon="8.5473267"><ele>339.0</ele><time>2026-04-19T12:30:51.465Z</time></trkpt><trkpt lat="40.58755" lon="8.5475083"><ele>341.3333333333333</ele><time>2026-04-19T12:30:52.466Z</time></trkpt><trkpt lat="40.5875017" lon="8.5476983"><ele>343.66666666666663</ele><time>2026-04-19T12:30:53.466Z</time></trkpt><trkpt lat="40.5874533" lon="8.5478967"><ele>346.0</ele><time>2026-04-19T12:30:54.466Z</time></trkpt><trkpt lat="40.587395" lon="8.5481033"><ele>347.3333333333333</ele><time>2026-04-19T12:30:55.466Z</time></trkpt><trkpt lat="40.587345" lon="8.5482983"><ele>348.6666666666667</ele><time>2026-04-19T12:30:56.466Z</time></trkpt><trkpt lat="40.5872917" lon="8.5484933"><ele>350.0</ele><time>2026-04-19T12:30:57.466Z</time></trkpt><trkpt lat="40.5872517" lon="8.5486967"><ele>350.6666666666667</ele><time>2026-04-19T12:30:58.465Z</time></trkpt><trkpt lat="40.5872083" lon="8.5489067"><ele>351.3333333333333</ele><time>2026-04-19T12:30:59.466Z</time></trkpt><trkpt lat="40.5871617" lon="8.5491167"><ele>352.0</ele><time>2026-04-19T12:31:00.466Z</time></trkpt><trkpt lat="40.5871067" lon="8.5493317"><ele>350.3333333333333</ele><time>2026-04-19T12:31:01.465Z</time></trkpt><trkpt lat="40.587045" lon="8.5495517"><ele>348.6666666666667</ele><time>2026-04-19T12:31:02.465Z</time></trkpt><trkpt lat="40.5869783" lon="8.549745"><ele>347.0</ele><time>2026-04-19T12:31:03.465Z</time></trkpt><trkpt lat="40.5869133" lon="8.54994"><ele>352.33333333333337</ele><time>2026-04-19T12:31:04.465Z</time></trkpt><trkpt lat="40.5868717" lon="8.55014"><ele>357.6666666666667</ele><time>2026-04-19T12:31:05.465Z</time></trkpt><trkpt lat="40.58685" lon="8.5503467"><ele>363.0</ele><time>2026-04-19T12:31:06.465Z</time></trkpt><trkpt lat="40.5868467" lon="8.55056"><ele>363.25</ele><time>2026-04-19T12:31:07.465Z</time></trkpt><trkpt lat="40.5868567" lon="8.550755"><ele>363.5</ele><time>2026-04-19T12:31:08.466Z</time></trkpt><trkpt lat="40.58686" lon="8.5509367"><ele>363.75</ele><time>2026-04-19T12:31:09.465Z</time></trkpt><trkpt lat="40.586865" lon="8.5511117"><ele>364.0</ele><time>2026-04-19T12:31:10.465Z</time></trkpt><trkpt lat="40.5868667" lon="8.55129"><ele>365.5</ele><time>2026-04-19T12:31:11.466Z</time></trkpt><trkpt lat="40.586855" lon="8.551475"><ele>367.0</ele><time>2026-04-19T12:31:12.466Z</time></trkpt><trkpt lat="40.5868383" lon="8.5516617"><ele>368.5</ele><time>2026-04-19T12:31:13.465Z</time></trkpt><trkpt lat="40.586815" lon="8.5518517"><ele>370.0</ele><time>2026-04-19T12:31:14.465Z</time></trkpt><trkpt lat="40.5867817" lon="8.552025"><ele>369.5</ele><time>2026-04-19T12:31:15.465Z</time></trkpt><trkpt lat="40.5867433" lon="8.5522017"><ele>369.0</ele><time>2026-04-19T12:31:16.465Z</time></trkpt><trkpt lat="40.586695" lon="8.5523783"><ele>368.5</ele><time>2026-04-19T12:31:17.465Z</time></trkpt><trkpt lat="40.5866383" lon="8.5525667"><ele>368.0</ele><time>2026-04-19T12:31:18.465Z</time></trkpt><trkpt lat="40.5865633" lon="8.55273"><ele>365.0</ele><time>2026-04-19T12:31:19.466Z</time></trkpt><trkpt lat="40.586475" lon="8.5528983"><ele>362.0</ele><time>2026-04-19T12:31:20.466Z</time></trkpt><trkpt lat="40.5863917" lon="8.553055"><ele>359.0</ele><time>2026-04-19T12:31:21.465Z</time></trkpt><trkpt lat="40.5863033" lon="8.553205"><ele>356.0</ele><time>2026-04-19T12:31:22.466Z</time></trkpt><trkpt lat="40.5862217" lon="8.5533583"><ele>358.25</ele><time>2026-04-19T12:31:23.466Z</time></trkpt><trkpt lat="40.5861417" lon="8.55352"><ele>360.5</ele><time>2026-04-19T12:31:24.465Z</time></trkpt><trkpt lat="40.5860717" lon="8.5536883"><ele>362.75</ele><time>2026-04-19T12:31:25.465Z</time></trkpt><trkpt lat="40.585995" lon="8.5538617"><ele>365.0</ele><time>2026-04-19T12:31:26.465Z</time></trkpt><trkpt lat="40.5859133" lon="8.5540317"><ele>365.0</ele><time>2026-04-19T12:31:27.465Z</time></trkpt><trkpt lat="40.5858167" lon="8.5542033"><ele>365.0</ele><time>2026-04-19T12:31:28.465Z</time></trkpt><trkpt lat="40.5857117" lon="8.5543567"><ele>365.0</ele><time>2026-04-19T12:31:29.465Z</time></trkpt><trkpt lat="40.58562" lon="8.554505"><ele>366.75</ele><time>2026-04-19T12:31:30.465Z</time></trkpt><trkpt lat="40.5855383" lon="8.5546717"><ele>368.5</ele><time>2026-04-19T12:31:31.466Z</time></trkpt><trkpt lat="40.58546" lon="8.5548383"><ele>370.25</ele><time>2026-04-19T12:31:32.465Z</time></trkpt><trkpt lat="40.5853833" lon="8.5550017"><ele>372.0</ele><time>2026-04-19T12:31:33.466Z</time></trkpt><trkpt lat="40.5853133" lon="8.5551617"><ele>372.0</ele><time>2026-04-19T12:31:34.465Z</time></trkpt><trkpt lat="40.58525" lon="8.5553217"><ele>372.0</ele><time>2026-04-19T12:31:35.466Z</time></trkpt><trkpt lat="40.5851883" lon="8.5554883"><ele>372.0</ele><time>2026-04-19T12:31:36.465Z</time></trkpt><trkpt lat="40.5851417" lon="8.5556633"><ele>372.0</ele><time>2026-04-19T12:31:37.466Z</time></trkpt><trkpt lat="40.5851133" lon="8.5558283"><ele>371.0</ele><time>2026-04-19T12:31:38.466Z</time></trkpt><trkpt lat="40.585095" lon="8.5559933"><ele>370.0</ele><time>2026-04-19T12:31:39.466Z</time></trkpt><trkpt lat="40.5850767" lon="8.5561433"><ele>369.0</ele><time>2026-04-19T12:31:40.465Z</time></trkpt><trkpt lat="40.5850517" lon="8.55629"><ele>368.0</ele><time>2026-04-19T12:31:41.466Z</time></trkpt><trkpt lat="40.5850133" lon="8.55645"><ele>366.0</ele><time>2026-04-19T12:31:42.466Z</time></trkpt><trkpt lat="40.5849567" lon="8.5566"><ele>364.0</ele><time>2026-04-19T12:31:43.465Z</time></trkpt><trkpt lat="40.5848917" lon="8.55673"><ele>362.0</ele><time>2026-04-19T12:31:44.466Z</time></trkpt><trkpt lat="40.584795" lon="8.5568533"><ele>360.0</ele><time>2026-04-19T12:31:45.465Z</time></trkpt><trkpt lat="40.5846933" lon="8.5569667"><ele>360.5</ele><time>2026-04-19T12:31:46.466Z</time></trkpt><trkpt lat="40.5845933" lon="8.5570717"><ele>361.0</ele><time>2026-04-19T12:31:47.465Z</time></trkpt><trkpt lat="40.5845067" lon="8.5571817"><ele>361.5</ele><time>2026-04-19T12:31:48.465Z</time></trkpt><trkpt lat="40.584425" lon="8.5572983"><ele>362.0</ele><time>2026-04-19T12:31:49.465Z</time></trkpt><trkpt lat="40.584345" lon="8.5574317"><ele>362.0</ele><time>2026-04-19T12:31:50.465Z</time></trkpt><trkpt lat="40.584265" lon="8.5575617"><ele>362.0</ele><time>2026-04-19T12:31:51.466Z</time></trkpt><trkpt lat="40.5841867" lon="8.5576867"><ele>362.0</ele><time>2026-04-19T12:31:52.466Z</time></trkpt><trkpt lat="40.58411" lon="8.5577967"><ele>362.0</ele><time>2026-04-19T12:31:53.466Z</time></trkpt><trkpt lat="40.5840383" lon="8.557905"><ele>359.6</ele><time>2026-04-19T12:31:54.465Z</time></trkpt><trkpt lat="40.5839783" lon="8.5580183"><ele>357.20000000000005</ele><time>2026-04-19T12:31:55.465Z</time></trkpt><trkpt lat="40.5839533" lon="8.5581483"><ele>354.8</ele><time>2026-04-19T12:31:56.465Z</time></trkpt><trkpt lat="40.58395" lon="8.55829"><ele>352.4</ele><time>2026-04-19T12:31:57.466Z</time></trkpt><trkpt lat="40.5839667" lon="8.558435"><ele>350.0</ele><time>2026-04-19T12:31:58.465Z</time></trkpt><trkpt lat="40.583995" lon="8.558575"><ele>350.0</ele><time>2026-04-19T12:31:59.465Z</time></trkpt><trkpt lat="40.5840233" lon="8.5586883"><ele>350.0</ele><time>2026-04-19T12:32:00.465Z</time></trkpt><trkpt lat="40.5840617" lon="8.5587867"><ele>350.0</ele><time>2026-04-19T12:32:01.466Z</time></trkpt><trkpt lat="40.5841033" lon="8.5588783"><ele>350.0</ele><time>2026-04-19T12:32:02.466Z</time></trkpt><trkpt lat="40.5841567" lon="8.5589667"><ele>350.0</ele><time>2026-04-19T12:32:03.466Z</time></trkpt><trkpt lat="40.5842233" lon="8.5590417"><ele>350.0</ele><time>2026-04-19T12:32:04.465Z</time></trkpt><trkpt lat="40.5843033" lon="8.5591067"><ele>349.6666666666667</ele><time>2026-04-19T12:32:05.466Z</time></trkpt><trkpt lat="40.5843817" lon="8.5591583"><ele>349.33333333333337</ele><time>2026-04-19T12:32:06.466Z</time></trkpt><trkpt lat="40.5844583" lon="8.5592017"><ele>349.0</ele><time>2026-04-19T12:32:07.466Z</time></trkpt><trkpt lat="40.5845317" lon="8.55923"><ele>348.6666666666667</ele><time>2026-04-19T12:32:08.465Z</time></trkpt><trkpt lat="40.58461" lon="8.55922"><ele>348.3333333333333</ele><time>2026-04-19T12:32:09.465Z</time></trkpt><trkpt lat="40.5846733" lon="8.5591683"><ele>348.0</ele><time>2026-04-19T12:32:10.466Z</time></trkpt><trkpt lat="40.584725" lon="8.5590867"><ele>349.6666666666667</ele><time>2026-04-19T12:32:11.466Z</time></trkpt><trkpt lat="40.5847583" lon="8.5589833"><ele>351.3333333333333</ele><time>2026-04-19T12:32:12.465Z</time></trkpt><trkpt lat="40.5847967" lon="8.5588867"><ele>353.0</ele><time>2026-04-19T12:32:13.465Z</time></trkpt><trkpt lat="40.5848533" lon="8.5588083"><ele>354.66666666666663</ele><time>2026-04-19T12:32:14.466Z</time></trkpt><trkpt lat="40.5849283" lon="8.5587567"><ele>356.3333333333333</ele><time>2026-04-19T12:32:15.465Z</time></trkpt><trkpt lat="40.5850183" lon="8.5587567"><ele>358.0</ele><time>2026-04-19T12:32:16.465Z</time></trkpt><trkpt lat="40.5851067" lon="8.5587883"><ele>358.0</ele><time>2026-04-19T12:32:17.465Z</time></trkpt><trkpt lat="40.5852083" lon="8.5588317"><ele>358.0</ele><time>2026-04-19T12:32:18.465Z</time></trkpt><trkpt lat="40.5853233" lon="8.558865"><ele>358.0</ele><time>2026-04-19T12:32:19.465Z</time></trkpt><trkpt lat="40.5854467" lon="8.55889"><ele>358.0</ele><time>2026-04-19T12:32:20.465Z</time></trkpt><trkpt lat="40.585585" lon="8.5589133"><ele>360.5</ele><time>2026-04-19T12:32:21.465Z</time></trkpt><trkpt lat="40.58572" lon="8.5589383"><ele>363.0</ele><time>2026-04-19T12:32:22.466Z</time></trkpt><trkpt lat="40.5858383" lon="8.5589833"><ele>365.5</ele><time>2026-04-19T12:32:23.465Z</time></trkpt><trkpt lat="40.5859517" lon="8.5590517"><ele>368.0</ele><time>2026-04-19T12:32:24.465Z</time></trkpt><trkpt lat="40.58605" lon="8.55915"><ele>368.0</ele><time>2026-04-19T12:32:25.465Z</time></trkpt><trkpt lat="40.5861383" lon="8.55927"><ele>368.0</ele><time>2026-04-19T12:32:26.466Z</time></trkpt><trkpt lat="40.5862233" lon="8.5594033"><ele>368.0</ele><time>2026-04-19T12:32:27.466Z</time></trkpt><trkpt lat="40.5863117" lon="8.5595517"><ele>368.0</ele><time>2026-04-19T12:32:28.465Z</time></trkpt><trkpt lat="40.5863983" lon="8.5597117"><ele>372.33333333333337</ele><time>2026-04-19T12:32:29.466Z</time></trkpt><trkpt lat="40.5864833" lon="8.5598783"><ele>376.6666666666667</ele><time>2026-04-19T12:32:30.465Z</time></trkpt><trkpt lat="40.5865683" lon="8.5600533"><ele>381.0</ele><time>2026-04-19T12:32:31.465Z</time></trkpt><trkpt lat="40.5866533" lon="8.5602367"><ele>383.33333333333337</ele><time>2026-04-19T12:32:32.466Z</time></trkpt><trkpt lat="40.5867467" lon="8.56042"><ele>385.6666666666667</ele><time>2026-04-19T12:32:33.465Z</time></trkpt><trkpt lat="40.5868433" lon="8.5606083"><ele>388.0</ele><time>2026-04-19T12:32:34.465Z</time></trkpt><trkpt lat="40.5869383" lon="8.5607933"><ele>389.33333333333337</ele><time>2026-04-19T12:32:35.465Z</time></trkpt><trkpt lat="40.58703" lon="8.5609833"><ele>390.66666666666663</ele><time>2026-04-19T12:32:36.466Z</time></trkpt><trkpt lat="40.5871233" lon="8.561165"><ele>392.0</ele><time>2026-04-19T12:32:37.466Z</time></trkpt><trkpt lat="40.58721" lon="8.5613433"><ele>395.3333333333333</ele><time>2026-04-19T12:32:38.465Z</time></trkpt><trkpt lat="40.587305" lon="8.561515"><ele>398.66666666666663</ele><time>2026-04-19T12:32:39.466Z</time></trkpt><trkpt lat="40.587415" lon="8.56168"><ele>402.0</ele><time>2026-04-19T12:32:40.466Z</time></trkpt><trkpt lat="40.5875167" lon="8.5618367"><ele>402.0</ele><time>2026-04-19T12:32:41.466Z</time></trkpt><trkpt lat="40.5876017" lon="8.5619817"><ele>402.0</ele><time>2026-04-19T12:32:42.465Z</time></trkpt><trkpt lat="40.5876967" lon="8.56211"><ele>402.0</ele><time>2026-04-19T12:32:43.465Z</time></trkpt><trkpt lat="40.5878167" lon="8.56221"><ele>402.0</ele><time>2026-04-19T12:32:44.466Z</time></trkpt><trkpt lat="40.5879467" lon="8.562305"><ele>404.5</ele><time>2026-04-19T12:32:45.466Z</time></trkpt><trkpt lat="40.5880617" lon="8.5624067"><ele>407.0</ele><time>2026-04-19T12:32:46.466Z</time></trkpt><trkpt lat="40.588155" lon="8.56251"><ele>409.5</ele><time>2026-04-19T12:32:47.466Z</time></trkpt><trkpt lat="40.5882267" lon="8.562605"><ele>412.0</ele><time>2026-04-19T12:32:48.466Z</time></trkpt><trkpt lat="40.5882967" lon="8.5627017"><ele>412.0</ele><time>2026-04-19T12:32:49.465Z</time></trkpt><trkpt lat="40.58837" lon="8.5627983"><ele>412.0</ele><time>2026-04-19T12:32:50.466Z</time></trkpt><trkpt lat="40.58844" lon="8.5629083"><ele>412.0</ele><time>2026-04-19T12:32:51.465Z</time></trkpt><trkpt lat="40.588495" lon="8.5630417"><ele>412.0</ele><time>2026-04-19T12:32:52.466Z</time></trkpt><trkpt lat="40.5885367" lon="8.56319"><ele>412.0</ele><time>2026-04-19T12:32:53.466Z</time></trkpt><trkpt lat="40.5885483" lon="8.5633367"><ele>411.6</ele><time>2026-04-19T12:32:54.465Z</time></trkpt><trkpt lat="40.588545" lon="8.5634783"><ele>411.20000000000005</ele><time>2026-04-19T12:32:55.466Z</time></trkpt><trkpt lat="40.58853" lon="8.563605"><ele>410.8</ele><time>2026-04-19T12:32:56.465Z</time></trkpt><trkpt lat="40.5885133" lon="8.5637217"><ele>410.4</ele><time>2026-04-19T12:32:57.465Z</time></trkpt><trkpt lat="40.588485" lon="8.5638283"><ele>410.0</ele><time>2026-04-19T12:32:58.465Z</time></trkpt><trkpt lat="40.58846" lon="8.5639167"><ele>409.99999999999994</ele><time>2026-04-19T12:32:59.465Z</time></trkpt><trkpt lat="40.5884283" lon="8.5640283"><ele>410.0</ele><time>2026-04-19T12:33:01.466Z</time></trkpt><trkpt lat="40.5884133" lon="8.5641133"><ele>410.0</ele><time>2026-04-19T12:33:03.465Z</time></trkpt><trkpt lat="40.58844" lon="8.5642083"><ele>410.0</ele><time>2026-04-19T12:33:05.466Z</time></trkpt><trkpt lat="40.5885433" lon="8.56424"><ele>409.99999999999994</ele><time>2026-04-19T12:33:07.466Z</time></trkpt><trkpt lat="40.58862" lon="8.5642333"><ele>410.0</ele><time>2026-04-19T12:33:08.466Z</time></trkpt><trkpt lat="40.5887033" lon="8.564225"><ele>409.4</ele><time>2026-04-19T12:33:09.466Z</time></trkpt><trkpt lat="40.588795" lon="8.564225"><ele>408.8</ele><time>2026-04-19T12:33:10.465Z</time></trkpt><trkpt lat="40.5888867" lon="8.564225"><ele>408.20000000000005</ele><time>2026-04-19T12:33:11.466Z</time></trkpt><trkpt lat="40.5889817" lon="8.5642233"><ele>407.6</ele><time>2026-04-19T12:33:12.466Z</time></trkpt><trkpt lat="40.5890767" lon="8.56422"><ele>407.0</ele><time>2026-04-19T12:33:13.465Z</time></trkpt><trkpt lat="40.5891767" lon="8.564215"><ele>407.0</ele><time>2026-04-19T12:33:14.465Z</time></trkpt><trkpt lat="40.5892767" lon="8.564205"><ele>407.0</ele><time>2026-04-19T12:33:15.465Z</time></trkpt><trkpt lat="40.5893833" lon="8.5641917"><ele>407.0</ele><time>2026-04-19T12:33:16.465Z</time></trkpt><trkpt lat="40.58948" lon="8.56418"><ele>407.0</ele><time>2026-04-19T12:33:17.465Z</time></trkpt><trkpt lat="40.5895733" lon="8.564175"><ele>407.0</ele><time>2026-04-19T12:33:18.465Z</time></trkpt><trkpt lat="40.5896733" lon="8.5641767"><ele>408.20000000000005</ele><time>2026-04-19T12:33:19.466Z</time></trkpt><trkpt lat="40.589765" lon="8.5641783"><ele>409.4</ele><time>2026-04-19T12:33:20.466Z</time></trkpt><trkpt lat="40.589865" lon="8.564175"><ele>410.6</ele><time>2026-04-19T12:33:21.465Z</time></trkpt><trkpt lat="40.5899583" lon="8.5641783"><ele>411.79999999999995</ele><time>2026-04-19T12:33:22.466Z</time></trkpt><trkpt lat="40.5900467" lon="8.5641783"><ele>413.0</ele><time>2026-04-19T12:33:23.465Z</time></trkpt><trkpt lat="40.590145" lon="8.5641783"><ele>413.0</ele><time>2026-04-19T12:33:24.465Z</time></trkpt><trkpt lat="40.5902467" lon="8.564185"><ele>413.0</ele><time>2026-04-19T12:33:25.465Z</time></trkpt><trkpt lat="40.5903467" lon="8.5642033"><ele>413.0</ele><time>2026-04-19T12:33:26.465Z</time></trkpt><trkpt lat="40.5904467" lon="8.56423"><ele>413.0</ele><time>2026-04-19T12:33:27.465Z</time></trkpt><trkpt lat="40.5905333" lon="8.56427"><ele>413.0</ele><time>2026-04-19T12:33:28.465Z</time></trkpt><trkpt lat="40.5906267" lon="8.564315"><ele>413.3333333333333</ele><time>2026-04-19T12:33:29.466Z</time></trkpt><trkpt lat="40.5907133" lon="8.5643583"><ele>413.66666666666663</ele><time>2026-04-19T12:33:30.465Z</time></trkpt><trkpt lat="40.5907933" lon="8.5644017"><ele>414.0</ele><time>2026-04-19T12:33:31.466Z</time></trkpt><trkpt lat="40.590865" lon="8.5644417"><ele>414.33333333333337</ele><time>2026-04-19T12:33:32.465Z</time></trkpt><trkpt lat="40.5909283" lon="8.5644833"><ele>414.6666666666667</ele><time>2026-04-19T12:33:33.466Z</time></trkpt><trkpt lat="40.5910233" lon="8.5645467"><ele>415.0</ele><time>2026-04-19T12:33:35.465Z</time></trkpt><trkpt lat="40.591095" lon="8.5645783"><ele>415.00000000000006</ele><time>2026-04-19T12:33:38.466Z</time></trkpt><trkpt lat="40.5911617" lon="8.564545"><ele>415.0</ele><time>2026-04-19T12:33:41.466Z</time></trkpt><trkpt lat="40.5912133" lon="8.5643967"><ele>415.0</ele><time>2026-04-19T12:33:43.465Z</time></trkpt><trkpt lat="40.5912467" lon="8.564305"><ele>415.0</ele><time>2026-04-19T12:33:44.465Z</time></trkpt><trkpt lat="40.5912683" lon="8.5642"><ele>415.00000000000006</ele><time>2026-04-19T12:33:45.465Z</time></trkpt><trkpt lat="40.5913" lon="8.56409"><ele>415.0</ele><time>2026-04-19T12:33:46.466Z</time></trkpt><trkpt lat="40.59134" lon="8.5639783"><ele>414.8</ele><time>2026-04-19T12:33:47.466Z</time></trkpt><trkpt lat="40.5913833" lon="8.5638567"><ele>414.6</ele><time>2026-04-19T12:33:48.466Z</time></trkpt><trkpt lat="40.5914233" lon="8.5637333"><ele>414.4</ele><time>2026-04-19T12:33:49.465Z</time></trkpt><trkpt lat="40.591475" lon="8.5636117"><ele>414.2</ele><time>2026-04-19T12:33:50.466Z</time></trkpt><trkpt lat="40.591535" lon="8.5634867"><ele>414.0</ele><time>2026-04-19T12:33:51.465Z</time></trkpt><trkpt lat="40.5915933" lon="8.56336"><ele>415.0</ele><time>2026-04-19T12:33:52.466Z</time></trkpt><trkpt lat="40.5916617" lon="8.5632283"><ele>416.0</ele><time>2026-04-19T12:33:53.466Z</time></trkpt><trkpt lat="40.5917167" lon="8.5630933"><ele>417.0</ele><time>2026-04-19T12:33:54.466Z</time></trkpt><trkpt lat="40.5917917" lon="8.5629767"><ele>418.0</ele><time>2026-04-19T12:33:55.465Z</time></trkpt><trkpt lat="40.5918683" lon="8.5628667"><ele>418.0</ele><time>2026-04-19T12:33:56.465Z</time></trkpt><trkpt lat="40.59194" lon="8.5627583"><ele>418.0</ele><time>2026-04-19T12:33:57.465Z</time></trkpt><trkpt lat="40.5920067" lon="8.562645"><ele>418.0</ele><time>2026-04-19T12:33:58.466Z</time></trkpt><trkpt lat="40.5920683" lon="8.5625333"><ele>418.0</ele><time>2026-04-19T12:33:59.466Z</time></trkpt><trkpt lat="40.5921267" lon="8.562435"><ele>418.0</ele><time>2026-04-19T12:34:00.466Z</time></trkpt><trkpt lat="40.59219" lon="8.5623417"><ele>418.00000000000006</ele><time>2026-04-19T12:34:01.465Z</time></trkpt><trkpt lat="40.5922483" lon="8.5622583"><ele>418.0</ele><time>2026-04-19T12:34:02.466Z</time></trkpt><trkpt lat="40.5922983" lon="8.5621983"><ele>418.0</ele><time>2026-04-19T12:34:03.465Z</time></trkpt><trkpt lat="40.5923733" lon="8.5621717"><ele>418.0</ele><time>2026-04-19T12:34:04.465Z</time></trkpt><trkpt lat="40.5924633" lon="8.56217"><ele>418.00000000000006</ele><time>2026-04-19T12:34:05.465Z</time></trkpt><trkpt lat="40.5925483" lon="8.5621733"><ele>418.0</ele><time>2026-04-19T12:34:06.465Z</time></trkpt><trkpt lat="40.5926167" lon="8.5621933"><ele>418.0</ele><time>2026-04-19T12:34:07.466Z</time></trkpt><trkpt lat="40.5927067" lon="8.56224"><ele>418.0</ele><time>2026-04-19T12:34:09.466Z</time></trkpt><trkpt lat="40.5927533" lon="8.5623083"><ele>418.0</ele><time>2026-04-19T12:34:11.466Z</time></trkpt><trkpt lat="40.592805" lon="8.5623983"><ele>418.0</ele><time>2026-04-19T12:34:13.465Z</time></trkpt><trkpt lat="40.592875" lon="8.562535"><ele>418.0</ele><time>2026-04-19T12:34:15.465Z</time></trkpt><trkpt lat="40.5929217" lon="8.562625"><ele>418.59999999999997</ele><time>2026-04-19T12:34:16.466Z</time></trkpt><trkpt lat="40.5929783" lon="8.562715"><ele>419.2</ele><time>2026-04-19T12:34:17.466Z</time></trkpt><trkpt lat="40.5930367" lon="8.562815"><ele>419.8</ele><time>2026-04-19T12:34:18.465Z</time></trkpt><trkpt lat="40.5931033" lon="8.5629167"><ele>420.4</ele><time>2026-04-19T12:34:19.466Z</time></trkpt><trkpt lat="40.5931667" lon="8.5630167"><ele>421.0</ele><time>2026-04-19T12:34:20.466Z</time></trkpt><trkpt lat="40.5932333" lon="8.5631133"><ele>421.0</ele><time>2026-04-19T12:34:21.465Z</time></trkpt><trkpt lat="40.5932917" lon="8.5632033"><ele>421.0</ele><time>2026-04-19T12:34:22.466Z</time></trkpt><trkpt lat="40.593355" lon="8.5633067"><ele>421.0</ele><time>2026-04-19T12:34:23.465Z</time></trkpt><trkpt lat="40.59343" lon="8.5634217"><ele>421.0</ele><time>2026-04-19T12:34:24.466Z</time></trkpt><trkpt lat="40.593505" lon="8.5635383"><ele>421.0</ele><time>2026-04-19T12:34:25.465Z</time></trkpt><trkpt lat="40.5935767" lon="8.5636583"><ele>421.0</ele><time>2026-04-19T12:34:26.466Z</time></trkpt><trkpt lat="40.5936533" lon="8.5637817"><ele>421.0</ele><time>2026-04-19T12:34:27.466Z</time></trkpt><trkpt lat="40.5937267" lon="8.5639033"><ele>421.0</ele><time>2026-04-19T12:34:28.465Z</time></trkpt><trkpt lat="40.5937967" lon="8.5640367"><ele>421.0</ele><time>2026-04-19T12:34:29.465Z</time></trkpt><trkpt lat="40.5938617" lon="8.5641617"><ele>421.0</ele><time>2026-04-19T12:34:30.465Z</time></trkpt><trkpt lat="40.5939283" lon="8.5642833"><ele>421.0</ele><time>2026-04-19T12:34:31.465Z</time></trkpt><trkpt lat="40.5939817" lon="8.5644167"><ele>421.0</ele><time>2026-04-19T12:34:32.465Z</time></trkpt><trkpt lat="40.594035" lon="8.5645467"><ele>421.0</ele><time>2026-04-19T12:34:33.466Z</time></trkpt><trkpt lat="40.5940833" lon="8.5646683"><ele>421.0</ele><time>2026-04-19T12:34:34.465Z</time></trkpt><trkpt lat="40.5941283" lon="8.5647783"><ele>420.50000000000006</ele><time>2026-04-19T12:34:35.465Z</time></trkpt><trkpt lat="40.5941633" lon="8.5648783"><ele>420.0</ele><time>2026-04-19T12:34:36.466Z</time></trkpt><trkpt lat="40.5941867" lon="8.5649767"><ele>419.5</ele><time>2026-04-19T12:34:37.466Z</time></trkpt><trkpt lat="40.5942083" lon="8.5650567"><ele>419.0</ele><time>2026-04-19T12:34:38.465Z</time></trkpt><trkpt lat="40.5942417" lon="8.5651833"><ele>418.50000000000006</ele><time>2026-04-19T12:34:40.466Z</time></trkpt><trkpt lat="40.5943433" lon="8.5652517"><ele>418.0</ele><time>2026-04-19T12:34:42.465Z</time></trkpt><trkpt lat="40.5944133" lon="8.565285"><ele>418.0</ele><time>2026-04-19T12:34:43.465Z</time></trkpt><trkpt lat="40.5944917" lon="8.5653167"><ele>418.0</ele><time>2026-04-19T12:34:44.466Z</time></trkpt><trkpt lat="40.594585" lon="8.56535"><ele>418.0</ele><time>2026-04-19T12:34:45.465Z</time></trkpt><trkpt lat="40.5946783" lon="8.5653867"><ele>418.0</ele><time>2026-04-19T12:34:46.466Z</time></trkpt><trkpt lat="40.59478" lon="8.5654433"><ele>418.0</ele><time>2026-04-19T12:34:47.465Z</time></trkpt><trkpt lat="40.59488" lon="8.5654683"><ele>417.59999999999997</ele><time>2026-04-19T12:34:48.466Z</time></trkpt><trkpt lat="40.5949767" lon="8.5655267"><ele>417.2</ele><time>2026-04-19T12:34:49.466Z</time></trkpt><trkpt lat="40.5950683" lon="8.5655817"><ele>416.8</ele><time>2026-04-19T12:34:50.466Z</time></trkpt><trkpt lat="40.5951583" lon="8.5656367"><ele>416.4</ele><time>2026-04-19T12:34:51.465Z</time></trkpt><trkpt lat="40.59525" lon="8.5656783"><ele>416.0</ele><time>2026-04-19T12:34:52.465Z</time></trkpt><trkpt lat="40.5953383" lon="8.5657167"><ele>417.6</ele><time>2026-04-19T12:34:53.465Z</time></trkpt><trkpt lat="40.595435" lon="8.5657583"><ele>419.20000000000005</ele><time>2026-04-19T12:34:54.466Z</time></trkpt><trkpt lat="40.595525" lon="8.5657867"><ele>420.79999999999995</ele><time>2026-04-19T12:34:55.465Z</time></trkpt><trkpt lat="40.5956117" lon="8.5658283"><ele>422.4</ele><time>2026-04-19T12:34:56.465Z</time></trkpt><trkpt lat="40.5956933" lon="8.5658733"><ele>424.0</ele><time>2026-04-19T12:34:57.466Z</time></trkpt><trkpt lat="40.5957733" lon="8.5659017"><ele>424.00000000000006</ele><time>2026-04-19T12:34:58.466Z</time></trkpt><trkpt lat="40.5958417" lon="8.5659183"><ele>424.0</ele><time>2026-04-19T12:34:59.466Z</time></trkpt><trkpt lat="40.5959067" lon="8.5659433"><ele>424.0</ele><time>2026-04-19T12:35:00.466Z</time></trkpt><trkpt lat="40.5959917" lon="8.5659717"><ele>424.0</ele><time>2026-04-19T12:35:02.465Z</time></trkpt><trkpt lat="40.596045" lon="8.5660367"><ele>424.00000000000006</ele><time>2026-04-19T12:35:05.466Z</time></trkpt><trkpt lat="40.5960733" lon="8.5661417"><ele>424.0</ele><time>2026-04-19T12:35:07.466Z</time></trkpt><trkpt lat="40.596145" lon="8.5662367"><ele>422.4</ele><time>2026-04-19T12:35:09.465Z</time></trkpt><trkpt lat="40.5962433" lon="8.5663417"><ele>420.79999999999995</ele><time>2026-04-19T12:35:11.466Z</time></trkpt><trkpt lat="40.5963017" lon="8.566395"><ele>419.20000000000005</ele><time>2026-04-19T12:35:12.466Z</time></trkpt><trkpt lat="40.596405" lon="8.566485"><ele>417.6</ele><time>2026-04-19T12:35:14.465Z</time></trkpt><trkpt lat="40.5964767" lon="8.56655"><ele>416.0</ele><time>2026-04-19T12:35:16.465Z</time></trkpt><trkpt lat="40.5965367" lon="8.5665933"><ele>416.0</ele><time>2026-04-19T12:35:18.465Z</time></trkpt><trkpt lat="40.596605" lon="8.5666467"><ele>416.0</ele><time>2026-04-19T12:35:21.465Z</time></trkpt><trkpt lat="40.596675" lon="8.5667167"><ele>416.0</ele><time>2026-04-19T12:35:23.465Z</time></trkpt><trkpt lat="40.59677" lon="8.566825"><ele>416.0</ele><time>2026-04-19T12:35:25.465Z</time></trkpt><trkpt lat="40.59685" lon="8.56687"><ele>416.0</ele><time>2026-04-19T12:35:26.465Z</time></trkpt><trkpt lat="40.5969267" lon="8.56692"><ele>415.99999999999994</ele><time>2026-04-19T12:35:27.466Z</time></trkpt><trkpt lat="40.5969917" lon="8.5669617"><ele>416.0</ele><time>2026-04-19T12:35:28.466Z</time></trkpt><trkpt lat="40.5970483" lon="8.5670117"><ele>416.0</ele><time>2026-04-19T12:35:29.465Z</time></trkpt><trkpt lat="40.597155" lon="8.5670967"><ele>416.0</ele><time>2026-04-19T12:35:31.465Z</time></trkpt><trkpt lat="40.5972233" lon="8.5671733"><ele>415.99999999999994</ele><time>2026-04-19T12:35:33.465Z</time></trkpt><trkpt lat="40.59727" lon="8.5672333"><ele>416.0</ele><time>2026-04-19T12:35:35.465Z</time></trkpt><trkpt lat="40.597325" lon="8.5673083"><ele>416.16666666666663</ele><time>2026-04-19T12:35:39.466Z</time></trkpt><trkpt lat="40.597405" lon="8.56741"><ele>416.3333333333333</ele><time>2026-04-19T12:35:41.465Z</time></trkpt><trkpt lat="40.5974667" lon="8.5674733"><ele>416.5</ele><time>2026-04-19T12:35:42.465Z</time></trkpt><trkpt lat="40.5975233" lon="8.5675567"><ele>416.66666666666663</ele><time>2026-04-19T12:35:43.465Z</time></trkpt><trkpt lat="40.5975917" lon="8.5676167"><ele>416.8333333333333</ele><time>2026-04-19T12:35:44.465Z</time></trkpt><trkpt lat="40.5976533" lon="8.56767"><ele>417.0</ele><time>2026-04-19T12:35:45.466Z</time></trkpt><trkpt lat="40.5977133" lon="8.5677267"><ele>417.0</ele><time>2026-04-19T12:35:46.465Z</time></trkpt><trkpt lat="40.5977783" lon="8.5677967"><ele>417.0</ele><time>2026-04-19T12:35:47.465Z</time></trkpt><trkpt lat="40.597835" lon="8.5678567"><ele>417.0</ele><time>2026-04-19T12:35:48.466Z</time></trkpt><trkpt lat="40.5978917" lon="8.5679267"><ele>417.0</ele><time>2026-04-19T12:35:49.465Z</time></trkpt><trkpt lat="40.5979533" lon="8.5679933"><ele>417.0</ele><time>2026-04-19T12:35:50.465Z</time></trkpt><trkpt lat="40.5979983" lon="8.5680533"><ele>417.0</ele><time>2026-04-19T12:35:51.466Z</time></trkpt><trkpt lat="40.59806" lon="8.5681367"><ele>418.0</ele><time>2026-04-19T12:35:53.465Z</time></trkpt><trkpt lat="40.5981133" lon="8.568185"><ele>419.0</ele><time>2026-04-19T12:35:58.466Z</time></trkpt><trkpt lat="40.5982033" lon="8.5681633"><ele>420.0</ele><time>2026-04-19T12:36:02.465Z</time></trkpt><trkpt lat="40.598285" lon="8.5680717"><ele>421.0</ele><time>2026-04-19T12:36:04.465Z</time></trkpt><trkpt lat="40.5983817" lon="8.5679683"><ele>422.0</ele><time>2026-04-19T12:36:06.466Z</time></trkpt><trkpt lat="40.5984383" lon="8.5679133"><ele>421.99999999999994</ele><time>2026-04-19T12:36:07.465Z</time></trkpt><trkpt lat="40.5985017" lon="8.5678617"><ele>422.0</ele><time>2026-04-19T12:36:08.466Z</time></trkpt><trkpt lat="40.598565" lon="8.5678"><ele>422.0</ele><time>2026-04-19T12:36:09.465Z</time></trkpt><trkpt lat="40.5986317" lon="8.56774"><ele>422.0</ele><time>2026-04-19T12:36:10.466Z</time></trkpt><trkpt lat="40.5987033" lon="8.5676733"><ele>421.99999999999994</ele><time>2026-04-19T12:36:11.465Z</time></trkpt><trkpt lat="40.598775" lon="8.5676117"><ele>422.0</ele><time>2026-04-19T12:36:12.466Z</time></trkpt><trkpt lat="40.59884" lon="8.5675483"><ele>424.20000000000005</ele><time>2026-04-19T12:36:13.466Z</time></trkpt><trkpt lat="40.598955" lon="8.5674817"><ele>426.4</ele><time>2026-04-19T12:36:15.466Z</time></trkpt><trkpt lat="40.5990267" lon="8.5674733"><ele>428.59999999999997</ele><time>2026-04-19T12:36:16.466Z</time></trkpt><trkpt lat="40.5991067" lon="8.5674917"><ele>430.79999999999995</ele><time>2026-04-19T12:36:17.466Z</time></trkpt><trkpt lat="40.5991833" lon="8.56751"><ele>433.0</ele><time>2026-04-19T12:36:18.465Z</time></trkpt><trkpt lat="40.59928" lon="8.5675333"><ele>433.00000000000006</ele><time>2026-04-19T12:36:20.466Z</time></trkpt><trkpt lat="40.5993583" lon="8.567545"><ele>433.0</ele><time>2026-04-19T12:36:23.465Z</time></trkpt><trkpt lat="40.59943" lon="8.567545"><ele>433.0</ele><time>2026-04-19T12:36:25.465Z</time></trkpt><trkpt lat="40.599515" lon="8.5675467"><ele>433.0</ele><time>2026-04-19T12:36:27.465Z</time></trkpt><trkpt lat="40.5996133" lon="8.5675483"><ele>433.00000000000006</ele><time>2026-04-19T12:36:29.465Z</time></trkpt><trkpt lat="40.5996967" lon="8.5675767"><ele>433.0</ele><time>2026-04-19T12:36:31.465Z</time></trkpt><trkpt lat="40.599725" lon="8.567675"><ele>434.6666666666667</ele><time>2026-04-19T12:36:33.466Z</time></trkpt><trkpt lat="40.59972" lon="8.5677833"><ele>436.33333333333337</ele><time>2026-04-19T12:36:34.466Z</time></trkpt><trkpt lat="40.59972" lon="8.56791"><ele>438.0</ele><time>2026-04-19T12:36:35.465Z</time></trkpt><trkpt lat="40.599715" lon="8.5680367"><ele>439.66666666666663</ele><time>2026-04-19T12:36:36.465Z</time></trkpt><trkpt lat="40.5997217" lon="8.568155"><ele>441.3333333333333</ele><time>2026-04-19T12:36:37.465Z</time></trkpt><trkpt lat="40.5997317" lon="8.568245"><ele>443.0</ele><time>2026-04-19T12:36:38.464Z</time></trkpt><trkpt lat="40.599765" lon="8.5683783"><ele>443.49999999999994</ele><time>2026-04-19T12:36:40.464Z</time></trkpt><trkpt lat="40.5998133" lon="8.5685317"><ele>444.0</ele><time>2026-04-19T12:36:42.464Z</time></trkpt><trkpt lat="40.5998617" lon="8.5685967"><ele>444.5</ele><time>2026-04-19T12:36:43.465Z</time></trkpt><trkpt lat="40.5999167" lon="8.568645"><ele>445.0</ele><time>2026-04-19T12:36:44.464Z</time></trkpt><trkpt lat="40.59999" lon="8.5686783"><ele>445.49999999999994</ele><time>2026-04-19T12:36:45.465Z</time></trkpt><trkpt lat="40.6000733" lon="8.5687167"><ele>446.0</ele><time>2026-04-19T12:36:46.465Z</time></trkpt><trkpt lat="40.6001617" lon="8.5687483"><ele>447.25</ele><time>2026-04-19T12:36:47.465Z</time></trkpt><trkpt lat="40.6002717" lon="8.5687683"><ele>448.5</ele><time>2026-04-19T12:36:48.465Z</time></trkpt><trkpt lat="40.6003967" lon="8.5687883"><ele>449.75</ele><time>2026-04-19T12:36:49.465Z</time></trkpt><trkpt lat="40.6005183" lon="8.5688083"><ele>451.0</ele><time>2026-04-19T12:36:50.464Z</time></trkpt><trkpt lat="40.60063" lon="8.5688117"><ele>451.6</ele><time>2026-04-19T12:36:51.464Z</time></trkpt><trkpt lat="40.6007433" lon="8.5688017"><ele>452.20000000000005</ele><time>2026-04-19T12:36:52.465Z</time></trkpt><trkpt lat="40.600845" lon="8.5687867"><ele>452.79999999999995</ele><time>2026-04-19T12:36:53.465Z</time></trkpt><trkpt lat="40.6009367" lon="8.5687683"><ele>453.4</ele><time>2026-04-19T12:36:54.464Z</time></trkpt><trkpt lat="40.6010117" lon="8.5687683"><ele>454.0</ele><time>2026-04-19T12:36:55.465Z</time></trkpt><trkpt lat="40.601085" lon="8.5687633"><ele>454.00000000000006</ele><time>2026-04-19T12:36:56.464Z</time></trkpt><trkpt lat="40.60116" lon="8.56875"><ele>454.0</ele><time>2026-04-19T12:36:57.465Z</time></trkpt><trkpt lat="40.601235" lon="8.568725"><ele>454.0</ele><time>2026-04-19T12:36:58.465Z</time></trkpt><trkpt lat="40.60131" lon="8.5687"><ele>454.0</ele><time>2026-04-19T12:36:59.465Z</time></trkpt><trkpt lat="40.6013867" lon="8.568675"><ele>454.00000000000006</ele><time>2026-04-19T12:37:00.464Z</time></trkpt><trkpt lat="40.6014617" lon="8.5686467"><ele>454.0</ele><time>2026-04-19T12:37:01.464Z</time></trkpt><trkpt lat="40.6015367" lon="8.5686217"><ele>450.00000000000006</ele><time>2026-04-19T12:37:02.464Z</time></trkpt><trkpt lat="40.6016083" lon="8.5685983"><ele>446.0</ele><time>2026-04-19T12:37:03.465Z</time></trkpt><trkpt lat="40.6016833" lon="8.56856"><ele>442.0</ele><time>2026-04-19T12:37:04.465Z</time></trkpt><trkpt lat="40.6017583" lon="8.56853"><ele>438.0</ele><time>2026-04-19T12:37:05.465Z</time></trkpt><trkpt lat="40.60184" lon="8.56853"><ele>434.00000000000006</ele><time>2026-04-19T12:37:06.465Z</time></trkpt><trkpt lat="40.601925" lon="8.5685483"><ele>430.0</ele><time>2026-04-19T12:37:07.465Z</time></trkpt><trkpt lat="40.6020083" lon="8.5685867"><ele>430.50000000000006</ele><time>2026-04-19T12:37:08.465Z</time></trkpt><trkpt lat="40.60208" lon="8.5686417"><ele>431.0</ele><time>2026-04-19T12:37:09.464Z</time></trkpt><trkpt lat="40.60215" lon="8.568695"><ele>431.5</ele><time>2026-04-19T12:37:10.464Z</time></trkpt><trkpt lat="40.6022283" lon="8.5687483"><ele>432.0</ele><time>2026-04-19T12:37:11.464Z</time></trkpt><trkpt lat="40.6023033" lon="8.5688033"><ele>432.50000000000006</ele><time>2026-04-19T12:37:12.464Z</time></trkpt><trkpt lat="40.6023817" lon="8.5688633"><ele>433.0</ele><time>2026-04-19T12:37:13.465Z</time></trkpt><trkpt lat="40.6024633" lon="8.5689117"><ele>433.0</ele><time>2026-04-19T12:37:14.465Z</time></trkpt><trkpt lat="40.6025533" lon="8.5689483"><ele>432.99999999999994</ele><time>2026-04-19T12:37:15.465Z</time></trkpt><trkpt lat="40.6026417" lon="8.5689533"><ele>432.99999999999994</ele><time>2026-04-19T12:37:16.465Z</time></trkpt><trkpt lat="40.6027267" lon="8.5689467"><ele>433.0</ele><time>2026-04-19T12:37:17.465Z</time></trkpt><trkpt lat="40.6028183" lon="8.56894"><ele>433.0</ele><time>2026-04-19T12:37:18.464Z</time></trkpt><trkpt lat="40.6029083" lon="8.56894"><ele>430.6666666666667</ele><time>2026-04-19T12:37:19.465Z</time></trkpt><trkpt lat="40.6029933" lon="8.5689533"><ele>428.33333333333337</ele><time>2026-04-19T12:37:20.465Z</time></trkpt><trkpt lat="40.6030817" lon="8.5689817"><ele>426.0</ele><time>2026-04-19T12:37:21.464Z</time></trkpt><trkpt lat="40.6031667" lon="8.5690267"><ele>423.66666666666663</ele><time>2026-04-19T12:37:22.464Z</time></trkpt><trkpt lat="40.6032467" lon="8.5690733"><ele>421.3333333333333</ele><time>2026-04-19T12:37:23.464Z</time></trkpt><trkpt lat="40.6033217" lon="8.5691283"><ele>419.0</ele><time>2026-04-19T12:37:24.464Z</time></trkpt><trkpt lat="40.6033917" lon="8.5691867"><ele>418.99999999999994</ele><time>2026-04-19T12:37:25.465Z</time></trkpt><trkpt lat="40.6034533" lon="8.5692483"><ele>419.0</ele><time>2026-04-19T12:37:26.464Z</time></trkpt><trkpt lat="40.60351" lon="8.5693233"><ele>419.0</ele><time>2026-04-19T12:37:27.464Z</time></trkpt><trkpt lat="40.60356" lon="8.5694233"><ele>419.0</ele><time>2026-04-19T12:37:28.464Z</time></trkpt><trkpt lat="40.603605" lon="8.5695367"><ele>418.99999999999994</ele><time>2026-04-19T12:37:29.465Z</time></trkpt><trkpt lat="40.6036517" lon="8.5696433"><ele>419.0</ele><time>2026-04-19T12:37:30.464Z</time></trkpt><trkpt lat="40.603705" lon="8.5697517"><ele>415.4</ele><time>2026-04-19T12:37:31.464Z</time></trkpt><trkpt lat="40.6037517" lon="8.5698567"><ele>411.79999999999995</ele><time>2026-04-19T12:37:32.464Z</time></trkpt><trkpt lat="40.6038083" lon="8.569955"><ele>408.20000000000005</ele><time>2026-04-19T12:37:33.464Z</time></trkpt><trkpt lat="40.60386" lon="8.570055"><ele>404.6</ele><time>2026-04-19T12:37:34.465Z</time></trkpt><trkpt lat="40.6039033" lon="8.570165"><ele>401.0</ele><time>2026-04-19T12:37:35.464Z</time></trkpt><trkpt lat="40.6039383" lon="8.5702867"><ele>402.20000000000005</ele><time>2026-04-19T12:37:36.464Z</time></trkpt><trkpt lat="40.6039633" lon="8.570415"><ele>403.40000000000003</ele><time>2026-04-19T12:37:37.464Z</time></trkpt><trkpt lat="40.60399" lon="8.5705433"><ele>404.6</ele><time>2026-04-19T12:37:38.465Z</time></trkpt><trkpt lat="40.6040183" lon="8.5706717"><ele>405.8</ele><time>2026-04-19T12:37:39.464Z</time></trkpt><trkpt lat="40.604055" lon="8.570795"><ele>407.0</ele><time>2026-04-19T12:37:40.465Z</time></trkpt><trkpt lat="40.6040917" lon="8.5709033"><ele>406.99999999999994</ele><time>2026-04-19T12:37:41.464Z</time></trkpt><trkpt lat="40.60411" lon="8.5709967"><ele>407.0</ele><time>2026-04-19T12:37:42.465Z</time></trkpt><trkpt lat="40.6041417" lon="8.571115"><ele>407.0</ele><time>2026-04-19T12:37:44.464Z</time></trkpt><trkpt lat="40.6042033" lon="8.5710783"><ele>407.0</ele><time>2026-04-19T12:37:46.465Z</time></trkpt><trkpt lat="40.6042233" lon="8.5709967"><ele>406.99999999999994</ele><time>2026-04-19T12:37:47.465Z</time></trkpt><trkpt lat="40.6042333" lon="8.570895"><ele>407.0</ele><time>2026-04-19T12:37:48.465Z</time></trkpt><trkpt lat="40.604245" lon="8.57078"><ele>406.99999999999994</ele><time>2026-04-19T12:37:49.465Z</time></trkpt><trkpt lat="40.6042533" lon="8.5706683"><ele>407.0</ele><time>2026-04-19T12:37:50.465Z</time></trkpt><trkpt lat="40.60426" lon="8.5705583"><ele>407.0</ele><time>2026-04-19T12:37:51.464Z</time></trkpt><trkpt lat="40.60427" lon="8.5704483"><ele>407.0</ele><time>2026-04-19T12:37:52.464Z</time></trkpt><trkpt lat="40.6042767" lon="8.5703533"><ele>406.99999999999994</ele><time>2026-04-19T12:37:53.464Z</time></trkpt><trkpt lat="40.60428" lon="8.5701983"><ele>407.0</ele><time>2026-04-19T12:37:55.464Z</time></trkpt><trkpt lat="40.60428" lon="8.5701"><ele>405.99999999999994</ele><time>2026-04-19T12:37:57.465Z</time></trkpt><trkpt lat="40.60427" lon="8.5699967"><ele>405.0</ele><time>2026-04-19T12:38:01.465Z</time></trkpt><trkpt lat="40.6043333" lon="8.569985"><ele>404.0</ele><time>2026-04-19T12:38:04.464Z</time></trkpt><trkpt lat="40.604385" lon="8.5700617"><ele>403.0</ele><time>2026-04-19T12:38:06.465Z</time></trkpt><trkpt lat="40.604425" lon="8.5701633"><ele>401.99999999999994</ele><time>2026-04-19T12:38:08.465Z</time></trkpt><trkpt lat="40.604465" lon="8.570255"><ele>401.0</ele><time>2026-04-19T12:38:10.464Z</time></trkpt><trkpt lat="40.604505" lon="8.570335"><ele>396.6</ele><time>2026-04-19T12:38:12.464Z</time></trkpt><trkpt lat="40.6045583" lon="8.570445"><ele>392.20000000000005</ele><time>2026-04-19T12:38:14.465Z</time></trkpt><trkpt lat="40.604645" lon="8.57057"><ele>387.79999999999995</ele><time>2026-04-19T12:38:16.465Z</time></trkpt><trkpt lat="40.6047033" lon="8.5706333"><ele>383.4</ele><time>2026-04-19T12:38:17.465Z</time></trkpt><trkpt lat="40.6047683" lon="8.5707017"><ele>379.0</ele><time>2026-04-19T12:38:18.465Z</time></trkpt><trkpt lat="40.6048367" lon="8.5707617"><ele>379.0</ele><time>2026-04-19T12:38:19.464Z</time></trkpt><trkpt lat="40.6049117" lon="8.57082"><ele>379.0</ele><time>2026-04-19T12:38:20.465Z</time></trkpt><trkpt lat="40.6049917" lon="8.5708633"><ele>379.0</ele><time>2026-04-19T12:38:21.464Z</time></trkpt><trkpt lat="40.6050783" lon="8.5709017"><ele>379.0</ele><time>2026-04-19T12:38:22.464Z</time></trkpt><trkpt lat="40.605175" lon="8.5709417"><ele>379.0</ele><time>2026-04-19T12:38:23.464Z</time></trkpt><trkpt lat="40.60528" lon="8.5709767"><ele>376.5</ele><time>2026-04-19T12:38:24.465Z</time></trkpt><trkpt lat="40.6053967" lon="8.57102"><ele>374.0</ele><time>2026-04-19T12:38:25.465Z</time></trkpt><trkpt lat="40.60552" lon="8.571065"><ele>371.5</ele><time>2026-04-19T12:38:26.465Z</time></trkpt><trkpt lat="40.6056367" lon="8.57111"><ele>369.0</ele><time>2026-04-19T12:38:27.464Z</time></trkpt><trkpt lat="40.60576" lon="8.5711467"><ele>369.0</ele><time>2026-04-19T12:38:28.465Z</time></trkpt><trkpt lat="40.6058833" lon="8.5711633"><ele>369.0</ele><time>2026-04-19T12:38:29.465Z</time></trkpt><trkpt lat="40.606" lon="8.5711783"><ele>369.0</ele><time>2026-04-19T12:38:30.464Z</time></trkpt><trkpt lat="40.606115" lon="8.5711917"><ele>369.0</ele><time>2026-04-19T12:38:31.465Z</time></trkpt><trkpt lat="40.60623" lon="8.5712183"><ele>365.75</ele><time>2026-04-19T12:38:32.464Z</time></trkpt><trkpt lat="40.6063433" lon="8.5712533"><ele>362.5</ele><time>2026-04-19T12:38:33.464Z</time></trkpt><trkpt lat="40.6064567" lon="8.5713083"><ele>359.25</ele><time>2026-04-19T12:38:34.464Z</time></trkpt><trkpt lat="40.6065833" lon="8.571375"><ele>356.0</ele><time>2026-04-19T12:38:35.465Z</time></trkpt><trkpt lat="40.606725" lon="8.571445"><ele>356.0</ele><time>2026-04-19T12:38:36.465Z</time></trkpt><trkpt lat="40.6068783" lon="8.571515"><ele>356.0</ele><time>2026-04-19T12:38:37.465Z</time></trkpt><trkpt lat="40.6070433" lon="8.5715583"><ele>356.0</ele><time>2026-04-19T12:38:38.465Z</time></trkpt><trkpt lat="40.6072067" lon="8.5715683"><ele>358.33333333333337</ele><time>2026-04-19T12:38:39.464Z</time></trkpt><trkpt lat="40.60737" lon="8.5715783"><ele>360.6666666666667</ele><time>2026-04-19T12:38:40.464Z</time></trkpt><trkpt lat="40.6075283" lon="8.571595"><ele>363.0</ele><time>2026-04-19T12:38:41.465Z</time></trkpt><trkpt lat="40.6076667" lon="8.571625"><ele>363.0</ele><time>2026-04-19T12:38:42.464Z</time></trkpt><trkpt lat="40.607795" lon="8.5716883"><ele>363.0</ele><time>2026-04-19T12:38:43.464Z</time></trkpt><trkpt lat="40.6079367" lon="8.5717633"><ele>363.0</ele><time>2026-04-19T12:38:44.465Z</time></trkpt><trkpt lat="40.6080817" lon="8.5718267"><ele>363.0</ele><time>2026-04-19T12:38:45.465Z</time></trkpt><trkpt lat="40.6082267" lon="8.5718783"><ele>363.75</ele><time>2026-04-19T12:38:46.464Z</time></trkpt><trkpt lat="40.6083667" lon="8.5719333"><ele>364.5</ele><time>2026-04-19T12:38:47.465Z</time></trkpt><trkpt lat="40.6085067" lon="8.5719617"><ele>365.25</ele><time>2026-04-19T12:38:48.465Z</time></trkpt><trkpt lat="40.6086483" lon="8.5719667"><ele>366.0</ele><time>2026-04-19T12:38:49.465Z</time></trkpt><trkpt lat="40.608795" lon="8.5719483"><ele>364.5</ele><time>2026-04-19T12:38:50.465Z</time></trkpt><trkpt lat="40.6089317" lon="8.5719433"><ele>363.0</ele><time>2026-04-19T12:38:51.464Z</time></trkpt><trkpt lat="40.6090617" lon="8.5719583"><ele>361.5</ele><time>2026-04-19T12:38:52.464Z</time></trkpt><trkpt lat="40.6091833" lon="8.57197"><ele>360.0</ele><time>2026-04-19T12:38:53.464Z</time></trkpt><trkpt lat="40.6093017" lon="8.571955"><ele>360.0</ele><time>2026-04-19T12:38:54.465Z</time></trkpt><trkpt lat="40.6094283" lon="8.5719217"><ele>360.0</ele><time>2026-04-19T12:38:55.464Z</time></trkpt><trkpt lat="40.6095567" lon="8.5718783"><ele>360.0</ele><time>2026-04-19T12:38:56.465Z</time></trkpt><trkpt lat="40.6096967" lon="8.5718467"><ele>360.0</ele><time>2026-04-19T12:38:57.465Z</time></trkpt><trkpt lat="40.6098267" lon="8.5718167"><ele>361.5</ele><time>2026-04-19T12:38:58.464Z</time></trkpt><trkpt lat="40.60995" lon="8.5717667"><ele>363.0</ele><time>2026-04-19T12:38:59.465Z</time></trkpt><trkpt lat="40.6100617" lon="8.5717217"><ele>364.5</ele><time>2026-04-19T12:39:00.464Z</time></trkpt><trkpt lat="40.61017" lon="8.5716767"><ele>366.0</ele><time>2026-04-19T12:39:01.465Z</time></trkpt><trkpt lat="40.6102633" lon="8.571635"><ele>365.20000000000005</ele><time>2026-04-19T12:39:02.464Z</time></trkpt><trkpt lat="40.6103383" lon="8.571615"><ele>364.40000000000003</ele><time>2026-04-19T12:39:03.465Z</time></trkpt><trkpt lat="40.6104367" lon="8.5716233"><ele>363.6</ele><time>2026-04-19T12:39:04.464Z</time></trkpt><trkpt lat="40.6105317" lon="8.5716583"><ele>362.8</ele><time>2026-04-19T12:39:05.464Z</time></trkpt><trkpt lat="40.61063" lon="8.5717017"><ele>362.0</ele><time>2026-04-19T12:39:06.465Z</time></trkpt><trkpt lat="40.610725" lon="8.5717467"><ele>362.0</ele><time>2026-04-19T12:39:07.464Z</time></trkpt><trkpt lat="40.6108167" lon="8.571795"><ele>362.0</ele><time>2026-04-19T12:39:08.465Z</time></trkpt><trkpt lat="40.610905" lon="8.5718433"><ele>362.0</ele><time>2026-04-19T12:39:09.465Z</time></trkpt><trkpt lat="40.61099" lon="8.5718967"><ele>362.0</ele><time>2026-04-19T12:39:10.465Z</time></trkpt><trkpt lat="40.611075" lon="8.5719533"><ele>362.0</ele><time>2026-04-19T12:39:11.465Z</time></trkpt><trkpt lat="40.6111683" lon="8.5720167"><ele>360.1666666666667</ele><time>2026-04-19T12:39:12.464Z</time></trkpt><trkpt lat="40.6112533" lon="8.572075"><ele>358.33333333333337</ele><time>2026-04-19T12:39:13.464Z</time></trkpt><trkpt lat="40.6113317" lon="8.5721267"><ele>356.5</ele><time>2026-04-19T12:39:14.464Z</time></trkpt><trkpt lat="40.6113967" lon="8.5721633"><ele>354.6666666666667</ele><time>2026-04-19T12:39:15.465Z</time></trkpt><trkpt lat="40.6114617" lon="8.57218"><ele>352.8333333333333</ele><time>2026-04-19T12:39:16.464Z</time></trkpt><trkpt lat="40.6115817" lon="8.572135"><ele>351.0</ele><time>2026-04-19T12:39:18.465Z</time></trkpt><trkpt lat="40.61164" lon="8.57209"><ele>351.00000000000006</ele><time>2026-04-19T12:39:19.465Z</time></trkpt><trkpt lat="40.6116983" lon="8.57205"><ele>351.0</ele><time>2026-04-19T12:39:20.465Z</time></trkpt><trkpt lat="40.6117683" lon="8.5720217"><ele>351.0</ele><time>2026-04-19T12:39:21.464Z</time></trkpt><trkpt lat="40.6118383" lon="8.5720033"><ele>351.0</ele><time>2026-04-19T12:39:22.464Z</time></trkpt><trkpt lat="40.6119117" lon="8.5720083"><ele>351.0</ele><time>2026-04-19T12:39:23.465Z</time></trkpt><trkpt lat="40.611995" lon="8.5720183"><ele>351.00000000000006</ele><time>2026-04-19T12:39:24.465Z</time></trkpt><trkpt lat="40.6120683" lon="8.57204"><ele>351.0</ele><time>2026-04-19T12:39:25.464Z</time></trkpt><trkpt lat="40.6121383" lon="8.5720683"><ele>349.0</ele><time>2026-04-19T12:39:26.465Z</time></trkpt><trkpt lat="40.61225" lon="8.5721017"><ele>347.0</ele><time>2026-04-19T12:39:28.464Z</time></trkpt><trkpt lat="40.6123217" lon="8.572135"><ele>345.0</ele><time>2026-04-19T12:39:30.464Z</time></trkpt><trkpt lat="40.6123933" lon="8.572195"><ele>343.0</ele><time>2026-04-19T12:39:33.464Z</time></trkpt><trkpt lat="40.612435" lon="8.572275"><ele>341.0</ele><time>2026-04-19T12:39:36.464Z</time></trkpt><trkpt lat="40.6124683" lon="8.57235"><ele>339.0</ele><time>2026-04-19T12:39:38.464Z</time></trkpt><trkpt lat="40.6125467" lon="8.572405"><ele>339.0</ele><time>2026-04-19T12:39:41.464Z</time></trkpt><trkpt lat="40.6126467" lon="8.572455"><ele>339.0</ele><time>2026-04-19T12:39:43.465Z</time></trkpt><trkpt lat="40.612705" lon="8.5724917"><ele>339.0</ele><time>2026-04-19T12:39:44.465Z</time></trkpt><trkpt lat="40.6127717" lon="8.572535"><ele>339.0</ele><time>2026-04-19T12:39:45.465Z</time></trkpt><trkpt lat="40.6128383" lon="8.5725733"><ele>339.0</ele><time>2026-04-19T12:39:46.464Z</time></trkpt><trkpt lat="40.6129083" lon="8.5726183"><ele>339.0</ele><time>2026-04-19T12:39:47.465Z</time></trkpt><trkpt lat="40.6129817" lon="8.5726817"><ele>338.0</ele><time>2026-04-19T12:39:48.464Z</time></trkpt><trkpt lat="40.6130567" lon="8.57275"><ele>337.0</ele><time>2026-04-19T12:39:49.464Z</time></trkpt><trkpt lat="40.6131333" lon="8.5728217"><ele>336.0</ele><time>2026-04-19T12:39:50.464Z</time></trkpt><trkpt lat="40.613205" lon="8.5728917"><ele>335.0</ele><time>2026-04-19T12:39:51.464Z</time></trkpt><trkpt lat="40.6132683" lon="8.57296"><ele>334.0</ele><time>2026-04-19T12:39:52.465Z</time></trkpt><trkpt lat="40.613325" lon="8.5730233"><ele>333.0</ele><time>2026-04-19T12:39:53.465Z</time></trkpt><trkpt lat="40.6134067" lon="8.5731317"><ele>332.4</ele><time>2026-04-19T12:39:55.464Z</time></trkpt><trkpt lat="40.6134467" lon="8.5732567"><ele>331.79999999999995</ele><time>2026-04-19T12:39:57.465Z</time></trkpt><trkpt lat="40.6134817" lon="8.5734"><ele>331.2</ele><time>2026-04-19T12:39:59.464Z</time></trkpt><trkpt lat="40.6135183" lon="8.5735533"><ele>330.6</ele><time>2026-04-19T12:40:01.464Z</time></trkpt><trkpt lat="40.6135483" lon="8.5736833"><ele>330.0</ele><time>2026-04-19T12:40:03.465Z</time></trkpt><trkpt lat="40.6135317" lon="8.573805"><ele>330.3333333333333</ele><time>2026-04-19T12:40:05.464Z</time></trkpt><trkpt lat="40.6134983" lon="8.573905"><ele>330.6666666666667</ele><time>2026-04-19T12:40:07.464Z</time></trkpt><trkpt lat="40.6135483" lon="8.5739883"><ele>331.0</ele><time>2026-04-19T12:40:10.464Z</time></trkpt><trkpt lat="40.6136433" lon="8.5739833"><ele>331.33333333333337</ele><time>2026-04-19T12:40:12.464Z</time></trkpt><trkpt lat="40.6137333" lon="8.5739817"><ele>331.6666666666667</ele><time>2026-04-19T12:40:14.464Z</time></trkpt><trkpt lat="40.6138283" lon="8.573985"><ele>332.0</ele><time>2026-04-19T12:40:16.464Z</time></trkpt><trkpt lat="40.613945" lon="8.57402"><ele>332.0</ele><time>2026-04-19T12:40:18.465Z</time></trkpt><trkpt lat="40.6140083" lon="8.574035"><ele>332.0</ele><time>2026-04-19T12:40:19.464Z</time></trkpt><trkpt lat="40.61408" lon="8.57405"><ele>332.0</ele><time>2026-04-19T12:40:20.465Z</time></trkpt><trkpt lat="40.61416" lon="8.5740517"><ele>332.0</ele><time>2026-04-19T12:40:21.464Z</time></trkpt><trkpt lat="40.6142533" lon="8.57404"><ele>332.0</ele><time>2026-04-19T12:40:22.464Z</time></trkpt><trkpt lat="40.614345" lon="8.5740133"><ele>332.0</ele><time>2026-04-19T12:40:23.465Z</time></trkpt><trkpt lat="40.61444" lon="8.5739833"><ele>333.0</ele><time>2026-04-19T12:40:24.464Z</time></trkpt><trkpt lat="40.6145417" lon="8.5739583"><ele>334.0</ele><time>2026-04-19T12:40:25.464Z</time></trkpt><trkpt lat="40.6146433" lon="8.57394"><ele>335.0</ele><time>2026-04-19T12:40:26.464Z</time></trkpt><trkpt lat="40.6147383" lon="8.5739133"><ele>336.0</ele><time>2026-04-19T12:40:27.464Z</time></trkpt><trkpt lat="40.6148283" lon="8.5738933"><ele>337.0</ele><time>2026-04-19T12:40:28.465Z</time></trkpt><trkpt lat="40.6149033" lon="8.573855"><ele>337.0</ele><time>2026-04-19T12:40:29.465Z</time></trkpt><trkpt lat="40.61499" lon="8.573815"><ele>337.0</ele><time>2026-04-19T12:40:30.464Z</time></trkpt><trkpt lat="40.6150667" lon="8.573765"><ele>337.0</ele><time>2026-04-19T12:40:31.464Z</time></trkpt><trkpt lat="40.6151467" lon="8.5737083"><ele>337.0</ele><time>2026-04-19T12:40:32.464Z</time></trkpt><trkpt lat="40.6152317" lon="8.5736533"><ele>337.0</ele><time>2026-04-19T12:40:33.464Z</time></trkpt><trkpt lat="40.61531" lon="8.5736133"><ele>337.0</ele><time>2026-04-19T12:40:34.465Z</time></trkpt><trkpt lat="40.615385" lon="8.5735883"><ele>337.3333333333333</ele><time>2026-04-19T12:40:35.464Z</time></trkpt><trkpt lat="40.6154617" lon="8.573575"><ele>337.66666666666663</ele><time>2026-04-19T12:40:36.464Z</time></trkpt><trkpt lat="40.61553" lon="8.57358"><ele>338.0</ele><time>2026-04-19T12:40:37.464Z</time></trkpt><trkpt lat="40.6156017" lon="8.573605"><ele>338.3333333333333</ele><time>2026-04-19T12:40:38.464Z</time></trkpt><trkpt lat="40.6156883" lon="8.573665"><ele>338.6666666666667</ele><time>2026-04-19T12:40:40.464Z</time></trkpt><trkpt lat="40.6157883" lon="8.573695"><ele>339.0</ele><time>2026-04-19T12:41:02.464Z</time></trkpt><trkpt lat="40.615885" lon="8.57368"><ele>337.6</ele><time>2026-04-19T12:41:04.465Z</time></trkpt><trkpt lat="40.6159867" lon="8.5736483"><ele>336.2</ele><time>2026-04-19T12:41:06.464Z</time></trkpt><trkpt lat="40.61608" lon="8.5735983"><ele>334.8</ele><time>2026-04-19T12:41:08.465Z</time></trkpt><trkpt lat="40.6161733" lon="8.573565"><ele>333.40000000000003</ele><time>2026-04-19T12:41:10.464Z</time></trkpt><trkpt lat="40.6162783" lon="8.573575"><ele>332.0</ele><time>2026-04-19T12:41:12.465Z</time></trkpt><trkpt lat="40.6163767" lon="8.5735967"><ele>332.0</ele><time>2026-04-19T12:41:14.465Z</time></trkpt><trkpt lat="40.6164467" lon="8.5736117"><ele>332.0</ele><time>2026-04-19T12:41:16.464Z</time></trkpt><trkpt lat="40.6165283" lon="8.5736267"><ele>332.0</ele><time>2026-04-19T12:41:18.464Z</time></trkpt><trkpt lat="40.6166417" lon="8.573645"><ele>332.0</ele><time>2026-04-19T12:41:20.465Z</time></trkpt><trkpt lat="40.616755" lon="8.5736733"><ele>332.0</ele><time>2026-04-19T12:41:22.464Z</time></trkpt><trkpt lat="40.6168633" lon="8.5737167"><ele>332.33333333333337</ele><time>2026-04-19T12:41:24.464Z</time></trkpt><trkpt lat="40.6169633" lon="8.5737583"><ele>332.6666666666667</ele><time>2026-04-19T12:41:26.464Z</time></trkpt><trkpt lat="40.6170817" lon="8.5737967"><ele>333.0</ele><time>2026-04-19T12:41:28.464Z</time></trkpt><trkpt lat="40.6171517" lon="8.5738183"><ele>333.3333333333333</ele><time>2026-04-19T12:41:29.464Z</time></trkpt><trkpt lat="40.6172217" lon="8.5738367"><ele>333.66666666666663</ele><time>2026-04-19T12:41:30.465Z</time></trkpt><trkpt lat="40.6172933" lon="8.573845"><ele>334.0</ele><time>2026-04-19T12:41:31.464Z</time></trkpt><trkpt lat="40.61737" lon="8.5738417"><ele>333.3333333333333</ele><time>2026-04-19T12:41:32.464Z</time></trkpt><trkpt lat="40.6174417" lon="8.5738367"><ele>332.66666666666663</ele><time>2026-04-19T12:41:33.464Z</time></trkpt><trkpt lat="40.617515" lon="8.5738267"><ele>332.0</ele><time>2026-04-19T12:41:34.464Z</time></trkpt><trkpt lat="40.6175917" lon="8.57381"><ele>331.3333333333333</ele><time>2026-04-19T12:41:35.464Z</time></trkpt><trkpt lat="40.6176717" lon="8.573795"><ele>330.6666666666667</ele><time>2026-04-19T12:41:36.464Z</time></trkpt><trkpt lat="40.6177467" lon="8.5737733"><ele>330.0</ele><time>2026-04-19T12:41:37.465Z</time></trkpt><trkpt lat="40.6178167" lon="8.5737417"><ele>328.5</ele><time>2026-04-19T12:41:38.464Z</time></trkpt><trkpt lat="40.617895" lon="8.5737083"><ele>327.0</ele><time>2026-04-19T12:41:39.465Z</time></trkpt><trkpt lat="40.6179717" lon="8.5736617"><ele>325.5</ele><time>2026-04-19T12:41:40.464Z</time></trkpt><trkpt lat="40.6180417" lon="8.573615"><ele>324.0</ele><time>2026-04-19T12:41:41.464Z</time></trkpt><trkpt lat="40.6181083" lon="8.573565"><ele>322.5</ele><time>2026-04-19T12:41:42.464Z</time></trkpt><trkpt lat="40.618205" lon="8.57349"><ele>321.0</ele><time>2026-04-19T12:41:44.465Z</time></trkpt><trkpt lat="40.6182883" lon="8.573445"><ele>320.8333333333333</ele><time>2026-04-19T12:41:46.465Z</time></trkpt><trkpt lat="40.6183733" lon="8.573425"><ele>320.6666666666667</ele><time>2026-04-19T12:41:48.464Z</time></trkpt><trkpt lat="40.61846" lon="8.573455"><ele>320.5</ele><time>2026-04-19T12:41:50.465Z</time></trkpt><trkpt lat="40.61853" lon="8.5734967"><ele>320.33333333333337</ele><time>2026-04-19T12:41:52.465Z</time></trkpt><trkpt lat="40.6185967" lon="8.5735517"><ele>320.1666666666667</ele><time>2026-04-19T12:41:54.465Z</time></trkpt><trkpt lat="40.6186633" lon="8.57361"><ele>320.0</ele><time>2026-04-19T12:41:56.464Z</time></trkpt><trkpt lat="40.6187467" lon="8.5736483"><ele>318.0</ele><time>2026-04-19T12:41:58.464Z</time></trkpt><trkpt lat="40.6188417" lon="8.5736783"><ele>316.0</ele><time>2026-04-19T12:42:00.464Z</time></trkpt><trkpt lat="40.61895" lon="8.573665"><ele>314.0</ele><time>2026-04-19T12:42:02.464Z</time></trkpt><trkpt lat="40.6190667" lon="8.573615"><ele>312.0</ele><time>2026-04-19T12:42:04.465Z</time></trkpt><trkpt lat="40.61913" lon="8.5735767"><ele>310.0</ele><time>2026-04-19T12:42:05.464Z</time></trkpt><trkpt lat="40.6191917" lon="8.5735267"><ele>310.0</ele><time>2026-04-19T12:42:06.464Z</time></trkpt><trkpt lat="40.6192533" lon="8.5734683"><ele>310.0</ele><time>2026-04-19T12:42:07.465Z</time></trkpt><trkpt lat="40.6193133" lon="8.5734067"><ele>310.0</ele><time>2026-04-19T12:42:08.464Z</time></trkpt><trkpt lat="40.6193633" lon="8.5733467"><ele>310.0</ele><time>2026-04-19T12:42:09.465Z</time></trkpt><trkpt lat="40.6194167" lon="8.5732917"><ele>310.0</ele><time>2026-04-19T12:42:10.464Z</time></trkpt><trkpt lat="40.61948" lon="8.573205"><ele>310.0</ele><time>2026-04-19T12:42:12.464Z</time></trkpt><trkpt lat="40.6195183" lon="8.573115"><ele>309.8</ele><time>2026-04-19T12:42:14.465Z</time></trkpt><trkpt lat="40.6195433" lon="8.5730067"><ele>309.6</ele><time>2026-04-19T12:42:16.464Z</time></trkpt><trkpt lat="40.6196017" lon="8.57287"><ele>309.4</ele><time>2026-04-19T12:42:18.465Z</time></trkpt><trkpt lat="40.6196333" lon="8.5727933"><ele>309.2</ele><time>2026-04-19T12:42:19.464Z</time></trkpt><trkpt lat="40.61969" lon="8.57265"><ele>309.0</ele><time>2026-04-19T12:42:21.465Z</time></trkpt><trkpt lat="40.6197517" lon="8.572515"><ele>307.8</ele><time>2026-04-19T12:42:23.464Z</time></trkpt><trkpt lat="40.6197833" lon="8.5724417"><ele>306.59999999999997</ele><time>2026-04-19T12:42:24.464Z</time></trkpt><trkpt lat="40.6198367" lon="8.5723117"><ele>305.4</ele><time>2026-04-19T12:42:26.465Z</time></trkpt><trkpt lat="40.6198933" lon="8.5721817"><ele>304.2</ele><time>2026-04-19T12:42:28.464Z</time></trkpt><trkpt lat="40.619935" lon="8.5720483"><ele>303.0</ele><time>2026-04-19T12:42:30.464Z</time></trkpt><trkpt lat="40.619965" lon="8.57193"><ele>301.2</ele><time>2026-04-19T12:42:32.465Z</time></trkpt><trkpt lat="40.6199833" lon="8.5717967"><ele>299.4</ele><time>2026-04-19T12:42:34.465Z</time></trkpt><trkpt lat="40.6200117" lon="8.5716583"><ele>297.59999999999997</ele><time>2026-04-19T12:42:36.465Z</time></trkpt><trkpt lat="40.6200367" lon="8.5715317"><ele>295.8</ele><time>2026-04-19T12:42:38.464Z</time></trkpt><trkpt lat="40.620055" lon="8.5714117"><ele>294.0</ele><time>2026-04-19T12:42:40.464Z</time></trkpt><trkpt lat="40.6200533" lon="8.57129"><ele>292.4</ele><time>2026-04-19T12:42:42.464Z</time></trkpt><trkpt lat="40.6200383" lon="8.57116"><ele>290.79999999999995</ele><time>2026-04-19T12:42:44.465Z</time></trkpt><trkpt lat="40.620035" lon="8.5710583"><ele>289.20000000000005</ele><time>2026-04-19T12:42:46.464Z</time></trkpt><trkpt lat="40.62005" lon="8.57094"><ele>287.6</ele><time>2026-04-19T12:42:48.464Z</time></trkpt><trkpt lat="40.6200733" lon="8.5707967"><ele>286.0</ele><time>2026-04-19T12:42:50.464Z</time></trkpt><trkpt lat="40.6200967" lon="8.5706517"><ele>286.0</ele><time>2026-04-19T12:42:52.465Z</time></trkpt><trkpt lat="40.620125" lon="8.5705083"><ele>286.0</ele><time>2026-04-19T12:42:54.464Z</time></trkpt><trkpt lat="40.6201583" lon="8.5703683"><ele>286.0</ele><time>2026-04-19T12:42:56.465Z</time></trkpt><trkpt lat="40.62018" lon="8.5702317"><ele>286.0</ele><time>2026-04-19T12:42:58.465Z</time></trkpt><trkpt lat="40.6202" lon="8.570115"><ele>286.0</ele><time>2026-04-19T12:43:00.464Z</time></trkpt><trkpt lat="40.62022" lon="8.5700183"><ele>284.0</ele><time>2026-04-19T12:43:02.465Z</time></trkpt><trkpt lat="40.6202483" lon="8.5699283"><ele>282.0</ele><time>2026-04-19T12:43:04.465Z</time></trkpt><trkpt lat="40.62027" lon="8.5698183"><ele>280.0</ele><time>2026-04-19T12:43:06.465Z</time></trkpt><trkpt lat="40.6202717" lon="8.5697167"><ele>278.0</ele><time>2026-04-19T12:43:08.464Z</time></trkpt><trkpt lat="40.6202833" lon="8.5696267"><ele>276.0</ele><time>2026-04-19T12:43:10.464Z</time></trkpt><trkpt lat="40.6202967" lon="8.5695433"><ele>274.0</ele><time>2026-04-19T12:43:12.463Z</time></trkpt><trkpt lat="40.6203217" lon="8.5694283"><ele>270.28571428571433</ele><time>2026-04-19T12:43:15.463Z</time></trkpt><trkpt lat="40.6203567" lon="8.5693567"><ele>266.57142857142856</ele><time>2026-04-19T12:43:17.463Z</time></trkpt><trkpt lat="40.6203767" lon="8.5692367"><ele>262.8571428571429</ele><time>2026-04-19T12:43:20.463Z</time></trkpt><trkpt lat="40.6203783" lon="8.5691467"><ele>259.14285714285717</ele><time>2026-04-19T12:43:23.464Z</time></trkpt><trkpt lat="40.6203617" lon="8.56906"><ele>255.42857142857144</ele><time>2026-04-19T12:43:26.463Z</time></trkpt><trkpt lat="40.6203433" lon="8.5689467"><ele>251.71428571428572</ele><time>2026-04-19T12:43:29.464Z</time></trkpt><trkpt lat="40.6203317" lon="8.56886"><ele>248.0</ele><time>2026-04-19T12:43:31.463Z</time></trkpt><trkpt lat="40.6203167" lon="8.5687717"><ele>245.8</ele><time>2026-04-19T12:43:33.463Z</time></trkpt><trkpt lat="40.6203167" lon="8.5686417"><ele>243.60000000000002</ele><time>2026-04-19T12:43:35.464Z</time></trkpt><trkpt lat="40.6203317" lon="8.5685133"><ele>241.39999999999998</ele><time>2026-04-19T12:43:37.463Z</time></trkpt><trkpt lat="40.6203533" lon="8.568385"><ele>239.2</ele><time>2026-04-19T12:43:39.464Z</time></trkpt><trkpt lat="40.6203833" lon="8.5682617"><ele>237.0</ele><time>2026-04-19T12:43:41.463Z</time></trkpt><trkpt lat="40.6204" lon="8.5681483"><ele>237.0</ele><time>2026-04-19T12:43:43.464Z</time></trkpt><trkpt lat="40.620425" lon="8.5680583"><ele>237.0</ele><time>2026-04-19T12:43:45.464Z</time></trkpt><trkpt lat="40.6204667" lon="8.5679667"><ele>237.0</ele><time>2026-04-19T12:43:48.463Z</time></trkpt><trkpt lat="40.6205433" lon="8.56802"><ele>237.0</ele><time>2026-04-19T12:43:52.464Z</time></trkpt><trkpt lat="40.6205883" lon="8.5681183"><ele>237.0</ele><time>2026-04-19T12:43:55.464Z</time></trkpt><trkpt lat="40.6206167" lon="8.5682067"><ele>237.0</ele><time>2026-04-19T12:43:58.464Z</time></trkpt><trkpt lat="40.6206433" lon="8.568295"><ele>237.0</ele><time>2026-04-19T12:44:01.463Z</time></trkpt><trkpt lat="40.62066" lon="8.56839"><ele>237.0</ele><time>2026-04-19T12:44:04.464Z</time></trkpt><trkpt lat="40.620685" lon="8.56847"><ele>237.0</ele><time>2026-04-19T12:44:06.464Z</time></trkpt><trkpt lat="40.6207317" lon="8.5685717"><ele>237.0</ele><time>2026-04-19T12:44:08.463Z</time></trkpt><trkpt lat="40.6207717" lon="8.56865"><ele>237.0</ele><time>2026-04-19T12:44:10.464Z</time></trkpt><trkpt lat="40.6208117" lon="8.5687583"><ele>237.0</ele><time>2026-04-19T12:44:13.463Z</time></trkpt><trkpt lat="40.6208583" lon="8.5688333"><ele>238.57142857142856</ele><time>2026-04-19T12:44:15.464Z</time></trkpt><trkpt lat="40.6208983" lon="8.5689017"><ele>240.14285714285714</ele><time>2026-04-19T12:44:17.463Z</time></trkpt><trkpt lat="40.6209517" lon="8.5689783"><ele>241.71428571428572</ele><time>2026-04-19T12:44:20.463Z</time></trkpt><trkpt lat="40.621015" lon="8.5690483"><ele>243.28571428571428</ele><time>2026-04-19T12:44:23.463Z</time></trkpt><trkpt lat="40.6210617" lon="8.5691133"><ele>244.8571428571429</ele><time>2026-04-19T12:44:26.463Z</time></trkpt><trkpt lat="40.6211017" lon="8.5691933"><ele>246.42857142857144</ele><time>2026-04-19T12:44:29.464Z</time></trkpt><trkpt lat="40.621145" lon="8.56928"><ele>248.0</ele><time>2026-04-19T12:44:32.463Z</time></trkpt><trkpt lat="40.6211783" lon="8.5693783"><ele>246.66666666666669</ele><time>2026-04-19T12:44:35.463Z</time></trkpt><trkpt lat="40.6212483" lon="8.5694717"><ele>245.33333333333334</ele><time>2026-04-19T12:44:38.463Z</time></trkpt><trkpt lat="40.62131" lon="8.5695583"><ele>244.0</ele><time>2026-04-19T12:44:40.463Z</time></trkpt><trkpt lat="40.6213767" lon="8.5696317"><ele>242.66666666666669</ele><time>2026-04-19T12:44:43.463Z</time></trkpt><trkpt lat="40.6214433" lon="8.5697"><ele>241.33333333333334</ele><time>2026-04-19T12:44:46.464Z</time></trkpt><trkpt lat="40.6214917" lon="8.5697617"><ele>240.0</ele><time>2026-04-19T12:44:48.463Z</time></trkpt><trkpt lat="40.62155" lon="8.56983"><ele>240.0</ele><time>2026-04-19T12:44:50.464Z</time></trkpt><trkpt lat="40.6216017" lon="8.569905"><ele>240.0</ele><time>2026-04-19T12:44:52.464Z</time></trkpt><trkpt lat="40.6216667" lon="8.56994"><ele>240.0</ele><time>2026-04-19T12:45:00.463Z</time></trkpt><trkpt lat="40.6217367" lon="8.570005"><ele>240.0</ele><time>2026-04-19T12:45:02.464Z</time></trkpt><trkpt lat="40.6218267" lon="8.5700683"><ele>240.0</ele><time>2026-04-19T12:45:04.463Z</time></trkpt><trkpt lat="40.621905" lon="8.5701133"><ele>240.0</ele><time>2026-04-19T12:45:06.464Z</time></trkpt><trkpt lat="40.6219833" lon="8.570145"><ele>237.16666666666666</ele><time>2026-04-19T12:45:09.464Z</time></trkpt><trkpt lat="40.6220383" lon="8.5701967"><ele>234.33333333333331</ele><time>2026-04-19T12:46:01.464Z</time></trkpt><trkpt lat="40.6221117" lon="8.570275"><ele>231.5</ele><time>2026-04-19T12:46:03.464Z</time></trkpt><trkpt lat="40.6221833" lon="8.5703517"><ele>228.66666666666666</ele><time>2026-04-19T12:46:05.463Z</time></trkpt><trkpt lat="40.62225" lon="8.5704383"><ele>225.83333333333331</ele><time>2026-04-19T12:46:07.463Z</time></trkpt><trkpt lat="40.6222933" lon="8.5705483"><ele>223.0</ele><time>2026-04-19T12:46:09.463Z</time></trkpt><trkpt lat="40.6223267" lon="8.5706683"><ele>222.99999999999997</ele><time>2026-04-19T12:46:11.464Z</time></trkpt><trkpt lat="40.6223683" lon="8.57078"><ele>223.0</ele><time>2026-04-19T12:46:13.464Z</time></trkpt><trkpt lat="40.6224483" lon="8.5709017"><ele>223.0</ele><time>2026-04-19T12:46:15.464Z</time></trkpt><trkpt lat="40.62249" lon="8.570965"><ele>223.0</ele><time>2026-04-19T12:46:16.463Z</time></trkpt><trkpt lat="40.6225317" lon="8.571035"><ele>222.99999999999997</ele><time>2026-04-19T12:46:17.463Z</time></trkpt><trkpt lat="40.62257" lon="8.571105"><ele>223.0</ele><time>2026-04-19T12:46:18.463Z</time></trkpt><trkpt lat="40.6226033" lon="8.5711783"><ele>223.66666666666666</ele><time>2026-04-19T12:46:19.463Z</time></trkpt><trkpt lat="40.62264" lon="8.5712467"><ele>224.33333333333331</ele><time>2026-04-19T12:46:20.464Z</time></trkpt><trkpt lat="40.6226967" lon="8.571365"><ele>225.0</ele><time>2026-04-19T12:46:22.463Z</time></trkpt><trkpt lat="40.62273" lon="8.5714633"><ele>225.66666666666669</ele><time>2026-04-19T12:46:24.464Z</time></trkpt><trkpt lat="40.62277" lon="8.5715633"><ele>226.33333333333334</ele><time>2026-04-19T12:46:27.464Z</time></trkpt><trkpt lat="40.62278" lon="8.571665"><ele>227.0</ele><time>2026-04-19T12:46:29.463Z</time></trkpt><trkpt lat="40.622775" lon="8.5717483"><ele>227.00000000000003</ele><time>2026-04-19T12:46:30.463Z</time></trkpt><trkpt lat="40.6227683" lon="8.5718317"><ele>227.0</ele><time>2026-04-19T12:46:31.463Z</time></trkpt><trkpt lat="40.622755" lon="8.5719917"><ele>227.0</ele><time>2026-04-19T12:46:33.463Z</time></trkpt><trkpt lat="40.6227567" lon="8.57215"><ele>227.0</ele><time>2026-04-19T12:46:35.463Z</time></trkpt><trkpt lat="40.622765" lon="8.5722367"><ele>227.00000000000003</ele><time>2026-04-19T12:46:36.464Z</time></trkpt><trkpt lat="40.6227767" lon="8.5723283"><ele>227.0</ele><time>2026-04-19T12:46:37.464Z</time></trkpt><trkpt lat="40.6227867" lon="8.5724233"><ele>225.0</ele><time>2026-04-19T12:46:38.463Z</time></trkpt><trkpt lat="40.6227767" lon="8.5725783"><ele>223.0</ele><time>2026-04-19T12:46:40.464Z</time></trkpt><trkpt lat="40.6227317" lon="8.572715"><ele>221.0</ele><time>2026-04-19T12:46:42.464Z</time></trkpt><trkpt lat="40.6226917" lon="8.5727817"><ele>219.0</ele><time>2026-04-19T12:46:43.464Z</time></trkpt><trkpt lat="40.6226117" lon="8.5729067"><ele>217.0</ele><time>2026-04-19T12:46:45.463Z</time></trkpt><trkpt lat="40.6225533" lon="8.5730317"><ele>212.39999999999998</ele><time>2026-04-19T12:46:47.464Z</time></trkpt><trkpt lat="40.62251" lon="8.5731517"><ele>207.79999999999998</ele><time>2026-04-19T12:46:49.463Z</time></trkpt><trkpt lat="40.62245" lon="8.5732817"><ele>203.2</ele><time>2026-04-19T12:46:51.464Z</time></trkpt><trkpt lat="40.6224017" lon="8.5733867"><ele>198.6</ele><time>2026-04-19T12:46:53.464Z</time></trkpt><trkpt lat="40.622365" lon="8.57352"><ele>194.0</ele><time>2026-04-19T12:46:55.464Z</time></trkpt><trkpt lat="40.622335" lon="8.5736667"><ele>191.50000000000003</ele><time>2026-04-19T12:46:57.464Z</time></trkpt><trkpt lat="40.6223183" lon="8.5738433"><ele>189.0</ele><time>2026-04-19T12:46:59.463Z</time></trkpt><trkpt lat="40.622315" lon="8.5739383"><ele>186.5</ele><time>2026-04-19T12:47:00.463Z</time></trkpt><trkpt lat="40.6223067" lon="8.5740333"><ele>184.0</ele><time>2026-04-19T12:47:01.463Z</time></trkpt><trkpt lat="40.6222933" lon="8.574125"><ele>181.5</ele><time>2026-04-19T12:47:02.463Z</time></trkpt><trkpt lat="40.6222833" lon="8.57421"><ele>179.0</ele><time>2026-04-19T12:47:03.463Z</time></trkpt><trkpt lat="40.6222883" lon="8.5742933"><ele>179.0</ele><time>2026-04-19T12:47:04.464Z</time></trkpt><trkpt lat="40.6222967" lon="8.5743783"><ele>179.0</ele><time>2026-04-19T12:47:05.463Z</time></trkpt><trkpt lat="40.6223133" lon="8.574515"><ele>179.0</ele><time>2026-04-19T12:47:07.464Z</time></trkpt><trkpt lat="40.6223417" lon="8.5746333"><ele>179.0</ele><time>2026-04-19T12:47:09.464Z</time></trkpt><trkpt lat="40.6223883" lon="8.5747383"><ele>179.0</ele><time>2026-04-19T12:47:11.464Z</time></trkpt><trkpt lat="40.6224417" lon="8.5748467"><ele>178.0</ele><time>2026-04-19T12:47:13.464Z</time></trkpt><trkpt lat="40.6225033" lon="8.574935"><ele>177.0</ele><time>2026-04-19T12:47:15.463Z</time></trkpt><trkpt lat="40.6225583" lon="8.5749917"><ele>176.0</ele><time>2026-04-19T12:47:17.463Z</time></trkpt><trkpt lat="40.62265" lon="8.57495"><ele>175.0</ele><time>2026-04-19T12:47:20.464Z</time></trkpt><trkpt lat="40.622685" lon="8.5748733"><ele>174.0</ele><time>2026-04-19T12:47:22.463Z</time></trkpt><trkpt lat="40.6227133" lon="8.5747967"><ele>173.0</ele><time>2026-04-19T12:47:24.464Z</time></trkpt><trkpt lat="40.622735" lon="8.574715"><ele>173.0</ele><time>2026-04-19T12:47:26.463Z</time></trkpt><trkpt lat="40.6227583" lon="8.574605"><ele>173.0</ele><time>2026-04-19T12:47:28.464Z</time></trkpt><trkpt lat="40.6228433" lon="8.574615"><ele>173.0</ele><time>2026-04-19T12:47:31.463Z</time></trkpt><trkpt lat="40.622905" lon="8.5747233"><ele>173.0</ele><time>2026-04-19T12:47:33.464Z</time></trkpt><trkpt lat="40.6229467" lon="8.5748833"><ele>173.0</ele><time>2026-04-19T12:47:35.463Z</time></trkpt><trkpt lat="40.6229583" lon="8.5749817"><ele>168.66666666666666</ele><time>2026-04-19T12:47:36.464Z</time></trkpt><trkpt lat="40.6229667" lon="8.5750867"><ele>164.33333333333331</ele><time>2026-04-19T12:47:37.463Z</time></trkpt><trkpt lat="40.6229717" lon="8.5752"><ele>160.0</ele><time>2026-04-19T12:47:38.463Z</time></trkpt><trkpt lat="40.6229733" lon="8.5753117"><ele>155.66666666666666</ele><time>2026-04-19T12:47:39.464Z</time></trkpt><trkpt lat="40.62297" lon="8.5754083"><ele>151.33333333333334</ele><time>2026-04-19T12:47:40.463Z</time></trkpt><trkpt lat="40.6229717" lon="8.5755033"><ele>147.0</ele><time>2026-04-19T12:47:41.463Z</time></trkpt><trkpt lat="40.6229667" lon="8.5755983"><ele>146.33333333333334</ele><time>2026-04-19T12:47:42.463Z</time></trkpt><trkpt lat="40.62296" lon="8.5756933"><ele>145.66666666666666</ele><time>2026-04-19T12:47:43.463Z</time></trkpt><trkpt lat="40.6229483" lon="8.57578"><ele>145.0</ele><time>2026-04-19T12:47:44.463Z</time></trkpt><trkpt lat="40.6229067" lon="8.5759183"><ele>144.33333333333331</ele><time>2026-04-19T12:47:46.463Z</time></trkpt><trkpt lat="40.6228833" lon="8.576"><ele>143.66666666666666</ele><time>2026-04-19T12:47:47.464Z</time></trkpt><trkpt lat="40.62286" lon="8.5760833"><ele>143.0</ele><time>2026-04-19T12:47:48.463Z</time></trkpt><trkpt lat="40.622845" lon="8.57617"><ele>143.7142857142857</ele><time>2026-04-19T12:47:49.463Z</time></trkpt><trkpt lat="40.622835" lon="8.57626"><ele>144.42857142857142</ele><time>2026-04-19T12:47:50.463Z</time></trkpt><trkpt lat="40.6228317" lon="8.5763567"><ele>145.14285714285714</ele><time>2026-04-19T12:47:51.463Z</time></trkpt><trkpt lat="40.62282" lon="8.576455"><ele>145.85714285714283</ele><time>2026-04-19T12:47:52.463Z</time></trkpt><trkpt lat="40.6228117" lon="8.5765483"><ele>146.57142857142856</ele><time>2026-04-19T12:47:53.463Z</time></trkpt><trkpt lat="40.6228033" lon="8.5766433"><ele>147.28571428571428</ele><time>2026-04-19T12:47:54.463Z</time></trkpt><trkpt lat="40.6228" lon="8.576735"><ele>148.0</ele><time>2026-04-19T12:47:55.464Z</time></trkpt><trkpt lat="40.6227983" lon="8.5768883"><ele>146.83333333333334</ele><time>2026-04-19T12:47:57.463Z</time></trkpt><trkpt lat="40.6228133" lon="8.5770383"><ele>145.66666666666669</ele><time>2026-04-19T12:47:59.463Z</time></trkpt><trkpt lat="40.6228267" lon="8.5771267"><ele>144.5</ele><time>2026-04-19T12:48:00.464Z</time></trkpt><trkpt lat="40.62283" lon="8.5772167"><ele>143.33333333333334</ele><time>2026-04-19T12:48:01.464Z</time></trkpt><trkpt lat="40.6228383" lon="8.577315"><ele>142.16666666666666</ele><time>2026-04-19T12:48:02.463Z</time></trkpt><trkpt lat="40.6228467" lon="8.5774217"><ele>141.0</ele><time>2026-04-19T12:48:03.463Z</time></trkpt><trkpt lat="40.6228583" lon="8.5775217"><ele>139.5</ele><time>2026-04-19T12:48:04.464Z</time></trkpt><trkpt lat="40.622875" lon="8.5776167"><ele>138.0</ele><time>2026-04-19T12:48:05.464Z</time></trkpt><trkpt lat="40.6228933" lon="8.5777117"><ele>136.5</ele><time>2026-04-19T12:48:06.464Z</time></trkpt><trkpt lat="40.62292" lon="8.5778083"><ele>135.0</ele><time>2026-04-19T12:48:07.464Z</time></trkpt><trkpt lat="40.6229533" lon="8.5779133"><ele>133.5</ele><time>2026-04-19T12:48:08.463Z</time></trkpt><trkpt lat="40.6229867" lon="8.5780033"><ele>132.0</ele><time>2026-04-19T12:48:09.463Z</time></trkpt><trkpt lat="40.6230317" lon="8.5780917"><ele>132.0</ele><time>2026-04-19T12:48:10.463Z</time></trkpt><trkpt lat="40.6230833" lon="8.5781617"><ele>132.0</ele><time>2026-04-19T12:48:11.463Z</time></trkpt><trkpt lat="40.6231383" lon="8.5782267"><ele>132.0</ele><time>2026-04-19T12:48:12.463Z</time></trkpt><trkpt lat="40.623225" lon="8.5783417"><ele>132.0</ele><time>2026-04-19T12:48:14.464Z</time></trkpt><trkpt lat="40.6232783" lon="8.5784367"><ele>132.0</ele><time>2026-04-19T12:48:16.464Z</time></trkpt><trkpt lat="40.6233183" lon="8.5785533"><ele>132.0</ele><time>2026-04-19T12:48:19.463Z</time></trkpt><trkpt lat="40.62333" lon="8.5786433"><ele>132.0</ele><time>2026-04-19T12:48:21.463Z</time></trkpt><trkpt lat="40.6233583" lon="8.5787367"><ele>132.0</ele><time>2026-04-19T12:48:23.463Z</time></trkpt><trkpt lat="40.6234333" lon="8.578785"><ele>132.0</ele><time>2026-04-19T12:48:25.463Z</time></trkpt><trkpt lat="40.6235217" lon="8.5788467"><ele>132.0</ele><time>2026-04-19T12:48:27.464Z</time></trkpt><trkpt lat="40.6236383" lon="8.5789367"><ele>135.0</ele><time>2026-04-19T12:48:29.463Z</time></trkpt><trkpt lat="40.6237033" lon="8.5789867"><ele>138.0</ele><time>2026-04-19T12:48:30.463Z</time></trkpt><trkpt lat="40.6238217" lon="8.5790683"><ele>141.0</ele><time>2026-04-19T12:48:32.463Z</time></trkpt><trkpt lat="40.623925" lon="8.5791183"><ele>144.0</ele><time>2026-04-19T12:48:34.463Z</time></trkpt><trkpt lat="40.623965" lon="8.5791917"><ele>147.0</ele><time>2026-04-19T12:48:37.463Z</time></trkpt><trkpt lat="40.6238917" lon="8.5792433"><ele>147.0</ele><time>2026-04-19T12:48:39.463Z</time></trkpt><trkpt lat="40.6238183" lon="8.5792633"><ele>147.0</ele><time>2026-04-19T12:48:40.464Z</time></trkpt><trkpt lat="40.6237283" lon="8.5792817"><ele>147.0</ele><time>2026-04-19T12:48:41.464Z</time></trkpt><trkpt lat="40.6236383" lon="8.5793033"><ele>147.0</ele><time>2026-04-19T12:48:42.464Z</time></trkpt><trkpt lat="40.62355" lon="8.5793283"><ele>147.0</ele><time>2026-04-19T12:48:43.463Z</time></trkpt><trkpt lat="40.6234683" lon="8.5793533"><ele>147.0</ele><time>2026-04-19T12:48:44.463Z</time></trkpt><trkpt lat="40.6233767" lon="8.5793833"><ele>144.75</ele><time>2026-04-19T12:48:45.464Z</time></trkpt><trkpt lat="40.62328" lon="8.579415"><ele>142.5</ele><time>2026-04-19T12:48:46.464Z</time></trkpt><trkpt lat="40.6231617" lon="8.5794583"><ele>140.25</ele><time>2026-04-19T12:48:47.463Z</time></trkpt><trkpt lat="40.62304" lon="8.5794933"><ele>138.0</ele><time>2026-04-19T12:48:48.464Z</time></trkpt><trkpt lat="40.6229383" lon="8.579535"><ele>140.8</ele><time>2026-04-19T12:48:49.463Z</time></trkpt><trkpt lat="40.6228517" lon="8.5795767"><ele>143.60000000000002</ele><time>2026-04-19T12:48:50.463Z</time></trkpt><trkpt lat="40.622765" lon="8.5796133"><ele>146.39999999999998</ele><time>2026-04-19T12:48:51.463Z</time></trkpt><trkpt lat="40.622685" lon="8.5796633"><ele>149.2</ele><time>2026-04-19T12:48:52.463Z</time></trkpt><trkpt lat="40.622595" lon="8.5797233"><ele>152.0</ele><time>2026-04-19T12:48:53.463Z</time></trkpt><trkpt lat="40.6225" lon="8.5798067"><ele>152.0</ele><time>2026-04-19T12:48:54.464Z</time></trkpt><trkpt lat="40.6223917" lon="8.579895"><ele>152.0</ele><time>2026-04-19T12:48:55.464Z</time></trkpt><trkpt lat="40.6222717" lon="8.58"><ele>152.0</ele><time>2026-04-19T12:48:56.464Z</time></trkpt><trkpt lat="40.6221567" lon="8.5800883"><ele>152.0</ele><time>2026-04-19T12:48:57.463Z</time></trkpt><trkpt lat="40.6220533" lon="8.5801783"><ele>152.79999999999998</ele><time>2026-04-19T12:48:58.464Z</time></trkpt><trkpt lat="40.6219617" lon="8.58026"><ele>153.6</ele><time>2026-04-19T12:48:59.463Z</time></trkpt><trkpt lat="40.6218717" lon="8.5803267"><ele>154.39999999999998</ele><time>2026-04-19T12:49:00.463Z</time></trkpt><trkpt lat="40.6217783" lon="8.5804017"><ele>155.2</ele><time>2026-04-19T12:49:01.464Z</time></trkpt><trkpt lat="40.6216783" lon="8.5804767"><ele>156.0</ele><time>2026-04-19T12:49:02.463Z</time></trkpt><trkpt lat="40.62158" lon="8.5805717"><ele>156.0</ele><time>2026-04-19T12:49:03.463Z</time></trkpt><trkpt lat="40.6214783" lon="8.5806567"><ele>156.0</ele><time>2026-04-19T12:49:04.464Z</time></trkpt><trkpt lat="40.62139" lon="8.5807383"><ele>156.0</ele><time>2026-04-19T12:49:05.464Z</time></trkpt><trkpt lat="40.6213067" lon="8.5808117"><ele>156.0</ele><time>2026-04-19T12:49:06.463Z</time></trkpt><trkpt lat="40.6212233" lon="8.580885"><ele>156.0</ele><time>2026-04-19T12:49:07.464Z</time></trkpt><trkpt lat="40.6211333" lon="8.58094"><ele>154.0</ele><time>2026-04-19T12:49:08.464Z</time></trkpt><trkpt lat="40.6210433" lon="8.5809833"><ele>152.0</ele><time>2026-04-19T12:49:09.463Z</time></trkpt><trkpt lat="40.620955" lon="8.581015"><ele>150.0</ele><time>2026-04-19T12:49:10.463Z</time></trkpt><trkpt lat="40.6208533" lon="8.5810367"><ele>148.0</ele><time>2026-04-19T12:49:11.463Z</time></trkpt><trkpt lat="40.62074" lon="8.5810467"><ele>146.0</ele><time>2026-04-19T12:49:12.463Z</time></trkpt><trkpt lat="40.620635" lon="8.5810467"><ele>146.0</ele><time>2026-04-19T12:49:13.464Z</time></trkpt><trkpt lat="40.6205317" lon="8.58104"><ele>146.0</ele><time>2026-04-19T12:49:14.463Z</time></trkpt><trkpt lat="40.6204267" lon="8.5810267"><ele>146.0</ele><time>2026-04-19T12:49:15.464Z</time></trkpt><trkpt lat="40.620325" lon="8.580995"><ele>146.0</ele><time>2026-04-19T12:49:16.464Z</time></trkpt><trkpt lat="40.6202217" lon="8.580955"><ele>146.0</ele><time>2026-04-19T12:49:17.464Z</time></trkpt><trkpt lat="40.6201383" lon="8.5809067"><ele>146.5</ele><time>2026-04-19T12:49:18.462Z</time></trkpt><trkpt lat="40.620065" lon="8.5808567"><ele>147.0</ele><time>2026-04-19T12:49:19.462Z</time></trkpt><trkpt lat="40.6199983" lon="8.5807967"><ele>147.5</ele><time>2026-04-19T12:49:20.462Z</time></trkpt><trkpt lat="40.619935" lon="8.5807433"><ele>148.0</ele><time>2026-04-19T12:49:21.462Z</time></trkpt><trkpt lat="40.619865" lon="8.5806867"><ele>148.5</ele><time>2026-04-19T12:49:22.462Z</time></trkpt><trkpt lat="40.6197967" lon="8.5806367"><ele>149.0</ele><time>2026-04-19T12:49:23.462Z</time></trkpt><trkpt lat="40.6197283" lon="8.5806"><ele>149.0</ele><time>2026-04-19T12:49:24.462Z</time></trkpt><trkpt lat="40.6196533" lon="8.5805717"><ele>149.0</ele><time>2026-04-19T12:49:25.463Z</time></trkpt><trkpt lat="40.6195733" lon="8.5805583"><ele>149.0</ele><time>2026-04-19T12:49:26.463Z</time></trkpt><trkpt lat="40.6194983" lon="8.58057"><ele>149.0</ele><time>2026-04-19T12:49:27.463Z</time></trkpt><trkpt lat="40.61942" lon="8.5806017"><ele>149.0</ele><time>2026-04-19T12:49:28.463Z</time></trkpt><trkpt lat="40.61934" lon="8.58065"><ele>149.0</ele><time>2026-04-19T12:49:29.463Z</time></trkpt><trkpt lat="40.6192617" lon="8.58072"><ele>148.6</ele><time>2026-04-19T12:49:30.462Z</time></trkpt><trkpt lat="40.6191783" lon="8.5808033"><ele>148.2</ele><time>2026-04-19T12:49:31.463Z</time></trkpt><trkpt lat="40.6190983" lon="8.5809"><ele>147.79999999999998</ele><time>2026-04-19T12:49:32.463Z</time></trkpt><trkpt lat="40.6190133" lon="8.581005"><ele>147.4</ele><time>2026-04-19T12:49:33.462Z</time></trkpt><trkpt lat="40.61893" lon="8.5811117"><ele>147.0</ele><time>2026-04-19T12:49:34.463Z</time></trkpt><trkpt lat="40.6188467" lon="8.5812033"><ele>147.6</ele><time>2026-04-19T12:49:35.462Z</time></trkpt><trkpt lat="40.618755" lon="8.5812967"><ele>148.2</ele><time>2026-04-19T12:49:36.462Z</time></trkpt><trkpt lat="40.6186633" lon="8.5813917"><ele>148.8</ele><time>2026-04-19T12:49:37.462Z</time></trkpt><trkpt lat="40.6185733" lon="8.5814717"><ele>149.4</ele><time>2026-04-19T12:49:38.462Z</time></trkpt><trkpt lat="40.618495" lon="8.58155"><ele>150.0</ele><time>2026-04-19T12:49:39.463Z</time></trkpt><trkpt lat="40.61842" lon="8.5816433"><ele>150.0</ele><time>2026-04-19T12:49:40.462Z</time></trkpt><trkpt lat="40.6183583" lon="8.581735"><ele>150.0</ele><time>2026-04-19T12:49:41.462Z</time></trkpt><trkpt lat="40.6183017" lon="8.5818333"><ele>150.0</ele><time>2026-04-19T12:49:42.462Z</time></trkpt><trkpt lat="40.618245" lon="8.581935"><ele>150.0</ele><time>2026-04-19T12:49:43.462Z</time></trkpt><trkpt lat="40.61818" lon="8.58204"><ele>150.0</ele><time>2026-04-19T12:49:44.463Z</time></trkpt><trkpt lat="40.6181133" lon="8.5821567"><ele>149.8</ele><time>2026-04-19T12:49:45.463Z</time></trkpt><trkpt lat="40.6180567" lon="8.5822667"><ele>149.6</ele><time>2026-04-19T12:49:46.462Z</time></trkpt><trkpt lat="40.618" lon="8.58238"><ele>149.4</ele><time>2026-04-19T12:49:47.463Z</time></trkpt><trkpt lat="40.6179367" lon="8.58251"><ele>149.2</ele><time>2026-04-19T12:49:48.462Z</time></trkpt><trkpt lat="40.61787" lon="8.5826317"><ele>149.0</ele><time>2026-04-19T12:49:49.462Z</time></trkpt><trkpt lat="40.6178" lon="8.5827633"><ele>154.0</ele><time>2026-04-19T12:49:50.462Z</time></trkpt><trkpt lat="40.6177367" lon="8.58287"><ele>159.0</ele><time>2026-04-19T12:49:51.462Z</time></trkpt><trkpt lat="40.6176683" lon="8.5829667"><ele>164.0</ele><time>2026-04-19T12:49:52.463Z</time></trkpt><trkpt lat="40.6175883" lon="8.5830533"><ele>169.0</ele><time>2026-04-19T12:49:53.462Z</time></trkpt><trkpt lat="40.617505" lon="8.5831317"><ele>174.0</ele><time>2026-04-19T12:49:54.463Z</time></trkpt><trkpt lat="40.61743" lon="8.5831917"><ele>174.0</ele><time>2026-04-19T12:49:55.462Z</time></trkpt><trkpt lat="40.6173783" lon="8.58324"><ele>174.0</ele><time>2026-04-19T12:49:56.462Z</time></trkpt><trkpt lat="40.6173433" lon="8.5833133"><ele>174.0</ele><time>2026-04-19T12:49:58.462Z</time></trkpt><trkpt lat="40.6174017" lon="8.5833583"><ele>174.0</ele><time>2026-04-19T12:50:00.463Z</time></trkpt><trkpt lat="40.617465" lon="8.58334"><ele>174.0</ele><time>2026-04-19T12:50:01.462Z</time></trkpt><trkpt lat="40.61754" lon="8.5833"><ele>174.0</ele><time>2026-04-19T12:50:02.462Z</time></trkpt><trkpt lat="40.6176133" lon="8.5832683"><ele>174.0</ele><time>2026-04-19T12:50:03.463Z</time></trkpt><trkpt lat="40.6176783" lon="8.583245"><ele>174.0</ele><time>2026-04-19T12:50:04.462Z</time></trkpt><trkpt lat="40.61774" lon="8.5832133"><ele>174.0</ele><time>2026-04-19T12:50:05.463Z</time></trkpt><trkpt lat="40.6178267" lon="8.583175"><ele>174.0</ele><time>2026-04-19T12:50:07.462Z</time></trkpt><trkpt lat="40.6178117" lon="8.58329"><ele>174.0</ele><time>2026-04-19T12:50:11.462Z</time></trkpt><trkpt lat="40.6177517" lon="8.583335"><ele>174.0</ele><time>2026-04-19T12:50:12.463Z</time></trkpt><trkpt lat="40.617695" lon="8.58339"><ele>174.0</ele><time>2026-04-19T12:50:13.462Z</time></trkpt><trkpt lat="40.6176317" lon="8.5834283"><ele>174.0</ele><time>2026-04-19T12:50:14.463Z</time></trkpt><trkpt lat="40.617535" lon="8.583505"><ele>174.0</ele><time>2026-04-19T12:50:16.463Z</time></trkpt><trkpt lat="40.61751" lon="8.5835817"><ele>174.0</ele><time>2026-04-19T12:50:19.463Z</time></trkpt><trkpt lat="40.617585" lon="8.5835933"><ele>174.0</ele><time>2026-04-19T12:50:24.462Z</time></trkpt><trkpt lat="40.61769" lon="8.5835133"><ele>174.0</ele><time>2026-04-19T12:50:26.462Z</time></trkpt><trkpt lat="40.6177567" lon="8.5834533"><ele>179.6</ele><time>2026-04-19T12:50:27.463Z</time></trkpt><trkpt lat="40.6178267" lon="8.5834067"><ele>185.2</ele><time>2026-04-19T12:50:28.462Z</time></trkpt><trkpt lat="40.61791" lon="8.5833717"><ele>190.79999999999998</ele><time>2026-04-19T12:50:29.463Z</time></trkpt><trkpt lat="40.6179983" lon="8.5833383"><ele>196.39999999999998</ele><time>2026-04-19T12:50:30.463Z</time></trkpt><trkpt lat="40.6180917" lon="8.583285"><ele>202.0</ele><time>2026-04-19T12:50:31.462Z</time></trkpt><trkpt lat="40.6181833" lon="8.583225"><ele>202.0</ele><time>2026-04-19T12:50:32.463Z</time></trkpt><trkpt lat="40.6182883" lon="8.5831533"><ele>202.0</ele><time>2026-04-19T12:50:33.462Z</time></trkpt><trkpt lat="40.61839" lon="8.5830833"><ele>202.0</ele><time>2026-04-19T12:50:34.462Z</time></trkpt><trkpt lat="40.618505" lon="8.5829883"><ele>202.0</ele><time>2026-04-19T12:50:35.462Z</time></trkpt><trkpt lat="40.618605" lon="8.5828967"><ele>201.0</ele><time>2026-04-19T12:50:36.462Z</time></trkpt><trkpt lat="40.6186917" lon="8.5828217"><ele>200.0</ele><time>2026-04-19T12:50:37.463Z</time></trkpt><trkpt lat="40.6187833" lon="8.5827717"><ele>199.0</ele><time>2026-04-19T12:50:38.462Z</time></trkpt><trkpt lat="40.6188883" lon="8.5827633"><ele>198.0</ele><time>2026-04-19T12:50:39.462Z</time></trkpt><trkpt lat="40.6190117" lon="8.582765"><ele>197.0</ele><time>2026-04-19T12:50:40.462Z</time></trkpt><trkpt lat="40.6191483" lon="8.5827733"><ele>197.0</ele><time>2026-04-19T12:50:41.462Z</time></trkpt><trkpt lat="40.61928" lon="8.5827617"><ele>197.0</ele><time>2026-04-19T12:50:42.463Z</time></trkpt><trkpt lat="40.619425" lon="8.5827383"><ele>197.0</ele><time>2026-04-19T12:50:43.462Z</time></trkpt><trkpt lat="40.6195667" lon="8.5827"><ele>197.0</ele><time>2026-04-19T12:50:44.462Z</time></trkpt><trkpt lat="40.6197117" lon="8.5826617"><ele>199.25</ele><time>2026-04-19T12:50:45.462Z</time></trkpt><trkpt lat="40.619845" lon="8.5826333"><ele>201.5</ele><time>2026-04-19T12:50:46.462Z</time></trkpt><trkpt lat="40.6199667" lon="8.5826"><ele>203.75</ele><time>2026-04-19T12:50:47.462Z</time></trkpt><trkpt lat="40.62007" lon="8.58258"><ele>206.0</ele><time>2026-04-19T12:50:48.462Z</time></trkpt><trkpt lat="40.6201633" lon="8.5825783"><ele>206.0</ele><time>2026-04-19T12:50:49.462Z</time></trkpt><trkpt lat="40.6202533" lon="8.5826133"><ele>206.0</ele><time>2026-04-19T12:50:50.463Z</time></trkpt><trkpt lat="40.62035" lon="8.5826767"><ele>206.0</ele><time>2026-04-19T12:50:51.462Z</time></trkpt><trkpt lat="40.6204467" lon="8.5827333"><ele>206.0</ele><time>2026-04-19T12:50:52.462Z</time></trkpt><trkpt lat="40.620545" lon="8.582795"><ele>206.0</ele><time>2026-04-19T12:50:53.462Z</time></trkpt><trkpt lat="40.62063" lon="8.5828617"><ele>210.00000000000003</ele><time>2026-04-19T12:50:54.463Z</time></trkpt><trkpt lat="40.62069" lon="8.58292"><ele>214.0</ele><time>2026-04-19T12:50:55.463Z</time></trkpt><trkpt lat="40.6207383" lon="8.58304"><ele>218.0</ele><time>2026-04-19T12:50:57.462Z</time></trkpt><trkpt lat="40.620665" lon="8.583145"><ele>222.0</ele><time>2026-04-19T12:50:59.462Z</time></trkpt><trkpt lat="40.6205967" lon="8.5831583"><ele>226.00000000000003</ele><time>2026-04-19T12:51:00.462Z</time></trkpt><trkpt lat="40.62053" lon="8.5831517"><ele>230.0</ele><time>2026-04-19T12:51:01.462Z</time></trkpt><trkpt lat="40.6204483" lon="8.5831783"><ele>230.0</ele><time>2026-04-19T12:51:03.462Z</time></trkpt><trkpt lat="40.620435" lon="8.58326"><ele>230.0</ele><time>2026-04-19T12:51:10.462Z</time></trkpt><trkpt lat="40.6205617" lon="8.5832433"><ele>230.0</ele><time>2026-04-19T12:51:12.463Z</time></trkpt><trkpt lat="40.6206533" lon="8.58323"><ele>230.0</ele><time>2026-04-19T12:51:13.463Z</time></trkpt><trkpt lat="40.6207683" lon="8.5832117"><ele>230.0</ele><time>2026-04-19T12:51:14.462Z</time></trkpt><trkpt lat="40.620895" lon="8.5832067"><ele>230.0</ele><time>2026-04-19T12:51:15.462Z</time></trkpt><trkpt lat="40.6210217" lon="8.583205"><ele>230.0</ele><time>2026-04-19T12:51:16.463Z</time></trkpt><trkpt lat="40.6211533" lon="8.583205"><ele>230.0</ele><time>2026-04-19T12:51:17.463Z</time></trkpt><trkpt lat="40.621285" lon="8.5832317"><ele>230.0</ele><time>2026-04-19T12:51:18.462Z</time></trkpt><trkpt lat="40.62141" lon="8.583305"><ele>229.75</ele><time>2026-04-19T12:51:19.462Z</time></trkpt><trkpt lat="40.6215117" lon="8.58341"><ele>229.5</ele><time>2026-04-19T12:51:20.463Z</time></trkpt><trkpt lat="40.621585" lon="8.583555"><ele>229.25</ele><time>2026-04-19T12:51:21.462Z</time></trkpt><trkpt lat="40.6216233" lon="8.58372"><ele>229.0</ele><time>2026-04-19T12:51:22.463Z</time></trkpt><trkpt lat="40.6216367" lon="8.5838967"><ele>228.0</ele><time>2026-04-19T12:51:23.462Z</time></trkpt><trkpt lat="40.621605" lon="8.5841017"><ele>227.0</ele><time>2026-04-19T12:51:24.462Z</time></trkpt><trkpt lat="40.6215433" lon="8.5843167"><ele>226.0</ele><time>2026-04-19T12:51:25.463Z</time></trkpt><trkpt lat="40.6214817" lon="8.5845467"><ele>224.0</ele><time>2026-04-19T12:51:26.462Z</time></trkpt><trkpt lat="40.6214333" lon="8.5847633"><ele>222.0</ele><time>2026-04-19T12:51:27.462Z</time></trkpt><trkpt lat="40.6213967" lon="8.5849783"><ele>220.0</ele><time>2026-04-19T12:51:28.462Z</time></trkpt><trkpt lat="40.62137" lon="8.5851917"><ele>219.0</ele><time>2026-04-19T12:51:29.463Z</time></trkpt><trkpt lat="40.6213633" lon="8.5854067"><ele>218.0</ele><time>2026-04-19T12:51:30.462Z</time></trkpt><trkpt lat="40.621375" lon="8.585635"><ele>217.0</ele><time>2026-04-19T12:51:31.462Z</time></trkpt><trkpt lat="40.6214067" lon="8.585865"><ele>217.0</ele><time>2026-04-19T12:51:32.462Z</time></trkpt><trkpt lat="40.621455" lon="8.5861"><ele>217.0</ele><time>2026-04-19T12:51:33.462Z</time></trkpt><trkpt lat="40.621495" lon="8.5863"><ele>217.0</ele><time>2026-04-19T12:51:34.462Z</time></trkpt><trkpt lat="40.6215417" lon="8.5865067"><ele>216.25</ele><time>2026-04-19T12:51:35.463Z</time></trkpt><trkpt lat="40.6215767" lon="8.5867"><ele>215.5</ele><time>2026-04-19T12:51:36.463Z</time></trkpt><trkpt lat="40.6216067" lon="8.5868833"><ele>214.75</ele><time>2026-04-19T12:51:37.462Z</time></trkpt><trkpt lat="40.6216183" lon="8.5870533"><ele>214.0</ele><time>2026-04-19T12:51:38.462Z</time></trkpt><trkpt lat="40.6216217" lon="8.587215"><ele>212.75</ele><time>2026-04-19T12:51:39.462Z</time></trkpt><trkpt lat="40.6216133" lon="8.5873733"><ele>211.5</ele><time>2026-04-19T12:51:40.462Z</time></trkpt><trkpt lat="40.621595" lon="8.5875333"><ele>210.25</ele><time>2026-04-19T12:51:41.462Z</time></trkpt><trkpt lat="40.6215667" lon="8.58772"><ele>209.0</ele><time>2026-04-19T12:51:42.463Z</time></trkpt><trkpt lat="40.6215367" lon="8.5879317"><ele>207.66666666666669</ele><time>2026-04-19T12:51:43.463Z</time></trkpt><trkpt lat="40.6215067" lon="8.5881533"><ele>206.33333333333331</ele><time>2026-04-19T12:51:44.462Z</time></trkpt><trkpt lat="40.621475" lon="8.588385"><ele>205.0</ele><time>2026-04-19T12:51:45.463Z</time></trkpt><trkpt lat="40.62145" lon="8.5886217"><ele>203.0</ele><time>2026-04-19T12:51:46.462Z</time></trkpt><trkpt lat="40.6214083" lon="8.588865"><ele>201.0</ele><time>2026-04-19T12:51:47.463Z</time></trkpt><trkpt lat="40.6213567" lon="8.5891133"><ele>199.0</ele><time>2026-04-19T12:51:48.463Z</time></trkpt><trkpt lat="40.62128" lon="8.5893567"><ele>197.66666666666666</ele><time>2026-04-19T12:51:49.462Z</time></trkpt><trkpt lat="40.62118" lon="8.5896017"><ele>196.33333333333331</ele><time>2026-04-19T12:51:50.462Z</time></trkpt><trkpt lat="40.62107" lon="8.5898633"><ele>195.0</ele><time>2026-04-19T12:51:51.462Z</time></trkpt><trkpt lat="40.620965" lon="8.5901367"><ele>198.0</ele><time>2026-04-19T12:51:52.463Z</time></trkpt><trkpt lat="40.6208683" lon="8.5904167"><ele>201.0</ele><time>2026-04-19T12:51:53.462Z</time></trkpt><trkpt lat="40.6207783" lon="8.590695"><ele>201.0</ele><time>2026-04-19T12:51:54.463Z</time></trkpt><trkpt lat="40.6206983" lon="8.5909667"><ele>201.0</ele><time>2026-04-19T12:51:55.463Z</time></trkpt><trkpt lat="40.6206483" lon="8.5912517"><ele>201.0</ele><time>2026-04-19T12:51:56.462Z</time></trkpt><trkpt lat="40.6206233" lon="8.5915517"><ele>199.5</ele><time>2026-04-19T12:51:57.463Z</time></trkpt><trkpt lat="40.62061" lon="8.5918683"><ele>198.0</ele><time>2026-04-19T12:51:58.462Z</time></trkpt><trkpt lat="40.6206017" lon="8.5921833"><ele>197.5</ele><time>2026-04-19T12:51:59.462Z</time></trkpt><trkpt lat="40.6205917" lon="8.59251"><ele>197.0</ele><time>2026-04-19T12:52:00.462Z</time></trkpt><trkpt lat="40.620585" lon="8.5928283"><ele>197.0</ele><time>2026-04-19T12:52:01.463Z</time></trkpt><trkpt lat="40.620575" lon="8.5931333"><ele>197.0</ele><time>2026-04-19T12:52:02.462Z</time></trkpt><trkpt lat="40.62056" lon="8.5934167"><ele>197.0</ele><time>2026-04-19T12:52:03.463Z</time></trkpt><trkpt lat="40.6205483" lon="8.59368"><ele>196.66666666666669</ele><time>2026-04-19T12:52:04.463Z</time></trkpt><trkpt lat="40.62053" lon="8.5939367"><ele>196.33333333333331</ele><time>2026-04-19T12:52:05.462Z</time></trkpt><trkpt lat="40.62049" lon="8.5941767"><ele>196.0</ele><time>2026-04-19T12:52:06.462Z</time></trkpt><trkpt lat="40.620445" lon="8.5944083"><ele>193.66666666666666</ele><time>2026-04-19T12:52:07.462Z</time></trkpt><trkpt lat="40.6203833" lon="8.59465"><ele>191.33333333333331</ele><time>2026-04-19T12:52:08.463Z</time></trkpt><trkpt lat="40.6203067" lon="8.5949017"><ele>189.0</ele><time>2026-04-19T12:52:09.462Z</time></trkpt><trkpt lat="40.6202267" lon="8.5951483"><ele>186.33333333333334</ele><time>2026-04-19T12:52:10.462Z</time></trkpt><trkpt lat="40.6201583" lon="8.5953767"><ele>183.66666666666669</ele><time>2026-04-19T12:52:11.462Z</time></trkpt><trkpt lat="40.62009" lon="8.5955817"><ele>181.0</ele><time>2026-04-19T12:52:12.462Z</time></trkpt><trkpt lat="40.62002" lon="8.5957733"><ele>181.0</ele><time>2026-04-19T12:52:13.462Z</time></trkpt><trkpt lat="40.6199467" lon="8.5959483"><ele>181.0</ele><time>2026-04-19T12:52:14.462Z</time></trkpt><trkpt lat="40.6198667" lon="8.5961017"><ele>181.0</ele><time>2026-04-19T12:52:15.462Z</time></trkpt><trkpt lat="40.6197617" lon="8.5962383"><ele>181.0</ele><time>2026-04-19T12:52:16.462Z</time></trkpt><trkpt lat="40.619645" lon="8.5963417"><ele>177.66666666666669</ele><time>2026-04-19T12:52:17.463Z</time></trkpt><trkpt lat="40.61948" lon="8.5964133"><ele>174.33333333333334</ele><time>2026-04-19T12:52:18.463Z</time></trkpt><trkpt lat="40.6192967" lon="8.5964517"><ele>171.0</ele><time>2026-04-19T12:52:19.462Z</time></trkpt><trkpt lat="40.6190967" lon="8.59649"><ele>171.0</ele><time>2026-04-19T12:52:20.463Z</time></trkpt><trkpt lat="40.6188833" lon="8.5965383"><ele>171.0</ele><time>2026-04-19T12:52:21.463Z</time></trkpt><trkpt lat="40.6186733" lon="8.5965917"><ele>171.0</ele><time>2026-04-19T12:52:22.462Z</time></trkpt><trkpt lat="40.618485" lon="8.596645"><ele>171.0</ele><time>2026-04-19T12:52:23.462Z</time></trkpt><trkpt lat="40.6183083" lon="8.5967033"><ele>171.0</ele><time>2026-04-19T12:52:24.462Z</time></trkpt><trkpt lat="40.6181517" lon="8.5967717"><ele>171.0</ele><time>2026-04-19T12:52:25.463Z</time></trkpt><trkpt lat="40.618005" lon="8.5968417"><ele>171.0</ele><time>2026-04-19T12:52:26.462Z</time></trkpt><trkpt lat="40.6178833" lon="8.5969317"><ele>171.0</ele><time>2026-04-19T12:52:27.463Z</time></trkpt><trkpt lat="40.6177917" lon="8.597055"><ele>171.0</ele><time>2026-04-19T12:52:28.463Z</time></trkpt><trkpt lat="40.6177417" lon="8.5972133"><ele>171.0</ele><time>2026-04-19T12:52:29.462Z</time></trkpt><trkpt lat="40.61774" lon="8.5973783"><ele>171.0</ele><time>2026-04-19T12:52:30.463Z</time></trkpt><trkpt lat="40.6177833" lon="8.59755"><ele>171.0</ele><time>2026-04-19T12:52:31.462Z</time></trkpt><trkpt lat="40.6178667" lon="8.5977017"><ele>171.0</ele><time>2026-04-19T12:52:32.462Z</time></trkpt><trkpt lat="40.6179883" lon="8.5978183"><ele>171.0</ele><time>2026-04-19T12:52:33.463Z</time></trkpt><trkpt lat="40.61814" lon="8.597905"><ele>172.33333333333334</ele><time>2026-04-19T12:52:34.463Z</time></trkpt><trkpt lat="40.6183133" lon="8.5979633"><ele>173.66666666666669</ele><time>2026-04-19T12:52:35.462Z</time></trkpt><trkpt lat="40.618495" lon="8.59802"><ele>175.0</ele><time>2026-04-19T12:52:36.463Z</time></trkpt><trkpt lat="40.6186633" lon="8.5980917"><ele>175.0</ele><time>2026-04-19T12:52:37.462Z</time></trkpt><trkpt lat="40.6188133" lon="8.5981667"><ele>175.0</ele><time>2026-04-19T12:52:38.462Z</time></trkpt><trkpt lat="40.6189583" lon="8.5982317"><ele>175.0</ele><time>2026-04-19T12:52:39.462Z</time></trkpt><trkpt lat="40.6191117" lon="8.5983233"><ele>175.0</ele><time>2026-04-19T12:52:40.462Z</time></trkpt><trkpt lat="40.6192617" lon="8.598435"><ele>175.0</ele><time>2026-04-19T12:52:41.463Z</time></trkpt><trkpt lat="40.6194" lon="8.5985817"><ele>175.0</ele><time>2026-04-19T12:52:42.463Z</time></trkpt><trkpt lat="40.6195317" lon="8.5987583"><ele>174.33333333333334</ele><time>2026-04-19T12:52:43.462Z</time></trkpt><trkpt lat="40.6196567" lon="8.598945"><ele>173.66666666666666</ele><time>2026-04-19T12:52:44.462Z</time></trkpt><trkpt lat="40.6197717" lon="8.5991317"><ele>173.0</ele><time>2026-04-19T12:52:45.463Z</time></trkpt><trkpt lat="40.619865" lon="8.5993183"><ele>176.25</ele><time>2026-04-19T12:52:46.463Z</time></trkpt><trkpt lat="40.6199467" lon="8.5995033"><ele>179.5</ele><time>2026-04-19T12:52:47.463Z</time></trkpt><trkpt lat="40.6200217" lon="8.599665"><ele>182.75</ele><time>2026-04-19T12:52:48.462Z</time></trkpt><trkpt lat="40.6200733" lon="8.5998383"><ele>186.0</ele><time>2026-04-19T12:52:49.462Z</time></trkpt><trkpt lat="40.6201333" lon="8.60002"><ele>186.0</ele><time>2026-04-19T12:52:50.462Z</time></trkpt><trkpt lat="40.6201817" lon="8.60019"><ele>186.0</ele><time>2026-04-19T12:52:51.463Z</time></trkpt><trkpt lat="40.6202317" lon="8.60038"><ele>186.0</ele><time>2026-04-19T12:52:52.462Z</time></trkpt><trkpt lat="40.6202817" lon="8.6005733"><ele>186.0</ele><time>2026-04-19T12:52:53.463Z</time></trkpt><trkpt lat="40.6203217" lon="8.6007783"><ele>183.33333333333334</ele><time>2026-04-19T12:52:54.462Z</time></trkpt><trkpt lat="40.62034" lon="8.6009917"><ele>180.66666666666669</ele><time>2026-04-19T12:52:55.462Z</time></trkpt><trkpt lat="40.6203367" lon="8.6012167"><ele>178.0</ele><time>2026-04-19T12:52:56.463Z</time></trkpt><trkpt lat="40.6203183" lon="8.6014433"><ele>181.33333333333334</ele><time>2026-04-19T12:52:57.462Z</time></trkpt><trkpt lat="40.6202883" lon="8.6016717"><ele>184.66666666666666</ele><time>2026-04-19T12:52:58.463Z</time></trkpt><trkpt lat="40.6202433" lon="8.6019217"><ele>188.0</ele><time>2026-04-19T12:52:59.463Z</time></trkpt><trkpt lat="40.6202" lon="8.602175"><ele>188.0</ele><time>2026-04-19T12:53:00.462Z</time></trkpt><trkpt lat="40.6201533" lon="8.6023983"><ele>188.0</ele><time>2026-04-19T12:53:01.463Z</time></trkpt><trkpt lat="40.6201083" lon="8.6026017"><ele>188.0</ele><time>2026-04-19T12:53:02.463Z</time></trkpt><trkpt lat="40.6200567" lon="8.602805"><ele>186.0</ele><time>2026-04-19T12:53:03.462Z</time></trkpt><trkpt lat="40.6199817" lon="8.603005"><ele>184.0</ele><time>2026-04-19T12:53:04.462Z</time></trkpt><trkpt lat="40.6198783" lon="8.6031833"><ele>182.0</ele><time>2026-04-19T12:53:05.462Z</time></trkpt><trkpt lat="40.6197433" lon="8.6033483"><ele>182.0</ele><time>2026-04-19T12:53:06.462Z</time></trkpt><trkpt lat="40.61958" lon="8.60349"><ele>182.0</ele><time>2026-04-19T12:53:07.462Z</time></trkpt><trkpt lat="40.6193917" lon="8.6036183"><ele>182.0</ele><time>2026-04-19T12:53:08.462Z</time></trkpt><trkpt lat="40.6191967" lon="8.6037333"><ele>183.33333333333331</ele><time>2026-04-19T12:53:09.463Z</time></trkpt><trkpt lat="40.6189983" lon="8.6038467"><ele>184.66666666666666</ele><time>2026-04-19T12:53:10.463Z</time></trkpt><trkpt lat="40.61879" lon="8.6039683"><ele>186.0</ele><time>2026-04-19T12:53:11.462Z</time></trkpt><trkpt lat="40.61858" lon="8.604095"><ele>186.0</ele><time>2026-04-19T12:53:12.462Z</time></trkpt><trkpt lat="40.618365" lon="8.6042183"><ele>186.0</ele><time>2026-04-19T12:53:13.463Z</time></trkpt><trkpt lat="40.61815" lon="8.6043467"><ele>186.0</ele><time>2026-04-19T12:53:14.463Z</time></trkpt><trkpt lat="40.6179317" lon="8.60447"><ele>186.0</ele><time>2026-04-19T12:53:15.462Z</time></trkpt><trkpt lat="40.61771" lon="8.6046"><ele>184.5</ele><time>2026-04-19T12:53:16.462Z</time></trkpt><trkpt lat="40.6174883" lon="8.6047283"><ele>183.0</ele><time>2026-04-19T12:53:17.463Z</time></trkpt><trkpt lat="40.617265" lon="8.604865"><ele>183.0</ele><time>2026-04-19T12:53:18.462Z</time></trkpt><trkpt lat="40.6170483" lon="8.6049967"><ele>183.0</ele><time>2026-04-19T12:53:19.462Z</time></trkpt><trkpt lat="40.6168233" lon="8.6051233"><ele>186.5</ele><time>2026-04-19T12:53:20.462Z</time></trkpt><trkpt lat="40.6166" lon="8.6052517"><ele>190.0</ele><time>2026-04-19T12:53:21.463Z</time></trkpt><trkpt lat="40.6163783" lon="8.60539"><ele>190.0</ele><time>2026-04-19T12:53:22.462Z</time></trkpt><trkpt lat="40.616165" lon="8.60555"><ele>190.0</ele><time>2026-04-19T12:53:23.463Z</time></trkpt><trkpt lat="40.61596" lon="8.6057317"><ele>195.5</ele><time>2026-04-19T12:53:24.462Z</time></trkpt><trkpt lat="40.615755" lon="8.6059133"><ele>201.0</ele><time>2026-04-19T12:53:25.462Z</time></trkpt><trkpt lat="40.61555" lon="8.6061"><ele>200.0</ele><time>2026-04-19T12:53:26.462Z</time></trkpt><trkpt lat="40.6153383" lon="8.60628"><ele>199.0</ele><time>2026-04-19T12:53:27.462Z</time></trkpt><trkpt lat="40.6151283" lon="8.6064567"><ele>199.0</ele><time>2026-04-19T12:53:28.462Z</time></trkpt><trkpt lat="40.614915" lon="8.6066417"><ele>199.0</ele><time>2026-04-19T12:53:29.463Z</time></trkpt><trkpt lat="40.6147033" lon="8.6068267"><ele>199.5</ele><time>2026-04-19T12:53:30.462Z</time></trkpt><trkpt lat="40.6144883" lon="8.6070133"><ele>200.0</ele><time>2026-04-19T12:53:31.463Z</time></trkpt><trkpt lat="40.61428" lon="8.6072167"><ele>200.0</ele><time>2026-04-19T12:53:32.462Z</time></trkpt><trkpt lat="40.6140867" lon="8.6074367"><ele>200.0</ele><time>2026-04-19T12:53:33.463Z</time></trkpt><trkpt lat="40.6139067" lon="8.6076717"><ele>201.0</ele><time>2026-04-19T12:53:34.462Z</time></trkpt><trkpt lat="40.61374" lon="8.6078967"><ele>202.0</ele><time>2026-04-19T12:53:35.462Z</time></trkpt><trkpt lat="40.613575" lon="8.60811"><ele>202.0</ele><time>2026-04-19T12:53:36.463Z</time></trkpt><trkpt lat="40.6134267" lon="8.608315"><ele>202.0</ele><time>2026-04-19T12:53:37.462Z</time></trkpt><trkpt lat="40.6132933" lon="8.608515"><ele>202.0</ele><time>2026-04-19T12:53:38.462Z</time></trkpt><trkpt lat="40.6131717" lon="8.6087233"><ele>199.33333333333331</ele><time>2026-04-19T12:53:39.462Z</time></trkpt><trkpt lat="40.6130617" lon="8.6089517"><ele>196.66666666666669</ele><time>2026-04-19T12:53:40.462Z</time></trkpt><trkpt lat="40.61296" lon="8.6091917"><ele>194.0</ele><time>2026-04-19T12:53:41.463Z</time></trkpt><trkpt lat="40.612855" lon="8.60942"><ele>196.66666666666669</ele><time>2026-04-19T12:53:42.462Z</time></trkpt><trkpt lat="40.61276" lon="8.6096367"><ele>199.33333333333331</ele><time>2026-04-19T12:53:43.463Z</time></trkpt><trkpt lat="40.6126633" lon="8.6098383"><ele>202.0</ele><time>2026-04-19T12:53:44.463Z</time></trkpt><trkpt lat="40.612565" lon="8.6100317"><ele>202.0</ele><time>2026-04-19T12:53:45.462Z</time></trkpt><trkpt lat="40.61247" lon="8.610205"><ele>202.0</ele><time>2026-04-19T12:53:46.462Z</time></trkpt><trkpt lat="40.612385" lon="8.6103617"><ele>202.0</ele><time>2026-04-19T12:53:47.462Z</time></trkpt><trkpt lat="40.6123033" lon="8.6104917"><ele>202.0</ele><time>2026-04-19T12:53:48.463Z</time></trkpt><trkpt lat="40.6122217" lon="8.6105933"><ele>202.39999999999998</ele><time>2026-04-19T12:53:49.462Z</time></trkpt><trkpt lat="40.6121483" lon="8.61068"><ele>202.79999999999998</ele><time>2026-04-19T12:53:50.462Z</time></trkpt><trkpt lat="40.6120817" lon="8.6107517"><ele>203.2</ele><time>2026-04-19T12:53:51.462Z</time></trkpt><trkpt lat="40.6120267" lon="8.61081"><ele>203.6</ele><time>2026-04-19T12:53:52.462Z</time></trkpt><trkpt lat="40.6119233" lon="8.6108317"><ele>204.0</ele><time>2026-04-19T12:53:54.462Z</time></trkpt><trkpt lat="40.611835" lon="8.6108067"><ele>204.0</ele><time>2026-04-19T12:53:56.463Z</time></trkpt><trkpt lat="40.6117067" lon="8.6107983"><ele>204.0</ele><time>2026-04-19T12:53:58.463Z</time></trkpt><trkpt lat="40.6116283" lon="8.6108017"><ele>204.0</ele><time>2026-04-19T12:53:59.463Z</time></trkpt><trkpt lat="40.6115383" lon="8.6107933"><ele>204.0</ele><time>2026-04-19T12:54:00.462Z</time></trkpt><trkpt lat="40.61144" lon="8.610785"><ele>204.0</ele><time>2026-04-19T12:54:01.462Z</time></trkpt><trkpt lat="40.6113383" lon="8.6107733"><ele>204.0</ele><time>2026-04-19T12:54:02.462Z</time></trkpt><trkpt lat="40.6112517" lon="8.61077"><ele>204.0</ele><time>2026-04-19T12:54:03.463Z</time></trkpt><trkpt lat="40.6111617" lon="8.6107883"><ele>204.0</ele><time>2026-04-19T12:54:04.463Z</time></trkpt><trkpt lat="40.611085" lon="8.6108183"><ele>204.0</ele><time>2026-04-19T12:54:05.463Z</time></trkpt><trkpt lat="40.6110067" lon="8.610885"><ele>204.0</ele><time>2026-04-19T12:54:06.463Z</time></trkpt><trkpt lat="40.6109367" lon="8.6109533"><ele>204.0</ele><time>2026-04-19T12:54:07.462Z</time></trkpt><trkpt lat="40.610885" lon="8.611035"><ele>205.16666666666666</ele><time>2026-04-19T12:54:08.462Z</time></trkpt><trkpt lat="40.6108533" lon="8.61113"><ele>206.33333333333331</ele><time>2026-04-19T12:54:09.463Z</time></trkpt><trkpt lat="40.6108283" lon="8.6112233"><ele>207.5</ele><time>2026-04-19T12:54:10.463Z</time></trkpt><trkpt lat="40.6107733" lon="8.6113383"><ele>208.66666666666666</ele><time>2026-04-19T12:54:12.463Z</time></trkpt><trkpt lat="40.6106667" lon="8.6113517"><ele>209.83333333333331</ele><time>2026-04-19T12:54:14.462Z</time></trkpt><trkpt lat="40.6105967" lon="8.6113283"><ele>211.0</ele><time>2026-04-19T12:54:15.463Z</time></trkpt><trkpt lat="40.6105233" lon="8.6113117"><ele>210.99999999999997</ele><time>2026-04-19T12:54:16.462Z</time></trkpt><trkpt lat="40.61044" lon="8.6113117"><ele>211.0</ele><time>2026-04-19T12:54:17.462Z</time></trkpt><trkpt lat="40.6103667" lon="8.6113317"><ele>211.0</ele><time>2026-04-19T12:54:18.463Z</time></trkpt><trkpt lat="40.6102933" lon="8.611375"><ele>211.0</ele><time>2026-04-19T12:54:19.462Z</time></trkpt><trkpt lat="40.6102333" lon="8.611435"><ele>210.99999999999997</ele><time>2026-04-19T12:54:20.463Z</time></trkpt><trkpt lat="40.610185" lon="8.6115267"><ele>211.0</ele><time>2026-04-19T12:54:21.462Z</time></trkpt><trkpt lat="40.6101333" lon="8.6116333"><ele>212.8</ele><time>2026-04-19T12:54:22.463Z</time></trkpt><trkpt lat="40.6100817" lon="8.6117567"><ele>214.60000000000002</ele><time>2026-04-19T12:54:23.462Z</time></trkpt><trkpt lat="40.6100283" lon="8.6118767"><ele>216.4</ele><time>2026-04-19T12:54:24.462Z</time></trkpt><trkpt lat="40.609975" lon="8.61198"><ele>218.2</ele><time>2026-04-19T12:54:25.463Z</time></trkpt><trkpt lat="40.609935" lon="8.6120667"><ele>220.0</ele><time>2026-04-19T12:54:26.462Z</time></trkpt><trkpt lat="40.6098867" lon="8.6121433"><ele>220.16666666666666</ele><time>2026-04-19T12:54:27.463Z</time></trkpt><trkpt lat="40.60983" lon="8.6121933"><ele>220.33333333333331</ele><time>2026-04-19T12:54:28.463Z</time></trkpt><trkpt lat="40.60975" lon="8.6122133"><ele>220.5</ele><time>2026-04-19T12:54:29.462Z</time></trkpt><trkpt lat="40.609665" lon="8.6122183"><ele>220.66666666666669</ele><time>2026-04-19T12:54:30.462Z</time></trkpt><trkpt lat="40.6095617" lon="8.6121983"><ele>220.83333333333334</ele><time>2026-04-19T12:54:31.462Z</time></trkpt><trkpt lat="40.6094567" lon="8.6121883"><ele>221.0</ele><time>2026-04-19T12:54:32.462Z</time></trkpt><trkpt lat="40.60934" lon="8.6121667"><ele>222.8</ele><time>2026-04-19T12:54:33.463Z</time></trkpt><trkpt lat="40.60924" lon="8.6121533"><ele>224.60000000000002</ele><time>2026-04-19T12:54:34.462Z</time></trkpt><trkpt lat="40.6091367" lon="8.6121383"><ele>226.4</ele><time>2026-04-19T12:54:35.463Z</time></trkpt><trkpt lat="40.60903" lon="8.6121267"><ele>228.2</ele><time>2026-04-19T12:54:36.463Z</time></trkpt><trkpt lat="40.6089317" lon="8.61212"><ele>230.0</ele><time>2026-04-19T12:54:37.463Z</time></trkpt><trkpt lat="40.60883" lon="8.61212"><ele>230.0</ele><time>2026-04-19T12:54:38.463Z</time></trkpt><trkpt lat="40.6087317" lon="8.6121317"><ele>230.0</ele><time>2026-04-19T12:54:39.462Z</time></trkpt><trkpt lat="40.608645" lon="8.612175"><ele>230.0</ele><time>2026-04-19T12:54:40.463Z</time></trkpt><trkpt lat="40.6085717" lon="8.612245"><ele>230.0</ele><time>2026-04-19T12:54:41.463Z</time></trkpt><trkpt lat="40.6084983" lon="8.6123233"><ele>230.0</ele><time>2026-04-19T12:54:42.462Z</time></trkpt><trkpt lat="40.6084167" lon="8.6124133"><ele>232.75</ele><time>2026-04-19T12:54:43.462Z</time></trkpt><trkpt lat="40.6083367" lon="8.6125133"><ele>235.5</ele><time>2026-04-19T12:54:44.463Z</time></trkpt><trkpt lat="40.60825" lon="8.612615"><ele>238.25</ele><time>2026-04-19T12:54:45.462Z</time></trkpt><trkpt lat="40.60816" lon="8.6127217"><ele>241.0</ele><time>2026-04-19T12:54:46.463Z</time></trkpt><trkpt lat="40.6080717" lon="8.6128217"><ele>241.20000000000002</ele><time>2026-04-19T12:54:47.463Z</time></trkpt><trkpt lat="40.6079883" lon="8.6129217"><ele>241.40000000000003</ele><time>2026-04-19T12:54:48.462Z</time></trkpt><trkpt lat="40.607915" lon="8.6130117"><ele>241.6</ele><time>2026-04-19T12:54:49.463Z</time></trkpt><trkpt lat="40.6078433" lon="8.6130883"><ele>241.8</ele><time>2026-04-19T12:54:50.463Z</time></trkpt><trkpt lat="40.6077767" lon="8.613165"><ele>242.0</ele><time>2026-04-19T12:54:51.462Z</time></trkpt><trkpt lat="40.6077033" lon="8.6132333"><ele>242.0</ele><time>2026-04-19T12:54:52.462Z</time></trkpt><trkpt lat="40.6076267" lon="8.6132683"><ele>242.0</ele><time>2026-04-19T12:54:53.463Z</time></trkpt><trkpt lat="40.6075367" lon="8.61328"><ele>242.0</ele><time>2026-04-19T12:54:54.462Z</time></trkpt><trkpt lat="40.6074417" lon="8.6132867"><ele>242.0</ele><time>2026-04-19T12:54:55.462Z</time></trkpt><trkpt lat="40.6073317" lon="8.613305"><ele>242.0</ele><time>2026-04-19T12:54:56.462Z</time></trkpt><trkpt lat="40.6072267" lon="8.6133367"><ele>242.0</ele><time>2026-04-19T12:54:57.462Z</time></trkpt><trkpt lat="40.6071317" lon="8.61337"><ele>242.0</ele><time>2026-04-19T12:54:58.463Z</time></trkpt><trkpt lat="40.60703" lon="8.6134017"><ele>242.0</ele><time>2026-04-19T12:54:59.462Z</time></trkpt><trkpt lat="40.6069367" lon="8.613435"><ele>242.0</ele><time>2026-04-19T12:55:00.462Z</time></trkpt><trkpt lat="40.6068383" lon="8.6134667"><ele>242.0</ele><time>2026-04-19T12:55:01.462Z</time></trkpt><trkpt lat="40.6067383" lon="8.6134933"><ele>245.39999999999998</ele><time>2026-04-19T12:55:02.462Z</time></trkpt><trkpt lat="40.606635" lon="8.61351"><ele>248.79999999999998</ele><time>2026-04-19T12:55:03.463Z</time></trkpt><trkpt lat="40.606525" lon="8.613525"><ele>252.2</ele><time>2026-04-19T12:55:04.463Z</time></trkpt><trkpt lat="40.6064283" lon="8.6135467"><ele>255.6</ele><time>2026-04-19T12:55:05.463Z</time></trkpt><trkpt lat="40.606325" lon="8.6135567"><ele>259.0</ele><time>2026-04-19T12:55:06.462Z</time></trkpt><trkpt lat="40.6062133" lon="8.6135633"><ele>261.59999999999997</ele><time>2026-04-19T12:55:07.462Z</time></trkpt><trkpt lat="40.6061017" lon="8.6135683"><ele>264.2</ele><time>2026-04-19T12:55:08.463Z</time></trkpt><trkpt lat="40.6059983" lon="8.613565"><ele>266.79999999999995</ele><time>2026-04-19T12:55:09.463Z</time></trkpt><trkpt lat="40.6059067" lon="8.6135683"><ele>269.4</ele><time>2026-04-19T12:55:10.463Z</time></trkpt><trkpt lat="40.60582" lon="8.6135733"><ele>272.0</ele><time>2026-04-19T12:55:11.462Z</time></trkpt><trkpt lat="40.60573" lon="8.6135967"><ele>272.0</ele><time>2026-04-19T12:55:12.463Z</time></trkpt><trkpt lat="40.605635" lon="8.6136267"><ele>272.0</ele><time>2026-04-19T12:55:13.462Z</time></trkpt><trkpt lat="40.6055333" lon="8.6136633"><ele>272.0</ele><time>2026-04-19T12:55:14.462Z</time></trkpt><trkpt lat="40.60543" lon="8.613705"><ele>272.0</ele><time>2026-04-19T12:55:15.462Z</time></trkpt><trkpt lat="40.6053217" lon="8.613755"><ele>272.0</ele><time>2026-04-19T12:55:16.463Z</time></trkpt><trkpt lat="40.60522" lon="8.6138"><ele>270.0</ele><time>2026-04-19T12:55:17.462Z</time></trkpt><trkpt lat="40.6051283" lon="8.6138533"><ele>268.0</ele><time>2026-04-19T12:55:18.462Z</time></trkpt><trkpt lat="40.6050417" lon="8.613895"><ele>266.0</ele><time>2026-04-19T12:55:19.463Z</time></trkpt><trkpt lat="40.6049533" lon="8.6139283"><ele>264.0</ele><time>2026-04-19T12:55:20.463Z</time></trkpt><trkpt lat="40.6048617" lon="8.6139583"><ele>262.0</ele><time>2026-04-19T12:55:21.462Z</time></trkpt><trkpt lat="40.6047633" lon="8.6139717"><ele>262.0</ele><time>2026-04-19T12:55:22.462Z</time></trkpt><trkpt lat="40.6046667" lon="8.61398"><ele>262.0</ele><time>2026-04-19T12:55:23.463Z</time></trkpt><trkpt lat="40.6045617" lon="8.6139817"><ele>262.0</ele><time>2026-04-19T12:55:24.463Z</time></trkpt><trkpt lat="40.6044483" lon="8.6139833"><ele>262.0</ele><time>2026-04-19T12:55:25.462Z</time></trkpt><trkpt lat="40.6043317" lon="8.613975"><ele>262.0</ele><time>2026-04-19T12:55:26.463Z</time></trkpt><trkpt lat="40.604195" lon="8.61396"><ele>264.5</ele><time>2026-04-19T12:55:27.462Z</time></trkpt><trkpt lat="40.604065" lon="8.6139567"><ele>267.0</ele><time>2026-04-19T12:55:28.463Z</time></trkpt><trkpt lat="40.6039417" lon="8.6139517"><ele>269.5</ele><time>2026-04-19T12:55:29.462Z</time></trkpt><trkpt lat="40.60384" lon="8.6139567"><ele>272.0</ele><time>2026-04-19T12:55:30.462Z</time></trkpt><trkpt lat="40.6037433" lon="8.6139683"><ele>275.4</ele><time>2026-04-19T12:55:31.462Z</time></trkpt><trkpt lat="40.6036483" lon="8.61399"><ele>278.79999999999995</ele><time>2026-04-19T12:55:32.463Z</time></trkpt><trkpt lat="40.6035533" lon="8.614025"><ele>282.2</ele><time>2026-04-19T12:55:33.463Z</time></trkpt><trkpt lat="40.6034583" lon="8.61407"><ele>285.59999999999997</ele><time>2026-04-19T12:55:34.463Z</time></trkpt><trkpt lat="40.6033633" lon="8.614125"><ele>289.0</ele><time>2026-04-19T12:55:35.462Z</time></trkpt><trkpt lat="40.60328" lon="8.6142033"><ele>289.0</ele><time>2026-04-19T12:55:36.462Z</time></trkpt><trkpt lat="40.6032083" lon="8.6142883"><ele>289.0</ele><time>2026-04-19T12:55:37.462Z</time></trkpt><trkpt lat="40.6031433" lon="8.6143733"><ele>289.0</ele><time>2026-04-19T12:55:38.462Z</time></trkpt><trkpt lat="40.6030867" lon="8.614475"><ele>289.0</ele><time>2026-04-19T12:55:39.462Z</time></trkpt><trkpt lat="40.6030267" lon="8.61457"><ele>289.0</ele><time>2026-04-19T12:55:40.462Z</time></trkpt><trkpt lat="40.6029667" lon="8.6146883"><ele>289.59999999999997</ele><time>2026-04-19T12:55:41.462Z</time></trkpt><trkpt lat="40.6028983" lon="8.614795"><ele>290.2</ele><time>2026-04-19T12:55:42.462Z</time></trkpt><trkpt lat="40.6028417" lon="8.6148783"><ele>290.79999999999995</ele><time>2026-04-19T12:55:43.461Z</time></trkpt><trkpt lat="40.6027917" lon="8.614935"><ele>291.4</ele><time>2026-04-19T12:55:44.462Z</time></trkpt><trkpt lat="40.6026983" lon="8.6149583"><ele>292.0</ele><time>2026-04-19T12:55:46.461Z</time></trkpt><trkpt lat="40.6025933" lon="8.6148417"><ele>292.0</ele><time>2026-04-19T12:55:48.461Z</time></trkpt><trkpt lat="40.6025417" lon="8.6147567"><ele>292.0</ele><time>2026-04-19T12:55:49.461Z</time></trkpt><trkpt lat="40.602485" lon="8.6146817"><ele>292.0</ele><time>2026-04-19T12:55:50.461Z</time></trkpt><trkpt lat="40.6024283" lon="8.6146283"><ele>292.0</ele><time>2026-04-19T12:55:51.461Z</time></trkpt><trkpt lat="40.602355" lon="8.614605"><ele>292.0</ele><time>2026-04-19T12:55:52.462Z</time></trkpt><trkpt lat="40.6022717" lon="8.614615"><ele>292.0</ele><time>2026-04-19T12:55:53.461Z</time></trkpt><trkpt lat="40.6021767" lon="8.6146467"><ele>292.0</ele><time>2026-04-19T12:55:54.461Z</time></trkpt><trkpt lat="40.6020833" lon="8.6146833"><ele>292.0</ele><time>2026-04-19T12:55:55.461Z</time></trkpt><trkpt lat="40.6019833" lon="8.614705"><ele>292.0</ele><time>2026-04-19T12:55:56.462Z</time></trkpt><trkpt lat="40.6018967" lon="8.6147067"><ele>292.0</ele><time>2026-04-19T12:55:57.461Z</time></trkpt><trkpt lat="40.6018117" lon="8.6146883"><ele>292.0</ele><time>2026-04-19T12:55:58.462Z</time></trkpt><trkpt lat="40.6017167" lon="8.6146583"><ele>293.0</ele><time>2026-04-19T12:55:59.461Z</time></trkpt><trkpt lat="40.6016167" lon="8.6146267"><ele>294.0</ele><time>2026-04-19T12:56:00.462Z</time></trkpt><trkpt lat="40.601515" lon="8.6145983"><ele>295.0</ele><time>2026-04-19T12:56:01.461Z</time></trkpt><trkpt lat="40.6014133" lon="8.614575"><ele>296.0</ele><time>2026-04-19T12:56:02.462Z</time></trkpt><trkpt lat="40.6013183" lon="8.6145533"><ele>297.0</ele><time>2026-04-19T12:56:03.461Z</time></trkpt><trkpt lat="40.6012333" lon="8.6145383"><ele>298.6</ele><time>2026-04-19T12:56:04.462Z</time></trkpt><trkpt lat="40.6011633" lon="8.61454"><ele>300.2</ele><time>2026-04-19T12:56:05.461Z</time></trkpt><trkpt lat="40.6010533" lon="8.6145617"><ele>301.8</ele><time>2026-04-19T12:56:07.462Z</time></trkpt><trkpt lat="40.6009417" lon="8.614645"><ele>303.4</ele><time>2026-04-19T12:56:09.461Z</time></trkpt><trkpt lat="40.6008833" lon="8.6147167"><ele>305.0</ele><time>2026-04-19T12:56:10.462Z</time></trkpt><trkpt lat="40.6008317" lon="8.6147967"><ele>305.0</ele><time>2026-04-19T12:56:11.462Z</time></trkpt><trkpt lat="40.600785" lon="8.6148717"><ele>305.0</ele><time>2026-04-19T12:56:12.461Z</time></trkpt><trkpt lat="40.6007367" lon="8.6149383"><ele>305.0</ele><time>2026-04-19T12:56:13.462Z</time></trkpt><trkpt lat="40.6006717" lon="8.6149883"><ele>305.0</ele><time>2026-04-19T12:56:14.461Z</time></trkpt><trkpt lat="40.6006017" lon="8.615015"><ele>305.0</ele><time>2026-04-19T12:56:15.461Z</time></trkpt><trkpt lat="40.6005167" lon="8.615025"><ele>305.0</ele><time>2026-04-19T12:56:16.462Z</time></trkpt><trkpt lat="40.6004133" lon="8.615025"><ele>305.75</ele><time>2026-04-19T12:56:17.462Z</time></trkpt><trkpt lat="40.6002933" lon="8.6150133"><ele>306.5</ele><time>2026-04-19T12:56:18.461Z</time></trkpt><trkpt lat="40.6001933" lon="8.6150283"><ele>307.25</ele><time>2026-04-19T12:56:19.461Z</time></trkpt><trkpt lat="40.6000567" lon="8.6150083"><ele>308.0</ele><time>2026-04-19T12:56:20.461Z</time></trkpt><trkpt lat="40.599945" lon="8.6150067"><ele>308.0</ele><time>2026-04-19T12:56:21.462Z</time></trkpt><trkpt lat="40.5998383" lon="8.61502"><ele>308.0</ele><time>2026-04-19T12:56:22.461Z</time></trkpt><trkpt lat="40.5997383" lon="8.6150617"><ele>308.0</ele><time>2026-04-19T12:56:23.462Z</time></trkpt><trkpt lat="40.59964" lon="8.6151267"><ele>308.0</ele><time>2026-04-19T12:56:24.461Z</time></trkpt><trkpt lat="40.599545" lon="8.6151933"><ele>308.0</ele><time>2026-04-19T12:56:25.461Z</time></trkpt><trkpt lat="40.599445" lon="8.6152467"><ele>307.75</ele><time>2026-04-19T12:56:26.461Z</time></trkpt><trkpt lat="40.599335" lon="8.6153033"><ele>307.5</ele><time>2026-04-19T12:56:27.462Z</time></trkpt><trkpt lat="40.5992167" lon="8.6153483"><ele>307.25</ele><time>2026-04-19T12:56:28.461Z</time></trkpt><trkpt lat="40.599105" lon="8.6153983"><ele>307.0</ele><time>2026-04-19T12:56:29.462Z</time></trkpt><trkpt lat="40.5989983" lon="8.6154433"><ele>303.8</ele><time>2026-04-19T12:56:30.462Z</time></trkpt><trkpt lat="40.5988917" lon="8.6154767"><ele>300.6</ele><time>2026-04-19T12:56:31.461Z</time></trkpt><trkpt lat="40.59879" lon="8.6154967"><ele>297.40000000000003</ele><time>2026-04-19T12:56:32.461Z</time></trkpt><trkpt lat="40.5986783" lon="8.6155133"><ele>294.2</ele><time>2026-04-19T12:56:33.462Z</time></trkpt><trkpt lat="40.5985633" lon="8.6155067"><ele>291.0</ele><time>2026-04-19T12:56:34.461Z</time></trkpt><trkpt lat="40.5984633" lon="8.6154833"><ele>291.0</ele><time>2026-04-19T12:56:35.462Z</time></trkpt><trkpt lat="40.598375" lon="8.6154517"><ele>291.0</ele><time>2026-04-19T12:56:36.462Z</time></trkpt><trkpt lat="40.5983033" lon="8.6154117"><ele>291.0</ele><time>2026-04-19T12:56:37.461Z</time></trkpt><trkpt lat="40.59823" lon="8.6153867"><ele>291.0</ele><time>2026-04-19T12:56:38.462Z</time></trkpt><trkpt lat="40.5981667" lon="8.615385"><ele>291.0</ele><time>2026-04-19T12:56:39.461Z</time></trkpt><trkpt lat="40.5980583" lon="8.6154383"><ele>291.0</ele><time>2026-04-19T12:56:41.462Z</time></trkpt><trkpt lat="40.5979867" lon="8.6155267"><ele>291.0</ele><time>2026-04-19T12:56:43.461Z</time></trkpt><trkpt lat="40.5979833" lon="8.6156683"><ele>291.0</ele><time>2026-04-19T12:56:45.462Z</time></trkpt><trkpt lat="40.598005" lon="8.61576"><ele>291.0</ele><time>2026-04-19T12:56:46.461Z</time></trkpt><trkpt lat="40.5980417" lon="8.61585"><ele>291.0</ele><time>2026-04-19T12:56:47.461Z</time></trkpt><trkpt lat="40.5980667" lon="8.6159333"><ele>291.0</ele><time>2026-04-19T12:56:48.462Z</time></trkpt><trkpt lat="40.5980733" lon="8.6160217"><ele>291.0</ele><time>2026-04-19T12:56:49.462Z</time></trkpt><trkpt lat="40.598025" lon="8.6161433"><ele>291.0</ele><time>2026-04-19T12:56:51.461Z</time></trkpt><trkpt lat="40.5979317" lon="8.6162467"><ele>291.0</ele><time>2026-04-19T12:56:53.462Z</time></trkpt><trkpt lat="40.597875" lon="8.6163083"><ele>291.0</ele><time>2026-04-19T12:56:54.461Z</time></trkpt><trkpt lat="40.5978167" lon="8.61637"><ele>291.0</ele><time>2026-04-19T12:56:55.461Z</time></trkpt><trkpt lat="40.5977667" lon="8.6164267"><ele>291.0</ele><time>2026-04-19T12:56:56.462Z</time></trkpt><trkpt lat="40.5976833" lon="8.6165417"><ele>291.0</ele><time>2026-04-19T12:56:58.462Z</time></trkpt><trkpt lat="40.5976067" lon="8.6166317"><ele>291.0</ele><time>2026-04-19T12:57:00.461Z</time></trkpt><trkpt lat="40.597515" lon="8.61674"><ele>291.0</ele><time>2026-04-19T12:57:02.461Z</time></trkpt><trkpt lat="40.597455" lon="8.6168033"><ele>291.0</ele><time>2026-04-19T12:57:03.461Z</time></trkpt><trkpt lat="40.5973933" lon="8.6168717"><ele>291.0</ele><time>2026-04-19T12:57:04.461Z</time></trkpt><trkpt lat="40.5973217" lon="8.6169567"><ele>290.0</ele><time>2026-04-19T12:57:05.462Z</time></trkpt><trkpt lat="40.5972467" lon="8.6170517"><ele>289.0</ele><time>2026-04-19T12:57:06.461Z</time></trkpt><trkpt lat="40.5971717" lon="8.6171483"><ele>288.0</ele><time>2026-04-19T12:57:07.461Z</time></trkpt><trkpt lat="40.59709" lon="8.61724"><ele>287.0</ele><time>2026-04-19T12:57:08.461Z</time></trkpt><trkpt lat="40.5970083" lon="8.617335"><ele>286.0</ele><time>2026-04-19T12:57:09.461Z</time></trkpt><trkpt lat="40.596925" lon="8.6174317"><ele>285.5</ele><time>2026-04-19T12:57:10.461Z</time></trkpt><trkpt lat="40.5968333" lon="8.6175283"><ele>285.0</ele><time>2026-04-19T12:57:11.461Z</time></trkpt><trkpt lat="40.5967383" lon="8.6176417"><ele>284.5</ele><time>2026-04-19T12:57:12.461Z</time></trkpt><trkpt lat="40.59664" lon="8.617755"><ele>284.0</ele><time>2026-04-19T12:57:13.461Z</time></trkpt><trkpt lat="40.59654" lon="8.6178717"><ele>284.75</ele><time>2026-04-19T12:57:14.461Z</time></trkpt><trkpt lat="40.5964433" lon="8.6179867"><ele>285.5</ele><time>2026-04-19T12:57:15.461Z</time></trkpt><trkpt lat="40.5963417" lon="8.6181"><ele>286.25</ele><time>2026-04-19T12:57:16.461Z</time></trkpt><trkpt lat="40.5962467" lon="8.618215"><ele>287.0</ele><time>2026-04-19T12:57:17.461Z</time></trkpt><trkpt lat="40.596145" lon="8.618335"><ele>287.0</ele><time>2026-04-19T12:57:18.461Z</time></trkpt><trkpt lat="40.5960383" lon="8.6184533"><ele>287.0</ele><time>2026-04-19T12:57:19.461Z</time></trkpt><trkpt lat="40.5959317" lon="8.618575"><ele>287.0</ele><time>2026-04-19T12:57:20.461Z</time></trkpt><trkpt lat="40.5958267" lon="8.6186867"><ele>287.0</ele><time>2026-04-19T12:57:21.462Z</time></trkpt><trkpt lat="40.5957317" lon="8.6187967"><ele>284.5</ele><time>2026-04-19T12:57:22.462Z</time></trkpt><trkpt lat="40.5956417" lon="8.6188967"><ele>282.0</ele><time>2026-04-19T12:57:23.461Z</time></trkpt><trkpt lat="40.5955533" lon="8.61901"><ele>279.5</ele><time>2026-04-19T12:57:24.461Z</time></trkpt><trkpt lat="40.59546" lon="8.6191167"><ele>277.0</ele><time>2026-04-19T12:57:25.461Z</time></trkpt><trkpt lat="40.59537" lon="8.6192233"><ele>277.5</ele><time>2026-04-19T12:57:26.462Z</time></trkpt><trkpt lat="40.59528" lon="8.6193167"><ele>278.0</ele><time>2026-04-19T12:57:27.462Z</time></trkpt><trkpt lat="40.59519" lon="8.6194233"><ele>278.5</ele><time>2026-04-19T12:57:28.461Z</time></trkpt><trkpt lat="40.595095" lon="8.6195167"><ele>279.0</ele><time>2026-04-19T12:57:29.461Z</time></trkpt><trkpt lat="40.5949933" lon="8.6196333"><ele>279.0</ele><time>2026-04-19T12:57:30.461Z</time></trkpt><trkpt lat="40.594895" lon="8.6197533"><ele>279.0</ele><time>2026-04-19T12:57:31.462Z</time></trkpt><trkpt lat="40.5947933" lon="8.6198767"><ele>279.0</ele><time>2026-04-19T12:57:32.461Z</time></trkpt><trkpt lat="40.5946767" lon="8.6200017"><ele>279.0</ele><time>2026-04-19T12:57:33.461Z</time></trkpt><trkpt lat="40.5945633" lon="8.620135"><ele>279.5</ele><time>2026-04-19T12:57:34.461Z</time></trkpt><trkpt lat="40.59446" lon="8.620255"><ele>280.0</ele><time>2026-04-19T12:57:35.462Z</time></trkpt><trkpt lat="40.5943617" lon="8.6203617"><ele>280.5</ele><time>2026-04-19T12:57:36.461Z</time></trkpt><trkpt lat="40.5942717" lon="8.6204683"><ele>281.0</ele><time>2026-04-19T12:57:37.462Z</time></trkpt><trkpt lat="40.5941883" lon="8.6205617"><ele>281.0</ele><time>2026-04-19T12:57:38.461Z</time></trkpt><trkpt lat="40.5941067" lon="8.6206667"><ele>281.0</ele><time>2026-04-19T12:57:39.462Z</time></trkpt><trkpt lat="40.594025" lon="8.6207733"><ele>281.0</ele><time>2026-04-19T12:57:40.461Z</time></trkpt><trkpt lat="40.5939333" lon="8.6208783"><ele>281.0</ele><time>2026-04-19T12:57:41.461Z</time></trkpt><trkpt lat="40.5938317" lon="8.6209633"><ele>281.0</ele><time>2026-04-19T12:57:42.462Z</time></trkpt><trkpt lat="40.59372" lon="8.6210517"><ele>281.0</ele><time>2026-04-19T12:57:43.461Z</time></trkpt><trkpt lat="40.593595" lon="8.621135"><ele>281.0</ele><time>2026-04-19T12:57:44.461Z</time></trkpt><trkpt lat="40.593485" lon="8.6212133"><ele>281.0</ele><time>2026-04-19T12:57:45.461Z</time></trkpt><trkpt lat="40.593385" lon="8.6212833"><ele>281.6</ele><time>2026-04-19T12:57:46.462Z</time></trkpt><trkpt lat="40.59329" lon="8.62135"><ele>282.20000000000005</ele><time>2026-04-19T12:57:47.461Z</time></trkpt><trkpt lat="40.5932083" lon="8.6214183"><ele>282.79999999999995</ele><time>2026-04-19T12:57:48.462Z</time></trkpt><trkpt lat="40.5931217" lon="8.62151"><ele>283.4</ele><time>2026-04-19T12:57:49.462Z</time></trkpt><trkpt lat="40.5930533" lon="8.6216133"><ele>284.0</ele><time>2026-04-19T12:57:50.461Z</time></trkpt><trkpt lat="40.5929867" lon="8.6217167"><ele>284.0</ele><time>2026-04-19T12:57:51.461Z</time></trkpt><trkpt lat="40.5929267" lon="8.62184"><ele>284.0</ele><time>2026-04-19T12:57:52.461Z</time></trkpt><trkpt lat="40.5928683" lon="8.6219733"><ele>284.0</ele><time>2026-04-19T12:57:53.462Z</time></trkpt><trkpt lat="40.5928067" lon="8.6221067"><ele>284.0</ele><time>2026-04-19T12:57:54.461Z</time></trkpt><trkpt lat="40.59275" lon="8.6222517"><ele>283.8</ele><time>2026-04-19T12:57:55.462Z</time></trkpt><trkpt lat="40.592695" lon="8.6223833"><ele>283.59999999999997</ele><time>2026-04-19T12:57:56.462Z</time></trkpt><trkpt lat="40.5926317" lon="8.6225033"><ele>283.4</ele><time>2026-04-19T12:57:57.462Z</time></trkpt><trkpt lat="40.592575" lon="8.6226217"><ele>283.2</ele><time>2026-04-19T12:57:58.462Z</time></trkpt><trkpt lat="40.5925233" lon="8.62275"><ele>283.0</ele><time>2026-04-19T12:57:59.462Z</time></trkpt><trkpt lat="40.5924617" lon="8.6228783"><ele>283.0</ele><time>2026-04-19T12:58:00.461Z</time></trkpt><trkpt lat="40.5923983" lon="8.6230217"><ele>283.0</ele><time>2026-04-19T12:58:01.461Z</time></trkpt><trkpt lat="40.5923283" lon="8.6231767"><ele>283.0</ele><time>2026-04-19T12:58:02.462Z</time></trkpt><trkpt lat="40.5922683" lon="8.6233367"><ele>283.0</ele><time>2026-04-19T12:58:03.461Z</time></trkpt><trkpt lat="40.592215" lon="8.6235067"><ele>278.3333333333333</ele><time>2026-04-19T12:58:04.461Z</time></trkpt><trkpt lat="40.5921483" lon="8.6236883"><ele>273.6666666666667</ele><time>2026-04-19T12:58:05.462Z</time></trkpt><trkpt lat="40.592085" lon="8.6238767"><ele>269.0</ele><time>2026-04-19T12:58:06.461Z</time></trkpt><trkpt lat="40.5920183" lon="8.6240717"><ele>274.33333333333337</ele><time>2026-04-19T12:58:07.462Z</time></trkpt><trkpt lat="40.5919483" lon="8.6242717"><ele>279.6666666666667</ele><time>2026-04-19T12:58:08.462Z</time></trkpt><trkpt lat="40.5918733" lon="8.624465"><ele>285.0</ele><time>2026-04-19T12:58:09.462Z</time></trkpt><trkpt lat="40.5917917" lon="8.6246533"><ele>285.0</ele><time>2026-04-19T12:58:10.462Z</time></trkpt><trkpt lat="40.5917183" lon="8.6248433"><ele>285.0</ele><time>2026-04-19T12:58:11.462Z</time></trkpt><trkpt lat="40.5916483" lon="8.6250333"><ele>285.0</ele><time>2026-04-19T12:58:12.461Z</time></trkpt><trkpt lat="40.591585" lon="8.625225"><ele>282.0</ele><time>2026-04-19T12:58:13.461Z</time></trkpt><trkpt lat="40.5915183" lon="8.6254133"><ele>279.0</ele><time>2026-04-19T12:58:14.462Z</time></trkpt><trkpt lat="40.59144" lon="8.6255917"><ele>276.0</ele><time>2026-04-19T12:58:15.462Z</time></trkpt><trkpt lat="40.591375" lon="8.6257667"><ele>276.0</ele><time>2026-04-19T12:58:16.462Z</time></trkpt><trkpt lat="40.5913167" lon="8.6259217"><ele>276.0</ele><time>2026-04-19T12:58:17.461Z</time></trkpt><trkpt lat="40.5912733" lon="8.6260533"><ele>276.0</ele><time>2026-04-19T12:58:18.461Z</time></trkpt><trkpt lat="40.591235" lon="8.6261533"><ele>276.0</ele><time>2026-04-19T12:58:19.461Z</time></trkpt><trkpt lat="40.5912033" lon="8.626225"><ele>276.0</ele><time>2026-04-19T12:58:20.461Z</time></trkpt><trkpt lat="40.5911017" lon="8.6263067"><ele>277.8</ele><time>2026-04-19T12:58:22.461Z</time></trkpt><trkpt lat="40.5910267" lon="8.62635"><ele>279.6</ele><time>2026-04-19T12:58:23.461Z</time></trkpt><trkpt lat="40.5909383" lon="8.6263867"><ele>281.4</ele><time>2026-04-19T12:58:24.461Z</time></trkpt><trkpt lat="40.5908467" lon="8.626425"><ele>283.2</ele><time>2026-04-19T12:58:25.462Z</time></trkpt><trkpt lat="40.5907583" lon="8.6264517"><ele>285.0</ele><time>2026-04-19T12:58:26.461Z</time></trkpt><trkpt lat="40.5906717" lon="8.626485"><ele>285.0</ele><time>2026-04-19T12:58:27.462Z</time></trkpt><trkpt lat="40.5905867" lon="8.6265167"><ele>285.0</ele><time>2026-04-19T12:58:28.461Z</time></trkpt><trkpt lat="40.5905133" lon="8.62656"><ele>285.0</ele><time>2026-04-19T12:58:29.462Z</time></trkpt><trkpt lat="40.5904533" lon="8.6266083"><ele>285.0</ele><time>2026-04-19T12:58:30.462Z</time></trkpt><trkpt lat="40.5904133" lon="8.6266733"><ele>285.0</ele><time>2026-04-19T12:58:31.461Z</time></trkpt><trkpt lat="40.5903867" lon="8.6267567"><ele>285.0</ele><time>2026-04-19T12:58:32.461Z</time></trkpt><trkpt lat="40.5903767" lon="8.62685"><ele>285.0</ele><time>2026-04-19T12:58:33.461Z</time></trkpt><trkpt lat="40.5903867" lon="8.6269567"><ele>282.8</ele><time>2026-04-19T12:58:34.462Z</time></trkpt><trkpt lat="40.5904267" lon="8.62706"><ele>280.6</ele><time>2026-04-19T12:58:35.461Z</time></trkpt><trkpt lat="40.590465" lon="8.6271667"><ele>278.4</ele><time>2026-04-19T12:58:36.462Z</time></trkpt><trkpt lat="40.5905117" lon="8.6272883"><ele>276.2</ele><time>2026-04-19T12:58:37.461Z</time></trkpt><trkpt lat="40.59056" lon="8.62742"><ele>274.0</ele><time>2026-04-19T12:58:38.461Z</time></trkpt><trkpt lat="40.5905967" lon="8.627535"><ele>274.0</ele><time>2026-04-19T12:58:39.462Z</time></trkpt><trkpt lat="40.5906333" lon="8.6276467"><ele>274.0</ele><time>2026-04-19T12:58:40.461Z</time></trkpt><trkpt lat="40.5906483" lon="8.6277517"><ele>274.0</ele><time>2026-04-19T12:58:41.461Z</time></trkpt><trkpt lat="40.5906483" lon="8.62786"><ele>274.0</ele><time>2026-04-19T12:58:42.461Z</time></trkpt><trkpt lat="40.5906283" lon="8.6279817"><ele>274.0</ele><time>2026-04-19T12:58:43.462Z</time></trkpt><trkpt lat="40.5905833" lon="8.6281117"><ele>273.0</ele><time>2026-04-19T12:58:44.461Z</time></trkpt><trkpt lat="40.590525" lon="8.6282417"><ele>272.0</ele><time>2026-04-19T12:58:45.461Z</time></trkpt><trkpt lat="40.5904633" lon="8.628375"><ele>271.0</ele><time>2026-04-19T12:58:46.462Z</time></trkpt><trkpt lat="40.5904067" lon="8.6285183"><ele>270.0</ele><time>2026-04-19T12:58:47.462Z</time></trkpt><trkpt lat="40.5903417" lon="8.628675"><ele>281.6666666666667</ele><time>2026-04-19T12:58:48.462Z</time></trkpt><trkpt lat="40.5902767" lon="8.6288417"><ele>293.33333333333337</ele><time>2026-04-19T12:58:49.461Z</time></trkpt><trkpt lat="40.5902017" lon="8.6290167"><ele>305.0</ele><time>2026-04-19T12:58:50.462Z</time></trkpt><trkpt lat="40.5901267" lon="8.6292117"><ele>305.0</ele><time>2026-04-19T12:58:51.462Z</time></trkpt><trkpt lat="40.5900583" lon="8.6293967"><ele>305.0</ele><time>2026-04-19T12:58:52.461Z</time></trkpt><trkpt lat="40.589995" lon="8.6295817"><ele>305.0</ele><time>2026-04-19T12:58:53.461Z</time></trkpt><trkpt lat="40.5899317" lon="8.62976"><ele>303.0</ele><time>2026-04-19T12:58:54.461Z</time></trkpt><trkpt lat="40.5898667" lon="8.6299433"><ele>301.0</ele><time>2026-04-19T12:58:55.461Z</time></trkpt><trkpt lat="40.5898" lon="8.6301217"><ele>299.0</ele><time>2026-04-19T12:58:56.461Z</time></trkpt><trkpt lat="40.589745" lon="8.63028"><ele>297.0</ele><time>2026-04-19T12:58:57.461Z</time></trkpt><trkpt lat="40.5896883" lon="8.63042"><ele>294.25</ele><time>2026-04-19T12:58:58.461Z</time></trkpt><trkpt lat="40.5896367" lon="8.6305717"><ele>291.5</ele><time>2026-04-19T12:58:59.462Z</time></trkpt><trkpt lat="40.5895783" lon="8.630735"><ele>288.75</ele><time>2026-04-19T12:59:00.461Z</time></trkpt><trkpt lat="40.5895217" lon="8.6309183"><ele>286.0</ele><time>2026-04-19T12:59:01.461Z</time></trkpt><trkpt lat="40.5894667" lon="8.6311133"><ele>294.0</ele><time>2026-04-19T12:59:02.461Z</time></trkpt><trkpt lat="40.589425" lon="8.63131"><ele>302.0</ele><time>2026-04-19T12:59:03.462Z</time></trkpt><trkpt lat="40.5893817" lon="8.6315017"><ele>310.0</ele><time>2026-04-19T12:59:04.461Z</time></trkpt><trkpt lat="40.589335" lon="8.6316917"><ele>310.0</ele><time>2026-04-19T12:59:05.461Z</time></trkpt><trkpt lat="40.5892883" lon="8.6318867"><ele>310.0</ele><time>2026-04-19T12:59:06.461Z</time></trkpt><trkpt lat="40.5892567" lon="8.6320783"><ele>310.0</ele><time>2026-04-19T12:59:07.461Z</time></trkpt><trkpt lat="40.5892117" lon="8.6322633"><ele>309.0</ele><time>2026-04-19T12:59:08.461Z</time></trkpt><trkpt lat="40.5891667" lon="8.6324467"><ele>308.0</ele><time>2026-04-19T12:59:09.461Z</time></trkpt><trkpt lat="40.5891283" lon="8.632615"><ele>307.0</ele><time>2026-04-19T12:59:10.462Z</time></trkpt><trkpt lat="40.5890917" lon="8.6327783"><ele>306.0</ele><time>2026-04-19T12:59:11.461Z</time></trkpt><trkpt lat="40.58905" lon="8.6329417"><ele>304.5</ele><time>2026-04-19T12:59:12.462Z</time></trkpt><trkpt lat="40.5890083" lon="8.63311"><ele>303.0</ele><time>2026-04-19T12:59:13.462Z</time></trkpt><trkpt lat="40.5889633" lon="8.633275"><ele>301.5</ele><time>2026-04-19T12:59:14.461Z</time></trkpt><trkpt lat="40.5889083" lon="8.6334367"><ele>300.0</ele><time>2026-04-19T12:59:15.461Z</time></trkpt><trkpt lat="40.588855" lon="8.6335983"><ele>298.25</ele><time>2026-04-19T12:59:16.461Z</time></trkpt><trkpt lat="40.5887833" lon="8.63377"><ele>296.5</ele><time>2026-04-19T12:59:17.462Z</time></trkpt><trkpt lat="40.5887367" lon="8.6339317"><ele>294.75</ele><time>2026-04-19T12:59:18.461Z</time></trkpt><trkpt lat="40.5886883" lon="8.6340967"><ele>293.0</ele><time>2026-04-19T12:59:19.461Z</time></trkpt><trkpt lat="40.58864" lon="8.6342733"><ele>300.25</ele><time>2026-04-19T12:59:20.462Z</time></trkpt><trkpt lat="40.5886033" lon="8.6344717"><ele>307.5</ele><time>2026-04-19T12:59:21.462Z</time></trkpt><trkpt lat="40.588565" lon="8.6346567"><ele>314.75</ele><time>2026-04-19T12:59:22.461Z</time></trkpt><trkpt lat="40.58853" lon="8.6348433"><ele>322.0</ele><time>2026-04-19T12:59:23.461Z</time></trkpt><trkpt lat="40.5884933" lon="8.63502"><ele>322.0</ele><time>2026-04-19T12:59:24.461Z</time></trkpt><trkpt lat="40.5884567" lon="8.6351867"><ele>322.0</ele><time>2026-04-19T12:59:25.462Z</time></trkpt><trkpt lat="40.5884183" lon="8.635345"><ele>322.0</ele><time>2026-04-19T12:59:26.462Z</time></trkpt><trkpt lat="40.58837" lon="8.6355067"><ele>322.0</ele><time>2026-04-19T12:59:27.462Z</time></trkpt><trkpt lat="40.58832" lon="8.6356717"><ele>320.75</ele><time>2026-04-19T12:59:28.462Z</time></trkpt><trkpt lat="40.5882783" lon="8.635835"><ele>319.5</ele><time>2026-04-19T12:59:29.462Z</time></trkpt><trkpt lat="40.58824" lon="8.6360083"><ele>318.25</ele><time>2026-04-19T12:59:30.461Z</time></trkpt><trkpt lat="40.5882117" lon="8.6361867"><ele>317.0</ele><time>2026-04-19T12:59:31.462Z</time></trkpt><trkpt lat="40.588155" lon="8.6363533"><ele>313.5</ele><time>2026-04-19T12:59:32.461Z</time></trkpt><trkpt lat="40.58809" lon="8.6365133"><ele>310.0</ele><time>2026-04-19T12:59:33.462Z</time></trkpt><trkpt lat="40.5880283" lon="8.6366533"><ele>306.5</ele><time>2026-04-19T12:59:34.461Z</time></trkpt><trkpt lat="40.58797" lon="8.6367817"><ele>303.0</ele><time>2026-04-19T12:59:35.461Z</time></trkpt><trkpt lat="40.5879133" lon="8.6368717"><ele>303.0</ele><time>2026-04-19T12:59:36.462Z</time></trkpt><trkpt lat="40.587845" lon="8.6369517"><ele>303.0</ele><time>2026-04-19T12:59:37.462Z</time></trkpt><trkpt lat="40.5877733" lon="8.6370367"><ele>303.0</ele><time>2026-04-19T12:59:38.461Z</time></trkpt><trkpt lat="40.5877" lon="8.6371267"><ele>303.0</ele><time>2026-04-19T12:59:39.462Z</time></trkpt><trkpt lat="40.5876367" lon="8.6372317"><ele>303.0</ele><time>2026-04-19T12:59:40.461Z</time></trkpt><trkpt lat="40.5875817" lon="8.6373467"><ele>304.6</ele><time>2026-04-19T12:59:41.461Z</time></trkpt><trkpt lat="40.5875233" lon="8.6374517"><ele>306.20000000000005</ele><time>2026-04-19T12:59:42.462Z</time></trkpt><trkpt lat="40.5874617" lon="8.6375517"><ele>307.8</ele><time>2026-04-19T12:59:43.462Z</time></trkpt><trkpt lat="40.58739" lon="8.6376367"><ele>309.40000000000003</ele><time>2026-04-19T12:59:44.461Z</time></trkpt><trkpt lat="40.5873083" lon="8.6377417"><ele>311.0</ele><time>2026-04-19T12:59:45.462Z</time></trkpt><trkpt lat="40.5872183" lon="8.6378283"><ele>309.0</ele><time>2026-04-19T12:59:46.461Z</time></trkpt><trkpt lat="40.5871333" lon="8.6379183"><ele>307.0</ele><time>2026-04-19T12:59:47.462Z</time></trkpt><trkpt lat="40.5870533" lon="8.638"><ele>305.0</ele><time>2026-04-19T12:59:48.461Z</time></trkpt><trkpt lat="40.5869783" lon="8.6380733"><ele>303.0</ele><time>2026-04-19T12:59:49.461Z</time></trkpt><trkpt lat="40.5869083" lon="8.6381483"><ele>301.0</ele><time>2026-04-19T12:59:50.461Z</time></trkpt><trkpt lat="40.586845" lon="8.6382183"><ele>301.0</ele><time>2026-04-19T12:59:51.461Z</time></trkpt><trkpt lat="40.5867817" lon="8.6382883"><ele>301.0</ele><time>2026-04-19T12:59:52.462Z</time></trkpt><trkpt lat="40.5867267" lon="8.6383517"><ele>301.0</ele><time>2026-04-19T12:59:53.461Z</time></trkpt><trkpt lat="40.5866767" lon="8.6384117"><ele>301.0</ele><time>2026-04-19T12:59:54.462Z</time></trkpt><trkpt lat="40.5866217" lon="8.638455"><ele>301.0</ele><time>2026-04-19T12:59:55.461Z</time></trkpt><trkpt lat="40.5864967" lon="8.638475"><ele>301.0</ele><time>2026-04-19T12:59:57.461Z</time></trkpt><trkpt lat="40.5864217" lon="8.63844"><ele>301.0</ele><time>2026-04-19T12:59:58.461Z</time></trkpt><trkpt lat="40.586335" lon="8.6383817"><ele>301.0</ele><time>2026-04-19T12:59:59.462Z</time></trkpt><trkpt lat="40.5862433" lon="8.6382967"><ele>301.0</ele><time>2026-04-19T13:00:00.462Z</time></trkpt><trkpt lat="40.586145" lon="8.6382183"><ele>301.0</ele><time>2026-04-19T13:00:01.462Z</time></trkpt><trkpt lat="40.5860467" lon="8.6381467"><ele>301.0</ele><time>2026-04-19T13:00:02.461Z</time></trkpt><trkpt lat="40.5859667" lon="8.6380783"><ele>298.8</ele><time>2026-04-19T13:00:03.461Z</time></trkpt><trkpt lat="40.5858833" lon="8.6380133"><ele>296.6</ele><time>2026-04-19T13:00:04.461Z</time></trkpt><trkpt lat="40.585795" lon="8.6379517"><ele>294.4</ele><time>2026-04-19T13:00:05.462Z</time></trkpt><trkpt lat="40.5857133" lon="8.6379117"><ele>292.2</ele><time>2026-04-19T13:00:06.461Z</time></trkpt><trkpt lat="40.5856233" lon="8.6378817"><ele>290.0</ele><time>2026-04-19T13:00:07.461Z</time></trkpt><trkpt lat="40.5855317" lon="8.63786"><ele>290.0</ele><time>2026-04-19T13:00:08.461Z</time></trkpt><trkpt lat="40.5854333" lon="8.6378383"><ele>290.0</ele><time>2026-04-19T13:00:09.461Z</time></trkpt><trkpt lat="40.5853367" lon="8.6378133"><ele>290.0</ele><time>2026-04-19T13:00:10.462Z</time></trkpt><trkpt lat="40.585255" lon="8.6378017"><ele>290.0</ele><time>2026-04-19T13:00:11.461Z</time></trkpt><trkpt lat="40.5851867" lon="8.6377833"><ele>290.0</ele><time>2026-04-19T13:00:12.461Z</time></trkpt><trkpt lat="40.5850883" lon="8.637775"><ele>290.0</ele><time>2026-04-19T13:00:14.462Z</time></trkpt><trkpt lat="40.585025" lon="8.6378367"><ele>290.6666666666667</ele><time>2026-04-19T13:00:16.462Z</time></trkpt><trkpt lat="40.5850083" lon="8.63792"><ele>291.33333333333337</ele><time>2026-04-19T13:00:18.461Z</time></trkpt><trkpt lat="40.5849967" lon="8.6380317"><ele>292.0</ele><time>2026-04-19T13:00:40.462Z</time></trkpt><trkpt lat="40.5849817" lon="8.6381183"><ele>292.6666666666667</ele><time>2026-04-19T13:00:42.462Z</time></trkpt><trkpt lat="40.5849917" lon="8.6382133"><ele>293.3333333333333</ele><time>2026-04-19T13:15:31.458Z</time></trkpt><trkpt lat="40.5850333" lon="8.6383183"><ele>294.0</ele><time>2026-04-19T13:15:34.458Z</time></trkpt><trkpt lat="40.585075" lon="8.6384283"><ele>294.0</ele><time>2026-04-19T13:15:36.458Z</time></trkpt><trkpt lat="40.5851267" lon="8.638535"><ele>294.0</ele><time>2026-04-19T13:15:38.458Z</time></trkpt><trkpt lat="40.5851783" lon="8.638655"><ele>294.0</ele><time>2026-04-19T13:15:40.459Z</time></trkpt><trkpt lat="40.585205" lon="8.6387717"><ele>294.0</ele><time>2026-04-19T13:15:42.459Z</time></trkpt><trkpt lat="40.5852017" lon="8.6389083"><ele>294.0</ele><time>2026-04-19T13:15:44.458Z</time></trkpt><trkpt lat="40.5851983" lon="8.6390483"><ele>294.85714285714283</ele><time>2026-04-19T13:15:46.458Z</time></trkpt><trkpt lat="40.5852067" lon="8.6391383"><ele>295.7142857142857</ele><time>2026-04-19T13:15:47.458Z</time></trkpt><trkpt lat="40.5852117" lon="8.639225"><ele>296.57142857142856</ele><time>2026-04-19T13:15:48.458Z</time></trkpt><trkpt lat="40.5852067" lon="8.6393167"><ele>297.42857142857144</ele><time>2026-04-19T13:15:49.458Z</time></trkpt><trkpt lat="40.5851817" lon="8.6394033"><ele>298.2857142857143</ele><time>2026-04-19T13:15:50.459Z</time></trkpt><trkpt lat="40.5851533" lon="8.6394917"><ele>299.1428571428571</ele><time>2026-04-19T13:15:51.459Z</time></trkpt><trkpt lat="40.5851217" lon="8.63957"><ele>300.0</ele><time>2026-04-19T13:15:52.458Z</time></trkpt><trkpt lat="40.585095" lon="8.63965"><ele>299.99999999999994</ele><time>2026-04-19T13:15:53.458Z</time></trkpt><trkpt lat="40.5850783" lon="8.6397333"><ele>300.0</ele><time>2026-04-19T13:15:54.458Z</time></trkpt><trkpt lat="40.58507" lon="8.6398233"><ele>300.0</ele><time>2026-04-19T13:15:55.459Z</time></trkpt><trkpt lat="40.5850617" lon="8.63991"><ele>300.0</ele><time>2026-04-19T13:15:56.458Z</time></trkpt><trkpt lat="40.5850567" lon="8.6399933"><ele>300.0</ele><time>2026-04-19T13:15:57.458Z</time></trkpt><trkpt lat="40.5850533" lon="8.6400783"><ele>299.99999999999994</ele><time>2026-04-19T13:15:58.458Z</time></trkpt><trkpt lat="40.5850533" lon="8.64018"><ele>300.0</ele><time>2026-04-19T13:15:59.458Z</time></trkpt><trkpt lat="40.5850533" lon="8.6402733"><ele>301.6666666666667</ele><time>2026-04-19T13:16:00.458Z</time></trkpt><trkpt lat="40.5850517" lon="8.640365"><ele>303.3333333333333</ele><time>2026-04-19T13:16:01.458Z</time></trkpt><trkpt lat="40.5850567" lon="8.64046"><ele>305.0</ele><time>2026-04-19T13:16:02.458Z</time></trkpt><trkpt lat="40.58506" lon="8.6405467"><ele>306.66666666666663</ele><time>2026-04-19T13:16:03.458Z</time></trkpt><trkpt lat="40.585075" lon="8.6407"><ele>308.3333333333333</ele><time>2026-04-19T13:16:05.458Z</time></trkpt><trkpt lat="40.5851283" lon="8.64082"><ele>310.0</ele><time>2026-04-19T13:16:07.458Z</time></trkpt><trkpt lat="40.5852383" lon="8.640905"><ele>310.0</ele><time>2026-04-19T13:16:09.458Z</time></trkpt><trkpt lat="40.5853033" lon="8.6409333"><ele>310.0</ele><time>2026-04-19T13:16:10.458Z</time></trkpt><trkpt lat="40.5853733" lon="8.64096"><ele>310.0</ele><time>2026-04-19T13:16:11.459Z</time></trkpt><trkpt lat="40.5854467" lon="8.6409967"><ele>310.0</ele><time>2026-04-19T13:16:12.458Z</time></trkpt><trkpt lat="40.585525" lon="8.6410383"><ele>310.0</ele><time>2026-04-19T13:16:13.458Z</time></trkpt><trkpt lat="40.5855983" lon="8.64108"><ele>310.0</ele><time>2026-04-19T13:16:14.458Z</time></trkpt><trkpt lat="40.5856567" lon="8.6411217"><ele>309.0</ele><time>2026-04-19T13:16:15.458Z</time></trkpt><trkpt lat="40.58571" lon="8.6411767"><ele>308.0</ele><time>2026-04-19T13:16:16.459Z</time></trkpt><trkpt lat="40.585755" lon="8.64124"><ele>307.0</ele><time>2026-04-19T13:16:17.458Z</time></trkpt><trkpt lat="40.5858033" lon="8.6413767"><ele>306.0</ele><time>2026-04-19T13:16:19.458Z</time></trkpt><trkpt lat="40.58582" lon="8.6414633"><ele>305.0</ele><time>2026-04-19T13:16:20.459Z</time></trkpt><trkpt lat="40.585845" lon="8.6415633"><ele>304.0</ele><time>2026-04-19T13:16:21.458Z</time></trkpt><trkpt lat="40.585865" lon="8.6416767"><ele>304.0</ele><time>2026-04-19T13:16:22.459Z</time></trkpt><trkpt lat="40.585895" lon="8.6418"><ele>304.0</ele><time>2026-04-19T13:16:23.458Z</time></trkpt><trkpt lat="40.58592" lon="8.6419233"><ele>304.0</ele><time>2026-04-19T13:16:24.459Z</time></trkpt><trkpt lat="40.5859367" lon="8.64204"><ele>304.0</ele><time>2026-04-19T13:16:25.458Z</time></trkpt><trkpt lat="40.585955" lon="8.6421467"><ele>304.0</ele><time>2026-04-19T13:16:26.459Z</time></trkpt><trkpt lat="40.5859717" lon="8.6422467"><ele>304.0</ele><time>2026-04-19T13:16:27.458Z</time></trkpt><trkpt lat="40.5859883" lon="8.6423333"><ele>305.0</ele><time>2026-04-19T13:16:28.458Z</time></trkpt><trkpt lat="40.5860017" lon="8.6424333"><ele>306.0</ele><time>2026-04-19T13:16:30.458Z</time></trkpt><trkpt lat="40.5860267" lon="8.642555"><ele>307.0</ele><time>2026-04-19T13:16:33.458Z</time></trkpt><trkpt lat="40.5860383" lon="8.6426467"><ele>308.0</ele><time>2026-04-19T13:16:35.459Z</time></trkpt><trkpt lat="40.5860217" lon="8.6427467"><ele>309.0</ele><time>2026-04-19T13:16:37.459Z</time></trkpt><trkpt lat="40.5859733" lon="8.6428633"><ele>310.0</ele><time>2026-04-19T13:16:39.458Z</time></trkpt><trkpt lat="40.5859233" lon="8.64293"><ele>310.0</ele><time>2026-04-19T13:16:41.458Z</time></trkpt><trkpt lat="40.58586" lon="8.64299"><ele>310.0</ele><time>2026-04-19T13:16:50.458Z</time></trkpt><trkpt lat="40.585795" lon="8.6430717"><ele>310.0</ele><time>2026-04-19T13:16:53.459Z</time></trkpt><trkpt lat="40.5857283" lon="8.643155"><ele>310.0</ele><time>2026-04-19T13:16:56.458Z</time></trkpt><trkpt lat="40.5856867" lon="8.6432183"><ele>310.0</ele><time>2026-04-19T13:16:58.458Z</time></trkpt><trkpt lat="40.5856717" lon="8.6433033"><ele>310.0</ele><time>2026-04-19T13:17:00.458Z</time></trkpt><trkpt lat="40.5856567" lon="8.6433933"><ele>310.0</ele><time>2026-04-19T13:20:29.457Z</time></trkpt><trkpt lat="40.5856567" lon="8.6434817"><ele>310.0</ele><time>2026-04-19T13:20:32.457Z</time></trkpt><trkpt lat="40.5856567" lon="8.643565"><ele>310.0</ele><time>2026-04-19T13:20:36.457Z</time></trkpt><trkpt lat="40.5856683" lon="8.643665"><ele>310.0</ele><time>2026-04-19T13:20:41.457Z</time></trkpt><trkpt lat="40.58568" lon="8.64378"><ele>310.0</ele><time>2026-04-19T13:41:18.452Z</time></trkpt><trkpt lat="40.5856933" lon="8.6438833"><ele>310.0</ele><time>2026-04-19T13:41:21.452Z</time></trkpt><trkpt lat="40.5857167" lon="8.6440267"><ele>310.2</ele><time>2026-04-19T13:41:35.453Z</time></trkpt><trkpt lat="40.585755" lon="8.64413"><ele>310.4</ele><time>2026-04-19T13:43:18.452Z</time></trkpt><trkpt lat="40.585805" lon="8.6442083"><ele>310.6</ele><time>2026-04-19T13:43:21.451Z</time></trkpt><trkpt lat="40.585875" lon="8.6443083"><ele>310.8</ele><time>2026-04-19T13:45:19.451Z</time></trkpt><trkpt lat="40.5859817" lon="8.6444317"><ele>311.0</ele><time>2026-04-19T13:45:21.451Z</time></trkpt><trkpt lat="40.586055" lon="8.6445117"><ele>311.0</ele><time>2026-04-19T13:45:22.452Z</time></trkpt><trkpt lat="40.586135" lon="8.64459"><ele>311.0</ele><time>2026-04-19T13:45:23.452Z</time></trkpt><trkpt lat="40.5862083" lon="8.644665"><ele>311.0</ele><time>2026-04-19T13:45:24.451Z</time></trkpt><trkpt lat="40.586275" lon="8.6447367"><ele>311.0</ele><time>2026-04-19T13:45:25.452Z</time></trkpt><trkpt lat="40.5863333" lon="8.6447983"><ele>311.0</ele><time>2026-04-19T13:45:26.452Z</time></trkpt><trkpt lat="40.5863817" lon="8.644865"><ele>311.0</ele><time>2026-04-19T13:45:27.452Z</time></trkpt><trkpt lat="40.5864233" lon="8.6449333"><ele>310.0</ele><time>2026-04-19T13:45:28.451Z</time></trkpt><trkpt lat="40.5864817" lon="8.6450717"><ele>309.0</ele><time>2026-04-19T13:45:30.452Z</time></trkpt><trkpt lat="40.5864967" lon="8.64516"><ele>308.0</ele><time>2026-04-19T13:45:31.451Z</time></trkpt><trkpt lat="40.5864933" lon="8.6452617"><ele>307.0</ele><time>2026-04-19T13:45:32.452Z</time></trkpt><trkpt lat="40.5864733" lon="8.6453583"><ele>306.0</ele><time>2026-04-19T13:45:33.452Z</time></trkpt><trkpt lat="40.5864483" lon="8.6454433"><ele>305.0</ele><time>2026-04-19T13:45:34.451Z</time></trkpt><trkpt lat="40.5863717" lon="8.6455717"><ele>304.83333333333337</ele><time>2026-04-19T13:45:36.452Z</time></trkpt><trkpt lat="40.5863117" lon="8.6456267"><ele>304.6666666666667</ele><time>2026-04-19T13:45:37.451Z</time></trkpt><trkpt lat="40.5862467" lon="8.645665"><ele>304.5</ele><time>2026-04-19T13:45:38.452Z</time></trkpt><trkpt lat="40.5861833" lon="8.6456917"><ele>304.3333333333333</ele><time>2026-04-19T13:45:39.451Z</time></trkpt><trkpt lat="40.586065" lon="8.645725"><ele>304.16666666666663</ele><time>2026-04-19T13:45:41.452Z</time></trkpt><trkpt lat="40.585965" lon="8.64577"><ele>304.0</ele><time>2026-04-19T13:45:43.452Z</time></trkpt><trkpt lat="40.585875" lon="8.6458117"><ele>304.0</ele><time>2026-04-19T13:45:45.451Z</time></trkpt><trkpt lat="40.5858033" lon="8.64585"><ele>304.0</ele><time>2026-04-19T13:45:47.451Z</time></trkpt><trkpt lat="40.5857533" lon="8.64591"><ele>304.0</ele><time>2026-04-19T13:45:49.452Z</time></trkpt><trkpt lat="40.58565" lon="8.6459217"><ele>304.0</ele><time>2026-04-19T13:45:56.451Z</time></trkpt><trkpt lat="40.5855333" lon="8.64598"><ele>304.0</ele><time>2026-04-19T13:45:58.451Z</time></trkpt><trkpt lat="40.5854667" lon="8.645995"><ele>304.0</ele><time>2026-04-19T13:45:59.452Z</time></trkpt><trkpt lat="40.5854" lon="8.64602"><ele>304.3333333333333</ele><time>2026-04-19T13:46:00.451Z</time></trkpt><trkpt lat="40.5853317" lon="8.64604"><ele>304.66666666666663</ele><time>2026-04-19T13:46:01.452Z</time></trkpt><trkpt lat="40.5852683" lon="8.646065"><ele>305.0</ele><time>2026-04-19T13:46:02.451Z</time></trkpt><trkpt lat="40.5852017" lon="8.6460883"><ele>305.3333333333333</ele><time>2026-04-19T13:46:03.451Z</time></trkpt><trkpt lat="40.58514" lon="8.646115"><ele>305.6666666666667</ele><time>2026-04-19T13:46:04.451Z</time></trkpt><trkpt lat="40.5850233" lon="8.6461667"><ele>306.0</ele><time>2026-04-19T13:46:06.452Z</time></trkpt><trkpt lat="40.5849067" lon="8.6462233"><ele>303.6666666666667</ele><time>2026-04-19T13:46:08.451Z</time></trkpt><trkpt lat="40.58485" lon="8.646265"><ele>301.3333333333333</ele><time>2026-04-19T13:46:09.452Z</time></trkpt><trkpt lat="40.5847967" lon="8.6463267"><ele>299.0</ele><time>2026-04-19T13:46:10.452Z</time></trkpt><trkpt lat="40.5847567" lon="8.6464017"><ele>296.66666666666663</ele><time>2026-04-19T13:46:11.452Z</time></trkpt><trkpt lat="40.58473" lon="8.6464917"><ele>294.3333333333333</ele><time>2026-04-19T13:46:12.452Z</time></trkpt><trkpt lat="40.5847017" lon="8.6465933"><ele>292.0</ele><time>2026-04-19T13:46:13.452Z</time></trkpt><trkpt lat="40.5846833" lon="8.64672"><ele>292.0</ele><time>2026-04-19T13:46:14.451Z</time></trkpt><trkpt lat="40.5846717" lon="8.6468483"><ele>292.0</ele><time>2026-04-19T13:46:15.451Z</time></trkpt><trkpt lat="40.5846633" lon="8.6469783"><ele>292.0</ele><time>2026-04-19T13:46:16.452Z</time></trkpt><trkpt lat="40.5846517" lon="8.6471117"><ele>292.0</ele><time>2026-04-19T13:46:17.451Z</time></trkpt><trkpt lat="40.58464" lon="8.6472367"><ele>292.0</ele><time>2026-04-19T13:46:18.452Z</time></trkpt><trkpt lat="40.5846217" lon="8.6473733"><ele>290.6</ele><time>2026-04-19T13:46:19.451Z</time></trkpt><trkpt lat="40.5846133" lon="8.6474983"><ele>289.2</ele><time>2026-04-19T13:46:20.451Z</time></trkpt><trkpt lat="40.5846" lon="8.64762"><ele>287.8</ele><time>2026-04-19T13:46:21.451Z</time></trkpt><trkpt lat="40.5845833" lon="8.6477433"><ele>286.4</ele><time>2026-04-19T13:46:22.452Z</time></trkpt><trkpt lat="40.5845667" lon="8.64786"><ele>285.0</ele><time>2026-04-19T13:46:23.451Z</time></trkpt><trkpt lat="40.5845517" lon="8.6479767"><ele>284.6</ele><time>2026-04-19T13:46:24.452Z</time></trkpt><trkpt lat="40.5845367" lon="8.6481017"><ele>284.2</ele><time>2026-04-19T13:46:25.451Z</time></trkpt><trkpt lat="40.58452" lon="8.6482333"><ele>283.8</ele><time>2026-04-19T13:46:26.452Z</time></trkpt><trkpt lat="40.5845033" lon="8.6483717"><ele>283.4</ele><time>2026-04-19T13:46:27.451Z</time></trkpt><trkpt lat="40.5844767" lon="8.6485033"><ele>283.0</ele><time>2026-04-19T13:46:28.452Z</time></trkpt><trkpt lat="40.5844617" lon="8.6486267"><ele>285.4</ele><time>2026-04-19T13:46:29.451Z</time></trkpt><trkpt lat="40.58445" lon="8.6487483"><ele>287.8</ele><time>2026-04-19T13:46:30.451Z</time></trkpt><trkpt lat="40.58443" lon="8.6488567"><ele>290.2</ele><time>2026-04-19T13:46:31.451Z</time></trkpt><trkpt lat="40.5844133" lon="8.6489717"><ele>292.6</ele><time>2026-04-19T13:46:32.451Z</time></trkpt><trkpt lat="40.5844" lon="8.649105"><ele>295.0</ele><time>2026-04-19T13:46:33.451Z</time></trkpt><trkpt lat="40.5843883" lon="8.6492267"><ele>295.0</ele><time>2026-04-19T13:46:34.451Z</time></trkpt><trkpt lat="40.5843717" lon="8.649345"><ele>295.0</ele><time>2026-04-19T13:46:35.451Z</time></trkpt><trkpt lat="40.5843567" lon="8.6494667"><ele>295.0</ele><time>2026-04-19T13:46:36.451Z</time></trkpt><trkpt lat="40.5843417" lon="8.64959"><ele>295.0</ele><time>2026-04-19T13:46:37.452Z</time></trkpt><trkpt lat="40.5843283" lon="8.6497233"><ele>295.0</ele><time>2026-04-19T13:46:38.451Z</time></trkpt><trkpt lat="40.5843067" lon="8.649855"><ele>295.6</ele><time>2026-04-19T13:46:39.451Z</time></trkpt><trkpt lat="40.5842883" lon="8.6499983"><ele>296.2</ele><time>2026-04-19T13:46:40.451Z</time></trkpt><trkpt lat="40.584275" lon="8.6501383"><ele>296.8</ele><time>2026-04-19T13:46:41.452Z</time></trkpt><trkpt lat="40.584265" lon="8.6502683"><ele>297.4</ele><time>2026-04-19T13:46:42.452Z</time></trkpt><trkpt lat="40.5842533" lon="8.6503867"><ele>298.0</ele><time>2026-04-19T13:46:43.451Z</time></trkpt><trkpt lat="40.5842433" lon="8.65052"><ele>298.2</ele><time>2026-04-19T13:46:44.451Z</time></trkpt><trkpt lat="40.584225" lon="8.6506533"><ele>298.4</ele><time>2026-04-19T13:46:45.451Z</time></trkpt><trkpt lat="40.5842083" lon="8.6507817"><ele>298.59999999999997</ele><time>2026-04-19T13:46:46.452Z</time></trkpt><trkpt lat="40.5841967" lon="8.650905"><ele>298.8</ele><time>2026-04-19T13:46:47.451Z</time></trkpt><trkpt lat="40.584185" lon="8.6510167"><ele>299.0</ele><time>2026-04-19T13:46:48.451Z</time></trkpt><trkpt lat="40.584175" lon="8.651125"><ele>298.5</ele><time>2026-04-19T13:46:49.451Z</time></trkpt><trkpt lat="40.584165" lon="8.6512233"><ele>298.0</ele><time>2026-04-19T13:46:50.452Z</time></trkpt><trkpt lat="40.5841483" lon="8.6513183"><ele>297.5</ele><time>2026-04-19T13:46:51.451Z</time></trkpt><trkpt lat="40.5841367" lon="8.6514083"><ele>297.0</ele><time>2026-04-19T13:46:52.451Z</time></trkpt><trkpt lat="40.5841117" lon="8.6515083"><ele>296.5</ele><time>2026-04-19T13:46:53.451Z</time></trkpt><trkpt lat="40.5840717" lon="8.6516133"><ele>296.0</ele><time>2026-04-19T13:46:54.451Z</time></trkpt><trkpt lat="40.58402" lon="8.6517333"><ele>296.0</ele><time>2026-04-19T13:46:55.451Z</time></trkpt><trkpt lat="40.583955" lon="8.6518683"><ele>296.0</ele><time>2026-04-19T13:46:56.451Z</time></trkpt><trkpt lat="40.5838933" lon="8.6519933"><ele>296.0</ele><time>2026-04-19T13:46:57.452Z</time></trkpt><trkpt lat="40.583835" lon="8.6521167"><ele>296.0</ele><time>2026-04-19T13:46:58.451Z</time></trkpt><trkpt lat="40.58378" lon="8.6522517"><ele>294.6</ele><time>2026-04-19T13:46:59.451Z</time></trkpt><trkpt lat="40.58373" lon="8.652385"><ele>293.20000000000005</ele><time>2026-04-19T13:47:00.451Z</time></trkpt><trkpt lat="40.5836833" lon="8.6525217"><ele>291.79999999999995</ele><time>2026-04-19T13:47:01.452Z</time></trkpt><trkpt lat="40.5836433" lon="8.6526417"><ele>290.4</ele><time>2026-04-19T13:47:02.452Z</time></trkpt><trkpt lat="40.58361" lon="8.6527633"><ele>289.0</ele><time>2026-04-19T13:47:03.451Z</time></trkpt><trkpt lat="40.5835633" lon="8.6528833"><ele>294.0</ele><time>2026-04-19T13:47:04.451Z</time></trkpt><trkpt lat="40.5835117" lon="8.6530083"><ele>299.0</ele><time>2026-04-19T13:47:05.452Z</time></trkpt><trkpt lat="40.583455" lon="8.6531367"><ele>304.0</ele><time>2026-04-19T13:47:06.452Z</time></trkpt><trkpt lat="40.5833967" lon="8.6532717"><ele>309.0</ele><time>2026-04-19T13:47:07.452Z</time></trkpt><trkpt lat="40.5833383" lon="8.6534133"><ele>309.0</ele><time>2026-04-19T13:47:08.452Z</time></trkpt><trkpt lat="40.58328" lon="8.6535583"><ele>309.0</ele><time>2026-04-19T13:47:09.451Z</time></trkpt><trkpt lat="40.5832267" lon="8.6537167"><ele>309.0</ele><time>2026-04-19T13:47:10.452Z</time></trkpt><trkpt lat="40.5831683" lon="8.65387"><ele>309.0</ele><time>2026-04-19T13:47:11.451Z</time></trkpt><trkpt lat="40.5831167" lon="8.6540033"><ele>307.59999999999997</ele><time>2026-04-19T13:47:12.451Z</time></trkpt><trkpt lat="40.583065" lon="8.6541433"><ele>306.2</ele><time>2026-04-19T13:47:13.451Z</time></trkpt><trkpt lat="40.58302" lon="8.654265"><ele>304.79999999999995</ele><time>2026-04-19T13:47:14.451Z</time></trkpt><trkpt lat="40.58297" lon="8.65438"><ele>303.4</ele><time>2026-04-19T13:47:15.451Z</time></trkpt><trkpt lat="40.582925" lon="8.6544817"><ele>302.0</ele><time>2026-04-19T13:47:16.451Z</time></trkpt><trkpt lat="40.5828817" lon="8.6545617"><ele>302.83333333333337</ele><time>2026-04-19T13:47:17.451Z</time></trkpt><trkpt lat="40.5828383" lon="8.6546333"><ele>303.6666666666667</ele><time>2026-04-19T13:47:18.451Z</time></trkpt><trkpt lat="40.5827833" lon="8.6547133"><ele>304.5</ele><time>2026-04-19T13:47:19.452Z</time></trkpt><trkpt lat="40.5827233" lon="8.6547917"><ele>305.3333333333333</ele><time>2026-04-19T13:47:20.451Z</time></trkpt><trkpt lat="40.5826717" lon="8.6548733"><ele>306.16666666666663</ele><time>2026-04-19T13:47:21.45Z</time></trkpt><trkpt lat="40.58262" lon="8.6549567"><ele>307.0</ele><time>2026-04-19T13:47:22.45Z</time></trkpt><trkpt lat="40.58256" lon="8.655045"><ele>307.0</ele><time>2026-04-19T13:47:23.45Z</time></trkpt><trkpt lat="40.5824933" lon="8.65513"><ele>307.0</ele><time>2026-04-19T13:47:24.451Z</time></trkpt><trkpt lat="40.5824333" lon="8.6552133"><ele>307.0</ele><time>2026-04-19T13:47:25.451Z</time></trkpt><trkpt lat="40.58237" lon="8.6553083"><ele>307.0</ele><time>2026-04-19T13:47:26.45Z</time></trkpt><trkpt lat="40.5822967" lon="8.65541"><ele>307.0</ele><time>2026-04-19T13:47:27.45Z</time></trkpt><trkpt lat="40.582225" lon="8.6555033"><ele>308.2</ele><time>2026-04-19T13:47:28.45Z</time></trkpt><trkpt lat="40.58216" lon="8.6556"><ele>309.4</ele><time>2026-04-19T13:47:29.45Z</time></trkpt><trkpt lat="40.582105" lon="8.6556833"><ele>310.6</ele><time>2026-04-19T13:47:30.451Z</time></trkpt><trkpt lat="40.58204" lon="8.6558133"><ele>311.8</ele><time>2026-04-19T13:47:32.45Z</time></trkpt><trkpt lat="40.5819983" lon="8.655905"><ele>313.0</ele><time>2026-04-19T13:48:20.451Z</time></trkpt><trkpt lat="40.5819667" lon="8.6560067"><ele>310.66666666666663</ele><time>2026-04-19T13:48:22.45Z</time></trkpt><trkpt lat="40.58191" lon="8.6561417"><ele>308.3333333333333</ele><time>2026-04-19T13:48:24.451Z</time></trkpt><trkpt lat="40.58188" lon="8.6562183"><ele>306.0</ele><time>2026-04-19T13:48:25.45Z</time></trkpt><trkpt lat="40.58185" lon="8.6562967"><ele>303.6666666666667</ele><time>2026-04-19T13:48:26.451Z</time></trkpt><trkpt lat="40.5818167" lon="8.656385"><ele>301.33333333333337</ele><time>2026-04-19T13:48:27.451Z</time></trkpt><trkpt lat="40.5817833" lon="8.6564683"><ele>299.0</ele><time>2026-04-19T13:48:28.451Z</time></trkpt><trkpt lat="40.5817583" lon="8.65655"><ele>299.0</ele><time>2026-04-19T13:48:29.45Z</time></trkpt><trkpt lat="40.5817283" lon="8.6566433"><ele>299.0</ele><time>2026-04-19T13:48:30.45Z</time></trkpt><trkpt lat="40.5816867" lon="8.6567317"><ele>299.0</ele><time>2026-04-19T13:48:31.451Z</time></trkpt><trkpt lat="40.5816383" lon="8.6568183"><ele>299.0</ele><time>2026-04-19T13:48:32.451Z</time></trkpt><trkpt lat="40.5815883" lon="8.6569017"><ele>299.0</ele><time>2026-04-19T13:48:33.451Z</time></trkpt><trkpt lat="40.581525" lon="8.6569883"><ele>299.0</ele><time>2026-04-19T13:48:34.45Z</time></trkpt><trkpt lat="40.5814583" lon="8.657065"><ele>300.33333333333337</ele><time>2026-04-19T13:48:35.451Z</time></trkpt><trkpt lat="40.5813883" lon="8.65715"><ele>301.6666666666667</ele><time>2026-04-19T13:48:36.45Z</time></trkpt><trkpt lat="40.581335" lon="8.65723"><ele>303.0</ele><time>2026-04-19T13:48:37.45Z</time></trkpt><trkpt lat="40.58129" lon="8.6573183"><ele>304.3333333333333</ele><time>2026-04-19T13:48:38.451Z</time></trkpt><trkpt lat="40.5812467" lon="8.6574217"><ele>305.66666666666663</ele><time>2026-04-19T13:48:39.451Z</time></trkpt><trkpt lat="40.58121" lon="8.6575383"><ele>307.0</ele><time>2026-04-19T13:48:40.45Z</time></trkpt><trkpt lat="40.581175" lon="8.6576633"><ele>307.0</ele><time>2026-04-19T13:48:41.451Z</time></trkpt><trkpt lat="40.581145" lon="8.65778"><ele>307.0</ele><time>2026-04-19T13:48:42.45Z</time></trkpt><trkpt lat="40.581115" lon="8.657885"><ele>307.0</ele><time>2026-04-19T13:48:43.45Z</time></trkpt><trkpt lat="40.5810833" lon="8.6579667"><ele>307.0</ele><time>2026-04-19T13:48:44.451Z</time></trkpt><trkpt lat="40.581005" lon="8.6580933"><ele>307.0</ele><time>2026-04-19T13:48:46.45Z</time></trkpt><trkpt lat="40.5809517" lon="8.6581567"><ele>307.0</ele><time>2026-04-19T13:48:47.45Z</time></trkpt><trkpt lat="40.5809017" lon="8.6582317"><ele>304.66666666666663</ele><time>2026-04-19T13:48:48.451Z</time></trkpt><trkpt lat="40.58085" lon="8.6583183"><ele>302.3333333333333</ele><time>2026-04-19T13:48:49.45Z</time></trkpt><trkpt lat="40.5808017" lon="8.6584"><ele>300.0</ele><time>2026-04-19T13:48:50.45Z</time></trkpt><trkpt lat="40.5807417" lon="8.6584633"><ele>297.6666666666667</ele><time>2026-04-19T13:48:51.45Z</time></trkpt><trkpt lat="40.5806817" lon="8.6585267"><ele>295.33333333333337</ele><time>2026-04-19T13:48:52.45Z</time></trkpt><trkpt lat="40.5806217" lon="8.6585867"><ele>293.0</ele><time>2026-04-19T13:48:53.45Z</time></trkpt><trkpt lat="40.580555" lon="8.658635"><ele>294.0</ele><time>2026-04-19T13:48:54.451Z</time></trkpt><trkpt lat="40.580485" lon="8.6586833"><ele>295.0</ele><time>2026-04-19T13:48:55.45Z</time></trkpt><trkpt lat="40.5804133" lon="8.6587367"><ele>296.0</ele><time>2026-04-19T13:48:56.45Z</time></trkpt><trkpt lat="40.5803417" lon="8.6587983"><ele>297.0</ele><time>2026-04-19T13:48:57.451Z</time></trkpt><trkpt lat="40.5802633" lon="8.6588517"><ele>298.0</ele><time>2026-04-19T13:48:58.45Z</time></trkpt><trkpt lat="40.5801733" lon="8.6589183"><ele>299.0</ele><time>2026-04-19T13:48:59.451Z</time></trkpt><trkpt lat="40.5800867" lon="8.65898"><ele>299.0</ele><time>2026-04-19T13:49:00.451Z</time></trkpt><trkpt lat="40.579995" lon="8.6590417"><ele>299.0</ele><time>2026-04-19T13:49:01.451Z</time></trkpt><trkpt lat="40.5799133" lon="8.6591067"><ele>299.0</ele><time>2026-04-19T13:49:02.451Z</time></trkpt><trkpt lat="40.5798383" lon="8.6591667"><ele>299.0</ele><time>2026-04-19T13:49:03.451Z</time></trkpt><trkpt lat="40.57976" lon="8.6592317"><ele>299.0</ele><time>2026-04-19T13:49:04.45Z</time></trkpt><trkpt lat="40.5796817" lon="8.6592917"><ele>299.0</ele><time>2026-04-19T13:49:05.45Z</time></trkpt><trkpt lat="40.579605" lon="8.6593533"><ele>299.0</ele><time>2026-04-19T13:49:06.451Z</time></trkpt><trkpt lat="40.5795333" lon="8.6594133"><ele>299.0</ele><time>2026-04-19T13:49:07.45Z</time></trkpt><trkpt lat="40.57946" lon="8.6594817"><ele>299.0</ele><time>2026-04-19T13:49:08.45Z</time></trkpt><trkpt lat="40.579395" lon="8.6595467"><ele>299.0</ele><time>2026-04-19T13:49:09.451Z</time></trkpt><trkpt lat="40.5793267" lon="8.6596217"><ele>299.0</ele><time>2026-04-19T13:49:10.45Z</time></trkpt><trkpt lat="40.5792633" lon="8.6597033"><ele>300.59999999999997</ele><time>2026-04-19T13:49:11.45Z</time></trkpt><trkpt lat="40.5791967" lon="8.6597967"><ele>302.2</ele><time>2026-04-19T13:49:12.451Z</time></trkpt><trkpt lat="40.579135" lon="8.659885"><ele>303.79999999999995</ele><time>2026-04-19T13:49:13.45Z</time></trkpt><trkpt lat="40.5790717" lon="8.6599717"><ele>305.4</ele><time>2026-04-19T13:49:14.45Z</time></trkpt><trkpt lat="40.579005" lon="8.6600633"><ele>307.0</ele><time>2026-04-19T13:49:15.45Z</time></trkpt><trkpt lat="40.5789417" lon="8.6601517"><ele>307.0</ele><time>2026-04-19T13:49:16.451Z</time></trkpt><trkpt lat="40.5788733" lon="8.6602517"><ele>307.0</ele><time>2026-04-19T13:49:17.451Z</time></trkpt><trkpt lat="40.5788033" lon="8.66035"><ele>307.0</ele><time>2026-04-19T13:49:18.451Z</time></trkpt><trkpt lat="40.5787317" lon="8.6604483"><ele>307.0</ele><time>2026-04-19T13:49:19.45Z</time></trkpt><trkpt lat="40.5786583" lon="8.660545"><ele>307.0</ele><time>2026-04-19T13:49:20.45Z</time></trkpt><trkpt lat="40.5785967" lon="8.6606467"><ele>308.8</ele><time>2026-04-19T13:49:21.45Z</time></trkpt><trkpt lat="40.5785267" lon="8.660745"><ele>310.6</ele><time>2026-04-19T13:49:22.45Z</time></trkpt><trkpt lat="40.57845" lon="8.6608367"><ele>312.40000000000003</ele><time>2026-04-19T13:49:23.45Z</time></trkpt><trkpt lat="40.5783717" lon="8.66094"><ele>314.2</ele><time>2026-04-19T13:49:24.451Z</time></trkpt><trkpt lat="40.5782883" lon="8.6610467"><ele>316.0</ele><time>2026-04-19T13:49:25.45Z</time></trkpt><trkpt lat="40.57822" lon="8.6611483"><ele>312.0</ele><time>2026-04-19T13:49:26.45Z</time></trkpt><trkpt lat="40.57815" lon="8.661245"><ele>308.0</ele><time>2026-04-19T13:49:27.45Z</time></trkpt><trkpt lat="40.5780767" lon="8.6613533"><ele>304.0</ele><time>2026-04-19T13:49:28.45Z</time></trkpt><trkpt lat="40.57801" lon="8.6614567"><ele>300.0</ele><time>2026-04-19T13:49:29.451Z</time></trkpt><trkpt lat="40.5779483" lon="8.6615483"><ele>296.0</ele><time>2026-04-19T13:49:30.451Z</time></trkpt><trkpt lat="40.5778833" lon="8.6616317"><ele>295.0</ele><time>2026-04-19T13:49:31.45Z</time></trkpt><trkpt lat="40.5778167" lon="8.6617"><ele>294.0</ele><time>2026-04-19T13:49:32.45Z</time></trkpt><trkpt lat="40.57773" lon="8.6617683"><ele>293.0</ele><time>2026-04-19T13:49:33.451Z</time></trkpt><trkpt lat="40.5776383" lon="8.6618383"><ele>292.0</ele><time>2026-04-19T13:49:34.45Z</time></trkpt><trkpt lat="40.5775433" lon="8.6619217"><ele>291.0</ele><time>2026-04-19T13:49:35.45Z</time></trkpt><trkpt lat="40.577445" lon="8.6620033"><ele>291.0</ele><time>2026-04-19T13:49:36.451Z</time></trkpt><trkpt lat="40.5773633" lon="8.6620783"><ele>291.0</ele><time>2026-04-19T13:49:37.451Z</time></trkpt><trkpt lat="40.577285" lon="8.6621533"><ele>291.0</ele><time>2026-04-19T13:49:38.451Z</time></trkpt><trkpt lat="40.5772" lon="8.6622183"><ele>291.0</ele><time>2026-04-19T13:49:39.45Z</time></trkpt><trkpt lat="40.577115" lon="8.6622767"><ele>291.0</ele><time>2026-04-19T13:49:40.451Z</time></trkpt><trkpt lat="40.5770333" lon="8.6623267"><ele>294.8</ele><time>2026-04-19T13:49:41.451Z</time></trkpt><trkpt lat="40.576935" lon="8.66237"><ele>298.6</ele><time>2026-04-19T13:49:42.45Z</time></trkpt><trkpt lat="40.5768533" lon="8.6624167"><ele>302.4</ele><time>2026-04-19T13:49:43.451Z</time></trkpt><trkpt lat="40.57676" lon="8.6624583"><ele>306.2</ele><time>2026-04-19T13:49:44.45Z</time></trkpt><trkpt lat="40.57667" lon="8.6625017"><ele>310.0</ele><time>2026-04-19T13:49:45.451Z</time></trkpt><trkpt lat="40.57658" lon="8.6625533"><ele>310.0</ele><time>2026-04-19T13:49:46.451Z</time></trkpt><trkpt lat="40.5764917" lon="8.6626133"><ele>310.0</ele><time>2026-04-19T13:49:47.45Z</time></trkpt><trkpt lat="40.5764033" lon="8.6626683"><ele>310.0</ele><time>2026-04-19T13:49:48.45Z</time></trkpt><trkpt lat="40.5763233" lon="8.6627167"><ele>310.0</ele><time>2026-04-19T13:49:49.451Z</time></trkpt><trkpt lat="40.576245" lon="8.662755"><ele>310.0</ele><time>2026-04-19T13:49:50.451Z</time></trkpt><trkpt lat="40.576165" lon="8.662795"><ele>306.8</ele><time>2026-04-19T13:49:51.45Z</time></trkpt><trkpt lat="40.5760783" lon="8.66283"><ele>303.6</ele><time>2026-04-19T13:49:52.451Z</time></trkpt><trkpt lat="40.575995" lon="8.662865"><ele>300.4</ele><time>2026-04-19T13:49:53.45Z</time></trkpt><trkpt lat="40.575905" lon="8.662895"><ele>297.2</ele><time>2026-04-19T13:49:54.45Z</time></trkpt><trkpt lat="40.5758217" lon="8.66293"><ele>294.0</ele><time>2026-04-19T13:49:55.45Z</time></trkpt><trkpt lat="40.575735" lon="8.6629783"><ele>294.0</ele><time>2026-04-19T13:49:56.451Z</time></trkpt><trkpt lat="40.5756383" lon="8.6630217"><ele>294.0</ele><time>2026-04-19T13:49:57.45Z</time></trkpt><trkpt lat="40.5755433" lon="8.6630633"><ele>294.0</ele><time>2026-04-19T13:49:58.45Z</time></trkpt><trkpt lat="40.575445" lon="8.66312"><ele>294.0</ele><time>2026-04-19T13:49:59.451Z</time></trkpt><trkpt lat="40.5753467" lon="8.663175"><ele>294.0</ele><time>2026-04-19T13:50:00.45Z</time></trkpt><trkpt lat="40.5752633" lon="8.6632183"><ele>296.0</ele><time>2026-04-19T13:50:01.45Z</time></trkpt><trkpt lat="40.575185" lon="8.6632667"><ele>298.0</ele><time>2026-04-19T13:50:02.451Z</time></trkpt><trkpt lat="40.5751067" lon="8.6633133"><ele>300.0</ele><time>2026-04-19T13:50:03.45Z</time></trkpt><trkpt lat="40.57503" lon="8.663365"><ele>302.0</ele><time>2026-04-19T13:50:04.45Z</time></trkpt><trkpt lat="40.5749583" lon="8.66342"><ele>304.0</ele><time>2026-04-19T13:50:05.451Z</time></trkpt><trkpt lat="40.5748983" lon="8.6634883"><ele>306.0</ele><time>2026-04-19T13:50:06.45Z</time></trkpt><trkpt lat="40.57484" lon="8.6635533"><ele>307.0</ele><time>2026-04-19T13:50:07.45Z</time></trkpt><trkpt lat="40.57477" lon="8.6636217"><ele>308.0</ele><time>2026-04-19T13:50:08.45Z</time></trkpt><trkpt lat="40.5746883" lon="8.6636967"><ele>309.0</ele><time>2026-04-19T13:50:09.45Z</time></trkpt><trkpt lat="40.5746017" lon="8.6637767"><ele>310.0</ele><time>2026-04-19T13:50:10.45Z</time></trkpt><trkpt lat="40.5745183" lon="8.66385"><ele>311.0</ele><time>2026-04-19T13:50:11.451Z</time></trkpt><trkpt lat="40.5744333" lon="8.6639283"><ele>311.0</ele><time>2026-04-19T13:50:12.45Z</time></trkpt><trkpt lat="40.574345" lon="8.6639983"><ele>311.0</ele><time>2026-04-19T13:50:13.45Z</time></trkpt><trkpt lat="40.5742617" lon="8.664075"><ele>311.0</ele><time>2026-04-19T13:50:14.451Z</time></trkpt><trkpt lat="40.5741717" lon="8.66416"><ele>311.0</ele><time>2026-04-19T13:50:15.45Z</time></trkpt><trkpt lat="40.5740983" lon="8.66423"><ele>311.0</ele><time>2026-04-19T13:50:16.451Z</time></trkpt><trkpt lat="40.5740317" lon="8.66429"><ele>311.0</ele><time>2026-04-19T13:50:17.45Z</time></trkpt><trkpt lat="40.57396" lon="8.6643467"><ele>311.0</ele><time>2026-04-19T13:50:18.45Z</time></trkpt><trkpt lat="40.5738933" lon="8.6644"><ele>311.0</ele><time>2026-04-19T13:50:19.45Z</time></trkpt><trkpt lat="40.5738283" lon="8.6644467"><ele>311.0</ele><time>2026-04-19T13:50:20.45Z</time></trkpt><trkpt lat="40.5737617" lon="8.664485"><ele>311.0</ele><time>2026-04-19T13:50:21.45Z</time></trkpt><trkpt lat="40.57369" lon="8.664525"><ele>311.0</ele><time>2026-04-19T13:50:22.451Z</time></trkpt><trkpt lat="40.5736117" lon="8.6645667"><ele>310.2</ele><time>2026-04-19T13:50:23.451Z</time></trkpt><trkpt lat="40.57353" lon="8.6645967"><ele>309.40000000000003</ele><time>2026-04-19T13:50:24.451Z</time></trkpt><trkpt lat="40.5734467" lon="8.6646417"><ele>308.6</ele><time>2026-04-19T13:50:25.45Z</time></trkpt><trkpt lat="40.5733533" lon="8.6646933"><ele>307.8</ele><time>2026-04-19T13:50:26.45Z</time></trkpt><trkpt lat="40.57325" lon="8.6647333"><ele>307.0</ele><time>2026-04-19T13:50:27.451Z</time></trkpt><trkpt lat="40.573155" lon="8.6647833"><ele>307.0</ele><time>2026-04-19T13:50:28.451Z</time></trkpt><trkpt lat="40.5730567" lon="8.664825"><ele>307.0</ele><time>2026-04-19T13:50:29.451Z</time></trkpt><trkpt lat="40.572965" lon="8.66486"><ele>307.0</ele><time>2026-04-19T13:50:30.451Z</time></trkpt><trkpt lat="40.57288" lon="8.6648933"><ele>307.0</ele><time>2026-04-19T13:50:31.45Z</time></trkpt><trkpt lat="40.57279" lon="8.6649283"><ele>307.0</ele><time>2026-04-19T13:50:32.451Z</time></trkpt><trkpt lat="40.5727083" lon="8.66497"><ele>307.8333333333333</ele><time>2026-04-19T13:50:33.45Z</time></trkpt><trkpt lat="40.5726283" lon="8.6649983"><ele>308.66666666666663</ele><time>2026-04-19T13:50:34.45Z</time></trkpt><trkpt lat="40.5725383" lon="8.6650383"><ele>309.5</ele><time>2026-04-19T13:50:35.45Z</time></trkpt><trkpt lat="40.572455" lon="8.6650833"><ele>310.3333333333333</ele><time>2026-04-19T13:50:36.45Z</time></trkpt><trkpt lat="40.5723867" lon="8.665125"><ele>311.1666666666667</ele><time>2026-04-19T13:50:37.45Z</time></trkpt><trkpt lat="40.57231" lon="8.6651533"><ele>312.0</ele><time>2026-04-19T13:50:38.451Z</time></trkpt><trkpt lat="40.5722283" lon="8.6651817"><ele>312.0</ele><time>2026-04-19T13:50:39.45Z</time></trkpt><trkpt lat="40.5721433" lon="8.6652033"><ele>312.0</ele><time>2026-04-19T13:50:40.451Z</time></trkpt><trkpt lat="40.572045" lon="8.6652217"><ele>312.0</ele><time>2026-04-19T13:50:41.45Z</time></trkpt><trkpt lat="40.57194" lon="8.6652467"><ele>312.0</ele><time>2026-04-19T13:50:42.45Z</time></trkpt><trkpt lat="40.5718417" lon="8.66527"><ele>312.0</ele><time>2026-04-19T13:50:43.45Z</time></trkpt><trkpt lat="40.57175" lon="8.6652783"><ele>309.4</ele><time>2026-04-19T13:50:44.451Z</time></trkpt><trkpt lat="40.5716633" lon="8.6652883"><ele>306.79999999999995</ele><time>2026-04-19T13:50:45.45Z</time></trkpt><trkpt lat="40.5715733" lon="8.6652983"><ele>304.2</ele><time>2026-04-19T13:50:46.45Z</time></trkpt><trkpt lat="40.5714767" lon="8.66532"><ele>301.59999999999997</ele><time>2026-04-19T13:50:47.451Z</time></trkpt><trkpt lat="40.571385" lon="8.6653417"><ele>299.0</ele><time>2026-04-19T13:50:48.45Z</time></trkpt><trkpt lat="40.5712883" lon="8.6653533"><ele>299.0</ele><time>2026-04-19T13:50:49.451Z</time></trkpt><trkpt lat="40.5712017" lon="8.665365"><ele>299.0</ele><time>2026-04-19T13:50:50.45Z</time></trkpt><trkpt lat="40.5711083" lon="8.6653933"><ele>299.0</ele><time>2026-04-19T13:50:51.45Z</time></trkpt><trkpt lat="40.5710117" lon="8.66541"><ele>299.0</ele><time>2026-04-19T13:50:52.451Z</time></trkpt><trkpt lat="40.5709083" lon="8.665425"><ele>299.0</ele><time>2026-04-19T13:50:53.45Z</time></trkpt><trkpt lat="40.5707933" lon="8.66545"><ele>300.75</ele><time>2026-04-19T13:50:54.45Z</time></trkpt><trkpt lat="40.5706767" lon="8.66547"><ele>302.5</ele><time>2026-04-19T13:50:55.451Z</time></trkpt><trkpt lat="40.5705617" lon="8.6654867"><ele>304.25</ele><time>2026-04-19T13:50:56.45Z</time></trkpt><trkpt lat="40.570445" lon="8.665505"><ele>306.0</ele><time>2026-04-19T13:50:57.451Z</time></trkpt><trkpt lat="40.5703283" lon="8.665525"><ele>306.2</ele><time>2026-04-19T13:50:58.451Z</time></trkpt><trkpt lat="40.5702167" lon="8.66554"><ele>306.40000000000003</ele><time>2026-04-19T13:50:59.451Z</time></trkpt><trkpt lat="40.5701067" lon="8.6655617"><ele>306.6</ele><time>2026-04-19T13:51:00.45Z</time></trkpt><trkpt lat="40.5699967" lon="8.665585"><ele>306.8</ele><time>2026-04-19T13:51:01.45Z</time></trkpt><trkpt lat="40.56989" lon="8.6656017"><ele>307.0</ele><time>2026-04-19T13:51:02.45Z</time></trkpt><trkpt lat="40.5697867" lon="8.6656117"><ele>307.0</ele><time>2026-04-19T13:51:03.45Z</time></trkpt><trkpt lat="40.56969" lon="8.6656233"><ele>307.0</ele><time>2026-04-19T13:51:04.45Z</time></trkpt><trkpt lat="40.5695917" lon="8.6656217"><ele>307.0</ele><time>2026-04-19T13:51:05.451Z</time></trkpt><trkpt lat="40.5694983" lon="8.6656183"><ele>307.0</ele><time>2026-04-19T13:51:06.45Z</time></trkpt><trkpt lat="40.5694067" lon="8.6656033"><ele>307.0</ele><time>2026-04-19T13:51:07.451Z</time></trkpt><trkpt lat="40.5693083" lon="8.6655867"><ele>307.4</ele><time>2026-04-19T13:51:08.45Z</time></trkpt><trkpt lat="40.5691967" lon="8.665565"><ele>307.79999999999995</ele><time>2026-04-19T13:51:09.45Z</time></trkpt><trkpt lat="40.56909" lon="8.66555"><ele>308.2</ele><time>2026-04-19T13:51:10.45Z</time></trkpt><trkpt lat="40.56899" lon="8.665535"><ele>308.59999999999997</ele><time>2026-04-19T13:51:11.45Z</time></trkpt><trkpt lat="40.5688883" lon="8.66552"><ele>309.0</ele><time>2026-04-19T13:51:12.451Z</time></trkpt><trkpt lat="40.5687883" lon="8.6655117"><ele>309.0</ele><time>2026-04-19T13:51:13.45Z</time></trkpt><trkpt lat="40.5686967" lon="8.6655033"><ele>309.0</ele><time>2026-04-19T13:51:14.45Z</time></trkpt><trkpt lat="40.5686067" lon="8.6654967"><ele>309.0</ele><time>2026-04-19T13:51:15.451Z</time></trkpt><trkpt lat="40.5685183" lon="8.6654917"><ele>309.0</ele><time>2026-04-19T13:51:16.451Z</time></trkpt><trkpt lat="40.56844" lon="8.665495"><ele>309.0</ele><time>2026-04-19T13:51:17.45Z</time></trkpt><trkpt lat="40.5683717" lon="8.6654833"><ele>309.0</ele><time>2026-04-19T13:51:18.45Z</time></trkpt><trkpt lat="40.568305" lon="8.66547"><ele>309.1666666666667</ele><time>2026-04-19T13:51:19.45Z</time></trkpt><trkpt lat="40.5681867" lon="8.6654933"><ele>309.3333333333333</ele><time>2026-04-19T13:51:21.45Z</time></trkpt><trkpt lat="40.5681317" lon="8.6655417"><ele>309.5</ele><time>2026-04-19T13:51:22.45Z</time></trkpt><trkpt lat="40.5680817" lon="8.6655967"><ele>309.66666666666663</ele><time>2026-04-19T13:51:23.45Z</time></trkpt><trkpt lat="40.5680333" lon="8.6656617"><ele>309.8333333333333</ele><time>2026-04-19T13:51:24.451Z</time></trkpt><trkpt lat="40.56798" lon="8.6657217"><ele>310.0</ele><time>2026-04-19T13:51:25.45Z</time></trkpt><trkpt lat="40.5679167" lon="8.6657933"><ele>310.8333333333333</ele><time>2026-04-19T13:51:26.45Z</time></trkpt><trkpt lat="40.5678583" lon="8.6658733"><ele>311.66666666666663</ele><time>2026-04-19T13:51:27.451Z</time></trkpt><trkpt lat="40.5678133" lon="8.6659517"><ele>312.5</ele><time>2026-04-19T13:51:28.451Z</time></trkpt><trkpt lat="40.56777" lon="8.66602"><ele>313.3333333333333</ele><time>2026-04-19T13:51:29.45Z</time></trkpt><trkpt lat="40.567695" lon="8.6661033"><ele>314.1666666666667</ele><time>2026-04-19T13:51:31.45Z</time></trkpt><trkpt lat="40.5676033" lon="8.6661183"><ele>315.0</ele><time>2026-04-19T13:51:33.45Z</time></trkpt><trkpt lat="40.5674917" lon="8.6660617"><ele>315.0</ele><time>2026-04-19T13:51:35.451Z</time></trkpt><trkpt lat="40.5674083" lon="8.6659233"><ele>315.0</ele><time>2026-04-19T13:51:37.45Z</time></trkpt><trkpt lat="40.5673717" lon="8.6658383"><ele>315.0</ele><time>2026-04-19T13:51:38.45Z</time></trkpt><trkpt lat="40.56733" lon="8.6657533"><ele>315.0</ele><time>2026-04-19T13:51:39.45Z</time></trkpt><trkpt lat="40.5672833" lon="8.6656667"><ele>315.0</ele><time>2026-04-19T13:51:40.451Z</time></trkpt><trkpt lat="40.5672267" lon="8.66558"><ele>315.0</ele><time>2026-04-19T13:51:41.45Z</time></trkpt><trkpt lat="40.5671583" lon="8.665505"><ele>315.0</ele><time>2026-04-19T13:51:42.451Z</time></trkpt><trkpt lat="40.5670817" lon="8.665445"><ele>315.0</ele><time>2026-04-19T13:51:43.451Z</time></trkpt><trkpt lat="40.5670033" lon="8.665405"><ele>315.0</ele><time>2026-04-19T13:51:44.451Z</time></trkpt><trkpt lat="40.5669167" lon="8.6653783"><ele>315.0</ele><time>2026-04-19T13:51:45.45Z</time></trkpt><trkpt lat="40.5668233" lon="8.66536"><ele>315.0</ele><time>2026-04-19T13:51:46.45Z</time></trkpt><trkpt lat="40.56673" lon="8.66535"><ele>314.2</ele><time>2026-04-19T13:51:47.451Z</time></trkpt><trkpt lat="40.5666283" lon="8.6653333"><ele>313.4</ele><time>2026-04-19T13:51:48.45Z</time></trkpt><trkpt lat="40.56653" lon="8.6653133"><ele>312.6</ele><time>2026-04-19T13:51:49.45Z</time></trkpt><trkpt lat="40.566445" lon="8.6652917"><ele>311.8</ele><time>2026-04-19T13:51:50.45Z</time></trkpt><trkpt lat="40.5663567" lon="8.6652717"><ele>311.0</ele><time>2026-04-19T13:51:51.45Z</time></trkpt><trkpt lat="40.5662783" lon="8.6652417"><ele>312.5</ele><time>2026-04-19T13:51:52.451Z</time></trkpt><trkpt lat="40.5661917" lon="8.665215"><ele>314.0</ele><time>2026-04-19T13:51:53.45Z</time></trkpt><trkpt lat="40.5661083" lon="8.6651717"><ele>315.5</ele><time>2026-04-19T13:51:54.45Z</time></trkpt><trkpt lat="40.566025" lon="8.665125"><ele>317.0</ele><time>2026-04-19T13:51:55.45Z</time></trkpt><trkpt lat="40.5659417" lon="8.665075"><ele>318.5</ele><time>2026-04-19T13:51:56.451Z</time></trkpt><trkpt lat="40.5658717" lon="8.66503"><ele>320.0</ele><time>2026-04-19T13:51:57.45Z</time></trkpt><trkpt lat="40.5657883" lon="8.664965"><ele>320.0</ele><time>2026-04-19T13:51:58.451Z</time></trkpt><trkpt lat="40.5657067" lon="8.6648883"><ele>320.0</ele><time>2026-04-19T13:51:59.451Z</time></trkpt><trkpt lat="40.5656117" lon="8.6648083"><ele>320.0</ele><time>2026-04-19T13:52:00.451Z</time></trkpt><trkpt lat="40.5655067" lon="8.6647217"><ele>320.0</ele><time>2026-04-19T13:52:01.45Z</time></trkpt><trkpt lat="40.565395" lon="8.6646417"><ele>317.6</ele><time>2026-04-19T13:52:02.451Z</time></trkpt><trkpt lat="40.5652917" lon="8.6645717"><ele>315.2</ele><time>2026-04-19T13:52:03.45Z</time></trkpt><trkpt lat="40.5652017" lon="8.6645017"><ele>312.8</ele><time>2026-04-19T13:52:04.451Z</time></trkpt><trkpt lat="40.5651133" lon="8.6644217"><ele>310.4</ele><time>2026-04-19T13:52:05.45Z</time></trkpt><trkpt lat="40.5650217" lon="8.664345"><ele>308.0</ele><time>2026-04-19T13:52:06.451Z</time></trkpt><trkpt lat="40.5649233" lon="8.6642967"><ele>313.25</ele><time>2026-04-19T13:52:07.451Z</time></trkpt><trkpt lat="40.5648217" lon="8.6642633"><ele>318.5</ele><time>2026-04-19T13:52:08.45Z</time></trkpt><trkpt lat="40.5647183" lon="8.6642317"><ele>323.75</ele><time>2026-04-19T13:52:09.45Z</time></trkpt><trkpt lat="40.5645983" lon="8.6641917"><ele>329.0</ele><time>2026-04-19T13:52:10.451Z</time></trkpt><trkpt lat="40.5644767" lon="8.6641567"><ele>329.0</ele><time>2026-04-19T13:52:11.451Z</time></trkpt><trkpt lat="40.5643633" lon="8.6641217"><ele>329.0</ele><time>2026-04-19T13:52:12.45Z</time></trkpt><trkpt lat="40.5642417" lon="8.6640767"><ele>329.0</ele><time>2026-04-19T13:52:13.451Z</time></trkpt><trkpt lat="40.56412" lon="8.6640233"><ele>329.0</ele><time>2026-04-19T13:52:14.45Z</time></trkpt><trkpt lat="40.5640083" lon="8.6639883"><ele>329.0</ele><time>2026-04-19T13:52:15.451Z</time></trkpt><trkpt lat="40.563895" lon="8.66395"><ele>329.0</ele><time>2026-04-19T13:52:16.45Z</time></trkpt><trkpt lat="40.5637817" lon="8.6639167"><ele>329.0</ele><time>2026-04-19T13:52:17.45Z</time></trkpt><trkpt lat="40.5636817" lon="8.6638767"><ele>329.0</ele><time>2026-04-19T13:52:18.45Z</time></trkpt><trkpt lat="40.5636017" lon="8.6638417"><ele>329.0</ele><time>2026-04-19T13:52:19.451Z</time></trkpt><trkpt lat="40.5635283" lon="8.663795"><ele>328.79999999999995</ele><time>2026-04-19T13:52:20.451Z</time></trkpt><trkpt lat="40.5634617" lon="8.6637283"><ele>328.59999999999997</ele><time>2026-04-19T13:52:21.451Z</time></trkpt><trkpt lat="40.5633967" lon="8.6636233"><ele>328.4</ele><time>2026-04-19T13:52:22.451Z</time></trkpt><trkpt lat="40.56334" lon="8.6635067"><ele>328.2</ele><time>2026-04-19T13:52:23.45Z</time></trkpt><trkpt lat="40.5632883" lon="8.663405"><ele>328.0</ele><time>2026-04-19T13:52:24.45Z</time></trkpt><trkpt lat="40.56324" lon="8.66333"><ele>329.66666666666663</ele><time>2026-04-19T13:52:25.451Z</time></trkpt><trkpt lat="40.563185" lon="8.6632817"><ele>331.3333333333333</ele><time>2026-04-19T13:52:26.451Z</time></trkpt><trkpt lat="40.5630667" lon="8.6632833"><ele>333.0</ele><time>2026-04-19T13:52:28.451Z</time></trkpt><trkpt lat="40.5630067" lon="8.663335"><ele>334.6666666666667</ele><time>2026-04-19T13:52:29.45Z</time></trkpt><trkpt lat="40.5629483" lon="8.6634133"><ele>336.33333333333337</ele><time>2026-04-19T13:52:30.45Z</time></trkpt><trkpt lat="40.5628967" lon="8.6635017"><ele>338.0</ele><time>2026-04-19T13:52:31.451Z</time></trkpt><trkpt lat="40.562845" lon="8.6635983"><ele>337.59999999999997</ele><time>2026-04-19T13:52:32.45Z</time></trkpt><trkpt lat="40.5627767" lon="8.663685"><ele>337.2</ele><time>2026-04-19T13:52:33.451Z</time></trkpt><trkpt lat="40.5627083" lon="8.6637817"><ele>336.8</ele><time>2026-04-19T13:52:34.451Z</time></trkpt><trkpt lat="40.5626267" lon="8.6638783"><ele>336.4</ele><time>2026-04-19T13:52:35.45Z</time></trkpt><trkpt lat="40.5625517" lon="8.663965"><ele>336.0</ele><time>2026-04-19T13:52:36.45Z</time></trkpt><trkpt lat="40.56249" lon="8.66404"><ele>336.0</ele><time>2026-04-19T13:52:37.451Z</time></trkpt><trkpt lat="40.562435" lon="8.664095"><ele>336.0</ele><time>2026-04-19T13:52:38.45Z</time></trkpt><trkpt lat="40.5623333" lon="8.66413"><ele>336.0</ele><time>2026-04-19T13:52:40.451Z</time></trkpt><trkpt lat="40.5622183" lon="8.66408"><ele>336.0</ele><time>2026-04-19T13:52:42.449Z</time></trkpt><trkpt lat="40.5621683" lon="8.664005"><ele>336.0</ele><time>2026-04-19T13:52:43.45Z</time></trkpt><trkpt lat="40.5621333" lon="8.6639083"><ele>336.0</ele><time>2026-04-19T13:52:44.45Z</time></trkpt><trkpt lat="40.562105" lon="8.6638"><ele>336.0</ele><time>2026-04-19T13:52:45.449Z</time></trkpt><trkpt lat="40.56207" lon="8.663685"><ele>336.0</ele><time>2026-04-19T13:52:46.449Z</time></trkpt><trkpt lat="40.56204" lon="8.6635767"><ele>336.0</ele><time>2026-04-19T13:52:47.45Z</time></trkpt><trkpt lat="40.562005" lon="8.6634633"><ele>336.0</ele><time>2026-04-19T13:52:48.449Z</time></trkpt><trkpt lat="40.561975" lon="8.66334"><ele>336.3333333333333</ele><time>2026-04-19T13:52:49.449Z</time></trkpt><trkpt lat="40.5619383" lon="8.663225"><ele>336.6666666666667</ele><time>2026-04-19T13:52:50.45Z</time></trkpt><trkpt lat="40.5619" lon="8.6631317"><ele>337.0</ele><time>2026-04-19T13:52:51.45Z</time></trkpt><trkpt lat="40.5618567" lon="8.6630517"><ele>337.33333333333337</ele><time>2026-04-19T13:52:52.45Z</time></trkpt><trkpt lat="40.5618067" lon="8.6629817"><ele>337.6666666666667</ele><time>2026-04-19T13:52:53.449Z</time></trkpt><trkpt lat="40.561745" lon="8.66291"><ele>338.0</ele><time>2026-04-19T13:52:54.45Z</time></trkpt><trkpt lat="40.56168" lon="8.6628417"><ele>338.0</ele><time>2026-04-19T13:52:55.449Z</time></trkpt><trkpt lat="40.5616067" lon="8.6627933"><ele>338.0</ele><time>2026-04-19T13:52:56.45Z</time></trkpt><trkpt lat="40.5615183" lon="8.662745"><ele>338.0</ele><time>2026-04-19T13:52:57.45Z</time></trkpt><trkpt lat="40.56143" lon="8.66271"><ele>338.0</ele><time>2026-04-19T13:52:58.45Z</time></trkpt><trkpt lat="40.5613467" lon="8.6626783"><ele>338.0</ele><time>2026-04-19T13:52:59.45Z</time></trkpt><trkpt lat="40.561265" lon="8.6626417"><ele>338.0</ele><time>2026-04-19T13:53:00.449Z</time></trkpt><trkpt lat="40.56118" lon="8.6625983"><ele>339.59999999999997</ele><time>2026-04-19T13:53:01.449Z</time></trkpt><trkpt lat="40.5610867" lon="8.66255"><ele>341.2</ele><time>2026-04-19T13:53:02.45Z</time></trkpt><trkpt lat="40.5609917" lon="8.6625"><ele>342.8</ele><time>2026-04-19T13:53:03.449Z</time></trkpt><trkpt lat="40.5609" lon="8.66246"><ele>344.4</ele><time>2026-04-19T13:53:04.449Z</time></trkpt><trkpt lat="40.5608117" lon="8.6624067"><ele>346.0</ele><time>2026-04-19T13:53:05.45Z</time></trkpt><trkpt lat="40.560725" lon="8.6623533"><ele>346.0</ele><time>2026-04-19T13:53:06.45Z</time></trkpt><trkpt lat="40.56064" lon="8.662305"><ele>346.0</ele><time>2026-04-19T13:53:07.45Z</time></trkpt><trkpt lat="40.560565" lon="8.6622567"><ele>346.0</ele><time>2026-04-19T13:53:08.449Z</time></trkpt><trkpt lat="40.5604917" lon="8.6622183"><ele>346.0</ele><time>2026-04-19T13:53:09.45Z</time></trkpt><trkpt lat="40.560415" lon="8.662175"><ele>346.0</ele><time>2026-04-19T13:53:10.449Z</time></trkpt><trkpt lat="40.5603483" lon="8.6621383"><ele>346.0</ele><time>2026-04-19T13:53:11.45Z</time></trkpt><trkpt lat="40.5602483" lon="8.6621017"><ele>345.5</ele><time>2026-04-19T13:53:13.449Z</time></trkpt><trkpt lat="40.560185" lon="8.6621467"><ele>345.0</ele><time>2026-04-19T13:53:16.449Z</time></trkpt><trkpt lat="40.5601683" lon="8.6622367"><ele>344.5</ele><time>2026-04-19T13:53:18.449Z</time></trkpt><trkpt lat="40.5601517" lon="8.6623167"><ele>344.0</ele><time>2026-04-19T13:53:20.449Z</time></trkpt><trkpt lat="40.56013" lon="8.6624"><ele>343.5</ele><time>2026-04-19T13:53:22.45Z</time></trkpt><trkpt lat="40.56007" lon="8.6625"><ele>343.0</ele><time>2026-04-19T13:53:24.449Z</time></trkpt><trkpt lat="40.5599667" lon="8.662565"><ele>343.0</ele><time>2026-04-19T13:53:26.45Z</time></trkpt><trkpt lat="40.5598633" lon="8.66259"><ele>343.0</ele><time>2026-04-19T13:53:28.449Z</time></trkpt><trkpt lat="40.5597517" lon="8.66259"><ele>343.0</ele><time>2026-04-19T13:53:30.449Z</time></trkpt><trkpt lat="40.5596383" lon="8.6625983"><ele>343.0</ele><time>2026-04-19T13:53:32.449Z</time></trkpt><trkpt lat="40.5595467" lon="8.6626167"><ele>343.0</ele><time>2026-04-19T13:53:34.45Z</time></trkpt><trkpt lat="40.5594517" lon="8.66265"><ele>341.0</ele><time>2026-04-19T13:53:36.45Z</time></trkpt><trkpt lat="40.5593633" lon="8.6626633"><ele>339.0</ele><time>2026-04-19T13:53:38.45Z</time></trkpt><trkpt lat="40.5592767" lon="8.6626783"><ele>337.0</ele><time>2026-04-19T13:53:40.449Z</time></trkpt><trkpt lat="40.559215" lon="8.662745"><ele>335.0</ele><time>2026-04-19T13:53:42.45Z</time></trkpt><trkpt lat="40.5591433" lon="8.6628367"><ele>333.0</ele><time>2026-04-19T13:53:44.449Z</time></trkpt><trkpt lat="40.5590617" lon="8.6628883"><ele>331.0</ele><time>2026-04-19T13:53:46.45Z</time></trkpt><trkpt lat="40.5589867" lon="8.66293"><ele>328.0</ele><time>2026-04-19T13:53:48.45Z</time></trkpt><trkpt lat="40.5589317" lon="8.6629717"><ele>325.0</ele><time>2026-04-19T13:53:50.45Z</time></trkpt><trkpt lat="40.5588933" lon="8.663055"><ele>322.0</ele><time>2026-04-19T13:53:52.449Z</time></trkpt><trkpt lat="40.5588767" lon="8.6631783"><ele>319.0</ele><time>2026-04-19T13:53:54.45Z</time></trkpt><trkpt lat="40.5589033" lon="8.6632883"><ele>316.0</ele><time>2026-04-19T13:53:56.45Z</time></trkpt><trkpt lat="40.5589867" lon="8.6633917"><ele>313.0</ele><time>2026-04-19T13:53:58.449Z</time></trkpt><trkpt lat="40.5590717" lon="8.663495"><ele>313.0</ele><time>2026-04-19T13:54:00.449Z</time></trkpt><trkpt lat="40.5591033" lon="8.6635867"><ele>313.0</ele><time>2026-04-19T13:54:02.449Z</time></trkpt><trkpt lat="40.5590517" lon="8.66366"><ele>313.0</ele><time>2026-04-19T13:54:04.45Z</time></trkpt><trkpt lat="40.5589517" lon="8.6636967"><ele>313.0</ele><time>2026-04-19T13:54:06.449Z</time></trkpt><trkpt lat="40.5588383" lon="8.6637083"><ele>313.0</ele><time>2026-04-19T13:54:08.449Z</time></trkpt><trkpt lat="40.5587333" lon="8.6636867"><ele>312.2</ele><time>2026-04-19T13:54:10.45Z</time></trkpt><trkpt lat="40.5586683" lon="8.6637167"><ele>311.4</ele><time>2026-04-19T13:54:13.45Z</time></trkpt><trkpt lat="40.5587183" lon="8.6637933"><ele>310.59999999999997</ele><time>2026-04-19T13:54:15.449Z</time></trkpt><trkpt lat="40.558815" lon="8.663855"><ele>309.8</ele><time>2026-04-19T13:54:17.45Z</time></trkpt><trkpt lat="40.558895" lon="8.6639067"><ele>309.0</ele><time>2026-04-19T13:54:19.449Z</time></trkpt><trkpt lat="40.5589483" lon="8.6640317"><ele>309.59999999999997</ele><time>2026-04-19T13:54:21.45Z</time></trkpt><trkpt lat="40.558965" lon="8.664205"><ele>310.2</ele><time>2026-04-19T13:54:23.449Z</time></trkpt><trkpt lat="40.558985" lon="8.6643017"><ele>310.79999999999995</ele><time>2026-04-19T13:54:24.45Z</time></trkpt><trkpt lat="40.55902" lon="8.66441"><ele>311.4</ele><time>2026-04-19T13:54:25.45Z</time></trkpt><trkpt lat="40.5590667" lon="8.6645217"><ele>312.0</ele><time>2026-04-19T13:54:26.45Z</time></trkpt><trkpt lat="40.5591067" lon="8.664615"><ele>312.0</ele><time>2026-04-19T13:54:27.449Z</time></trkpt><trkpt lat="40.55912" lon="8.6647"><ele>312.0</ele><time>2026-04-19T13:54:28.45Z</time></trkpt><trkpt lat="40.5590817" lon="8.6648217"><ele>312.0</ele><time>2026-04-19T13:54:30.449Z</time></trkpt><trkpt lat="40.5590233" lon="8.6648617"><ele>312.0</ele><time>2026-04-19T13:54:31.45Z</time></trkpt><trkpt lat="40.5589533" lon="8.6648883"><ele>312.0</ele><time>2026-04-19T13:54:32.449Z</time></trkpt><trkpt lat="40.5588833" lon="8.6648917"><ele>312.0</ele><time>2026-04-19T13:54:33.45Z</time></trkpt><trkpt lat="40.5588183" lon="8.66488"><ele>312.0</ele><time>2026-04-19T13:54:34.449Z</time></trkpt><trkpt lat="40.5587567" lon="8.66486"><ele>314.4</ele><time>2026-04-19T13:54:35.45Z</time></trkpt><trkpt lat="40.5586517" lon="8.66481"><ele>316.79999999999995</ele><time>2026-04-19T13:54:37.449Z</time></trkpt><trkpt lat="40.5585783" lon="8.6647833"><ele>319.2</ele><time>2026-04-19T13:54:39.449Z</time></trkpt><trkpt lat="40.5584917" lon="8.66476"><ele>321.59999999999997</ele><time>2026-04-19T13:54:42.449Z</time></trkpt><trkpt lat="40.5583933" lon="8.66478"><ele>324.0</ele><time>2026-04-19T13:54:44.449Z</time></trkpt><trkpt lat="40.5582817" lon="8.6648433"><ele>324.0</ele><time>2026-04-19T13:54:46.449Z</time></trkpt><trkpt lat="40.558215" lon="8.664875"><ele>324.0</ele><time>2026-04-19T13:54:47.449Z</time></trkpt><trkpt lat="40.5581517" lon="8.6648967"><ele>324.0</ele><time>2026-04-19T13:54:48.45Z</time></trkpt><trkpt lat="40.5580817" lon="8.664905"><ele>324.0</ele><time>2026-04-19T13:54:49.449Z</time></trkpt><trkpt lat="40.5580067" lon="8.6649017"><ele>324.0</ele><time>2026-04-19T13:54:50.449Z</time></trkpt><trkpt lat="40.5579033" lon="8.6649417"><ele>324.0</ele><time>2026-04-19T13:54:52.45Z</time></trkpt><trkpt lat="40.5578233" lon="8.6650467"><ele>325.2</ele><time>2026-04-19T13:54:54.45Z</time></trkpt><trkpt lat="40.5577683" lon="8.6651933"><ele>326.4</ele><time>2026-04-19T13:54:56.449Z</time></trkpt><trkpt lat="40.5577467" lon="8.665275"><ele>327.6</ele><time>2026-04-19T13:54:57.449Z</time></trkpt><trkpt lat="40.55769" lon="8.6654083"><ele>328.8</ele><time>2026-04-19T13:54:59.45Z</time></trkpt><trkpt lat="40.5576533" lon="8.66549"><ele>330.0</ele><time>2026-04-19T13:55:00.449Z</time></trkpt><trkpt lat="40.5576067" lon="8.665575"><ele>331.4</ele><time>2026-04-19T13:55:01.45Z</time></trkpt><trkpt lat="40.5575517" lon="8.6656717"><ele>332.8</ele><time>2026-04-19T13:55:02.449Z</time></trkpt><trkpt lat="40.557485" lon="8.6657783"><ele>334.20000000000005</ele><time>2026-04-19T13:55:03.45Z</time></trkpt><trkpt lat="40.5574183" lon="8.6658917"><ele>335.6</ele><time>2026-04-19T13:55:04.449Z</time></trkpt><trkpt lat="40.55736" lon="8.6659867"><ele>337.0</ele><time>2026-04-19T13:55:05.449Z</time></trkpt><trkpt lat="40.5573133" lon="8.6660783"><ele>338.66666666666663</ele><time>2026-04-19T13:55:06.449Z</time></trkpt><trkpt lat="40.5572717" lon="8.6661517"><ele>340.3333333333333</ele><time>2026-04-19T13:55:07.449Z</time></trkpt><trkpt lat="40.557235" lon="8.6662217"><ele>342.0</ele><time>2026-04-19T13:55:08.45Z</time></trkpt><trkpt lat="40.5571667" lon="8.666355"><ele>343.6666666666667</ele><time>2026-04-19T13:55:10.449Z</time></trkpt><trkpt lat="40.557135" lon="8.6664267"><ele>345.33333333333337</ele><time>2026-04-19T13:55:11.449Z</time></trkpt><trkpt lat="40.5570767" lon="8.6665767"><ele>347.0</ele><time>2026-04-19T13:55:13.45Z</time></trkpt><trkpt lat="40.5570417" lon="8.66666"><ele>346.33333333333337</ele><time>2026-04-19T13:55:14.449Z</time></trkpt><trkpt lat="40.5570083" lon="8.6667417"><ele>345.6666666666667</ele><time>2026-04-19T13:55:15.449Z</time></trkpt><trkpt lat="40.5569733" lon="8.6668283"><ele>345.0</ele><time>2026-04-19T13:55:16.45Z</time></trkpt><trkpt lat="40.55693" lon="8.6669117"><ele>344.3333333333333</ele><time>2026-04-19T13:55:17.45Z</time></trkpt><trkpt lat="40.556885" lon="8.6670017"><ele>343.66666666666663</ele><time>2026-04-19T13:55:18.449Z</time></trkpt><trkpt lat="40.5568417" lon="8.667085"><ele>343.0</ele><time>2026-04-19T13:55:19.45Z</time></trkpt><trkpt lat="40.5567967" lon="8.667165"><ele>343.0</ele><time>2026-04-19T13:55:20.449Z</time></trkpt><trkpt lat="40.556755" lon="8.66723"><ele>343.0</ele><time>2026-04-19T13:55:21.45Z</time></trkpt><trkpt lat="40.556715" lon="8.667295"><ele>343.0</ele><time>2026-04-19T13:55:22.449Z</time></trkpt><trkpt lat="40.5566683" lon="8.667365"><ele>343.0</ele><time>2026-04-19T13:55:23.449Z</time></trkpt><trkpt lat="40.55661" lon="8.66744"><ele>343.0</ele><time>2026-04-19T13:55:24.45Z</time></trkpt><trkpt lat="40.556545" lon="8.6675217"><ele>343.0</ele><time>2026-04-19T13:55:25.449Z</time></trkpt><trkpt lat="40.55647" lon="8.6676183"><ele>343.0</ele><time>2026-04-19T13:55:26.45Z</time></trkpt><trkpt lat="40.5563867" lon="8.6677233"><ele>343.0</ele><time>2026-04-19T13:55:27.449Z</time></trkpt><trkpt lat="40.556305" lon="8.66782"><ele>343.0</ele><time>2026-04-19T13:55:28.45Z</time></trkpt><trkpt lat="40.5562317" lon="8.6678983"><ele>343.0</ele><time>2026-04-19T13:55:29.45Z</time></trkpt><trkpt lat="40.5561667" lon="8.6679617"><ele>343.0</ele><time>2026-04-19T13:55:30.45Z</time></trkpt><trkpt lat="40.5561017" lon="8.6680283"><ele>343.2</ele><time>2026-04-19T13:55:31.449Z</time></trkpt><trkpt lat="40.5560317" lon="8.6681017"><ele>343.4</ele><time>2026-04-19T13:55:32.449Z</time></trkpt><trkpt lat="40.5559617" lon="8.6681867"><ele>343.59999999999997</ele><time>2026-04-19T13:55:33.449Z</time></trkpt><trkpt lat="40.5558933" lon="8.6682783"><ele>343.79999999999995</ele><time>2026-04-19T13:55:34.45Z</time></trkpt><trkpt lat="40.5558233" lon="8.6683617"><ele>344.0</ele><time>2026-04-19T13:55:35.45Z</time></trkpt><trkpt lat="40.55575" lon="8.66845"><ele>344.0</ele><time>2026-04-19T13:55:36.45Z</time></trkpt><trkpt lat="40.55568" lon="8.668545"><ele>344.0</ele><time>2026-04-19T13:55:37.449Z</time></trkpt><trkpt lat="40.555615" lon="8.6686383"><ele>344.0</ele><time>2026-04-19T13:55:38.449Z</time></trkpt><trkpt lat="40.555555" lon="8.6687333"><ele>344.0</ele><time>2026-04-19T13:55:39.449Z</time></trkpt><trkpt lat="40.5554917" lon="8.6688183"><ele>344.0</ele><time>2026-04-19T13:55:40.45Z</time></trkpt><trkpt lat="40.5554233" lon="8.6689033"><ele>342.5</ele><time>2026-04-19T13:55:41.45Z</time></trkpt><trkpt lat="40.5553583" lon="8.6689983"><ele>341.0</ele><time>2026-04-19T13:55:42.449Z</time></trkpt><trkpt lat="40.5553017" lon="8.6690833"><ele>339.5</ele><time>2026-04-19T13:55:43.449Z</time></trkpt><trkpt lat="40.5552467" lon="8.6691667"><ele>338.0</ele><time>2026-04-19T13:55:44.45Z</time></trkpt><trkpt lat="40.55519" lon="8.6692467"><ele>336.5</ele><time>2026-04-19T13:55:45.45Z</time></trkpt><trkpt lat="40.5551383" lon="8.669325"><ele>335.0</ele><time>2026-04-19T13:55:46.45Z</time></trkpt><trkpt lat="40.5550867" lon="8.669405"><ele>335.1666666666667</ele><time>2026-04-19T13:55:47.449Z</time></trkpt><trkpt lat="40.5550317" lon="8.66949"><ele>335.33333333333337</ele><time>2026-04-19T13:55:48.449Z</time></trkpt><trkpt lat="40.5549767" lon="8.669575"><ele>335.5</ele><time>2026-04-19T13:55:49.45Z</time></trkpt><trkpt lat="40.5549217" lon="8.6696433"><ele>335.6666666666667</ele><time>2026-04-19T13:55:50.45Z</time></trkpt><trkpt lat="40.5548783" lon="8.6697183"><ele>335.8333333333333</ele><time>2026-04-19T13:55:51.449Z</time></trkpt><trkpt lat="40.5548267" lon="8.66978"><ele>336.0</ele><time>2026-04-19T13:55:52.449Z</time></trkpt><trkpt lat="40.55477" lon="8.669835"><ele>336.0</ele><time>2026-04-19T13:55:53.45Z</time></trkpt><trkpt lat="40.5547033" lon="8.6698883"><ele>336.0</ele><time>2026-04-19T13:55:54.45Z</time></trkpt><trkpt lat="40.55463" lon="8.6699367"><ele>336.0</ele><time>2026-04-19T13:55:55.45Z</time></trkpt><trkpt lat="40.5545583" lon="8.6699867"><ele>336.0</ele><time>2026-04-19T13:55:56.45Z</time></trkpt><trkpt lat="40.5544817" lon="8.67004"><ele>336.0</ele><time>2026-04-19T13:55:57.45Z</time></trkpt><trkpt lat="40.5544067" lon="8.6701"><ele>336.0</ele><time>2026-04-19T13:55:58.449Z</time></trkpt><trkpt lat="40.55433" lon="8.6701617"><ele>335.6</ele><time>2026-04-19T13:55:59.45Z</time></trkpt><trkpt lat="40.5542483" lon="8.6702433"><ele>335.20000000000005</ele><time>2026-04-19T13:56:00.449Z</time></trkpt><trkpt lat="40.5541583" lon="8.6703333"><ele>334.79999999999995</ele><time>2026-04-19T13:56:01.449Z</time></trkpt><trkpt lat="40.554065" lon="8.6704283"><ele>334.4</ele><time>2026-04-19T13:56:02.449Z</time></trkpt><trkpt lat="40.5539783" lon="8.6705217"><ele>334.0</ele><time>2026-04-19T13:56:03.449Z</time></trkpt><trkpt lat="40.5538933" lon="8.6706067"><ele>334.5</ele><time>2026-04-19T13:56:04.449Z</time></trkpt><trkpt lat="40.5537983" lon="8.670705"><ele>335.0</ele><time>2026-04-19T13:56:05.449Z</time></trkpt><trkpt lat="40.553705" lon="8.6708033"><ele>335.5</ele><time>2026-04-19T13:56:06.449Z</time></trkpt><trkpt lat="40.553615" lon="8.6709267"><ele>336.0</ele><time>2026-04-19T13:56:07.449Z</time></trkpt><trkpt lat="40.5535167" lon="8.6710667"><ele>338.0</ele><time>2026-04-19T13:56:08.449Z</time></trkpt><trkpt lat="40.553415" lon="8.6712033"><ele>340.0</ele><time>2026-04-19T13:56:09.449Z</time></trkpt><trkpt lat="40.5533183" lon="8.671335"><ele>342.0</ele><time>2026-04-19T13:56:10.449Z</time></trkpt><trkpt lat="40.5532233" lon="8.6714617"><ele>344.0</ele><time>2026-04-19T13:56:11.45Z</time></trkpt><trkpt lat="40.55314" lon="8.6715783"><ele>344.0</ele><time>2026-04-19T13:56:12.449Z</time></trkpt><trkpt lat="40.5530583" lon="8.6716933"><ele>344.0</ele><time>2026-04-19T13:56:13.45Z</time></trkpt><trkpt lat="40.5529717" lon="8.6717967"><ele>344.0</ele><time>2026-04-19T13:56:14.449Z</time></trkpt><trkpt lat="40.5528833" lon="8.671885"><ele>344.0</ele><time>2026-04-19T13:56:15.45Z</time></trkpt><trkpt lat="40.552785" lon="8.6719817"><ele>344.6</ele><time>2026-04-19T13:56:16.449Z</time></trkpt><trkpt lat="40.552685" lon="8.672075"><ele>345.2</ele><time>2026-04-19T13:56:17.449Z</time></trkpt><trkpt lat="40.5526" lon="8.6721533"><ele>345.8</ele><time>2026-04-19T13:56:18.45Z</time></trkpt><trkpt lat="40.5525233" lon="8.6722233"><ele>346.40000000000003</ele><time>2026-04-19T13:56:19.449Z</time></trkpt><trkpt lat="40.5524533" lon="8.6722683"><ele>347.0</ele><time>2026-04-19T13:56:20.45Z</time></trkpt><trkpt lat="40.552375" lon="8.6722733"><ele>347.0</ele><time>2026-04-19T13:56:21.449Z</time></trkpt><trkpt lat="40.55229" lon="8.6722583"><ele>347.0</ele><time>2026-04-19T13:56:22.45Z</time></trkpt><trkpt lat="40.5522067" lon="8.672245"><ele>347.0</ele><time>2026-04-19T13:56:23.449Z</time></trkpt><trkpt lat="40.5521267" lon="8.6722567"><ele>347.0</ele><time>2026-04-19T13:56:24.45Z</time></trkpt><trkpt lat="40.55205" lon="8.6722833"><ele>347.0</ele><time>2026-04-19T13:56:25.449Z</time></trkpt><trkpt lat="40.55197" lon="8.6723233"><ele>347.0</ele><time>2026-04-19T13:56:26.45Z</time></trkpt><trkpt lat="40.55189" lon="8.672385"><ele>346.0</ele><time>2026-04-19T13:56:27.449Z</time></trkpt><trkpt lat="40.5518167" lon="8.6724467"><ele>345.0</ele><time>2026-04-19T13:56:28.45Z</time></trkpt><trkpt lat="40.5517567" lon="8.6725033"><ele>344.0</ele><time>2026-04-19T13:56:29.449Z</time></trkpt><trkpt lat="40.5517017" lon="8.6725533"><ele>343.0</ele><time>2026-04-19T13:56:30.45Z</time></trkpt><trkpt lat="40.5516433" lon="8.6726033"><ele>342.0</ele><time>2026-04-19T13:56:31.45Z</time></trkpt><trkpt lat="40.551575" lon="8.6726433"><ele>341.0</ele><time>2026-04-19T13:56:32.45Z</time></trkpt><trkpt lat="40.551505" lon="8.67269"><ele>341.0</ele><time>2026-04-19T13:56:33.449Z</time></trkpt><trkpt lat="40.551435" lon="8.6727517"><ele>341.0</ele><time>2026-04-19T13:56:34.45Z</time></trkpt><trkpt lat="40.5513583" lon="8.6728333"><ele>341.0</ele><time>2026-04-19T13:56:35.45Z</time></trkpt><trkpt lat="40.55128" lon="8.6729267"><ele>341.0</ele><time>2026-04-19T13:56:36.449Z</time></trkpt><trkpt lat="40.5512017" lon="8.6730233"><ele>341.0</ele><time>2026-04-19T13:56:37.449Z</time></trkpt><trkpt lat="40.5511233" lon="8.67312"><ele>342.0</ele><time>2026-04-19T13:56:38.449Z</time></trkpt><trkpt lat="40.5510467" lon="8.6732217"><ele>343.0</ele><time>2026-04-19T13:56:39.45Z</time></trkpt><trkpt lat="40.5509583" lon="8.673325"><ele>344.0</ele><time>2026-04-19T13:56:40.45Z</time></trkpt><trkpt lat="40.5508633" lon="8.6734233"><ele>345.0</ele><time>2026-04-19T13:56:41.449Z</time></trkpt><trkpt lat="40.5507683" lon="8.673525"><ele>347.0</ele><time>2026-04-19T13:56:42.45Z</time></trkpt><trkpt lat="40.5506733" lon="8.6736267"><ele>349.0</ele><time>2026-04-19T13:56:43.45Z</time></trkpt><trkpt lat="40.5505883" lon="8.6737367"><ele>351.0</ele><time>2026-04-19T13:56:44.449Z</time></trkpt><trkpt lat="40.5505217" lon="8.67385"><ele>353.0</ele><time>2026-04-19T13:56:45.449Z</time></trkpt><trkpt lat="40.5504683" lon="8.6739667"><ele>353.0</ele><time>2026-04-19T13:56:46.45Z</time></trkpt><trkpt lat="40.5504267" lon="8.674085"><ele>353.0</ele><time>2026-04-19T13:56:47.45Z</time></trkpt><trkpt lat="40.5503867" lon="8.6741983"><ele>353.0</ele><time>2026-04-19T13:56:48.449Z</time></trkpt><trkpt lat="40.5503317" lon="8.6742933"><ele>353.0</ele><time>2026-04-19T13:56:49.449Z</time></trkpt><trkpt lat="40.5502667" lon="8.6743883"><ele>353.0</ele><time>2026-04-19T13:56:50.449Z</time></trkpt><trkpt lat="40.5502067" lon="8.6744933"><ele>351.2</ele><time>2026-04-19T13:56:51.45Z</time></trkpt><trkpt lat="40.5501567" lon="8.6746017"><ele>349.4</ele><time>2026-04-19T13:56:52.449Z</time></trkpt><trkpt lat="40.5501117" lon="8.674725"><ele>347.59999999999997</ele><time>2026-04-19T13:56:53.45Z</time></trkpt><trkpt lat="40.5500783" lon="8.6748433"><ele>345.79999999999995</ele><time>2026-04-19T13:56:54.45Z</time></trkpt><trkpt lat="40.5500483" lon="8.6749617"><ele>344.0</ele><time>2026-04-19T13:56:55.449Z</time></trkpt><trkpt lat="40.5500217" lon="8.6750817"><ele>344.0</ele><time>2026-04-19T13:56:56.45Z</time></trkpt><trkpt lat="40.5499933" lon="8.6752017"><ele>344.0</ele><time>2026-04-19T13:56:57.449Z</time></trkpt><trkpt lat="40.54996" lon="8.6753283"><ele>344.0</ele><time>2026-04-19T13:56:58.45Z</time></trkpt><trkpt lat="40.5499133" lon="8.6754467"><ele>344.0</ele><time>2026-04-19T13:56:59.45Z</time></trkpt><trkpt lat="40.5498617" lon="8.67556"><ele>344.0</ele><time>2026-04-19T13:57:00.449Z</time></trkpt><trkpt lat="40.54982" lon="8.675685"><ele>344.33333333333337</ele><time>2026-04-19T13:57:01.45Z</time></trkpt><trkpt lat="40.5497967" lon="8.6758183"><ele>344.6666666666667</ele><time>2026-04-19T13:57:02.45Z</time></trkpt><trkpt lat="40.5497783" lon="8.6759433"><ele>345.0</ele><time>2026-04-19T13:57:03.449Z</time></trkpt><trkpt lat="40.549755" lon="8.6760617"><ele>345.3333333333333</ele><time>2026-04-19T13:57:04.449Z</time></trkpt><trkpt lat="40.549725" lon="8.67616"><ele>345.66666666666663</ele><time>2026-04-19T13:57:05.449Z</time></trkpt><trkpt lat="40.5496867" lon="8.6762433"><ele>346.0</ele><time>2026-04-19T13:57:06.45Z</time></trkpt><trkpt lat="40.5496317" lon="8.6763217"><ele>346.6</ele><time>2026-04-19T13:57:07.449Z</time></trkpt><trkpt lat="40.54957" lon="8.67638"><ele>347.20000000000005</ele><time>2026-04-19T13:57:08.45Z</time></trkpt><trkpt lat="40.5494567" lon="8.6763867"><ele>347.79999999999995</ele><time>2026-04-19T13:57:10.449Z</time></trkpt><trkpt lat="40.5493683" lon="8.6763033"><ele>348.4</ele><time>2026-04-19T13:57:12.449Z</time></trkpt><trkpt lat="40.5492833" lon="8.67621"><ele>349.0</ele><time>2026-04-19T13:57:14.45Z</time></trkpt><trkpt lat="40.5491983" lon="8.676205"><ele>347.3333333333333</ele><time>2026-04-19T13:57:16.45Z</time></trkpt><trkpt lat="40.5491183" lon="8.6763283"><ele>345.66666666666663</ele><time>2026-04-19T13:57:18.449Z</time></trkpt><trkpt lat="40.549075" lon="8.676415"><ele>344.0</ele><time>2026-04-19T13:57:19.449Z</time></trkpt><trkpt lat="40.54904" lon="8.6765017"><ele>342.3333333333333</ele><time>2026-04-19T13:57:20.449Z</time></trkpt><trkpt lat="40.54902" lon="8.6765867"><ele>340.6666666666667</ele><time>2026-04-19T13:57:21.45Z</time></trkpt><trkpt lat="40.5490133" lon="8.67668"><ele>339.0</ele><time>2026-04-19T13:57:22.45Z</time></trkpt><trkpt lat="40.5490233" lon="8.6767767"><ele>339.0</ele><time>2026-04-19T13:57:23.45Z</time></trkpt><trkpt lat="40.549025" lon="8.67688"><ele>339.0</ele><time>2026-04-19T13:57:24.45Z</time></trkpt><trkpt lat="40.5490183" lon="8.677"><ele>339.0</ele><time>2026-04-19T13:57:25.45Z</time></trkpt><trkpt lat="40.5490033" lon="8.6771383"><ele>339.0</ele><time>2026-04-19T13:57:26.449Z</time></trkpt><trkpt lat="40.54897" lon="8.6772867"><ele>339.0</ele><time>2026-04-19T13:57:27.449Z</time></trkpt><trkpt lat="40.5489333" lon="8.6774283"><ele>340.25</ele><time>2026-04-19T13:57:28.449Z</time></trkpt><trkpt lat="40.5489017" lon="8.6775717"><ele>341.5</ele><time>2026-04-19T13:57:29.45Z</time></trkpt><trkpt lat="40.5488767" lon="8.677725"><ele>342.75</ele><time>2026-04-19T13:57:30.449Z</time></trkpt><trkpt lat="40.5488617" lon="8.6778817"><ele>344.0</ele><time>2026-04-19T13:57:31.449Z</time></trkpt><trkpt lat="40.548855" lon="8.67805"><ele>345.5</ele><time>2026-04-19T13:57:32.45Z</time></trkpt><trkpt lat="40.5488567" lon="8.6782183"><ele>347.0</ele><time>2026-04-19T13:57:33.45Z</time></trkpt><trkpt lat="40.54887" lon="8.6783867"><ele>348.5</ele><time>2026-04-19T13:57:34.45Z</time></trkpt><trkpt lat="40.5489083" lon="8.678565"><ele>350.0</ele><time>2026-04-19T13:57:35.45Z</time></trkpt><trkpt lat="40.5489433" lon="8.6787583"><ele>350.8</ele><time>2026-04-19T13:57:36.45Z</time></trkpt><trkpt lat="40.5489783" lon="8.67893"><ele>351.6</ele><time>2026-04-19T13:57:37.449Z</time></trkpt><trkpt lat="40.5490067" lon="8.6790833"><ele>352.4</ele><time>2026-04-19T13:57:38.45Z</time></trkpt><trkpt lat="40.549025" lon="8.6792217"><ele>353.2</ele><time>2026-04-19T13:57:39.449Z</time></trkpt><trkpt lat="40.5490283" lon="8.6793367"><ele>354.0</ele><time>2026-04-19T13:57:40.449Z</time></trkpt><trkpt lat="40.5490217" lon="8.679445"><ele>354.6666666666667</ele><time>2026-04-19T13:57:41.449Z</time></trkpt><trkpt lat="40.5489983" lon="8.67955"><ele>355.3333333333333</ele><time>2026-04-19T13:57:42.449Z</time></trkpt><trkpt lat="40.5489567" lon="8.6796567"><ele>356.0</ele><time>2026-04-19T13:57:43.449Z</time></trkpt><trkpt lat="40.548915" lon="8.6797683"><ele>356.66666666666663</ele><time>2026-04-19T13:57:44.449Z</time></trkpt><trkpt lat="40.54888" lon="8.6798717"><ele>357.3333333333333</ele><time>2026-04-19T13:57:45.45Z</time></trkpt><trkpt lat="40.5488533" lon="8.6799683"><ele>358.0</ele><time>2026-04-19T13:57:46.45Z</time></trkpt><trkpt lat="40.5488267" lon="8.680055"><ele>358.0</ele><time>2026-04-19T13:57:47.449Z</time></trkpt><trkpt lat="40.548795" lon="8.6802017"><ele>358.0</ele><time>2026-04-19T13:57:49.45Z</time></trkpt><trkpt lat="40.548755" lon="8.680355"><ele>358.0</ele><time>2026-04-19T13:57:51.449Z</time></trkpt><trkpt lat="40.5487267" lon="8.68044"><ele>358.0</ele><time>2026-04-19T13:57:52.449Z</time></trkpt><trkpt lat="40.5486933" lon="8.6805333"><ele>358.0</ele><time>2026-04-19T13:57:53.45Z</time></trkpt><trkpt lat="40.54866" lon="8.6806317"><ele>357.66666666666663</ele><time>2026-04-19T13:57:54.449Z</time></trkpt><trkpt lat="40.5486267" lon="8.6807333"><ele>357.3333333333333</ele><time>2026-04-19T13:57:55.449Z</time></trkpt><trkpt lat="40.5485917" lon="8.6808367"><ele>357.0</ele><time>2026-04-19T13:57:56.45Z</time></trkpt><trkpt lat="40.5485617" lon="8.6809333"><ele>356.6666666666667</ele><time>2026-04-19T13:57:57.449Z</time></trkpt><trkpt lat="40.5485267" lon="8.6810333"><ele>356.33333333333337</ele><time>2026-04-19T13:57:58.45Z</time></trkpt><trkpt lat="40.54849" lon="8.68113"><ele>356.0</ele><time>2026-04-19T13:57:59.45Z</time></trkpt><trkpt lat="40.5484533" lon="8.681235"><ele>355.5</ele><time>2026-04-19T13:58:00.45Z</time></trkpt><trkpt lat="40.54842" lon="8.6813433"><ele>355.0</ele><time>2026-04-19T13:58:01.449Z</time></trkpt><trkpt lat="40.5483917" lon="8.6814567"><ele>354.5</ele><time>2026-04-19T13:58:02.449Z</time></trkpt><trkpt lat="40.548375" lon="8.681555"><ele>354.0</ele><time>2026-04-19T13:58:03.45Z</time></trkpt><trkpt lat="40.5483533" lon="8.6816383"><ele>353.5</ele><time>2026-04-19T13:58:04.449Z</time></trkpt><trkpt lat="40.5483183" lon="8.6817167"><ele>353.0</ele><time>2026-04-19T13:58:05.449Z</time></trkpt><trkpt lat="40.5482767" lon="8.6818"><ele>353.0</ele><time>2026-04-19T13:58:06.449Z</time></trkpt><trkpt lat="40.5482283" lon="8.6818967"><ele>353.0</ele><time>2026-04-19T13:58:07.449Z</time></trkpt><trkpt lat="40.5481783" lon="8.6819967"><ele>353.0</ele><time>2026-04-19T13:58:08.45Z</time></trkpt><trkpt lat="40.5481283" lon="8.682115"><ele>353.0</ele><time>2026-04-19T13:58:09.449Z</time></trkpt><trkpt lat="40.548075" lon="8.6822383"><ele>353.0</ele><time>2026-04-19T13:58:10.45Z</time></trkpt><trkpt lat="40.5480167" lon="8.6823633"><ele>352.79999999999995</ele><time>2026-04-19T13:58:11.45Z</time></trkpt><trkpt lat="40.54796" lon="8.6824867"><ele>352.6</ele><time>2026-04-19T13:58:12.45Z</time></trkpt><trkpt lat="40.5479" lon="8.6826067"><ele>352.4</ele><time>2026-04-19T13:58:13.45Z</time></trkpt><trkpt lat="40.5478417" lon="8.682725"><ele>352.20000000000005</ele><time>2026-04-19T13:58:14.449Z</time></trkpt><trkpt lat="40.54778" lon="8.6828467"><ele>352.0</ele><time>2026-04-19T13:58:15.449Z</time></trkpt><trkpt lat="40.54773" lon="8.6829667"><ele>354.0</ele><time>2026-04-19T13:58:16.449Z</time></trkpt><trkpt lat="40.5476867" lon="8.6830817"><ele>356.0</ele><time>2026-04-19T13:58:17.45Z</time></trkpt><trkpt lat="40.5476367" lon="8.6831833"><ele>358.0</ele><time>2026-04-19T13:58:18.449Z</time></trkpt><trkpt lat="40.54758" lon="8.6832833"><ele>360.0</ele><time>2026-04-19T13:58:19.449Z</time></trkpt><trkpt lat="40.547505" lon="8.6833767"><ele>362.0</ele><time>2026-04-19T13:58:20.45Z</time></trkpt><trkpt lat="40.5474217" lon="8.6834567"><ele>362.0</ele><time>2026-04-19T13:58:21.45Z</time></trkpt><trkpt lat="40.5473383" lon="8.6835333"><ele>362.0</ele><time>2026-04-19T13:58:22.449Z</time></trkpt><trkpt lat="40.547255" lon="8.683605"><ele>362.0</ele><time>2026-04-19T13:58:23.45Z</time></trkpt><trkpt lat="40.5471783" lon="8.6836783"><ele>362.0</ele><time>2026-04-19T13:58:24.449Z</time></trkpt><trkpt lat="40.5470967" lon="8.6837567"><ele>362.0</ele><time>2026-04-19T13:58:25.45Z</time></trkpt><trkpt lat="40.5470183" lon="8.6838483"><ele>363.40000000000003</ele><time>2026-04-19T13:58:26.45Z</time></trkpt><trkpt lat="40.54694" lon="8.6839467"><ele>364.8</ele><time>2026-04-19T13:58:27.449Z</time></trkpt><trkpt lat="40.54686" lon="8.684055"><ele>366.2</ele><time>2026-04-19T13:58:28.449Z</time></trkpt><trkpt lat="40.5467783" lon="8.68414"><ele>367.6</ele><time>2026-04-19T13:58:29.449Z</time></trkpt><trkpt lat="40.546705" lon="8.6842217"><ele>369.0</ele><time>2026-04-19T13:58:30.45Z</time></trkpt><trkpt lat="40.5466383" lon="8.6842883"><ele>369.0</ele><time>2026-04-19T13:58:31.45Z</time></trkpt><trkpt lat="40.5465817" lon="8.684365"><ele>369.0</ele><time>2026-04-19T13:58:32.45Z</time></trkpt><trkpt lat="40.54653" lon="8.6844583"><ele>369.0</ele><time>2026-04-19T13:58:33.449Z</time></trkpt><trkpt lat="40.5464867" lon="8.6845567"><ele>369.0</ele><time>2026-04-19T13:58:34.45Z</time></trkpt><trkpt lat="40.546445" lon="8.6846617"><ele>369.0</ele><time>2026-04-19T13:58:35.45Z</time></trkpt><trkpt lat="40.546405" lon="8.684775"><ele>369.0</ele><time>2026-04-19T13:58:36.45Z</time></trkpt><trkpt lat="40.5463667" lon="8.6849067"><ele>371.75</ele><time>2026-04-19T13:58:37.45Z</time></trkpt><trkpt lat="40.5463333" lon="8.6850517"><ele>374.5</ele><time>2026-04-19T13:58:38.449Z</time></trkpt><trkpt lat="40.5462983" lon="8.685205"><ele>377.25</ele><time>2026-04-19T13:58:39.449Z</time></trkpt><trkpt lat="40.546265" lon="8.6853633"><ele>380.0</ele><time>2026-04-19T13:58:40.449Z</time></trkpt><trkpt lat="40.54624" lon="8.6855167"><ele>379.6</ele><time>2026-04-19T13:58:41.45Z</time></trkpt><trkpt lat="40.5462133" lon="8.6856533"><ele>379.2</ele><time>2026-04-19T13:58:42.449Z</time></trkpt><trkpt lat="40.54619" lon="8.68578"><ele>378.79999999999995</ele><time>2026-04-19T13:58:43.45Z</time></trkpt><trkpt lat="40.5461583" lon="8.6858933"><ele>378.4</ele><time>2026-04-19T13:58:44.449Z</time></trkpt><trkpt lat="40.5461233" lon="8.6860033"><ele>378.0</ele><time>2026-04-19T13:58:45.449Z</time></trkpt><trkpt lat="40.5460867" lon="8.686105"><ele>378.0</ele><time>2026-04-19T13:58:46.45Z</time></trkpt><trkpt lat="40.54605" lon="8.6862017"><ele>378.0</ele><time>2026-04-19T13:58:47.45Z</time></trkpt><trkpt lat="40.54601" lon="8.686295"><ele>378.0</ele><time>2026-04-19T13:58:48.45Z</time></trkpt><trkpt lat="40.5459783" lon="8.6863867"><ele>378.0</ele><time>2026-04-19T13:58:49.449Z</time></trkpt><trkpt lat="40.5459433" lon="8.6864867"><ele>378.0</ele><time>2026-04-19T13:58:50.45Z</time></trkpt><trkpt lat="40.5459017" lon="8.6865967"><ele>378.0</ele><time>2026-04-19T13:58:51.449Z</time></trkpt><trkpt lat="40.5458567" lon="8.6866983"><ele>378.0</ele><time>2026-04-19T13:58:52.45Z</time></trkpt><trkpt lat="40.545825" lon="8.6867933"><ele>378.0</ele><time>2026-04-19T13:58:53.449Z</time></trkpt><trkpt lat="40.54579" lon="8.68692"><ele>378.0</ele><time>2026-04-19T13:58:55.45Z</time></trkpt><trkpt lat="40.54587" lon="8.6869267"><ele>378.0</ele><time>2026-04-19T13:59:00.449Z</time></trkpt><trkpt lat="40.5459383" lon="8.6868233"><ele>378.0</ele><time>2026-04-19T13:59:02.449Z</time></trkpt><trkpt lat="40.5460367" lon="8.6867133"><ele>378.0</ele><time>2026-04-19T13:59:04.449Z</time></trkpt><trkpt lat="40.5461767" lon="8.686675"><ele>378.0</ele><time>2026-04-19T13:59:06.45Z</time></trkpt><trkpt lat="40.54626" lon="8.686665"><ele>378.0</ele><time>2026-04-19T13:59:07.449Z</time></trkpt><trkpt lat="40.5463467" lon="8.68664"><ele>378.0</ele><time>2026-04-19T13:59:08.45Z</time></trkpt><trkpt lat="40.546425" lon="8.6866"><ele>378.0</ele><time>2026-04-19T13:59:09.45Z</time></trkpt><trkpt lat="40.5464917" lon="8.68654"><ele>380.59999999999997</ele><time>2026-04-19T13:59:10.45Z</time></trkpt><trkpt lat="40.5465617" lon="8.6864667"><ele>383.2</ele><time>2026-04-19T13:59:11.449Z</time></trkpt><trkpt lat="40.5466367" lon="8.686395"><ele>385.8</ele><time>2026-04-19T13:59:12.449Z</time></trkpt><trkpt lat="40.5467167" lon="8.68632"><ele>388.4</ele><time>2026-04-19T13:59:13.45Z</time></trkpt><trkpt lat="40.5468017" lon="8.6862567"><ele>391.0</ele><time>2026-04-19T13:59:14.45Z</time></trkpt><trkpt lat="40.546895" lon="8.68621"><ele>391.0</ele><time>2026-04-19T13:59:15.449Z</time></trkpt><trkpt lat="40.5469917" lon="8.686165"><ele>391.0</ele><time>2026-04-19T13:59:16.45Z</time></trkpt><trkpt lat="40.54709" lon="8.6861083"><ele>391.0</ele><time>2026-04-19T13:59:17.449Z</time></trkpt><trkpt lat="40.5471733" lon="8.686055"><ele>391.0</ele><time>2026-04-19T13:59:18.449Z</time></trkpt><trkpt lat="40.5472583" lon="8.68599"><ele>391.0</ele><time>2026-04-19T13:59:19.45Z</time></trkpt><trkpt lat="40.5473433" lon="8.6859283"><ele>393.20000000000005</ele><time>2026-04-19T13:59:20.45Z</time></trkpt><trkpt lat="40.5474433" lon="8.6858833"><ele>395.40000000000003</ele><time>2026-04-19T13:59:21.45Z</time></trkpt><trkpt lat="40.5475417" lon="8.68584"><ele>397.6</ele><time>2026-04-19T13:59:22.449Z</time></trkpt><trkpt lat="40.547635" lon="8.685815"><ele>399.8</ele><time>2026-04-19T13:59:23.45Z</time></trkpt><trkpt lat="40.5477383" lon="8.6857967"><ele>402.0</ele><time>2026-04-19T13:59:24.449Z</time></trkpt><trkpt lat="40.547835" lon="8.6857683"><ele>403.1666666666667</ele><time>2026-04-19T13:59:25.45Z</time></trkpt><trkpt lat="40.5479183" lon="8.6857367"><ele>404.33333333333337</ele><time>2026-04-19T13:59:26.449Z</time></trkpt><trkpt lat="40.5479917" lon="8.685695"><ele>405.5</ele><time>2026-04-19T13:59:27.45Z</time></trkpt><trkpt lat="40.5480667" lon="8.6856517"><ele>406.6666666666667</ele><time>2026-04-19T13:59:28.45Z</time></trkpt><trkpt lat="40.5481367" lon="8.6856083"><ele>407.83333333333337</ele><time>2026-04-19T13:59:29.449Z</time></trkpt><trkpt lat="40.5482117" lon="8.6855733"><ele>409.0</ele><time>2026-04-19T13:59:30.45Z</time></trkpt><trkpt lat="40.54829" lon="8.6855517"><ele>409.0</ele><time>2026-04-19T13:59:31.449Z</time></trkpt><trkpt lat="40.54838" lon="8.685535"><ele>409.0</ele><time>2026-04-19T13:59:32.45Z</time></trkpt><trkpt lat="40.5484783" lon="8.6855183"><ele>409.0</ele><time>2026-04-19T13:59:33.45Z</time></trkpt><trkpt lat="40.54858" lon="8.68551"><ele>409.0</ele><time>2026-04-19T13:59:34.449Z</time></trkpt><trkpt lat="40.54867" lon="8.6855017"><ele>409.0</ele><time>2026-04-19T13:59:35.45Z</time></trkpt><trkpt lat="40.5487633" lon="8.685505"><ele>410.0</ele><time>2026-04-19T13:59:36.45Z</time></trkpt><trkpt lat="40.5488617" lon="8.6855083"><ele>411.0</ele><time>2026-04-19T13:59:37.449Z</time></trkpt><trkpt lat="40.5489583" lon="8.6855033"><ele>412.0</ele><time>2026-04-19T13:59:38.449Z</time></trkpt><trkpt lat="40.5490483" lon="8.6854933"><ele>413.0</ele><time>2026-04-19T13:59:39.45Z</time></trkpt><trkpt lat="40.5491333" lon="8.6854917"><ele>414.0</ele><time>2026-04-19T13:59:40.449Z</time></trkpt><trkpt lat="40.5492133" lon="8.6855017"><ele>414.0</ele><time>2026-04-19T13:59:41.45Z</time></trkpt><trkpt lat="40.54929" lon="8.6855217"><ele>414.0</ele><time>2026-04-19T13:59:42.448Z</time></trkpt><trkpt lat="40.54937" lon="8.685555"><ele>414.0</ele><time>2026-04-19T13:59:43.449Z</time></trkpt><trkpt lat="40.5494517" lon="8.6856033"><ele>414.0</ele><time>2026-04-19T13:59:44.448Z</time></trkpt><trkpt lat="40.5495367" lon="8.6856683"><ele>414.0</ele><time>2026-04-19T13:59:45.448Z</time></trkpt><trkpt lat="40.5496317" lon="8.685725"><ele>412.25</ele><time>2026-04-19T13:59:46.449Z</time></trkpt><trkpt lat="40.5497317" lon="8.6857833"><ele>410.5</ele><time>2026-04-19T13:59:47.449Z</time></trkpt><trkpt lat="40.5498467" lon="8.6858417"><ele>408.75</ele><time>2026-04-19T13:59:48.448Z</time></trkpt><trkpt lat="40.549965" lon="8.6859"><ele>407.0</ele><time>2026-04-19T13:59:49.449Z</time></trkpt><trkpt lat="40.5500717" lon="8.6859583"><ele>407.0</ele><time>2026-04-19T13:59:50.448Z</time></trkpt><trkpt lat="40.550185" lon="8.6860117"><ele>407.0</ele><time>2026-04-19T13:59:51.448Z</time></trkpt><trkpt lat="40.55029" lon="8.686065"><ele>407.0</ele><time>2026-04-19T13:59:52.449Z</time></trkpt><trkpt lat="40.5504033" lon="8.68611"><ele>407.0</ele><time>2026-04-19T13:59:53.448Z</time></trkpt><trkpt lat="40.55051" lon="8.6861483"><ele>409.40000000000003</ele><time>2026-04-19T13:59:54.448Z</time></trkpt><trkpt lat="40.5506067" lon="8.6861833"><ele>411.8</ele><time>2026-04-19T13:59:55.448Z</time></trkpt><trkpt lat="40.5506967" lon="8.6862383"><ele>414.2</ele><time>2026-04-19T13:59:56.448Z</time></trkpt><trkpt lat="40.5507733" lon="8.6862983"><ele>416.6</ele><time>2026-04-19T13:59:57.448Z</time></trkpt><trkpt lat="40.5508517" lon="8.6863583"><ele>419.0</ele><time>2026-04-19T13:59:58.448Z</time></trkpt><trkpt lat="40.550925" lon="8.686435"><ele>419.0</ele><time>2026-04-19T13:59:59.448Z</time></trkpt><trkpt lat="40.5510133" lon="8.6865233"><ele>419.0</ele><time>2026-04-19T14:00:00.448Z</time></trkpt><trkpt lat="40.5511133" lon="8.6866133"><ele>419.0</ele><time>2026-04-19T14:00:01.449Z</time></trkpt><trkpt lat="40.5512267" lon="8.686685"><ele>419.0</ele><time>2026-04-19T14:00:02.448Z</time></trkpt><trkpt lat="40.55134" lon="8.6867567"><ele>419.6</ele><time>2026-04-19T14:00:03.449Z</time></trkpt><trkpt lat="40.55145" lon="8.68682"><ele>420.2</ele><time>2026-04-19T14:00:04.448Z</time></trkpt><trkpt lat="40.5515467" lon="8.686865"><ele>420.8</ele><time>2026-04-19T14:00:05.449Z</time></trkpt><trkpt lat="40.5516383" lon="8.6869167"><ele>421.40000000000003</ele><time>2026-04-19T14:00:06.448Z</time></trkpt><trkpt lat="40.5517217" lon="8.6869683"><ele>422.0</ele><time>2026-04-19T14:00:07.449Z</time></trkpt><trkpt lat="40.55178" lon="8.6870317"><ele>421.99999999999994</ele><time>2026-04-19T14:00:08.448Z</time></trkpt><trkpt lat="40.5518267" lon="8.68711"><ele>422.0</ele><time>2026-04-19T14:00:09.449Z</time></trkpt><trkpt lat="40.551875" lon="8.687185"><ele>422.0</ele><time>2026-04-19T14:00:10.449Z</time></trkpt><trkpt lat="40.5519183" lon="8.6872483"><ele>422.0</ele><time>2026-04-19T14:00:11.448Z</time></trkpt><trkpt lat="40.551975" lon="8.6873017"><ele>421.99999999999994</ele><time>2026-04-19T14:00:12.449Z</time></trkpt><trkpt lat="40.552045" lon="8.687345"><ele>422.0</ele><time>2026-04-19T14:00:13.448Z</time></trkpt><trkpt lat="40.5521267" lon="8.6873933"><ele>420.99999999999994</ele><time>2026-04-19T14:00:14.449Z</time></trkpt><trkpt lat="40.5522033" lon="8.6874517"><ele>420.0</ele><time>2026-04-19T14:00:15.448Z</time></trkpt><trkpt lat="40.5522817" lon="8.6875117"><ele>419.0</ele><time>2026-04-19T14:00:16.448Z</time></trkpt><trkpt lat="40.55236" lon="8.6875483"><ele>418.0</ele><time>2026-04-19T14:00:17.448Z</time></trkpt><trkpt lat="40.5524417" lon="8.6875617"><ele>416.99999999999994</ele><time>2026-04-19T14:00:18.448Z</time></trkpt><trkpt lat="40.5525317" lon="8.6875667"><ele>416.0</ele><time>2026-04-19T14:00:19.449Z</time></trkpt><trkpt lat="40.55261" lon="8.6875367"><ele>416.0</ele><time>2026-04-19T14:00:20.449Z</time></trkpt><trkpt lat="40.55269" lon="8.687495"><ele>416.0</ele><time>2026-04-19T14:00:21.448Z</time></trkpt><trkpt lat="40.5527733" lon="8.68744"><ele>416.0</ele><time>2026-04-19T14:00:22.448Z</time></trkpt><trkpt lat="40.5528633" lon="8.6873767"><ele>416.0</ele><time>2026-04-19T14:00:23.448Z</time></trkpt><trkpt lat="40.5529567" lon="8.6873033"><ele>416.0</ele><time>2026-04-19T14:00:24.449Z</time></trkpt><trkpt lat="40.5530567" lon="8.6872133"><ele>415.75</ele><time>2026-04-19T14:00:25.449Z</time></trkpt><trkpt lat="40.55317" lon="8.68713"><ele>415.5</ele><time>2026-04-19T14:00:26.448Z</time></trkpt><trkpt lat="40.553285" lon="8.6870467"><ele>415.25</ele><time>2026-04-19T14:00:27.448Z</time></trkpt><trkpt lat="40.553395" lon="8.6869767"><ele>415.0</ele><time>2026-04-19T14:00:28.448Z</time></trkpt><trkpt lat="40.55349" lon="8.6869217"><ele>415.0</ele><time>2026-04-19T14:00:29.448Z</time></trkpt><trkpt lat="40.5535733" lon="8.6868767"><ele>415.0</ele><time>2026-04-19T14:00:30.449Z</time></trkpt><trkpt lat="40.5536483" lon="8.6868267"><ele>415.0</ele><time>2026-04-19T14:00:31.449Z</time></trkpt><trkpt lat="40.55373" lon="8.6867883"><ele>415.0</ele><time>2026-04-19T14:00:32.449Z</time></trkpt><trkpt lat="40.5538217" lon="8.6867533"><ele>415.0</ele><time>2026-04-19T14:00:33.448Z</time></trkpt><trkpt lat="40.5539133" lon="8.6867267"><ele>417.00000000000006</ele><time>2026-04-19T14:00:34.448Z</time></trkpt><trkpt lat="40.553995" lon="8.6867017"><ele>419.0</ele><time>2026-04-19T14:00:35.449Z</time></trkpt><trkpt lat="40.5540617" lon="8.6867033"><ele>421.0</ele><time>2026-04-19T14:00:36.449Z</time></trkpt><trkpt lat="40.554125" lon="8.6867133"><ele>423.0</ele><time>2026-04-19T14:00:37.449Z</time></trkpt><trkpt lat="40.554235" lon="8.686795"><ele>425.00000000000006</ele><time>2026-04-19T14:00:39.448Z</time></trkpt><trkpt lat="40.5542983" lon="8.6868533"><ele>427.0</ele><time>2026-04-19T14:00:40.448Z</time></trkpt><trkpt lat="40.55437" lon="8.68691"><ele>428.40000000000003</ele><time>2026-04-19T14:00:41.448Z</time></trkpt><trkpt lat="40.5544383" lon="8.6869733"><ele>429.80000000000007</ele><time>2026-04-19T14:00:42.448Z</time></trkpt><trkpt lat="40.5545133" lon="8.6870633"><ele>431.2</ele><time>2026-04-19T14:00:43.448Z</time></trkpt><trkpt lat="40.5545933" lon="8.6871583"><ele>432.6</ele><time>2026-04-19T14:00:44.448Z</time></trkpt><trkpt lat="40.5546767" lon="8.6872517"><ele>434.0</ele><time>2026-04-19T14:00:45.448Z</time></trkpt><trkpt lat="40.554755" lon="8.6873367"><ele>433.99999999999994</ele><time>2026-04-19T14:00:46.448Z</time></trkpt><trkpt lat="40.5548233" lon="8.6874067"><ele>434.0</ele><time>2026-04-19T14:00:47.449Z</time></trkpt><trkpt lat="40.5548867" lon="8.6874583"><ele>434.0</ele><time>2026-04-19T14:00:48.448Z</time></trkpt><trkpt lat="40.55496" lon="8.6874983"><ele>434.0</ele><time>2026-04-19T14:00:49.448Z</time></trkpt><trkpt lat="40.5550533" lon="8.6875167"><ele>433.99999999999994</ele><time>2026-04-19T14:00:50.449Z</time></trkpt><trkpt lat="40.55514" lon="8.6875483"><ele>434.0</ele><time>2026-04-19T14:00:51.449Z</time></trkpt><trkpt lat="40.555215" lon="8.6875867"><ele>433.99999999999994</ele><time>2026-04-19T14:00:52.448Z</time></trkpt><trkpt lat="40.5552783" lon="8.68763"><ele>434.0</ele><time>2026-04-19T14:00:53.449Z</time></trkpt><trkpt lat="40.5553533" lon="8.6876783"><ele>434.0</ele><time>2026-04-19T14:00:54.448Z</time></trkpt><trkpt lat="40.5554333" lon="8.6877117"><ele>434.0</ele><time>2026-04-19T14:00:55.449Z</time></trkpt><trkpt lat="40.5555067" lon="8.6877283"><ele>433.99999999999994</ele><time>2026-04-19T14:00:56.449Z</time></trkpt><trkpt lat="40.5555733" lon="8.6877333"><ele>434.0</ele><time>2026-04-19T14:00:57.449Z</time></trkpt><trkpt lat="40.555645" lon="8.6877383"><ele>434.3333333333333</ele><time>2026-04-19T14:00:58.449Z</time></trkpt><trkpt lat="40.5557183" lon="8.6877417"><ele>434.66666666666663</ele><time>2026-04-19T14:00:59.449Z</time></trkpt><trkpt lat="40.5558017" lon="8.68775"><ele>435.0</ele><time>2026-04-19T14:01:00.448Z</time></trkpt><trkpt lat="40.5558917" lon="8.6877783"><ele>435.33333333333337</ele><time>2026-04-19T14:01:01.449Z</time></trkpt><trkpt lat="40.5559867" lon="8.6878067"><ele>435.6666666666667</ele><time>2026-04-19T14:01:02.449Z</time></trkpt><trkpt lat="40.556075" lon="8.6878183"><ele>436.0</ele><time>2026-04-19T14:01:03.448Z</time></trkpt><trkpt lat="40.5561633" lon="8.6878283"><ele>436.33333333333337</ele><time>2026-04-19T14:01:04.448Z</time></trkpt><trkpt lat="40.5562533" lon="8.6878217"><ele>436.6666666666667</ele><time>2026-04-19T14:01:05.448Z</time></trkpt><trkpt lat="40.556335" lon="8.6878167"><ele>437.0</ele><time>2026-04-19T14:01:06.448Z</time></trkpt><trkpt lat="40.556405" lon="8.6878133"><ele>437.33333333333337</ele><time>2026-04-19T14:01:07.449Z</time></trkpt><trkpt lat="40.5564683" lon="8.6878133"><ele>437.6666666666667</ele><time>2026-04-19T14:01:08.448Z</time></trkpt><trkpt lat="40.5565883" lon="8.6878283"><ele>438.0</ele><time>2026-04-19T14:01:10.448Z</time></trkpt><trkpt lat="40.5566533" lon="8.68784"><ele>438.0</ele><time>2026-04-19T14:01:11.448Z</time></trkpt><trkpt lat="40.5567167" lon="8.6878567"><ele>438.0</ele><time>2026-04-19T14:01:12.448Z</time></trkpt><trkpt lat="40.55679" lon="8.687885"><ele>438.0</ele><time>2026-04-19T14:01:13.448Z</time></trkpt><trkpt lat="40.5568683" lon="8.6879217"><ele>438.0</ele><time>2026-04-19T14:01:14.448Z</time></trkpt><trkpt lat="40.556945" lon="8.6879733"><ele>438.0</ele><time>2026-04-19T14:01:15.448Z</time></trkpt><trkpt lat="40.5570183" lon="8.6880233"><ele>438.0</ele><time>2026-04-19T14:01:16.449Z</time></trkpt><trkpt lat="40.5570983" lon="8.6880783"><ele>438.59999999999997</ele><time>2026-04-19T14:01:17.449Z</time></trkpt><trkpt lat="40.5571767" lon="8.6881383"><ele>439.19999999999993</ele><time>2026-04-19T14:01:18.448Z</time></trkpt><trkpt lat="40.557255" lon="8.6882133"><ele>439.8</ele><time>2026-04-19T14:01:19.449Z</time></trkpt><trkpt lat="40.5573367" lon="8.6882933"><ele>440.4</ele><time>2026-04-19T14:01:20.449Z</time></trkpt><trkpt lat="40.5574167" lon="8.6883783"><ele>441.0</ele><time>2026-04-19T14:01:21.449Z</time></trkpt><trkpt lat="40.5575" lon="8.6884667"><ele>441.0</ele><time>2026-04-19T14:01:22.449Z</time></trkpt><trkpt lat="40.5575883" lon="8.6885617"><ele>441.0</ele><time>2026-04-19T14:01:23.449Z</time></trkpt><trkpt lat="40.5576867" lon="8.6886583"><ele>441.0</ele><time>2026-04-19T14:01:24.449Z</time></trkpt><trkpt lat="40.55779" lon="8.6887667"><ele>441.0</ele><time>2026-04-19T14:01:25.449Z</time></trkpt><trkpt lat="40.5578967" lon="8.68888"><ele>442.75</ele><time>2026-04-19T14:01:26.448Z</time></trkpt><trkpt lat="40.55801" lon="8.688995"><ele>444.5</ele><time>2026-04-19T14:01:27.448Z</time></trkpt><trkpt lat="40.5581017" lon="8.6890983"><ele>446.25</ele><time>2026-04-19T14:01:28.448Z</time></trkpt><trkpt lat="40.5581967" lon="8.6891917"><ele>448.0</ele><time>2026-04-19T14:01:29.449Z</time></trkpt><trkpt lat="40.5582883" lon="8.6892883"><ele>448.0</ele><time>2026-04-19T14:01:30.448Z</time></trkpt><trkpt lat="40.558385" lon="8.6893883"><ele>448.0</ele><time>2026-04-19T14:01:31.448Z</time></trkpt><trkpt lat="40.558485" lon="8.6894917"><ele>448.0</ele><time>2026-04-19T14:01:32.449Z</time></trkpt><trkpt lat="40.5585767" lon="8.6896"><ele>448.0</ele><time>2026-04-19T14:01:33.448Z</time></trkpt><trkpt lat="40.5586783" lon="8.6897117"><ele>449.5</ele><time>2026-04-19T14:01:34.449Z</time></trkpt><trkpt lat="40.55877" lon="8.6898083"><ele>451.0</ele><time>2026-04-19T14:01:35.449Z</time></trkpt><trkpt lat="40.5588683" lon="8.6898983"><ele>452.5</ele><time>2026-04-19T14:01:36.448Z</time></trkpt><trkpt lat="40.5589683" lon="8.6899683"><ele>454.0</ele><time>2026-04-19T14:01:37.449Z</time></trkpt><trkpt lat="40.5590667" lon="8.69002"><ele>454.0</ele><time>2026-04-19T14:01:38.448Z</time></trkpt><trkpt lat="40.5591517" lon="8.6900733"><ele>454.0</ele><time>2026-04-19T14:01:39.448Z</time></trkpt><trkpt lat="40.5592383" lon="8.6901117"><ele>454.0</ele><time>2026-04-19T14:01:40.449Z</time></trkpt><trkpt lat="40.5593267" lon="8.6901467"><ele>454.0</ele><time>2026-04-19T14:01:41.448Z</time></trkpt><trkpt lat="40.5594117" lon="8.6901767"><ele>454.0</ele><time>2026-04-19T14:01:42.448Z</time></trkpt><trkpt lat="40.5594933" lon="8.6902033"><ele>454.1666666666667</ele><time>2026-04-19T14:01:43.449Z</time></trkpt><trkpt lat="40.5595733" lon="8.690225"><ele>454.33333333333337</ele><time>2026-04-19T14:01:44.449Z</time></trkpt><trkpt lat="40.5596533" lon="8.69024"><ele>454.5</ele><time>2026-04-19T14:01:45.448Z</time></trkpt><trkpt lat="40.5597333" lon="8.6902683"><ele>454.66666666666663</ele><time>2026-04-19T14:01:46.448Z</time></trkpt><trkpt lat="40.5598117" lon="8.6903067"><ele>454.8333333333333</ele><time>2026-04-19T14:01:47.448Z</time></trkpt><trkpt lat="40.5598983" lon="8.6903483"><ele>455.0</ele><time>2026-04-19T14:01:48.448Z</time></trkpt><trkpt lat="40.559995" lon="8.6904"><ele>456.0</ele><time>2026-04-19T14:01:49.449Z</time></trkpt><trkpt lat="40.5600983" lon="8.6904533"><ele>457.0</ele><time>2026-04-19T14:01:50.448Z</time></trkpt><trkpt lat="40.56021" lon="8.6905067"><ele>458.0</ele><time>2026-04-19T14:01:51.448Z</time></trkpt><trkpt lat="40.5603133" lon="8.69056"><ele>459.0</ele><time>2026-04-19T14:01:52.449Z</time></trkpt><trkpt lat="40.5604067" lon="8.6906033"><ele>460.0</ele><time>2026-04-19T14:01:53.449Z</time></trkpt><trkpt lat="40.560495" lon="8.690635"><ele>460.4</ele><time>2026-04-19T14:01:54.448Z</time></trkpt><trkpt lat="40.5605833" lon="8.6906767"><ele>460.8</ele><time>2026-04-19T14:01:55.449Z</time></trkpt><trkpt lat="40.5606817" lon="8.6907217"><ele>461.20000000000005</ele><time>2026-04-19T14:01:56.449Z</time></trkpt><trkpt lat="40.5607767" lon="8.6907667"><ele>461.6</ele><time>2026-04-19T14:01:57.448Z</time></trkpt><trkpt lat="40.560855" lon="8.6908067"><ele>462.0</ele><time>2026-04-19T14:01:58.449Z</time></trkpt><trkpt lat="40.5609183" lon="8.6908367"><ele>462.0</ele><time>2026-04-19T14:01:59.449Z</time></trkpt><trkpt lat="40.5610267" lon="8.69088"><ele>462.0</ele><time>2026-04-19T14:02:01.449Z</time></trkpt><trkpt lat="40.5610933" lon="8.6908867"><ele>462.0</ele><time>2026-04-19T14:02:03.449Z</time></trkpt><trkpt lat="40.561135" lon="8.6907933"><ele>462.0</ele><time>2026-04-19T14:02:15.448Z</time></trkpt><trkpt lat="40.561165" lon="8.6907033"><ele>462.0</ele><time>2026-04-19T14:02:18.448Z</time></trkpt><trkpt lat="40.5612117" lon="8.69064"><ele>462.0</ele><time>2026-04-19T14:02:22.448Z</time></trkpt><trkpt lat="40.561275" lon="8.69059"><ele>462.1666666666667</ele><time>2026-04-19T14:02:24.448Z</time></trkpt><trkpt lat="40.5613333" lon="8.6905483"><ele>462.33333333333337</ele><time>2026-04-19T14:02:25.449Z</time></trkpt><trkpt lat="40.5614017" lon="8.6904983"><ele>462.5</ele><time>2026-04-19T14:02:26.449Z</time></trkpt><trkpt lat="40.5614783" lon="8.6904367"><ele>462.6666666666667</ele><time>2026-04-19T14:02:27.449Z</time></trkpt><trkpt lat="40.5615617" lon="8.6903583"><ele>462.83333333333337</ele><time>2026-04-19T14:02:28.449Z</time></trkpt><trkpt lat="40.561655" lon="8.6902833"><ele>463.0</ele><time>2026-04-19T14:02:29.448Z</time></trkpt><trkpt lat="40.56175" lon="8.6901983"><ele>463.0</ele><time>2026-04-19T14:02:30.449Z</time></trkpt><trkpt lat="40.5618567" lon="8.6901117"><ele>463.0</ele><time>2026-04-19T14:02:31.449Z</time></trkpt><trkpt lat="40.561965" lon="8.6900217"><ele>463.0</ele><time>2026-04-19T14:02:32.449Z</time></trkpt><trkpt lat="40.5620667" lon="8.689935"><ele>463.0</ele><time>2026-04-19T14:02:33.448Z</time></trkpt><trkpt lat="40.5621767" lon="8.68984"><ele>463.4</ele><time>2026-04-19T14:02:34.449Z</time></trkpt><trkpt lat="40.562285" lon="8.689745"><ele>463.79999999999995</ele><time>2026-04-19T14:02:35.449Z</time></trkpt><trkpt lat="40.5623767" lon="8.689665"><ele>464.2</ele><time>2026-04-19T14:02:36.448Z</time></trkpt><trkpt lat="40.5624583" lon="8.6895983"><ele>464.6</ele><time>2026-04-19T14:02:37.449Z</time></trkpt><trkpt lat="40.5625317" lon="8.6895533"><ele>465.0</ele><time>2026-04-19T14:02:38.449Z</time></trkpt><trkpt lat="40.5626233" lon="8.68954"><ele>465.0</ele><time>2026-04-19T14:02:39.449Z</time></trkpt><trkpt lat="40.5627333" lon="8.68953"><ele>465.0</ele><time>2026-04-19T14:02:40.448Z</time></trkpt><trkpt lat="40.56285" lon="8.6895217"><ele>465.0</ele><time>2026-04-19T14:02:41.449Z</time></trkpt><trkpt lat="40.5629617" lon="8.6895183"><ele>465.0</ele><time>2026-04-19T14:02:42.448Z</time></trkpt><trkpt lat="40.563055" lon="8.6895183"><ele>465.0</ele><time>2026-04-19T14:02:43.449Z</time></trkpt><trkpt lat="40.5631267" lon="8.6895067"><ele>466.1666666666667</ele><time>2026-04-19T14:02:44.448Z</time></trkpt><trkpt lat="40.56319" lon="8.6895017"><ele>467.33333333333337</ele><time>2026-04-19T14:02:45.448Z</time></trkpt><trkpt lat="40.563265" lon="8.6895033"><ele>468.5</ele><time>2026-04-19T14:02:46.448Z</time></trkpt><trkpt lat="40.5633467" lon="8.6895033"><ele>469.6666666666667</ele><time>2026-04-19T14:02:47.448Z</time></trkpt><trkpt lat="40.5634433" lon="8.68951"><ele>470.83333333333337</ele><time>2026-04-19T14:02:48.448Z</time></trkpt><trkpt lat="40.5635467" lon="8.6895133"><ele>472.0</ele><time>2026-04-19T14:02:49.449Z</time></trkpt><trkpt lat="40.56364" lon="8.68953"><ele>472.0</ele><time>2026-04-19T14:02:50.448Z</time></trkpt><trkpt lat="40.5637383" lon="8.6895483"><ele>472.0</ele><time>2026-04-19T14:02:51.449Z</time></trkpt><trkpt lat="40.5638583" lon="8.6895783"><ele>472.0</ele><time>2026-04-19T14:02:52.448Z</time></trkpt><trkpt lat="40.5639967" lon="8.6896233"><ele>472.0</ele><time>2026-04-19T14:02:53.449Z</time></trkpt><trkpt lat="40.5641483" lon="8.6896717"><ele>472.0</ele><time>2026-04-19T14:02:54.448Z</time></trkpt><trkpt lat="40.564295" lon="8.6897317"><ele>472.0</ele><time>2026-04-19T14:02:55.449Z</time></trkpt><trkpt lat="40.564455" lon="8.6897817"><ele>472.0</ele><time>2026-04-19T14:02:56.448Z</time></trkpt><trkpt lat="40.5646083" lon="8.6898183"><ele>471.0</ele><time>2026-04-19T14:02:57.449Z</time></trkpt><trkpt lat="40.5647417" lon="8.6898367"><ele>470.0</ele><time>2026-04-19T14:02:58.449Z</time></trkpt><trkpt lat="40.564865" lon="8.6898367"><ele>469.0</ele><time>2026-04-19T14:02:59.448Z</time></trkpt><trkpt lat="40.5649917" lon="8.6898017"><ele>468.0</ele><time>2026-04-19T14:03:00.449Z</time></trkpt><trkpt lat="40.565125" lon="8.6897483"><ele>468.0</ele><time>2026-04-19T14:03:01.448Z</time></trkpt><trkpt lat="40.5652533" lon="8.6897067"><ele>468.0</ele><time>2026-04-19T14:03:02.449Z</time></trkpt><trkpt lat="40.56538" lon="8.6896717"><ele>468.0</ele><time>2026-04-19T14:03:03.448Z</time></trkpt><trkpt lat="40.5655033" lon="8.689635"><ele>468.0</ele><time>2026-04-19T14:03:04.449Z</time></trkpt><trkpt lat="40.565615" lon="8.6896083"><ele>467.75</ele><time>2026-04-19T14:03:05.448Z</time></trkpt><trkpt lat="40.565725" lon="8.6896033"><ele>467.5</ele><time>2026-04-19T14:03:06.449Z</time></trkpt><trkpt lat="40.5658383" lon="8.6896317"><ele>467.25</ele><time>2026-04-19T14:03:07.449Z</time></trkpt><trkpt lat="40.5659617" lon="8.689675"><ele>467.0</ele><time>2026-04-19T14:03:08.448Z</time></trkpt><trkpt lat="40.5661083" lon="8.6897117"><ele>464.75</ele><time>2026-04-19T14:03:09.449Z</time></trkpt><trkpt lat="40.5662517" lon="8.6897333"><ele>462.5</ele><time>2026-04-19T14:03:10.449Z</time></trkpt><trkpt lat="40.56638" lon="8.6897367"><ele>460.25</ele><time>2026-04-19T14:03:11.449Z</time></trkpt><trkpt lat="40.5664967" lon="8.689765"><ele>458.0</ele><time>2026-04-19T14:03:12.448Z</time></trkpt><trkpt lat="40.5666067" lon="8.6897933"><ele>458.0</ele><time>2026-04-19T14:03:13.448Z</time></trkpt><trkpt lat="40.56672" lon="8.689825"><ele>458.0</ele><time>2026-04-19T14:03:14.448Z</time></trkpt><trkpt lat="40.566835" lon="8.6898667"><ele>458.0</ele><time>2026-04-19T14:03:15.448Z</time></trkpt><trkpt lat="40.566955" lon="8.6899433"><ele>458.0</ele><time>2026-04-19T14:03:16.448Z</time></trkpt><trkpt lat="40.5670817" lon="8.690025"><ele>460.0</ele><time>2026-04-19T14:03:17.448Z</time></trkpt><trkpt lat="40.5672017" lon="8.6901117"><ele>462.0</ele><time>2026-04-19T14:03:18.449Z</time></trkpt><trkpt lat="40.567315" lon="8.6901817"><ele>464.0</ele><time>2026-04-19T14:03:19.448Z</time></trkpt><trkpt lat="40.56743" lon="8.6902467"><ele>466.0</ele><time>2026-04-19T14:03:20.448Z</time></trkpt><trkpt lat="40.5675383" lon="8.6903133"><ele>466.0</ele><time>2026-04-19T14:03:21.449Z</time></trkpt><trkpt lat="40.567645" lon="8.6903883"><ele>466.0</ele><time>2026-04-19T14:03:22.448Z</time></trkpt><trkpt lat="40.5677583" lon="8.6904617"><ele>466.0</ele><time>2026-04-19T14:03:23.448Z</time></trkpt><trkpt lat="40.567885" lon="8.6905417"><ele>466.0</ele><time>2026-04-19T14:03:24.448Z</time></trkpt><trkpt lat="40.5679983" lon="8.6906383"><ele>461.0</ele><time>2026-04-19T14:03:25.448Z</time></trkpt><trkpt lat="40.568105" lon="8.6907317"><ele>456.0</ele><time>2026-04-19T14:03:26.448Z</time></trkpt><trkpt lat="40.5682083" lon="8.690805"><ele>451.0</ele><time>2026-04-19T14:03:27.449Z</time></trkpt><trkpt lat="40.5683017" lon="8.6908783"><ele>446.0</ele><time>2026-04-19T14:03:28.448Z</time></trkpt><trkpt lat="40.568395" lon="8.6909383"><ele>446.0</ele><time>2026-04-19T14:03:29.449Z</time></trkpt><trkpt lat="40.56849" lon="8.691005"><ele>446.0</ele><time>2026-04-19T14:03:30.448Z</time></trkpt><trkpt lat="40.5685933" lon="8.69107"><ele>446.0</ele><time>2026-04-19T14:03:31.449Z</time></trkpt><trkpt lat="40.5686983" lon="8.691145"><ele>446.0</ele><time>2026-04-19T14:03:32.449Z</time></trkpt><trkpt lat="40.5687983" lon="8.691215"><ele>445.25</ele><time>2026-04-19T14:03:33.449Z</time></trkpt><trkpt lat="40.5688933" lon="8.69129"><ele>444.5</ele><time>2026-04-19T14:03:34.449Z</time></trkpt><trkpt lat="40.5689833" lon="8.6913783"><ele>443.75</ele><time>2026-04-19T14:03:35.448Z</time></trkpt><trkpt lat="40.5690683" lon="8.69148"><ele>443.0</ele><time>2026-04-19T14:03:36.448Z</time></trkpt><trkpt lat="40.5691583" lon="8.691595"><ele>443.0</ele><time>2026-04-19T14:03:37.448Z</time></trkpt><trkpt lat="40.5692467" lon="8.6917133"><ele>443.0</ele><time>2026-04-19T14:03:38.449Z</time></trkpt><trkpt lat="40.569335" lon="8.691825"><ele>443.0</ele><time>2026-04-19T14:03:39.449Z</time></trkpt><trkpt lat="40.56943" lon="8.6919133"><ele>443.0</ele><time>2026-04-19T14:03:40.449Z</time></trkpt><trkpt lat="40.5695217" lon="8.6919883"><ele>441.4</ele><time>2026-04-19T14:03:41.448Z</time></trkpt><trkpt lat="40.5696067" lon="8.692075"><ele>439.79999999999995</ele><time>2026-04-19T14:03:42.448Z</time></trkpt><trkpt lat="40.5696767" lon="8.6921783"><ele>438.2</ele><time>2026-04-19T14:03:43.448Z</time></trkpt><trkpt lat="40.569735" lon="8.692285"><ele>436.6</ele><time>2026-04-19T14:03:44.449Z</time></trkpt><trkpt lat="40.5697933" lon="8.6923783"><ele>435.0</ele><time>2026-04-19T14:03:45.449Z</time></trkpt><trkpt lat="40.569845" lon="8.6924783"><ele>435.0</ele><time>2026-04-19T14:03:46.449Z</time></trkpt><trkpt lat="40.5698983" lon="8.6925817"><ele>435.0</ele><time>2026-04-19T14:03:47.448Z</time></trkpt><trkpt lat="40.5699483" lon="8.6926983"><ele>435.0</ele><time>2026-04-19T14:03:48.449Z</time></trkpt><trkpt lat="40.5699933" lon="8.6928083"><ele>435.0</ele><time>2026-04-19T14:03:49.448Z</time></trkpt><trkpt lat="40.5700383" lon="8.6929183"><ele>435.0</ele><time>2026-04-19T14:03:50.448Z</time></trkpt><trkpt lat="40.570085" lon="8.6930167"><ele>436.3333333333333</ele><time>2026-04-19T14:03:51.449Z</time></trkpt><trkpt lat="40.5701267" lon="8.693115"><ele>437.66666666666663</ele><time>2026-04-19T14:03:52.448Z</time></trkpt><trkpt lat="40.5701633" lon="8.6932083"><ele>439.0</ele><time>2026-04-19T14:03:53.449Z</time></trkpt><trkpt lat="40.5701933" lon="8.6933"><ele>440.3333333333333</ele><time>2026-04-19T14:03:54.448Z</time></trkpt><trkpt lat="40.5702217" lon="8.6933967"><ele>441.66666666666663</ele><time>2026-04-19T14:03:55.448Z</time></trkpt><trkpt lat="40.5702583" lon="8.69349"><ele>443.0</ele><time>2026-04-19T14:03:56.448Z</time></trkpt><trkpt lat="40.5703067" lon="8.6935783"><ele>439.0</ele><time>2026-04-19T14:03:57.448Z</time></trkpt><trkpt lat="40.570415" lon="8.69373"><ele>434.99999999999994</ele><time>2026-04-19T14:03:59.448Z</time></trkpt><trkpt lat="40.57048" lon="8.6938083"><ele>431.0</ele><time>2026-04-19T14:04:00.449Z</time></trkpt><trkpt lat="40.570535" lon="8.693885"><ele>427.0</ele><time>2026-04-19T14:04:01.448Z</time></trkpt><trkpt lat="40.570575" lon="8.6939533"><ele>423.0</ele><time>2026-04-19T14:04:02.448Z</time></trkpt><trkpt lat="40.5706317" lon="8.6940483"><ele>423.0</ele><time>2026-04-19T14:04:04.448Z</time></trkpt><trkpt lat="40.5706783" lon="8.6941683"><ele>423.0</ele><time>2026-04-19T14:04:19.448Z</time></trkpt><trkpt lat="40.57065" lon="8.6940683"><ele>423.0</ele><time>2026-04-19T14:04:24.448Z</time></trkpt><trkpt lat="40.5705933" lon="8.69397"><ele>423.0</ele><time>2026-04-19T14:04:26.449Z</time></trkpt><trkpt lat="40.5705083" lon="8.6938217"><ele>423.0</ele><time>2026-04-19T14:04:28.449Z</time></trkpt><trkpt lat="40.570455" lon="8.693735"><ele>423.0</ele><time>2026-04-19T14:04:29.448Z</time></trkpt><trkpt lat="40.57039" lon="8.6936533"><ele>423.0</ele><time>2026-04-19T14:04:30.448Z</time></trkpt><trkpt lat="40.5703367" lon="8.6935917"><ele>423.0</ele><time>2026-04-19T14:04:31.449Z</time></trkpt><trkpt lat="40.5702283" lon="8.69339"><ele>423.0</ele><time>2026-04-19T14:04:34.448Z</time></trkpt><trkpt lat="40.5701933" lon="8.6932933"><ele>423.0</ele><time>2026-04-19T14:04:35.448Z</time></trkpt><trkpt lat="40.570155" lon="8.6931917"><ele>425.4</ele><time>2026-04-19T14:04:36.449Z</time></trkpt><trkpt lat="40.5701167" lon="8.693095"><ele>427.79999999999995</ele><time>2026-04-19T14:04:37.448Z</time></trkpt><trkpt lat="40.5700767" lon="8.6930117"><ele>430.2</ele><time>2026-04-19T14:04:38.449Z</time></trkpt><trkpt lat="40.5700383" lon="8.692925"><ele>432.6</ele><time>2026-04-19T14:04:39.449Z</time></trkpt><trkpt lat="40.5699983" lon="8.6928317"><ele>435.0</ele><time>2026-04-19T14:04:40.448Z</time></trkpt><trkpt lat="40.5699283" lon="8.6926533"><ele>435.0</ele><time>2026-04-19T14:04:42.448Z</time></trkpt><trkpt lat="40.56989" lon="8.6925417"><ele>435.0</ele><time>2026-04-19T14:04:44.448Z</time></trkpt><trkpt lat="40.5697933" lon="8.6925033"><ele>435.0</ele><time>2026-04-19T14:04:49.448Z</time></trkpt><trkpt lat="40.5698233" lon="8.6926217"><ele>435.0</ele><time>2026-04-19T14:04:52.448Z</time></trkpt><trkpt lat="40.569855" lon="8.6927117"><ele>435.0</ele><time>2026-04-19T14:04:54.449Z</time></trkpt><trkpt lat="40.5698617" lon="8.69284"><ele>436.6</ele><time>2026-04-19T14:04:56.449Z</time></trkpt><trkpt lat="40.56986" lon="8.69297"><ele>438.2</ele><time>2026-04-19T14:04:58.448Z</time></trkpt><trkpt lat="40.5698667" lon="8.6931033"><ele>439.79999999999995</ele><time>2026-04-19T14:05:00.449Z</time></trkpt><trkpt lat="40.569865" lon="8.69319"><ele>441.4</ele><time>2026-04-19T14:05:02.448Z</time></trkpt><trkpt lat="40.5698333" lon="8.6932867"><ele>443.0</ele><time>2026-04-19T14:05:18.449Z</time></trkpt><trkpt lat="40.5698067" lon="8.6934517"><ele>443.0</ele><time>2026-04-19T14:05:20.448Z</time></trkpt><trkpt lat="40.56979" lon="8.6935617"><ele>442.99999999999994</ele><time>2026-04-19T14:05:21.448Z</time></trkpt><trkpt lat="40.5697733" lon="8.69368"><ele>442.99999999999994</ele><time>2026-04-19T14:05:22.448Z</time></trkpt><trkpt lat="40.5697583" lon="8.69381"><ele>443.0</ele><time>2026-04-19T14:05:23.448Z</time></trkpt><trkpt lat="40.56974" lon="8.69395"><ele>443.0</ele><time>2026-04-19T14:05:24.449Z</time></trkpt><trkpt lat="40.5697217" lon="8.6940883"><ele>443.79999999999995</ele><time>2026-04-19T14:05:25.448Z</time></trkpt><trkpt lat="40.5697067" lon="8.694225"><ele>444.59999999999997</ele><time>2026-04-19T14:05:26.448Z</time></trkpt><trkpt lat="40.56971" lon="8.6943667"><ele>445.40000000000003</ele><time>2026-04-19T14:05:27.448Z</time></trkpt><trkpt lat="40.5697033" lon="8.6945"><ele>446.20000000000005</ele><time>2026-04-19T14:05:28.449Z</time></trkpt><trkpt lat="40.5697067" lon="8.6946483"><ele>447.0</ele><time>2026-04-19T14:05:29.449Z</time></trkpt><trkpt lat="40.5697017" lon="8.6947867"><ele>447.0</ele><time>2026-04-19T14:05:30.448Z</time></trkpt><trkpt lat="40.5696817" lon="8.69492"><ele>447.00000000000006</ele><time>2026-04-19T14:05:31.448Z</time></trkpt><trkpt lat="40.5696617" lon="8.695045"><ele>447.00000000000006</ele><time>2026-04-19T14:05:32.449Z</time></trkpt><trkpt lat="40.56963" lon="8.69519"><ele>447.0</ele><time>2026-04-19T14:05:33.448Z</time></trkpt><trkpt lat="40.5695933" lon="8.695335"><ele>447.0</ele><time>2026-04-19T14:05:34.448Z</time></trkpt><trkpt lat="40.5695467" lon="8.6954833"><ele>455.5</ele><time>2026-04-19T14:05:35.448Z</time></trkpt><trkpt lat="40.5694967" lon="8.6956283"><ele>464.0</ele><time>2026-04-19T14:05:36.448Z</time></trkpt><trkpt lat="40.5694467" lon="8.6957667"><ele>472.5</ele><time>2026-04-19T14:05:37.448Z</time></trkpt><trkpt lat="40.5693983" lon="8.695905"><ele>481.0</ele><time>2026-04-19T14:05:38.448Z</time></trkpt><trkpt lat="40.5693383" lon="8.69604"><ele>478.8</ele><time>2026-04-19T14:05:39.448Z</time></trkpt><trkpt lat="40.5692833" lon="8.6961683"><ele>476.6</ele><time>2026-04-19T14:05:40.449Z</time></trkpt><trkpt lat="40.5692283" lon="8.6962867"><ele>474.4</ele><time>2026-04-19T14:05:41.449Z</time></trkpt><trkpt lat="40.5691783" lon="8.6963933"><ele>472.2</ele><time>2026-04-19T14:05:42.448Z</time></trkpt><trkpt lat="40.569135" lon="8.6964817"><ele>470.0</ele><time>2026-04-19T14:05:43.449Z</time></trkpt><trkpt lat="40.5690867" lon="8.6965683"><ele>470.0</ele><time>2026-04-19T14:05:44.448Z</time></trkpt><trkpt lat="40.569025" lon="8.696635"><ele>470.0</ele><time>2026-04-19T14:05:45.448Z</time></trkpt><trkpt lat="40.5689083" lon="8.6966617"><ele>470.0</ele><time>2026-04-19T14:05:47.448Z</time></trkpt><trkpt lat="40.568815" lon="8.6966783"><ele>470.0</ele><time>2026-04-19T14:05:49.449Z</time></trkpt><trkpt lat="40.5686983" lon="8.696735"><ele>470.0</ele><time>2026-04-19T14:05:51.449Z</time></trkpt><trkpt lat="40.5686383" lon="8.696785"><ele>472.99999999999994</ele><time>2026-04-19T14:05:52.448Z</time></trkpt><trkpt lat="40.56858" lon="8.6968433"><ele>476.0</ele><time>2026-04-19T14:05:53.449Z</time></trkpt><trkpt lat="40.5685233" lon="8.6969083"><ele>479.0</ele><time>2026-04-19T14:05:54.449Z</time></trkpt><trkpt lat="40.5684733" lon="8.6969933"><ele>482.0</ele><time>2026-04-19T14:05:55.448Z</time></trkpt><trkpt lat="40.56843" lon="8.6970867"><ele>484.99999999999994</ele><time>2026-04-19T14:05:56.449Z</time></trkpt><trkpt lat="40.5683933" lon="8.6971883"><ele>488.0</ele><time>2026-04-19T14:05:57.448Z</time></trkpt><trkpt lat="40.568345" lon="8.6972783"><ele>487.99999999999994</ele><time>2026-04-19T14:05:58.449Z</time></trkpt><trkpt lat="40.5683067" lon="8.6973733"><ele>488.0</ele><time>2026-04-19T14:05:59.449Z</time></trkpt><trkpt lat="40.568275" lon="8.6974733"><ele>488.0</ele><time>2026-04-19T14:06:00.448Z</time></trkpt><trkpt lat="40.5682483" lon="8.6975883"><ele>488.0</ele><time>2026-04-19T14:06:01.448Z</time></trkpt><trkpt lat="40.5682183" lon="8.69771"><ele>487.99999999999994</ele><time>2026-04-19T14:06:02.448Z</time></trkpt><trkpt lat="40.568195" lon="8.6978333"><ele>488.0</ele><time>2026-04-19T14:06:03.449Z</time></trkpt><trkpt lat="40.5681883" lon="8.6979783"><ele>488.0</ele><time>2026-04-19T14:06:04.448Z</time></trkpt><trkpt lat="40.5682017" lon="8.698115"><ele>487.99999999999994</ele><time>2026-04-19T14:06:05.448Z</time></trkpt><trkpt lat="40.5681883" lon="8.69826"><ele>487.99999999999994</ele><time>2026-04-19T14:06:06.448Z</time></trkpt><trkpt lat="40.568185" lon="8.6984133"><ele>488.0</ele><time>2026-04-19T14:06:07.448Z</time></trkpt><trkpt lat="40.5681783" lon="8.6985517"><ele>488.0</ele><time>2026-04-19T14:06:08.449Z</time></trkpt><trkpt lat="40.5681733" lon="8.698675"><ele>487.99999999999994</ele><time>2026-04-19T14:06:09.449Z</time></trkpt><trkpt lat="40.568175" lon="8.6987667"><ele>488.0</ele><time>2026-04-19T14:06:10.449Z</time></trkpt><trkpt lat="40.56811" lon="8.698705"><ele>488.0</ele><time>2026-04-19T14:06:15.448Z</time></trkpt><trkpt lat="40.56808" lon="8.6986317"><ele>488.0</ele><time>2026-04-19T14:06:16.448Z</time></trkpt><trkpt lat="40.5680483" lon="8.6985383"><ele>487.99999999999994</ele><time>2026-04-19T14:06:17.448Z</time></trkpt><trkpt lat="40.5680167" lon="8.6984317"><ele>488.0</ele><time>2026-04-19T14:06:18.449Z</time></trkpt><trkpt lat="40.5679867" lon="8.6983117"><ele>487.99999999999994</ele><time>2026-04-19T14:06:19.449Z</time></trkpt><trkpt lat="40.567955" lon="8.6982033"><ele>488.0</ele><time>2026-04-19T14:06:20.449Z</time></trkpt><trkpt lat="40.567925" lon="8.6981267"><ele>488.0</ele><time>2026-04-19T14:06:21.449Z</time></trkpt><trkpt lat="40.56788" lon="8.6979933"><ele>488.0</ele><time>2026-04-19T14:06:23.448Z</time></trkpt><trkpt lat="40.5678633" lon="8.69791"><ele>487.99999999999994</ele><time>2026-04-19T14:06:24.449Z</time></trkpt><trkpt lat="40.5678417" lon="8.6978117"><ele>488.0</ele><time>2026-04-19T14:06:25.448Z</time></trkpt><trkpt lat="40.5678233" lon="8.6977133"><ele>497.4</ele><time>2026-04-19T14:06:26.448Z</time></trkpt><trkpt lat="40.5678067" lon="8.6976"><ele>506.79999999999995</ele><time>2026-04-19T14:06:27.448Z</time></trkpt><trkpt lat="40.5677933" lon="8.6974717"><ele>516.2</ele><time>2026-04-19T14:06:28.449Z</time></trkpt><trkpt lat="40.567785" lon="8.6973283"><ele>525.6</ele><time>2026-04-19T14:06:29.448Z</time></trkpt><trkpt lat="40.5677767" lon="8.6971983"><ele>535.0</ele><time>2026-04-19T14:06:30.448Z</time></trkpt><trkpt lat="40.5677817" lon="8.6970583"><ele>535.0</ele><time>2026-04-19T14:06:31.448Z</time></trkpt><trkpt lat="40.5677917" lon="8.6969433"><ele>535.0</ele><time>2026-04-19T14:06:32.448Z</time></trkpt><trkpt lat="40.5678033" lon="8.6968233"><ele>535.0</ele><time>2026-04-19T14:06:33.448Z</time></trkpt><trkpt lat="40.5678367" lon="8.696685"><ele>535.0</ele><time>2026-04-19T14:06:34.449Z</time></trkpt><trkpt lat="40.56788" lon="8.69654"><ele>535.0</ele><time>2026-04-19T14:06:35.449Z</time></trkpt><trkpt lat="40.567935" lon="8.69639"><ele>532.3333333333334</ele><time>2026-04-19T14:06:36.448Z</time></trkpt><trkpt lat="40.5679817" lon="8.696255"><ele>529.6666666666667</ele><time>2026-04-19T14:06:37.449Z</time></trkpt><trkpt lat="40.56802" lon="8.6961433"><ele>527.0</ele><time>2026-04-19T14:06:38.449Z</time></trkpt><trkpt lat="40.5680633" lon="8.696045"><ele>524.3333333333334</ele><time>2026-04-19T14:06:39.448Z</time></trkpt><trkpt lat="40.5681183" lon="8.6959783"><ele>521.6666666666666</ele><time>2026-04-19T14:06:40.449Z</time></trkpt><trkpt lat="40.5681833" lon="8.6959367"><ele>519.0</ele><time>2026-04-19T14:06:42.448Z</time></trkpt><trkpt lat="40.5681433" lon="8.6960517"><ele>515.0</ele><time>2026-04-19T14:07:11.448Z</time></trkpt><trkpt lat="40.56807" lon="8.6961667"><ele>511.0</ele><time>2026-04-19T14:07:13.447Z</time></trkpt><trkpt lat="40.5679967" lon="8.696305"><ele>507.0</ele><time>2026-04-19T14:07:15.447Z</time></trkpt><trkpt lat="40.5679583" lon="8.6963833"><ele>503.0</ele><time>2026-04-19T14:07:16.447Z</time></trkpt><trkpt lat="40.5679233" lon="8.6964717"><ele>499.0</ele><time>2026-04-19T14:07:17.447Z</time></trkpt><trkpt lat="40.56785" lon="8.696655"><ele>506.2</ele><time>2026-04-19T14:07:19.447Z</time></trkpt><trkpt lat="40.5678167" lon="8.69674"><ele>513.4</ele><time>2026-04-19T14:07:20.447Z</time></trkpt><trkpt lat="40.5677933" lon="8.6968233"><ele>520.6</ele><time>2026-04-19T14:07:21.447Z</time></trkpt><trkpt lat="40.5677783" lon="8.6969233"><ele>527.8</ele><time>2026-04-19T14:07:22.447Z</time></trkpt><trkpt lat="40.5677617" lon="8.6971333"><ele>535.0</ele><time>2026-04-19T14:07:24.447Z</time></trkpt><trkpt lat="40.5677833" lon="8.69724"><ele>535.0</ele><time>2026-04-19T14:07:25.448Z</time></trkpt><trkpt lat="40.567795" lon="8.6973517"><ele>535.0</ele><time>2026-04-19T14:07:26.448Z</time></trkpt><trkpt lat="40.567805" lon="8.6974683"><ele>535.0</ele><time>2026-04-19T14:07:27.447Z</time></trkpt><trkpt lat="40.5678183" lon="8.6975933"><ele>535.0</ele><time>2026-04-19T14:07:28.447Z</time></trkpt><trkpt lat="40.5678217" lon="8.6977183"><ele>535.0</ele><time>2026-04-19T14:07:29.448Z</time></trkpt><trkpt lat="40.5678367" lon="8.6978367"><ele>525.6</ele><time>2026-04-19T14:07:30.447Z</time></trkpt><trkpt lat="40.5678667" lon="8.6979617"><ele>516.2</ele><time>2026-04-19T14:07:31.448Z</time></trkpt><trkpt lat="40.5678917" lon="8.6980767"><ele>506.79999999999995</ele><time>2026-04-19T14:07:32.448Z</time></trkpt><trkpt lat="40.5679233" lon="8.698195"><ele>497.4</ele><time>2026-04-19T14:07:33.448Z</time></trkpt><trkpt lat="40.5679567" lon="8.6983033"><ele>488.0</ele><time>2026-04-19T14:07:34.448Z</time></trkpt><trkpt lat="40.567985" lon="8.6984067"><ele>487.99999999999994</ele><time>2026-04-19T14:07:35.448Z</time></trkpt><trkpt lat="40.5680017" lon="8.6984933"><ele>488.0</ele><time>2026-04-19T14:07:36.448Z</time></trkpt><trkpt lat="40.5680367" lon="8.6986283"><ele>488.0</ele><time>2026-04-19T14:07:38.448Z</time></trkpt><trkpt lat="40.56807" lon="8.6987083"><ele>488.0</ele><time>2026-04-19T14:07:41.448Z</time></trkpt><trkpt lat="40.5680983" lon="8.6988267"><ele>487.99999999999994</ele><time>2026-04-19T14:08:01.447Z</time></trkpt><trkpt lat="40.5681833" lon="8.6988417"><ele>488.0</ele><time>2026-04-19T14:25:15.444Z</time></trkpt><trkpt lat="40.5681233" lon="8.6987583"><ele>488.0</ele><time>2026-04-19T14:25:19.444Z</time></trkpt><trkpt lat="40.5680783" lon="8.6986533"><ele>487.99999999999994</ele><time>2026-04-19T14:25:22.444Z</time></trkpt><trkpt lat="40.5680617" lon="8.69855"><ele>487.99999999999994</ele><time>2026-04-19T14:25:25.445Z</time></trkpt><trkpt lat="40.5680633" lon="8.6983983"><ele>488.0</ele><time>2026-04-19T14:26:26.443Z</time></trkpt><trkpt lat="40.5680467" lon="8.6982967"><ele>488.0</ele><time>2026-04-19T14:26:28.443Z</time></trkpt><trkpt lat="40.5680067" lon="8.698165"><ele>488.0</ele><time>2026-04-19T14:26:30.443Z</time></trkpt><trkpt lat="40.5679533" lon="8.6980133"><ele>487.99999999999994</ele><time>2026-04-19T14:26:32.443Z</time></trkpt><trkpt lat="40.567925" lon="8.6979217"><ele>487.99999999999994</ele><time>2026-04-19T14:26:33.443Z</time></trkpt><trkpt lat="40.5679017" lon="8.6978367"><ele>488.0</ele><time>2026-04-19T14:26:34.444Z</time></trkpt><trkpt lat="40.5678583" lon="8.6976517"><ele>488.0</ele><time>2026-04-19T14:26:36.444Z</time></trkpt><trkpt lat="40.56785" lon="8.6975433"><ele>497.4</ele><time>2026-04-19T14:26:37.443Z</time></trkpt><trkpt lat="40.5678467" lon="8.6974267"><ele>506.79999999999995</ele><time>2026-04-19T14:26:38.444Z</time></trkpt><trkpt lat="40.5678433" lon="8.69732"><ele>516.2</ele><time>2026-04-19T14:26:39.443Z</time></trkpt><trkpt lat="40.5678383" lon="8.6971967"><ele>525.6</ele><time>2026-04-19T14:26:40.444Z</time></trkpt><trkpt lat="40.5678433" lon="8.6970783"><ele>535.0</ele><time>2026-04-19T14:26:41.443Z</time></trkpt><trkpt lat="40.56785" lon="8.6969517"><ele>527.8</ele><time>2026-04-19T14:26:42.443Z</time></trkpt><trkpt lat="40.5678617" lon="8.696825"><ele>520.6</ele><time>2026-04-19T14:26:43.444Z</time></trkpt><trkpt lat="40.56788" lon="8.6966867"><ele>513.4</ele><time>2026-04-19T14:26:44.443Z</time></trkpt><trkpt lat="40.5679067" lon="8.6965583"><ele>506.2</ele><time>2026-04-19T14:26:45.444Z</time></trkpt><trkpt lat="40.5679467" lon="8.696435"><ele>499.0</ele><time>2026-04-19T14:26:46.444Z</time></trkpt><trkpt lat="40.567985" lon="8.6963183"><ele>499.00000000000006</ele><time>2026-04-19T14:26:47.444Z</time></trkpt><trkpt lat="40.56802" lon="8.6962033"><ele>499.0</ele><time>2026-04-19T14:26:48.444Z</time></trkpt><trkpt lat="40.5680567" lon="8.6961067"><ele>499.0</ele><time>2026-04-19T14:26:49.443Z</time></trkpt><trkpt lat="40.568105" lon="8.6960183"><ele>499.0</ele><time>2026-04-19T14:26:50.444Z</time></trkpt><trkpt lat="40.5681517" lon="8.695935"><ele>499.00000000000006</ele><time>2026-04-19T14:26:51.443Z</time></trkpt><trkpt lat="40.5681867" lon="8.69586"><ele>499.0</ele><time>2026-04-19T14:26:52.443Z</time></trkpt><trkpt lat="40.56821" lon="8.6957733"><ele>502.33333333333337</ele><time>2026-04-19T14:26:53.443Z</time></trkpt><trkpt lat="40.5682283" lon="8.6956717"><ele>505.6666666666667</ele><time>2026-04-19T14:26:54.444Z</time></trkpt><trkpt lat="40.5682467" lon="8.695555"><ele>509.0</ele><time>2026-04-19T14:26:55.444Z</time></trkpt><trkpt lat="40.568255" lon="8.6954417"><ele>512.3333333333334</ele><time>2026-04-19T14:26:56.443Z</time></trkpt><trkpt lat="40.56827" lon="8.6953217"><ele>515.6666666666666</ele><time>2026-04-19T14:26:57.444Z</time></trkpt><trkpt lat="40.568265" lon="8.6952033"><ele>519.0</ele><time>2026-04-19T14:26:58.443Z</time></trkpt><trkpt lat="40.5682633" lon="8.6950867"><ele>519.3333333333334</ele><time>2026-04-19T14:26:59.443Z</time></trkpt><trkpt lat="40.5682617" lon="8.69498"><ele>519.6666666666666</ele><time>2026-04-19T14:27:00.443Z</time></trkpt><trkpt lat="40.56826" lon="8.6948717"><ele>520.0</ele><time>2026-04-19T14:27:01.444Z</time></trkpt><trkpt lat="40.5682517" lon="8.6947517"><ele>520.3333333333333</ele><time>2026-04-19T14:27:02.443Z</time></trkpt><trkpt lat="40.56824" lon="8.6946317"><ele>520.6666666666666</ele><time>2026-04-19T14:27:03.443Z</time></trkpt><trkpt lat="40.5682117" lon="8.69452"><ele>521.0</ele><time>2026-04-19T14:27:04.443Z</time></trkpt><trkpt lat="40.5681883" lon="8.6944067"><ele>521.0</ele><time>2026-04-19T14:27:05.444Z</time></trkpt><trkpt lat="40.5681633" lon="8.6942983"><ele>521.0</ele><time>2026-04-19T14:27:06.443Z</time></trkpt><trkpt lat="40.5681417" lon="8.6942033"><ele>521.0</ele><time>2026-04-19T14:27:07.444Z</time></trkpt><trkpt lat="40.568105" lon="8.6941233"><ele>521.0</ele><time>2026-04-19T14:27:08.443Z</time></trkpt><trkpt lat="40.5680617" lon="8.6940417"><ele>521.0</ele><time>2026-04-19T14:27:09.444Z</time></trkpt><trkpt lat="40.568015" lon="8.6939467"><ele>521.0</ele><time>2026-04-19T14:27:10.443Z</time></trkpt><trkpt lat="40.5679733" lon="8.6938617"><ele>521.0</ele><time>2026-04-19T14:27:11.444Z</time></trkpt><trkpt lat="40.5679233" lon="8.693775"><ele>521.0</ele><time>2026-04-19T14:27:12.443Z</time></trkpt><trkpt lat="40.5678717" lon="8.6936767"><ele>521.0</ele><time>2026-04-19T14:27:13.444Z</time></trkpt><trkpt lat="40.56783" lon="8.6935867"><ele>521.0</ele><time>2026-04-19T14:27:14.443Z</time></trkpt><trkpt lat="40.5677917" lon="8.6934917"><ele>521.0</ele><time>2026-04-19T14:27:15.443Z</time></trkpt><trkpt lat="40.5677567" lon="8.693405"><ele>521.0</ele><time>2026-04-19T14:27:16.444Z</time></trkpt><trkpt lat="40.5677017" lon="8.693325"><ele>524.0</ele><time>2026-04-19T14:27:17.444Z</time></trkpt><trkpt lat="40.5676433" lon="8.6932467"><ele>527.0</ele><time>2026-04-19T14:27:18.444Z</time></trkpt><trkpt lat="40.567595" lon="8.6931667"><ele>530.0</ele><time>2026-04-19T14:27:19.443Z</time></trkpt><trkpt lat="40.5675533" lon="8.6931"><ele>533.0</ele><time>2026-04-19T14:27:20.443Z</time></trkpt><trkpt lat="40.567505" lon="8.6930317"><ele>536.0</ele><time>2026-04-19T14:27:21.444Z</time></trkpt><trkpt lat="40.5674517" lon="8.6929617"><ele>539.0</ele><time>2026-04-19T14:27:22.443Z</time></trkpt><trkpt lat="40.5673967" lon="8.692895"><ele>542.0</ele><time>2026-04-19T14:27:23.443Z</time></trkpt><trkpt lat="40.56734" lon="8.69283"><ele>542.0</ele><time>2026-04-19T14:27:24.443Z</time></trkpt><trkpt lat="40.5672817" lon="8.6927717"><ele>542.0</ele><time>2026-04-19T14:27:25.444Z</time></trkpt><trkpt lat="40.5672217" lon="8.6927167"><ele>542.0</ele><time>2026-04-19T14:27:26.444Z</time></trkpt><trkpt lat="40.56716" lon="8.6926483"><ele>542.0</ele><time>2026-04-19T14:27:27.444Z</time></trkpt><trkpt lat="40.5670767" lon="8.6925833"><ele>542.0</ele><time>2026-04-19T14:27:28.443Z</time></trkpt><trkpt lat="40.56698" lon="8.69254"><ele>542.0</ele><time>2026-04-19T14:27:29.443Z</time></trkpt><trkpt lat="40.5668833" lon="8.6924983"><ele>541.0</ele><time>2026-04-19T14:27:30.444Z</time></trkpt><trkpt lat="40.5667817" lon="8.6924583"><ele>540.0</ele><time>2026-04-19T14:27:31.443Z</time></trkpt><trkpt lat="40.5666867" lon="8.6924233"><ele>539.0</ele><time>2026-04-19T14:27:32.443Z</time></trkpt><trkpt lat="40.5666133" lon="8.6923817"><ele>538.0</ele><time>2026-04-19T14:27:33.444Z</time></trkpt><trkpt lat="40.5665417" lon="8.6923567"><ele>537.0</ele><time>2026-04-19T14:27:34.444Z</time></trkpt><trkpt lat="40.5664683" lon="8.6923417"><ele>536.0</ele><time>2026-04-19T14:27:35.444Z</time></trkpt><trkpt lat="40.56639" lon="8.6923217"><ele>536.0</ele><time>2026-04-19T14:27:36.443Z</time></trkpt><trkpt lat="40.5663017" lon="8.6922833"><ele>536.0</ele><time>2026-04-19T14:27:37.443Z</time></trkpt><trkpt lat="40.5662017" lon="8.6922467"><ele>536.0</ele><time>2026-04-19T14:27:38.443Z</time></trkpt><trkpt lat="40.5661067" lon="8.692215"><ele>536.0</ele><time>2026-04-19T14:27:39.444Z</time></trkpt><trkpt lat="40.56601" lon="8.6922017"><ele>536.0</ele><time>2026-04-19T14:27:40.443Z</time></trkpt><trkpt lat="40.5659" lon="8.692185"><ele>538.4</ele><time>2026-04-19T14:27:41.444Z</time></trkpt><trkpt lat="40.565795" lon="8.69218"><ele>540.8</ele><time>2026-04-19T14:27:42.443Z</time></trkpt><trkpt lat="40.5656883" lon="8.6921833"><ele>543.1999999999999</ele><time>2026-04-19T14:27:43.444Z</time></trkpt><trkpt lat="40.5655767" lon="8.6922033"><ele>545.6</ele><time>2026-04-19T14:27:44.443Z</time></trkpt><trkpt lat="40.565465" lon="8.692225"><ele>548.0</ele><time>2026-04-19T14:27:45.444Z</time></trkpt><trkpt lat="40.5653567" lon="8.692245"><ele>548.0</ele><time>2026-04-19T14:27:46.443Z</time></trkpt><trkpt lat="40.565245" lon="8.69227"><ele>548.0</ele><time>2026-04-19T14:27:47.443Z</time></trkpt><trkpt lat="40.56515" lon="8.6923117"><ele>548.0</ele><time>2026-04-19T14:27:48.444Z</time></trkpt><trkpt lat="40.5650667" lon="8.6923533"><ele>548.0</ele><time>2026-04-19T14:27:49.443Z</time></trkpt><trkpt lat="40.5649733" lon="8.6924083"><ele>548.0</ele><time>2026-04-19T14:27:50.444Z</time></trkpt><trkpt lat="40.56489" lon="8.6924567"><ele>548.0</ele><time>2026-04-19T14:27:51.444Z</time></trkpt><trkpt lat="40.5648117" lon="8.69251"><ele>548.0</ele><time>2026-04-19T14:27:52.443Z</time></trkpt><trkpt lat="40.5647433" lon="8.6925683"><ele>548.0</ele><time>2026-04-19T14:27:53.444Z</time></trkpt><trkpt lat="40.5646867" lon="8.6926317"><ele>548.0</ele><time>2026-04-19T14:27:54.443Z</time></trkpt><trkpt lat="40.5646367" lon="8.6927033"><ele>548.0</ele><time>2026-04-19T14:27:55.443Z</time></trkpt><trkpt lat="40.564605" lon="8.6927833"><ele>548.0</ele><time>2026-04-19T14:27:56.443Z</time></trkpt><trkpt lat="40.5645767" lon="8.692875"><ele>551.0</ele><time>2026-04-19T14:27:57.444Z</time></trkpt><trkpt lat="40.5645533" lon="8.692965"><ele>554.0</ele><time>2026-04-19T14:27:58.444Z</time></trkpt><trkpt lat="40.5645383" lon="8.6930617"><ele>557.0</ele><time>2026-04-19T14:27:59.443Z</time></trkpt><trkpt lat="40.5645333" lon="8.6931817"><ele>560.0</ele><time>2026-04-19T14:28:00.443Z</time></trkpt><trkpt lat="40.5645383" lon="8.6932933"><ele>563.0</ele><time>2026-04-19T14:28:01.443Z</time></trkpt><trkpt lat="40.56455" lon="8.6934183"><ele>566.0</ele><time>2026-04-19T14:28:02.444Z</time></trkpt><trkpt lat="40.5645717" lon="8.69354"><ele>566.0</ele><time>2026-04-19T14:28:03.443Z</time></trkpt><trkpt lat="40.5645983" lon="8.69368"><ele>566.0</ele><time>2026-04-19T14:28:04.443Z</time></trkpt><trkpt lat="40.564625" lon="8.6938267"><ele>566.0</ele><time>2026-04-19T14:28:05.444Z</time></trkpt><trkpt lat="40.5646467" lon="8.69396"><ele>566.0</ele><time>2026-04-19T14:28:06.443Z</time></trkpt><trkpt lat="40.5646667" lon="8.6940817"><ele>566.0</ele><time>2026-04-19T14:28:07.444Z</time></trkpt><trkpt lat="40.56468" lon="8.694195"><ele>566.0</ele><time>2026-04-19T14:28:08.443Z</time></trkpt><trkpt lat="40.5646833" lon="8.6943"><ele>566.0</ele><time>2026-04-19T14:28:09.444Z</time></trkpt><trkpt lat="40.5646817" lon="8.6944067"><ele>566.0</ele><time>2026-04-19T14:28:10.443Z</time></trkpt><trkpt lat="40.5646717" lon="8.6945"><ele>566.0</ele><time>2026-04-19T14:28:11.443Z</time></trkpt><trkpt lat="40.564645" lon="8.69458"><ele>566.0</ele><time>2026-04-19T14:28:12.444Z</time></trkpt><trkpt lat="40.5645883" lon="8.6946633"><ele>566.0</ele><time>2026-04-19T14:28:13.444Z</time></trkpt><trkpt lat="40.5645117" lon="8.694725"><ele>565.2</ele><time>2026-04-19T14:28:14.444Z</time></trkpt><trkpt lat="40.5644283" lon="8.694765"><ele>564.4000000000001</ele><time>2026-04-19T14:28:15.443Z</time></trkpt><trkpt lat="40.5643317" lon="8.6948017"><ele>563.6</ele><time>2026-04-19T14:28:16.443Z</time></trkpt><trkpt lat="40.5642367" lon="8.6948333"><ele>562.8000000000001</ele><time>2026-04-19T14:28:17.443Z</time></trkpt><trkpt lat="40.56414" lon="8.6948667"><ele>562.0</ele><time>2026-04-19T14:28:18.444Z</time></trkpt><trkpt lat="40.5640383" lon="8.694885"><ele>562.0</ele><time>2026-04-19T14:28:19.443Z</time></trkpt><trkpt lat="40.563925" lon="8.69489"><ele>562.0</ele><time>2026-04-19T14:28:20.443Z</time></trkpt><trkpt lat="40.5638217" lon="8.6949017"><ele>562.0</ele><time>2026-04-19T14:28:21.444Z</time></trkpt><trkpt lat="40.563715" lon="8.6949067"><ele>562.0</ele><time>2026-04-19T14:28:22.443Z</time></trkpt><trkpt lat="40.5636133" lon="8.6949133"><ele>562.0</ele><time>2026-04-19T14:28:23.443Z</time></trkpt><trkpt lat="40.5635333" lon="8.694935"><ele>561.5</ele><time>2026-04-19T14:28:24.443Z</time></trkpt><trkpt lat="40.563455" lon="8.69495"><ele>561.0</ele><time>2026-04-19T14:28:25.444Z</time></trkpt><trkpt lat="40.5633717" lon="8.6949633"><ele>560.5</ele><time>2026-04-19T14:28:26.444Z</time></trkpt><trkpt lat="40.5632833" lon="8.6949683"><ele>560.0</ele><time>2026-04-19T14:28:27.444Z</time></trkpt><trkpt lat="40.5632083" lon="8.6949767"><ele>559.5</ele><time>2026-04-19T14:28:28.443Z</time></trkpt><trkpt lat="40.563135" lon="8.694995"><ele>559.0</ele><time>2026-04-19T14:28:29.444Z</time></trkpt><trkpt lat="40.56307" lon="8.695035"><ele>559.0</ele><time>2026-04-19T14:28:30.444Z</time></trkpt><trkpt lat="40.5630217" lon="8.6950983"><ele>559.0</ele><time>2026-04-19T14:28:31.443Z</time></trkpt><trkpt lat="40.5629817" lon="8.695165"><ele>559.0</ele><time>2026-04-19T14:28:32.444Z</time></trkpt><trkpt lat="40.5629517" lon="8.69526"><ele>559.0</ele><time>2026-04-19T14:28:33.443Z</time></trkpt><trkpt lat="40.562935" lon="8.6953717"><ele>559.0</ele><time>2026-04-19T14:28:34.443Z</time></trkpt><trkpt lat="40.56292" lon="8.6954883"><ele>559.0</ele><time>2026-04-19T14:28:35.444Z</time></trkpt><trkpt lat="40.5629117" lon="8.6956233"><ele>562.75</ele><time>2026-04-19T14:28:36.443Z</time></trkpt><trkpt lat="40.5629067" lon="8.69578"><ele>566.5</ele><time>2026-04-19T14:28:37.444Z</time></trkpt><trkpt lat="40.5629017" lon="8.6959517"><ele>570.25</ele><time>2026-04-19T14:28:38.443Z</time></trkpt><trkpt lat="40.562895" lon="8.6961333"><ele>574.0</ele><time>2026-04-19T14:28:39.444Z</time></trkpt><trkpt lat="40.5628883" lon="8.6963183"><ele>574.75</ele><time>2026-04-19T14:28:40.443Z</time></trkpt><trkpt lat="40.56289" lon="8.6964983"><ele>575.5</ele><time>2026-04-19T14:28:41.443Z</time></trkpt><trkpt lat="40.5628933" lon="8.69665"><ele>576.25</ele><time>2026-04-19T14:28:42.443Z</time></trkpt><trkpt lat="40.5628883" lon="8.696795"><ele>577.0</ele><time>2026-04-19T14:28:43.443Z</time></trkpt><trkpt lat="40.5628717" lon="8.696925"><ele>573.2</ele><time>2026-04-19T14:28:44.443Z</time></trkpt><trkpt lat="40.56284" lon="8.6970433"><ele>569.4000000000001</ele><time>2026-04-19T14:28:45.444Z</time></trkpt><trkpt lat="40.562805" lon="8.6971567"><ele>565.5999999999999</ele><time>2026-04-19T14:28:46.444Z</time></trkpt><trkpt lat="40.5627817" lon="8.6972683"><ele>561.8</ele><time>2026-04-19T14:28:47.443Z</time></trkpt><trkpt lat="40.5627633" lon="8.697385"><ele>558.0</ele><time>2026-04-19T14:28:48.443Z</time></trkpt><trkpt lat="40.5627467" lon="8.6974983"><ele>558.0</ele><time>2026-04-19T14:28:49.444Z</time></trkpt><trkpt lat="40.562735" lon="8.69761"><ele>558.0</ele><time>2026-04-19T14:28:50.444Z</time></trkpt><trkpt lat="40.5627067" lon="8.69773"><ele>558.0</ele><time>2026-04-19T14:28:51.443Z</time></trkpt><trkpt lat="40.5626767" lon="8.697855"><ele>558.0</ele><time>2026-04-19T14:28:52.443Z</time></trkpt><trkpt lat="40.56264" lon="8.69798"><ele>558.0</ele><time>2026-04-19T14:28:53.443Z</time></trkpt><trkpt lat="40.5625967" lon="8.6981033"><ele>560.1999999999999</ele><time>2026-04-19T14:28:54.444Z</time></trkpt><trkpt lat="40.5625483" lon="8.6982317"><ele>562.4</ele><time>2026-04-19T14:28:55.444Z</time></trkpt><trkpt lat="40.5625017" lon="8.698355"><ele>564.5999999999999</ele><time>2026-04-19T14:28:56.443Z</time></trkpt><trkpt lat="40.56246" lon="8.6984733"><ele>566.8</ele><time>2026-04-19T14:28:57.444Z</time></trkpt><trkpt lat="40.562425" lon="8.6985767"><ele>569.0</ele><time>2026-04-19T14:28:58.443Z</time></trkpt><trkpt lat="40.5624033" lon="8.6986733"><ele>569.0</ele><time>2026-04-19T14:28:59.444Z</time></trkpt><trkpt lat="40.5623867" lon="8.698775"><ele>569.0</ele><time>2026-04-19T14:29:00.444Z</time></trkpt><trkpt lat="40.5623817" lon="8.6988683"><ele>569.0</ele><time>2026-04-19T14:29:01.443Z</time></trkpt><trkpt lat="40.5623983" lon="8.6989617"><ele>569.0</ele><time>2026-04-19T14:29:02.443Z</time></trkpt><trkpt lat="40.5624317" lon="8.6990483"><ele>569.0</ele><time>2026-04-19T14:29:03.444Z</time></trkpt><trkpt lat="40.5624783" lon="8.6991283"><ele>569.0</ele><time>2026-04-19T14:29:04.443Z</time></trkpt><trkpt lat="40.562535" lon="8.6992083"><ele>569.0</ele><time>2026-04-19T14:29:05.443Z</time></trkpt><trkpt lat="40.5625833" lon="8.699295"><ele>569.0</ele><time>2026-04-19T14:29:06.443Z</time></trkpt><trkpt lat="40.5626233" lon="8.6993817"><ele>569.0</ele><time>2026-04-19T14:29:07.443Z</time></trkpt><trkpt lat="40.5626583" lon="8.6994567"><ele>569.0</ele><time>2026-04-19T14:29:08.443Z</time></trkpt><trkpt lat="40.5626817" lon="8.6995483"><ele>569.0</ele><time>2026-04-19T14:29:09.443Z</time></trkpt><trkpt lat="40.5627067" lon="8.6996467"><ele>569.0</ele><time>2026-04-19T14:29:10.444Z</time></trkpt><trkpt lat="40.5627233" lon="8.69975"><ele>568.8333333333333</ele><time>2026-04-19T14:29:11.443Z</time></trkpt><trkpt lat="40.5627367" lon="8.69985"><ele>568.6666666666666</ele><time>2026-04-19T14:29:12.443Z</time></trkpt><trkpt lat="40.562745" lon="8.6999617"><ele>568.5</ele><time>2026-04-19T14:29:13.443Z</time></trkpt><trkpt lat="40.56275" lon="8.700075"><ele>568.3333333333334</ele><time>2026-04-19T14:29:14.442Z</time></trkpt><trkpt lat="40.5627533" lon="8.7001867"><ele>568.1666666666667</ele><time>2026-04-19T14:29:15.442Z</time></trkpt><trkpt lat="40.5627583" lon="8.700295"><ele>568.0</ele><time>2026-04-19T14:29:16.442Z</time></trkpt><trkpt lat="40.5627683" lon="8.7003967"><ele>568.8333333333334</ele><time>2026-04-19T14:29:17.442Z</time></trkpt><trkpt lat="40.5627733" lon="8.70051"><ele>569.6666666666667</ele><time>2026-04-19T14:29:18.442Z</time></trkpt><trkpt lat="40.5627817" lon="8.7006233"><ele>570.5</ele><time>2026-04-19T14:29:19.443Z</time></trkpt><trkpt lat="40.5627883" lon="8.7007483"><ele>571.3333333333334</ele><time>2026-04-19T14:29:20.443Z</time></trkpt><trkpt lat="40.5627967" lon="8.7008683"><ele>572.1666666666666</ele><time>2026-04-19T14:29:21.443Z</time></trkpt><trkpt lat="40.5627933" lon="8.70098"><ele>573.0</ele><time>2026-04-19T14:29:22.443Z</time></trkpt><trkpt lat="40.56279" lon="8.701085"><ele>573.0</ele><time>2026-04-19T14:29:23.442Z</time></trkpt><trkpt lat="40.5627783" lon="8.70119"><ele>573.0</ele><time>2026-04-19T14:29:24.442Z</time></trkpt><trkpt lat="40.5627533" lon="8.7013017"><ele>573.0</ele><time>2026-04-19T14:29:25.443Z</time></trkpt><trkpt lat="40.56273" lon="8.70141"><ele>573.0</ele><time>2026-04-19T14:29:26.442Z</time></trkpt><trkpt lat="40.5626967" lon="8.7015133"><ele>573.0</ele><time>2026-04-19T14:29:27.443Z</time></trkpt><trkpt lat="40.562665" lon="8.7016083"><ele>573.0</ele><time>2026-04-19T14:29:28.443Z</time></trkpt><trkpt lat="40.56263" lon="8.7016917"><ele>573.0</ele><time>2026-04-19T14:29:29.442Z</time></trkpt><trkpt lat="40.5626067" lon="8.7017717"><ele>573.0</ele><time>2026-04-19T14:29:30.443Z</time></trkpt><trkpt lat="40.5625633" lon="8.7019033"><ele>573.0</ele><time>2026-04-19T14:29:32.442Z</time></trkpt><trkpt lat="40.562535" lon="8.70205"><ele>573.0</ele><time>2026-04-19T14:29:34.442Z</time></trkpt><trkpt lat="40.5625283" lon="8.7021383"><ele>573.0</ele><time>2026-04-19T14:29:35.442Z</time></trkpt><trkpt lat="40.562505" lon="8.70228"><ele>572.8333333333334</ele><time>2026-04-19T14:29:37.443Z</time></trkpt><trkpt lat="40.5624917" lon="8.70241"><ele>572.6666666666666</ele><time>2026-04-19T14:29:39.442Z</time></trkpt><trkpt lat="40.56248" lon="8.7025217"><ele>572.5</ele><time>2026-04-19T14:29:41.442Z</time></trkpt><trkpt lat="40.5624883" lon="8.7026783"><ele>572.3333333333333</ele><time>2026-04-19T14:29:43.442Z</time></trkpt><trkpt lat="40.5625083" lon="8.7027633"><ele>572.1666666666666</ele><time>2026-04-19T14:29:44.443Z</time></trkpt><trkpt lat="40.5625467" lon="8.7028467"><ele>572.0</ele><time>2026-04-19T14:29:45.442Z</time></trkpt><trkpt lat="40.56258" lon="8.70294"><ele>572.0</ele><time>2026-04-19T14:29:46.443Z</time></trkpt><trkpt lat="40.5625983" lon="8.703025"><ele>572.0</ele><time>2026-04-19T14:29:47.442Z</time></trkpt><trkpt lat="40.562585" lon="8.703185"><ele>572.0</ele><time>2026-04-19T14:29:49.443Z</time></trkpt><trkpt lat="40.5625733" lon="8.7032717"><ele>572.0</ele><time>2026-04-19T14:29:50.442Z</time></trkpt><trkpt lat="40.56255" lon="8.7033633"><ele>572.0</ele><time>2026-04-19T14:29:51.442Z</time></trkpt><trkpt lat="40.56251" lon="8.7034667"><ele>572.0</ele><time>2026-04-19T14:29:52.442Z</time></trkpt><trkpt lat="40.56247" lon="8.7035783"><ele>571.3333333333333</ele><time>2026-04-19T14:29:53.442Z</time></trkpt><trkpt lat="40.5624317" lon="8.7036883"><ele>570.6666666666666</ele><time>2026-04-19T14:29:54.443Z</time></trkpt><trkpt lat="40.5624" lon="8.7037783"><ele>570.0</ele><time>2026-04-19T14:29:55.442Z</time></trkpt><trkpt lat="40.562375" lon="8.70386"><ele>569.3333333333334</ele><time>2026-04-19T14:29:56.443Z</time></trkpt><trkpt lat="40.5623517" lon="8.7039617"><ele>568.6666666666667</ele><time>2026-04-19T14:29:57.443Z</time></trkpt><trkpt lat="40.562325" lon="8.704075"><ele>568.0</ele><time>2026-04-19T14:29:58.443Z</time></trkpt><trkpt lat="40.562295" lon="8.7041883"><ele>568.0</ele><time>2026-04-19T14:29:59.442Z</time></trkpt><trkpt lat="40.56227" lon="8.70429"><ele>568.0</ele><time>2026-04-19T14:30:00.443Z</time></trkpt><trkpt lat="40.5622467" lon="8.7043967"><ele>568.0</ele><time>2026-04-19T14:30:01.443Z</time></trkpt><trkpt lat="40.56222" lon="8.7044933"><ele>568.0</ele><time>2026-04-19T14:30:02.442Z</time></trkpt><trkpt lat="40.5621867" lon="8.70458"><ele>568.0</ele><time>2026-04-19T14:30:03.442Z</time></trkpt><trkpt lat="40.56215" lon="8.7046683"><ele>568.0</ele><time>2026-04-19T14:30:04.442Z</time></trkpt><trkpt lat="40.562115" lon="8.7047617"><ele>568.0</ele><time>2026-04-19T14:30:05.442Z</time></trkpt><trkpt lat="40.5620833" lon="8.7048567"><ele>568.0</ele><time>2026-04-19T14:30:06.442Z</time></trkpt><trkpt lat="40.5620567" lon="8.7049533"><ele>568.0</ele><time>2026-04-19T14:30:07.442Z</time></trkpt><trkpt lat="40.562035" lon="8.7050617"><ele>568.0</ele><time>2026-04-19T14:30:08.443Z</time></trkpt><trkpt lat="40.5620183" lon="8.70516"><ele>568.0</ele><time>2026-04-19T14:30:09.443Z</time></trkpt><trkpt lat="40.5619967" lon="8.7052533"><ele>568.0</ele><time>2026-04-19T14:30:10.442Z</time></trkpt><trkpt lat="40.5619833" lon="8.7053483"><ele>568.0</ele><time>2026-04-19T14:30:11.443Z</time></trkpt><trkpt lat="40.5619717" lon="8.70544"><ele>568.0</ele><time>2026-04-19T14:30:12.443Z</time></trkpt><trkpt lat="40.5619683" lon="8.7055367"><ele>568.0</ele><time>2026-04-19T14:30:13.442Z</time></trkpt><trkpt lat="40.5619533" lon="8.7056367"><ele>568.0</ele><time>2026-04-19T14:30:14.442Z</time></trkpt><trkpt lat="40.56194" lon="8.70573"><ele>568.0</ele><time>2026-04-19T14:30:15.442Z</time></trkpt><trkpt lat="40.56192" lon="8.705815"><ele>568.0</ele><time>2026-04-19T14:30:16.442Z</time></trkpt><trkpt lat="40.5618967" lon="8.705895"><ele>568.0</ele><time>2026-04-19T14:30:17.442Z</time></trkpt><trkpt lat="40.561875" lon="8.7060367"><ele>567.0</ele><time>2026-04-19T14:30:19.443Z</time></trkpt><trkpt lat="40.5618533" lon="8.706165"><ele>566.0</ele><time>2026-04-19T14:30:21.443Z</time></trkpt><trkpt lat="40.561835" lon="8.7062833"><ele>565.0</ele><time>2026-04-19T14:30:23.442Z</time></trkpt><trkpt lat="40.5618083" lon="8.7063883"><ele>564.0</ele><time>2026-04-19T14:30:25.442Z</time></trkpt><trkpt lat="40.5617683" lon="8.70648"><ele>563.0</ele><time>2026-04-19T14:30:29.442Z</time></trkpt><trkpt lat="40.561765" lon="8.7065717"><ele>562.0</ele><time>2026-04-19T14:30:31.443Z</time></trkpt><trkpt lat="40.5617533" lon="8.7066917"><ele>562.0</ele><time>2026-04-19T14:30:33.442Z</time></trkpt><trkpt lat="40.5617367" lon="8.706805"><ele>562.0</ele><time>2026-04-19T14:30:35.442Z</time></trkpt><trkpt lat="40.561715" lon="8.7069117"><ele>562.0</ele><time>2026-04-19T14:30:37.442Z</time></trkpt><trkpt lat="40.56169" lon="8.70699"><ele>562.0</ele><time>2026-04-19T14:30:39.443Z</time></trkpt><trkpt lat="40.56167" lon="8.7071033"><ele>562.0</ele><time>2026-04-19T14:33:12.443Z</time></trkpt><trkpt lat="40.5616433" lon="8.7071967"><ele>562.0</ele><time>2026-04-19T14:33:14.442Z</time></trkpt><trkpt lat="40.5616167" lon="8.7073717"><ele>560.0</ele><time>2026-04-19T14:33:18.442Z</time></trkpt><trkpt lat="40.5615983" lon="8.70748"><ele>558.0</ele><time>2026-04-19T14:33:21.443Z</time></trkpt><trkpt lat="40.56159" lon="8.7075783"><ele>556.0</ele><time>2026-04-19T14:33:24.443Z</time></trkpt><trkpt lat="40.5615783" lon="8.7076967"><ele>554.0</ele><time>2026-04-19T14:33:27.442Z</time></trkpt><trkpt lat="40.561575" lon="8.7078617"><ele>552.0</ele><time>2026-04-19T14:33:36.442Z</time></trkpt><trkpt lat="40.56157" lon="8.7079717"><ele>552.0</ele><time>2026-04-19T14:33:39.442Z</time></trkpt><trkpt lat="40.5615567" lon="8.7080717"><ele>552.0</ele><time>2026-04-19T14:33:42.443Z</time></trkpt><trkpt lat="40.5615783" lon="8.7079483"><ele>552.0</ele><time>2026-04-19T14:35:01.441Z</time></trkpt><trkpt lat="40.5615733" lon="8.7078267"><ele>552.0</ele><time>2026-04-19T14:35:03.441Z</time></trkpt><trkpt lat="40.56158" lon="8.70769"><ele>552.0</ele><time>2026-04-19T14:35:05.441Z</time></trkpt><trkpt lat="40.5615983" lon="8.7075117"><ele>552.0</ele><time>2026-04-19T14:35:07.442Z</time></trkpt><trkpt lat="40.56161" lon="8.7074067"><ele>552.0</ele><time>2026-04-19T14:35:08.441Z</time></trkpt><trkpt lat="40.561625" lon="8.7073033"><ele>552.0</ele><time>2026-04-19T14:35:09.441Z</time></trkpt><trkpt lat="40.561645" lon="8.7072117"><ele>552.0</ele><time>2026-04-19T14:35:10.441Z</time></trkpt><trkpt lat="40.5616583" lon="8.70712"><ele>552.0</ele><time>2026-04-19T14:35:11.442Z</time></trkpt><trkpt lat="40.5616983" lon="8.7069833"><ele>552.0</ele><time>2026-04-19T14:35:13.441Z</time></trkpt><trkpt lat="40.5617267" lon="8.7069017"><ele>553.6666666666666</ele><time>2026-04-19T14:35:15.442Z</time></trkpt><trkpt lat="40.5617567" lon="8.7068117"><ele>555.3333333333334</ele><time>2026-04-19T14:35:19.442Z</time></trkpt><trkpt lat="40.561775" lon="8.7066833"><ele>557.0</ele><time>2026-04-19T14:35:22.442Z</time></trkpt><trkpt lat="40.5617817" lon="8.7065917"><ele>558.6666666666667</ele><time>2026-04-19T14:35:24.441Z</time></trkpt><trkpt lat="40.5617783" lon="8.7064767"><ele>560.3333333333334</ele><time>2026-04-19T14:35:27.441Z</time></trkpt><trkpt lat="40.5618033" lon="8.706395"><ele>562.0</ele><time>2026-04-19T14:35:49.441Z</time></trkpt><trkpt lat="40.5618367" lon="8.7063133"><ele>562.0</ele><time>2026-04-19T14:35:51.442Z</time></trkpt><trkpt lat="40.5618517" lon="8.70619"><ele>562.0</ele><time>2026-04-19T14:35:53.442Z</time></trkpt><trkpt lat="40.56189" lon="8.7059067"><ele>562.0</ele><time>2026-04-19T14:35:57.441Z</time></trkpt><trkpt lat="40.5619083" lon="8.7058217"><ele>562.0</ele><time>2026-04-19T14:35:58.441Z</time></trkpt><trkpt lat="40.561925" lon="8.705735"><ele>562.0</ele><time>2026-04-19T14:35:59.441Z</time></trkpt><trkpt lat="40.5619417" lon="8.7056383"><ele>561.8333333333334</ele><time>2026-04-19T14:36:00.442Z</time></trkpt><trkpt lat="40.5619567" lon="8.7055367"><ele>561.6666666666667</ele><time>2026-04-19T14:36:01.441Z</time></trkpt><trkpt lat="40.5619717" lon="8.705445"><ele>561.5</ele><time>2026-04-19T14:36:02.442Z</time></trkpt><trkpt lat="40.5619817" lon="8.7053483"><ele>561.3333333333334</ele><time>2026-04-19T14:36:03.442Z</time></trkpt><trkpt lat="40.562" lon="8.7052417"><ele>561.1666666666666</ele><time>2026-04-19T14:36:04.442Z</time></trkpt><trkpt lat="40.562025" lon="8.70513"><ele>561.0</ele><time>2026-04-19T14:36:05.442Z</time></trkpt><trkpt lat="40.5620417" lon="8.7050233"><ele>561.0</ele><time>2026-04-19T14:36:06.441Z</time></trkpt><trkpt lat="40.5620617" lon="8.704935"><ele>561.0</ele><time>2026-04-19T14:36:07.442Z</time></trkpt><trkpt lat="40.5620867" lon="8.7048367"><ele>561.0</ele><time>2026-04-19T14:36:08.442Z</time></trkpt><trkpt lat="40.5621233" lon="8.7047317"><ele>561.0</ele><time>2026-04-19T14:36:09.441Z</time></trkpt><trkpt lat="40.5621617" lon="8.7046267"><ele>561.0</ele><time>2026-04-19T14:36:10.441Z</time></trkpt><trkpt lat="40.5621917" lon="8.704535"><ele>561.0</ele><time>2026-04-19T14:36:11.442Z</time></trkpt><trkpt lat="40.56222" lon="8.7044383"><ele>562.0</ele><time>2026-04-19T14:36:12.442Z</time></trkpt><trkpt lat="40.56225" lon="8.7043617"><ele>563.0</ele><time>2026-04-19T14:36:13.441Z</time></trkpt><trkpt lat="40.56228" lon="8.7042883"><ele>564.0</ele><time>2026-04-19T14:36:14.441Z</time></trkpt><trkpt lat="40.562305" lon="8.7041933"><ele>565.0</ele><time>2026-04-19T14:36:15.441Z</time></trkpt><trkpt lat="40.5623317" lon="8.7041017"><ele>566.0</ele><time>2026-04-19T14:36:16.441Z</time></trkpt><trkpt lat="40.5623583" lon="8.7039967"><ele>567.0</ele><time>2026-04-19T14:36:17.441Z</time></trkpt><trkpt lat="40.5623917" lon="8.7038967"><ele>568.0</ele><time>2026-04-19T14:36:18.441Z</time></trkpt><trkpt lat="40.5624133" lon="8.703805"><ele>568.0</ele><time>2026-04-19T14:36:19.441Z</time></trkpt><trkpt lat="40.562435" lon="8.70371"><ele>568.0</ele><time>2026-04-19T14:36:20.441Z</time></trkpt><trkpt lat="40.5624567" lon="8.7036217"><ele>568.0</ele><time>2026-04-19T14:36:21.442Z</time></trkpt><trkpt lat="40.56249" lon="8.703535"><ele>568.0</ele><time>2026-04-19T14:36:22.441Z</time></trkpt><trkpt lat="40.5625217" lon="8.70345"><ele>568.0</ele><time>2026-04-19T14:36:23.441Z</time></trkpt><trkpt lat="40.5625717" lon="8.7033067"><ele>568.0</ele><time>2026-04-19T14:36:25.442Z</time></trkpt><trkpt lat="40.5626017" lon="8.7031883"><ele>568.8</ele><time>2026-04-19T14:36:27.442Z</time></trkpt><trkpt lat="40.5626033" lon="8.7030583"><ele>569.5999999999999</ele><time>2026-04-19T14:36:29.442Z</time></trkpt><trkpt lat="40.562575" lon="8.7029217"><ele>570.4000000000001</ele><time>2026-04-19T14:36:31.441Z</time></trkpt><trkpt lat="40.5625283" lon="8.7027817"><ele>571.2</ele><time>2026-04-19T14:36:33.442Z</time></trkpt><trkpt lat="40.562505" lon="8.7027033"><ele>572.0</ele><time>2026-04-19T14:36:34.441Z</time></trkpt><trkpt lat="40.5624833" lon="8.702555"><ele>572.0</ele><time>2026-04-19T14:36:36.441Z</time></trkpt><trkpt lat="40.56249" lon="8.7024717"><ele>572.0</ele><time>2026-04-19T14:36:37.442Z</time></trkpt><trkpt lat="40.5624983" lon="8.7023867"><ele>572.0</ele><time>2026-04-19T14:36:38.442Z</time></trkpt><trkpt lat="40.5625183" lon="8.7022417"><ele>572.0</ele><time>2026-04-19T14:36:40.441Z</time></trkpt><trkpt lat="40.562535" lon="8.7021367"><ele>572.0</ele><time>2026-04-19T14:36:42.442Z</time></trkpt><trkpt lat="40.5624883" lon="8.70206"><ele>572.0</ele><time>2026-04-19T14:36:46.442Z</time></trkpt><trkpt lat="40.5624133" lon="8.702065"><ele>572.0</ele><time>2026-04-19T14:36:49.442Z</time></trkpt><trkpt lat="40.562375" lon="8.7021783"><ele>572.0</ele><time>2026-04-19T14:36:52.441Z</time></trkpt><trkpt lat="40.5623883" lon="8.7023417"><ele>572.0</ele><time>2026-04-19T14:36:54.442Z</time></trkpt><trkpt lat="40.562385" lon="8.70244"><ele>572.0</ele><time>2026-04-19T14:36:55.441Z</time></trkpt><trkpt lat="40.5623733" lon="8.7025483"><ele>572.0</ele><time>2026-04-19T14:36:56.441Z</time></trkpt><trkpt lat="40.5623683" lon="8.7026467"><ele>572.0</ele><time>2026-04-19T14:36:57.441Z</time></trkpt><trkpt lat="40.562375" lon="8.7027417"><ele>572.0</ele><time>2026-04-19T14:36:58.441Z</time></trkpt><trkpt lat="40.5624133" lon="8.70285"><ele>572.0</ele><time>2026-04-19T14:36:59.442Z</time></trkpt><trkpt lat="40.5624483" lon="8.7029567"><ele>572.0</ele><time>2026-04-19T14:37:00.441Z</time></trkpt><trkpt lat="40.5624633" lon="8.7030817"><ele>572.0</ele><time>2026-04-19T14:37:01.441Z</time></trkpt><trkpt lat="40.5624533" lon="8.7032133"><ele>572.0</ele><time>2026-04-19T14:37:02.442Z</time></trkpt><trkpt lat="40.5624283" lon="8.703345"><ele>572.0</ele><time>2026-04-19T14:37:03.441Z</time></trkpt><trkpt lat="40.5623933" lon="8.7034733"><ele>572.0</ele><time>2026-04-19T14:37:04.441Z</time></trkpt><trkpt lat="40.56236" lon="8.703595"><ele>572.0</ele><time>2026-04-19T14:37:05.442Z</time></trkpt><trkpt lat="40.5623267" lon="8.7037083"><ele>572.0</ele><time>2026-04-19T14:37:06.442Z</time></trkpt><trkpt lat="40.562295" lon="8.7038183"><ele>572.0</ele><time>2026-04-19T14:37:07.442Z</time></trkpt><trkpt lat="40.5622667" lon="8.703925"><ele>571.3333333333333</ele><time>2026-04-19T14:37:08.442Z</time></trkpt><trkpt lat="40.562235" lon="8.7040317"><ele>570.6666666666666</ele><time>2026-04-19T14:37:09.442Z</time></trkpt><trkpt lat="40.5622067" lon="8.7041367"><ele>570.0</ele><time>2026-04-19T14:37:10.441Z</time></trkpt><trkpt lat="40.5621767" lon="8.7042367"><ele>569.3333333333334</ele><time>2026-04-19T14:37:11.441Z</time></trkpt><trkpt lat="40.5621517" lon="8.704335"><ele>568.6666666666667</ele><time>2026-04-19T14:37:12.441Z</time></trkpt><trkpt lat="40.5621283" lon="8.7044233"><ele>568.0</ele><time>2026-04-19T14:37:13.441Z</time></trkpt><trkpt lat="40.562105" lon="8.70451"><ele>568.7142857142857</ele><time>2026-04-19T14:37:14.442Z</time></trkpt><trkpt lat="40.5620717" lon="8.7046"><ele>569.4285714285713</ele><time>2026-04-19T14:37:15.442Z</time></trkpt><trkpt lat="40.5620367" lon="8.70468"><ele>570.1428571428571</ele><time>2026-04-19T14:37:16.442Z</time></trkpt><trkpt lat="40.562" lon="8.7047517"><ele>570.8571428571429</ele><time>2026-04-19T14:37:17.442Z</time></trkpt><trkpt lat="40.5619717" lon="8.704835"><ele>571.5714285714287</ele><time>2026-04-19T14:37:18.442Z</time></trkpt><trkpt lat="40.56194" lon="8.7049283"><ele>572.2857142857143</ele><time>2026-04-19T14:37:19.441Z</time></trkpt><trkpt lat="40.561905" lon="8.7050317"><ele>573.0</ele><time>2026-04-19T14:37:20.442Z</time></trkpt><trkpt lat="40.56188" lon="8.705145"><ele>572.0</ele><time>2026-04-19T14:37:21.442Z</time></trkpt><trkpt lat="40.5618617" lon="8.705275"><ele>571.0</ele><time>2026-04-19T14:37:22.441Z</time></trkpt><trkpt lat="40.56185" lon="8.7054117"><ele>570.0</ele><time>2026-04-19T14:37:23.442Z</time></trkpt><trkpt lat="40.5618367" lon="8.70555"><ele>569.0</ele><time>2026-04-19T14:37:24.441Z</time></trkpt><trkpt lat="40.56182" lon="8.7056883"><ele>568.0</ele><time>2026-04-19T14:37:25.441Z</time></trkpt><trkpt lat="40.561805" lon="8.70583"><ele>568.0</ele><time>2026-04-19T14:37:26.441Z</time></trkpt><trkpt lat="40.5617817" lon="8.705965"><ele>568.0</ele><time>2026-04-19T14:37:27.441Z</time></trkpt><trkpt lat="40.561755" lon="8.706095"><ele>568.0</ele><time>2026-04-19T14:37:28.441Z</time></trkpt><trkpt lat="40.5617283" lon="8.7062167"><ele>568.0</ele><time>2026-04-19T14:37:29.442Z</time></trkpt><trkpt lat="40.5617067" lon="8.7063267"><ele>568.0</ele><time>2026-04-19T14:37:30.441Z</time></trkpt><trkpt lat="40.5616817" lon="8.7064267"><ele>567.0</ele><time>2026-04-19T14:37:31.442Z</time></trkpt><trkpt lat="40.5616433" lon="8.70651"><ele>566.0</ele><time>2026-04-19T14:37:32.441Z</time></trkpt><trkpt lat="40.561605" lon="8.7065783"><ele>565.0</ele><time>2026-04-19T14:37:33.441Z</time></trkpt><trkpt lat="40.5615533" lon="8.7066283"><ele>564.0</ele><time>2026-04-19T14:37:34.442Z</time></trkpt><trkpt lat="40.5614783" lon="8.7066733"><ele>563.0</ele><time>2026-04-19T14:37:35.441Z</time></trkpt><trkpt lat="40.56138" lon="8.7067217"><ele>562.0</ele><time>2026-04-19T14:37:36.441Z</time></trkpt><trkpt lat="40.56129" lon="8.7067483"><ele>562.0</ele><time>2026-04-19T14:37:37.441Z</time></trkpt><trkpt lat="40.5612133" lon="8.7067883"><ele>562.0</ele><time>2026-04-19T14:37:38.441Z</time></trkpt><trkpt lat="40.5611417" lon="8.7068433"><ele>562.0</ele><time>2026-04-19T14:37:39.441Z</time></trkpt><trkpt lat="40.5610817" lon="8.7069117"><ele>562.0</ele><time>2026-04-19T14:37:40.442Z</time></trkpt><trkpt lat="40.5610367" lon="8.706985"><ele>562.0</ele><time>2026-04-19T14:37:41.442Z</time></trkpt><trkpt lat="40.5610033" lon="8.7070783"><ele>562.0</ele><time>2026-04-19T14:37:42.442Z</time></trkpt><trkpt lat="40.5609717" lon="8.7071983"><ele>561.6</ele><time>2026-04-19T14:37:43.442Z</time></trkpt><trkpt lat="40.56093" lon="8.707335"><ele>561.2</ele><time>2026-04-19T14:37:44.441Z</time></trkpt><trkpt lat="40.56089" lon="8.707475"><ele>560.8</ele><time>2026-04-19T14:37:45.441Z</time></trkpt><trkpt lat="40.560855" lon="8.707615"><ele>560.4</ele><time>2026-04-19T14:37:46.441Z</time></trkpt><trkpt lat="40.5608267" lon="8.7077533"><ele>560.0</ele><time>2026-04-19T14:37:47.442Z</time></trkpt><trkpt lat="40.5608067" lon="8.7078817"><ele>559.3333333333333</ele><time>2026-04-19T14:37:48.441Z</time></trkpt><trkpt lat="40.56079" lon="8.708015"><ele>558.6666666666666</ele><time>2026-04-19T14:37:49.441Z</time></trkpt><trkpt lat="40.5607867" lon="8.708135"><ele>558.0</ele><time>2026-04-19T14:37:50.441Z</time></trkpt><trkpt lat="40.5607867" lon="8.7082533"><ele>557.3333333333334</ele><time>2026-04-19T14:37:51.441Z</time></trkpt><trkpt lat="40.5607817" lon="8.7083633"><ele>556.6666666666667</ele><time>2026-04-19T14:37:52.442Z</time></trkpt><trkpt lat="40.5607667" lon="8.7084617"><ele>556.0</ele><time>2026-04-19T14:37:53.441Z</time></trkpt><trkpt lat="40.5607333" lon="8.70856"><ele>554.4</ele><time>2026-04-19T14:37:54.442Z</time></trkpt><trkpt lat="40.5606867" lon="8.708665"><ele>552.8</ele><time>2026-04-19T14:37:55.442Z</time></trkpt><trkpt lat="40.56064" lon="8.7087833"><ele>551.1999999999999</ele><time>2026-04-19T14:37:56.442Z</time></trkpt><trkpt lat="40.5605867" lon="8.7089083"><ele>549.6</ele><time>2026-04-19T14:37:57.442Z</time></trkpt><trkpt lat="40.5605333" lon="8.7090333"><ele>548.0</ele><time>2026-04-19T14:37:58.441Z</time></trkpt><trkpt lat="40.5604867" lon="8.709155"><ele>548.0</ele><time>2026-04-19T14:37:59.441Z</time></trkpt><trkpt lat="40.5604467" lon="8.7092783"><ele>548.0</ele><time>2026-04-19T14:38:00.442Z</time></trkpt><trkpt lat="40.5604067" lon="8.7093883"><ele>548.0</ele><time>2026-04-19T14:38:01.441Z</time></trkpt><trkpt lat="40.5603783" lon="8.7094883"><ele>548.0</ele><time>2026-04-19T14:38:02.442Z</time></trkpt><trkpt lat="40.5603517" lon="8.7095883"><ele>548.0</ele><time>2026-04-19T14:38:03.441Z</time></trkpt><trkpt lat="40.5603233" lon="8.709685"><ele>548.0</ele><time>2026-04-19T14:38:04.442Z</time></trkpt><trkpt lat="40.5602967" lon="8.7097767"><ele>547.5714285714287</ele><time>2026-04-19T14:38:05.442Z</time></trkpt><trkpt lat="40.56027" lon="8.7098683"><ele>547.1428571428571</ele><time>2026-04-19T14:38:06.441Z</time></trkpt><trkpt lat="40.5602383" lon="8.7099533"><ele>546.7142857142858</ele><time>2026-04-19T14:38:07.442Z</time></trkpt><trkpt lat="40.5602" lon="8.7100383"><ele>546.2857142857143</ele><time>2026-04-19T14:38:08.441Z</time></trkpt><trkpt lat="40.5601633" lon="8.7101233"><ele>545.8571428571429</ele><time>2026-04-19T14:38:09.442Z</time></trkpt><trkpt lat="40.560125" lon="8.7102083"><ele>545.4285714285714</ele><time>2026-04-19T14:38:10.441Z</time></trkpt><trkpt lat="40.560095" lon="8.7102817"><ele>545.0</ele><time>2026-04-19T14:38:11.442Z</time></trkpt><trkpt lat="40.5600833" lon="8.71043"><ele>544.1666666666666</ele><time>2026-04-19T14:38:13.442Z</time></trkpt><trkpt lat="40.5601083" lon="8.7105067"><ele>543.3333333333333</ele><time>2026-04-19T14:38:14.442Z</time></trkpt><trkpt lat="40.5601533" lon="8.7105967"><ele>542.5</ele><time>2026-04-19T14:38:15.441Z</time></trkpt><trkpt lat="40.5601967" lon="8.71069"><ele>541.6666666666666</ele><time>2026-04-19T14:38:16.442Z</time></trkpt><trkpt lat="40.5602283" lon="8.7107817"><ele>540.8333333333334</ele><time>2026-04-19T14:38:17.441Z</time></trkpt><trkpt lat="40.560255" lon="8.7108733"><ele>540.0</ele><time>2026-04-19T14:38:18.441Z</time></trkpt><trkpt lat="40.560285" lon="8.7109767"><ele>538.8</ele><time>2026-04-19T14:38:19.442Z</time></trkpt><trkpt lat="40.5603233" lon="8.7110917"><ele>537.6</ele><time>2026-04-19T14:38:20.441Z</time></trkpt><trkpt lat="40.560375" lon="8.711225"><ele>536.4</ele><time>2026-04-19T14:38:21.441Z</time></trkpt><trkpt lat="40.5604283" lon="8.711365"><ele>535.2</ele><time>2026-04-19T14:38:22.441Z</time></trkpt><trkpt lat="40.560475" lon="8.711495"><ele>534.0</ele><time>2026-04-19T14:38:23.442Z</time></trkpt><trkpt lat="40.5605133" lon="8.7116183"><ele>534.0</ele><time>2026-04-19T14:38:24.441Z</time></trkpt><trkpt lat="40.5605517" lon="8.7117283"><ele>534.0</ele><time>2026-04-19T14:38:25.442Z</time></trkpt><trkpt lat="40.56059" lon="8.7118283"><ele>534.0</ele><time>2026-04-19T14:38:26.442Z</time></trkpt><trkpt lat="40.5606317" lon="8.7119267"><ele>534.0</ele><time>2026-04-19T14:38:27.441Z</time></trkpt><trkpt lat="40.5606683" lon="8.7120217"><ele>534.0</ele><time>2026-04-19T14:38:28.441Z</time></trkpt><trkpt lat="40.5606967" lon="8.7121117"><ele>534.0</ele><time>2026-04-19T14:38:29.441Z</time></trkpt><trkpt lat="40.5607217" lon="8.7121933"><ele>533.0</ele><time>2026-04-19T14:38:30.441Z</time></trkpt><trkpt lat="40.5607433" lon="8.7122717"><ele>532.0</ele><time>2026-04-19T14:38:31.442Z</time></trkpt><trkpt lat="40.5607583" lon="8.7123533"><ele>531.0</ele><time>2026-04-19T14:38:32.441Z</time></trkpt><trkpt lat="40.560795" lon="8.712505"><ele>530.0</ele><time>2026-04-19T14:38:34.441Z</time></trkpt><trkpt lat="40.5608333" lon="8.7125817"><ele>529.0</ele><time>2026-04-19T14:38:35.441Z</time></trkpt><trkpt lat="40.5608833" lon="8.71267"><ele>528.0</ele><time>2026-04-19T14:38:36.441Z</time></trkpt><trkpt lat="40.560925" lon="8.7127583"><ele>526.8333333333334</ele><time>2026-04-19T14:38:37.441Z</time></trkpt><trkpt lat="40.5609717" lon="8.7128483"><ele>525.6666666666666</ele><time>2026-04-19T14:38:38.441Z</time></trkpt><trkpt lat="40.5610033" lon="8.71294"><ele>524.5</ele><time>2026-04-19T14:38:39.441Z</time></trkpt><trkpt lat="40.5610433" lon="8.7130383"><ele>523.3333333333333</ele><time>2026-04-19T14:38:40.441Z</time></trkpt><trkpt lat="40.5610717" lon="8.713125"><ele>522.1666666666666</ele><time>2026-04-19T14:38:41.441Z</time></trkpt><trkpt lat="40.5611" lon="8.713215"><ele>521.0</ele><time>2026-04-19T14:38:42.442Z</time></trkpt><trkpt lat="40.5611317" lon="8.7133083"><ele>521.0</ele><time>2026-04-19T14:38:43.441Z</time></trkpt><trkpt lat="40.56116" lon="8.7134117"><ele>521.0</ele><time>2026-04-19T14:38:44.441Z</time></trkpt><trkpt lat="40.5611783" lon="8.7135117"><ele>521.0</ele><time>2026-04-19T14:38:45.441Z</time></trkpt><trkpt lat="40.56119" lon="8.7136367"><ele>521.0</ele><time>2026-04-19T14:38:46.441Z</time></trkpt><trkpt lat="40.561195" lon="8.7137717"><ele>521.0</ele><time>2026-04-19T14:38:47.441Z</time></trkpt><trkpt lat="40.5612017" lon="8.7139267"><ele>520.6</ele><time>2026-04-19T14:38:48.442Z</time></trkpt><trkpt lat="40.561205" lon="8.7140817"><ele>520.2</ele><time>2026-04-19T14:38:49.442Z</time></trkpt><trkpt lat="40.5612" lon="8.714235"><ele>519.8</ele><time>2026-04-19T14:38:50.441Z</time></trkpt><trkpt lat="40.561195" lon="8.71438"><ele>519.4</ele><time>2026-04-19T14:38:51.441Z</time></trkpt><trkpt lat="40.5611983" lon="8.7145117"><ele>519.0</ele><time>2026-04-19T14:38:52.441Z</time></trkpt><trkpt lat="40.5612117" lon="8.7146417"><ele>517.6</ele><time>2026-04-19T14:38:53.442Z</time></trkpt><trkpt lat="40.561225" lon="8.7147717"><ele>516.2</ele><time>2026-04-19T14:38:54.441Z</time></trkpt><trkpt lat="40.5612367" lon="8.714895"><ele>514.8000000000001</ele><time>2026-04-19T14:38:55.441Z</time></trkpt><trkpt lat="40.5612533" lon="8.7150117"><ele>513.4</ele><time>2026-04-19T14:38:56.441Z</time></trkpt><trkpt lat="40.5612717" lon="8.71512"><ele>512.0</ele><time>2026-04-19T14:38:57.442Z</time></trkpt><trkpt lat="40.5612967" lon="8.715235"><ele>511.20000000000005</ele><time>2026-04-19T14:38:58.442Z</time></trkpt><trkpt lat="40.561325" lon="8.71535"><ele>510.40000000000003</ele><time>2026-04-19T14:38:59.441Z</time></trkpt><trkpt lat="40.561355" lon="8.715465"><ele>509.59999999999997</ele><time>2026-04-19T14:39:00.442Z</time></trkpt><trkpt lat="40.5613867" lon="8.7155833"><ele>508.79999999999995</ele><time>2026-04-19T14:39:01.441Z</time></trkpt><trkpt lat="40.561425" lon="8.7156917"><ele>508.0</ele><time>2026-04-19T14:39:02.442Z</time></trkpt><trkpt lat="40.5614683" lon="8.7157983"><ele>508.00000000000006</ele><time>2026-04-19T14:39:03.441Z</time></trkpt><trkpt lat="40.5614967" lon="8.7158933"><ele>508.0</ele><time>2026-04-19T14:39:04.441Z</time></trkpt><trkpt lat="40.5615133" lon="8.7159933"><ele>508.0</ele><time>2026-04-19T14:39:05.442Z</time></trkpt><trkpt lat="40.56152" lon="8.7160983"><ele>508.0</ele><time>2026-04-19T14:39:06.441Z</time></trkpt><trkpt lat="40.5615283" lon="8.71622"><ele>508.00000000000006</ele><time>2026-04-19T14:39:07.441Z</time></trkpt><trkpt lat="40.56153" lon="8.716345"><ele>508.0</ele><time>2026-04-19T14:39:08.441Z</time></trkpt><trkpt lat="40.5615283" lon="8.7164717"><ele>506.79999999999995</ele><time>2026-04-19T14:39:09.441Z</time></trkpt><trkpt lat="40.5615383" lon="8.7165933"><ele>505.59999999999997</ele><time>2026-04-19T14:39:10.442Z</time></trkpt><trkpt lat="40.5615467" lon="8.7167167"><ele>504.40000000000003</ele><time>2026-04-19T14:39:11.441Z</time></trkpt><trkpt lat="40.5615533" lon="8.716845"><ele>503.20000000000005</ele><time>2026-04-19T14:39:12.441Z</time></trkpt><trkpt lat="40.5615533" lon="8.7169633"><ele>502.0</ele><time>2026-04-19T14:39:13.441Z</time></trkpt><trkpt lat="40.561555" lon="8.7170733"><ele>501.33333333333337</ele><time>2026-04-19T14:39:14.442Z</time></trkpt><trkpt lat="40.5615567" lon="8.7171767"><ele>500.6666666666667</ele><time>2026-04-19T14:39:15.441Z</time></trkpt><trkpt lat="40.5615517" lon="8.71727"><ele>500.0</ele><time>2026-04-19T14:39:16.441Z</time></trkpt><trkpt lat="40.5615283" lon="8.71744"><ele>499.33333333333337</ele><time>2026-04-19T14:39:18.441Z</time></trkpt><trkpt lat="40.5615" lon="8.7175233"><ele>498.6666666666667</ele><time>2026-04-19T14:39:19.442Z</time></trkpt><trkpt lat="40.5614667" lon="8.7176033"><ele>498.0</ele><time>2026-04-19T14:39:20.442Z</time></trkpt><trkpt lat="40.5614183" lon="8.7176783"><ele>497.1666666666667</ele><time>2026-04-19T14:39:21.442Z</time></trkpt><trkpt lat="40.5613517" lon="8.7177583"><ele>496.33333333333337</ele><time>2026-04-19T14:39:22.441Z</time></trkpt><trkpt lat="40.56129" lon="8.7178417"><ele>495.5</ele><time>2026-04-19T14:39:23.441Z</time></trkpt><trkpt lat="40.5612383" lon="8.7179233"><ele>494.6666666666667</ele><time>2026-04-19T14:39:24.44Z</time></trkpt><trkpt lat="40.5611983" lon="8.718005"><ele>493.83333333333337</ele><time>2026-04-19T14:39:25.44Z</time></trkpt><trkpt lat="40.5611667" lon="8.7181067"><ele>493.0</ele><time>2026-04-19T14:39:26.44Z</time></trkpt><trkpt lat="40.561145" lon="8.7182367"><ele>492.79999999999995</ele><time>2026-04-19T14:39:27.44Z</time></trkpt><trkpt lat="40.5611283" lon="8.7183717"><ele>492.59999999999997</ele><time>2026-04-19T14:39:28.441Z</time></trkpt><trkpt lat="40.56111" lon="8.7184917"><ele>492.40000000000003</ele><time>2026-04-19T14:39:29.44Z</time></trkpt><trkpt lat="40.56109" lon="8.7186083"><ele>492.20000000000005</ele><time>2026-04-19T14:39:30.44Z</time></trkpt><trkpt lat="40.5610617" lon="8.7187283"><ele>492.0</ele><time>2026-04-19T14:39:31.44Z</time></trkpt><trkpt lat="40.5610383" lon="8.7188433"><ele>490.20000000000005</ele><time>2026-04-19T14:39:32.44Z</time></trkpt><trkpt lat="40.5610033" lon="8.71895"><ele>488.40000000000003</ele><time>2026-04-19T14:39:33.441Z</time></trkpt><trkpt lat="40.5609617" lon="8.7190667"><ele>486.59999999999997</ele><time>2026-04-19T14:39:34.441Z</time></trkpt><trkpt lat="40.560925" lon="8.71918"><ele>484.79999999999995</ele><time>2026-04-19T14:39:35.441Z</time></trkpt><trkpt lat="40.5608967" lon="8.7192933"><ele>483.0</ele><time>2026-04-19T14:39:36.441Z</time></trkpt><trkpt lat="40.5608667" lon="8.719405"><ele>482.1666666666667</ele><time>2026-04-19T14:39:37.441Z</time></trkpt><trkpt lat="40.560845" lon="8.719505"><ele>481.33333333333337</ele><time>2026-04-19T14:39:38.441Z</time></trkpt><trkpt lat="40.5608167" lon="8.719595"><ele>480.5</ele><time>2026-04-19T14:39:39.44Z</time></trkpt><trkpt lat="40.5607767" lon="8.7196833"><ele>479.6666666666667</ele><time>2026-04-19T14:39:40.44Z</time></trkpt><trkpt lat="40.5607267" lon="8.7197683"><ele>478.83333333333337</ele><time>2026-04-19T14:39:41.441Z</time></trkpt><trkpt lat="40.5606733" lon="8.7198517"><ele>478.0</ele><time>2026-04-19T14:39:42.44Z</time></trkpt><trkpt lat="40.5606117" lon="8.7199417"><ele>478.0</ele><time>2026-04-19T14:39:43.441Z</time></trkpt><trkpt lat="40.5605583" lon="8.720045"><ele>477.99999999999994</ele><time>2026-04-19T14:39:44.44Z</time></trkpt><trkpt lat="40.5605117" lon="8.7201483"><ele>477.99999999999994</ele><time>2026-04-19T14:39:45.44Z</time></trkpt><trkpt lat="40.5604717" lon="8.7202567"><ele>478.0</ele><time>2026-04-19T14:39:46.44Z</time></trkpt><trkpt lat="40.5604417" lon="8.7203733"><ele>478.0</ele><time>2026-04-19T14:39:47.44Z</time></trkpt><trkpt lat="40.5604067" lon="8.7204883"><ele>475.6666666666667</ele><time>2026-04-19T14:39:48.441Z</time></trkpt><trkpt lat="40.5603633" lon="8.7205933"><ele>473.33333333333337</ele><time>2026-04-19T14:39:49.441Z</time></trkpt><trkpt lat="40.5603217" lon="8.720695"><ele>471.0</ele><time>2026-04-19T14:39:50.441Z</time></trkpt><trkpt lat="40.56029" lon="8.7207967"><ele>468.66666666666663</ele><time>2026-04-19T14:39:51.441Z</time></trkpt><trkpt lat="40.5602733" lon="8.720895"><ele>466.3333333333333</ele><time>2026-04-19T14:39:52.44Z</time></trkpt><trkpt lat="40.56025" lon="8.7209917"><ele>464.0</ele><time>2026-04-19T14:39:53.441Z</time></trkpt><trkpt lat="40.56022" lon="8.7210883"><ele>462.49999999999994</ele><time>2026-04-19T14:39:54.44Z</time></trkpt><trkpt lat="40.5601883" lon="8.7211917"><ele>461.0</ele><time>2026-04-19T14:39:55.44Z</time></trkpt><trkpt lat="40.5601617" lon="8.7212983"><ele>459.5</ele><time>2026-04-19T14:39:56.44Z</time></trkpt><trkpt lat="40.5601417" lon="8.72141"><ele>458.0</ele><time>2026-04-19T14:39:57.441Z</time></trkpt><trkpt lat="40.5601233" lon="8.72152"><ele>456.49999999999994</ele><time>2026-04-19T14:39:58.441Z</time></trkpt><trkpt lat="40.5600967" lon="8.721625"><ele>455.0</ele><time>2026-04-19T14:39:59.441Z</time></trkpt><trkpt lat="40.56007" lon="8.7217383"><ele>455.0</ele><time>2026-04-19T14:40:00.441Z</time></trkpt><trkpt lat="40.560035" lon="8.72186"><ele>455.0</ele><time>2026-04-19T14:40:01.441Z</time></trkpt><trkpt lat="40.56" lon="8.72197"><ele>455.0</ele><time>2026-04-19T14:40:02.44Z</time></trkpt><trkpt lat="40.5599683" lon="8.7220933"><ele>455.0</ele><time>2026-04-19T14:40:03.441Z</time></trkpt><trkpt lat="40.5599283" lon="8.72221"><ele>455.0</ele><time>2026-04-19T14:40:04.441Z</time></trkpt><trkpt lat="40.5598983" lon="8.7223217"><ele>453.49999999999994</ele><time>2026-04-19T14:40:05.441Z</time></trkpt><trkpt lat="40.5598783" lon="8.7224333"><ele>452.0</ele><time>2026-04-19T14:40:06.44Z</time></trkpt><trkpt lat="40.55987" lon="8.7225367"><ele>450.5</ele><time>2026-04-19T14:40:07.441Z</time></trkpt><trkpt lat="40.55986" lon="8.72264"><ele>449.0</ele><time>2026-04-19T14:40:08.44Z</time></trkpt><trkpt lat="40.559855" lon="8.7227267"><ele>447.49999999999994</ele><time>2026-04-19T14:40:09.44Z</time></trkpt><trkpt lat="40.5598417" lon="8.7228233"><ele>446.0</ele><time>2026-04-19T14:40:10.441Z</time></trkpt><trkpt lat="40.559825" lon="8.722915"><ele>445.57142857142856</ele><time>2026-04-19T14:40:11.441Z</time></trkpt><trkpt lat="40.5598083" lon="8.723005"><ele>445.1428571428571</ele><time>2026-04-19T14:40:12.441Z</time></trkpt><trkpt lat="40.5597783" lon="8.7230867"><ele>444.7142857142857</ele><time>2026-04-19T14:40:13.441Z</time></trkpt><trkpt lat="40.5597383" lon="8.72317"><ele>444.2857142857143</ele><time>2026-04-19T14:40:14.44Z</time></trkpt><trkpt lat="40.5596933" lon="8.72326"><ele>443.8571428571429</ele><time>2026-04-19T14:40:15.44Z</time></trkpt><trkpt lat="40.5596517" lon="8.72335"><ele>443.42857142857144</ele><time>2026-04-19T14:40:16.44Z</time></trkpt><trkpt lat="40.559615" lon="8.7234233"><ele>443.0</ele><time>2026-04-19T14:40:17.44Z</time></trkpt><trkpt lat="40.5595767" lon="8.72349"><ele>443.0</ele><time>2026-04-19T14:40:18.44Z</time></trkpt><trkpt lat="40.55954" lon="8.72356"><ele>443.0</ele><time>2026-04-19T14:40:19.441Z</time></trkpt><trkpt lat="40.5594933" lon="8.7236333"><ele>443.0</ele><time>2026-04-19T14:40:20.44Z</time></trkpt><trkpt lat="40.5594467" lon="8.72371"><ele>443.0</ele><time>2026-04-19T14:40:21.441Z</time></trkpt><trkpt lat="40.55939" lon="8.72378"><ele>443.0</ele><time>2026-04-19T14:40:22.44Z</time></trkpt><trkpt lat="40.5593417" lon="8.7238567"><ele>443.0</ele><time>2026-04-19T14:40:23.441Z</time></trkpt><trkpt lat="40.5592967" lon="8.7239367"><ele>443.0</ele><time>2026-04-19T14:40:24.441Z</time></trkpt><trkpt lat="40.5592517" lon="8.7240267"><ele>438.8333333333333</ele><time>2026-04-19T14:40:25.44Z</time></trkpt><trkpt lat="40.5592133" lon="8.7241167"><ele>434.66666666666663</ele><time>2026-04-19T14:40:26.441Z</time></trkpt><trkpt lat="40.5591717" lon="8.72422"><ele>430.5</ele><time>2026-04-19T14:40:27.44Z</time></trkpt><trkpt lat="40.5591433" lon="8.7243167"><ele>426.33333333333337</ele><time>2026-04-19T14:40:28.44Z</time></trkpt><trkpt lat="40.5591133" lon="8.72441"><ele>422.1666666666667</ele><time>2026-04-19T14:40:29.44Z</time></trkpt><trkpt lat="40.55909" lon="8.7245017"><ele>418.0</ele><time>2026-04-19T14:40:30.44Z</time></trkpt><trkpt lat="40.5590783" lon="8.724585"><ele>416.59999999999997</ele><time>2026-04-19T14:40:31.441Z</time></trkpt><trkpt lat="40.5590717" lon="8.7247483"><ele>415.2</ele><time>2026-04-19T14:40:33.441Z</time></trkpt><trkpt lat="40.55905" lon="8.7248783"><ele>413.8</ele><time>2026-04-19T14:40:35.44Z</time></trkpt><trkpt lat="40.559025" lon="8.7249883"><ele>412.4</ele><time>2026-04-19T14:40:37.441Z</time></trkpt><trkpt lat="40.5590233" lon="8.72511"><ele>411.0</ele><time>2026-04-19T14:40:39.44Z</time></trkpt><trkpt lat="40.559045" lon="8.7252683"><ele>409.0</ele><time>2026-04-19T14:40:41.44Z</time></trkpt><trkpt lat="40.5590767" lon="8.7254133"><ele>407.0</ele><time>2026-04-19T14:40:43.441Z</time></trkpt><trkpt lat="40.559055" lon="8.7255267"><ele>405.0</ele><time>2026-04-19T14:40:45.44Z</time></trkpt><trkpt lat="40.5589683" lon="8.725615"><ele>403.0</ele><time>2026-04-19T14:40:47.441Z</time></trkpt><trkpt lat="40.55886" lon="8.7256583"><ele>401.0</ele><time>2026-04-19T14:40:49.441Z</time></trkpt><trkpt lat="40.55876" lon="8.7257433"><ele>400.99999999999994</ele><time>2026-04-19T14:40:51.44Z</time></trkpt><trkpt lat="40.5587167" lon="8.7258917"><ele>401.0</ele><time>2026-04-19T14:40:53.44Z</time></trkpt><trkpt lat="40.5587117" lon="8.725985"><ele>401.0</ele><time>2026-04-19T14:40:54.44Z</time></trkpt><trkpt lat="40.5587167" lon="8.7260883"><ele>401.0</ele><time>2026-04-19T14:40:55.441Z</time></trkpt><trkpt lat="40.5587217" lon="8.7261917"><ele>400.99999999999994</ele><time>2026-04-19T14:40:56.44Z</time></trkpt><trkpt lat="40.5587167" lon="8.7263133"><ele>401.0</ele><time>2026-04-19T14:40:57.44Z</time></trkpt><trkpt lat="40.5587117" lon="8.7264467"><ele>400.4</ele><time>2026-04-19T14:40:58.44Z</time></trkpt><trkpt lat="40.5587117" lon="8.7265833"><ele>399.8</ele><time>2026-04-19T14:40:59.44Z</time></trkpt><trkpt lat="40.558715" lon="8.72671"><ele>399.2</ele><time>2026-04-19T14:41:00.44Z</time></trkpt><trkpt lat="40.5587133" lon="8.7268217"><ele>398.59999999999997</ele><time>2026-04-19T14:41:01.44Z</time></trkpt><trkpt lat="40.5587183" lon="8.7269417"><ele>398.0</ele><time>2026-04-19T14:41:03.441Z</time></trkpt><trkpt lat="40.55879" lon="8.727015"><ele>397.4</ele><time>2026-04-19T14:41:06.441Z</time></trkpt><trkpt lat="40.55885" lon="8.727145"><ele>396.79999999999995</ele><time>2026-04-19T14:41:08.441Z</time></trkpt><trkpt lat="40.5588783" lon="8.7272233"><ele>396.2</ele><time>2026-04-19T14:41:09.441Z</time></trkpt><trkpt lat="40.5589083" lon="8.7273217"><ele>395.6</ele><time>2026-04-19T14:41:10.44Z</time></trkpt><trkpt lat="40.55895" lon="8.7274233"><ele>395.0</ele><time>2026-04-19T14:41:11.441Z</time></trkpt><trkpt lat="40.559" lon="8.72755"><ele>395.0</ele><time>2026-04-19T14:41:12.44Z</time></trkpt><trkpt lat="40.5590417" lon="8.727665"><ele>395.0</ele><time>2026-04-19T14:41:13.441Z</time></trkpt><trkpt lat="40.55908" lon="8.7277867"><ele>395.0</ele><time>2026-04-19T14:41:14.44Z</time></trkpt><trkpt lat="40.5591117" lon="8.7279"><ele>395.0</ele><time>2026-04-19T14:41:15.44Z</time></trkpt><trkpt lat="40.5591533" lon="8.728"><ele>395.0</ele><time>2026-04-19T14:41:16.44Z</time></trkpt><trkpt lat="40.5592" lon="8.7280767"><ele>394.0</ele><time>2026-04-19T14:41:17.44Z</time></trkpt><trkpt lat="40.55927" lon="8.7281583"><ele>393.0</ele><time>2026-04-19T14:41:18.441Z</time></trkpt><trkpt lat="40.55934" lon="8.72823"><ele>392.0</ele><time>2026-04-19T14:41:19.44Z</time></trkpt><trkpt lat="40.559425" lon="8.728305"><ele>391.0</ele><time>2026-04-19T14:41:20.44Z</time></trkpt><trkpt lat="40.5595017" lon="8.7283767"><ele>390.0</ele><time>2026-04-19T14:41:21.44Z</time></trkpt><trkpt lat="40.5595767" lon="8.7284467"><ele>389.2</ele><time>2026-04-19T14:41:22.44Z</time></trkpt><trkpt lat="40.5596567" lon="8.7285183"><ele>388.4</ele><time>2026-04-19T14:41:23.44Z</time></trkpt><trkpt lat="40.5597283" lon="8.7286017"><ele>387.6</ele><time>2026-04-19T14:41:24.441Z</time></trkpt><trkpt lat="40.55981" lon="8.728685"><ele>386.8</ele><time>2026-04-19T14:41:25.44Z</time></trkpt><trkpt lat="40.5598833" lon="8.7287717"><ele>386.0</ele><time>2026-04-19T14:41:26.44Z</time></trkpt><trkpt lat="40.5599467" lon="8.728845"><ele>386.0</ele><time>2026-04-19T14:41:27.44Z</time></trkpt><trkpt lat="40.5600117" lon="8.72891"><ele>386.0</ele><time>2026-04-19T14:41:28.441Z</time></trkpt><trkpt lat="40.5600733" lon="8.728965"><ele>386.0</ele><time>2026-04-19T14:41:29.441Z</time></trkpt><trkpt lat="40.560135" lon="8.7290017"><ele>386.0</ele><time>2026-04-19T14:41:30.44Z</time></trkpt><trkpt lat="40.56024" lon="8.729025"><ele>386.0</ele><time>2026-04-19T14:41:32.44Z</time></trkpt><trkpt lat="40.5603583" lon="8.728975"><ele>385.3333333333333</ele><time>2026-04-19T14:41:34.44Z</time></trkpt><trkpt lat="40.5604267" lon="8.7289483"><ele>384.66666666666663</ele><time>2026-04-19T14:41:35.44Z</time></trkpt><trkpt lat="40.5605067" lon="8.7289217"><ele>384.0</ele><time>2026-04-19T14:41:36.441Z</time></trkpt><trkpt lat="40.5605933" lon="8.72891"><ele>383.3333333333333</ele><time>2026-04-19T14:41:37.441Z</time></trkpt><trkpt lat="40.56068" lon="8.7288983"><ele>382.66666666666663</ele><time>2026-04-19T14:41:38.44Z</time></trkpt><trkpt lat="40.5607783" lon="8.7288917"><ele>382.0</ele><time>2026-04-19T14:41:39.441Z</time></trkpt><trkpt lat="40.5608733" lon="8.7289017"><ele>382.0</ele><time>2026-04-19T14:41:40.441Z</time></trkpt><trkpt lat="40.5609783" lon="8.72891"><ele>382.0</ele><time>2026-04-19T14:41:41.44Z</time></trkpt><trkpt lat="40.56109" lon="8.7289267"><ele>382.0</ele><time>2026-04-19T14:41:42.44Z</time></trkpt><trkpt lat="40.5611967" lon="8.7289467"><ele>382.0</ele><time>2026-04-19T14:41:43.44Z</time></trkpt><trkpt lat="40.56129" lon="8.7289733"><ele>382.0</ele><time>2026-04-19T14:41:44.44Z</time></trkpt><trkpt lat="40.5613833" lon="8.7289967"><ele>381.6</ele><time>2026-04-19T14:41:45.441Z</time></trkpt><trkpt lat="40.56148" lon="8.72901"><ele>381.20000000000005</ele><time>2026-04-19T14:41:46.44Z</time></trkpt><trkpt lat="40.5615783" lon="8.7290217"><ele>380.8</ele><time>2026-04-19T14:41:47.44Z</time></trkpt><trkpt lat="40.5616717" lon="8.7290267"><ele>380.4</ele><time>2026-04-19T14:41:48.44Z</time></trkpt><trkpt lat="40.56176" lon="8.7290333"><ele>380.0</ele><time>2026-04-19T14:41:49.44Z</time></trkpt><trkpt lat="40.5618433" lon="8.7290367"><ele>380.0</ele><time>2026-04-19T14:41:50.44Z</time></trkpt><trkpt lat="40.5619167" lon="8.7290433"><ele>380.0</ele><time>2026-04-19T14:41:51.44Z</time></trkpt><trkpt lat="40.56204" lon="8.7290717"><ele>380.0</ele><time>2026-04-19T14:41:53.44Z</time></trkpt><trkpt lat="40.5621633" lon="8.72904"><ele>380.0</ele><time>2026-04-19T14:41:55.441Z</time></trkpt><trkpt lat="40.5622283" lon="8.7290067"><ele>380.0</ele><time>2026-04-19T14:41:56.441Z</time></trkpt><trkpt lat="40.562295" lon="8.7289633"><ele>379.33333333333337</ele><time>2026-04-19T14:41:57.44Z</time></trkpt><trkpt lat="40.5623617" lon="8.728935"><ele>378.6666666666667</ele><time>2026-04-19T14:41:58.44Z</time></trkpt><trkpt lat="40.5624283" lon="8.7289333"><ele>378.0</ele><time>2026-04-19T14:41:59.44Z</time></trkpt><trkpt lat="40.5625017" lon="8.7289567"><ele>377.3333333333333</ele><time>2026-04-19T14:42:00.441Z</time></trkpt><trkpt lat="40.56257" lon="8.7290183"><ele>376.66666666666663</ele><time>2026-04-19T14:42:01.441Z</time></trkpt><trkpt lat="40.562645" lon="8.7290733"><ele>376.0</ele><time>2026-04-19T14:42:02.44Z</time></trkpt><trkpt lat="40.56272" lon="8.7291083"><ele>376.0</ele><time>2026-04-19T14:42:03.441Z</time></trkpt><trkpt lat="40.5628017" lon="8.7291367"><ele>376.0</ele><time>2026-04-19T14:42:04.441Z</time></trkpt><trkpt lat="40.5628933" lon="8.7291467"><ele>376.0</ele><time>2026-04-19T14:42:05.44Z</time></trkpt><trkpt lat="40.5629833" lon="8.7291433"><ele>376.0</ele><time>2026-04-19T14:42:06.441Z</time></trkpt><trkpt lat="40.563065" lon="8.7291383"><ele>376.0</ele><time>2026-04-19T14:42:07.44Z</time></trkpt><trkpt lat="40.56314" lon="8.7291467"><ele>376.0</ele><time>2026-04-19T14:42:08.44Z</time></trkpt><trkpt lat="40.5632083" lon="8.72918"><ele>376.0</ele><time>2026-04-19T14:42:09.44Z</time></trkpt><trkpt lat="40.5632867" lon="8.72923"><ele>376.0</ele><time>2026-04-19T14:42:10.441Z</time></trkpt><trkpt lat="40.5633767" lon="8.72928"><ele>376.0</ele><time>2026-04-19T14:42:11.44Z</time></trkpt><trkpt lat="40.5634717" lon="8.7293267"><ele>376.0</ele><time>2026-04-19T14:42:12.44Z</time></trkpt><trkpt lat="40.5635667" lon="8.7293683"><ele>376.0</ele><time>2026-04-19T14:42:13.44Z</time></trkpt><trkpt lat="40.56365" lon="8.7294067"><ele>375.3333333333333</ele><time>2026-04-19T14:42:14.44Z</time></trkpt><trkpt lat="40.563725" lon="8.72943"><ele>374.66666666666663</ele><time>2026-04-19T14:42:15.44Z</time></trkpt><trkpt lat="40.5638183" lon="8.72947"><ele>374.0</ele><time>2026-04-19T14:42:17.441Z</time></trkpt><trkpt lat="40.5638867" lon="8.729515"><ele>373.3333333333333</ele><time>2026-04-19T14:42:19.44Z</time></trkpt><trkpt lat="40.56394" lon="8.7295667"><ele>372.6666666666667</ele><time>2026-04-19T14:42:21.441Z</time></trkpt><trkpt lat="40.5640233" lon="8.729605"><ele>372.0</ele><time>2026-04-19T14:42:23.441Z</time></trkpt><trkpt lat="40.5641383" lon="8.7296267"><ele>372.0</ele><time>2026-04-19T14:42:25.44Z</time></trkpt><trkpt lat="40.5642567" lon="8.72963"><ele>372.0</ele><time>2026-04-19T14:42:27.441Z</time></trkpt><trkpt lat="40.564385" lon="8.7296683"><ele>372.0</ele><time>2026-04-19T14:42:29.44Z</time></trkpt><trkpt lat="40.5644617" lon="8.7296867"><ele>372.0</ele><time>2026-04-19T14:42:30.441Z</time></trkpt><trkpt lat="40.5645267" lon="8.7297"><ele>372.0</ele><time>2026-04-19T14:42:31.44Z</time></trkpt><trkpt lat="40.56464" lon="8.7297283"><ele>372.40000000000003</ele><time>2026-04-19T14:42:33.441Z</time></trkpt><trkpt lat="40.5647133" lon="8.7298083"><ele>372.8</ele><time>2026-04-19T14:42:35.44Z</time></trkpt><trkpt lat="40.56479" lon="8.72988"><ele>373.2</ele><time>2026-04-19T14:42:37.44Z</time></trkpt><trkpt lat="40.5648983" lon="8.7299233"><ele>373.6</ele><time>2026-04-19T14:42:39.44Z</time></trkpt><trkpt lat="40.5649817" lon="8.7299133"><ele>374.0</ele><time>2026-04-19T14:42:41.44Z</time></trkpt><trkpt lat="40.5650417" lon="8.7298533"><ele>374.0</ele><time>2026-04-19T14:42:43.441Z</time></trkpt><trkpt lat="40.5651117" lon="8.729825"><ele>374.0</ele><time>2026-04-19T14:42:45.441Z</time></trkpt><trkpt lat="40.5651617" lon="8.7299183"><ele>374.0</ele><time>2026-04-19T14:42:48.44Z</time></trkpt><trkpt lat="40.5651583" lon="8.73009"><ele>374.0</ele><time>2026-04-19T14:42:50.441Z</time></trkpt><trkpt lat="40.5651717" lon="8.730255"><ele>374.0</ele><time>2026-04-19T14:42:52.44Z</time></trkpt><trkpt lat="40.565185" lon="8.7303367"><ele>373.5</ele><time>2026-04-19T14:42:53.441Z</time></trkpt><trkpt lat="40.565185" lon="8.73048"><ele>373.0</ele><time>2026-04-19T14:42:55.44Z</time></trkpt><trkpt lat="40.5652" lon="8.7305633"><ele>372.5</ele><time>2026-04-19T14:42:58.44Z</time></trkpt><trkpt lat="40.5653067" lon="8.730625"><ele>372.0</ele><time>2026-04-19T14:43:06.441Z</time></trkpt><trkpt lat="40.5653717" lon="8.7306633"><ele>371.5</ele><time>2026-04-19T14:43:07.44Z</time></trkpt><trkpt lat="40.5654517" lon="8.7307067"><ele>371.0</ele><time>2026-04-19T14:43:08.44Z</time></trkpt><trkpt lat="40.5655333" lon="8.7307567"><ele>371.0</ele><time>2026-04-19T14:43:09.44Z</time></trkpt><trkpt lat="40.56561" lon="8.730805"><ele>371.0</ele><time>2026-04-19T14:43:10.44Z</time></trkpt><trkpt lat="40.5656833" lon="8.730855"><ele>371.0</ele><time>2026-04-19T14:43:11.44Z</time></trkpt><trkpt lat="40.5657483" lon="8.7308933"><ele>371.0</ele><time>2026-04-19T14:43:12.44Z</time></trkpt><trkpt lat="40.56586" lon="8.7309917"><ele>371.0</ele><time>2026-04-19T14:43:14.44Z</time></trkpt><trkpt lat="40.5659183" lon="8.7310533"><ele>371.0</ele><time>2026-04-19T14:43:15.44Z</time></trkpt><trkpt lat="40.5660167" lon="8.7311267"><ele>370.0</ele><time>2026-04-19T14:43:17.441Z</time></trkpt><trkpt lat="40.56611" lon="8.7312067"><ele>369.0</ele><time>2026-04-19T14:43:19.44Z</time></trkpt><trkpt lat="40.5662" lon="8.731265"><ele>368.0</ele><time>2026-04-19T14:43:21.441Z</time></trkpt><trkpt lat="40.5662983" lon="8.731335"><ele>367.0</ele><time>2026-04-19T14:43:23.441Z</time></trkpt><trkpt lat="40.5663967" lon="8.7313883"><ele>366.0</ele><time>2026-04-19T14:43:25.44Z</time></trkpt><trkpt lat="40.5664917" lon="8.7314217"><ele>365.0</ele><time>2026-04-19T14:43:27.441Z</time></trkpt><trkpt lat="40.5665617" lon="8.7314183"><ele>364.0</ele><time>2026-04-19T14:43:28.44Z</time></trkpt><trkpt lat="40.56667" lon="8.731435"><ele>363.0</ele><time>2026-04-19T14:43:30.441Z</time></trkpt><trkpt lat="40.566775" lon="8.7314233"><ele>362.0</ele><time>2026-04-19T14:43:32.441Z</time></trkpt><trkpt lat="40.5669" lon="8.7314033"><ele>361.0</ele><time>2026-04-19T14:43:34.44Z</time></trkpt><trkpt lat="40.5670217" lon="8.731375"><ele>360.0</ele><time>2026-04-19T14:43:36.441Z</time></trkpt><trkpt lat="40.5671483" lon="8.731335"><ele>359.0</ele><time>2026-04-19T14:43:38.441Z</time></trkpt><trkpt lat="40.5672667" lon="8.731315"><ele>358.0</ele><time>2026-04-19T14:43:40.441Z</time></trkpt><trkpt lat="40.5673833" lon="8.7313233"><ele>357.0</ele><time>2026-04-19T14:43:42.441Z</time></trkpt><trkpt lat="40.5674917" lon="8.731315"><ele>357.0</ele><time>2026-04-19T14:43:44.441Z</time></trkpt><trkpt lat="40.5675933" lon="8.7312767"><ele>357.0</ele><time>2026-04-19T14:43:46.44Z</time></trkpt><trkpt lat="40.5676683" lon="8.7311933"><ele>357.0</ele><time>2026-04-19T14:43:48.44Z</time></trkpt><trkpt lat="40.567735" lon="8.7311567"><ele>357.0</ele><time>2026-04-19T14:43:50.44Z</time></trkpt><trkpt lat="40.5678167" lon="8.7311167"><ele>357.0</ele><time>2026-04-19T14:43:52.44Z</time></trkpt><trkpt lat="40.5679217" lon="8.7310533"><ele>356.6666666666667</ele><time>2026-04-19T14:43:54.44Z</time></trkpt><trkpt lat="40.5680467" lon="8.7309733"><ele>356.3333333333333</ele><time>2026-04-19T14:43:56.44Z</time></trkpt><trkpt lat="40.5681167" lon="8.7309417"><ele>356.0</ele><time>2026-04-19T14:43:57.441Z</time></trkpt><trkpt lat="40.5681783" lon="8.7309217"><ele>355.66666666666663</ele><time>2026-04-19T14:43:58.44Z</time></trkpt><trkpt lat="40.5682417" lon="8.7309017"><ele>355.3333333333333</ele><time>2026-04-19T14:43:59.44Z</time></trkpt><trkpt lat="40.5683033" lon="8.7308817"><ele>355.0</ele><time>2026-04-19T14:44:00.441Z</time></trkpt><trkpt lat="40.5683683" lon="8.7308517"><ele>355.0</ele><time>2026-04-19T14:44:01.44Z</time></trkpt><trkpt lat="40.5684383" lon="8.7308183"><ele>355.0</ele><time>2026-04-19T14:44:02.441Z</time></trkpt><trkpt lat="40.5684983" lon="8.7307883"><ele>355.0</ele><time>2026-04-19T14:44:03.44Z</time></trkpt><trkpt lat="40.5685617" lon="8.7307633"><ele>355.0</ele><time>2026-04-19T14:44:04.44Z</time></trkpt><trkpt lat="40.56862" lon="8.7307283"><ele>355.0</ele><time>2026-04-19T14:44:05.44Z</time></trkpt><trkpt lat="40.568685" lon="8.7306917"><ele>355.0</ele><time>2026-04-19T14:44:06.441Z</time></trkpt><trkpt lat="40.5687517" lon="8.7306567"><ele>355.0</ele><time>2026-04-19T14:44:07.44Z</time></trkpt><trkpt lat="40.56882" lon="8.7306133"><ele>355.66666666666663</ele><time>2026-04-19T14:44:08.44Z</time></trkpt><trkpt lat="40.5688967" lon="8.7305633"><ele>356.3333333333333</ele><time>2026-04-19T14:44:09.44Z</time></trkpt><trkpt lat="40.5689733" lon="8.7305033"><ele>357.0</ele><time>2026-04-19T14:44:10.44Z</time></trkpt><trkpt lat="40.5690583" lon="8.7304517"><ele>357.6666666666667</ele><time>2026-04-19T14:44:11.441Z</time></trkpt><trkpt lat="40.5691417" lon="8.730405"><ele>358.33333333333337</ele><time>2026-04-19T14:44:12.44Z</time></trkpt><trkpt lat="40.5692267" lon="8.7303683"><ele>359.0</ele><time>2026-04-19T14:44:13.441Z</time></trkpt><trkpt lat="40.56932" lon="8.7303367"><ele>359.0</ele><time>2026-04-19T14:44:14.44Z</time></trkpt><trkpt lat="40.569405" lon="8.7303067"><ele>359.0</ele><time>2026-04-19T14:44:15.44Z</time></trkpt><trkpt lat="40.5694683" lon="8.7302783"><ele>359.0</ele><time>2026-04-19T14:44:16.44Z</time></trkpt><trkpt lat="40.5695717" lon="8.7302317"><ele>359.0</ele><time>2026-04-19T14:44:18.44Z</time></trkpt><trkpt lat="40.569635" lon="8.7301967"><ele>359.0</ele><time>2026-04-19T14:44:19.44Z</time></trkpt><trkpt lat="40.5697067" lon="8.7301583"><ele>359.0</ele><time>2026-04-19T14:44:20.44Z</time></trkpt><trkpt lat="40.569775" lon="8.7301083"><ele>359.0</ele><time>2026-04-19T14:44:21.44Z</time></trkpt><trkpt lat="40.5698533" lon="8.7300467"><ele>359.0</ele><time>2026-04-19T14:44:22.44Z</time></trkpt><trkpt lat="40.5699433" lon="8.7299533"><ele>359.0</ele><time>2026-04-19T14:44:23.441Z</time></trkpt><trkpt lat="40.57003" lon="8.7298433"><ele>359.0</ele><time>2026-04-19T14:44:24.441Z</time></trkpt><trkpt lat="40.57011" lon="8.72975"><ele>359.0</ele><time>2026-04-19T14:44:25.44Z</time></trkpt><trkpt lat="40.570175" lon="8.7296683"><ele>359.0</ele><time>2026-04-19T14:44:26.441Z</time></trkpt><trkpt lat="40.5702317" lon="8.7296083"><ele>359.0</ele><time>2026-04-19T14:44:27.44Z</time></trkpt><trkpt lat="40.5702933" lon="8.72957"><ele>359.0</ele><time>2026-04-19T14:44:28.44Z</time></trkpt><trkpt lat="40.5704217" lon="8.7295217"><ele>359.0</ele><time>2026-04-19T14:44:30.44Z</time></trkpt><trkpt lat="40.57051" lon="8.7294833"><ele>359.0</ele><time>2026-04-19T14:44:31.44Z</time></trkpt><trkpt lat="40.5706183" lon="8.7294417"><ele>359.5</ele><time>2026-04-19T14:44:32.44Z</time></trkpt><trkpt lat="40.5707317" lon="8.7293767"><ele>360.0</ele><time>2026-04-19T14:44:33.441Z</time></trkpt><trkpt lat="40.57086" lon="8.7293083"><ele>360.5</ele><time>2026-04-19T14:44:34.441Z</time></trkpt><trkpt lat="40.5709967" lon="8.729265"><ele>361.0</ele><time>2026-04-19T14:44:35.44Z</time></trkpt><trkpt lat="40.5711317" lon="8.72922"><ele>366.0</ele><time>2026-04-19T14:44:36.441Z</time></trkpt><trkpt lat="40.57124" lon="8.7291633"><ele>371.0</ele><time>2026-04-19T14:44:37.441Z</time></trkpt><trkpt lat="40.5713367" lon="8.7290967"><ele>376.0</ele><time>2026-04-19T14:44:38.44Z</time></trkpt><trkpt lat="40.5714367" lon="8.7290167"><ele>381.0</ele><time>2026-04-19T14:44:39.441Z</time></trkpt><trkpt lat="40.571535" lon="8.72893"><ele>381.0</ele><time>2026-04-19T14:44:40.44Z</time></trkpt><trkpt lat="40.571625" lon="8.728855"><ele>381.0</ele><time>2026-04-19T14:44:41.441Z</time></trkpt><trkpt lat="40.571695" lon="8.7287867"><ele>381.0</ele><time>2026-04-19T14:44:42.44Z</time></trkpt><trkpt lat="40.5717567" lon="8.728705"><ele>381.0</ele><time>2026-04-19T14:44:43.44Z</time></trkpt><trkpt lat="40.571795" lon="8.7286033"><ele>381.0</ele><time>2026-04-19T14:44:44.44Z</time></trkpt><trkpt lat="40.571835" lon="8.7285017"><ele>381.6</ele><time>2026-04-19T14:44:45.44Z</time></trkpt><trkpt lat="40.5718817" lon="8.7284167"><ele>382.20000000000005</ele><time>2026-04-19T14:44:46.44Z</time></trkpt><trkpt lat="40.571985" lon="8.72833"><ele>382.79999999999995</ele><time>2026-04-19T14:44:48.44Z</time></trkpt><trkpt lat="40.5720583" lon="8.7283117"><ele>383.4</ele><time>2026-04-19T14:44:49.44Z</time></trkpt><trkpt lat="40.57214" lon="8.7283067"><ele>384.0</ele><time>2026-04-19T14:44:50.44Z</time></trkpt><trkpt lat="40.5722433" lon="8.7283"><ele>384.0</ele><time>2026-04-19T14:44:51.44Z</time></trkpt><trkpt lat="40.57235" lon="8.7282883"><ele>384.0</ele><time>2026-04-19T14:44:52.44Z</time></trkpt><trkpt lat="40.57246" lon="8.7282717"><ele>384.0</ele><time>2026-04-19T14:44:53.44Z</time></trkpt><trkpt lat="40.5725667" lon="8.7282483"><ele>384.0</ele><time>2026-04-19T14:44:54.441Z</time></trkpt><trkpt lat="40.572675" lon="8.7282333"><ele>384.0</ele><time>2026-04-19T14:44:55.44Z</time></trkpt><trkpt lat="40.5727683" lon="8.728205"><ele>386.79999999999995</ele><time>2026-04-19T14:44:56.44Z</time></trkpt><trkpt lat="40.5728617" lon="8.7281667"><ele>389.59999999999997</ele><time>2026-04-19T14:44:57.441Z</time></trkpt><trkpt lat="40.57295" lon="8.728125"><ele>392.4</ele><time>2026-04-19T14:44:58.441Z</time></trkpt><trkpt lat="40.5730367" lon="8.7280817"><ele>395.2</ele><time>2026-04-19T14:44:59.441Z</time></trkpt><trkpt lat="40.57311" lon="8.7280183"><ele>398.0</ele><time>2026-04-19T14:45:00.44Z</time></trkpt><trkpt lat="40.5731717" lon="8.727935"><ele>397.99999999999994</ele><time>2026-04-19T14:45:01.441Z</time></trkpt><trkpt lat="40.5732267" lon="8.727845"><ele>398.0</ele><time>2026-04-19T14:45:02.44Z</time></trkpt><trkpt lat="40.5732817" lon="8.7277667"><ele>398.0</ele><time>2026-04-19T14:45:03.44Z</time></trkpt><trkpt lat="40.5733317" lon="8.727695"><ele>398.0</ele><time>2026-04-19T14:45:04.44Z</time></trkpt><trkpt lat="40.5734017" lon="8.7275817"><ele>397.99999999999994</ele><time>2026-04-19T14:45:06.441Z</time></trkpt><trkpt lat="40.5734617" lon="8.7274983"><ele>398.0</ele><time>2026-04-19T14:45:21.441Z</time></trkpt><trkpt lat="40.5735467" lon="8.7274"><ele>398.49999999999994</ele><time>2026-04-19T14:45:23.441Z</time></trkpt><trkpt lat="40.57363" lon="8.727305"><ele>399.0</ele><time>2026-04-19T14:45:25.44Z</time></trkpt><trkpt lat="40.5737017" lon="8.72726"><ele>399.5</ele><time>2026-04-19T14:45:27.44Z</time></trkpt><trkpt lat="40.5737667" lon="8.727285"><ele>400.0</ele><time>2026-04-19T14:45:30.44Z</time></trkpt><trkpt lat="40.57384" lon="8.7272633"><ele>400.49999999999994</ele><time>2026-04-19T14:45:33.44Z</time></trkpt><trkpt lat="40.573915" lon="8.72721"><ele>401.0</ele><time>2026-04-19T14:45:35.44Z</time></trkpt><trkpt lat="40.5740067" lon="8.72715"><ele>400.99999999999994</ele><time>2026-04-19T14:45:37.441Z</time></trkpt><trkpt lat="40.5741167" lon="8.727085"><ele>401.0</ele><time>2026-04-19T14:45:39.44Z</time></trkpt><trkpt lat="40.5741817" lon="8.7270683"><ele>401.0</ele><time>2026-04-19T14:45:40.441Z</time></trkpt><trkpt lat="40.574305" lon="8.727065"><ele>401.0</ele><time>2026-04-19T14:45:42.441Z</time></trkpt><trkpt lat="40.5743683" lon="8.7270933"><ele>400.99999999999994</ele><time>2026-04-19T14:45:44.441Z</time></trkpt><trkpt lat="40.5744333" lon="8.7271333"><ele>401.0</ele><time>2026-04-19T14:45:47.44Z</time></trkpt><trkpt lat="40.5745417" lon="8.7271417"><ele>401.66666666666663</ele><time>2026-04-19T14:45:49.441Z</time></trkpt><trkpt lat="40.574605" lon="8.727145"><ele>402.3333333333333</ele><time>2026-04-19T14:45:50.44Z</time></trkpt><trkpt lat="40.5747283" lon="8.7271783"><ele>403.0</ele><time>2026-04-19T14:45:52.441Z</time></trkpt><trkpt lat="40.5747917" lon="8.727195"><ele>403.66666666666663</ele><time>2026-04-19T14:45:53.44Z</time></trkpt><trkpt lat="40.5748583" lon="8.7272033"><ele>404.3333333333333</ele><time>2026-04-19T14:45:54.44Z</time></trkpt><trkpt lat="40.5749367" lon="8.7272167"><ele>405.0</ele><time>2026-04-19T14:45:55.44Z</time></trkpt><trkpt lat="40.575015" lon="8.7272083"><ele>405.0</ele><time>2026-04-19T14:45:56.441Z</time></trkpt><trkpt lat="40.5750967" lon="8.72721"><ele>405.0</ele><time>2026-04-19T14:45:57.441Z</time></trkpt><trkpt lat="40.5751783" lon="8.7272183"><ele>405.0</ele><time>2026-04-19T14:45:58.44Z</time></trkpt><trkpt lat="40.5752533" lon="8.727225"><ele>405.0</ele><time>2026-04-19T14:45:59.44Z</time></trkpt><trkpt lat="40.5753283" lon="8.72723"><ele>405.0</ele><time>2026-04-19T14:46:00.44Z</time></trkpt><trkpt lat="40.5753983" lon="8.7272317"><ele>405.0</ele><time>2026-04-19T14:46:01.44Z</time></trkpt><trkpt lat="40.5754717" lon="8.7272333"><ele>404.85714285714283</ele><time>2026-04-19T14:46:02.44Z</time></trkpt><trkpt lat="40.575545" lon="8.7272367"><ele>404.7142857142857</ele><time>2026-04-19T14:46:03.441Z</time></trkpt><trkpt lat="40.5756133" lon="8.7272333"><ele>404.57142857142856</ele><time>2026-04-19T14:46:04.441Z</time></trkpt><trkpt lat="40.5756783" lon="8.7272217"><ele>404.42857142857144</ele><time>2026-04-19T14:46:05.44Z</time></trkpt><trkpt lat="40.5757483" lon="8.7272"><ele>404.2857142857143</ele><time>2026-04-19T14:46:06.44Z</time></trkpt><trkpt lat="40.5758133" lon="8.7271783"><ele>404.1428571428571</ele><time>2026-04-19T14:46:07.44Z</time></trkpt><trkpt lat="40.5758783" lon="8.727155"><ele>404.0</ele><time>2026-04-19T14:46:08.44Z</time></trkpt><trkpt lat="40.575945" lon="8.7271283"><ele>403.99999999999994</ele><time>2026-04-19T14:46:09.44Z</time></trkpt><trkpt lat="40.576015" lon="8.727075"><ele>404.0</ele><time>2026-04-19T14:46:10.44Z</time></trkpt><trkpt lat="40.5760983" lon="8.7270133"><ele>404.0</ele><time>2026-04-19T14:46:11.44Z</time></trkpt><trkpt lat="40.576175" lon="8.726955"><ele>404.0</ele><time>2026-04-19T14:46:12.44Z</time></trkpt><trkpt lat="40.5762567" lon="8.7268933"><ele>403.99999999999994</ele><time>2026-04-19T14:46:13.441Z</time></trkpt><trkpt lat="40.576335" lon="8.726835"><ele>404.0</ele><time>2026-04-19T14:46:14.44Z</time></trkpt><trkpt lat="40.5764183" lon="8.72678"><ele>403.0</ele><time>2026-04-19T14:46:15.441Z</time></trkpt><trkpt lat="40.576505" lon="8.7267267"><ele>402.0</ele><time>2026-04-19T14:46:16.44Z</time></trkpt><trkpt lat="40.57659" lon="8.7266583"><ele>401.0</ele><time>2026-04-19T14:46:17.44Z</time></trkpt><trkpt lat="40.5766683" lon="8.726575"><ele>400.0</ele><time>2026-04-19T14:46:18.44Z</time></trkpt><trkpt lat="40.5767333" lon="8.726495"><ele>399.0</ele><time>2026-04-19T14:46:19.439Z</time></trkpt><trkpt lat="40.5768" lon="8.7263983"><ele>399.0</ele><time>2026-04-19T14:46:20.439Z</time></trkpt><trkpt lat="40.57686" lon="8.7262983"><ele>399.0</ele><time>2026-04-19T14:46:21.44Z</time></trkpt><trkpt lat="40.57692" lon="8.726195"><ele>399.0</ele><time>2026-04-19T14:46:22.44Z</time></trkpt><trkpt lat="40.57697" lon="8.7260983"><ele>399.0</ele><time>2026-04-19T14:46:23.439Z</time></trkpt><trkpt lat="40.5770217" lon="8.726005"><ele>399.0</ele><time>2026-04-19T14:46:24.439Z</time></trkpt><trkpt lat="40.5770683" lon="8.7259117"><ele>398.8333333333333</ele><time>2026-04-19T14:46:25.439Z</time></trkpt><trkpt lat="40.577115" lon="8.7258167"><ele>398.66666666666663</ele><time>2026-04-19T14:46:26.44Z</time></trkpt><trkpt lat="40.577165" lon="8.7257317"><ele>398.5</ele><time>2026-04-19T14:46:27.44Z</time></trkpt><trkpt lat="40.577215" lon="8.7256333"><ele>398.3333333333333</ele><time>2026-04-19T14:46:28.44Z</time></trkpt><trkpt lat="40.5772633" lon="8.7255367"><ele>398.16666666666663</ele><time>2026-04-19T14:46:29.439Z</time></trkpt><trkpt lat="40.577315" lon="8.725455"><ele>398.0</ele><time>2026-04-19T14:46:30.44Z</time></trkpt><trkpt lat="40.577365" lon="8.725375"><ele>397.99999999999994</ele><time>2026-04-19T14:46:31.439Z</time></trkpt><trkpt lat="40.577415" lon="8.7252817"><ele>398.0</ele><time>2026-04-19T14:46:32.439Z</time></trkpt><trkpt lat="40.5774733" lon="8.725195"><ele>398.0</ele><time>2026-04-19T14:46:33.439Z</time></trkpt><trkpt lat="40.5775283" lon="8.7251133"><ele>398.0</ele><time>2026-04-19T14:46:34.44Z</time></trkpt><trkpt lat="40.5775917" lon="8.72503"><ele>397.99999999999994</ele><time>2026-04-19T14:46:35.439Z</time></trkpt><trkpt lat="40.5776617" lon="8.7249633"><ele>398.0</ele><time>2026-04-19T14:46:36.439Z</time></trkpt><trkpt lat="40.5777383" lon="8.7248983"><ele>396.0</ele><time>2026-04-19T14:46:37.439Z</time></trkpt><trkpt lat="40.5778167" lon="8.7248383"><ele>394.0</ele><time>2026-04-19T14:46:38.44Z</time></trkpt><trkpt lat="40.5779033" lon="8.7247817"><ele>392.0</ele><time>2026-04-19T14:46:39.439Z</time></trkpt><trkpt lat="40.5779983" lon="8.7247433"><ele>390.0</ele><time>2026-04-19T14:46:40.44Z</time></trkpt><trkpt lat="40.578105" lon="8.7247033"><ele>388.0</ele><time>2026-04-19T14:46:41.44Z</time></trkpt><trkpt lat="40.5782017" lon="8.7246617"><ele>388.0</ele><time>2026-04-19T14:46:42.44Z</time></trkpt><trkpt lat="40.5783033" lon="8.7246217"><ele>388.0</ele><time>2026-04-19T14:46:43.439Z</time></trkpt><trkpt lat="40.5783983" lon="8.7245817"><ele>388.0</ele><time>2026-04-19T14:46:44.439Z</time></trkpt><trkpt lat="40.5784917" lon="8.7245467"><ele>388.0</ele><time>2026-04-19T14:46:45.44Z</time></trkpt><trkpt lat="40.5785683" lon="8.7245133"><ele>388.0</ele><time>2026-04-19T14:46:46.439Z</time></trkpt><trkpt lat="40.578655" lon="8.7244883"><ele>385.57142857142856</ele><time>2026-04-19T14:46:47.44Z</time></trkpt><trkpt lat="40.5787333" lon="8.7244683"><ele>383.14285714285717</ele><time>2026-04-19T14:46:48.44Z</time></trkpt><trkpt lat="40.578815" lon="8.7244467"><ele>380.7142857142857</ele><time>2026-04-19T14:46:49.44Z</time></trkpt><trkpt lat="40.5788883" lon="8.724425"><ele>378.2857142857143</ele><time>2026-04-19T14:46:50.439Z</time></trkpt><trkpt lat="40.5789567" lon="8.7244017"><ele>375.8571428571429</ele><time>2026-04-19T14:46:51.439Z</time></trkpt><trkpt lat="40.5790267" lon="8.7243833"><ele>373.42857142857144</ele><time>2026-04-19T14:46:52.439Z</time></trkpt><trkpt lat="40.579095" lon="8.7243883"><ele>371.0</ele><time>2026-04-19T14:46:53.439Z</time></trkpt><trkpt lat="40.57916" lon="8.7244083"><ele>371.0</ele><time>2026-04-19T14:46:54.439Z</time></trkpt><trkpt lat="40.5792233" lon="8.72444"><ele>371.0</ele><time>2026-04-19T14:46:55.44Z</time></trkpt><trkpt lat="40.5792867" lon="8.724465"><ele>371.0</ele><time>2026-04-19T14:46:56.439Z</time></trkpt><trkpt lat="40.5793483" lon="8.7244917"><ele>371.0</ele><time>2026-04-19T14:46:57.439Z</time></trkpt><trkpt lat="40.579405" lon="8.7245367"><ele>371.0</ele><time>2026-04-19T14:46:58.439Z</time></trkpt><trkpt lat="40.579455" lon="8.7247083"><ele>371.0</ele><time>2026-04-19T14:47:00.44Z</time></trkpt><trkpt lat="40.579455" lon="8.724825"><ele>371.0</ele><time>2026-04-19T14:47:01.439Z</time></trkpt><trkpt lat="40.5794517" lon="8.72494"><ele>371.0</ele><time>2026-04-19T14:47:02.44Z</time></trkpt><trkpt lat="40.5794167" lon="8.7250783"><ele>371.0</ele><time>2026-04-19T14:47:03.44Z</time></trkpt><trkpt lat="40.5793567" lon="8.7252233"><ele>371.0</ele><time>2026-04-19T14:47:04.44Z</time></trkpt><trkpt lat="40.5792567" lon="8.72539"><ele>368.25</ele><time>2026-04-19T14:47:05.439Z</time></trkpt><trkpt lat="40.5791583" lon="8.7255433"><ele>365.5</ele><time>2026-04-19T14:47:06.44Z</time></trkpt><trkpt lat="40.5790717" lon="8.72569"><ele>362.75</ele><time>2026-04-19T14:47:07.44Z</time></trkpt><trkpt lat="40.57901" lon="8.7258467"><ele>360.0</ele><time>2026-04-19T14:47:08.439Z</time></trkpt><trkpt lat="40.57897" lon="8.7260433"><ele>356.3333333333333</ele><time>2026-04-19T14:47:09.44Z</time></trkpt><trkpt lat="40.5789717" lon="8.7262583"><ele>352.66666666666663</ele><time>2026-04-19T14:47:10.439Z</time></trkpt><trkpt lat="40.578985" lon="8.726465"><ele>349.0</ele><time>2026-04-19T14:47:11.439Z</time></trkpt><trkpt lat="40.578995" lon="8.7266733"><ele>349.0</ele><time>2026-04-19T14:47:12.44Z</time></trkpt><trkpt lat="40.578995" lon="8.7268633"><ele>349.0</ele><time>2026-04-19T14:47:13.44Z</time></trkpt><trkpt lat="40.57899" lon="8.7270317"><ele>349.0</ele><time>2026-04-19T14:47:14.44Z</time></trkpt><trkpt lat="40.5789833" lon="8.7271817"><ele>349.0</ele><time>2026-04-19T14:47:15.439Z</time></trkpt><trkpt lat="40.5789883" lon="8.7273183"><ele>347.79999999999995</ele><time>2026-04-19T14:47:16.439Z</time></trkpt><trkpt lat="40.5789867" lon="8.7274517"><ele>346.59999999999997</ele><time>2026-04-19T14:47:17.44Z</time></trkpt><trkpt lat="40.5789917" lon="8.727585"><ele>345.4</ele><time>2026-04-19T14:47:18.439Z</time></trkpt><trkpt lat="40.5790083" lon="8.727725"><ele>344.2</ele><time>2026-04-19T14:47:19.439Z</time></trkpt><trkpt lat="40.5790233" lon="8.7278733"><ele>343.0</ele><time>2026-04-19T14:47:20.439Z</time></trkpt><trkpt lat="40.5790317" lon="8.7280317"><ele>341.75</ele><time>2026-04-19T14:47:21.439Z</time></trkpt><trkpt lat="40.57901" lon="8.7281817"><ele>340.5</ele><time>2026-04-19T14:47:22.44Z</time></trkpt><trkpt lat="40.57896" lon="8.728335"><ele>339.25</ele><time>2026-04-19T14:47:23.439Z</time></trkpt><trkpt lat="40.5789017" lon="8.7284867"><ele>338.0</ele><time>2026-04-19T14:47:24.44Z</time></trkpt><trkpt lat="40.5788433" lon="8.7286383"><ele>336.4</ele><time>2026-04-19T14:47:25.439Z</time></trkpt><trkpt lat="40.57879" lon="8.72877"><ele>334.79999999999995</ele><time>2026-04-19T14:47:26.44Z</time></trkpt><trkpt lat="40.578745" lon="8.7289"><ele>333.2</ele><time>2026-04-19T14:47:27.44Z</time></trkpt><trkpt lat="40.5787017" lon="8.729015"><ele>331.6</ele><time>2026-04-19T14:47:28.439Z</time></trkpt><trkpt lat="40.5786483" lon="8.7291217"><ele>330.0</ele><time>2026-04-19T14:47:29.439Z</time></trkpt><trkpt lat="40.578595" lon="8.7292233"><ele>329.5</ele><time>2026-04-19T14:47:30.439Z</time></trkpt><trkpt lat="40.57855" lon="8.7293183"><ele>329.0</ele><time>2026-04-19T14:47:31.439Z</time></trkpt><trkpt lat="40.57852" lon="8.729415"><ele>328.5</ele><time>2026-04-19T14:47:32.44Z</time></trkpt><trkpt lat="40.5785117" lon="8.729515"><ele>328.0</ele><time>2026-04-19T14:47:33.439Z</time></trkpt><trkpt lat="40.5785417" lon="8.72963"><ele>327.5</ele><time>2026-04-19T14:47:34.44Z</time></trkpt><trkpt lat="40.578605" lon="8.7297517"><ele>327.0</ele><time>2026-04-19T14:47:35.439Z</time></trkpt><trkpt lat="40.5787017" lon="8.7298783"><ele>327.0</ele><time>2026-04-19T14:47:36.439Z</time></trkpt><trkpt lat="40.5787867" lon="8.7300017"><ele>327.0</ele><time>2026-04-19T14:47:37.439Z</time></trkpt><trkpt lat="40.57886" lon="8.7301367"><ele>327.0</ele><time>2026-04-19T14:47:38.439Z</time></trkpt><trkpt lat="40.578925" lon="8.730275"><ele>327.0</ele><time>2026-04-19T14:47:39.44Z</time></trkpt><trkpt lat="40.579" lon="8.7304017"><ele>330.75</ele><time>2026-04-19T14:47:40.439Z</time></trkpt><trkpt lat="40.5790783" lon="8.7305217"><ele>334.5</ele><time>2026-04-19T14:47:41.44Z</time></trkpt><trkpt lat="40.57917" lon="8.7306367"><ele>338.25</ele><time>2026-04-19T14:47:42.439Z</time></trkpt><trkpt lat="40.579255" lon="8.730745"><ele>342.0</ele><time>2026-04-19T14:47:43.44Z</time></trkpt><trkpt lat="40.5793467" lon="8.730855"><ele>342.0</ele><time>2026-04-19T14:47:44.44Z</time></trkpt><trkpt lat="40.5794467" lon="8.7309483"><ele>342.0</ele><time>2026-04-19T14:47:45.44Z</time></trkpt><trkpt lat="40.57955" lon="8.73103"><ele>342.0</ele><time>2026-04-19T14:47:46.439Z</time></trkpt><trkpt lat="40.5796533" lon="8.7310983"><ele>342.0</ele><time>2026-04-19T14:47:47.439Z</time></trkpt><trkpt lat="40.5797483" lon="8.7311783"><ele>339.8</ele><time>2026-04-19T14:47:48.44Z</time></trkpt><trkpt lat="40.5798483" lon="8.731245"><ele>337.6</ele><time>2026-04-19T14:47:49.439Z</time></trkpt><trkpt lat="40.579945" lon="8.7313183"><ele>335.40000000000003</ele><time>2026-04-19T14:47:50.439Z</time></trkpt><trkpt lat="40.5800333" lon="8.73139"><ele>333.20000000000005</ele><time>2026-04-19T14:47:51.44Z</time></trkpt><trkpt lat="40.5801233" lon="8.7314583"><ele>331.0</ele><time>2026-04-19T14:47:52.44Z</time></trkpt><trkpt lat="40.580215" lon="8.7315183"><ele>331.0</ele><time>2026-04-19T14:47:53.439Z</time></trkpt><trkpt lat="40.5803017" lon="8.7315733"><ele>331.0</ele><time>2026-04-19T14:47:54.44Z</time></trkpt><trkpt lat="40.5803867" lon="8.7316383"><ele>331.0</ele><time>2026-04-19T14:47:55.44Z</time></trkpt><trkpt lat="40.5804683" lon="8.73171"><ele>331.0</ele><time>2026-04-19T14:47:56.44Z</time></trkpt><trkpt lat="40.5805433" lon="8.73177"><ele>331.0</ele><time>2026-04-19T14:47:57.44Z</time></trkpt><trkpt lat="40.5806117" lon="8.7318433"><ele>329.6</ele><time>2026-04-19T14:47:58.439Z</time></trkpt><trkpt lat="40.580695" lon="8.7319017"><ele>328.20000000000005</ele><time>2026-04-19T14:47:59.44Z</time></trkpt><trkpt lat="40.5807867" lon="8.73194"><ele>326.79999999999995</ele><time>2026-04-19T14:48:00.44Z</time></trkpt><trkpt lat="40.580885" lon="8.7319483"><ele>325.4</ele><time>2026-04-19T14:48:01.439Z</time></trkpt><trkpt lat="40.5809867" lon="8.7318983"><ele>324.0</ele><time>2026-04-19T14:48:02.44Z</time></trkpt><trkpt lat="40.581075" lon="8.731825"><ele>322.0</ele><time>2026-04-19T14:48:03.439Z</time></trkpt><trkpt lat="40.5811533" lon="8.7317717"><ele>320.0</ele><time>2026-04-19T14:48:04.439Z</time></trkpt><trkpt lat="40.581265" lon="8.7317367"><ele>318.0</ele><time>2026-04-19T14:48:05.44Z</time></trkpt><trkpt lat="40.581385" lon="8.7317417"><ele>316.0</ele><time>2026-04-19T14:48:06.44Z</time></trkpt><trkpt lat="40.581515" lon="8.73178"><ele>314.5</ele><time>2026-04-19T14:48:07.439Z</time></trkpt><trkpt lat="40.5816483" lon="8.731805"><ele>313.0</ele><time>2026-04-19T14:48:08.44Z</time></trkpt><trkpt lat="40.581775" lon="8.7318167"><ele>311.5</ele><time>2026-04-19T14:48:09.44Z</time></trkpt><trkpt lat="40.5819" lon="8.7318233"><ele>310.0</ele><time>2026-04-19T14:48:10.439Z</time></trkpt><trkpt lat="40.58203" lon="8.73183"><ele>308.75</ele><time>2026-04-19T14:48:11.439Z</time></trkpt><trkpt lat="40.5821583" lon="8.7318467"><ele>307.5</ele><time>2026-04-19T14:48:12.44Z</time></trkpt><trkpt lat="40.5822933" lon="8.73187"><ele>306.25</ele><time>2026-04-19T14:48:13.44Z</time></trkpt><trkpt lat="40.582425" lon="8.73189"><ele>305.0</ele><time>2026-04-19T14:48:14.439Z</time></trkpt><trkpt lat="40.5825583" lon="8.7319217"><ele>304.75</ele><time>2026-04-19T14:48:15.44Z</time></trkpt><trkpt lat="40.582685" lon="8.73194"><ele>304.5</ele><time>2026-04-19T14:48:16.439Z</time></trkpt><trkpt lat="40.58282" lon="8.731945"><ele>304.25</ele><time>2026-04-19T14:48:17.439Z</time></trkpt><trkpt lat="40.582955" lon="8.7319433"><ele>304.0</ele><time>2026-04-19T14:48:18.44Z</time></trkpt><trkpt lat="40.5830883" lon="8.7319233"><ele>302.75</ele><time>2026-04-19T14:48:19.439Z</time></trkpt><trkpt lat="40.5832083" lon="8.7319"><ele>301.5</ele><time>2026-04-19T14:48:20.44Z</time></trkpt><trkpt lat="40.583325" lon="8.7318733"><ele>300.25</ele><time>2026-04-19T14:48:21.439Z</time></trkpt><trkpt lat="40.5834333" lon="8.731845"><ele>299.0</ele><time>2026-04-19T14:48:22.44Z</time></trkpt><trkpt lat="40.5835317" lon="8.7318167"><ele>299.0</ele><time>2026-04-19T14:48:23.44Z</time></trkpt><trkpt lat="40.5836183" lon="8.7318"><ele>299.0</ele><time>2026-04-19T14:48:24.44Z</time></trkpt><trkpt lat="40.5837" lon="8.73181"><ele>299.0</ele><time>2026-04-19T14:48:25.439Z</time></trkpt><trkpt lat="40.5837583" lon="8.7318417"><ele>299.0</ele><time>2026-04-19T14:48:26.439Z</time></trkpt><trkpt lat="40.5837917" lon="8.7319133"><ele>299.0</ele><time>2026-04-19T14:48:27.44Z</time></trkpt><trkpt lat="40.5838017" lon="8.7320083"><ele>299.0</ele><time>2026-04-19T14:48:28.439Z</time></trkpt><trkpt lat="40.58376" lon="8.7320967"><ele>299.0</ele><time>2026-04-19T14:48:29.44Z</time></trkpt><trkpt lat="40.58369" lon="8.7321733"><ele>298.25</ele><time>2026-04-19T14:48:30.44Z</time></trkpt><trkpt lat="40.5835933" lon="8.7322383"><ele>297.5</ele><time>2026-04-19T14:48:31.44Z</time></trkpt><trkpt lat="40.58349" lon="8.73229"><ele>296.75</ele><time>2026-04-19T14:48:32.439Z</time></trkpt><trkpt lat="40.5833783" lon="8.73236"><ele>296.0</ele><time>2026-04-19T14:48:33.44Z</time></trkpt><trkpt lat="40.5832633" lon="8.7324417"><ele>296.0</ele><time>2026-04-19T14:48:34.44Z</time></trkpt><trkpt lat="40.5831483" lon="8.732515"><ele>296.0</ele><time>2026-04-19T14:48:35.44Z</time></trkpt><trkpt lat="40.583045" lon="8.7325917"><ele>296.0</ele><time>2026-04-19T14:48:36.439Z</time></trkpt><trkpt lat="40.5829533" lon="8.7326583"><ele>296.0</ele><time>2026-04-19T14:48:37.44Z</time></trkpt><trkpt lat="40.5828567" lon="8.73274"><ele>296.25</ele><time>2026-04-19T14:48:38.439Z</time></trkpt><trkpt lat="40.5827767" lon="8.7328333"><ele>296.5</ele><time>2026-04-19T14:48:39.439Z</time></trkpt><trkpt lat="40.58271" lon="8.7329583"><ele>296.75</ele><time>2026-04-19T14:48:40.439Z</time></trkpt><trkpt lat="40.5826683" lon="8.733095"><ele>297.0</ele><time>2026-04-19T14:48:41.439Z</time></trkpt><trkpt lat="40.58266" lon="8.7332483"><ele>297.0</ele><time>2026-04-19T14:48:42.439Z</time></trkpt><trkpt lat="40.5826717" lon="8.7334117"><ele>297.0</ele><time>2026-04-19T14:48:43.44Z</time></trkpt><trkpt lat="40.5827083" lon="8.73357"><ele>297.0</ele><time>2026-04-19T14:48:44.44Z</time></trkpt><trkpt lat="40.5827667" lon="8.73371"><ele>297.0</ele><time>2026-04-19T14:48:45.439Z</time></trkpt><trkpt lat="40.5828283" lon="8.7338467"><ele>295.5</ele><time>2026-04-19T14:48:46.44Z</time></trkpt><trkpt lat="40.5828867" lon="8.7339867"><ele>294.0</ele><time>2026-04-19T14:48:47.44Z</time></trkpt><trkpt lat="40.5829433" lon="8.7341333"><ele>292.5</ele><time>2026-04-19T14:48:48.439Z</time></trkpt><trkpt lat="40.5830117" lon="8.7342767"><ele>291.0</ele><time>2026-04-19T14:48:49.44Z</time></trkpt><trkpt lat="40.5830767" lon="8.7344233"><ele>291.0</ele><time>2026-04-19T14:48:50.44Z</time></trkpt><trkpt lat="40.583135" lon="8.7345783"><ele>291.0</ele><time>2026-04-19T14:48:51.439Z</time></trkpt><trkpt lat="40.5831833" lon="8.7347333"><ele>291.0</ele><time>2026-04-19T14:48:52.439Z</time></trkpt><trkpt lat="40.5832133" lon="8.7348983"><ele>291.0</ele><time>2026-04-19T14:48:53.44Z</time></trkpt><trkpt lat="40.58323" lon="8.7350817"><ele>290.75</ele><time>2026-04-19T14:48:54.439Z</time></trkpt><trkpt lat="40.5832367" lon="8.73527"><ele>290.5</ele><time>2026-04-19T14:48:55.44Z</time></trkpt><trkpt lat="40.5832417" lon="8.7354483"><ele>290.25</ele><time>2026-04-19T14:48:56.439Z</time></trkpt><trkpt lat="40.5832433" lon="8.7356117"><ele>290.0</ele><time>2026-04-19T14:48:57.439Z</time></trkpt><trkpt lat="40.5832517" lon="8.7357767"><ele>290.0</ele><time>2026-04-19T14:48:58.439Z</time></trkpt><trkpt lat="40.5832717" lon="8.7359467"><ele>290.0</ele><time>2026-04-19T14:48:59.439Z</time></trkpt><trkpt lat="40.5833133" lon="8.7361183"><ele>290.0</ele><time>2026-04-19T14:49:00.439Z</time></trkpt><trkpt lat="40.5833783" lon="8.7362917"><ele>290.0</ele><time>2026-04-19T14:49:01.44Z</time></trkpt><trkpt lat="40.5834517" lon="8.73644"><ele>288.75</ele><time>2026-04-19T14:49:02.439Z</time></trkpt><trkpt lat="40.58353" lon="8.7365767"><ele>287.5</ele><time>2026-04-19T14:49:03.439Z</time></trkpt><trkpt lat="40.58361" lon="8.736715"><ele>286.25</ele><time>2026-04-19T14:49:04.44Z</time></trkpt><trkpt lat="40.5836867" lon="8.7368533"><ele>285.0</ele><time>2026-04-19T14:49:05.44Z</time></trkpt><trkpt lat="40.58376" lon="8.736995"><ele>283.25</ele><time>2026-04-19T14:49:06.439Z</time></trkpt><trkpt lat="40.5838183" lon="8.7371333"><ele>281.5</ele><time>2026-04-19T14:49:07.44Z</time></trkpt><trkpt lat="40.5838617" lon="8.7372867"><ele>279.75</ele><time>2026-04-19T14:49:08.439Z</time></trkpt><trkpt lat="40.5838833" lon="8.737455"><ele>278.0</ele><time>2026-04-19T14:49:09.44Z</time></trkpt><trkpt lat="40.5838883" lon="8.737625"><ele>277.25</ele><time>2026-04-19T14:49:10.44Z</time></trkpt><trkpt lat="40.5838933" lon="8.7377733"><ele>276.5</ele><time>2026-04-19T14:49:11.44Z</time></trkpt><trkpt lat="40.5839183" lon="8.7379217"><ele>275.75</ele><time>2026-04-19T14:49:12.44Z</time></trkpt><trkpt lat="40.583975" lon="8.7380617"><ele>275.0</ele><time>2026-04-19T14:49:13.44Z</time></trkpt><trkpt lat="40.584045" lon="8.7381817"><ele>275.0</ele><time>2026-04-19T14:49:14.44Z</time></trkpt><trkpt lat="40.5841233" lon="8.7382933"><ele>275.0</ele><time>2026-04-19T14:49:15.44Z</time></trkpt><trkpt lat="40.5841833" lon="8.7384067"><ele>275.0</ele><time>2026-04-19T14:49:16.439Z</time></trkpt><trkpt lat="40.5842083" lon="8.738535"><ele>275.0</ele><time>2026-04-19T14:49:17.439Z</time></trkpt><trkpt lat="40.5842133" lon="8.7386767"><ele>275.0</ele><time>2026-04-19T14:49:18.44Z</time></trkpt><trkpt lat="40.5842017" lon="8.7388233"><ele>275.25</ele><time>2026-04-19T14:49:19.439Z</time></trkpt><trkpt lat="40.5841817" lon="8.73898"><ele>275.5</ele><time>2026-04-19T14:49:20.439Z</time></trkpt><trkpt lat="40.5841683" lon="8.7391367"><ele>275.75</ele><time>2026-04-19T14:49:21.44Z</time></trkpt><trkpt lat="40.584165" lon="8.7392933"><ele>276.0</ele><time>2026-04-19T14:49:22.439Z</time></trkpt><trkpt lat="40.5841683" lon="8.7394533"><ele>276.0</ele><time>2026-04-19T14:49:23.44Z</time></trkpt><trkpt lat="40.5841933" lon="8.7396317"><ele>276.0</ele><time>2026-04-19T14:49:24.439Z</time></trkpt><trkpt lat="40.5842267" lon="8.739815"><ele>276.0</ele><time>2026-04-19T14:49:25.44Z</time></trkpt><trkpt lat="40.5842567" lon="8.7399883"><ele>276.0</ele><time>2026-04-19T14:49:26.44Z</time></trkpt><trkpt lat="40.5842867" lon="8.7401633"><ele>274.25</ele><time>2026-04-19T14:49:27.439Z</time></trkpt><trkpt lat="40.5843033" lon="8.7403517"><ele>272.5</ele><time>2026-04-19T14:49:28.44Z</time></trkpt><trkpt lat="40.584315" lon="8.740535"><ele>270.75</ele><time>2026-04-19T14:49:29.44Z</time></trkpt><trkpt lat="40.5843267" lon="8.74072"><ele>269.0</ele><time>2026-04-19T14:49:30.439Z</time></trkpt><trkpt lat="40.5843433" lon="8.7409183"><ele>268.5</ele><time>2026-04-19T14:49:31.439Z</time></trkpt><trkpt lat="40.5843533" lon="8.7411083"><ele>268.0</ele><time>2026-04-19T14:49:32.439Z</time></trkpt><trkpt lat="40.5843617" lon="8.7412883"><ele>267.5</ele><time>2026-04-19T14:49:33.439Z</time></trkpt><trkpt lat="40.584375" lon="8.74146"><ele>267.0</ele><time>2026-04-19T14:49:34.439Z</time></trkpt><trkpt lat="40.584385" lon="8.7416167"><ele>267.0</ele><time>2026-04-19T14:49:35.44Z</time></trkpt><trkpt lat="40.5843983" lon="8.7417633"><ele>267.0</ele><time>2026-04-19T14:49:36.439Z</time></trkpt><trkpt lat="40.584415" lon="8.741915"><ele>267.0</ele><time>2026-04-19T14:49:37.44Z</time></trkpt><trkpt lat="40.5844283" lon="8.742055"><ele>267.0</ele><time>2026-04-19T14:49:38.439Z</time></trkpt><trkpt lat="40.5844533" lon="8.74219"><ele>267.0</ele><time>2026-04-19T14:49:39.44Z</time></trkpt><trkpt lat="40.58447" lon="8.7423117"><ele>267.3333333333333</ele><time>2026-04-19T14:49:40.439Z</time></trkpt><trkpt lat="40.5844883" lon="8.7424233"><ele>267.6666666666667</ele><time>2026-04-19T14:49:41.439Z</time></trkpt><trkpt lat="40.5845133" lon="8.742505"><ele>268.0</ele><time>2026-04-19T14:49:42.44Z</time></trkpt><trkpt lat="40.584585" lon="8.742595"><ele>268.33333333333337</ele><time>2026-04-19T14:49:44.439Z</time></trkpt><trkpt lat="40.5846617" lon="8.7426367"><ele>268.6666666666667</ele><time>2026-04-19T14:50:41.439Z</time></trkpt><trkpt lat="40.58473" lon="8.7426217"><ele>269.0</ele><time>2026-04-19T14:50:43.44Z</time></trkpt><trkpt lat="40.5848" lon="8.7426333"><ele>268.2</ele><time>2026-04-19T14:50:45.44Z</time></trkpt><trkpt lat="40.5848633" lon="8.7426933"><ele>267.4</ele><time>2026-04-19T14:50:47.439Z</time></trkpt><trkpt lat="40.584945" lon="8.7427783"><ele>266.6</ele><time>2026-04-19T14:50:49.44Z</time></trkpt><trkpt lat="40.585025" lon="8.7428717"><ele>265.8</ele><time>2026-04-19T14:50:51.439Z</time></trkpt><trkpt lat="40.585105" lon="8.7429633"><ele>265.0</ele><time>2026-04-19T14:50:53.44Z</time></trkpt><trkpt lat="40.5851917" lon="8.7430467"><ele>265.0</ele><time>2026-04-19T14:50:55.439Z</time></trkpt><trkpt lat="40.5852917" lon="8.7431533"><ele>265.0</ele><time>2026-04-19T14:50:57.439Z</time></trkpt><trkpt lat="40.5853467" lon="8.743215"><ele>265.0</ele><time>2026-04-19T14:50:58.44Z</time></trkpt><trkpt lat="40.5854367" lon="8.7433283"><ele>265.0</ele><time>2026-04-19T14:51:00.439Z</time></trkpt><trkpt lat="40.5854983" lon="8.74343"><ele>265.0</ele><time>2026-04-19T14:51:02.44Z</time></trkpt><trkpt lat="40.585525" lon="8.7435083"><ele>265.16666666666663</ele><time>2026-04-19T14:51:04.439Z</time></trkpt><trkpt lat="40.5855067" lon="8.7436283"><ele>265.3333333333333</ele><time>2026-04-19T14:51:07.44Z</time></trkpt><trkpt lat="40.5854183" lon="8.7437517"><ele>265.5</ele><time>2026-04-19T14:51:09.44Z</time></trkpt><trkpt lat="40.5853783" lon="8.743825"><ele>265.6666666666667</ele><time>2026-04-19T14:51:10.44Z</time></trkpt><trkpt lat="40.58533" lon="8.7439"><ele>265.83333333333337</ele><time>2026-04-19T14:51:11.44Z</time></trkpt><trkpt lat="40.5852833" lon="8.7439667"><ele>266.0</ele><time>2026-04-19T14:51:12.44Z</time></trkpt><trkpt lat="40.5852367" lon="8.74404"><ele>266.0</ele><time>2026-04-19T14:51:13.439Z</time></trkpt><trkpt lat="40.5851883" lon="8.7441183"><ele>266.0</ele><time>2026-04-19T14:51:14.44Z</time></trkpt><trkpt lat="40.585135" lon="8.744205"><ele>266.0</ele><time>2026-04-19T14:51:15.44Z</time></trkpt><trkpt lat="40.58508" lon="8.7443"><ele>266.0</ele><time>2026-04-19T14:51:16.44Z</time></trkpt><trkpt lat="40.5850167" lon="8.7444"><ele>266.0</ele><time>2026-04-19T14:51:17.439Z</time></trkpt><trkpt lat="40.5849367" lon="8.744515"><ele>266.25</ele><time>2026-04-19T14:51:18.44Z</time></trkpt><trkpt lat="40.58485" lon="8.7446383"><ele>266.5</ele><time>2026-04-19T14:51:19.439Z</time></trkpt><trkpt lat="40.5847667" lon="8.7447683"><ele>266.75</ele><time>2026-04-19T14:51:20.44Z</time></trkpt><trkpt lat="40.5846833" lon="8.7449017"><ele>267.0</ele><time>2026-04-19T14:51:21.439Z</time></trkpt><trkpt lat="40.5845933" lon="8.7450483"><ele>268.6666666666667</ele><time>2026-04-19T14:51:22.439Z</time></trkpt><trkpt lat="40.5844883" lon="8.7452"><ele>270.33333333333337</ele><time>2026-04-19T14:51:23.44Z</time></trkpt><trkpt lat="40.5843833" lon="8.74537"><ele>272.0</ele><time>2026-04-19T14:51:24.44Z</time></trkpt><trkpt lat="40.5842817" lon="8.7455333"><ele>273.6666666666667</ele><time>2026-04-19T14:51:25.439Z</time></trkpt><trkpt lat="40.584185" lon="8.7457033"><ele>275.3333333333333</ele><time>2026-04-19T14:51:26.44Z</time></trkpt><trkpt lat="40.5840783" lon="8.7458717"><ele>277.0</ele><time>2026-04-19T14:51:27.439Z</time></trkpt><trkpt lat="40.5839717" lon="8.7460383"><ele>276.0</ele><time>2026-04-19T14:51:28.44Z</time></trkpt><trkpt lat="40.5838717" lon="8.7462017"><ele>275.0</ele><time>2026-04-19T14:51:29.44Z</time></trkpt><trkpt lat="40.5837733" lon="8.746365"><ele>274.0</ele><time>2026-04-19T14:51:30.439Z</time></trkpt><trkpt lat="40.5836583" lon="8.7465267"><ele>276.0</ele><time>2026-04-19T14:51:31.439Z</time></trkpt><trkpt lat="40.5835367" lon="8.746695"><ele>278.0</ele><time>2026-04-19T14:51:32.439Z</time></trkpt><trkpt lat="40.58343" lon="8.7468533"><ele>280.0</ele><time>2026-04-19T14:51:33.44Z</time></trkpt><trkpt lat="40.583325" lon="8.7470083"><ele>280.0</ele><time>2026-04-19T14:51:34.44Z</time></trkpt><trkpt lat="40.58321" lon="8.7471617"><ele>280.0</ele><time>2026-04-19T14:51:35.439Z</time></trkpt><trkpt lat="40.5830933" lon="8.74731"><ele>280.0</ele><time>2026-04-19T14:51:36.44Z</time></trkpt><trkpt lat="40.58299" lon="8.747445"><ele>280.0</ele><time>2026-04-19T14:51:37.439Z</time></trkpt><trkpt lat="40.5828883" lon="8.74758"><ele>280.0</ele><time>2026-04-19T14:51:38.44Z</time></trkpt><trkpt lat="40.582785" lon="8.74771"><ele>280.0</ele><time>2026-04-19T14:51:39.439Z</time></trkpt><trkpt lat="40.5826783" lon="8.747815"><ele>280.0</ele><time>2026-04-19T14:51:40.439Z</time></trkpt><trkpt lat="40.582565" lon="8.7479083"><ele>281.0</ele><time>2026-04-19T14:51:41.439Z</time></trkpt><trkpt lat="40.58243" lon="8.7480017"><ele>282.0</ele><time>2026-04-19T14:51:42.439Z</time></trkpt><trkpt lat="40.5822983" lon="8.7480933"><ele>283.0</ele><time>2026-04-19T14:51:43.439Z</time></trkpt><trkpt lat="40.58216" lon="8.748195"><ele>283.0</ele><time>2026-04-19T14:51:44.439Z</time></trkpt><trkpt lat="40.5820183" lon="8.7482933"><ele>283.0</ele><time>2026-04-19T14:51:45.44Z</time></trkpt><trkpt lat="40.581875" lon="8.748395"><ele>283.0</ele><time>2026-04-19T14:51:46.439Z</time></trkpt><trkpt lat="40.5817267" lon="8.7484967"><ele>285.66666666666663</ele><time>2026-04-19T14:51:47.44Z</time></trkpt><trkpt lat="40.5815867" lon="8.7485967"><ele>288.3333333333333</ele><time>2026-04-19T14:51:48.439Z</time></trkpt><trkpt lat="40.5814417" lon="8.7487067"><ele>291.0</ele><time>2026-04-19T14:51:49.44Z</time></trkpt><trkpt lat="40.5812967" lon="8.7488133"><ele>292.6666666666667</ele><time>2026-04-19T14:51:50.44Z</time></trkpt><trkpt lat="40.5811567" lon="8.748915"><ele>294.33333333333337</ele><time>2026-04-19T14:51:51.439Z</time></trkpt><trkpt lat="40.581015" lon="8.74902"><ele>296.0</ele><time>2026-04-19T14:51:52.439Z</time></trkpt><trkpt lat="40.5808883" lon="8.7491333"><ele>296.0</ele><time>2026-04-19T14:51:53.44Z</time></trkpt><trkpt lat="40.5807617" lon="8.7492417"><ele>296.0</ele><time>2026-04-19T14:51:54.44Z</time></trkpt><trkpt lat="40.58064" lon="8.749355"><ele>296.0</ele><time>2026-04-19T14:51:55.44Z</time></trkpt><trkpt lat="40.5805217" lon="8.7494617"><ele>296.0</ele><time>2026-04-19T14:51:56.439Z</time></trkpt><trkpt lat="40.5804033" lon="8.7495667"><ele>296.75</ele><time>2026-04-19T14:51:57.44Z</time></trkpt><trkpt lat="40.5802867" lon="8.7496733"><ele>297.5</ele><time>2026-04-19T14:51:58.44Z</time></trkpt><trkpt lat="40.5801833" lon="8.7497717"><ele>298.25</ele><time>2026-04-19T14:51:59.439Z</time></trkpt><trkpt lat="40.5800883" lon="8.749865"><ele>299.0</ele><time>2026-04-19T14:52:00.44Z</time></trkpt><trkpt lat="40.5799967" lon="8.7499483"><ele>299.0</ele><time>2026-04-19T14:52:01.439Z</time></trkpt><trkpt lat="40.5799" lon="8.7500383"><ele>299.0</ele><time>2026-04-19T14:52:02.44Z</time></trkpt><trkpt lat="40.5797983" lon="8.7501283"><ele>299.0</ele><time>2026-04-19T14:52:03.439Z</time></trkpt><trkpt lat="40.579685" lon="8.7502267"><ele>299.0</ele><time>2026-04-19T14:52:04.44Z</time></trkpt><trkpt lat="40.5795717" lon="8.7503183"><ele>298.0</ele><time>2026-04-19T14:52:05.44Z</time></trkpt><trkpt lat="40.5794417" lon="8.7503983"><ele>297.0</ele><time>2026-04-19T14:52:06.44Z</time></trkpt><trkpt lat="40.5793217" lon="8.7504783"><ele>296.0</ele><time>2026-04-19T14:52:07.44Z</time></trkpt><trkpt lat="40.5792017" lon="8.7505717"><ele>295.0</ele><time>2026-04-19T14:52:08.44Z</time></trkpt><trkpt lat="40.5790783" lon="8.75066"><ele>295.0</ele><time>2026-04-19T14:52:09.439Z</time></trkpt><trkpt lat="40.5789467" lon="8.750745"><ele>295.0</ele><time>2026-04-19T14:52:10.439Z</time></trkpt><trkpt lat="40.5788283" lon="8.75084"><ele>295.0</ele><time>2026-04-19T14:52:11.439Z</time></trkpt><trkpt lat="40.578715" lon="8.7509233"><ele>295.0</ele><time>2026-04-19T14:52:12.439Z</time></trkpt><trkpt lat="40.5786033" lon="8.751"><ele>295.75</ele><time>2026-04-19T14:52:13.44Z</time></trkpt><trkpt lat="40.5784967" lon="8.75107"><ele>296.5</ele><time>2026-04-19T14:52:14.439Z</time></trkpt><trkpt lat="40.5783883" lon="8.7511383"><ele>297.25</ele><time>2026-04-19T14:52:15.439Z</time></trkpt><trkpt lat="40.57827" lon="8.751195"><ele>298.0</ele><time>2026-04-19T14:52:16.44Z</time></trkpt><trkpt lat="40.5781417" lon="8.75121"><ele>298.0</ele><time>2026-04-19T14:52:17.439Z</time></trkpt><trkpt lat="40.5780067" lon="8.75117"><ele>298.0</ele><time>2026-04-19T14:52:18.439Z</time></trkpt><trkpt lat="40.5778683" lon="8.7511033"><ele>298.0</ele><time>2026-04-19T14:52:19.44Z</time></trkpt><trkpt lat="40.5777167" lon="8.751025"><ele>298.0</ele><time>2026-04-19T14:52:20.44Z</time></trkpt><trkpt lat="40.5775467" lon="8.75095"><ele>301.66666666666663</ele><time>2026-04-19T14:52:21.439Z</time></trkpt><trkpt lat="40.5773817" lon="8.7508717"><ele>305.3333333333333</ele><time>2026-04-19T14:52:22.439Z</time></trkpt><trkpt lat="40.577215" lon="8.7507983"><ele>309.0</ele><time>2026-04-19T14:52:23.44Z</time></trkpt><trkpt lat="40.57706" lon="8.7507233"><ele>309.0</ele><time>2026-04-19T14:52:24.44Z</time></trkpt><trkpt lat="40.5769267" lon="8.7506567"><ele>309.0</ele><time>2026-04-19T14:52:25.44Z</time></trkpt><trkpt lat="40.576805" lon="8.7506083"><ele>309.0</ele><time>2026-04-19T14:52:26.44Z</time></trkpt><trkpt lat="40.5767017" lon="8.7505717"><ele>309.0</ele><time>2026-04-19T14:52:27.439Z</time></trkpt><trkpt lat="40.57661" lon="8.7505517"><ele>309.0</ele><time>2026-04-19T14:52:28.439Z</time></trkpt><trkpt lat="40.5765233" lon="8.7505783"><ele>309.0</ele><time>2026-04-19T14:52:29.439Z</time></trkpt><trkpt lat="40.57643" lon="8.750665"><ele>309.0</ele><time>2026-04-19T14:52:30.44Z</time></trkpt><trkpt lat="40.5763467" lon="8.750795"><ele>309.0</ele><time>2026-04-19T14:52:31.44Z</time></trkpt><trkpt lat="40.57627" lon="8.7509567"><ele>309.6666666666667</ele><time>2026-04-19T14:52:32.439Z</time></trkpt><trkpt lat="40.5761883" lon="8.7511217"><ele>310.33333333333337</ele><time>2026-04-19T14:52:33.439Z</time></trkpt><trkpt lat="40.5760917" lon="8.7512783"><ele>311.0</ele><time>2026-04-19T14:52:34.44Z</time></trkpt><trkpt lat="40.575985" lon="8.751445"><ele>311.0</ele><time>2026-04-19T14:52:35.439Z</time></trkpt><trkpt lat="40.57586" lon="8.75161"><ele>311.0</ele><time>2026-04-19T14:52:36.439Z</time></trkpt><trkpt lat="40.5757267" lon="8.7517733"><ele>311.0</ele><time>2026-04-19T14:52:37.44Z</time></trkpt><trkpt lat="40.5755933" lon="8.751945"><ele>309.33333333333337</ele><time>2026-04-19T14:52:38.439Z</time></trkpt><trkpt lat="40.5754467" lon="8.7521283"><ele>307.6666666666667</ele><time>2026-04-19T14:52:39.439Z</time></trkpt><trkpt lat="40.5752983" lon="8.7523183"><ele>306.0</ele><time>2026-04-19T14:52:40.44Z</time></trkpt><trkpt lat="40.5751467" lon="8.7525117"><ele>308.6666666666667</ele><time>2026-04-19T14:52:41.44Z</time></trkpt><trkpt lat="40.5749933" lon="8.752705"><ele>311.33333333333337</ele><time>2026-04-19T14:52:42.44Z</time></trkpt><trkpt lat="40.5748533" lon="8.7529067"><ele>314.0</ele><time>2026-04-19T14:52:43.44Z</time></trkpt><trkpt lat="40.5747083" lon="8.753095"><ele>314.0</ele><time>2026-04-19T14:52:44.44Z</time></trkpt><trkpt lat="40.5745633" lon="8.753305"><ele>314.0</ele><time>2026-04-19T14:52:45.44Z</time></trkpt><trkpt lat="40.57442" lon="8.75352"><ele>314.0</ele><time>2026-04-19T14:52:46.439Z</time></trkpt><trkpt lat="40.57428" lon="8.7537417"><ele>317.0</ele><time>2026-04-19T14:52:47.44Z</time></trkpt><trkpt lat="40.574145" lon="8.75398"><ele>320.0</ele><time>2026-04-19T14:52:48.44Z</time></trkpt><trkpt lat="40.57402" lon="8.75423"><ele>319.6666666666667</ele><time>2026-04-19T14:52:49.44Z</time></trkpt><trkpt lat="40.5739033" lon="8.75447"><ele>319.3333333333333</ele><time>2026-04-19T14:52:50.439Z</time></trkpt><trkpt lat="40.573785" lon="8.7546867"><ele>319.0</ele><time>2026-04-19T14:52:51.439Z</time></trkpt><trkpt lat="40.5736717" lon="8.7548833"><ele>320.66666666666663</ele><time>2026-04-19T14:52:52.44Z</time></trkpt><trkpt lat="40.5735483" lon="8.755075"><ele>322.3333333333333</ele><time>2026-04-19T14:52:53.44Z</time></trkpt><trkpt lat="40.5734117" lon="8.7552533"><ele>324.0</ele><time>2026-04-19T14:52:54.44Z</time></trkpt><trkpt lat="40.5732617" lon="8.7554367"><ele>324.0</ele><time>2026-04-19T14:52:55.44Z</time></trkpt><trkpt lat="40.5731117" lon="8.7556133"><ele>324.0</ele><time>2026-04-19T14:52:56.44Z</time></trkpt><trkpt lat="40.57297" lon="8.7557967"><ele>324.0</ele><time>2026-04-19T14:52:57.439Z</time></trkpt><trkpt lat="40.572835" lon="8.755985"><ele>326.3333333333333</ele><time>2026-04-19T14:52:58.439Z</time></trkpt><trkpt lat="40.5727117" lon="8.75618"><ele>328.66666666666663</ele><time>2026-04-19T14:52:59.44Z</time></trkpt><trkpt lat="40.5725983" lon="8.7563867"><ele>331.0</ele><time>2026-04-19T14:53:00.44Z</time></trkpt><trkpt lat="40.5725017" lon="8.7566017"><ele>331.0</ele><time>2026-04-19T14:53:01.44Z</time></trkpt><trkpt lat="40.5724083" lon="8.756795"><ele>331.0</ele><time>2026-04-19T14:53:02.439Z</time></trkpt><trkpt lat="40.5723133" lon="8.7569917"><ele>331.0</ele><time>2026-04-19T14:53:03.44Z</time></trkpt><trkpt lat="40.5722133" lon="8.7571617"><ele>329.66666666666663</ele><time>2026-04-19T14:53:04.44Z</time></trkpt><trkpt lat="40.5721033" lon="8.7573117"><ele>328.3333333333333</ele><time>2026-04-19T14:53:05.44Z</time></trkpt><trkpt lat="40.5719717" lon="8.757455"><ele>327.0</ele><time>2026-04-19T14:53:06.439Z</time></trkpt><trkpt lat="40.57183" lon="8.75758"><ele>329.0</ele><time>2026-04-19T14:53:07.439Z</time></trkpt><trkpt lat="40.571685" lon="8.7576883"><ele>331.0</ele><time>2026-04-19T14:53:08.439Z</time></trkpt><trkpt lat="40.5715217" lon="8.7577667"><ele>333.0</ele><time>2026-04-19T14:53:09.439Z</time></trkpt><trkpt lat="40.5713417" lon="8.7578033"><ele>335.6666666666667</ele><time>2026-04-19T14:53:10.439Z</time></trkpt><trkpt lat="40.5711533" lon="8.7578233"><ele>338.33333333333337</ele><time>2026-04-19T14:53:11.439Z</time></trkpt><trkpt lat="40.570965" lon="8.75782"><ele>341.0</ele><time>2026-04-19T14:53:12.439Z</time></trkpt><trkpt lat="40.57077" lon="8.7578283"><ele>341.0</ele><time>2026-04-19T14:53:13.439Z</time></trkpt><trkpt lat="40.57057" lon="8.7578517"><ele>341.0</ele><time>2026-04-19T14:53:14.439Z</time></trkpt><trkpt lat="40.5703683" lon="8.7579"><ele>341.0</ele><time>2026-04-19T14:53:15.44Z</time></trkpt><trkpt lat="40.570165" lon="8.7579717"><ele>341.6666666666667</ele><time>2026-04-19T14:53:16.439Z</time></trkpt><trkpt lat="40.56997" lon="8.7580717"><ele>342.3333333333333</ele><time>2026-04-19T14:53:17.439Z</time></trkpt><trkpt lat="40.56979" lon="8.7581917"><ele>343.0</ele><time>2026-04-19T14:53:18.439Z</time></trkpt><trkpt lat="40.5696367" lon="8.7583433"><ele>345.66666666666663</ele><time>2026-04-19T14:53:19.439Z</time></trkpt><trkpt lat="40.5694983" lon="8.7585317"><ele>348.3333333333333</ele><time>2026-04-19T14:53:20.439Z</time></trkpt><trkpt lat="40.569375" lon="8.7587417"><ele>351.0</ele><time>2026-04-19T14:53:21.44Z</time></trkpt><trkpt lat="40.5692567" lon="8.7589583"><ele>351.3333333333333</ele><time>2026-04-19T14:53:22.44Z</time></trkpt><trkpt lat="40.5691467" lon="8.759175"><ele>351.66666666666663</ele><time>2026-04-19T14:53:23.439Z</time></trkpt><trkpt lat="40.56905" lon="8.759385"><ele>352.0</ele><time>2026-04-19T14:53:24.439Z</time></trkpt><trkpt lat="40.568985" lon="8.7595983"><ele>353.3333333333333</ele><time>2026-04-19T14:53:25.439Z</time></trkpt><trkpt lat="40.568925" lon="8.7598033"><ele>354.6666666666667</ele><time>2026-04-19T14:53:26.44Z</time></trkpt><trkpt lat="40.56883" lon="8.7599717"><ele>356.0</ele><time>2026-04-19T14:53:27.439Z</time></trkpt><trkpt lat="40.56871" lon="8.7601083"><ele>358.0</ele><time>2026-04-19T14:53:28.438Z</time></trkpt><trkpt lat="40.568545" lon="8.7602167"><ele>360.0</ele><time>2026-04-19T14:53:29.439Z</time></trkpt><trkpt lat="40.56838" lon="8.7603267"><ele>362.0</ele><time>2026-04-19T14:53:30.438Z</time></trkpt><trkpt lat="40.5682183" lon="8.7604333"><ele>362.0</ele><time>2026-04-19T14:53:31.438Z</time></trkpt><trkpt lat="40.5680483" lon="8.76055"><ele>362.0</ele><time>2026-04-19T14:53:32.439Z</time></trkpt><trkpt lat="40.567875" lon="8.7606717"><ele>362.0</ele><time>2026-04-19T14:53:33.438Z</time></trkpt><trkpt lat="40.5676933" lon="8.7608"><ele>363.0</ele><time>2026-04-19T14:53:34.439Z</time></trkpt><trkpt lat="40.5675133" lon="8.7609317"><ele>364.0</ele><time>2026-04-19T14:53:35.439Z</time></trkpt><trkpt lat="40.5673333" lon="8.7610467"><ele>365.0</ele><time>2026-04-19T14:53:36.438Z</time></trkpt><trkpt lat="40.5671417" lon="8.7611667"><ele>366.0</ele><time>2026-04-19T14:53:37.439Z</time></trkpt><trkpt lat="40.5669583" lon="8.7612967"><ele>367.0</ele><time>2026-04-19T14:53:38.439Z</time></trkpt><trkpt lat="40.566785" lon="8.7614117"><ele>368.0</ele><time>2026-04-19T14:53:39.438Z</time></trkpt><trkpt lat="40.5666117" lon="8.7615317"><ele>368.0</ele><time>2026-04-19T14:53:40.439Z</time></trkpt><trkpt lat="40.5664367" lon="8.7616583"><ele>368.0</ele><time>2026-04-19T14:53:41.439Z</time></trkpt><trkpt lat="40.566255" lon="8.7617867"><ele>368.0</ele><time>2026-04-19T14:53:42.439Z</time></trkpt><trkpt lat="40.5660717" lon="8.7619233"><ele>368.0</ele><time>2026-04-19T14:53:43.438Z</time></trkpt><trkpt lat="40.565885" lon="8.7620667"><ele>368.0</ele><time>2026-04-19T14:53:44.438Z</time></trkpt><trkpt lat="40.5656917" lon="8.7622133"><ele>368.0</ele><time>2026-04-19T14:53:45.438Z</time></trkpt><trkpt lat="40.5655067" lon="8.7623567"><ele>368.0</ele><time>2026-04-19T14:53:46.438Z</time></trkpt><trkpt lat="40.56533" lon="8.76251"><ele>368.0</ele><time>2026-04-19T14:53:47.439Z</time></trkpt><trkpt lat="40.5651383" lon="8.762655"><ele>368.0</ele><time>2026-04-19T14:53:48.438Z</time></trkpt><trkpt lat="40.56495" lon="8.7628033"><ele>368.0</ele><time>2026-04-19T14:53:49.439Z</time></trkpt><trkpt lat="40.5647767" lon="8.7629483"><ele>368.0</ele><time>2026-04-19T14:53:50.438Z</time></trkpt><trkpt lat="40.5646017" lon="8.7630817"><ele>368.0</ele><time>2026-04-19T14:53:51.438Z</time></trkpt><trkpt lat="40.5644267" lon="8.763225"><ele>368.0</ele><time>2026-04-19T14:53:52.439Z</time></trkpt><trkpt lat="40.5642417" lon="8.7633817"><ele>368.0</ele><time>2026-04-19T14:53:53.439Z</time></trkpt><trkpt lat="40.564055" lon="8.7635267"><ele>368.0</ele><time>2026-04-19T14:53:54.439Z</time></trkpt><trkpt lat="40.56389" lon="8.7636533"><ele>367.33333333333337</ele><time>2026-04-19T14:53:55.438Z</time></trkpt><trkpt lat="40.56373" lon="8.763785"><ele>366.6666666666667</ele><time>2026-04-19T14:53:56.438Z</time></trkpt><trkpt lat="40.5635767" lon="8.7639"><ele>366.0</ele><time>2026-04-19T14:53:57.439Z</time></trkpt><trkpt lat="40.563435" lon="8.7640233"><ele>366.0</ele><time>2026-04-19T14:53:58.438Z</time></trkpt><trkpt lat="40.5633017" lon="8.7641317"><ele>366.0</ele><time>2026-04-19T14:53:59.438Z</time></trkpt><trkpt lat="40.563175" lon="8.76424"><ele>366.0</ele><time>2026-04-19T14:54:00.438Z</time></trkpt><trkpt lat="40.5630583" lon="8.7643383"><ele>366.0</ele><time>2026-04-19T14:54:01.438Z</time></trkpt><trkpt lat="40.5629467" lon="8.7644417"><ele>364.8</ele><time>2026-04-19T14:54:02.439Z</time></trkpt><trkpt lat="40.562845" lon="8.76453"><ele>363.6</ele><time>2026-04-19T14:54:03.438Z</time></trkpt><trkpt lat="40.5627517" lon="8.7646167"><ele>362.4</ele><time>2026-04-19T14:54:04.439Z</time></trkpt><trkpt lat="40.5626617" lon="8.7646767"><ele>361.2</ele><time>2026-04-19T14:54:05.438Z</time></trkpt><trkpt lat="40.562575" lon="8.7647317"><ele>360.0</ele><time>2026-04-19T14:54:06.438Z</time></trkpt><trkpt lat="40.562505" lon="8.76479"><ele>360.0</ele><time>2026-04-19T14:54:07.438Z</time></trkpt><trkpt lat="40.5624483" lon="8.7648633"><ele>360.0</ele><time>2026-04-19T14:54:08.439Z</time></trkpt><trkpt lat="40.5623667" lon="8.7649383"><ele>360.0</ele><time>2026-04-19T14:54:10.438Z</time></trkpt><trkpt lat="40.5623117" lon="8.7648717"><ele>360.0</ele><time>2026-04-19T14:54:13.439Z</time></trkpt><trkpt lat="40.5623383" lon="8.7647167"><ele>360.0</ele><time>2026-04-19T14:54:15.438Z</time></trkpt><trkpt lat="40.5623583" lon="8.7646217"><ele>360.0</ele><time>2026-04-19T14:54:16.439Z</time></trkpt><trkpt lat="40.5623883" lon="8.7645233"><ele>360.0</ele><time>2026-04-19T14:54:17.438Z</time></trkpt><trkpt lat="40.56242" lon="8.7644233"><ele>360.0</ele><time>2026-04-19T14:54:18.439Z</time></trkpt><trkpt lat="40.5624517" lon="8.76431"><ele>360.0</ele><time>2026-04-19T14:54:19.439Z</time></trkpt><trkpt lat="40.5624867" lon="8.7641967"><ele>360.0</ele><time>2026-04-19T14:54:20.439Z</time></trkpt><trkpt lat="40.56251" lon="8.7640883"><ele>360.0</ele><time>2026-04-19T14:54:21.438Z</time></trkpt><trkpt lat="40.56254" lon="8.7639867"><ele>360.0</ele><time>2026-04-19T14:54:22.439Z</time></trkpt><trkpt lat="40.56258" lon="8.7638783"><ele>360.6</ele><time>2026-04-19T14:54:23.438Z</time></trkpt><trkpt lat="40.56261" lon="8.76377"><ele>361.2</ele><time>2026-04-19T14:54:24.439Z</time></trkpt><trkpt lat="40.562635" lon="8.763655"><ele>361.79999999999995</ele><time>2026-04-19T14:54:25.439Z</time></trkpt><trkpt lat="40.5626683" lon="8.7635333"><ele>362.4</ele><time>2026-04-19T14:54:26.439Z</time></trkpt><trkpt lat="40.5627067" lon="8.7634083"><ele>363.0</ele><time>2026-04-19T14:54:27.438Z</time></trkpt><trkpt lat="40.5627383" lon="8.7632833"><ele>363.4</ele><time>2026-04-19T14:54:28.439Z</time></trkpt><trkpt lat="40.5627633" lon="8.7631717"><ele>363.79999999999995</ele><time>2026-04-19T14:54:29.439Z</time></trkpt><trkpt lat="40.562795" lon="8.7630567"><ele>364.2</ele><time>2026-04-19T14:54:30.438Z</time></trkpt><trkpt lat="40.5628217" lon="8.7629367"><ele>364.6</ele><time>2026-04-19T14:54:31.438Z</time></trkpt><trkpt lat="40.562855" lon="8.76282"><ele>365.0</ele><time>2026-04-19T14:54:32.438Z</time></trkpt><trkpt lat="40.5628917" lon="8.7626967"><ele>366.2</ele><time>2026-04-19T14:54:33.438Z</time></trkpt><trkpt lat="40.562935" lon="8.7625733"><ele>367.4</ele><time>2026-04-19T14:54:34.438Z</time></trkpt><trkpt lat="40.5629767" lon="8.7624417"><ele>368.6</ele><time>2026-04-19T14:54:35.439Z</time></trkpt><trkpt lat="40.5630167" lon="8.762305"><ele>369.8</ele><time>2026-04-19T14:54:36.438Z</time></trkpt><trkpt lat="40.5630617" lon="8.762165"><ele>371.0</ele><time>2026-04-19T14:54:37.439Z</time></trkpt><trkpt lat="40.5631083" lon="8.7620183"><ele>371.0</ele><time>2026-04-19T14:54:38.439Z</time></trkpt><trkpt lat="40.5631483" lon="8.7618717"><ele>371.0</ele><time>2026-04-19T14:54:39.438Z</time></trkpt><trkpt lat="40.56319" lon="8.7617217"><ele>371.0</ele><time>2026-04-19T14:54:40.439Z</time></trkpt><trkpt lat="40.5632333" lon="8.7615733"><ele>371.0</ele><time>2026-04-19T14:54:41.438Z</time></trkpt><trkpt lat="40.5632817" lon="8.7614283"><ele>371.75</ele><time>2026-04-19T14:54:42.438Z</time></trkpt><trkpt lat="40.5633217" lon="8.7612867"><ele>372.5</ele><time>2026-04-19T14:54:43.439Z</time></trkpt><trkpt lat="40.5633617" lon="8.7611483"><ele>373.25</ele><time>2026-04-19T14:54:44.438Z</time></trkpt><trkpt lat="40.5634033" lon="8.761005"><ele>374.0</ele><time>2026-04-19T14:54:45.438Z</time></trkpt><trkpt lat="40.5634533" lon="8.7608617"><ele>374.0</ele><time>2026-04-19T14:54:46.438Z</time></trkpt><trkpt lat="40.5635017" lon="8.7607167"><ele>374.0</ele><time>2026-04-19T14:54:47.439Z</time></trkpt><trkpt lat="40.5635483" lon="8.7605733"><ele>374.0</ele><time>2026-04-19T14:54:48.439Z</time></trkpt><trkpt lat="40.5635883" lon="8.760445"><ele>374.0</ele><time>2026-04-19T14:54:49.438Z</time></trkpt><trkpt lat="40.563625" lon="8.7603317"><ele>374.0</ele><time>2026-04-19T14:54:50.439Z</time></trkpt><trkpt lat="40.5636617" lon="8.760215"><ele>374.2</ele><time>2026-04-19T14:54:51.439Z</time></trkpt><trkpt lat="40.56368" lon="8.7601183"><ele>374.4</ele><time>2026-04-19T14:54:52.438Z</time></trkpt><trkpt lat="40.5636967" lon="8.7600333"><ele>374.6</ele><time>2026-04-19T14:54:53.438Z</time></trkpt><trkpt lat="40.5636933" lon="8.7598833"><ele>374.8</ele><time>2026-04-19T14:54:55.439Z</time></trkpt><trkpt lat="40.563655" lon="8.7597583"><ele>375.0</ele><time>2026-04-19T14:54:57.438Z</time></trkpt><trkpt lat="40.5635383" lon="8.7596683"><ele>375.0</ele><time>2026-04-19T14:54:59.438Z</time></trkpt><trkpt lat="40.5634583" lon="8.7596267"><ele>375.0</ele><time>2026-04-19T14:55:00.438Z</time></trkpt><trkpt lat="40.5633683" lon="8.75959"><ele>375.0</ele><time>2026-04-19T14:55:01.439Z</time></trkpt><trkpt lat="40.563265" lon="8.7595467"><ele>375.0</ele><time>2026-04-19T14:55:02.439Z</time></trkpt><trkpt lat="40.5631567" lon="8.7594967"><ele>375.0</ele><time>2026-04-19T14:55:03.439Z</time></trkpt><trkpt lat="40.5630517" lon="8.75946"><ele>375.0</ele><time>2026-04-19T14:55:04.438Z</time></trkpt><trkpt lat="40.5629667" lon="8.75943"><ele>375.0</ele><time>2026-04-19T14:55:05.438Z</time></trkpt><trkpt lat="40.5628917" lon="8.7593983"><ele>375.0</ele><time>2026-04-19T14:55:06.438Z</time></trkpt><trkpt lat="40.5627967" lon="8.759305"><ele>375.0</ele><time>2026-04-19T14:55:08.438Z</time></trkpt><trkpt lat="40.56278" lon="8.7592217"><ele>375.0</ele><time>2026-04-19T14:55:09.438Z</time></trkpt><trkpt lat="40.5627933" lon="8.7591133"><ele>375.0</ele><time>2026-04-19T14:55:10.439Z</time></trkpt><trkpt lat="40.56281" lon="8.758975"><ele>377.5</ele><time>2026-04-19T14:55:11.438Z</time></trkpt><trkpt lat="40.5628267" lon="8.7588133"><ele>380.0</ele><time>2026-04-19T14:55:12.438Z</time></trkpt><trkpt lat="40.562845" lon="8.7586567"><ele>382.5</ele><time>2026-04-19T14:55:13.439Z</time></trkpt><trkpt lat="40.5628633" lon="8.75849"><ele>385.0</ele><time>2026-04-19T14:55:14.438Z</time></trkpt><trkpt lat="40.5628833" lon="8.7583217"><ele>385.0</ele><time>2026-04-19T14:55:15.438Z</time></trkpt><trkpt lat="40.5628983" lon="8.758155"><ele>385.0</ele><time>2026-04-19T14:55:16.438Z</time></trkpt><trkpt lat="40.562895" lon="8.7580033"><ele>385.0</ele><time>2026-04-19T14:55:17.439Z</time></trkpt><trkpt lat="40.5629017" lon="8.7578667"><ele>385.0</ele><time>2026-04-19T14:55:18.438Z</time></trkpt><trkpt lat="40.5629067" lon="8.757745"><ele>385.0</ele><time>2026-04-19T14:55:19.439Z</time></trkpt><trkpt lat="40.5629183" lon="8.7576283"><ele>385.8</ele><time>2026-04-19T14:55:20.438Z</time></trkpt><trkpt lat="40.5629333" lon="8.7575133"><ele>386.6</ele><time>2026-04-19T14:55:21.438Z</time></trkpt><trkpt lat="40.5629617" lon="8.7574"><ele>387.4</ele><time>2026-04-19T14:55:22.438Z</time></trkpt><trkpt lat="40.56301" lon="8.7572767"><ele>388.2</ele><time>2026-04-19T14:55:23.438Z</time></trkpt><trkpt lat="40.563065" lon="8.75716"><ele>389.0</ele><time>2026-04-19T14:55:24.438Z</time></trkpt><trkpt lat="40.563105" lon="8.7570483"><ele>389.0</ele><time>2026-04-19T14:55:25.438Z</time></trkpt><trkpt lat="40.5631433" lon="8.756925"><ele>389.0</ele><time>2026-04-19T14:55:26.439Z</time></trkpt><trkpt lat="40.5631717" lon="8.7567967"><ele>389.0</ele><time>2026-04-19T14:55:27.438Z</time></trkpt><trkpt lat="40.5631883" lon="8.7566583"><ele>389.0</ele><time>2026-04-19T14:55:28.438Z</time></trkpt><trkpt lat="40.5632033" lon="8.7565333"><ele>389.0</ele><time>2026-04-19T14:55:29.438Z</time></trkpt><trkpt lat="40.5632283" lon="8.756425"><ele>390.16666666666663</ele><time>2026-04-19T14:55:30.438Z</time></trkpt><trkpt lat="40.5632433" lon="8.756325"><ele>391.3333333333333</ele><time>2026-04-19T14:55:31.438Z</time></trkpt><trkpt lat="40.563225" lon="8.756215"><ele>392.5</ele><time>2026-04-19T14:55:32.438Z</time></trkpt><trkpt lat="40.5631867" lon="8.75612"><ele>393.66666666666663</ele><time>2026-04-19T14:55:33.439Z</time></trkpt><trkpt lat="40.5631383" lon="8.756035"><ele>394.8333333333333</ele><time>2026-04-19T14:55:34.439Z</time></trkpt><trkpt lat="40.5630783" lon="8.75594"><ele>396.0</ele><time>2026-04-19T14:55:35.438Z</time></trkpt><trkpt lat="40.5630267" lon="8.7558583"><ele>397.1666666666667</ele><time>2026-04-19T14:55:36.439Z</time></trkpt><trkpt lat="40.56297" lon="8.7557967"><ele>398.33333333333337</ele><time>2026-04-19T14:55:37.438Z</time></trkpt><trkpt lat="40.5629033" lon="8.7557583"><ele>399.5</ele><time>2026-04-19T14:55:38.439Z</time></trkpt><trkpt lat="40.5628283" lon="8.7557467"><ele>400.6666666666667</ele><time>2026-04-19T14:55:39.439Z</time></trkpt><trkpt lat="40.5627483" lon="8.7557667"><ele>401.83333333333337</ele><time>2026-04-19T14:55:40.439Z</time></trkpt><trkpt lat="40.5626583" lon="8.7558"><ele>403.0</ele><time>2026-04-19T14:55:41.438Z</time></trkpt><trkpt lat="40.56257" lon="8.75582"><ele>405.79999999999995</ele><time>2026-04-19T14:55:42.438Z</time></trkpt><trkpt lat="40.562475" lon="8.755805"><ele>408.6</ele><time>2026-04-19T14:55:43.438Z</time></trkpt><trkpt lat="40.5623667" lon="8.7557633"><ele>411.4</ele><time>2026-04-19T14:55:44.438Z</time></trkpt><trkpt lat="40.562255" lon="8.7557117"><ele>414.20000000000005</ele><time>2026-04-19T14:55:45.439Z</time></trkpt><trkpt lat="40.5621383" lon="8.75568"><ele>417.0</ele><time>2026-04-19T14:55:46.439Z</time></trkpt><trkpt lat="40.56203" lon="8.7556817"><ele>417.75</ele><time>2026-04-19T14:55:47.438Z</time></trkpt><trkpt lat="40.5619333" lon="8.75571"><ele>418.5</ele><time>2026-04-19T14:55:48.439Z</time></trkpt><trkpt lat="40.5618333" lon="8.75574"><ele>419.25</ele><time>2026-04-19T14:55:49.439Z</time></trkpt><trkpt lat="40.5617183" lon="8.7557683"><ele>420.0</ele><time>2026-04-19T14:55:50.438Z</time></trkpt><trkpt lat="40.56159" lon="8.7558033"><ele>420.0</ele><time>2026-04-19T14:55:51.439Z</time></trkpt><trkpt lat="40.5614633" lon="8.75584"><ele>420.0</ele><time>2026-04-19T14:55:52.438Z</time></trkpt><trkpt lat="40.5613467" lon="8.7558667"><ele>420.0</ele><time>2026-04-19T14:55:53.438Z</time></trkpt><trkpt lat="40.5612483" lon="8.7558883"><ele>420.0</ele><time>2026-04-19T14:55:54.438Z</time></trkpt><trkpt lat="40.56115" lon="8.755915"><ele>420.0</ele><time>2026-04-19T14:55:55.438Z</time></trkpt><trkpt lat="40.561055" lon="8.7559367"><ele>420.8</ele><time>2026-04-19T14:55:56.439Z</time></trkpt><trkpt lat="40.5609533" lon="8.7559533"><ele>421.6</ele><time>2026-04-19T14:55:57.439Z</time></trkpt><trkpt lat="40.5608467" lon="8.7559483"><ele>422.4</ele><time>2026-04-19T14:55:58.438Z</time></trkpt><trkpt lat="40.5607383" lon="8.755925"><ele>423.2</ele><time>2026-04-19T14:55:59.438Z</time></trkpt><trkpt lat="40.5606267" lon="8.755885"><ele>424.0</ele><time>2026-04-19T14:56:00.438Z</time></trkpt><trkpt lat="40.5605167" lon="8.7558417"><ele>424.0</ele><time>2026-04-19T14:56:01.439Z</time></trkpt><trkpt lat="40.560415" lon="8.7558017"><ele>424.0</ele><time>2026-04-19T14:56:02.439Z</time></trkpt><trkpt lat="40.5603017" lon="8.7557467"><ele>424.0</ele><time>2026-04-19T14:56:03.439Z</time></trkpt><trkpt lat="40.560185" lon="8.7556917"><ele>424.0</ele><time>2026-04-19T14:56:04.438Z</time></trkpt><trkpt lat="40.5600667" lon="8.7556183"><ele>426.0</ele><time>2026-04-19T14:56:05.439Z</time></trkpt><trkpt lat="40.5599417" lon="8.755545"><ele>428.0</ele><time>2026-04-19T14:56:06.439Z</time></trkpt><trkpt lat="40.559805" lon="8.755475"><ele>430.0</ele><time>2026-04-19T14:56:07.438Z</time></trkpt><trkpt lat="40.5596683" lon="8.755415"><ele>432.0</ele><time>2026-04-19T14:56:08.438Z</time></trkpt><trkpt lat="40.5595417" lon="8.7553683"><ele>433.25</ele><time>2026-04-19T14:56:09.439Z</time></trkpt><trkpt lat="40.5594167" lon="8.75533"><ele>434.5</ele><time>2026-04-19T14:56:10.438Z</time></trkpt><trkpt lat="40.5592933" lon="8.755285"><ele>435.75</ele><time>2026-04-19T14:56:11.439Z</time></trkpt><trkpt lat="40.559165" lon="8.7552467"><ele>437.0</ele><time>2026-04-19T14:56:12.438Z</time></trkpt><trkpt lat="40.559035" lon="8.7552183"><ele>437.0</ele><time>2026-04-19T14:56:13.438Z</time></trkpt><trkpt lat="40.558905" lon="8.7551917"><ele>437.0</ele><time>2026-04-19T14:56:14.438Z</time></trkpt><trkpt lat="40.5587767" lon="8.755165"><ele>437.0</ele><time>2026-04-19T14:56:15.439Z</time></trkpt><trkpt lat="40.55864" lon="8.7551383"><ele>437.0</ele><time>2026-04-19T14:56:16.438Z</time></trkpt><trkpt lat="40.558505" lon="8.75511"><ele>438.25</ele><time>2026-04-19T14:56:17.438Z</time></trkpt><trkpt lat="40.558375" lon="8.7550667"><ele>439.5</ele><time>2026-04-19T14:56:18.439Z</time></trkpt><trkpt lat="40.558255" lon="8.755025"><ele>440.75</ele><time>2026-04-19T14:56:19.439Z</time></trkpt><trkpt lat="40.55813" lon="8.7549917"><ele>442.0</ele><time>2026-04-19T14:56:20.439Z</time></trkpt><trkpt lat="40.557995" lon="8.75497"><ele>442.75</ele><time>2026-04-19T14:56:21.439Z</time></trkpt><trkpt lat="40.5578567" lon="8.7549533"><ele>443.5</ele><time>2026-04-19T14:56:22.438Z</time></trkpt><trkpt lat="40.5577067" lon="8.754935"><ele>444.25</ele><time>2026-04-19T14:56:23.438Z</time></trkpt><trkpt lat="40.5575483" lon="8.7549183"><ele>445.0</ele><time>2026-04-19T14:56:24.438Z</time></trkpt><trkpt lat="40.557385" lon="8.7548917"><ele>445.0</ele><time>2026-04-19T14:56:25.438Z</time></trkpt><trkpt lat="40.5572233" lon="8.754865"><ele>445.0</ele><time>2026-04-19T14:56:26.438Z</time></trkpt><trkpt lat="40.5570733" lon="8.7548417"><ele>445.0</ele><time>2026-04-19T14:56:27.438Z</time></trkpt><trkpt lat="40.556935" lon="8.75482"><ele>445.0</ele><time>2026-04-19T14:56:28.438Z</time></trkpt><trkpt lat="40.5568" lon="8.7548017"><ele>445.0</ele><time>2026-04-19T14:56:29.439Z</time></trkpt><trkpt lat="40.5566667" lon="8.7547933"><ele>445.0</ele><time>2026-04-19T14:56:30.439Z</time></trkpt><trkpt lat="40.5565217" lon="8.7547867"><ele>445.0</ele><time>2026-04-19T14:56:31.439Z</time></trkpt><trkpt lat="40.5563667" lon="8.7547833"><ele>445.0</ele><time>2026-04-19T14:56:32.439Z</time></trkpt><trkpt lat="40.556215" lon="8.7548017"><ele>445.0</ele><time>2026-04-19T14:56:33.439Z</time></trkpt><trkpt lat="40.5560667" lon="8.754815"><ele>445.0</ele><time>2026-04-19T14:56:34.439Z</time></trkpt><trkpt lat="40.5559317" lon="8.7548333"><ele>445.0</ele><time>2026-04-19T14:56:35.439Z</time></trkpt><trkpt lat="40.55581" lon="8.7548533"><ele>444.8</ele><time>2026-04-19T14:56:36.439Z</time></trkpt><trkpt lat="40.5556967" lon="8.7548733"><ele>444.6</ele><time>2026-04-19T14:56:37.438Z</time></trkpt><trkpt lat="40.5555917" lon="8.7549183"><ele>444.4</ele><time>2026-04-19T14:56:38.439Z</time></trkpt><trkpt lat="40.5554933" lon="8.75497"><ele>444.2</ele><time>2026-04-19T14:56:39.439Z</time></trkpt><trkpt lat="40.555405" lon="8.7550133"><ele>444.0</ele><time>2026-04-19T14:56:40.438Z</time></trkpt><trkpt lat="40.555315" lon="8.7550533"><ele>443.6666666666667</ele><time>2026-04-19T14:56:41.438Z</time></trkpt><trkpt lat="40.5552317" lon="8.7551"><ele>443.33333333333337</ele><time>2026-04-19T14:56:42.439Z</time></trkpt><trkpt lat="40.5551583" lon="8.7551383"><ele>443.0</ele><time>2026-04-19T14:56:43.438Z</time></trkpt><trkpt lat="40.5550917" lon="8.755175"><ele>442.6666666666667</ele><time>2026-04-19T14:56:44.438Z</time></trkpt><trkpt lat="40.555015" lon="8.7552167"><ele>442.33333333333337</ele><time>2026-04-19T14:56:46.439Z</time></trkpt><trkpt lat="40.5550217" lon="8.7553317"><ele>442.0</ele><time>2026-04-19T14:56:49.438Z</time></trkpt><trkpt lat="40.5550833" lon="8.7554733"><ele>442.00000000000006</ele><time>2026-04-19T14:56:51.438Z</time></trkpt><trkpt lat="40.5551383" lon="8.7555917"><ele>442.0</ele><time>2026-04-19T14:56:53.439Z</time></trkpt><trkpt lat="40.555185" lon="8.7557183"><ele>442.0</ele><time>2026-04-19T14:56:55.438Z</time></trkpt><trkpt lat="40.5552233" lon="8.755795"><ele>442.0</ele><time>2026-04-19T14:56:56.439Z</time></trkpt><trkpt lat="40.55527" lon="8.75588"><ele>442.00000000000006</ele><time>2026-04-19T14:56:57.438Z</time></trkpt><trkpt lat="40.555315" lon="8.7559717"><ele>442.0</ele><time>2026-04-19T14:56:58.439Z</time></trkpt><trkpt lat="40.5553733" lon="8.7560667"><ele>441.6</ele><time>2026-04-19T14:56:59.438Z</time></trkpt><trkpt lat="40.555445" lon="8.7561567"><ele>441.20000000000005</ele><time>2026-04-19T14:57:00.439Z</time></trkpt><trkpt lat="40.555515" lon="8.7562533"><ele>440.8</ele><time>2026-04-19T14:57:01.439Z</time></trkpt><trkpt lat="40.5555933" lon="8.7563567"><ele>440.4</ele><time>2026-04-19T14:57:02.439Z</time></trkpt><trkpt lat="40.5556733" lon="8.7564617"><ele>440.0</ele><time>2026-04-19T14:57:03.438Z</time></trkpt><trkpt lat="40.5557467" lon="8.7565633"><ele>439.99999999999994</ele><time>2026-04-19T14:57:04.439Z</time></trkpt><trkpt lat="40.555815" lon="8.756655"><ele>440.0</ele><time>2026-04-19T14:57:05.438Z</time></trkpt><trkpt lat="40.5558783" lon="8.7567417"><ele>440.0</ele><time>2026-04-19T14:57:06.439Z</time></trkpt><trkpt lat="40.5559367" lon="8.7568233"><ele>440.0</ele><time>2026-04-19T14:57:07.439Z</time></trkpt><trkpt lat="40.5559883" lon="8.75688"><ele>439.99999999999994</ele><time>2026-04-19T14:57:08.438Z</time></trkpt><trkpt lat="40.5560467" lon="8.7569117"><ele>440.0</ele><time>2026-04-19T14:57:09.439Z</time></trkpt><trkpt lat="40.5561183" lon="8.7569183"><ele>441.0</ele><time>2026-04-19T14:57:10.438Z</time></trkpt><trkpt lat="40.5561917" lon="8.7569133"><ele>442.0</ele><time>2026-04-19T14:57:11.438Z</time></trkpt><trkpt lat="40.5562967" lon="8.756935"><ele>443.0</ele><time>2026-04-19T14:57:13.439Z</time></trkpt><trkpt lat="40.5563383" lon="8.7570633"><ele>444.0</ele><time>2026-04-19T14:57:15.439Z</time></trkpt><trkpt lat="40.5563467" lon="8.75716"><ele>445.0</ele><time>2026-04-19T14:57:16.438Z</time></trkpt><trkpt lat="40.55632" lon="8.7573067"><ele>445.00000000000006</ele><time>2026-04-19T14:57:18.439Z</time></trkpt><trkpt lat="40.5562783" lon="8.7573767"><ele>445.0</ele><time>2026-04-19T14:57:19.438Z</time></trkpt><trkpt lat="40.5562217" lon="8.757455"><ele>445.0</ele><time>2026-04-19T14:57:20.439Z</time></trkpt><trkpt lat="40.556165" lon="8.75753"><ele>445.0</ele><time>2026-04-19T14:57:21.438Z</time></trkpt><trkpt lat="40.5561133" lon="8.7576083"><ele>445.00000000000006</ele><time>2026-04-19T14:57:22.438Z</time></trkpt><trkpt lat="40.55607" lon="8.7576933"><ele>445.0</ele><time>2026-04-19T14:57:23.438Z</time></trkpt><trkpt lat="40.55602" lon="8.7577783"><ele>446.0</ele><time>2026-04-19T14:57:24.438Z</time></trkpt><trkpt lat="40.555985" lon="8.75786"><ele>447.0</ele><time>2026-04-19T14:57:25.438Z</time></trkpt><trkpt lat="40.555965" lon="8.7579417"><ele>448.0</ele><time>2026-04-19T14:57:26.438Z</time></trkpt><trkpt lat="40.5559583" lon="8.758025"><ele>449.0</ele><time>2026-04-19T14:57:27.438Z</time></trkpt><trkpt lat="40.5559567" lon="8.7581083"><ele>450.0</ele><time>2026-04-19T14:57:28.438Z</time></trkpt><trkpt lat="40.5559583" lon="8.7581933"><ele>451.0</ele><time>2026-04-19T14:57:29.439Z</time></trkpt><trkpt lat="40.555955" lon="8.758285"><ele>452.0</ele><time>2026-04-19T14:57:30.438Z</time></trkpt><trkpt lat="40.555935" lon="8.758385"><ele>452.0</ele><time>2026-04-19T14:57:31.438Z</time></trkpt><trkpt lat="40.5558933" lon="8.7584983"><ele>452.00000000000006</ele><time>2026-04-19T14:57:32.438Z</time></trkpt><trkpt lat="40.5558467" lon="8.7586183"><ele>452.00000000000006</ele><time>2026-04-19T14:57:33.439Z</time></trkpt><trkpt lat="40.5557983" lon="8.7587367"><ele>452.0</ele><time>2026-04-19T14:57:34.438Z</time></trkpt><trkpt lat="40.5557517" lon="8.7588483"><ele>452.0</ele><time>2026-04-19T14:57:35.438Z</time></trkpt><trkpt lat="40.5557033" lon="8.75895"><ele>452.8333333333333</ele><time>2026-04-19T14:57:36.439Z</time></trkpt><trkpt lat="40.5556567" lon="8.7590433"><ele>453.66666666666663</ele><time>2026-04-19T14:57:37.439Z</time></trkpt><trkpt lat="40.5556067" lon="8.7591267"><ele>454.5</ele><time>2026-04-19T14:57:38.438Z</time></trkpt><trkpt lat="40.55556" lon="8.7592067"><ele>455.33333333333337</ele><time>2026-04-19T14:57:39.439Z</time></trkpt><trkpt lat="40.555505" lon="8.7592817"><ele>456.1666666666667</ele><time>2026-04-19T14:57:40.439Z</time></trkpt><trkpt lat="40.5554467" lon="8.7593517"><ele>457.0</ele><time>2026-04-19T14:57:41.438Z</time></trkpt><trkpt lat="40.5553617" lon="8.7594417"><ele>455.0</ele><time>2026-04-19T14:57:43.439Z</time></trkpt><trkpt lat="40.5552883" lon="8.7595333"><ele>453.00000000000006</ele><time>2026-04-19T14:57:45.438Z</time></trkpt><trkpt lat="40.5552617" lon="8.7596567"><ele>451.00000000000006</ele><time>2026-04-19T14:57:47.439Z</time></trkpt><trkpt lat="40.55524" lon="8.7598117"><ele>449.0</ele><time>2026-04-19T14:57:49.438Z</time></trkpt><trkpt lat="40.55527" lon="8.7599667"><ele>447.0</ele><time>2026-04-19T14:57:51.439Z</time></trkpt><trkpt lat="40.5552917" lon="8.7600533"><ele>446.99999999999994</ele><time>2026-04-19T14:57:52.438Z</time></trkpt><trkpt lat="40.555315" lon="8.7601417"><ele>447.0</ele><time>2026-04-19T14:57:53.438Z</time></trkpt><trkpt lat="40.5553433" lon="8.7602367"><ele>447.0</ele><time>2026-04-19T14:57:54.438Z</time></trkpt><trkpt lat="40.55537" lon="8.760325"><ele>447.0</ele><time>2026-04-19T14:57:55.439Z</time></trkpt><trkpt lat="40.555405" lon="8.7604083"><ele>447.0</ele><time>2026-04-19T14:57:56.439Z</time></trkpt><trkpt lat="40.5554433" lon="8.7604833"><ele>446.99999999999994</ele><time>2026-04-19T14:57:57.439Z</time></trkpt><trkpt lat="40.5554833" lon="8.76056"><ele>447.0</ele><time>2026-04-19T14:57:58.439Z</time></trkpt><trkpt lat="40.55553" lon="8.760625"><ele>447.1666666666667</ele><time>2026-04-19T14:57:59.438Z</time></trkpt><trkpt lat="40.555585" lon="8.7606983"><ele>447.33333333333337</ele><time>2026-04-19T14:58:00.439Z</time></trkpt><trkpt lat="40.5556433" lon="8.7607767"><ele>447.5</ele><time>2026-04-19T14:58:01.438Z</time></trkpt><trkpt lat="40.5557017" lon="8.7608533"><ele>447.6666666666667</ele><time>2026-04-19T14:58:02.438Z</time></trkpt><trkpt lat="40.5557683" lon="8.76094"><ele>447.83333333333337</ele><time>2026-04-19T14:58:03.438Z</time></trkpt><trkpt lat="40.5558333" lon="8.7610133"><ele>448.0</ele><time>2026-04-19T14:58:04.438Z</time></trkpt><trkpt lat="40.5558917" lon="8.7610883"><ele>448.33333333333337</ele><time>2026-04-19T14:58:05.439Z</time></trkpt><trkpt lat="40.5559517" lon="8.7611617"><ele>448.6666666666667</ele><time>2026-04-19T14:58:06.438Z</time></trkpt><trkpt lat="40.5560117" lon="8.7612333"><ele>449.0</ele><time>2026-04-19T14:58:07.438Z</time></trkpt><trkpt lat="40.556075" lon="8.7612933"><ele>449.33333333333337</ele><time>2026-04-19T14:58:08.438Z</time></trkpt><trkpt lat="40.55613" lon="8.761365"><ele>449.6666666666667</ele><time>2026-04-19T14:58:09.438Z</time></trkpt><trkpt lat="40.5561767" lon="8.7614333"><ele>450.0</ele><time>2026-04-19T14:58:10.438Z</time></trkpt><trkpt lat="40.55622" lon="8.76151"><ele>450.0</ele><time>2026-04-19T14:58:11.439Z</time></trkpt><trkpt lat="40.5562617" lon="8.7615817"><ele>450.0</ele><time>2026-04-19T14:58:12.438Z</time></trkpt><trkpt lat="40.5563033" lon="8.761645"><ele>450.0</ele><time>2026-04-19T14:58:13.439Z</time></trkpt><trkpt lat="40.5563367" lon="8.7617567"><ele>450.0</ele><time>2026-04-19T14:58:15.439Z</time></trkpt><trkpt lat="40.5562883" lon="8.761865"><ele>450.0</ele><time>2026-04-19T14:58:17.438Z</time></trkpt><trkpt lat="40.5562433" lon="8.7619417"><ele>450.0</ele><time>2026-04-19T14:58:18.439Z</time></trkpt><trkpt lat="40.5562" lon="8.76204"><ele>449.0</ele><time>2026-04-19T14:58:19.438Z</time></trkpt><trkpt lat="40.5561567" lon="8.7621333"><ele>448.0</ele><time>2026-04-19T14:58:20.439Z</time></trkpt><trkpt lat="40.5561217" lon="8.76223"><ele>447.0</ele><time>2026-04-19T14:58:21.438Z</time></trkpt><trkpt lat="40.5560717" lon="8.7623167"><ele>446.0</ele><time>2026-04-19T14:58:22.439Z</time></trkpt><trkpt lat="40.5560083" lon="8.7623917"><ele>445.0</ele><time>2026-04-19T14:58:23.438Z</time></trkpt><trkpt lat="40.555925" lon="8.7625083"><ele>445.0</ele><time>2026-04-19T14:58:25.439Z</time></trkpt><trkpt lat="40.5558417" lon="8.7626083"><ele>445.0</ele><time>2026-04-19T14:58:27.439Z</time></trkpt><trkpt lat="40.55575" lon="8.7626317"><ele>445.0</ele><time>2026-04-19T14:58:29.438Z</time></trkpt><trkpt lat="40.555645" lon="8.76259"><ele>445.0</ele><time>2026-04-19T14:58:31.438Z</time></trkpt><trkpt lat="40.5555767" lon="8.76255"><ele>445.0</ele><time>2026-04-19T14:58:32.439Z</time></trkpt><trkpt lat="40.5555" lon="8.76252"><ele>445.00000000000006</ele><time>2026-04-19T14:58:33.438Z</time></trkpt><trkpt lat="40.5554333" lon="8.7625133"><ele>445.0</ele><time>2026-04-19T14:58:34.439Z</time></trkpt><trkpt lat="40.5553633" lon="8.7624983"><ele>445.0</ele><time>2026-04-19T14:58:35.439Z</time></trkpt><trkpt lat="40.5553" lon="8.76248"><ele>445.0</ele><time>2026-04-19T14:58:36.438Z</time></trkpt><trkpt lat="40.5551867" lon="8.7624617"><ele>445.00000000000006</ele><time>2026-04-19T14:58:38.438Z</time></trkpt><trkpt lat="40.55512" lon="8.7624617"><ele>445.0</ele><time>2026-04-19T14:58:39.439Z</time></trkpt><trkpt lat="40.5550533" lon="8.762455"><ele>444.50000000000006</ele><time>2026-04-19T14:58:40.438Z</time></trkpt><trkpt lat="40.5549833" lon="8.762455"><ele>444.0</ele><time>2026-04-19T14:58:41.438Z</time></trkpt><trkpt lat="40.55491" lon="8.76246"><ele>443.5</ele><time>2026-04-19T14:58:42.438Z</time></trkpt><trkpt lat="40.5548367" lon="8.76247"><ele>443.0</ele><time>2026-04-19T14:58:43.438Z</time></trkpt><trkpt lat="40.5547667" lon="8.7624833"><ele>442.50000000000006</ele><time>2026-04-19T14:58:44.438Z</time></trkpt><trkpt lat="40.5546533" lon="8.762525"><ele>442.0</ele><time>2026-04-19T14:58:46.439Z</time></trkpt><trkpt lat="40.5545467" lon="8.7625383"><ele>441.20000000000005</ele><time>2026-04-19T14:58:48.438Z</time></trkpt><trkpt lat="40.5544617" lon="8.762505"><ele>440.40000000000003</ele><time>2026-04-19T14:58:50.438Z</time></trkpt><trkpt lat="40.5543417" lon="8.76247"><ele>439.59999999999997</ele><time>2026-04-19T14:58:52.438Z</time></trkpt><trkpt lat="40.5542717" lon="8.7624783"><ele>438.79999999999995</ele><time>2026-04-19T14:58:53.438Z</time></trkpt><trkpt lat="40.5541983" lon="8.7624767"><ele>438.0</ele><time>2026-04-19T14:58:54.438Z</time></trkpt><trkpt lat="40.5540867" lon="8.7625"><ele>438.0</ele><time>2026-04-19T14:58:56.438Z</time></trkpt><trkpt lat="40.5539983" lon="8.7625467"><ele>438.0</ele><time>2026-04-19T14:58:58.438Z</time></trkpt><trkpt lat="40.5539433" lon="8.7626"><ele>438.0</ele><time>2026-04-19T14:58:59.438Z</time></trkpt><trkpt lat="40.553885" lon="8.7626717"><ele>438.0</ele><time>2026-04-19T14:59:00.438Z</time></trkpt><trkpt lat="40.5538233" lon="8.7627417"><ele>438.0</ele><time>2026-04-19T14:59:01.439Z</time></trkpt><trkpt lat="40.5537733" lon="8.762805"><ele>438.0</ele><time>2026-04-19T14:59:02.439Z</time></trkpt><trkpt lat="40.5536917" lon="8.7628817"><ele>437.0</ele><time>2026-04-19T14:59:04.439Z</time></trkpt><trkpt lat="40.553585" lon="8.7628967"><ele>436.0</ele><time>2026-04-19T14:59:06.439Z</time></trkpt><trkpt lat="40.5535117" lon="8.7628733"><ele>435.0</ele><time>2026-04-19T14:59:07.439Z</time></trkpt><trkpt lat="40.5534267" lon="8.7628383"><ele>434.0</ele><time>2026-04-19T14:59:08.439Z</time></trkpt><trkpt lat="40.5533433" lon="8.7628033"><ele>433.0</ele><time>2026-04-19T14:59:09.438Z</time></trkpt><trkpt lat="40.5532783" lon="8.7627883"><ele>432.0</ele><time>2026-04-19T14:59:10.438Z</time></trkpt><trkpt lat="40.5531817" lon="8.7627917"><ele>432.0</ele><time>2026-04-19T14:59:12.439Z</time></trkpt><trkpt lat="40.5531367" lon="8.7629283"><ele>432.0</ele><time>2026-04-19T14:59:14.439Z</time></trkpt><trkpt lat="40.5531367" lon="8.7630333"><ele>432.0</ele><time>2026-04-19T14:59:15.439Z</time></trkpt><trkpt lat="40.5531367" lon="8.763135"><ele>432.0</ele><time>2026-04-19T14:59:16.439Z</time></trkpt><trkpt lat="40.553135" lon="8.76323"><ele>432.0</ele><time>2026-04-19T14:59:17.438Z</time></trkpt><trkpt lat="40.5531017" lon="8.7633383"><ele>432.0</ele><time>2026-04-19T14:59:19.438Z</time></trkpt><trkpt lat="40.5530067" lon="8.7633517"><ele>432.0</ele><time>2026-04-19T14:59:21.438Z</time></trkpt><trkpt lat="40.5529383" lon="8.763325"><ele>432.00000000000006</ele><time>2026-04-19T14:59:22.438Z</time></trkpt><trkpt lat="40.5528583" lon="8.76329"><ele>432.00000000000006</ele><time>2026-04-19T14:59:23.439Z</time></trkpt><trkpt lat="40.5527683" lon="8.7632483"><ele>432.0</ele><time>2026-04-19T14:59:24.438Z</time></trkpt><trkpt lat="40.5526717" lon="8.763205"><ele>432.0</ele><time>2026-04-19T14:59:25.438Z</time></trkpt><trkpt lat="40.55257" lon="8.7631533"><ele>432.0</ele><time>2026-04-19T14:59:26.438Z</time></trkpt><trkpt lat="40.552495" lon="8.7631017"><ele>432.00000000000006</ele><time>2026-04-19T14:59:27.439Z</time></trkpt><trkpt lat="40.55243" lon="8.7630567"><ele>432.00000000000006</ele><time>2026-04-19T14:59:28.439Z</time></trkpt><trkpt lat="40.5523417" lon="8.7629717"><ele>432.0</ele><time>2026-04-19T14:59:30.438Z</time></trkpt><trkpt lat="40.5522683" lon="8.7628333"><ele>432.0</ele><time>2026-04-19T14:59:32.439Z</time></trkpt><trkpt lat="40.552185" lon="8.7627583"><ele>432.0</ele><time>2026-04-19T14:59:34.439Z</time></trkpt><trkpt lat="40.552075" lon="8.7628017"><ele>432.0</ele><time>2026-04-19T14:59:36.438Z</time></trkpt><trkpt lat="40.5520367" lon="8.762885"><ele>432.0</ele><time>2026-04-19T14:59:38.438Z</time></trkpt><trkpt lat="40.5520717" lon="8.762975"><ele>432.0</ele><time>2026-04-19T14:59:40.438Z</time></trkpt><trkpt lat="40.5521117" lon="8.763045"><ele>432.0</ele><time>2026-04-19T14:59:41.439Z</time></trkpt><trkpt lat="40.55217" lon="8.7631333"><ele>432.0</ele><time>2026-04-19T14:59:42.439Z</time></trkpt><trkpt lat="40.5522317" lon="8.7632283"><ele>432.0</ele><time>2026-04-19T14:59:43.438Z</time></trkpt><trkpt lat="40.5522833" lon="8.7633483"><ele>432.00000000000006</ele><time>2026-04-19T14:59:44.439Z</time></trkpt><trkpt lat="40.55232" lon="8.7634583"><ele>432.00000000000006</ele><time>2026-04-19T14:59:45.438Z</time></trkpt><trkpt lat="40.5523433" lon="8.7635717"><ele>432.0</ele><time>2026-04-19T14:59:46.438Z</time></trkpt><trkpt lat="40.5523883" lon="8.7637783"><ele>432.0</ele><time>2026-04-19T14:59:48.438Z</time></trkpt><trkpt lat="40.5525067" lon="8.7640767"><ele>432.0</ele><time>2026-04-19T14:59:51.438Z</time></trkpt><trkpt lat="40.552535" lon="8.7641583"><ele>432.0</ele><time>2026-04-19T14:59:52.439Z</time></trkpt><trkpt lat="40.552555" lon="8.7642517"><ele>432.0</ele><time>2026-04-19T14:59:54.438Z</time></trkpt><trkpt lat="40.5525917" lon="8.7643217"><ele>432.0</ele><time>2026-04-19T14:59:59.438Z</time></trkpt><trkpt lat="40.5524783" lon="8.7639717"><ele>432.0</ele><time>2026-04-19T15:00:30.439Z</time></trkpt><trkpt lat="40.5524483" lon="8.763895"><ele>432.0</ele><time>2026-04-19T15:00:31.438Z</time></trkpt><trkpt lat="40.5524117" lon="8.7638167"><ele>432.0</ele><time>2026-04-19T15:00:32.438Z</time></trkpt><trkpt lat="40.5523767" lon="8.7637367"><ele>432.0</ele><time>2026-04-19T15:00:33.438Z</time></trkpt><trkpt lat="40.55234" lon="8.76359"><ele>432.0</ele><time>2026-04-19T15:00:35.438Z</time></trkpt><trkpt lat="40.5523067" lon="8.7634367"><ele>432.0</ele><time>2026-04-19T15:00:37.439Z</time></trkpt><trkpt lat="40.552285" lon="8.7633583"><ele>432.0</ele><time>2026-04-19T15:00:38.439Z</time></trkpt><trkpt lat="40.5522233" lon="8.763215"><ele>432.00000000000006</ele><time>2026-04-19T15:00:40.438Z</time></trkpt><trkpt lat="40.5521483" lon="8.7630967"><ele>432.00000000000006</ele><time>2026-04-19T15:00:42.439Z</time></trkpt><trkpt lat="40.5520833" lon="8.7630017"><ele>432.0</ele><time>2026-04-19T15:00:44.439Z</time></trkpt><trkpt lat="40.5520283" lon="8.762935"><ele>432.0</ele><time>2026-04-19T15:00:46.439Z</time></trkpt><trkpt lat="40.5519633" lon="8.7628867"><ele>432.8333333333333</ele><time>2026-04-19T15:00:48.439Z</time></trkpt><trkpt lat="40.551885" lon="8.7628467"><ele>433.66666666666663</ele><time>2026-04-19T15:00:50.438Z</time></trkpt><trkpt lat="40.551805" lon="8.76277"><ele>434.5</ele><time>2026-04-19T15:00:52.438Z</time></trkpt><trkpt lat="40.55173" lon="8.762715"><ele>435.3333333333333</ele><time>2026-04-19T15:00:54.438Z</time></trkpt><trkpt lat="40.551625" lon="8.76267"><ele>436.16666666666663</ele><time>2026-04-19T15:00:56.438Z</time></trkpt><trkpt lat="40.5515583" lon="8.7626617"><ele>437.0</ele><time>2026-04-19T15:00:57.438Z</time></trkpt><trkpt lat="40.551485" lon="8.76265"><ele>437.40000000000003</ele><time>2026-04-19T15:00:58.439Z</time></trkpt><trkpt lat="40.55142" lon="8.7626433"><ele>437.80000000000007</ele><time>2026-04-19T15:00:59.438Z</time></trkpt><trkpt lat="40.5513067" lon="8.7626433"><ele>438.2</ele><time>2026-04-19T15:01:01.438Z</time></trkpt><trkpt lat="40.551205" lon="8.7626683"><ele>438.6</ele><time>2026-04-19T15:01:03.438Z</time></trkpt><trkpt lat="40.55112" lon="8.7627417"><ele>439.0</ele><time>2026-04-19T15:01:05.438Z</time></trkpt><trkpt lat="40.5510233" lon="8.7628733"><ele>441.00000000000006</ele><time>2026-04-19T15:01:07.439Z</time></trkpt><trkpt lat="40.55096" lon="8.7629533"><ele>443.0</ele><time>2026-04-19T15:01:08.439Z</time></trkpt><trkpt lat="40.5508917" lon="8.7630217"><ele>445.0</ele><time>2026-04-19T15:01:09.439Z</time></trkpt><trkpt lat="40.5508233" lon="8.7630817"><ele>447.0</ele><time>2026-04-19T15:01:10.438Z</time></trkpt><trkpt lat="40.5507467" lon="8.7631383"><ele>449.00000000000006</ele><time>2026-04-19T15:01:11.438Z</time></trkpt><trkpt lat="40.55067" lon="8.76317"><ele>451.0</ele><time>2026-04-19T15:01:12.439Z</time></trkpt><trkpt lat="40.55061" lon="8.763205"><ele>451.0</ele><time>2026-04-19T15:01:13.438Z</time></trkpt><trkpt lat="40.5505167" lon="8.7632467"><ele>451.0</ele><time>2026-04-19T15:01:15.439Z</time></trkpt><trkpt lat="40.550435" lon="8.7632183"><ele>451.0</ele><time>2026-04-19T15:01:18.438Z</time></trkpt><trkpt lat="40.5503867" lon="8.76313"><ele>451.0</ele><time>2026-04-19T15:01:20.438Z</time></trkpt><trkpt lat="40.5503433" lon="8.763025"><ele>451.0</ele><time>2026-04-19T15:01:22.439Z</time></trkpt><trkpt lat="40.5503217" lon="8.762885"><ele>453.0</ele><time>2026-04-19T15:01:24.439Z</time></trkpt><trkpt lat="40.550295" lon="8.7627433"><ele>455.0</ele><time>2026-04-19T15:01:26.439Z</time></trkpt><trkpt lat="40.550235" lon="8.76259"><ele>457.0</ele><time>2026-04-19T15:01:28.438Z</time></trkpt><trkpt lat="40.5501967" lon="8.7625217"><ele>459.0</ele><time>2026-04-19T15:01:29.438Z</time></trkpt><trkpt lat="40.5501433" lon="8.7624617"><ele>461.0</ele><time>2026-04-19T15:01:30.439Z</time></trkpt><trkpt lat="40.5500867" lon="8.7623883"><ele>462.4</ele><time>2026-04-19T15:01:31.438Z</time></trkpt><trkpt lat="40.55" lon="8.76229"><ele>463.8</ele><time>2026-04-19T15:01:33.439Z</time></trkpt><trkpt lat="40.5498783" lon="8.76229"><ele>465.19999999999993</ele><time>2026-04-19T15:01:35.438Z</time></trkpt><trkpt lat="40.5498117" lon="8.7623017"><ele>466.59999999999997</ele><time>2026-04-19T15:01:36.439Z</time></trkpt><trkpt lat="40.5497283" lon="8.7623083"><ele>468.0</ele><time>2026-04-19T15:01:37.439Z</time></trkpt><trkpt lat="40.5496317" lon="8.7623117"><ele>469.1666666666667</ele><time>2026-04-19T15:01:38.439Z</time></trkpt><trkpt lat="40.5495383" lon="8.7623117"><ele>470.33333333333337</ele><time>2026-04-19T15:01:39.438Z</time></trkpt><trkpt lat="40.5494433" lon="8.7623167"><ele>471.5</ele><time>2026-04-19T15:01:40.439Z</time></trkpt><trkpt lat="40.549345" lon="8.7623117"><ele>472.6666666666667</ele><time>2026-04-19T15:01:41.438Z</time></trkpt><trkpt lat="40.54926" lon="8.762315"><ele>473.83333333333337</ele><time>2026-04-19T15:01:42.439Z</time></trkpt><trkpt lat="40.5491883" lon="8.7623217"><ele>475.0</ele><time>2026-04-19T15:01:43.438Z</time></trkpt><trkpt lat="40.5491083" lon="8.762335"><ele>475.0</ele><time>2026-04-19T15:01:44.439Z</time></trkpt><trkpt lat="40.54901" lon="8.7623583"><ele>475.0</ele><time>2026-04-19T15:01:45.438Z</time></trkpt><trkpt lat="40.5489117" lon="8.7623733"><ele>475.0</ele><time>2026-04-19T15:01:46.439Z</time></trkpt><trkpt lat="40.5488217" lon="8.7623867"><ele>475.0</ele><time>2026-04-19T15:01:47.439Z</time></trkpt><trkpt lat="40.5487383" lon="8.762385"><ele>475.0</ele><time>2026-04-19T15:01:48.439Z</time></trkpt><trkpt lat="40.5486567" lon="8.7623683"><ele>475.33333333333337</ele><time>2026-04-19T15:01:49.438Z</time></trkpt><trkpt lat="40.5485817" lon="8.7623483"><ele>475.6666666666667</ele><time>2026-04-19T15:01:50.439Z</time></trkpt><trkpt lat="40.5485117" lon="8.7623333"><ele>476.0</ele><time>2026-04-19T15:01:51.438Z</time></trkpt><trkpt lat="40.54841" lon="8.7622883"><ele>476.33333333333337</ele><time>2026-04-19T15:01:53.439Z</time></trkpt><trkpt lat="40.5483533" lon="8.7622433"><ele>476.6666666666667</ele><time>2026-04-19T15:01:54.439Z</time></trkpt><trkpt lat="40.548295" lon="8.7621933"><ele>477.0</ele><time>2026-04-19T15:01:55.439Z</time></trkpt><trkpt lat="40.5482017" lon="8.7620717"><ele>477.0</ele><time>2026-04-19T15:01:57.439Z</time></trkpt><trkpt lat="40.5481667" lon="8.7619983"><ele>477.0</ele><time>2026-04-19T15:01:58.439Z</time></trkpt><trkpt lat="40.54813" lon="8.7619067"><ele>477.0</ele><time>2026-04-19T15:01:59.438Z</time></trkpt><trkpt lat="40.548095" lon="8.7617983"><ele>477.0</ele><time>2026-04-19T15:02:00.438Z</time></trkpt><trkpt lat="40.548045" lon="8.76171"><ele>477.0</ele><time>2026-04-19T15:02:01.438Z</time></trkpt><trkpt lat="40.5479917" lon="8.761625"><ele>477.0</ele><time>2026-04-19T15:02:02.439Z</time></trkpt><trkpt lat="40.5479367" lon="8.76152"><ele>477.1666666666667</ele><time>2026-04-19T15:02:03.439Z</time></trkpt><trkpt lat="40.547895" lon="8.7614333"><ele>477.33333333333337</ele><time>2026-04-19T15:02:04.438Z</time></trkpt><trkpt lat="40.5478483" lon="8.76135"><ele>477.5</ele><time>2026-04-19T15:02:05.438Z</time></trkpt><trkpt lat="40.547805" lon="8.7612883"><ele>477.6666666666667</ele><time>2026-04-19T15:02:06.438Z</time></trkpt><trkpt lat="40.547755" lon="8.76122"><ele>477.83333333333337</ele><time>2026-04-19T15:02:07.438Z</time></trkpt><trkpt lat="40.5476867" lon="8.7611433"><ele>478.0</ele><time>2026-04-19T15:02:08.439Z</time></trkpt><trkpt lat="40.5476067" lon="8.7610717"><ele>478.59999999999997</ele><time>2026-04-19T15:02:09.438Z</time></trkpt><trkpt lat="40.5475283" lon="8.760995"><ele>479.19999999999993</ele><time>2026-04-19T15:02:10.439Z</time></trkpt><trkpt lat="40.5474383" lon="8.760905"><ele>479.8</ele><time>2026-04-19T15:02:11.438Z</time></trkpt><trkpt lat="40.547355" lon="8.7608283"><ele>480.4</ele><time>2026-04-19T15:02:12.438Z</time></trkpt><trkpt lat="40.5472717" lon="8.7607517"><ele>481.0</ele><time>2026-04-19T15:02:13.439Z</time></trkpt><trkpt lat="40.5471933" lon="8.760675"><ele>481.0</ele><time>2026-04-19T15:02:14.439Z</time></trkpt><trkpt lat="40.54711" lon="8.7605833"><ele>481.0</ele><time>2026-04-19T15:02:15.439Z</time></trkpt><trkpt lat="40.5470183" lon="8.7604867"><ele>481.0</ele><time>2026-04-19T15:02:16.438Z</time></trkpt><trkpt lat="40.54692" lon="8.7604067"><ele>481.0</ele><time>2026-04-19T15:02:17.439Z</time></trkpt><trkpt lat="40.5468383" lon="8.7603367"><ele>481.0</ele><time>2026-04-19T15:02:18.439Z</time></trkpt><trkpt lat="40.54677" lon="8.7602717"><ele>481.1666666666667</ele><time>2026-04-19T15:02:19.438Z</time></trkpt><trkpt lat="40.5467167" lon="8.760185"><ele>481.33333333333337</ele><time>2026-04-19T15:02:20.438Z</time></trkpt><trkpt lat="40.5466683" lon="8.7600783"><ele>481.5</ele><time>2026-04-19T15:02:21.438Z</time></trkpt><trkpt lat="40.5466267" lon="8.759985"><ele>481.66666666666663</ele><time>2026-04-19T15:02:22.438Z</time></trkpt><trkpt lat="40.5465817" lon="8.759915"><ele>481.8333333333333</ele><time>2026-04-19T15:02:23.438Z</time></trkpt><trkpt lat="40.5465283" lon="8.7598617"><ele>482.0</ele><time>2026-04-19T15:02:24.439Z</time></trkpt><trkpt lat="40.5463983" lon="8.7598333"><ele>482.0</ele><time>2026-04-19T15:02:26.438Z</time></trkpt><trkpt lat="40.5463283" lon="8.7598183"><ele>482.00000000000006</ele><time>2026-04-19T15:02:27.439Z</time></trkpt><trkpt lat="40.546225" lon="8.7597617"><ele>482.00000000000006</ele><time>2026-04-19T15:02:29.438Z</time></trkpt><trkpt lat="40.5461367" lon="8.759715"><ele>482.0</ele><time>2026-04-19T15:02:31.439Z</time></trkpt><trkpt lat="40.5460133" lon="8.7596733"><ele>482.0</ele><time>2026-04-19T15:02:33.439Z</time></trkpt><trkpt lat="40.54593" lon="8.759645"><ele>481.6</ele><time>2026-04-19T15:02:34.439Z</time></trkpt><trkpt lat="40.54583" lon="8.7596183"><ele>481.20000000000005</ele><time>2026-04-19T15:02:35.438Z</time></trkpt><trkpt lat="40.5457317" lon="8.7595617"><ele>480.8</ele><time>2026-04-19T15:02:36.438Z</time></trkpt><trkpt lat="40.5456417" lon="8.759505"><ele>480.4</ele><time>2026-04-19T15:02:37.438Z</time></trkpt><trkpt lat="40.5455483" lon="8.7594683"><ele>480.0</ele><time>2026-04-19T15:02:38.438Z</time></trkpt><trkpt lat="40.54545" lon="8.759465"><ele>481.0</ele><time>2026-04-19T15:02:39.438Z</time></trkpt><trkpt lat="40.5453467" lon="8.7594867"><ele>482.0</ele><time>2026-04-19T15:02:40.438Z</time></trkpt><trkpt lat="40.545235" lon="8.75954"><ele>483.0</ele><time>2026-04-19T15:02:41.438Z</time></trkpt><trkpt lat="40.5451167" lon="8.7596033"><ele>484.0</ele><time>2026-04-19T15:02:42.439Z</time></trkpt><trkpt lat="40.5450117" lon="8.7596717"><ele>484.0</ele><time>2026-04-19T15:02:43.438Z</time></trkpt><trkpt lat="40.5449133" lon="8.75973"><ele>484.0</ele><time>2026-04-19T15:02:44.439Z</time></trkpt><trkpt lat="40.5448117" lon="8.75978"><ele>484.0</ele><time>2026-04-19T15:02:45.438Z</time></trkpt><trkpt lat="40.5447083" lon="8.759825"><ele>484.0</ele><time>2026-04-19T15:02:46.439Z</time></trkpt><trkpt lat="40.544605" lon="8.7598617"><ele>484.0</ele><time>2026-04-19T15:02:47.439Z</time></trkpt><trkpt lat="40.5444983" lon="8.7599117"><ele>485.0</ele><time>2026-04-19T15:02:48.438Z</time></trkpt><trkpt lat="40.544385" lon="8.7599583"><ele>486.0</ele><time>2026-04-19T15:02:49.439Z</time></trkpt><trkpt lat="40.5442683" lon="8.760005"><ele>487.0</ele><time>2026-04-19T15:02:50.439Z</time></trkpt><trkpt lat="40.5441583" lon="8.7600417"><ele>488.0</ele><time>2026-04-19T15:02:51.439Z</time></trkpt><trkpt lat="40.5440583" lon="8.7600867"><ele>488.0</ele><time>2026-04-19T15:02:52.438Z</time></trkpt><trkpt lat="40.543955" lon="8.7601417"><ele>487.99999999999994</ele><time>2026-04-19T15:02:53.438Z</time></trkpt><trkpt lat="40.54386" lon="8.76021"><ele>487.99999999999994</ele><time>2026-04-19T15:02:54.439Z</time></trkpt><trkpt lat="40.5437633" lon="8.7602767"><ele>488.0</ele><time>2026-04-19T15:02:55.439Z</time></trkpt><trkpt lat="40.5436667" lon="8.7603433"><ele>488.0</ele><time>2026-04-19T15:02:56.438Z</time></trkpt><trkpt lat="40.5435767" lon="8.7604167"><ele>486.8333333333333</ele><time>2026-04-19T15:02:57.439Z</time></trkpt><trkpt lat="40.5434917" lon="8.7604833"><ele>485.66666666666663</ele><time>2026-04-19T15:02:58.438Z</time></trkpt><trkpt lat="40.5434183" lon="8.76054"><ele>484.5</ele><time>2026-04-19T15:02:59.438Z</time></trkpt><trkpt lat="40.5433517" lon="8.7605867"><ele>483.33333333333337</ele><time>2026-04-19T15:03:00.439Z</time></trkpt><trkpt lat="40.5432933" lon="8.76063"><ele>482.1666666666667</ele><time>2026-04-19T15:03:01.438Z</time></trkpt><trkpt lat="40.5432317" lon="8.76071"><ele>481.0</ele><time>2026-04-19T15:03:03.439Z</time></trkpt><trkpt lat="40.54322" lon="8.76082"><ele>481.00000000000006</ele><time>2026-04-19T15:03:46.439Z</time></trkpt><trkpt lat="40.5432167" lon="8.7609233"><ele>481.0</ele><time>2026-04-19T15:03:48.439Z</time></trkpt><trkpt lat="40.5431783" lon="8.7610267"><ele>481.0</ele><time>2026-04-19T15:03:50.438Z</time></trkpt><trkpt lat="40.5431083" lon="8.761135"><ele>481.0</ele><time>2026-04-19T15:03:52.438Z</time></trkpt><trkpt lat="40.5430667" lon="8.7612267"><ele>481.00000000000006</ele><time>2026-04-19T15:03:54.438Z</time></trkpt><trkpt lat="40.543045" lon="8.7613467"><ele>481.0</ele><time>2026-04-19T15:03:57.438Z</time></trkpt><trkpt lat="40.5430683" lon="8.7614467"><ele>478.1666666666667</ele><time>2026-04-19T15:04:00.438Z</time></trkpt><trkpt lat="40.5430333" lon="8.7615467"><ele>475.33333333333337</ele><time>2026-04-19T15:04:04.439Z</time></trkpt><trkpt lat="40.5429783" lon="8.761605"><ele>472.5</ele><time>2026-04-19T15:04:06.438Z</time></trkpt><trkpt lat="40.5429167" lon="8.7616683"><ele>469.66666666666663</ele><time>2026-04-19T15:04:09.439Z</time></trkpt><trkpt lat="40.5428433" lon="8.7617067"><ele>466.8333333333333</ele><time>2026-04-19T15:04:11.438Z</time></trkpt><trkpt lat="40.5427517" lon="8.761775"><ele>464.0</ele><time>2026-04-19T15:04:13.438Z</time></trkpt><trkpt lat="40.5426667" lon="8.76182"><ele>463.99999999999994</ele><time>2026-04-19T15:04:15.438Z</time></trkpt><trkpt lat="40.542575" lon="8.7618517"><ele>464.0</ele><time>2026-04-19T15:04:17.438Z</time></trkpt><trkpt lat="40.5424967" lon="8.76186"><ele>464.0</ele><time>2026-04-19T15:04:19.439Z</time></trkpt><trkpt lat="40.54241" lon="8.7618633"><ele>464.0</ele><time>2026-04-19T15:04:21.439Z</time></trkpt><trkpt lat="40.542345" lon="8.7618817"><ele>463.99999999999994</ele><time>2026-04-19T15:04:23.439Z</time></trkpt><trkpt lat="40.5422617" lon="8.7619067"><ele>464.0</ele><time>2026-04-19T15:04:26.438Z</time></trkpt><trkpt lat="40.5421883" lon="8.7620283"><ele>461.16666666666663</ele><time>2026-04-19T15:05:01.439Z</time></trkpt><trkpt lat="40.5422" lon="8.76217"><ele>458.3333333333333</ele><time>2026-04-19T15:05:13.439Z</time></trkpt><trkpt lat="40.5421633" lon="8.7622533"><ele>455.5</ele><time>2026-04-19T15:05:22.439Z</time></trkpt><trkpt lat="40.5421167" lon="8.7623517"><ele>452.66666666666663</ele><time>2026-04-19T15:05:25.439Z</time></trkpt><trkpt lat="40.5420683" lon="8.7624483"><ele>449.8333333333333</ele><time>2026-04-19T15:05:28.439Z</time></trkpt><trkpt lat="40.5420167" lon="8.7625217"><ele>447.0</ele><time>2026-04-19T15:05:31.439Z</time></trkpt><trkpt lat="40.5419567" lon="8.7626"><ele>447.0</ele><time>2026-04-19T15:05:33.438Z</time></trkpt><trkpt lat="40.5418917" lon="8.7626783"><ele>447.0</ele><time>2026-04-19T15:05:35.439Z</time></trkpt><trkpt lat="40.541825" lon="8.762735"><ele>447.0</ele><time>2026-04-19T15:05:38.439Z</time></trkpt><trkpt lat="40.5417483" lon="8.7627583"><ele>447.0</ele><time>2026-04-19T15:08:02.437Z</time></trkpt><trkpt lat="40.5416733" lon="8.7627817"><ele>447.0</ele><time>2026-04-19T15:08:04.437Z</time></trkpt><trkpt lat="40.5416067" lon="8.7627867"><ele>447.0</ele><time>2026-04-19T15:08:06.437Z</time></trkpt><trkpt lat="40.5415183" lon="8.762785"><ele>443.3333333333333</ele><time>2026-04-19T15:08:09.438Z</time></trkpt><trkpt lat="40.5414533" lon="8.7627817"><ele>439.66666666666663</ele><time>2026-04-19T15:08:11.438Z</time></trkpt><trkpt lat="40.54139" lon="8.76278"><ele>436.0</ele><time>2026-04-19T15:08:13.438Z</time></trkpt><trkpt lat="40.5413167" lon="8.7627733"><ele>432.3333333333333</ele><time>2026-04-19T15:08:15.438Z</time></trkpt><trkpt lat="40.5412467" lon="8.7627367"><ele>428.66666666666663</ele><time>2026-04-19T15:08:17.437Z</time></trkpt><trkpt lat="40.5411533" lon="8.762715"><ele>425.0</ele><time>2026-04-19T15:08:19.437Z</time></trkpt><trkpt lat="40.5410583" lon="8.762755"><ele>423.8333333333333</ele><time>2026-04-19T15:08:21.438Z</time></trkpt><trkpt lat="40.5409867" lon="8.762795"><ele>422.66666666666663</ele><time>2026-04-19T15:08:23.438Z</time></trkpt><trkpt lat="40.5409133" lon="8.7627967"><ele>421.5</ele><time>2026-04-19T15:08:25.437Z</time></trkpt><trkpt lat="40.5408367" lon="8.7627933"><ele>420.33333333333337</ele><time>2026-04-19T15:08:27.437Z</time></trkpt><trkpt lat="40.5407683" lon="8.762795"><ele>419.1666666666667</ele><time>2026-04-19T15:08:29.437Z</time></trkpt><trkpt lat="40.540685" lon="8.76281"><ele>418.0</ele><time>2026-04-19T15:08:31.438Z</time></trkpt><trkpt lat="40.5405917" lon="8.76285"><ele>418.0</ele><time>2026-04-19T15:08:33.438Z</time></trkpt><trkpt lat="40.5404867" lon="8.762905"><ele>418.0</ele><time>2026-04-19T15:08:35.438Z</time></trkpt><trkpt lat="40.5404067" lon="8.7629817"><ele>418.0</ele><time>2026-04-19T15:08:37.438Z</time></trkpt><trkpt lat="40.540325" lon="8.76302"><ele>418.0</ele><time>2026-04-19T15:08:39.437Z</time></trkpt><trkpt lat="40.5402267" lon="8.76302"><ele>418.0</ele><time>2026-04-19T15:08:41.438Z</time></trkpt><trkpt lat="40.5401633" lon="8.7630083"><ele>416.1666666666667</ele><time>2026-04-19T15:08:42.438Z</time></trkpt><trkpt lat="40.5400983" lon="8.7630067"><ele>414.33333333333337</ele><time>2026-04-19T15:08:43.437Z</time></trkpt><trkpt lat="40.5400267" lon="8.7630233"><ele>412.5</ele><time>2026-04-19T15:08:44.438Z</time></trkpt><trkpt lat="40.5399417" lon="8.76306"><ele>410.66666666666663</ele><time>2026-04-19T15:08:45.437Z</time></trkpt><trkpt lat="40.5398517" lon="8.7630783"><ele>408.8333333333333</ele><time>2026-04-19T15:08:46.438Z</time></trkpt><trkpt lat="40.5397467" lon="8.7630767"><ele>407.0</ele><time>2026-04-19T15:08:47.438Z</time></trkpt><trkpt lat="40.5396333" lon="8.763065"><ele>408.0</ele><time>2026-04-19T15:08:48.438Z</time></trkpt><trkpt lat="40.539515" lon="8.76306"><ele>409.0</ele><time>2026-04-19T15:08:49.437Z</time></trkpt><trkpt lat="40.5393983" lon="8.7630533"><ele>410.0</ele><time>2026-04-19T15:08:50.437Z</time></trkpt><trkpt lat="40.5392933" lon="8.7630417"><ele>411.0</ele><time>2026-04-19T15:08:51.437Z</time></trkpt><trkpt lat="40.5392033" lon="8.7630367"><ele>412.0</ele><time>2026-04-19T15:08:52.437Z</time></trkpt><trkpt lat="40.5391283" lon="8.7630383"><ele>412.0</ele><time>2026-04-19T15:08:53.437Z</time></trkpt><trkpt lat="40.539005" lon="8.7630883"><ele>412.0</ele><time>2026-04-19T15:08:55.437Z</time></trkpt><trkpt lat="40.53894" lon="8.763155"><ele>412.0</ele><time>2026-04-19T15:08:56.438Z</time></trkpt><trkpt lat="40.5388733" lon="8.7632267"><ele>412.0</ele><time>2026-04-19T15:08:57.437Z</time></trkpt><trkpt lat="40.5388167" lon="8.7632983"><ele>412.0</ele><time>2026-04-19T15:08:58.438Z</time></trkpt><trkpt lat="40.5387667" lon="8.763375"><ele>412.00000000000006</ele><time>2026-04-19T15:08:59.437Z</time></trkpt><trkpt lat="40.5387283" lon="8.7634467"><ele>412.0</ele><time>2026-04-19T15:09:00.437Z</time></trkpt><trkpt lat="40.5386967" lon="8.76352"><ele>412.0</ele><time>2026-04-19T15:09:01.437Z</time></trkpt><trkpt lat="40.5386333" lon="8.7636117"><ele>412.0</ele><time>2026-04-19T15:09:03.437Z</time></trkpt><trkpt lat="40.5385217" lon="8.7636667"><ele>412.00000000000006</ele><time>2026-04-19T15:09:05.437Z</time></trkpt><trkpt lat="40.53845" lon="8.7636867"><ele>412.0</ele><time>2026-04-19T15:09:06.438Z</time></trkpt><trkpt lat="40.5383767" lon="8.7637133"><ele>410.0</ele><time>2026-04-19T15:09:07.438Z</time></trkpt><trkpt lat="40.5382633" lon="8.76374"><ele>408.0</ele><time>2026-04-19T15:09:09.438Z</time></trkpt><trkpt lat="40.53818" lon="8.76376"><ele>406.0</ele><time>2026-04-19T15:09:11.438Z</time></trkpt><trkpt lat="40.5381233" lon="8.76383"><ele>404.0</ele><time>2026-04-19T15:09:13.437Z</time></trkpt><trkpt lat="40.5380733" lon="8.76397"><ele>402.0</ele><time>2026-04-19T15:09:15.438Z</time></trkpt><trkpt lat="40.538025" lon="8.7641183"><ele>402.0</ele><time>2026-04-19T15:09:17.437Z</time></trkpt><trkpt lat="40.5379733" lon="8.764275"><ele>402.0</ele><time>2026-04-19T15:09:19.437Z</time></trkpt><trkpt lat="40.5379467" lon="8.76436"><ele>402.0</ele><time>2026-04-19T15:09:20.437Z</time></trkpt><trkpt lat="40.537895" lon="8.7644983"><ele>402.0</ele><time>2026-04-19T15:09:22.437Z</time></trkpt><trkpt lat="40.53785" lon="8.7645883"><ele>402.0</ele><time>2026-04-19T15:09:25.437Z</time></trkpt><trkpt lat="40.5377867" lon="8.7645533"><ele>402.5</ele><time>2026-04-19T15:09:27.437Z</time></trkpt><trkpt lat="40.53773" lon="8.764515"><ele>403.0</ele><time>2026-04-19T15:09:28.437Z</time></trkpt><trkpt lat="40.5376717" lon="8.7644667"><ele>403.5</ele><time>2026-04-19T15:09:29.438Z</time></trkpt><trkpt lat="40.537615" lon="8.764425"><ele>404.0</ele><time>2026-04-19T15:09:30.438Z</time></trkpt><trkpt lat="40.537545" lon="8.7643817"><ele>404.5</ele><time>2026-04-19T15:09:31.438Z</time></trkpt><trkpt lat="40.537485" lon="8.7643317"><ele>405.0</ele><time>2026-04-19T15:09:32.438Z</time></trkpt><trkpt lat="40.5373883" lon="8.7642733"><ele>405.0</ele><time>2026-04-19T15:09:34.438Z</time></trkpt><trkpt lat="40.53731" lon="8.7642317"><ele>405.0</ele><time>2026-04-19T15:09:36.437Z</time></trkpt><trkpt lat="40.537245" lon="8.76419"><ele>405.0</ele><time>2026-04-19T15:09:38.438Z</time></trkpt><trkpt lat="40.5371583" lon="8.7641333"><ele>405.0</ele><time>2026-04-19T15:09:41.438Z</time></trkpt><trkpt lat="40.53708" lon="8.76408"><ele>405.0</ele><time>2026-04-19T15:09:43.438Z</time></trkpt><trkpt lat="40.5369683" lon="8.7639817"><ele>403.2</ele><time>2026-04-19T15:09:45.438Z</time></trkpt><trkpt lat="40.5369" lon="8.7639033"><ele>401.4</ele><time>2026-04-19T15:09:46.438Z</time></trkpt><trkpt lat="40.536825" lon="8.7638167"><ele>399.6</ele><time>2026-04-19T15:09:47.437Z</time></trkpt><trkpt lat="40.5367333" lon="8.7637133"><ele>397.8</ele><time>2026-04-19T15:09:48.438Z</time></trkpt><trkpt lat="40.5366317" lon="8.7636433"><ele>396.0</ele><time>2026-04-19T15:09:49.437Z</time></trkpt><trkpt lat="40.536525" lon="8.76361"><ele>396.0</ele><time>2026-04-19T15:09:50.438Z</time></trkpt><trkpt lat="40.5364183" lon="8.7636117"><ele>396.0</ele><time>2026-04-19T15:09:51.437Z</time></trkpt><trkpt lat="40.5363233" lon="8.7636267"><ele>396.0</ele><time>2026-04-19T15:09:52.437Z</time></trkpt><trkpt lat="40.536245" lon="8.7636567"><ele>396.0</ele><time>2026-04-19T15:09:53.438Z</time></trkpt><trkpt lat="40.536175" lon="8.7636967"><ele>396.0</ele><time>2026-04-19T15:09:54.437Z</time></trkpt><trkpt lat="40.5361133" lon="8.76375"><ele>396.0</ele><time>2026-04-19T15:09:55.437Z</time></trkpt><trkpt lat="40.5360517" lon="8.763805"><ele>396.3333333333333</ele><time>2026-04-19T15:09:56.437Z</time></trkpt><trkpt lat="40.536005" lon="8.7638667"><ele>396.66666666666663</ele><time>2026-04-19T15:09:57.438Z</time></trkpt><trkpt lat="40.5359467" lon="8.7639067"><ele>397.0</ele><time>2026-04-19T15:09:58.437Z</time></trkpt><trkpt lat="40.5358233" lon="8.76395"><ele>397.3333333333333</ele><time>2026-04-19T15:10:00.438Z</time></trkpt><trkpt lat="40.535755" lon="8.76395"><ele>397.66666666666663</ele><time>2026-04-19T15:10:01.437Z</time></trkpt><trkpt lat="40.5356883" lon="8.763935"><ele>398.0</ele><time>2026-04-19T15:10:02.437Z</time></trkpt><trkpt lat="40.5356267" lon="8.763905"><ele>397.99999999999994</ele><time>2026-04-19T15:10:03.437Z</time></trkpt><trkpt lat="40.535565" lon="8.7638717"><ele>398.0</ele><time>2026-04-19T15:10:04.437Z</time></trkpt><trkpt lat="40.5355033" lon="8.763835"><ele>398.0</ele><time>2026-04-19T15:10:05.437Z</time></trkpt><trkpt lat="40.535395" lon="8.763775"><ele>398.0</ele><time>2026-04-19T15:10:07.438Z</time></trkpt><trkpt lat="40.5353333" lon="8.763745"><ele>397.99999999999994</ele><time>2026-04-19T15:10:08.438Z</time></trkpt><trkpt lat="40.5352283" lon="8.763685"><ele>398.0</ele><time>2026-04-19T15:10:10.437Z</time></trkpt><trkpt lat="40.5351217" lon="8.76362"><ele>397.49999999999994</ele><time>2026-04-19T15:10:12.438Z</time></trkpt><trkpt lat="40.5350617" lon="8.7635833"><ele>397.0</ele><time>2026-04-19T15:10:13.438Z</time></trkpt><trkpt lat="40.5349933" lon="8.7635533"><ele>396.5</ele><time>2026-04-19T15:10:14.437Z</time></trkpt><trkpt lat="40.53492" lon="8.763525"><ele>396.0</ele><time>2026-04-19T15:10:15.437Z</time></trkpt><trkpt lat="40.5348383" lon="8.7634983"><ele>395.49999999999994</ele><time>2026-04-19T15:10:16.437Z</time></trkpt><trkpt lat="40.5347567" lon="8.7634683"><ele>395.0</ele><time>2026-04-19T15:10:17.437Z</time></trkpt><trkpt lat="40.5346733" lon="8.76345"><ele>396.16666666666663</ele><time>2026-04-19T15:10:18.437Z</time></trkpt><trkpt lat="40.5345967" lon="8.7634117"><ele>397.3333333333333</ele><time>2026-04-19T15:10:19.438Z</time></trkpt><trkpt lat="40.5345167" lon="8.7633817"><ele>398.5</ele><time>2026-04-19T15:10:20.437Z</time></trkpt><trkpt lat="40.534445" lon="8.7633483"><ele>399.66666666666663</ele><time>2026-04-19T15:10:21.437Z</time></trkpt><trkpt lat="40.5343733" lon="8.763305"><ele>400.8333333333333</ele><time>2026-04-19T15:10:22.438Z</time></trkpt><trkpt lat="40.53431" lon="8.7632633"><ele>402.0</ele><time>2026-04-19T15:10:23.438Z</time></trkpt><trkpt lat="40.5342467" lon="8.7632217"><ele>402.0</ele><time>2026-04-19T15:10:24.437Z</time></trkpt><trkpt lat="40.53414" lon="8.763175"><ele>402.0</ele><time>2026-04-19T15:10:26.438Z</time></trkpt><trkpt lat="40.53407" lon="8.7631617"><ele>402.0</ele><time>2026-04-19T15:10:28.438Z</time></trkpt><trkpt lat="40.5340667" lon="8.7630467"><ele>402.0</ele><time>2026-04-19T15:10:33.438Z</time></trkpt><trkpt lat="40.53408" lon="8.76296"><ele>402.0</ele><time>2026-04-19T15:10:35.438Z</time></trkpt><trkpt lat="40.5341217" lon="8.762845"><ele>402.0</ele><time>2026-04-19T15:10:37.438Z</time></trkpt><trkpt lat="40.53416" lon="8.7627267"><ele>403.40000000000003</ele><time>2026-04-19T15:10:39.438Z</time></trkpt><trkpt lat="40.53419" lon="8.7625783"><ele>404.8</ele><time>2026-04-19T15:10:41.437Z</time></trkpt><trkpt lat="40.5342017" lon="8.7624617"><ele>406.2</ele><time>2026-04-19T15:10:43.437Z</time></trkpt><trkpt lat="40.5341933" lon="8.7623567"><ele>407.6</ele><time>2026-04-19T15:10:45.438Z</time></trkpt><trkpt lat="40.5341917" lon="8.7622467"><ele>409.0</ele><time>2026-04-19T15:10:47.438Z</time></trkpt><trkpt lat="40.53418" lon="8.762125"><ele>409.00000000000006</ele><time>2026-04-19T15:10:49.438Z</time></trkpt><trkpt lat="40.5341783" lon="8.7620267"><ele>409.0</ele><time>2026-04-19T15:10:51.437Z</time></trkpt><trkpt lat="40.534175" lon="8.7619167"><ele>409.0</ele><time>2026-04-19T15:10:53.437Z</time></trkpt><trkpt lat="40.5341533" lon="8.7617917"><ele>409.0</ele><time>2026-04-19T15:10:55.438Z</time></trkpt><trkpt lat="40.5341417" lon="8.761675"><ele>409.00000000000006</ele><time>2026-04-19T15:10:57.438Z</time></trkpt><trkpt lat="40.5341333" lon="8.7615617"><ele>409.0</ele><time>2026-04-19T15:10:59.438Z</time></trkpt><trkpt lat="40.5341" lon="8.7614817"><ele>409.50000000000006</ele><time>2026-04-19T15:11:01.438Z</time></trkpt><trkpt lat="40.5340433" lon="8.7614383"><ele>410.0</ele><time>2026-04-19T15:11:04.437Z</time></trkpt><trkpt lat="40.5340517" lon="8.761345"><ele>410.5</ele><time>2026-04-19T15:11:13.437Z</time></trkpt><trkpt lat="40.53399" lon="8.7612867"><ele>411.0</ele><time>2026-04-19T15:18:55.438Z</time></trkpt><trkpt lat="40.5339133" lon="8.7611717"><ele>411.50000000000006</ele><time>2026-04-19T15:18:57.437Z</time></trkpt><trkpt lat="40.5338533" lon="8.761115"><ele>412.0</ele><time>2026-04-19T15:18:58.437Z</time></trkpt><trkpt lat="40.5337917" lon="8.76105"><ele>412.6</ele><time>2026-04-19T15:18:59.438Z</time></trkpt><trkpt lat="40.5337317" lon="8.7609633"><ele>413.20000000000005</ele><time>2026-04-19T15:19:00.437Z</time></trkpt><trkpt lat="40.5336783" lon="8.760905"><ele>413.8</ele><time>2026-04-19T15:19:01.437Z</time></trkpt><trkpt lat="40.533595" lon="8.7607767"><ele>414.4</ele><time>2026-04-19T15:19:03.438Z</time></trkpt><trkpt lat="40.5335283" lon="8.7606267"><ele>415.0</ele><time>2026-04-19T15:19:05.438Z</time></trkpt><trkpt lat="40.5335" lon="8.7605467"><ele>415.00000000000006</ele><time>2026-04-19T15:19:06.437Z</time></trkpt><trkpt lat="40.5334567" lon="8.7604717"><ele>415.0</ele><time>2026-04-19T15:19:07.438Z</time></trkpt><trkpt lat="40.5334067" lon="8.7603867"><ele>415.0</ele><time>2026-04-19T15:19:08.438Z</time></trkpt><trkpt lat="40.533355" lon="8.7602867"><ele>415.0</ele><time>2026-04-19T15:19:09.437Z</time></trkpt><trkpt lat="40.5332933" lon="8.7602017"><ele>415.00000000000006</ele><time>2026-04-19T15:19:10.437Z</time></trkpt><trkpt lat="40.5332283" lon="8.7601117"><ele>415.0</ele><time>2026-04-19T15:19:11.438Z</time></trkpt><trkpt lat="40.5331533" lon="8.7600367"><ele>415.2</ele><time>2026-04-19T15:19:12.438Z</time></trkpt><trkpt lat="40.5330783" lon="8.7599733"><ele>415.4</ele><time>2026-04-19T15:19:13.437Z</time></trkpt><trkpt lat="40.5330033" lon="8.7599117"><ele>415.6</ele><time>2026-04-19T15:19:14.438Z</time></trkpt><trkpt lat="40.5329267" lon="8.7598383"><ele>415.8</ele><time>2026-04-19T15:19:15.437Z</time></trkpt><trkpt lat="40.5328417" lon="8.75977"><ele>416.0</ele><time>2026-04-19T15:19:16.438Z</time></trkpt><trkpt lat="40.5327583" lon="8.75969"><ele>414.0</ele><time>2026-04-19T15:19:17.437Z</time></trkpt><trkpt lat="40.53267" lon="8.759625"><ele>412.0</ele><time>2026-04-19T15:19:18.438Z</time></trkpt><trkpt lat="40.5325783" lon="8.75957"><ele>410.0</ele><time>2026-04-19T15:19:19.437Z</time></trkpt><trkpt lat="40.5324883" lon="8.759515"><ele>408.0</ele><time>2026-04-19T15:19:20.438Z</time></trkpt><trkpt lat="40.5324" lon="8.7594567"><ele>406.0</ele><time>2026-04-19T15:19:21.437Z</time></trkpt><trkpt lat="40.5323167" lon="8.75941"><ele>405.6</ele><time>2026-04-19T15:19:22.438Z</time></trkpt><trkpt lat="40.5322367" lon="8.7593567"><ele>405.20000000000005</ele><time>2026-04-19T15:19:23.434Z</time></trkpt><trkpt lat="40.5321633" lon="8.759305"><ele>404.79999999999995</ele><time>2026-04-19T15:19:24.438Z</time></trkpt><trkpt lat="40.5320917" lon="8.7592233"><ele>404.4</ele><time>2026-04-19T15:19:25.437Z</time></trkpt><trkpt lat="40.532015" lon="8.7591367"><ele>404.0</ele><time>2026-04-19T15:19:26.437Z</time></trkpt><trkpt lat="40.5319333" lon="8.759045"><ele>404.0</ele><time>2026-04-19T15:19:27.437Z</time></trkpt><trkpt lat="40.53186" lon="8.758945"><ele>404.0</ele><time>2026-04-19T15:19:28.438Z</time></trkpt><trkpt lat="40.5317817" lon="8.75886"><ele>404.0</ele><time>2026-04-19T15:19:29.437Z</time></trkpt><trkpt lat="40.5316967" lon="8.758795"><ele>404.0</ele><time>2026-04-19T15:19:30.437Z</time></trkpt><trkpt lat="40.531605" lon="8.7587433"><ele>404.0</ele><time>2026-04-19T15:19:31.437Z</time></trkpt><trkpt lat="40.5315017" lon="8.7587033"><ele>404.0</ele><time>2026-04-19T15:19:32.438Z</time></trkpt><trkpt lat="40.5313933" lon="8.758685"><ele>404.0</ele><time>2026-04-19T15:19:33.438Z</time></trkpt><trkpt lat="40.53128" lon="8.7586667"><ele>404.0</ele><time>2026-04-19T15:19:34.438Z</time></trkpt><trkpt lat="40.531175" lon="8.7586467"><ele>404.0</ele><time>2026-04-19T15:19:35.437Z</time></trkpt><trkpt lat="40.5310717" lon="8.7586267"><ele>404.0</ele><time>2026-04-19T15:19:36.437Z</time></trkpt><trkpt lat="40.5309683" lon="8.7586067"><ele>403.6</ele><time>2026-04-19T15:19:37.437Z</time></trkpt><trkpt lat="40.5308633" lon="8.7585833"><ele>403.2</ele><time>2026-04-19T15:19:38.437Z</time></trkpt><trkpt lat="40.5307617" lon="8.7585633"><ele>402.8</ele><time>2026-04-19T15:19:39.437Z</time></trkpt><trkpt lat="40.5306717" lon="8.75854"><ele>402.40000000000003</ele><time>2026-04-19T15:19:40.437Z</time></trkpt><trkpt lat="40.5305883" lon="8.75851"><ele>402.0</ele><time>2026-04-19T15:19:41.437Z</time></trkpt><trkpt lat="40.5305233" lon="8.758465"><ele>402.1666666666667</ele><time>2026-04-19T15:19:42.438Z</time></trkpt><trkpt lat="40.530445" lon="8.7584233"><ele>402.33333333333337</ele><time>2026-04-19T15:19:44.437Z</time></trkpt><trkpt lat="40.5304133" lon="8.7585"><ele>402.5</ele><time>2026-04-19T15:19:47.437Z</time></trkpt><trkpt lat="40.5303883" lon="8.7585833"><ele>402.6666666666667</ele><time>2026-04-19T15:19:53.438Z</time></trkpt><trkpt lat="40.530295" lon="8.7586233"><ele>402.83333333333337</ele><time>2026-04-19T15:19:55.438Z</time></trkpt><trkpt lat="40.5302333" lon="8.758655"><ele>403.0</ele><time>2026-04-19T15:19:56.438Z</time></trkpt><trkpt lat="40.5301667" lon="8.7586867"><ele>403.00000000000006</ele><time>2026-04-19T15:19:57.438Z</time></trkpt><trkpt lat="40.5301" lon="8.7587267"><ele>403.0</ele><time>2026-04-19T15:19:58.438Z</time></trkpt><trkpt lat="40.5300367" lon="8.7587783"><ele>403.0</ele><time>2026-04-19T15:19:59.437Z</time></trkpt><trkpt lat="40.5299767" lon="8.75884"><ele>403.0</ele><time>2026-04-19T15:20:00.437Z</time></trkpt><trkpt lat="40.5299083" lon="8.7588967"><ele>403.00000000000006</ele><time>2026-04-19T15:20:01.437Z</time></trkpt><trkpt lat="40.52984" lon="8.758945"><ele>403.0</ele><time>2026-04-19T15:20:02.437Z</time></trkpt><trkpt lat="40.529765" lon="8.7589833"><ele>403.0</ele><time>2026-04-19T15:20:03.437Z</time></trkpt><trkpt lat="40.5296783" lon="8.7589983"><ele>403.0</ele><time>2026-04-19T15:20:04.437Z</time></trkpt><trkpt lat="40.5295767" lon="8.7589917"><ele>403.0</ele><time>2026-04-19T15:20:05.437Z</time></trkpt><trkpt lat="40.5294667" lon="8.758985"><ele>403.0</ele><time>2026-04-19T15:20:06.437Z</time></trkpt><trkpt lat="40.5293433" lon="8.7589767"><ele>403.0</ele><time>2026-04-19T15:20:07.437Z</time></trkpt><trkpt lat="40.5292267" lon="8.7589683"><ele>402.0</ele><time>2026-04-19T15:20:08.438Z</time></trkpt><trkpt lat="40.529105" lon="8.7589583"><ele>401.0</ele><time>2026-04-19T15:20:09.437Z</time></trkpt><trkpt lat="40.528995" lon="8.75895"><ele>400.0</ele><time>2026-04-19T15:20:10.438Z</time></trkpt><trkpt lat="40.5288867" lon="8.75894"><ele>399.0</ele><time>2026-04-19T15:20:11.438Z</time></trkpt><trkpt lat="40.5287683" lon="8.758935"><ele>397.75</ele><time>2026-04-19T15:20:12.438Z</time></trkpt><trkpt lat="40.52865" lon="8.7589233"><ele>396.5</ele><time>2026-04-19T15:20:13.438Z</time></trkpt><trkpt lat="40.528535" lon="8.7589"><ele>395.25</ele><time>2026-04-19T15:20:14.438Z</time></trkpt><trkpt lat="40.52841" lon="8.7588717"><ele>394.0</ele><time>2026-04-19T15:20:15.438Z</time></trkpt><trkpt lat="40.5282867" lon="8.7588367"><ele>394.0</ele><time>2026-04-19T15:20:16.438Z</time></trkpt><trkpt lat="40.528175" lon="8.7587917"><ele>394.0</ele><time>2026-04-19T15:20:17.438Z</time></trkpt><trkpt lat="40.5280617" lon="8.758745"><ele>394.0</ele><time>2026-04-19T15:20:18.437Z</time></trkpt><trkpt lat="40.527945" lon="8.7586967"><ele>394.0</ele><time>2026-04-19T15:20:19.437Z</time></trkpt><trkpt lat="40.5278333" lon="8.7586533"><ele>393.6666666666667</ele><time>2026-04-19T15:20:20.437Z</time></trkpt><trkpt lat="40.527735" lon="8.7586033"><ele>393.33333333333337</ele><time>2026-04-19T15:20:21.437Z</time></trkpt><trkpt lat="40.5276517" lon="8.7585617"><ele>393.0</ele><time>2026-04-19T15:20:22.438Z</time></trkpt><trkpt lat="40.527585" lon="8.758535"><ele>392.66666666666663</ele><time>2026-04-19T15:20:23.437Z</time></trkpt><trkpt lat="40.5274917" lon="8.758505"><ele>392.3333333333333</ele><time>2026-04-19T15:20:25.437Z</time></trkpt><trkpt lat="40.527405" lon="8.75849"><ele>392.0</ele><time>2026-04-19T15:20:27.438Z</time></trkpt><trkpt lat="40.5273167" lon="8.7584783"><ele>392.0</ele><time>2026-04-19T15:20:29.437Z</time></trkpt><trkpt lat="40.527235" lon="8.7584667"><ele>392.0</ele><time>2026-04-19T15:20:31.438Z</time></trkpt><trkpt lat="40.52713" lon="8.75843"><ele>392.0</ele><time>2026-04-19T15:21:27.437Z</time></trkpt><trkpt lat="40.5270167" lon="8.7583783"><ele>392.0</ele><time>2026-04-19T15:21:29.436Z</time></trkpt><trkpt lat="40.52694" lon="8.7583583"><ele>392.0</ele><time>2026-04-19T15:21:30.437Z</time></trkpt><trkpt lat="40.5268467" lon="8.7583383"><ele>391.8</ele><time>2026-04-19T15:21:31.437Z</time></trkpt><trkpt lat="40.5267483" lon="8.7583167"><ele>391.6</ele><time>2026-04-19T15:21:32.436Z</time></trkpt><trkpt lat="40.5266517" lon="8.75829"><ele>391.40000000000003</ele><time>2026-04-19T15:21:33.436Z</time></trkpt><trkpt lat="40.526555" lon="8.758265"><ele>391.20000000000005</ele><time>2026-04-19T15:21:34.437Z</time></trkpt><trkpt lat="40.526465" lon="8.758235"><ele>391.0</ele><time>2026-04-19T15:21:35.436Z</time></trkpt><trkpt lat="40.52638" lon="8.7582083"><ele>391.00000000000006</ele><time>2026-04-19T15:21:36.436Z</time></trkpt><trkpt lat="40.526305" lon="8.7581767"><ele>391.0</ele><time>2026-04-19T15:21:37.436Z</time></trkpt><trkpt lat="40.5262333" lon="8.758155"><ele>391.0</ele><time>2026-04-19T15:21:38.436Z</time></trkpt><trkpt lat="40.5261683" lon="8.75812"><ele>391.0</ele><time>2026-04-19T15:21:39.437Z</time></trkpt><trkpt lat="40.5261033" lon="8.7580833"><ele>391.00000000000006</ele><time>2026-04-19T15:21:40.436Z</time></trkpt><trkpt lat="40.5260433" lon="8.7580467"><ele>391.0</ele><time>2026-04-19T15:21:41.436Z</time></trkpt><trkpt lat="40.5259517" lon="8.758005"><ele>391.0</ele><time>2026-04-19T15:21:43.436Z</time></trkpt><trkpt lat="40.525885" lon="8.7579867"><ele>391.0</ele><time>2026-04-19T15:21:45.436Z</time></trkpt><trkpt lat="40.5258367" lon="8.75789"><ele>391.0</ele><time>2026-04-19T15:21:48.437Z</time></trkpt><trkpt lat="40.5258517" lon="8.7577667"><ele>391.0</ele><time>2026-04-19T15:21:50.437Z</time></trkpt><trkpt lat="40.5258667" lon="8.7576383"><ele>391.0</ele><time>2026-04-19T15:22:10.436Z</time></trkpt><trkpt lat="40.5258583" lon="8.757505"><ele>391.00000000000006</ele><time>2026-04-19T15:22:12.437Z</time></trkpt><trkpt lat="40.52584" lon="8.7573417"><ele>391.0</ele><time>2026-04-19T15:22:14.436Z</time></trkpt><trkpt lat="40.5258283" lon="8.757245"><ele>391.0</ele><time>2026-04-19T15:22:15.436Z</time></trkpt><trkpt lat="40.5258217" lon="8.7571383"><ele>391.0</ele><time>2026-04-19T15:22:16.437Z</time></trkpt><trkpt lat="40.5258083" lon="8.75704"><ele>391.00000000000006</ele><time>2026-04-19T15:22:17.437Z</time></trkpt><trkpt lat="40.5257933" lon="8.7569317"><ele>391.0</ele><time>2026-04-19T15:22:18.436Z</time></trkpt><trkpt lat="40.52576" lon="8.75682"><ele>391.6</ele><time>2026-04-19T15:22:19.436Z</time></trkpt><trkpt lat="40.5257283" lon="8.7566967"><ele>392.20000000000005</ele><time>2026-04-19T15:22:20.436Z</time></trkpt><trkpt lat="40.5256967" lon="8.756555"><ele>392.79999999999995</ele><time>2026-04-19T15:22:21.436Z</time></trkpt><trkpt lat="40.5256633" lon="8.7564"><ele>393.4</ele><time>2026-04-19T15:22:22.437Z</time></trkpt><trkpt lat="40.5256283" lon="8.7562567"><ele>394.0</ele><time>2026-04-19T15:22:23.437Z</time></trkpt><trkpt lat="40.5256" lon="8.7561233"><ele>395.2</ele><time>2026-04-19T15:22:24.436Z</time></trkpt><trkpt lat="40.5255733" lon="8.7559867"><ele>396.4</ele><time>2026-04-19T15:22:25.437Z</time></trkpt><trkpt lat="40.5255433" lon="8.7558533"><ele>397.6</ele><time>2026-04-19T15:22:26.436Z</time></trkpt><trkpt lat="40.52552" lon="8.7557133"><ele>398.8</ele><time>2026-04-19T15:22:27.436Z</time></trkpt><trkpt lat="40.52549" lon="8.7555683"><ele>400.0</ele><time>2026-04-19T15:22:28.436Z</time></trkpt><trkpt lat="40.52546" lon="8.75544"><ele>400.0</ele><time>2026-04-19T15:22:29.436Z</time></trkpt><trkpt lat="40.5254267" lon="8.7553167"><ele>400.0</ele><time>2026-04-19T15:22:30.436Z</time></trkpt><trkpt lat="40.5253867" lon="8.7552"><ele>400.0</ele><time>2026-04-19T15:22:31.436Z</time></trkpt><trkpt lat="40.5253383" lon="8.75509"><ele>400.0</ele><time>2026-04-19T15:22:32.437Z</time></trkpt><trkpt lat="40.5252867" lon="8.755"><ele>400.0</ele><time>2026-04-19T15:22:33.436Z</time></trkpt><trkpt lat="40.5252417" lon="8.7548967"><ele>400.50000000000006</ele><time>2026-04-19T15:22:34.436Z</time></trkpt><trkpt lat="40.5252" lon="8.7547867"><ele>401.0</ele><time>2026-04-19T15:22:35.437Z</time></trkpt><trkpt lat="40.5251633" lon="8.7546833"><ele>401.5</ele><time>2026-04-19T15:22:36.436Z</time></trkpt><trkpt lat="40.5251333" lon="8.7545783"><ele>402.0</ele><time>2026-04-19T15:22:37.437Z</time></trkpt><trkpt lat="40.5251083" lon="8.7544817"><ele>402.50000000000006</ele><time>2026-04-19T15:22:38.436Z</time></trkpt><trkpt lat="40.5250783" lon="8.7543817"><ele>403.0</ele><time>2026-04-19T15:22:39.437Z</time></trkpt><trkpt lat="40.5250517" lon="8.754295"><ele>403.83333333333337</ele><time>2026-04-19T15:22:40.437Z</time></trkpt><trkpt lat="40.5250283" lon="8.7542017"><ele>404.6666666666667</ele><time>2026-04-19T15:22:41.437Z</time></trkpt><trkpt lat="40.5250117" lon="8.7541017"><ele>405.5</ele><time>2026-04-19T15:22:42.436Z</time></trkpt><trkpt lat="40.5250017" lon="8.7539967"><ele>406.33333333333337</ele><time>2026-04-19T15:22:43.436Z</time></trkpt><trkpt lat="40.525" lon="8.7538833"><ele>407.1666666666667</ele><time>2026-04-19T15:22:44.436Z</time></trkpt><trkpt lat="40.5250017" lon="8.7537633"><ele>408.0</ele><time>2026-04-19T15:22:45.436Z</time></trkpt><trkpt lat="40.525" lon="8.75365"><ele>408.0</ele><time>2026-04-19T15:22:46.436Z</time></trkpt><trkpt lat="40.525" lon="8.75355"><ele>408.0</ele><time>2026-04-19T15:22:47.436Z</time></trkpt><trkpt lat="40.5249733" lon="8.75345"><ele>408.0</ele><time>2026-04-19T15:22:48.437Z</time></trkpt><trkpt lat="40.5249283" lon="8.753335"><ele>408.0</ele><time>2026-04-19T15:22:49.437Z</time></trkpt><trkpt lat="40.5248817" lon="8.753205"><ele>408.0</ele><time>2026-04-19T15:22:50.437Z</time></trkpt><trkpt lat="40.5248317" lon="8.75306"><ele>409.5</ele><time>2026-04-19T15:22:51.436Z</time></trkpt><trkpt lat="40.52477" lon="8.7529167"><ele>411.0</ele><time>2026-04-19T15:22:52.437Z</time></trkpt><trkpt lat="40.5247067" lon="8.7527867"><ele>412.5</ele><time>2026-04-19T15:22:53.436Z</time></trkpt><trkpt lat="40.5246467" lon="8.752655"><ele>414.0</ele><time>2026-04-19T15:22:54.437Z</time></trkpt><trkpt lat="40.5245833" lon="8.7525217"><ele>414.0</ele><time>2026-04-19T15:22:55.436Z</time></trkpt><trkpt lat="40.5245267" lon="8.7523933"><ele>414.0</ele><time>2026-04-19T15:22:56.436Z</time></trkpt><trkpt lat="40.52448" lon="8.752285"><ele>414.0</ele><time>2026-04-19T15:22:57.436Z</time></trkpt><trkpt lat="40.5244317" lon="8.7521967"><ele>414.0</ele><time>2026-04-19T15:22:58.436Z</time></trkpt><trkpt lat="40.52438" lon="8.752105"><ele>414.0</ele><time>2026-04-19T15:22:59.436Z</time></trkpt><trkpt lat="40.5243217" lon="8.752005"><ele>414.0</ele><time>2026-04-19T15:23:00.436Z</time></trkpt><trkpt lat="40.5242633" lon="8.7519"><ele>414.0</ele><time>2026-04-19T15:23:01.436Z</time></trkpt><trkpt lat="40.5242" lon="8.751785"><ele>414.0</ele><time>2026-04-19T15:23:02.436Z</time></trkpt><trkpt lat="40.5241417" lon="8.75166"><ele>414.0</ele><time>2026-04-19T15:23:03.437Z</time></trkpt><trkpt lat="40.5240817" lon="8.7515333"><ele>414.0</ele><time>2026-04-19T15:23:04.436Z</time></trkpt><trkpt lat="40.524025" lon="8.7514017"><ele>415.0</ele><time>2026-04-19T15:23:05.436Z</time></trkpt><trkpt lat="40.5239817" lon="8.751275"><ele>416.0</ele><time>2026-04-19T15:23:06.436Z</time></trkpt><trkpt lat="40.5239467" lon="8.7511617"><ele>417.0</ele><time>2026-04-19T15:23:07.437Z</time></trkpt><trkpt lat="40.5239117" lon="8.7510617"><ele>418.0</ele><time>2026-04-19T15:23:08.436Z</time></trkpt><trkpt lat="40.5238733" lon="8.7509783"><ele>419.0</ele><time>2026-04-19T15:23:09.436Z</time></trkpt><trkpt lat="40.52384" lon="8.7509"><ele>420.0</ele><time>2026-04-19T15:23:10.437Z</time></trkpt><trkpt lat="40.52379" lon="8.7507767"><ele>421.2</ele><time>2026-04-19T15:23:12.436Z</time></trkpt><trkpt lat="40.5236967" lon="8.7507667"><ele>422.4</ele><time>2026-04-19T15:23:15.436Z</time></trkpt><trkpt lat="40.5235917" lon="8.7508517"><ele>423.6</ele><time>2026-04-19T15:23:17.437Z</time></trkpt><trkpt lat="40.5235217" lon="8.7508967"><ele>424.8</ele><time>2026-04-19T15:23:18.436Z</time></trkpt><trkpt lat="40.52346" lon="8.750935"><ele>426.0</ele><time>2026-04-19T15:23:19.436Z</time></trkpt><trkpt lat="40.523375" lon="8.751"><ele>425.0</ele><time>2026-04-19T15:23:21.436Z</time></trkpt><trkpt lat="40.5232917" lon="8.7510633"><ele>424.0</ele><time>2026-04-19T15:23:23.436Z</time></trkpt><trkpt lat="40.5232017" lon="8.7511667"><ele>423.0</ele><time>2026-04-19T15:23:25.436Z</time></trkpt><trkpt lat="40.5231733" lon="8.7512467"><ele>422.0</ele><time>2026-04-19T15:23:26.436Z</time></trkpt><trkpt lat="40.5231533" lon="8.7513483"><ele>421.0</ele><time>2026-04-19T15:23:27.436Z</time></trkpt><trkpt lat="40.5231333" lon="8.7514483"><ele>420.0</ele><time>2026-04-19T15:23:28.437Z</time></trkpt><trkpt lat="40.523105" lon="8.7515633"><ele>420.0</ele><time>2026-04-19T15:23:29.437Z</time></trkpt><trkpt lat="40.5230883" lon="8.7516933"><ele>420.0</ele><time>2026-04-19T15:23:30.437Z</time></trkpt><trkpt lat="40.523075" lon="8.7518217"><ele>420.0</ele><time>2026-04-19T15:23:31.437Z</time></trkpt><trkpt lat="40.5230633" lon="8.7519383"><ele>420.0</ele><time>2026-04-19T15:23:32.437Z</time></trkpt><trkpt lat="40.5230583" lon="8.7520617"><ele>420.0</ele><time>2026-04-19T15:23:33.436Z</time></trkpt><trkpt lat="40.523065" lon="8.7521733"><ele>419.5</ele><time>2026-04-19T15:23:34.436Z</time></trkpt><trkpt lat="40.5230667" lon="8.7522733"><ele>419.0</ele><time>2026-04-19T15:23:35.436Z</time></trkpt><trkpt lat="40.5230583" lon="8.7523683"><ele>418.5</ele><time>2026-04-19T15:23:36.437Z</time></trkpt><trkpt lat="40.5230267" lon="8.7524433"><ele>418.0</ele><time>2026-04-19T15:23:37.437Z</time></trkpt><trkpt lat="40.5229683" lon="8.752505"><ele>417.5</ele><time>2026-04-19T15:23:38.437Z</time></trkpt><trkpt lat="40.5229067" lon="8.7525467"><ele>417.0</ele><time>2026-04-19T15:23:39.436Z</time></trkpt><trkpt lat="40.5227967" lon="8.752585"><ele>418.8333333333333</ele><time>2026-04-19T15:23:41.437Z</time></trkpt><trkpt lat="40.5227183" lon="8.7526183"><ele>420.66666666666663</ele><time>2026-04-19T15:23:43.436Z</time></trkpt><trkpt lat="40.5226117" lon="8.7526367"><ele>422.5</ele><time>2026-04-19T15:23:45.437Z</time></trkpt><trkpt lat="40.52255" lon="8.752665"><ele>424.3333333333333</ele><time>2026-04-19T15:23:46.436Z</time></trkpt><trkpt lat="40.5224833" lon="8.7527217"><ele>426.16666666666663</ele><time>2026-04-19T15:23:47.436Z</time></trkpt><trkpt lat="40.522425" lon="8.75279"><ele>428.0</ele><time>2026-04-19T15:23:48.437Z</time></trkpt><trkpt lat="40.52237" lon="8.7528683"><ele>427.99999999999994</ele><time>2026-04-19T15:23:49.437Z</time></trkpt><trkpt lat="40.5223217" lon="8.7529517"><ele>428.0</ele><time>2026-04-19T15:23:50.436Z</time></trkpt><trkpt lat="40.5222817" lon="8.7530367"><ele>428.0</ele><time>2026-04-19T15:23:51.436Z</time></trkpt><trkpt lat="40.52225" lon="8.753115"><ele>428.0</ele><time>2026-04-19T15:23:52.436Z</time></trkpt><trkpt lat="40.5221683" lon="8.7532417"><ele>427.99999999999994</ele><time>2026-04-19T15:23:54.437Z</time></trkpt><trkpt lat="40.5221083" lon="8.7533017"><ele>428.0</ele><time>2026-04-19T15:23:55.437Z</time></trkpt><trkpt lat="40.5220517" lon="8.7533683"><ele>428.49999999999994</ele><time>2026-04-19T15:23:56.436Z</time></trkpt><trkpt lat="40.5220033" lon="8.753435"><ele>429.0</ele><time>2026-04-19T15:23:57.437Z</time></trkpt><trkpt lat="40.5219517" lon="8.753495"><ele>429.5</ele><time>2026-04-19T15:23:58.437Z</time></trkpt><trkpt lat="40.5218967" lon="8.7535483"><ele>430.0</ele><time>2026-04-19T15:23:59.436Z</time></trkpt><trkpt lat="40.5218267" lon="8.7535967"><ele>430.49999999999994</ele><time>2026-04-19T15:24:00.437Z</time></trkpt><trkpt lat="40.5217467" lon="8.7536383"><ele>431.0</ele><time>2026-04-19T15:24:01.436Z</time></trkpt><trkpt lat="40.5216683" lon="8.753685"><ele>429.99999999999994</ele><time>2026-04-19T15:24:02.437Z</time></trkpt><trkpt lat="40.5215883" lon="8.753725"><ele>429.0</ele><time>2026-04-19T15:24:03.437Z</time></trkpt><trkpt lat="40.5215117" lon="8.7537633"><ele>428.0</ele><time>2026-04-19T15:24:04.436Z</time></trkpt><trkpt lat="40.5214283" lon="8.7537983"><ele>427.0</ele><time>2026-04-19T15:24:05.436Z</time></trkpt><trkpt lat="40.5213517" lon="8.7538317"><ele>425.99999999999994</ele><time>2026-04-19T15:24:06.437Z</time></trkpt><trkpt lat="40.5212817" lon="8.7538717"><ele>425.0</ele><time>2026-04-19T15:24:07.436Z</time></trkpt><trkpt lat="40.5212083" lon="8.7538967"><ele>424.99999999999994</ele><time>2026-04-19T15:24:08.436Z</time></trkpt><trkpt lat="40.5211433" lon="8.7539383"><ele>425.0</ele><time>2026-04-19T15:24:09.436Z</time></trkpt><trkpt lat="40.52109" lon="8.7540017"><ele>425.0</ele><time>2026-04-19T15:24:10.437Z</time></trkpt><trkpt lat="40.52105" lon="8.75408"><ele>425.0</ele><time>2026-04-19T15:24:11.437Z</time></trkpt><trkpt lat="40.5210083" lon="8.7542433"><ele>424.99999999999994</ele><time>2026-04-19T15:24:13.436Z</time></trkpt><trkpt lat="40.5209967" lon="8.754355"><ele>425.0</ele><time>2026-04-19T15:24:14.437Z</time></trkpt><trkpt lat="40.520985" lon="8.754475"><ele>423.99999999999994</ele><time>2026-04-19T15:24:15.436Z</time></trkpt><trkpt lat="40.5209667" lon="8.75459"><ele>423.0</ele><time>2026-04-19T15:24:16.437Z</time></trkpt><trkpt lat="40.520945" lon="8.7546867"><ele>422.0</ele><time>2026-04-19T15:24:17.436Z</time></trkpt><trkpt lat="40.520925" lon="8.7547767"><ele>421.0</ele><time>2026-04-19T15:24:18.437Z</time></trkpt><trkpt lat="40.5209117" lon="8.754875"><ele>419.99999999999994</ele><time>2026-04-19T15:24:19.437Z</time></trkpt><trkpt lat="40.5209117" lon="8.7549917"><ele>419.0</ele><time>2026-04-19T15:24:20.436Z</time></trkpt><trkpt lat="40.520915" lon="8.7551117"><ele>417.49999999999994</ele><time>2026-04-19T15:24:21.436Z</time></trkpt><trkpt lat="40.5209217" lon="8.75522"><ele>416.0</ele><time>2026-04-19T15:24:22.437Z</time></trkpt><trkpt lat="40.520925" lon="8.7553317"><ele>414.5</ele><time>2026-04-19T15:24:23.437Z</time></trkpt><trkpt lat="40.5209217" lon="8.755435"><ele>413.0</ele><time>2026-04-19T15:24:24.436Z</time></trkpt><trkpt lat="40.5209067" lon="8.755535"><ele>411.49999999999994</ele><time>2026-04-19T15:24:25.437Z</time></trkpt><trkpt lat="40.5208867" lon="8.7556383"><ele>410.0</ele><time>2026-04-19T15:24:26.436Z</time></trkpt><trkpt lat="40.5208567" lon="8.7557333"><ele>409.99999999999994</ele><time>2026-04-19T15:24:27.436Z</time></trkpt><trkpt lat="40.5208067" lon="8.75583"><ele>410.0</ele><time>2026-04-19T15:24:28.436Z</time></trkpt><trkpt lat="40.5207617" lon="8.7559183"><ele>410.0</ele><time>2026-04-19T15:24:29.437Z</time></trkpt><trkpt lat="40.5207" lon="8.756005"><ele>410.0</ele><time>2026-04-19T15:24:30.436Z</time></trkpt><trkpt lat="40.5206367" lon="8.7560767"><ele>409.99999999999994</ele><time>2026-04-19T15:24:31.436Z</time></trkpt><trkpt lat="40.5205767" lon="8.75614"><ele>410.0</ele><time>2026-04-19T15:24:32.436Z</time></trkpt><trkpt lat="40.52052" lon="8.7562067"><ele>408.8333333333333</ele><time>2026-04-19T15:24:33.437Z</time></trkpt><trkpt lat="40.52047" lon="8.75626"><ele>407.66666666666663</ele><time>2026-04-19T15:24:34.437Z</time></trkpt><trkpt lat="40.520415" lon="8.7563033"><ele>406.5</ele><time>2026-04-19T15:24:35.436Z</time></trkpt><trkpt lat="40.5203033" lon="8.7562717"><ele>405.33333333333337</ele><time>2026-04-19T15:24:37.436Z</time></trkpt><trkpt lat="40.520255" lon="8.756205"><ele>404.1666666666667</ele><time>2026-04-19T15:24:38.436Z</time></trkpt><trkpt lat="40.520205" lon="8.75615"><ele>403.0</ele><time>2026-04-19T15:24:39.437Z</time></trkpt><trkpt lat="40.5200833" lon="8.7561283"><ele>402.2</ele><time>2026-04-19T15:24:41.436Z</time></trkpt><trkpt lat="40.5200083" lon="8.7561417"><ele>401.4</ele><time>2026-04-19T15:24:42.437Z</time></trkpt><trkpt lat="40.5199183" lon="8.7561667"><ele>400.59999999999997</ele><time>2026-04-19T15:24:43.436Z</time></trkpt><trkpt lat="40.51982" lon="8.7561917"><ele>399.79999999999995</ele><time>2026-04-19T15:24:44.436Z</time></trkpt><trkpt lat="40.5197133" lon="8.7562133"><ele>399.0</ele><time>2026-04-19T15:24:45.437Z</time></trkpt><trkpt lat="40.5196217" lon="8.75623"><ele>399.0</ele><time>2026-04-19T15:24:46.436Z</time></trkpt><trkpt lat="40.5195367" lon="8.7562483"><ele>399.0</ele><time>2026-04-19T15:24:47.436Z</time></trkpt><trkpt lat="40.5194483" lon="8.7562733"><ele>399.0</ele><time>2026-04-19T15:24:48.437Z</time></trkpt><trkpt lat="40.5193717" lon="8.756305"><ele>399.0</ele><time>2026-04-19T15:24:49.436Z</time></trkpt><trkpt lat="40.5192933" lon="8.7563367"><ele>399.0</ele><time>2026-04-19T15:24:50.436Z</time></trkpt><trkpt lat="40.5192267" lon="8.7563717"><ele>399.0</ele><time>2026-04-19T15:24:51.437Z</time></trkpt><trkpt lat="40.51916" lon="8.7563983"><ele>399.0</ele><time>2026-04-19T15:24:52.437Z</time></trkpt><trkpt lat="40.5191" lon="8.7564383"><ele>399.0</ele><time>2026-04-19T15:24:53.437Z</time></trkpt><trkpt lat="40.5190433" lon="8.756495"><ele>399.0</ele><time>2026-04-19T15:24:54.436Z</time></trkpt><trkpt lat="40.51898" lon="8.7565583"><ele>399.0</ele><time>2026-04-19T15:24:55.436Z</time></trkpt><trkpt lat="40.518915" lon="8.7566267"><ele>399.0</ele><time>2026-04-19T15:24:56.437Z</time></trkpt><trkpt lat="40.51885" lon="8.7567"><ele>399.0</ele><time>2026-04-19T15:24:57.436Z</time></trkpt><trkpt lat="40.5187783" lon="8.7567783"><ele>400.0</ele><time>2026-04-19T15:24:58.436Z</time></trkpt><trkpt lat="40.5187083" lon="8.7568617"><ele>401.0</ele><time>2026-04-19T15:24:59.437Z</time></trkpt><trkpt lat="40.5186367" lon="8.756955"><ele>402.0</ele><time>2026-04-19T15:25:00.436Z</time></trkpt><trkpt lat="40.5185667" lon="8.7570517"><ele>403.0</ele><time>2026-04-19T15:25:01.437Z</time></trkpt><trkpt lat="40.5184817" lon="8.7571467"><ele>404.0</ele><time>2026-04-19T15:25:02.436Z</time></trkpt><trkpt lat="40.5183933" lon="8.75724"><ele>404.25</ele><time>2026-04-19T15:25:03.436Z</time></trkpt><trkpt lat="40.5182917" lon="8.7573333"><ele>404.5</ele><time>2026-04-19T15:25:04.436Z</time></trkpt><trkpt lat="40.5181867" lon="8.75742"><ele>404.75</ele><time>2026-04-19T15:25:05.437Z</time></trkpt><trkpt lat="40.5180717" lon="8.7575167"><ele>405.0</ele><time>2026-04-19T15:25:06.437Z</time></trkpt><trkpt lat="40.5179583" lon="8.7576167"><ele>406.5</ele><time>2026-04-19T15:25:07.437Z</time></trkpt><trkpt lat="40.5178483" lon="8.757735"><ele>408.0</ele><time>2026-04-19T15:25:08.436Z</time></trkpt><trkpt lat="40.5177583" lon="8.757845"><ele>409.5</ele><time>2026-04-19T15:25:09.437Z</time></trkpt><trkpt lat="40.5176783" lon="8.75794"><ele>411.0</ele><time>2026-04-19T15:25:10.437Z</time></trkpt><trkpt lat="40.5175983" lon="8.758045"><ele>411.0</ele><time>2026-04-19T15:25:11.436Z</time></trkpt><trkpt lat="40.5175133" lon="8.7581633"><ele>411.0</ele><time>2026-04-19T15:25:12.436Z</time></trkpt><trkpt lat="40.5174283" lon="8.758295"><ele>411.0</ele><time>2026-04-19T15:25:13.437Z</time></trkpt><trkpt lat="40.5173417" lon="8.758435"><ele>411.0</ele><time>2026-04-19T15:25:14.437Z</time></trkpt><trkpt lat="40.517265" lon="8.7585583"><ele>411.4</ele><time>2026-04-19T15:25:15.436Z</time></trkpt><trkpt lat="40.517195" lon="8.7586783"><ele>411.8</ele><time>2026-04-19T15:25:16.437Z</time></trkpt><trkpt lat="40.5171333" lon="8.758795"><ele>412.2</ele><time>2026-04-19T15:25:17.437Z</time></trkpt><trkpt lat="40.5170667" lon="8.7588933"><ele>412.59999999999997</ele><time>2026-04-19T15:25:18.436Z</time></trkpt><trkpt lat="40.516995" lon="8.7589817"><ele>413.0</ele><time>2026-04-19T15:25:19.436Z</time></trkpt><trkpt lat="40.5169033" lon="8.7590617"><ele>413.0</ele><time>2026-04-19T15:25:20.436Z</time></trkpt><trkpt lat="40.5168033" lon="8.7591267"><ele>413.0</ele><time>2026-04-19T15:25:21.436Z</time></trkpt><trkpt lat="40.5166867" lon="8.7591767"><ele>413.0</ele><time>2026-04-19T15:25:22.436Z</time></trkpt><trkpt lat="40.5165633" lon="8.7592267"><ele>413.0</ele><time>2026-04-19T15:25:23.436Z</time></trkpt><trkpt lat="40.516455" lon="8.7592783"><ele>412.99999999999994</ele><time>2026-04-19T15:25:24.436Z</time></trkpt><trkpt lat="40.516375" lon="8.7593167"><ele>413.0</ele><time>2026-04-19T15:25:25.437Z</time></trkpt><trkpt lat="40.5163033" lon="8.75936"><ele>413.0</ele><time>2026-04-19T15:25:26.436Z</time></trkpt><trkpt lat="40.5162333" lon="8.7593983"><ele>413.0</ele><time>2026-04-19T15:25:27.436Z</time></trkpt><trkpt lat="40.5161733" lon="8.759435"><ele>412.99999999999994</ele><time>2026-04-19T15:25:28.436Z</time></trkpt><trkpt lat="40.5160483" lon="8.7594983"><ele>413.0</ele><time>2026-04-19T15:25:30.436Z</time></trkpt><trkpt lat="40.5159817" lon="8.759545"><ele>414.16666666666663</ele><time>2026-04-19T15:25:31.437Z</time></trkpt><trkpt lat="40.51591" lon="8.7595867"><ele>415.3333333333333</ele><time>2026-04-19T15:25:32.436Z</time></trkpt><trkpt lat="40.5158433" lon="8.759625"><ele>416.5</ele><time>2026-04-19T15:25:33.436Z</time></trkpt><trkpt lat="40.5157383" lon="8.759675"><ele>417.66666666666663</ele><time>2026-04-19T15:25:35.437Z</time></trkpt><trkpt lat="40.5156433" lon="8.7597333"><ele>418.8333333333333</ele><time>2026-04-19T15:25:37.437Z</time></trkpt><trkpt lat="40.5155817" lon="8.759765"><ele>420.0</ele><time>2026-04-19T15:25:38.437Z</time></trkpt><trkpt lat="40.515505" lon="8.75981"><ele>420.0</ele><time>2026-04-19T15:25:39.437Z</time></trkpt><trkpt lat="40.5154333" lon="8.759875"><ele>420.0</ele><time>2026-04-19T15:25:40.436Z</time></trkpt><trkpt lat="40.5153817" lon="8.7599583"><ele>420.0</ele><time>2026-04-19T15:25:41.437Z</time></trkpt><trkpt lat="40.5153383" lon="8.7600617"><ele>420.0</ele><time>2026-04-19T15:25:42.436Z</time></trkpt><trkpt lat="40.515285" lon="8.7601717"><ele>420.0</ele><time>2026-04-19T15:25:43.436Z</time></trkpt><trkpt lat="40.51523" lon="8.7602767"><ele>421.2</ele><time>2026-04-19T15:25:44.437Z</time></trkpt><trkpt lat="40.5151817" lon="8.760395"><ele>422.4</ele><time>2026-04-19T15:25:45.437Z</time></trkpt><trkpt lat="40.5151333" lon="8.7605217"><ele>423.6</ele><time>2026-04-19T15:25:46.436Z</time></trkpt><trkpt lat="40.5150917" lon="8.7606433"><ele>424.8</ele><time>2026-04-19T15:25:47.436Z</time></trkpt><trkpt lat="40.5150567" lon="8.7607667"><ele>426.0</ele><time>2026-04-19T15:25:48.437Z</time></trkpt><trkpt lat="40.5150283" lon="8.7608983"><ele>427.25</ele><time>2026-04-19T15:25:49.436Z</time></trkpt><trkpt lat="40.5150217" lon="8.7610417"><ele>428.5</ele><time>2026-04-19T15:25:50.436Z</time></trkpt><trkpt lat="40.5150067" lon="8.7612033"><ele>429.75</ele><time>2026-04-19T15:25:51.436Z</time></trkpt><trkpt lat="40.5149917" lon="8.76136"><ele>431.0</ele><time>2026-04-19T15:25:52.436Z</time></trkpt><trkpt lat="40.51498" lon="8.7615167"><ele>431.0</ele><time>2026-04-19T15:25:53.437Z</time></trkpt><trkpt lat="40.5149567" lon="8.7616683"><ele>431.0</ele><time>2026-04-19T15:25:54.437Z</time></trkpt><trkpt lat="40.51493" lon="8.7618083"><ele>431.0</ele><time>2026-04-19T15:25:55.437Z</time></trkpt><trkpt lat="40.5148983" lon="8.7619483"><ele>431.0</ele><time>2026-04-19T15:25:56.437Z</time></trkpt><trkpt lat="40.514875" lon="8.76209"><ele>431.0</ele><time>2026-04-19T15:25:57.437Z</time></trkpt><trkpt lat="40.5148367" lon="8.762215"><ele>430.8571428571429</ele><time>2026-04-19T15:25:58.437Z</time></trkpt><trkpt lat="40.5148033" lon="8.76232"><ele>430.71428571428567</ele><time>2026-04-19T15:25:59.437Z</time></trkpt><trkpt lat="40.5147733" lon="8.7624133"><ele>430.57142857142856</ele><time>2026-04-19T15:26:00.437Z</time></trkpt><trkpt lat="40.5147417" lon="8.7624983"><ele>430.42857142857144</ele><time>2026-04-19T15:26:01.436Z</time></trkpt><trkpt lat="40.5147233" lon="8.7625833"><ele>430.28571428571433</ele><time>2026-04-19T15:26:02.437Z</time></trkpt><trkpt lat="40.514685" lon="8.7626583"><ele>430.1428571428571</ele><time>2026-04-19T15:26:03.436Z</time></trkpt><trkpt lat="40.5146617" lon="8.762755"><ele>430.0</ele><time>2026-04-19T15:26:04.436Z</time></trkpt><trkpt lat="40.5146333" lon="8.7628483"><ele>430.1666666666667</ele><time>2026-04-19T15:26:05.437Z</time></trkpt><trkpt lat="40.5146017" lon="8.762945"><ele>430.33333333333337</ele><time>2026-04-19T15:26:06.436Z</time></trkpt><trkpt lat="40.5145717" lon="8.7630533"><ele>430.5</ele><time>2026-04-19T15:26:07.437Z</time></trkpt><trkpt lat="40.51455" lon="8.7631533"><ele>430.66666666666663</ele><time>2026-04-19T15:26:08.436Z</time></trkpt><trkpt lat="40.51453" lon="8.7632583"><ele>430.8333333333333</ele><time>2026-04-19T15:26:09.437Z</time></trkpt><trkpt lat="40.5145067" lon="8.7633767"><ele>431.0</ele><time>2026-04-19T15:26:10.436Z</time></trkpt><trkpt lat="40.5144933" lon="8.76348"><ele>430.6</ele><time>2026-04-19T15:26:11.436Z</time></trkpt><trkpt lat="40.51446" lon="8.763605"><ele>430.20000000000005</ele><time>2026-04-19T15:26:13.437Z</time></trkpt><trkpt lat="40.5144467" lon="8.7637083"><ele>429.79999999999995</ele><time>2026-04-19T15:26:33.437Z</time></trkpt><trkpt lat="40.5144183" lon="8.7638183"><ele>429.4</ele><time>2026-04-19T15:26:35.436Z</time></trkpt><trkpt lat="40.5143783" lon="8.763945"><ele>429.0</ele><time>2026-04-19T15:26:37.436Z</time></trkpt><trkpt lat="40.5143483" lon="8.76407"><ele>429.0</ele><time>2026-04-19T15:26:39.437Z</time></trkpt><trkpt lat="40.514325" lon="8.7642067"><ele>429.0</ele><time>2026-04-19T15:26:41.436Z</time></trkpt><trkpt lat="40.514315" lon="8.7643017"><ele>429.0</ele><time>2026-04-19T15:26:42.436Z</time></trkpt><trkpt lat="40.5142883" lon="8.7643817"><ele>429.0</ele><time>2026-04-19T15:26:43.437Z</time></trkpt><trkpt lat="40.5142617" lon="8.7644717"><ele>429.0</ele><time>2026-04-19T15:26:44.436Z</time></trkpt><trkpt lat="40.5142267" lon="8.7645683"><ele>429.0</ele><time>2026-04-19T15:26:45.436Z</time></trkpt><trkpt lat="40.514195" lon="8.7646733"><ele>429.0</ele><time>2026-04-19T15:26:46.437Z</time></trkpt><trkpt lat="40.5141633" lon="8.7647817"><ele>429.0</ele><time>2026-04-19T15:26:47.437Z</time></trkpt><trkpt lat="40.5141283" lon="8.764895"><ele>429.0</ele><time>2026-04-19T15:26:48.437Z</time></trkpt><trkpt lat="40.5140933" lon="8.7650017"><ele>429.0</ele><time>2026-04-19T15:26:49.437Z</time></trkpt><trkpt lat="40.5140617" lon="8.7651117"><ele>429.0</ele><time>2026-04-19T15:26:50.437Z</time></trkpt><trkpt lat="40.5140333" lon="8.7652267"><ele>428.6666666666667</ele><time>2026-04-19T15:26:51.436Z</time></trkpt><trkpt lat="40.5140067" lon="8.76534"><ele>428.33333333333337</ele><time>2026-04-19T15:26:52.437Z</time></trkpt><trkpt lat="40.5139817" lon="8.7654467"><ele>428.0</ele><time>2026-04-19T15:26:53.436Z</time></trkpt><trkpt lat="40.5139533" lon="8.7655433"><ele>427.6666666666667</ele><time>2026-04-19T15:26:54.436Z</time></trkpt><trkpt lat="40.5139183" lon="8.76564"><ele>427.33333333333337</ele><time>2026-04-19T15:26:55.437Z</time></trkpt><trkpt lat="40.5138833" lon="8.76573"><ele>427.0</ele><time>2026-04-19T15:26:56.436Z</time></trkpt><trkpt lat="40.5138567" lon="8.76581"><ele>427.00000000000006</ele><time>2026-04-19T15:26:57.437Z</time></trkpt><trkpt lat="40.5138083" lon="8.76594"><ele>427.0</ele><time>2026-04-19T15:26:59.436Z</time></trkpt><trkpt lat="40.5137783" lon="8.7660633"><ele>427.0</ele><time>2026-04-19T15:27:01.436Z</time></trkpt><trkpt lat="40.5137733" lon="8.7661667"><ele>427.0</ele><time>2026-04-19T15:27:03.437Z</time></trkpt><trkpt lat="40.5138083" lon="8.7662667"><ele>427.00000000000006</ele><time>2026-04-19T15:57:24.433Z</time></trkpt><trkpt lat="40.5138133" lon="8.76618"><ele>427.0</ele><time>2026-04-19T15:57:45.434Z</time></trkpt><trkpt lat="40.5138117" lon="8.7660883"><ele>426.6</ele><time>2026-04-19T15:57:48.434Z</time></trkpt><trkpt lat="40.5137583" lon="8.7660417"><ele>426.20000000000005</ele><time>2026-04-19T15:57:52.433Z</time></trkpt><trkpt lat="40.5136967" lon="8.7661067"><ele>425.8</ele><time>2026-04-19T15:57:54.434Z</time></trkpt><trkpt lat="40.51361" lon="8.76619"><ele>425.4</ele><time>2026-04-19T15:57:56.433Z</time></trkpt><trkpt lat="40.5135167" lon="8.7663067"><ele>425.0</ele><time>2026-04-19T15:57:58.434Z</time></trkpt><trkpt lat="40.5134683" lon="8.7663817"><ele>424.99999999999994</ele><time>2026-04-19T15:57:59.434Z</time></trkpt><trkpt lat="40.5134133" lon="8.7664533"><ele>425.0</ele><time>2026-04-19T15:58:00.433Z</time></trkpt><trkpt lat="40.5133533" lon="8.76653"><ele>425.0</ele><time>2026-04-19T15:58:01.434Z</time></trkpt><trkpt lat="40.51328" lon="8.766605"><ele>425.0</ele><time>2026-04-19T15:58:02.433Z</time></trkpt><trkpt lat="40.513205" lon="8.7666867"><ele>424.99999999999994</ele><time>2026-04-19T15:58:03.434Z</time></trkpt><trkpt lat="40.51313" lon="8.766765"><ele>425.0</ele><time>2026-04-19T15:58:04.434Z</time></trkpt><trkpt lat="40.5130617" lon="8.7668433"><ele>425.2</ele><time>2026-04-19T15:58:05.433Z</time></trkpt><trkpt lat="40.512995" lon="8.76692"><ele>425.4</ele><time>2026-04-19T15:58:06.434Z</time></trkpt><trkpt lat="40.5129283" lon="8.76701"><ele>425.6</ele><time>2026-04-19T15:58:07.433Z</time></trkpt><trkpt lat="40.5128583" lon="8.7671067"><ele>425.8</ele><time>2026-04-19T15:58:08.434Z</time></trkpt><trkpt lat="40.5127833" lon="8.7672083"><ele>426.0</ele><time>2026-04-19T15:58:09.433Z</time></trkpt><trkpt lat="40.5127083" lon="8.76731"><ele>425.5</ele><time>2026-04-19T15:58:10.434Z</time></trkpt><trkpt lat="40.5126383" lon="8.7673917"><ele>425.0</ele><time>2026-04-19T15:58:11.433Z</time></trkpt><trkpt lat="40.5125717" lon="8.7674733"><ele>424.5</ele><time>2026-04-19T15:58:12.433Z</time></trkpt><trkpt lat="40.5125117" lon="8.7675583"><ele>424.0</ele><time>2026-04-19T15:58:13.434Z</time></trkpt><trkpt lat="40.5124517" lon="8.767635"><ele>423.5</ele><time>2026-04-19T15:58:14.433Z</time></trkpt><trkpt lat="40.5123883" lon="8.7677167"><ele>423.0</ele><time>2026-04-19T15:58:15.434Z</time></trkpt><trkpt lat="40.5123267" lon="8.7678067"><ele>422.8333333333333</ele><time>2026-04-19T15:58:16.434Z</time></trkpt><trkpt lat="40.512265" lon="8.76789"><ele>422.66666666666663</ele><time>2026-04-19T15:58:17.433Z</time></trkpt><trkpt lat="40.5121967" lon="8.767965"><ele>422.5</ele><time>2026-04-19T15:58:18.433Z</time></trkpt><trkpt lat="40.5121333" lon="8.7680433"><ele>422.3333333333333</ele><time>2026-04-19T15:58:19.433Z</time></trkpt><trkpt lat="40.5120717" lon="8.7681233"><ele>422.16666666666663</ele><time>2026-04-19T15:58:20.434Z</time></trkpt><trkpt lat="40.5120133" lon="8.768205"><ele>422.0</ele><time>2026-04-19T15:58:21.433Z</time></trkpt><trkpt lat="40.5119467" lon="8.7682867"><ele>421.40000000000003</ele><time>2026-04-19T15:58:22.434Z</time></trkpt><trkpt lat="40.511875" lon="8.76837"><ele>420.8</ele><time>2026-04-19T15:58:23.433Z</time></trkpt><trkpt lat="40.5118067" lon="8.7684483"><ele>420.2</ele><time>2026-04-19T15:58:24.434Z</time></trkpt><trkpt lat="40.5117383" lon="8.7685367"><ele>419.6</ele><time>2026-04-19T15:58:25.433Z</time></trkpt><trkpt lat="40.511675" lon="8.7686117"><ele>419.0</ele><time>2026-04-19T15:58:26.433Z</time></trkpt><trkpt lat="40.5116" lon="8.7686817"><ele>418.99999999999994</ele><time>2026-04-19T15:58:27.433Z</time></trkpt><trkpt lat="40.5115317" lon="8.7687517"><ele>419.0</ele><time>2026-04-19T15:58:28.433Z</time></trkpt><trkpt lat="40.5114617" lon="8.7688133"><ele>419.0</ele><time>2026-04-19T15:58:29.434Z</time></trkpt><trkpt lat="40.511395" lon="8.7688683"><ele>419.0</ele><time>2026-04-19T15:58:30.433Z</time></trkpt><trkpt lat="40.5113283" lon="8.76893"><ele>418.99999999999994</ele><time>2026-04-19T15:58:31.434Z</time></trkpt><trkpt lat="40.51126" lon="8.7689983"><ele>419.0</ele><time>2026-04-19T15:58:32.433Z</time></trkpt><trkpt lat="40.5111767" lon="8.7690617"><ele>418.79999999999995</ele><time>2026-04-19T15:58:33.434Z</time></trkpt><trkpt lat="40.511095" lon="8.7691217"><ele>418.59999999999997</ele><time>2026-04-19T15:58:34.433Z</time></trkpt><trkpt lat="40.5110083" lon="8.7691883"><ele>418.4</ele><time>2026-04-19T15:58:35.434Z</time></trkpt><trkpt lat="40.5109117" lon="8.769255"><ele>418.2</ele><time>2026-04-19T15:58:36.433Z</time></trkpt><trkpt lat="40.5108033" lon="8.769315"><ele>418.0</ele><time>2026-04-19T15:58:37.433Z</time></trkpt><trkpt lat="40.5106933" lon="8.76938"><ele>417.5</ele><time>2026-04-19T15:58:38.433Z</time></trkpt><trkpt lat="40.51059" lon="8.76945"><ele>417.0</ele><time>2026-04-19T15:58:39.434Z</time></trkpt><trkpt lat="40.5104833" lon="8.7695167"><ele>416.5</ele><time>2026-04-19T15:58:40.433Z</time></trkpt><trkpt lat="40.5103667" lon="8.7695683"><ele>416.0</ele><time>2026-04-19T15:58:41.434Z</time></trkpt><trkpt lat="40.51025" lon="8.7696233"><ele>415.5</ele><time>2026-04-19T15:58:42.434Z</time></trkpt><trkpt lat="40.5101317" lon="8.7696833"><ele>415.0</ele><time>2026-04-19T15:58:43.433Z</time></trkpt><trkpt lat="40.5100117" lon="8.7697317"><ele>414.5</ele><time>2026-04-19T15:58:44.434Z</time></trkpt><trkpt lat="40.5098917" lon="8.7697833"><ele>414.0</ele><time>2026-04-19T15:58:45.433Z</time></trkpt><trkpt lat="40.50977" lon="8.76984"><ele>414.0</ele><time>2026-04-19T15:58:46.433Z</time></trkpt><trkpt lat="40.5096417" lon="8.7698933"><ele>414.0</ele><time>2026-04-19T15:58:47.433Z</time></trkpt><trkpt lat="40.5095117" lon="8.7699567"><ele>414.0</ele><time>2026-04-19T15:58:48.434Z</time></trkpt><trkpt lat="40.5093733" lon="8.770015"><ele>414.0</ele><time>2026-04-19T15:58:49.433Z</time></trkpt><trkpt lat="40.5092367" lon="8.7700717"><ele>413.75</ele><time>2026-04-19T15:58:50.434Z</time></trkpt><trkpt lat="40.5090983" lon="8.7701333"><ele>413.5</ele><time>2026-04-19T15:58:51.433Z</time></trkpt><trkpt lat="40.508955" lon="8.7701967"><ele>413.25</ele><time>2026-04-19T15:58:52.433Z</time></trkpt><trkpt lat="40.508815" lon="8.7702667"><ele>413.0</ele><time>2026-04-19T15:58:53.433Z</time></trkpt><trkpt lat="40.5086817" lon="8.770325"><ele>413.0</ele><time>2026-04-19T15:58:54.433Z</time></trkpt><trkpt lat="40.508555" lon="8.7703933"><ele>413.0</ele><time>2026-04-19T15:58:55.434Z</time></trkpt><trkpt lat="40.5084233" lon="8.770455"><ele>413.0</ele><time>2026-04-19T15:58:56.434Z</time></trkpt><trkpt lat="40.5082983" lon="8.7705133"><ele>413.0</ele><time>2026-04-19T15:58:57.433Z</time></trkpt><trkpt lat="40.5081817" lon="8.7705633"><ele>413.0</ele><time>2026-04-19T15:58:58.434Z</time></trkpt><trkpt lat="40.50806" lon="8.7706183"><ele>413.0</ele><time>2026-04-19T15:58:59.433Z</time></trkpt><trkpt lat="40.50794" lon="8.7706767"><ele>413.0</ele><time>2026-04-19T15:59:00.434Z</time></trkpt><trkpt lat="40.50783" lon="8.7707317"><ele>413.0</ele><time>2026-04-19T15:59:01.433Z</time></trkpt><trkpt lat="40.5077133" lon="8.7707767"><ele>413.5</ele><time>2026-04-19T15:59:02.434Z</time></trkpt><trkpt lat="40.5075933" lon="8.7708217"><ele>414.0</ele><time>2026-04-19T15:59:03.434Z</time></trkpt><trkpt lat="40.5074783" lon="8.7708817"><ele>414.5</ele><time>2026-04-19T15:59:04.433Z</time></trkpt><trkpt lat="40.50736" lon="8.7709317"><ele>415.0</ele><time>2026-04-19T15:59:05.433Z</time></trkpt><trkpt lat="40.507235" lon="8.7709833"><ele>413.75</ele><time>2026-04-19T15:59:06.433Z</time></trkpt><trkpt lat="40.5071083" lon="8.7710317"><ele>412.5</ele><time>2026-04-19T15:59:07.434Z</time></trkpt><trkpt lat="40.5069733" lon="8.77107"><ele>411.25</ele><time>2026-04-19T15:59:08.433Z</time></trkpt><trkpt lat="40.5068333" lon="8.771105"><ele>410.0</ele><time>2026-04-19T15:59:09.433Z</time></trkpt><trkpt lat="40.5067" lon="8.7711367"><ele>410.0</ele><time>2026-04-19T15:59:10.434Z</time></trkpt><trkpt lat="40.5065667" lon="8.7711533"><ele>410.0</ele><time>2026-04-19T15:59:11.434Z</time></trkpt><trkpt lat="40.5064383" lon="8.77116"><ele>410.0</ele><time>2026-04-19T15:59:12.434Z</time></trkpt><trkpt lat="40.50631" lon="8.7711567"><ele>410.0</ele><time>2026-04-19T15:59:13.434Z</time></trkpt><trkpt lat="40.50617" lon="8.771145"><ele>409.75</ele><time>2026-04-19T15:59:14.434Z</time></trkpt><trkpt lat="40.5060383" lon="8.771125"><ele>409.5</ele><time>2026-04-19T15:59:15.434Z</time></trkpt><trkpt lat="40.5059067" lon="8.7711017"><ele>409.25</ele><time>2026-04-19T15:59:16.434Z</time></trkpt><trkpt lat="40.5057817" lon="8.7710567"><ele>409.0</ele><time>2026-04-19T15:59:17.433Z</time></trkpt><trkpt lat="40.50566" lon="8.771025"><ele>409.0</ele><time>2026-04-19T15:59:18.434Z</time></trkpt><trkpt lat="40.5055433" lon="8.7709717"><ele>409.0</ele><time>2026-04-19T15:59:19.434Z</time></trkpt><trkpt lat="40.5054317" lon="8.7709183"><ele>409.0</ele><time>2026-04-19T15:59:20.434Z</time></trkpt><trkpt lat="40.5053283" lon="8.77087"><ele>409.0</ele><time>2026-04-19T15:59:21.434Z</time></trkpt><trkpt lat="40.5052317" lon="8.7708217"><ele>408.83333333333337</ele><time>2026-04-19T15:59:22.434Z</time></trkpt><trkpt lat="40.5051467" lon="8.770785"><ele>408.6666666666667</ele><time>2026-04-19T15:59:23.434Z</time></trkpt><trkpt lat="40.50507" lon="8.7707583"><ele>408.5</ele><time>2026-04-19T15:59:24.433Z</time></trkpt><trkpt lat="40.5050067" lon="8.7707433"><ele>408.33333333333337</ele><time>2026-04-19T15:59:25.434Z</time></trkpt><trkpt lat="40.5048883" lon="8.7707933"><ele>408.1666666666667</ele><time>2026-04-19T15:59:27.433Z</time></trkpt><trkpt lat="40.50483" lon="8.7708583"><ele>408.0</ele><time>2026-04-19T15:59:28.433Z</time></trkpt><trkpt lat="40.504765" lon="8.7709367"><ele>408.0</ele><time>2026-04-19T15:59:29.433Z</time></trkpt><trkpt lat="40.5046933" lon="8.7710233"><ele>408.0</ele><time>2026-04-19T15:59:30.433Z</time></trkpt><trkpt lat="40.5046133" lon="8.7711"><ele>408.0</ele><time>2026-04-19T15:59:31.433Z</time></trkpt><trkpt lat="40.5045367" lon="8.77115"><ele>408.0</ele><time>2026-04-19T15:59:32.433Z</time></trkpt><trkpt lat="40.5044633" lon="8.7711767"><ele>408.0</ele><time>2026-04-19T15:59:33.433Z</time></trkpt><trkpt lat="40.5044" lon="8.7711967"><ele>408.0</ele><time>2026-04-19T15:59:34.434Z</time></trkpt><trkpt lat="40.5043133" lon="8.7712217"><ele>407.42857142857144</ele><time>2026-04-19T15:59:36.433Z</time></trkpt><trkpt lat="40.504255" lon="8.7711767"><ele>406.8571428571429</ele><time>2026-04-19T15:59:52.433Z</time></trkpt><trkpt lat="40.504185" lon="8.7711333"><ele>406.2857142857143</ele><time>2026-04-19T15:59:54.434Z</time></trkpt><trkpt lat="40.5040967" lon="8.7711717"><ele>405.7142857142857</ele><time>2026-04-19T15:59:56.433Z</time></trkpt><trkpt lat="40.5040467" lon="8.7712267"><ele>405.1428571428571</ele><time>2026-04-19T15:59:57.433Z</time></trkpt><trkpt lat="40.5039983" lon="8.7712917"><ele>404.57142857142856</ele><time>2026-04-19T15:59:58.433Z</time></trkpt><trkpt lat="40.5039433" lon="8.77136"><ele>404.0</ele><time>2026-04-19T15:59:59.433Z</time></trkpt><trkpt lat="40.5038883" lon="8.7714267"><ele>403.99999999999994</ele><time>2026-04-19T16:00:00.433Z</time></trkpt><trkpt lat="40.5038383" lon="8.7714917"><ele>404.0</ele><time>2026-04-19T16:00:01.433Z</time></trkpt><trkpt lat="40.5037717" lon="8.7715517"><ele>404.0</ele><time>2026-04-19T16:00:02.433Z</time></trkpt><trkpt lat="40.5036883" lon="8.77158"><ele>404.0</ele><time>2026-04-19T16:00:03.433Z</time></trkpt><trkpt lat="40.50359" lon="8.7716017"><ele>403.99999999999994</ele><time>2026-04-19T16:00:04.434Z</time></trkpt><trkpt lat="40.503495" lon="8.7716483"><ele>404.0</ele><time>2026-04-19T16:00:05.433Z</time></trkpt><trkpt lat="40.5034167" lon="8.7717017"><ele>403.8333333333333</ele><time>2026-04-19T16:00:06.433Z</time></trkpt><trkpt lat="40.50335" lon="8.7717633"><ele>403.66666666666663</ele><time>2026-04-19T16:00:07.433Z</time></trkpt><trkpt lat="40.5032883" lon="8.7718317"><ele>403.5</ele><time>2026-04-19T16:00:08.433Z</time></trkpt><trkpt lat="40.5032317" lon="8.7718833"><ele>403.33333333333337</ele><time>2026-04-19T16:00:09.433Z</time></trkpt><trkpt lat="40.5031733" lon="8.7719267"><ele>403.1666666666667</ele><time>2026-04-19T16:00:10.433Z</time></trkpt><trkpt lat="40.503075" lon="8.7719433"><ele>403.0</ele><time>2026-04-19T16:00:12.433Z</time></trkpt><trkpt lat="40.503005" lon="8.771815"><ele>402.79999999999995</ele><time>2026-04-19T16:00:14.433Z</time></trkpt><trkpt lat="40.50298" lon="8.7717083"><ele>402.6</ele><time>2026-04-19T16:00:15.434Z</time></trkpt><trkpt lat="40.5029383" lon="8.7715867"><ele>402.4</ele><time>2026-04-19T16:00:16.434Z</time></trkpt><trkpt lat="40.5028817" lon="8.77146"><ele>402.20000000000005</ele><time>2026-04-19T16:00:17.433Z</time></trkpt><trkpt lat="40.5028267" lon="8.77135"><ele>402.0</ele><time>2026-04-19T16:00:18.433Z</time></trkpt><trkpt lat="40.50277" lon="8.77126"><ele>401.5</ele><time>2026-04-19T16:00:19.433Z</time></trkpt><trkpt lat="40.5027117" lon="8.7712"><ele>401.0</ele><time>2026-04-19T16:00:20.434Z</time></trkpt><trkpt lat="40.5026367" lon="8.7711733"><ele>400.5</ele><time>2026-04-19T16:00:21.434Z</time></trkpt><trkpt lat="40.5025617" lon="8.77118"><ele>400.0</ele><time>2026-04-19T16:00:22.433Z</time></trkpt><trkpt lat="40.5024817" lon="8.771215"><ele>399.5</ele><time>2026-04-19T16:00:23.433Z</time></trkpt><trkpt lat="40.5024083" lon="8.7712483"><ele>399.0</ele><time>2026-04-19T16:00:24.434Z</time></trkpt><trkpt lat="40.5023367" lon="8.7712617"><ele>399.0</ele><time>2026-04-19T16:00:25.433Z</time></trkpt><trkpt lat="40.50227" lon="8.7712633"><ele>399.0</ele><time>2026-04-19T16:00:26.433Z</time></trkpt><trkpt lat="40.5021917" lon="8.77125"><ele>399.0</ele><time>2026-04-19T16:00:27.434Z</time></trkpt><trkpt lat="40.5021183" lon="8.7712467"><ele>399.0</ele><time>2026-04-19T16:00:28.433Z</time></trkpt><trkpt lat="40.50205" lon="8.7712433"><ele>399.0</ele><time>2026-04-19T16:00:29.434Z</time></trkpt><trkpt lat="40.5019817" lon="8.771235"><ele>399.0</ele><time>2026-04-19T16:00:30.434Z</time></trkpt><trkpt lat="40.5019083" lon="8.771235"><ele>399.0</ele><time>2026-04-19T16:00:31.433Z</time></trkpt><trkpt lat="40.5018433" lon="8.7712417"><ele>398.79999999999995</ele><time>2026-04-19T16:00:32.433Z</time></trkpt><trkpt lat="40.5017783" lon="8.7712517"><ele>398.59999999999997</ele><time>2026-04-19T16:00:33.434Z</time></trkpt><trkpt lat="40.5016683" lon="8.77125"><ele>398.4</ele><time>2026-04-19T16:00:35.434Z</time></trkpt><trkpt lat="40.501555" lon="8.7712483"><ele>398.2</ele><time>2026-04-19T16:00:37.434Z</time></trkpt><trkpt lat="40.50146" lon="8.7712633"><ele>398.0</ele><time>2026-04-19T16:00:39.433Z</time></trkpt><trkpt lat="40.5013517" lon="8.771295"><ele>397.0</ele><time>2026-04-19T16:00:41.433Z</time></trkpt><trkpt lat="40.50124" lon="8.7713317"><ele>396.0</ele><time>2026-04-19T16:00:43.434Z</time></trkpt><trkpt lat="40.5011317" lon="8.7713667"><ele>395.0</ele><time>2026-04-19T16:00:45.433Z</time></trkpt><trkpt lat="40.5010217" lon="8.7714167"><ele>394.0</ele><time>2026-04-19T16:00:47.434Z</time></trkpt><trkpt lat="40.5009117" lon="8.7714567"><ele>394.00000000000006</ele><time>2026-04-19T16:00:49.434Z</time></trkpt><trkpt lat="40.5008283" lon="8.7714867"><ele>394.0</ele><time>2026-04-19T16:00:51.433Z</time></trkpt><trkpt lat="40.5007533" lon="8.7715217"><ele>394.0</ele><time>2026-04-19T16:00:53.434Z</time></trkpt><trkpt lat="40.5006583" lon="8.7715467"><ele>394.0</ele><time>2026-04-19T16:00:55.433Z</time></trkpt><trkpt lat="40.500565" lon="8.7715767"><ele>394.00000000000006</ele><time>2026-04-19T16:00:57.434Z</time></trkpt><trkpt lat="40.5004883" lon="8.7716067"><ele>394.0</ele><time>2026-04-19T16:00:59.433Z</time></trkpt><trkpt lat="40.5004183" lon="8.7716383"><ele>394.2</ele><time>2026-04-19T16:01:02.434Z</time></trkpt><trkpt lat="40.500345" lon="8.7716833"><ele>394.4</ele><time>2026-04-19T16:01:14.433Z</time></trkpt><trkpt lat="40.5002633" lon="8.7717667"><ele>394.6</ele><time>2026-04-19T16:01:16.433Z</time></trkpt><trkpt lat="40.5001983" lon="8.771835"><ele>394.8</ele><time>2026-04-19T16:01:18.433Z</time></trkpt><trkpt lat="40.5000883" lon="8.771875"><ele>395.0</ele><time>2026-04-19T16:01:20.433Z</time></trkpt><trkpt lat="40.50002" lon="8.771885"><ele>395.0</ele><time>2026-04-19T16:01:21.434Z</time></trkpt><trkpt lat="40.4999533" lon="8.7718933"><ele>395.0</ele><time>2026-04-19T16:01:22.434Z</time></trkpt><trkpt lat="40.4998883" lon="8.7719017"><ele>395.0</ele><time>2026-04-19T16:01:23.433Z</time></trkpt><trkpt lat="40.499825" lon="8.7719133"><ele>395.0</ele><time>2026-04-19T16:01:24.433Z</time></trkpt><trkpt lat="40.4997483" lon="8.7719233"><ele>395.0</ele><time>2026-04-19T16:01:25.434Z</time></trkpt><trkpt lat="40.499665" lon="8.7719333"><ele>395.0</ele><time>2026-04-19T16:01:26.434Z</time></trkpt><trkpt lat="40.4995783" lon="8.7719433"><ele>395.0</ele><time>2026-04-19T16:01:27.433Z</time></trkpt><trkpt lat="40.4994783" lon="8.7719517"><ele>395.5</ele><time>2026-04-19T16:01:28.432Z</time></trkpt><trkpt lat="40.49937" lon="8.77198"><ele>396.0</ele><time>2026-04-19T16:01:29.433Z</time></trkpt><trkpt lat="40.499265" lon="8.772015"><ele>396.5</ele><time>2026-04-19T16:01:30.432Z</time></trkpt><trkpt lat="40.4991533" lon="8.7720417"><ele>397.0</ele><time>2026-04-19T16:01:31.432Z</time></trkpt><trkpt lat="40.499035" lon="8.7720533"><ele>397.0</ele><time>2026-04-19T16:01:32.432Z</time></trkpt><trkpt lat="40.4989233" lon="8.7720633"><ele>397.0</ele><time>2026-04-19T16:01:33.432Z</time></trkpt><trkpt lat="40.49882" lon="8.77207"><ele>397.0</ele><time>2026-04-19T16:01:34.433Z</time></trkpt><trkpt lat="40.4987233" lon="8.7720733"><ele>397.0</ele><time>2026-04-19T16:01:35.432Z</time></trkpt><trkpt lat="40.4986217" lon="8.7720783"><ele>397.0</ele><time>2026-04-19T16:01:36.433Z</time></trkpt><trkpt lat="40.4985133" lon="8.7720783"><ele>396.20000000000005</ele><time>2026-04-19T16:01:37.433Z</time></trkpt><trkpt lat="40.49841" lon="8.7720917"><ele>395.4</ele><time>2026-04-19T16:01:38.432Z</time></trkpt><trkpt lat="40.4982983" lon="8.772105"><ele>394.6</ele><time>2026-04-19T16:01:39.433Z</time></trkpt><trkpt lat="40.49818" lon="8.7721317"><ele>393.79999999999995</ele><time>2026-04-19T16:01:40.432Z</time></trkpt><trkpt lat="40.498075" lon="8.7721717"><ele>393.0</ele><time>2026-04-19T16:01:41.433Z</time></trkpt><trkpt lat="40.497965" lon="8.7722217"><ele>389.75</ele><time>2026-04-19T16:01:42.433Z</time></trkpt><trkpt lat="40.497855" lon="8.7722717"><ele>386.5</ele><time>2026-04-19T16:01:43.432Z</time></trkpt><trkpt lat="40.497745" lon="8.772325"><ele>383.25</ele><time>2026-04-19T16:01:44.432Z</time></trkpt><trkpt lat="40.4976367" lon="8.7723767"><ele>380.0</ele><time>2026-04-19T16:01:45.433Z</time></trkpt><trkpt lat="40.4975333" lon="8.77243"><ele>380.0</ele><time>2026-04-19T16:01:46.432Z</time></trkpt><trkpt lat="40.4974283" lon="8.7724833"><ele>380.0</ele><time>2026-04-19T16:01:47.432Z</time></trkpt><trkpt lat="40.4973217" lon="8.7725417"><ele>380.0</ele><time>2026-04-19T16:01:48.432Z</time></trkpt><trkpt lat="40.4972117" lon="8.7726017"><ele>380.0</ele><time>2026-04-19T16:01:49.432Z</time></trkpt><trkpt lat="40.4971083" lon="8.7726517"><ele>377.0</ele><time>2026-04-19T16:01:50.432Z</time></trkpt><trkpt lat="40.497005" lon="8.7726933"><ele>374.0</ele><time>2026-04-19T16:01:51.433Z</time></trkpt><trkpt lat="40.4969067" lon="8.772735"><ele>371.0</ele><time>2026-04-19T16:01:52.433Z</time></trkpt><trkpt lat="40.49681" lon="8.7727783"><ele>368.0</ele><time>2026-04-19T16:01:53.432Z</time></trkpt><trkpt lat="40.4967167" lon="8.7728117"><ele>365.0</ele><time>2026-04-19T16:01:54.432Z</time></trkpt><trkpt lat="40.4966217" lon="8.7728217"><ele>365.0</ele><time>2026-04-19T16:01:55.432Z</time></trkpt><trkpt lat="40.4965217" lon="8.7728117"><ele>365.0</ele><time>2026-04-19T16:01:56.432Z</time></trkpt><trkpt lat="40.4964117" lon="8.7727833"><ele>365.0</ele><time>2026-04-19T16:01:57.433Z</time></trkpt><trkpt lat="40.4963033" lon="8.772735"><ele>365.0</ele><time>2026-04-19T16:01:58.433Z</time></trkpt><trkpt lat="40.496185" lon="8.7726667"><ele>362.75</ele><time>2026-04-19T16:01:59.433Z</time></trkpt><trkpt lat="40.4960717" lon="8.772615"><ele>360.5</ele><time>2026-04-19T16:02:00.433Z</time></trkpt><trkpt lat="40.4959483" lon="8.7725533"><ele>358.25</ele><time>2026-04-19T16:02:01.432Z</time></trkpt><trkpt lat="40.4958267" lon="8.7724817"><ele>356.0</ele><time>2026-04-19T16:02:02.432Z</time></trkpt><trkpt lat="40.4957217" lon="8.77241"><ele>356.0</ele><time>2026-04-19T16:02:03.432Z</time></trkpt><trkpt lat="40.49561" lon="8.77234"><ele>356.0</ele><time>2026-04-19T16:02:04.432Z</time></trkpt><trkpt lat="40.4955033" lon="8.7722717"><ele>356.0</ele><time>2026-04-19T16:02:05.433Z</time></trkpt><trkpt lat="40.4954" lon="8.772215"><ele>356.0</ele><time>2026-04-19T16:02:06.433Z</time></trkpt><trkpt lat="40.4952983" lon="8.772165"><ele>354.25</ele><time>2026-04-19T16:02:07.433Z</time></trkpt><trkpt lat="40.4951917" lon="8.7721183"><ele>352.5</ele><time>2026-04-19T16:02:08.433Z</time></trkpt><trkpt lat="40.4950717" lon="8.7720533"><ele>350.75</ele><time>2026-04-19T16:02:09.433Z</time></trkpt><trkpt lat="40.4949467" lon="8.77198"><ele>349.0</ele><time>2026-04-19T16:02:10.432Z</time></trkpt><trkpt lat="40.4948083" lon="8.7719217"><ele>349.0</ele><time>2026-04-19T16:02:11.432Z</time></trkpt><trkpt lat="40.4946633" lon="8.771855"><ele>349.0</ele><time>2026-04-19T16:02:12.433Z</time></trkpt><trkpt lat="40.49452" lon="8.7718233"><ele>349.0</ele><time>2026-04-19T16:02:13.432Z</time></trkpt><trkpt lat="40.4943833" lon="8.7717967"><ele>349.0</ele><time>2026-04-19T16:02:14.432Z</time></trkpt><trkpt lat="40.4942533" lon="8.7717717"><ele>349.0</ele><time>2026-04-19T16:02:15.432Z</time></trkpt><trkpt lat="40.4941217" lon="8.7717583"><ele>349.0</ele><time>2026-04-19T16:02:16.432Z</time></trkpt><trkpt lat="40.493985" lon="8.7717683"><ele>349.0</ele><time>2026-04-19T16:02:17.432Z</time></trkpt><trkpt lat="40.4938367" lon="8.7717867"><ele>349.0</ele><time>2026-04-19T16:02:18.432Z</time></trkpt><trkpt lat="40.493675" lon="8.7718083"><ele>350.0</ele><time>2026-04-19T16:02:19.432Z</time></trkpt><trkpt lat="40.4935083" lon="8.7718433"><ele>351.0</ele><time>2026-04-19T16:02:20.433Z</time></trkpt><trkpt lat="40.4933383" lon="8.7718717"><ele>352.0</ele><time>2026-04-19T16:02:21.432Z</time></trkpt><trkpt lat="40.49317" lon="8.7718933"><ele>352.0</ele><time>2026-04-19T16:02:22.433Z</time></trkpt><trkpt lat="40.4930017" lon="8.771905"><ele>352.0</ele><time>2026-04-19T16:02:23.433Z</time></trkpt><trkpt lat="40.49284" lon="8.7719317"><ele>352.0</ele><time>2026-04-19T16:02:24.432Z</time></trkpt><trkpt lat="40.4926833" lon="8.77197"><ele>350.66666666666663</ele><time>2026-04-19T16:02:25.433Z</time></trkpt><trkpt lat="40.492525" lon="8.7720267"><ele>349.3333333333333</ele><time>2026-04-19T16:02:26.433Z</time></trkpt><trkpt lat="40.4923667" lon="8.7720817"><ele>348.0</ele><time>2026-04-19T16:02:27.432Z</time></trkpt><trkpt lat="40.4922017" lon="8.7721117"><ele>347.6666666666667</ele><time>2026-04-19T16:02:28.432Z</time></trkpt><trkpt lat="40.4920417" lon="8.7721317"><ele>347.33333333333337</ele><time>2026-04-19T16:02:29.432Z</time></trkpt><trkpt lat="40.4918867" lon="8.7721483"><ele>347.0</ele><time>2026-04-19T16:02:30.432Z</time></trkpt><trkpt lat="40.491745" lon="8.77218"><ele>347.0</ele><time>2026-04-19T16:02:31.432Z</time></trkpt><trkpt lat="40.491615" lon="8.7722083"><ele>347.0</ele><time>2026-04-19T16:02:32.433Z</time></trkpt><trkpt lat="40.4914983" lon="8.77222"><ele>347.0</ele><time>2026-04-19T16:02:33.433Z</time></trkpt><trkpt lat="40.4913983" lon="8.772235"><ele>347.0</ele><time>2026-04-19T16:02:34.433Z</time></trkpt><trkpt lat="40.4913117" lon="8.7722417"><ele>347.0</ele><time>2026-04-19T16:02:35.432Z</time></trkpt><trkpt lat="40.4912267" lon="8.7722567"><ele>347.6</ele><time>2026-04-19T16:02:36.433Z</time></trkpt><trkpt lat="40.4911367" lon="8.7722667"><ele>348.20000000000005</ele><time>2026-04-19T16:02:37.433Z</time></trkpt><trkpt lat="40.4910417" lon="8.7722783"><ele>348.8</ele><time>2026-04-19T16:02:38.433Z</time></trkpt><trkpt lat="40.4909483" lon="8.7722867"><ele>349.4</ele><time>2026-04-19T16:02:39.433Z</time></trkpt><trkpt lat="40.4908517" lon="8.7722967"><ele>350.0</ele><time>2026-04-19T16:02:40.432Z</time></trkpt><trkpt lat="40.4907583" lon="8.772305"><ele>350.0</ele><time>2026-04-19T16:02:41.433Z</time></trkpt><trkpt lat="40.4906683" lon="8.7723283"><ele>350.0</ele><time>2026-04-19T16:02:42.433Z</time></trkpt><trkpt lat="40.490585" lon="8.77236"><ele>350.0</ele><time>2026-04-19T16:02:43.433Z</time></trkpt><trkpt lat="40.4904983" lon="8.7724133"><ele>350.0</ele><time>2026-04-19T16:02:44.433Z</time></trkpt><trkpt lat="40.490415" lon="8.7724967"><ele>350.0</ele><time>2026-04-19T16:02:45.433Z</time></trkpt><trkpt lat="40.49034" lon="8.7725917"><ele>351.0</ele><time>2026-04-19T16:02:46.433Z</time></trkpt><trkpt lat="40.4902617" lon="8.7726817"><ele>352.0</ele><time>2026-04-19T16:02:47.433Z</time></trkpt><trkpt lat="40.49019" lon="8.7727733"><ele>353.0</ele><time>2026-04-19T16:02:48.432Z</time></trkpt><trkpt lat="40.4901167" lon="8.77286"><ele>354.0</ele><time>2026-04-19T16:02:49.432Z</time></trkpt><trkpt lat="40.490045" lon="8.7729517"><ele>355.0</ele><time>2026-04-19T16:02:50.432Z</time></trkpt><trkpt lat="40.489975" lon="8.7730583"><ele>355.0</ele><time>2026-04-19T16:02:51.433Z</time></trkpt><trkpt lat="40.4899033" lon="8.773175"><ele>355.0</ele><time>2026-04-19T16:02:52.433Z</time></trkpt><trkpt lat="40.489825" lon="8.773295"><ele>355.0</ele><time>2026-04-19T16:02:53.433Z</time></trkpt><trkpt lat="40.48975" lon="8.773395"><ele>355.0</ele><time>2026-04-19T16:02:54.432Z</time></trkpt><trkpt lat="40.4896833" lon="8.7734933"><ele>355.0</ele><time>2026-04-19T16:02:55.432Z</time></trkpt><trkpt lat="40.4896083" lon="8.773585"><ele>355.5</ele><time>2026-04-19T16:02:56.433Z</time></trkpt><trkpt lat="40.489525" lon="8.77368"><ele>356.0</ele><time>2026-04-19T16:02:57.432Z</time></trkpt><trkpt lat="40.48944" lon="8.7737667"><ele>356.5</ele><time>2026-04-19T16:02:58.432Z</time></trkpt><trkpt lat="40.48935" lon="8.77386"><ele>357.0</ele><time>2026-04-19T16:02:59.432Z</time></trkpt><trkpt lat="40.4892617" lon="8.7739633"><ele>357.0</ele><time>2026-04-19T16:03:00.432Z</time></trkpt><trkpt lat="40.4891767" lon="8.7740733"><ele>357.0</ele><time>2026-04-19T16:03:01.432Z</time></trkpt><trkpt lat="40.4890933" lon="8.7741767"><ele>357.0</ele><time>2026-04-19T16:03:02.432Z</time></trkpt><trkpt lat="40.48901" lon="8.774285"><ele>357.0</ele><time>2026-04-19T16:03:03.433Z</time></trkpt><trkpt lat="40.4889283" lon="8.774415"><ele>357.0</ele><time>2026-04-19T16:03:04.432Z</time></trkpt><trkpt lat="40.48884" lon="8.7745433"><ele>357.0</ele><time>2026-04-19T16:03:05.432Z</time></trkpt><trkpt lat="40.4887533" lon="8.7746767"><ele>357.0</ele><time>2026-04-19T16:03:06.433Z</time></trkpt><trkpt lat="40.48867" lon="8.7748083"><ele>357.0</ele><time>2026-04-19T16:03:07.432Z</time></trkpt><trkpt lat="40.4885867" lon="8.7749367"><ele>357.0</ele><time>2026-04-19T16:03:08.433Z</time></trkpt><trkpt lat="40.4884967" lon="8.77507"><ele>357.0</ele><time>2026-04-19T16:03:09.433Z</time></trkpt><trkpt lat="40.4884083" lon="8.7752"><ele>357.0</ele><time>2026-04-19T16:03:10.433Z</time></trkpt><trkpt lat="40.4883067" lon="8.7753233"><ele>357.0</ele><time>2026-04-19T16:03:11.433Z</time></trkpt><trkpt lat="40.4882" lon="8.7754317"><ele>357.0</ele><time>2026-04-19T16:03:12.432Z</time></trkpt><trkpt lat="40.4880933" lon="8.7755467"><ele>357.0</ele><time>2026-04-19T16:03:13.432Z</time></trkpt><trkpt lat="40.4879967" lon="8.775645"><ele>357.0</ele><time>2026-04-19T16:03:14.433Z</time></trkpt><trkpt lat="40.4879017" lon="8.7757333"><ele>357.0</ele><time>2026-04-19T16:03:15.432Z</time></trkpt><trkpt lat="40.4878183" lon="8.775815"><ele>356.75</ele><time>2026-04-19T16:03:16.432Z</time></trkpt><trkpt lat="40.4877217" lon="8.7758817"><ele>356.5</ele><time>2026-04-19T16:03:17.433Z</time></trkpt><trkpt lat="40.4876133" lon="8.775935"><ele>356.25</ele><time>2026-04-19T16:03:18.432Z</time></trkpt><trkpt lat="40.48749" lon="8.7759883"><ele>356.0</ele><time>2026-04-19T16:03:19.432Z</time></trkpt><trkpt lat="40.48736" lon="8.7760533"><ele>356.0</ele><time>2026-04-19T16:03:20.433Z</time></trkpt><trkpt lat="40.4872233" lon="8.776135"><ele>356.0</ele><time>2026-04-19T16:03:21.432Z</time></trkpt><trkpt lat="40.4870933" lon="8.77624"><ele>356.0</ele><time>2026-04-19T16:03:22.432Z</time></trkpt><trkpt lat="40.4869617" lon="8.77635"><ele>356.0</ele><time>2026-04-19T16:03:23.433Z</time></trkpt><trkpt lat="40.4868367" lon="8.7764733"><ele>356.0</ele><time>2026-04-19T16:03:24.433Z</time></trkpt><trkpt lat="40.4867283" lon="8.77659"><ele>356.0</ele><time>2026-04-19T16:03:25.432Z</time></trkpt><trkpt lat="40.4866283" lon="8.7766933"><ele>356.0</ele><time>2026-04-19T16:03:26.432Z</time></trkpt><trkpt lat="40.486535" lon="8.7767967"><ele>356.20000000000005</ele><time>2026-04-19T16:03:27.432Z</time></trkpt><trkpt lat="40.48645" lon="8.7768917"><ele>356.40000000000003</ele><time>2026-04-19T16:03:28.433Z</time></trkpt><trkpt lat="40.4863717" lon="8.7769817"><ele>356.6</ele><time>2026-04-19T16:03:29.432Z</time></trkpt><trkpt lat="40.4863" lon="8.7770517"><ele>356.8</ele><time>2026-04-19T16:03:30.432Z</time></trkpt><trkpt lat="40.48624" lon="8.7771167"><ele>357.0</ele><time>2026-04-19T16:03:31.433Z</time></trkpt><trkpt lat="40.4861833" lon="8.7771683"><ele>357.20000000000005</ele><time>2026-04-19T16:03:32.432Z</time></trkpt><trkpt lat="40.486095" lon="8.7772533"><ele>357.4</ele><time>2026-04-19T16:03:34.432Z</time></trkpt><trkpt lat="40.4859917" lon="8.7772767"><ele>357.6</ele><time>2026-04-19T16:03:36.432Z</time></trkpt><trkpt lat="40.485895" lon="8.777225"><ele>357.79999999999995</ele><time>2026-04-19T16:03:38.433Z</time></trkpt><trkpt lat="40.485815" lon="8.7771783"><ele>358.0</ele><time>2026-04-19T16:03:40.432Z</time></trkpt><trkpt lat="40.48575" lon="8.7771817"><ele>358.0</ele><time>2026-04-19T16:03:42.432Z</time></trkpt><trkpt lat="40.4856817" lon="8.7773083"><ele>358.0</ele><time>2026-04-19T16:03:44.432Z</time></trkpt><trkpt lat="40.485645" lon="8.7774083"><ele>358.0</ele><time>2026-04-19T16:03:45.432Z</time></trkpt><trkpt lat="40.4856067" lon="8.7775133"><ele>358.0</ele><time>2026-04-19T16:03:46.433Z</time></trkpt><trkpt lat="40.485565" lon="8.7776267"><ele>358.0</ele><time>2026-04-19T16:03:47.432Z</time></trkpt><trkpt lat="40.485525" lon="8.7777283"><ele>357.59999999999997</ele><time>2026-04-19T16:03:48.433Z</time></trkpt><trkpt lat="40.485485" lon="8.7778283"><ele>357.2</ele><time>2026-04-19T16:03:49.432Z</time></trkpt><trkpt lat="40.4854467" lon="8.77793"><ele>356.8</ele><time>2026-04-19T16:03:50.432Z</time></trkpt><trkpt lat="40.4854067" lon="8.7780317"><ele>356.4</ele><time>2026-04-19T16:03:51.432Z</time></trkpt><trkpt lat="40.4853617" lon="8.778145"><ele>356.0</ele><time>2026-04-19T16:03:52.433Z</time></trkpt><trkpt lat="40.4853117" lon="8.7782733"><ele>355.75</ele><time>2026-04-19T16:03:53.433Z</time></trkpt><trkpt lat="40.4852567" lon="8.7784167"><ele>355.5</ele><time>2026-04-19T16:03:54.432Z</time></trkpt><trkpt lat="40.4851967" lon="8.77857"><ele>355.25</ele><time>2026-04-19T16:03:55.433Z</time></trkpt><trkpt lat="40.48514" lon="8.7787317"><ele>355.0</ele><time>2026-04-19T16:03:56.433Z</time></trkpt><trkpt lat="40.4850717" lon="8.7788983"><ele>354.75</ele><time>2026-04-19T16:03:57.433Z</time></trkpt><trkpt lat="40.4850083" lon="8.7790733"><ele>354.5</ele><time>2026-04-19T16:03:58.432Z</time></trkpt><trkpt lat="40.48494" lon="8.779245"><ele>354.25</ele><time>2026-04-19T16:03:59.432Z</time></trkpt><trkpt lat="40.484875" lon="8.779405"><ele>354.0</ele><time>2026-04-19T16:04:00.432Z</time></trkpt><trkpt lat="40.484805" lon="8.7795733"><ele>354.0</ele><time>2026-04-19T16:04:01.433Z</time></trkpt><trkpt lat="40.484735" lon="8.7797533"><ele>354.0</ele><time>2026-04-19T16:04:02.432Z</time></trkpt><trkpt lat="40.4846617" lon="8.7799233"><ele>354.0</ele><time>2026-04-19T16:04:03.433Z</time></trkpt><trkpt lat="40.4845967" lon="8.7800983"><ele>354.25</ele><time>2026-04-19T16:04:04.433Z</time></trkpt><trkpt lat="40.4845333" lon="8.7802633"><ele>354.5</ele><time>2026-04-19T16:04:05.433Z</time></trkpt><trkpt lat="40.48447" lon="8.7804233"><ele>354.75</ele><time>2026-04-19T16:04:06.433Z</time></trkpt><trkpt lat="40.4843967" lon="8.78059"><ele>355.0</ele><time>2026-04-19T16:04:07.433Z</time></trkpt><trkpt lat="40.48432" lon="8.780765"><ele>355.0</ele><time>2026-04-19T16:04:08.432Z</time></trkpt><trkpt lat="40.4842467" lon="8.780945"><ele>355.0</ele><time>2026-04-19T16:04:09.433Z</time></trkpt><trkpt lat="40.484175" lon="8.7811383"><ele>355.0</ele><time>2026-04-19T16:04:10.432Z</time></trkpt><trkpt lat="40.4840967" lon="8.781335"><ele>355.0</ele><time>2026-04-19T16:04:11.433Z</time></trkpt><trkpt lat="40.4840083" lon="8.7815267"><ele>355.0</ele><time>2026-04-19T16:04:12.432Z</time></trkpt><trkpt lat="40.4839167" lon="8.7817267"><ele>355.0</ele><time>2026-04-19T16:04:13.432Z</time></trkpt><trkpt lat="40.4838133" lon="8.7819117"><ele>355.0</ele><time>2026-04-19T16:04:14.432Z</time></trkpt><trkpt lat="40.4837033" lon="8.78208"><ele>355.0</ele><time>2026-04-19T16:04:15.432Z</time></trkpt><trkpt lat="40.4836017" lon="8.7822283"><ele>355.0</ele><time>2026-04-19T16:04:16.433Z</time></trkpt><trkpt lat="40.4834967" lon="8.7823717"><ele>355.0</ele><time>2026-04-19T16:04:17.433Z</time></trkpt><trkpt lat="40.4833833" lon="8.7825083"><ele>355.0</ele><time>2026-04-19T16:04:18.432Z</time></trkpt><trkpt lat="40.483265" lon="8.78264"><ele>355.0</ele><time>2026-04-19T16:04:19.432Z</time></trkpt><trkpt lat="40.4831467" lon="8.7827617"><ele>355.3333333333333</ele><time>2026-04-19T16:04:20.433Z</time></trkpt><trkpt lat="40.4830217" lon="8.7828767"><ele>355.6666666666667</ele><time>2026-04-19T16:04:21.432Z</time></trkpt><trkpt lat="40.4828917" lon="8.7829783"><ele>356.0</ele><time>2026-04-19T16:04:22.432Z</time></trkpt><trkpt lat="40.48276" lon="8.7830867"><ele>355.5</ele><time>2026-04-19T16:04:23.433Z</time></trkpt><trkpt lat="40.4826317" lon="8.783185"><ele>355.0</ele><time>2026-04-19T16:04:24.433Z</time></trkpt><trkpt lat="40.482505" lon="8.7832833"><ele>354.5</ele><time>2026-04-19T16:04:25.433Z</time></trkpt><trkpt lat="40.4823817" lon="8.78338"><ele>354.0</ele><time>2026-04-19T16:04:26.433Z</time></trkpt><trkpt lat="40.48226" lon="8.7834833"><ele>353.75</ele><time>2026-04-19T16:04:27.432Z</time></trkpt><trkpt lat="40.4821367" lon="8.7835883"><ele>353.5</ele><time>2026-04-19T16:04:28.433Z</time></trkpt><trkpt lat="40.4820167" lon="8.7836983"><ele>353.25</ele><time>2026-04-19T16:04:29.433Z</time></trkpt><trkpt lat="40.4819" lon="8.7838117"><ele>353.0</ele><time>2026-04-19T16:04:30.432Z</time></trkpt><trkpt lat="40.48178" lon="8.7839483"><ele>352.6666666666667</ele><time>2026-04-19T16:04:31.433Z</time></trkpt><trkpt lat="40.481665" lon="8.78409"><ele>352.3333333333333</ele><time>2026-04-19T16:04:32.432Z</time></trkpt><trkpt lat="40.4815567" lon="8.7842533"><ele>352.0</ele><time>2026-04-19T16:04:33.432Z</time></trkpt><trkpt lat="40.4814467" lon="8.78442"><ele>352.0</ele><time>2026-04-19T16:04:34.432Z</time></trkpt><trkpt lat="40.4813467" lon="8.7845867"><ele>352.0</ele><time>2026-04-19T16:04:35.433Z</time></trkpt><trkpt lat="40.481245" lon="8.7847533"><ele>352.0</ele><time>2026-04-19T16:04:36.432Z</time></trkpt><trkpt lat="40.48114" lon="8.784925"><ele>351.66666666666663</ele><time>2026-04-19T16:04:37.433Z</time></trkpt><trkpt lat="40.4810333" lon="8.7850867"><ele>351.3333333333333</ele><time>2026-04-19T16:04:38.433Z</time></trkpt><trkpt lat="40.4809267" lon="8.7852517"><ele>351.0</ele><time>2026-04-19T16:04:39.432Z</time></trkpt><trkpt lat="40.4808217" lon="8.785425"><ele>351.0</ele><time>2026-04-19T16:04:40.432Z</time></trkpt><trkpt lat="40.4807217" lon="8.7855983"><ele>351.0</ele><time>2026-04-19T16:04:41.432Z</time></trkpt><trkpt lat="40.48062" lon="8.785765"><ele>351.0</ele><time>2026-04-19T16:04:42.433Z</time></trkpt><trkpt lat="40.4805167" lon="8.7859333"><ele>351.3333333333333</ele><time>2026-04-19T16:04:43.433Z</time></trkpt><trkpt lat="40.4804117" lon="8.78611"><ele>351.66666666666663</ele><time>2026-04-19T16:04:44.433Z</time></trkpt><trkpt lat="40.4803133" lon="8.7862917"><ele>352.0</ele><time>2026-04-19T16:04:45.432Z</time></trkpt><trkpt lat="40.480215" lon="8.7864833"><ele>352.0</ele><time>2026-04-19T16:04:46.432Z</time></trkpt><trkpt lat="40.48011" lon="8.78668"><ele>352.0</ele><time>2026-04-19T16:04:47.433Z</time></trkpt><trkpt lat="40.4799983" lon="8.7868667"><ele>352.0</ele><time>2026-04-19T16:04:48.432Z</time></trkpt><trkpt lat="40.47989" lon="8.7870467"><ele>352.0</ele><time>2026-04-19T16:04:49.433Z</time></trkpt><trkpt lat="40.4797683" lon="8.7872333"><ele>352.0</ele><time>2026-04-19T16:04:50.433Z</time></trkpt><trkpt lat="40.4796467" lon="8.78741"><ele>352.0</ele><time>2026-04-19T16:04:51.432Z</time></trkpt><trkpt lat="40.479525" lon="8.7875817"><ele>351.66666666666663</ele><time>2026-04-19T16:04:52.432Z</time></trkpt><trkpt lat="40.479405" lon="8.7877533"><ele>351.3333333333333</ele><time>2026-04-19T16:04:53.432Z</time></trkpt><trkpt lat="40.479285" lon="8.78793"><ele>351.0</ele><time>2026-04-19T16:04:54.432Z</time></trkpt><trkpt lat="40.4791667" lon="8.7881033"><ele>351.0</ele><time>2026-04-19T16:04:55.433Z</time></trkpt><trkpt lat="40.479045" lon="8.7882833"><ele>351.0</ele><time>2026-04-19T16:04:56.432Z</time></trkpt><trkpt lat="40.4789267" lon="8.7884633"><ele>351.0</ele><time>2026-04-19T16:04:57.432Z</time></trkpt><trkpt lat="40.47881" lon="8.78864"><ele>351.3333333333333</ele><time>2026-04-19T16:04:58.432Z</time></trkpt><trkpt lat="40.478695" lon="8.7887983"><ele>351.66666666666663</ele><time>2026-04-19T16:04:59.432Z</time></trkpt><trkpt lat="40.478575" lon="8.7889717"><ele>352.0</ele><time>2026-04-19T16:05:00.433Z</time></trkpt><trkpt lat="40.4784517" lon="8.7891417"><ele>352.0</ele><time>2026-04-19T16:05:01.432Z</time></trkpt><trkpt lat="40.4783317" lon="8.7893217"><ele>352.0</ele><time>2026-04-19T16:05:02.432Z</time></trkpt><trkpt lat="40.4782117" lon="8.78949"><ele>352.0</ele><time>2026-04-19T16:05:03.433Z</time></trkpt><trkpt lat="40.4780883" lon="8.789665"><ele>351.66666666666663</ele><time>2026-04-19T16:05:04.432Z</time></trkpt><trkpt lat="40.4779633" lon="8.78985"><ele>351.3333333333333</ele><time>2026-04-19T16:05:05.433Z</time></trkpt><trkpt lat="40.4778367" lon="8.7900317"><ele>351.0</ele><time>2026-04-19T16:05:06.433Z</time></trkpt><trkpt lat="40.4777083" lon="8.7902183"><ele>351.0</ele><time>2026-04-19T16:05:07.433Z</time></trkpt><trkpt lat="40.4775767" lon="8.790405"><ele>351.0</ele><time>2026-04-19T16:05:08.433Z</time></trkpt><trkpt lat="40.4774483" lon="8.7905783"><ele>351.0</ele><time>2026-04-19T16:05:09.433Z</time></trkpt><trkpt lat="40.4773217" lon="8.7907433"><ele>351.0</ele><time>2026-04-19T16:05:10.432Z</time></trkpt><trkpt lat="40.4771983" lon="8.790925"><ele>351.0</ele><time>2026-04-19T16:05:11.433Z</time></trkpt><trkpt lat="40.4770717" lon="8.7911083"><ele>351.0</ele><time>2026-04-19T16:05:12.433Z</time></trkpt><trkpt lat="40.4769467" lon="8.7912967"><ele>350.6666666666667</ele><time>2026-04-19T16:05:13.432Z</time></trkpt><trkpt lat="40.47682" lon="8.7914867"><ele>350.33333333333337</ele><time>2026-04-19T16:05:14.432Z</time></trkpt><trkpt lat="40.4767033" lon="8.7916683"><ele>350.0</ele><time>2026-04-19T16:05:15.432Z</time></trkpt><trkpt lat="40.4765867" lon="8.79184"><ele>349.6666666666667</ele><time>2026-04-19T16:05:16.432Z</time></trkpt><trkpt lat="40.4764667" lon="8.79201"><ele>349.3333333333333</ele><time>2026-04-19T16:05:17.433Z</time></trkpt><trkpt lat="40.4763433" lon="8.7921867"><ele>349.0</ele><time>2026-04-19T16:05:18.433Z</time></trkpt><trkpt lat="40.4762183" lon="8.7923583"><ele>348.66666666666663</ele><time>2026-04-19T16:05:19.433Z</time></trkpt><trkpt lat="40.4760917" lon="8.7925317"><ele>348.3333333333333</ele><time>2026-04-19T16:05:20.433Z</time></trkpt><trkpt lat="40.4759633" lon="8.792715"><ele>348.0</ele><time>2026-04-19T16:05:21.432Z</time></trkpt><trkpt lat="40.4758317" lon="8.7929033"><ele>348.6666666666667</ele><time>2026-04-19T16:05:22.433Z</time></trkpt><trkpt lat="40.4757" lon="8.7930783"><ele>349.33333333333337</ele><time>2026-04-19T16:05:23.432Z</time></trkpt><trkpt lat="40.475575" lon="8.793265"><ele>350.0</ele><time>2026-04-19T16:05:24.433Z</time></trkpt><trkpt lat="40.4754517" lon="8.793445"><ele>349.33333333333337</ele><time>2026-04-19T16:05:25.433Z</time></trkpt><trkpt lat="40.47533" lon="8.793625"><ele>348.6666666666667</ele><time>2026-04-19T16:05:26.433Z</time></trkpt><trkpt lat="40.4751983" lon="8.7938067"><ele>348.0</ele><time>2026-04-19T16:05:27.432Z</time></trkpt><trkpt lat="40.47507" lon="8.7939883"><ele>348.0</ele><time>2026-04-19T16:05:28.433Z</time></trkpt><trkpt lat="40.47494" lon="8.7941733"><ele>348.0</ele><time>2026-04-19T16:05:29.433Z</time></trkpt><trkpt lat="40.47481" lon="8.7943567"><ele>348.0</ele><time>2026-04-19T16:05:30.432Z</time></trkpt><trkpt lat="40.4746767" lon="8.794545"><ele>348.0</ele><time>2026-04-19T16:05:31.432Z</time></trkpt><trkpt lat="40.4745483" lon="8.79473"><ele>348.0</ele><time>2026-04-19T16:05:32.432Z</time></trkpt><trkpt lat="40.47443" lon="8.7949117"><ele>348.0</ele><time>2026-04-19T16:05:33.432Z</time></trkpt><trkpt lat="40.4743067" lon="8.7950833"><ele>347.3333333333333</ele><time>2026-04-19T16:05:34.432Z</time></trkpt><trkpt lat="40.4741833" lon="8.7952567"><ele>346.66666666666663</ele><time>2026-04-19T16:05:35.433Z</time></trkpt><trkpt lat="40.47406" lon="8.79543"><ele>346.0</ele><time>2026-04-19T16:05:36.432Z</time></trkpt><trkpt lat="40.4739317" lon="8.795605"><ele>346.0</ele><time>2026-04-19T16:05:37.433Z</time></trkpt><trkpt lat="40.4738017" lon="8.795765"><ele>346.0</ele><time>2026-04-19T16:05:38.432Z</time></trkpt><trkpt lat="40.47367" lon="8.7959433"><ele>346.0</ele><time>2026-04-19T16:05:39.432Z</time></trkpt><trkpt lat="40.47353" lon="8.796125"><ele>345.66666666666663</ele><time>2026-04-19T16:05:40.432Z</time></trkpt><trkpt lat="40.4733967" lon="8.7963083"><ele>345.3333333333333</ele><time>2026-04-19T16:05:41.432Z</time></trkpt><trkpt lat="40.4732683" lon="8.7964933"><ele>345.0</ele><time>2026-04-19T16:05:42.432Z</time></trkpt><trkpt lat="40.473135" lon="8.7966733"><ele>344.6666666666667</ele><time>2026-04-19T16:05:43.432Z</time></trkpt><trkpt lat="40.4730083" lon="8.7968483"><ele>344.33333333333337</ele><time>2026-04-19T16:05:44.433Z</time></trkpt><trkpt lat="40.4728783" lon="8.797025"><ele>344.0</ele><time>2026-04-19T16:05:45.432Z</time></trkpt><trkpt lat="40.472745" lon="8.7972067"><ele>344.0</ele><time>2026-04-19T16:05:46.432Z</time></trkpt><trkpt lat="40.4726217" lon="8.7973817"><ele>344.0</ele><time>2026-04-19T16:05:47.432Z</time></trkpt><trkpt lat="40.472495" lon="8.7975517"><ele>344.0</ele><time>2026-04-19T16:05:48.432Z</time></trkpt><trkpt lat="40.4723617" lon="8.797725"><ele>344.0</ele><time>2026-04-19T16:05:49.433Z</time></trkpt><trkpt lat="40.4722317" lon="8.7979083"><ele>344.0</ele><time>2026-04-19T16:05:50.433Z</time></trkpt><trkpt lat="40.4720967" lon="8.7980883"><ele>344.0</ele><time>2026-04-19T16:05:51.433Z</time></trkpt><trkpt lat="40.4719633" lon="8.7982633"><ele>344.0</ele><time>2026-04-19T16:05:52.433Z</time></trkpt><trkpt lat="40.47183" lon="8.798455"><ele>344.0</ele><time>2026-04-19T16:05:53.432Z</time></trkpt><trkpt lat="40.4716883" lon="8.7986417"><ele>344.0</ele><time>2026-04-19T16:05:54.432Z</time></trkpt><trkpt lat="40.4715483" lon="8.79883"><ele>344.0</ele><time>2026-04-19T16:05:55.433Z</time></trkpt><trkpt lat="40.471405" lon="8.7990267"><ele>344.0</ele><time>2026-04-19T16:05:56.432Z</time></trkpt><trkpt lat="40.471275" lon="8.7992117"><ele>344.0</ele><time>2026-04-19T16:05:57.432Z</time></trkpt><trkpt lat="40.4711383" lon="8.7994017"><ele>342.6666666666667</ele><time>2026-04-19T16:05:58.432Z</time></trkpt><trkpt lat="40.471005" lon="8.79958"><ele>341.3333333333333</ele><time>2026-04-19T16:05:59.433Z</time></trkpt><trkpt lat="40.47087" lon="8.7997633"><ele>340.0</ele><time>2026-04-19T16:06:00.433Z</time></trkpt><trkpt lat="40.4707483" lon="8.799935"><ele>340.0</ele><time>2026-04-19T16:06:01.432Z</time></trkpt><trkpt lat="40.4706267" lon="8.8001117"><ele>340.0</ele><time>2026-04-19T16:06:02.433Z</time></trkpt><trkpt lat="40.470495" lon="8.8002783"><ele>340.0</ele><time>2026-04-19T16:06:03.433Z</time></trkpt><trkpt lat="40.4703667" lon="8.8004533"><ele>339.66666666666663</ele><time>2026-04-19T16:06:04.433Z</time></trkpt><trkpt lat="40.4702483" lon="8.8006283"><ele>339.3333333333333</ele><time>2026-04-19T16:06:05.432Z</time></trkpt><trkpt lat="40.4701267" lon="8.8008"><ele>339.0</ele><time>2026-04-19T16:06:06.433Z</time></trkpt><trkpt lat="40.4700133" lon="8.80096"><ele>339.6666666666667</ele><time>2026-04-19T16:06:07.432Z</time></trkpt><trkpt lat="40.469895" lon="8.801115"><ele>340.33333333333337</ele><time>2026-04-19T16:06:08.432Z</time></trkpt><trkpt lat="40.4697717" lon="8.801275"><ele>341.0</ele><time>2026-04-19T16:06:09.432Z</time></trkpt><trkpt lat="40.4696467" lon="8.8014517"><ele>340.33333333333337</ele><time>2026-04-19T16:06:10.433Z</time></trkpt><trkpt lat="40.46952" lon="8.8016383"><ele>339.6666666666667</ele><time>2026-04-19T16:06:11.432Z</time></trkpt><trkpt lat="40.4694067" lon="8.8018433"><ele>339.0</ele><time>2026-04-19T16:06:12.433Z</time></trkpt><trkpt lat="40.4693133" lon="8.8020417"><ele>339.0</ele><time>2026-04-19T16:06:13.432Z</time></trkpt><trkpt lat="40.4692317" lon="8.8022567"><ele>339.0</ele><time>2026-04-19T16:06:14.432Z</time></trkpt><trkpt lat="40.4691667" lon="8.8024767"><ele>339.0</ele><time>2026-04-19T16:06:15.432Z</time></trkpt><trkpt lat="40.4691267" lon="8.802725"><ele>338.6666666666667</ele><time>2026-04-19T16:06:16.433Z</time></trkpt><trkpt lat="40.469105" lon="8.802975"><ele>338.33333333333337</ele><time>2026-04-19T16:06:17.432Z</time></trkpt><trkpt lat="40.4690967" lon="8.8032233"><ele>338.0</ele><time>2026-04-19T16:06:18.432Z</time></trkpt><trkpt lat="40.469085" lon="8.8034533"><ele>338.33333333333337</ele><time>2026-04-19T16:06:19.432Z</time></trkpt><trkpt lat="40.4690783" lon="8.80368"><ele>338.6666666666667</ele><time>2026-04-19T16:06:20.433Z</time></trkpt><trkpt lat="40.46907" lon="8.8039117"><ele>339.0</ele><time>2026-04-19T16:06:21.433Z</time></trkpt><trkpt lat="40.4690617" lon="8.80413"><ele>339.3333333333333</ele><time>2026-04-19T16:06:22.432Z</time></trkpt><trkpt lat="40.4690517" lon="8.8043567"><ele>339.66666666666663</ele><time>2026-04-19T16:06:23.432Z</time></trkpt><trkpt lat="40.4690383" lon="8.804585"><ele>340.0</ele><time>2026-04-19T16:06:24.433Z</time></trkpt><trkpt lat="40.4690317" lon="8.8048083"><ele>340.0</ele><time>2026-04-19T16:06:25.432Z</time></trkpt><trkpt lat="40.469025" lon="8.80502"><ele>340.0</ele><time>2026-04-19T16:06:26.432Z</time></trkpt><trkpt lat="40.4690233" lon="8.8052333"><ele>340.0</ele><time>2026-04-19T16:06:27.433Z</time></trkpt><trkpt lat="40.4690133" lon="8.8054467"><ele>339.3333333333333</ele><time>2026-04-19T16:06:28.433Z</time></trkpt><trkpt lat="40.4690033" lon="8.80566"><ele>338.6666666666667</ele><time>2026-04-19T16:06:29.432Z</time></trkpt><trkpt lat="40.4689867" lon="8.805865"><ele>338.0</ele><time>2026-04-19T16:06:30.433Z</time></trkpt><trkpt lat="40.46897" lon="8.8060583"><ele>338.0</ele><time>2026-04-19T16:06:31.432Z</time></trkpt><trkpt lat="40.4689433" lon="8.8062467"><ele>338.0</ele><time>2026-04-19T16:06:32.432Z</time></trkpt><trkpt lat="40.4689" lon="8.8064217"><ele>338.0</ele><time>2026-04-19T16:06:33.432Z</time></trkpt><trkpt lat="40.4688333" lon="8.80661"><ele>338.0</ele><time>2026-04-19T16:06:34.433Z</time></trkpt><trkpt lat="40.468755" lon="8.8067967"><ele>337.6666666666667</ele><time>2026-04-19T16:06:35.433Z</time></trkpt><trkpt lat="40.4686767" lon="8.8069733"><ele>337.3333333333333</ele><time>2026-04-19T16:06:36.432Z</time></trkpt><trkpt lat="40.468605" lon="8.8071467"><ele>337.0</ele><time>2026-04-19T16:06:37.432Z</time></trkpt><trkpt lat="40.4685267" lon="8.807325"><ele>337.0</ele><time>2026-04-19T16:06:38.433Z</time></trkpt><trkpt lat="40.46845" lon="8.8074933"><ele>337.0</ele><time>2026-04-19T16:06:39.432Z</time></trkpt><trkpt lat="40.4683683" lon="8.80766"><ele>337.0</ele><time>2026-04-19T16:06:40.432Z</time></trkpt><trkpt lat="40.4682917" lon="8.807835"><ele>337.3333333333333</ele><time>2026-04-19T16:06:41.433Z</time></trkpt><trkpt lat="40.4682117" lon="8.8080133"><ele>337.6666666666667</ele><time>2026-04-19T16:06:42.433Z</time></trkpt><trkpt lat="40.46813" lon="8.8081917"><ele>338.0</ele><time>2026-04-19T16:06:43.433Z</time></trkpt><trkpt lat="40.4680533" lon="8.808365"><ele>338.0</ele><time>2026-04-19T16:06:44.432Z</time></trkpt><trkpt lat="40.4679783" lon="8.8085183"><ele>338.0</ele><time>2026-04-19T16:06:45.432Z</time></trkpt><trkpt lat="40.467915" lon="8.80866"><ele>338.0</ele><time>2026-04-19T16:06:46.433Z</time></trkpt><trkpt lat="40.4678483" lon="8.8088017"><ele>338.0</ele><time>2026-04-19T16:06:47.432Z</time></trkpt><trkpt lat="40.467775" lon="8.8089383"><ele>338.0</ele><time>2026-04-19T16:06:48.432Z</time></trkpt><trkpt lat="40.4676933" lon="8.8090567"><ele>338.0</ele><time>2026-04-19T16:06:49.432Z</time></trkpt><trkpt lat="40.4675983" lon="8.8091767"><ele>338.0</ele><time>2026-04-19T16:06:50.432Z</time></trkpt><trkpt lat="40.4675117" lon="8.80929"><ele>338.0</ele><time>2026-04-19T16:06:51.433Z</time></trkpt><trkpt lat="40.467425" lon="8.8094033"><ele>338.25</ele><time>2026-04-19T16:06:52.432Z</time></trkpt><trkpt lat="40.467335" lon="8.8095117"><ele>338.5</ele><time>2026-04-19T16:06:53.432Z</time></trkpt><trkpt lat="40.4672417" lon="8.8096217"><ele>338.75</ele><time>2026-04-19T16:06:54.432Z</time></trkpt><trkpt lat="40.4671517" lon="8.8097333"><ele>339.0</ele><time>2026-04-19T16:06:55.432Z</time></trkpt><trkpt lat="40.46706" lon="8.80984"><ele>339.0</ele><time>2026-04-19T16:06:56.433Z</time></trkpt><trkpt lat="40.46697" lon="8.8099583"><ele>339.0</ele><time>2026-04-19T16:06:57.432Z</time></trkpt><trkpt lat="40.4668683" lon="8.8100783"><ele>339.0</ele><time>2026-04-19T16:06:58.432Z</time></trkpt><trkpt lat="40.4667683" lon="8.8101917"><ele>339.0</ele><time>2026-04-19T16:06:59.432Z</time></trkpt><trkpt lat="40.46667" lon="8.8103067"><ele>339.25</ele><time>2026-04-19T16:07:00.432Z</time></trkpt><trkpt lat="40.466585" lon="8.810415"><ele>339.5</ele><time>2026-04-19T16:07:01.432Z</time></trkpt><trkpt lat="40.4665033" lon="8.8105267"><ele>339.75</ele><time>2026-04-19T16:07:02.432Z</time></trkpt><trkpt lat="40.4664233" lon="8.81063"><ele>340.0</ele><time>2026-04-19T16:07:03.432Z</time></trkpt><trkpt lat="40.466345" lon="8.8107233"><ele>339.6</ele><time>2026-04-19T16:07:04.433Z</time></trkpt><trkpt lat="40.4662667" lon="8.810825"><ele>339.2</ele><time>2026-04-19T16:07:05.433Z</time></trkpt><trkpt lat="40.4661983" lon="8.810935"><ele>338.79999999999995</ele><time>2026-04-19T16:07:06.433Z</time></trkpt><trkpt lat="40.46612" lon="8.81103"><ele>338.4</ele><time>2026-04-19T16:07:07.433Z</time></trkpt><trkpt lat="40.46605" lon="8.8111583"><ele>338.0</ele><time>2026-04-19T16:07:08.432Z</time></trkpt><trkpt lat="40.465995" lon="8.8112983"><ele>338.0</ele><time>2026-04-19T16:07:09.432Z</time></trkpt><trkpt lat="40.4659517" lon="8.81145"><ele>338.0</ele><time>2026-04-19T16:07:10.432Z</time></trkpt><trkpt lat="40.465915" lon="8.81161"><ele>338.0</ele><time>2026-04-19T16:07:11.432Z</time></trkpt><trkpt lat="40.4658917" lon="8.8117767"><ele>338.0</ele><time>2026-04-19T16:07:12.433Z</time></trkpt><trkpt lat="40.4658783" lon="8.8119583"><ele>338.0</ele><time>2026-04-19T16:07:13.432Z</time></trkpt><trkpt lat="40.4658667" lon="8.8121433"><ele>338.0</ele><time>2026-04-19T16:07:14.433Z</time></trkpt><trkpt lat="40.4658517" lon="8.8123333"><ele>338.0</ele><time>2026-04-19T16:07:15.433Z</time></trkpt><trkpt lat="40.4658383" lon="8.8125233"><ele>338.0</ele><time>2026-04-19T16:07:16.432Z</time></trkpt><trkpt lat="40.465825" lon="8.8127217"><ele>338.0</ele><time>2026-04-19T16:07:17.433Z</time></trkpt><trkpt lat="40.465805" lon="8.8129317"><ele>338.0</ele><time>2026-04-19T16:07:18.432Z</time></trkpt><trkpt lat="40.4657883" lon="8.813135"><ele>338.0</ele><time>2026-04-19T16:07:19.432Z</time></trkpt><trkpt lat="40.4657733" lon="8.813345"><ele>338.0</ele><time>2026-04-19T16:07:20.432Z</time></trkpt><trkpt lat="40.4657517" lon="8.813565"><ele>338.0</ele><time>2026-04-19T16:07:21.432Z</time></trkpt><trkpt lat="40.4657333" lon="8.813775"><ele>338.0</ele><time>2026-04-19T16:07:22.433Z</time></trkpt><trkpt lat="40.465715" lon="8.813985"><ele>338.0</ele><time>2026-04-19T16:07:23.433Z</time></trkpt><trkpt lat="40.4656933" lon="8.8142067"><ele>338.0</ele><time>2026-04-19T16:07:24.433Z</time></trkpt><trkpt lat="40.46568" lon="8.8144267"><ele>338.0</ele><time>2026-04-19T16:07:25.432Z</time></trkpt><trkpt lat="40.4656617" lon="8.814655"><ele>338.0</ele><time>2026-04-19T16:07:26.432Z</time></trkpt><trkpt lat="40.465635" lon="8.8148783"><ele>338.0</ele><time>2026-04-19T16:07:27.432Z</time></trkpt><trkpt lat="40.46561" lon="8.8151133"><ele>338.0</ele><time>2026-04-19T16:07:28.433Z</time></trkpt><trkpt lat="40.4655817" lon="8.8153467"><ele>338.33333333333337</ele><time>2026-04-19T16:07:29.433Z</time></trkpt><trkpt lat="40.46555" lon="8.815585"><ele>338.6666666666667</ele><time>2026-04-19T16:07:30.432Z</time></trkpt><trkpt lat="40.4655233" lon="8.8158167"><ele>339.0</ele><time>2026-04-19T16:07:31.433Z</time></trkpt><trkpt lat="40.4654833" lon="8.8160567"><ele>339.3333333333333</ele><time>2026-04-19T16:07:32.432Z</time></trkpt><trkpt lat="40.46544" lon="8.8162883"><ele>339.66666666666663</ele><time>2026-04-19T16:07:33.433Z</time></trkpt><trkpt lat="40.4653833" lon="8.81652"><ele>340.0</ele><time>2026-04-19T16:07:34.432Z</time></trkpt><trkpt lat="40.4653183" lon="8.81675"><ele>339.66666666666663</ele><time>2026-04-19T16:07:35.432Z</time></trkpt><trkpt lat="40.46525" lon="8.8169817"><ele>339.3333333333333</ele><time>2026-04-19T16:07:36.433Z</time></trkpt><trkpt lat="40.4651733" lon="8.8172133"><ele>339.0</ele><time>2026-04-19T16:07:37.432Z</time></trkpt><trkpt lat="40.4651017" lon="8.8174383"><ele>339.0</ele><time>2026-04-19T16:07:38.433Z</time></trkpt><trkpt lat="40.4650283" lon="8.8176617"><ele>339.0</ele><time>2026-04-19T16:07:39.433Z</time></trkpt><trkpt lat="40.4649533" lon="8.8178983"><ele>339.0</ele><time>2026-04-19T16:07:40.433Z</time></trkpt><trkpt lat="40.4648833" lon="8.81813"><ele>339.0</ele><time>2026-04-19T16:07:41.432Z</time></trkpt><trkpt lat="40.464815" lon="8.81837"><ele>339.0</ele><time>2026-04-19T16:07:42.432Z</time></trkpt><trkpt lat="40.46474" lon="8.8186033"><ele>339.0</ele><time>2026-04-19T16:07:43.433Z</time></trkpt><trkpt lat="40.46467" lon="8.818845"><ele>339.0</ele><time>2026-04-19T16:07:44.432Z</time></trkpt><trkpt lat="40.4645933" lon="8.8190917"><ele>339.0</ele><time>2026-04-19T16:07:45.432Z</time></trkpt><trkpt lat="40.4645167" lon="8.8193317"><ele>339.0</ele><time>2026-04-19T16:07:46.433Z</time></trkpt><trkpt lat="40.464445" lon="8.8195617"><ele>339.0</ele><time>2026-04-19T16:07:47.433Z</time></trkpt><trkpt lat="40.4643683" lon="8.81979"><ele>339.0</ele><time>2026-04-19T16:07:48.433Z</time></trkpt><trkpt lat="40.4642917" lon="8.820015"><ele>339.0</ele><time>2026-04-19T16:07:49.433Z</time></trkpt><trkpt lat="40.4642117" lon="8.82024"><ele>339.3333333333333</ele><time>2026-04-19T16:07:50.432Z</time></trkpt><trkpt lat="40.464125" lon="8.8204633"><ele>339.66666666666663</ele><time>2026-04-19T16:07:51.433Z</time></trkpt><trkpt lat="40.4640417" lon="8.8206967"><ele>340.0</ele><time>2026-04-19T16:07:52.432Z</time></trkpt><trkpt lat="40.4639583" lon="8.820925"><ele>340.0</ele><time>2026-04-19T16:07:53.432Z</time></trkpt><trkpt lat="40.463875" lon="8.82115"><ele>340.0</ele><time>2026-04-19T16:07:54.432Z</time></trkpt><trkpt lat="40.4637917" lon="8.821375"><ele>340.0</ele><time>2026-04-19T16:07:55.433Z</time></trkpt><trkpt lat="40.463705" lon="8.821595"><ele>340.3333333333333</ele><time>2026-04-19T16:07:56.432Z</time></trkpt><trkpt lat="40.4636233" lon="8.821815"><ele>340.6666666666667</ele><time>2026-04-19T16:07:57.432Z</time></trkpt><trkpt lat="40.46356" lon="8.8220467"><ele>341.0</ele><time>2026-04-19T16:07:58.433Z</time></trkpt><trkpt lat="40.4635117" lon="8.8222883"><ele>341.0</ele><time>2026-04-19T16:07:59.432Z</time></trkpt><trkpt lat="40.4634667" lon="8.8225317"><ele>341.0</ele><time>2026-04-19T16:08:00.433Z</time></trkpt><trkpt lat="40.4634233" lon="8.8227817"><ele>341.0</ele><time>2026-04-19T16:08:01.432Z</time></trkpt><trkpt lat="40.4633817" lon="8.8230283"><ele>341.33333333333337</ele><time>2026-04-19T16:08:02.433Z</time></trkpt><trkpt lat="40.463335" lon="8.8232633"><ele>341.6666666666667</ele><time>2026-04-19T16:08:03.432Z</time></trkpt><trkpt lat="40.4632883" lon="8.8234783"><ele>342.0</ele><time>2026-04-19T16:08:04.432Z</time></trkpt><trkpt lat="40.4632367" lon="8.8236833"><ele>342.6666666666667</ele><time>2026-04-19T16:08:05.432Z</time></trkpt><trkpt lat="40.4631633" lon="8.8238867"><ele>343.33333333333337</ele><time>2026-04-19T16:08:06.433Z</time></trkpt><trkpt lat="40.4630717" lon="8.82407"><ele>344.0</ele><time>2026-04-19T16:08:07.432Z</time></trkpt><trkpt lat="40.46297" lon="8.82423"><ele>343.33333333333337</ele><time>2026-04-19T16:08:08.432Z</time></trkpt><trkpt lat="40.4628483" lon="8.8243833"><ele>342.6666666666667</ele><time>2026-04-19T16:08:09.433Z</time></trkpt><trkpt lat="40.46272" lon="8.82453"><ele>342.0</ele><time>2026-04-19T16:08:10.432Z</time></trkpt><trkpt lat="40.46259" lon="8.8246783"><ele>342.0</ele><time>2026-04-19T16:08:11.433Z</time></trkpt><trkpt lat="40.4624583" lon="8.824835"><ele>342.0</ele><time>2026-04-19T16:08:12.432Z</time></trkpt><trkpt lat="40.4623267" lon="8.8249867"><ele>342.0</ele><time>2026-04-19T16:08:13.433Z</time></trkpt><trkpt lat="40.4622" lon="8.8251433"><ele>342.0</ele><time>2026-04-19T16:08:14.432Z</time></trkpt><trkpt lat="40.4620717" lon="8.8252917"><ele>342.0</ele><time>2026-04-19T16:08:15.432Z</time></trkpt><trkpt lat="40.46194" lon="8.8254417"><ele>342.0</ele><time>2026-04-19T16:08:16.433Z</time></trkpt><trkpt lat="40.4618117" lon="8.82559"><ele>342.0</ele><time>2026-04-19T16:08:17.433Z</time></trkpt><trkpt lat="40.4616933" lon="8.82574"><ele>342.0</ele><time>2026-04-19T16:08:18.433Z</time></trkpt><trkpt lat="40.4615783" lon="8.8258867"><ele>342.0</ele><time>2026-04-19T16:08:19.432Z</time></trkpt><trkpt lat="40.4614683" lon="8.8260383"><ele>342.0</ele><time>2026-04-19T16:08:20.433Z</time></trkpt><trkpt lat="40.461355" lon="8.8261967"><ele>342.0</ele><time>2026-04-19T16:08:21.433Z</time></trkpt><trkpt lat="40.4612417" lon="8.8263517"><ele>342.0</ele><time>2026-04-19T16:08:22.432Z</time></trkpt><trkpt lat="40.4611217" lon="8.8265083"><ele>342.0</ele><time>2026-04-19T16:08:23.433Z</time></trkpt><trkpt lat="40.4610067" lon="8.8266633"><ele>342.0</ele><time>2026-04-19T16:08:24.432Z</time></trkpt><trkpt lat="40.4608967" lon="8.8268167"><ele>342.0</ele><time>2026-04-19T16:08:25.433Z</time></trkpt><trkpt lat="40.46079" lon="8.8269717"><ele>343.0</ele><time>2026-04-19T16:08:26.432Z</time></trkpt><trkpt lat="40.4606883" lon="8.8271183"><ele>344.0</ele><time>2026-04-19T16:08:27.433Z</time></trkpt><trkpt lat="40.4606017" lon="8.8272783"><ele>345.0</ele><time>2026-04-19T16:08:28.433Z</time></trkpt><trkpt lat="40.4605267" lon="8.827455"><ele>344.6666666666667</ele><time>2026-04-19T16:08:29.432Z</time></trkpt><trkpt lat="40.46046" lon="8.8276483"><ele>344.33333333333337</ele><time>2026-04-19T16:08:30.432Z</time></trkpt><trkpt lat="40.460385" lon="8.827855"><ele>344.0</ele><time>2026-04-19T16:08:31.432Z</time></trkpt><trkpt lat="40.46031" lon="8.8280683"><ele>343.6666666666667</ele><time>2026-04-19T16:08:32.432Z</time></trkpt><trkpt lat="40.4602283" lon="8.8282967"><ele>343.3333333333333</ele><time>2026-04-19T16:08:33.432Z</time></trkpt><trkpt lat="40.4601483" lon="8.8285267"><ele>343.0</ele><time>2026-04-19T16:08:34.433Z</time></trkpt><trkpt lat="40.46008" lon="8.8287533"><ele>343.0</ele><time>2026-04-19T16:08:35.433Z</time></trkpt><trkpt lat="40.46001" lon="8.8289733"><ele>343.0</ele><time>2026-04-19T16:08:36.433Z</time></trkpt><trkpt lat="40.459945" lon="8.8291783"><ele>343.0</ele><time>2026-04-19T16:08:37.432Z</time></trkpt><trkpt lat="40.4598733" lon="8.82938"><ele>343.0</ele><time>2026-04-19T16:08:38.432Z</time></trkpt><trkpt lat="40.459805" lon="8.8295783"><ele>343.0</ele><time>2026-04-19T16:08:39.432Z</time></trkpt><trkpt lat="40.4597367" lon="8.82978"><ele>343.0</ele><time>2026-04-19T16:08:40.433Z</time></trkpt><trkpt lat="40.4596767" lon="8.82997"><ele>342.66666666666663</ele><time>2026-04-19T16:08:41.433Z</time></trkpt><trkpt lat="40.459615" lon="8.830155"><ele>342.3333333333333</ele><time>2026-04-19T16:08:42.433Z</time></trkpt><trkpt lat="40.4595533" lon="8.8303367"><ele>342.0</ele><time>2026-04-19T16:08:43.432Z</time></trkpt><trkpt lat="40.4594833" lon="8.83051"><ele>342.0</ele><time>2026-04-19T16:08:44.433Z</time></trkpt><trkpt lat="40.4594017" lon="8.83068"><ele>342.0</ele><time>2026-04-19T16:08:45.432Z</time></trkpt><trkpt lat="40.45931" lon="8.8308267"><ele>342.0</ele><time>2026-04-19T16:08:46.432Z</time></trkpt><trkpt lat="40.4591867" lon="8.8309617"><ele>342.0</ele><time>2026-04-19T16:08:47.432Z</time></trkpt><trkpt lat="40.45905" lon="8.8310683"><ele>342.0</ele><time>2026-04-19T16:08:48.432Z</time></trkpt><trkpt lat="40.458895" lon="8.83114"><ele>342.0</ele><time>2026-04-19T16:08:49.433Z</time></trkpt><trkpt lat="40.4587283" lon="8.8312167"><ele>342.0</ele><time>2026-04-19T16:08:50.433Z</time></trkpt><trkpt lat="40.45856" lon="8.8313017"><ele>342.0</ele><time>2026-04-19T16:08:51.432Z</time></trkpt><trkpt lat="40.4583783" lon="8.831395"><ele>342.0</ele><time>2026-04-19T16:08:52.432Z</time></trkpt><trkpt lat="40.4581883" lon="8.831485"><ele>342.0</ele><time>2026-04-19T16:08:53.432Z</time></trkpt><trkpt lat="40.4580083" lon="8.831575"><ele>342.0</ele><time>2026-04-19T16:08:54.433Z</time></trkpt><trkpt lat="40.4578433" lon="8.8316583"><ele>342.0</ele><time>2026-04-19T16:08:55.433Z</time></trkpt><trkpt lat="40.4576917" lon="8.8317417"><ele>342.3333333333333</ele><time>2026-04-19T16:08:56.432Z</time></trkpt><trkpt lat="40.4575483" lon="8.831815"><ele>342.66666666666663</ele><time>2026-04-19T16:08:57.433Z</time></trkpt><trkpt lat="40.457405" lon="8.83188"><ele>343.0</ele><time>2026-04-19T16:08:58.432Z</time></trkpt><trkpt lat="40.4572583" lon="8.8319583"><ele>342.3333333333333</ele><time>2026-04-19T16:08:59.433Z</time></trkpt><trkpt lat="40.457115" lon="8.83204"><ele>341.6666666666667</ele><time>2026-04-19T16:09:00.432Z</time></trkpt><trkpt lat="40.4569633" lon="8.8321183"><ele>341.0</ele><time>2026-04-19T16:09:01.432Z</time></trkpt><trkpt lat="40.456805" lon="8.8321917"><ele>341.0</ele><time>2026-04-19T16:09:02.433Z</time></trkpt><trkpt lat="40.4566433" lon="8.832275"><ele>341.0</ele><time>2026-04-19T16:09:03.432Z</time></trkpt><trkpt lat="40.4564733" lon="8.8323617"><ele>341.0</ele><time>2026-04-19T16:09:04.433Z</time></trkpt><trkpt lat="40.4563" lon="8.832445"><ele>341.6666666666667</ele><time>2026-04-19T16:09:05.433Z</time></trkpt><trkpt lat="40.4561233" lon="8.8325417"><ele>342.3333333333333</ele><time>2026-04-19T16:09:06.433Z</time></trkpt><trkpt lat="40.4559433" lon="8.8326317"><ele>343.0</ele><time>2026-04-19T16:09:07.433Z</time></trkpt><trkpt lat="40.4557617" lon="8.8327183"><ele>343.0</ele><time>2026-04-19T16:09:08.432Z</time></trkpt><trkpt lat="40.4555767" lon="8.8328083"><ele>343.0</ele><time>2026-04-19T16:09:09.433Z</time></trkpt><trkpt lat="40.455395" lon="8.832885"><ele>343.0</ele><time>2026-04-19T16:09:10.432Z</time></trkpt><trkpt lat="40.4552183" lon="8.8329633"><ele>342.66666666666663</ele><time>2026-04-19T16:09:11.433Z</time></trkpt><trkpt lat="40.4550467" lon="8.833045"><ele>342.3333333333333</ele><time>2026-04-19T16:09:12.432Z</time></trkpt><trkpt lat="40.4548783" lon="8.8331217"><ele>342.0</ele><time>2026-04-19T16:09:13.432Z</time></trkpt><trkpt lat="40.4547033" lon="8.8332"><ele>342.3333333333333</ele><time>2026-04-19T16:09:14.432Z</time></trkpt><trkpt lat="40.4545283" lon="8.83328"><ele>342.66666666666663</ele><time>2026-04-19T16:09:15.433Z</time></trkpt><trkpt lat="40.45435" lon="8.833355"><ele>343.0</ele><time>2026-04-19T16:09:16.432Z</time></trkpt><trkpt lat="40.45417" lon="8.83344"><ele>343.0</ele><time>2026-04-19T16:09:17.433Z</time></trkpt><trkpt lat="40.4539867" lon="8.8335267"><ele>343.0</ele><time>2026-04-19T16:09:18.432Z</time></trkpt><trkpt lat="40.4537967" lon="8.8336167"><ele>343.0</ele><time>2026-04-19T16:09:19.432Z</time></trkpt><trkpt lat="40.45361" lon="8.83372"><ele>343.0</ele><time>2026-04-19T16:09:20.432Z</time></trkpt><trkpt lat="40.45344" lon="8.8338417"><ele>343.0</ele><time>2026-04-19T16:09:21.432Z</time></trkpt><trkpt lat="40.453275" lon="8.8339617"><ele>343.0</ele><time>2026-04-19T16:09:22.433Z</time></trkpt><trkpt lat="40.453125" lon="8.8340933"><ele>343.0</ele><time>2026-04-19T16:09:23.433Z</time></trkpt><trkpt lat="40.4529667" lon="8.8342117"><ele>343.0</ele><time>2026-04-19T16:09:24.433Z</time></trkpt><trkpt lat="40.452795" lon="8.8343367"><ele>343.0</ele><time>2026-04-19T16:09:25.432Z</time></trkpt><trkpt lat="40.4526167" lon="8.834465"><ele>343.0</ele><time>2026-04-19T16:09:26.432Z</time></trkpt><trkpt lat="40.45244" lon="8.83461"><ele>343.0</ele><time>2026-04-19T16:09:27.432Z</time></trkpt><trkpt lat="40.4522633" lon="8.8347583"><ele>343.0</ele><time>2026-04-19T16:09:28.432Z</time></trkpt><trkpt lat="40.4520783" lon="8.834905"><ele>343.0</ele><time>2026-04-19T16:09:29.432Z</time></trkpt><trkpt lat="40.451905" lon="8.8350367"><ele>343.0</ele><time>2026-04-19T16:09:30.432Z</time></trkpt><trkpt lat="40.45174" lon="8.8351633"><ele>343.0</ele><time>2026-04-19T16:09:31.433Z</time></trkpt><trkpt lat="40.4515883" lon="8.8352967"><ele>343.0</ele><time>2026-04-19T16:09:32.433Z</time></trkpt><trkpt lat="40.4514333" lon="8.83543"><ele>343.0</ele><time>2026-04-19T16:09:33.433Z</time></trkpt><trkpt lat="40.4512717" lon="8.8355667"><ele>343.0</ele><time>2026-04-19T16:09:34.432Z</time></trkpt><trkpt lat="40.4511067" lon="8.8357017"><ele>343.0</ele><time>2026-04-19T16:09:35.433Z</time></trkpt><trkpt lat="40.4509367" lon="8.8358367"><ele>343.0</ele><time>2026-04-19T16:09:36.432Z</time></trkpt><trkpt lat="40.4507617" lon="8.8359617"><ele>343.0</ele><time>2026-04-19T16:09:37.433Z</time></trkpt><trkpt lat="40.4506067" lon="8.83607"><ele>343.0</ele><time>2026-04-19T16:09:38.432Z</time></trkpt><trkpt lat="40.45046" lon="8.83618"><ele>343.0</ele><time>2026-04-19T16:09:39.432Z</time></trkpt><trkpt lat="40.4503117" lon="8.836285"><ele>343.0</ele><time>2026-04-19T16:09:40.432Z</time></trkpt><trkpt lat="40.4501633" lon="8.8363867"><ele>344.0</ele><time>2026-04-19T16:09:41.432Z</time></trkpt><trkpt lat="40.4500167" lon="8.83649"><ele>345.0</ele><time>2026-04-19T16:09:42.432Z</time></trkpt><trkpt lat="40.4498783" lon="8.8365867"><ele>346.0</ele><time>2026-04-19T16:09:43.433Z</time></trkpt><trkpt lat="40.449735" lon="8.83669"><ele>346.3333333333333</ele><time>2026-04-19T16:09:44.432Z</time></trkpt><trkpt lat="40.4495883" lon="8.8367917"><ele>346.6666666666667</ele><time>2026-04-19T16:09:45.433Z</time></trkpt><trkpt lat="40.4494433" lon="8.83689"><ele>347.0</ele><time>2026-04-19T16:09:46.433Z</time></trkpt><trkpt lat="40.4492983" lon="8.8369967"><ele>347.33333333333337</ele><time>2026-04-19T16:09:47.432Z</time></trkpt><trkpt lat="40.4491467" lon="8.8371083"><ele>347.6666666666667</ele><time>2026-04-19T16:09:48.432Z</time></trkpt><trkpt lat="40.4489917" lon="8.8372217"><ele>348.0</ele><time>2026-04-19T16:09:49.433Z</time></trkpt><trkpt lat="40.448845" lon="8.8373383"><ele>348.0</ele><time>2026-04-19T16:09:50.433Z</time></trkpt><trkpt lat="40.4487117" lon="8.8374617"><ele>348.0</ele><time>2026-04-19T16:09:51.433Z</time></trkpt><trkpt lat="40.4485883" lon="8.8375783"><ele>348.0</ele><time>2026-04-19T16:09:52.432Z</time></trkpt><trkpt lat="40.448475" lon="8.837685"><ele>348.0</ele><time>2026-04-19T16:09:53.433Z</time></trkpt><trkpt lat="40.448355" lon="8.837795"><ele>348.0</ele><time>2026-04-19T16:09:54.432Z</time></trkpt><trkpt lat="40.448225" lon="8.8379017"><ele>348.0</ele><time>2026-04-19T16:09:55.432Z</time></trkpt><trkpt lat="40.448095" lon="8.8380083"><ele>349.0</ele><time>2026-04-19T16:09:56.433Z</time></trkpt><trkpt lat="40.44796" lon="8.838125"><ele>350.0</ele><time>2026-04-19T16:09:57.432Z</time></trkpt><trkpt lat="40.4478267" lon="8.83824"><ele>351.0</ele><time>2026-04-19T16:09:58.433Z</time></trkpt><trkpt lat="40.4476867" lon="8.8383417"><ele>351.0</ele><time>2026-04-19T16:09:59.433Z</time></trkpt><trkpt lat="40.4475367" lon="8.838435"><ele>351.0</ele><time>2026-04-19T16:10:00.432Z</time></trkpt><trkpt lat="40.4473667" lon="8.83851"><ele>351.0</ele><time>2026-04-19T16:10:01.433Z</time></trkpt><trkpt lat="40.4471983" lon="8.8385833"><ele>350.6666666666667</ele><time>2026-04-19T16:10:02.432Z</time></trkpt><trkpt lat="40.4470333" lon="8.8386383"><ele>350.33333333333337</ele><time>2026-04-19T16:10:03.432Z</time></trkpt><trkpt lat="40.44686" lon="8.83869"><ele>350.0</ele><time>2026-04-19T16:10:04.433Z</time></trkpt><trkpt lat="40.44669" lon="8.8387333"><ele>350.0</ele><time>2026-04-19T16:10:05.432Z</time></trkpt><trkpt lat="40.4465083" lon="8.8387583"><ele>350.0</ele><time>2026-04-19T16:10:06.433Z</time></trkpt><trkpt lat="40.44633" lon="8.83879"><ele>350.0</ele><time>2026-04-19T16:10:07.432Z</time></trkpt><trkpt lat="40.4461483" lon="8.8388267"><ele>349.0</ele><time>2026-04-19T16:10:08.433Z</time></trkpt><trkpt lat="40.4459633" lon="8.8388717"><ele>348.0</ele><time>2026-04-19T16:10:09.433Z</time></trkpt><trkpt lat="40.4457767" lon="8.83891"><ele>347.0</ele><time>2026-04-19T16:10:10.433Z</time></trkpt><trkpt lat="40.445595" lon="8.8389467"><ele>346.0</ele><time>2026-04-19T16:10:11.432Z</time></trkpt><trkpt lat="40.4454117" lon="8.8389783"><ele>345.0</ele><time>2026-04-19T16:10:12.433Z</time></trkpt><trkpt lat="40.4452283" lon="8.839005"><ele>344.0</ele><time>2026-04-19T16:10:13.433Z</time></trkpt><trkpt lat="40.4450483" lon="8.83903"><ele>344.0</ele><time>2026-04-19T16:10:14.433Z</time></trkpt><trkpt lat="40.44487" lon="8.8390367"><ele>344.0</ele><time>2026-04-19T16:10:15.433Z</time></trkpt><trkpt lat="40.4446917" lon="8.8390417"><ele>344.0</ele><time>2026-04-19T16:10:16.433Z</time></trkpt><trkpt lat="40.4445133" lon="8.8390567"><ele>343.33333333333337</ele><time>2026-04-19T16:10:17.432Z</time></trkpt><trkpt lat="40.4443433" lon="8.8390633"><ele>342.6666666666667</ele><time>2026-04-19T16:10:18.433Z</time></trkpt><trkpt lat="40.4441767" lon="8.8390717"><ele>342.0</ele><time>2026-04-19T16:10:19.433Z</time></trkpt><trkpt lat="40.4440217" lon="8.8390833"><ele>342.0</ele><time>2026-04-19T16:10:20.433Z</time></trkpt><trkpt lat="40.4438783" lon="8.8390933"><ele>342.0</ele><time>2026-04-19T16:10:21.433Z</time></trkpt><trkpt lat="40.4437483" lon="8.8391117"><ele>342.0</ele><time>2026-04-19T16:10:22.433Z</time></trkpt><trkpt lat="40.4436233" lon="8.8391483"><ele>342.0</ele><time>2026-04-19T16:10:23.433Z</time></trkpt><trkpt lat="40.4435083" lon="8.8392067"><ele>342.0</ele><time>2026-04-19T16:10:24.433Z</time></trkpt><trkpt lat="40.4434017" lon="8.8392833"><ele>342.0</ele><time>2026-04-19T16:10:25.433Z</time></trkpt><trkpt lat="40.4433067" lon="8.8393617"><ele>342.0</ele><time>2026-04-19T16:10:26.432Z</time></trkpt><trkpt lat="40.44322" lon="8.8394467"><ele>342.0</ele><time>2026-04-19T16:10:27.432Z</time></trkpt><trkpt lat="40.44314" lon="8.8395217"><ele>342.0</ele><time>2026-04-19T16:10:28.433Z</time></trkpt><trkpt lat="40.4430667" lon="8.839605"><ele>342.0</ele><time>2026-04-19T16:10:29.432Z</time></trkpt><trkpt lat="40.4429917" lon="8.839685"><ele>342.0</ele><time>2026-04-19T16:10:30.432Z</time></trkpt><trkpt lat="40.4429267" lon="8.83977"><ele>342.0</ele><time>2026-04-19T16:10:31.433Z</time></trkpt><trkpt lat="40.4428617" lon="8.8398617"><ele>342.0</ele><time>2026-04-19T16:10:32.433Z</time></trkpt><trkpt lat="40.4427983" lon="8.8399767"><ele>342.0</ele><time>2026-04-19T16:10:33.433Z</time></trkpt><trkpt lat="40.4427433" lon="8.840105"><ele>342.25</ele><time>2026-04-19T16:10:34.432Z</time></trkpt><trkpt lat="40.4426933" lon="8.8402533"><ele>342.5</ele><time>2026-04-19T16:10:35.432Z</time></trkpt><trkpt lat="40.442645" lon="8.8404083"><ele>342.75</ele><time>2026-04-19T16:10:36.433Z</time></trkpt><trkpt lat="40.4425983" lon="8.8405683"><ele>343.0</ele><time>2026-04-19T16:10:37.432Z</time></trkpt><trkpt lat="40.4425583" lon="8.8407217"><ele>343.0</ele><time>2026-04-19T16:10:38.433Z</time></trkpt><trkpt lat="40.4425183" lon="8.8408733"><ele>343.0</ele><time>2026-04-19T16:10:39.432Z</time></trkpt><trkpt lat="40.4424767" lon="8.8410233"><ele>343.0</ele><time>2026-04-19T16:10:40.433Z</time></trkpt><trkpt lat="40.4424383" lon="8.8411783"><ele>343.0</ele><time>2026-04-19T16:10:41.432Z</time></trkpt><trkpt lat="40.4423967" lon="8.8413317"><ele>343.0</ele><time>2026-04-19T16:10:42.432Z</time></trkpt><trkpt lat="40.44235" lon="8.8415017"><ele>343.0</ele><time>2026-04-19T16:10:43.433Z</time></trkpt><trkpt lat="40.4423067" lon="8.8416817"><ele>343.0</ele><time>2026-04-19T16:10:44.433Z</time></trkpt><trkpt lat="40.4422567" lon="8.8418633"><ele>343.0</ele><time>2026-04-19T16:10:45.433Z</time></trkpt><trkpt lat="40.4422083" lon="8.8420567"><ele>342.75</ele><time>2026-04-19T16:10:46.432Z</time></trkpt><trkpt lat="40.44216" lon="8.8422417"><ele>342.5</ele><time>2026-04-19T16:10:47.432Z</time></trkpt><trkpt lat="40.442115" lon="8.842425"><ele>342.25</ele><time>2026-04-19T16:10:48.432Z</time></trkpt><trkpt lat="40.4420667" lon="8.842605"><ele>342.0</ele><time>2026-04-19T16:10:49.432Z</time></trkpt><trkpt lat="40.4420117" lon="8.8427933"><ele>342.6666666666667</ele><time>2026-04-19T16:10:50.433Z</time></trkpt><trkpt lat="40.441945" lon="8.8429783"><ele>343.33333333333337</ele><time>2026-04-19T16:10:51.432Z</time></trkpt><trkpt lat="40.4418567" lon="8.8431633"><ele>344.0</ele><time>2026-04-19T16:10:52.433Z</time></trkpt><trkpt lat="40.4417633" lon="8.843345"><ele>344.33333333333337</ele><time>2026-04-19T16:10:53.432Z</time></trkpt><trkpt lat="40.44167" lon="8.84352"><ele>344.6666666666667</ele><time>2026-04-19T16:10:54.432Z</time></trkpt><trkpt lat="40.4415833" lon="8.8436883"><ele>345.0</ele><time>2026-04-19T16:10:55.433Z</time></trkpt><trkpt lat="40.4414983" lon="8.84385"><ele>345.0</ele><time>2026-04-19T16:10:56.432Z</time></trkpt><trkpt lat="40.4414167" lon="8.8440117"><ele>345.0</ele><time>2026-04-19T16:10:57.433Z</time></trkpt><trkpt lat="40.4413367" lon="8.8441733"><ele>345.0</ele><time>2026-04-19T16:10:58.433Z</time></trkpt><trkpt lat="40.441255" lon="8.8443367"><ele>345.0</ele><time>2026-04-19T16:10:59.432Z</time></trkpt><trkpt lat="40.441165" lon="8.8445083"><ele>344.75</ele><time>2026-04-19T16:11:00.433Z</time></trkpt><trkpt lat="40.4410767" lon="8.844675"><ele>344.5</ele><time>2026-04-19T16:11:01.432Z</time></trkpt><trkpt lat="40.4409983" lon="8.8448333"><ele>344.25</ele><time>2026-04-19T16:11:02.433Z</time></trkpt><trkpt lat="40.440915" lon="8.8449883"><ele>344.0</ele><time>2026-04-19T16:11:03.433Z</time></trkpt><trkpt lat="40.4408283" lon="8.8451333"><ele>344.0</ele><time>2026-04-19T16:11:04.432Z</time></trkpt><trkpt lat="40.4407317" lon="8.845265"><ele>344.0</ele><time>2026-04-19T16:11:05.433Z</time></trkpt><trkpt lat="40.4406217" lon="8.8454117"><ele>344.0</ele><time>2026-04-19T16:11:06.432Z</time></trkpt><trkpt lat="40.4405067" lon="8.84555"><ele>344.0</ele><time>2026-04-19T16:11:07.433Z</time></trkpt><trkpt lat="40.44039" lon="8.84569"><ele>344.0</ele><time>2026-04-19T16:11:08.432Z</time></trkpt><trkpt lat="40.4402733" lon="8.84582"><ele>344.0</ele><time>2026-04-19T16:11:09.433Z</time></trkpt><trkpt lat="40.4401617" lon="8.8459433"><ele>344.5</ele><time>2026-04-19T16:11:10.433Z</time></trkpt><trkpt lat="40.4400633" lon="8.8460617"><ele>345.0</ele><time>2026-04-19T16:11:11.432Z</time></trkpt><trkpt lat="40.4399683" lon="8.8461733"><ele>345.5</ele><time>2026-04-19T16:11:12.433Z</time></trkpt><trkpt lat="40.4398817" lon="8.84627"><ele>346.0</ele><time>2026-04-19T16:11:13.432Z</time></trkpt><trkpt lat="40.4397983" lon="8.8463683"><ele>346.0</ele><time>2026-04-19T16:11:14.433Z</time></trkpt><trkpt lat="40.4397167" lon="8.8464633"><ele>346.0</ele><time>2026-04-19T16:11:15.433Z</time></trkpt><trkpt lat="40.4396367" lon="8.8465467"><ele>346.0</ele><time>2026-04-19T16:11:16.433Z</time></trkpt><trkpt lat="40.4395533" lon="8.846625"><ele>346.0</ele><time>2026-04-19T16:11:17.433Z</time></trkpt><trkpt lat="40.4394733" lon="8.846705"><ele>346.0</ele><time>2026-04-19T16:11:18.432Z</time></trkpt><trkpt lat="40.4394" lon="8.8467767"><ele>346.20000000000005</ele><time>2026-04-19T16:11:19.433Z</time></trkpt><trkpt lat="40.43933" lon="8.8468283"><ele>346.40000000000003</ele><time>2026-04-19T16:11:20.432Z</time></trkpt><trkpt lat="40.43927" lon="8.8468783"><ele>346.6</ele><time>2026-04-19T16:11:21.432Z</time></trkpt><trkpt lat="40.4391933" lon="8.8469767"><ele>346.8</ele><time>2026-04-19T16:11:23.432Z</time></trkpt><trkpt lat="40.43919" lon="8.8470867"><ele>347.0</ele><time>2026-04-19T16:11:25.433Z</time></trkpt><trkpt lat="40.4392467" lon="8.8472317"><ele>347.0</ele><time>2026-04-19T16:11:27.433Z</time></trkpt><trkpt lat="40.4393033" lon="8.8473167"><ele>347.0</ele><time>2026-04-19T16:11:28.433Z</time></trkpt><trkpt lat="40.439375" lon="8.847415"><ele>347.0</ele><time>2026-04-19T16:11:29.433Z</time></trkpt><trkpt lat="40.4394617" lon="8.8475267"><ele>347.0</ele><time>2026-04-19T16:11:30.432Z</time></trkpt><trkpt lat="40.4395533" lon="8.8476517"><ele>347.0</ele><time>2026-04-19T16:11:31.433Z</time></trkpt><trkpt lat="40.439645" lon="8.847785"><ele>346.5</ele><time>2026-04-19T16:11:32.432Z</time></trkpt><trkpt lat="40.4397433" lon="8.8479233"><ele>346.0</ele><time>2026-04-19T16:11:33.433Z</time></trkpt><trkpt lat="40.4398483" lon="8.848065"><ele>345.5</ele><time>2026-04-19T16:11:34.432Z</time></trkpt><trkpt lat="40.43995" lon="8.84821"><ele>345.0</ele><time>2026-04-19T16:11:35.433Z</time></trkpt><trkpt lat="40.4400483" lon="8.8483567"><ele>345.6666666666667</ele><time>2026-04-19T16:11:36.432Z</time></trkpt><trkpt lat="40.440155" lon="8.84851"><ele>346.33333333333337</ele><time>2026-04-19T16:11:37.433Z</time></trkpt><trkpt lat="40.44026" lon="8.8486567"><ele>347.0</ele><time>2026-04-19T16:11:38.433Z</time></trkpt><trkpt lat="40.4403633" lon="8.8488033"><ele>347.0</ele><time>2026-04-19T16:11:39.432Z</time></trkpt><trkpt lat="40.44046" lon="8.8489467"><ele>347.0</ele><time>2026-04-19T16:11:40.433Z</time></trkpt><trkpt lat="40.4405633" lon="8.8490883"><ele>347.0</ele><time>2026-04-19T16:11:41.433Z</time></trkpt><trkpt lat="40.4406667" lon="8.84924"><ele>347.0</ele><time>2026-04-19T16:11:42.433Z</time></trkpt><trkpt lat="40.4407667" lon="8.849395"><ele>347.0</ele><time>2026-04-19T16:11:43.433Z</time></trkpt><trkpt lat="40.440875" lon="8.849545"><ele>347.0</ele><time>2026-04-19T16:11:44.433Z</time></trkpt><trkpt lat="40.4409783" lon="8.849685"><ele>347.0</ele><time>2026-04-19T16:11:45.433Z</time></trkpt><trkpt lat="40.4410817" lon="8.8498383"><ele>347.0</ele><time>2026-04-19T16:11:46.432Z</time></trkpt><trkpt lat="40.441185" lon="8.8499883"><ele>347.0</ele><time>2026-04-19T16:11:47.433Z</time></trkpt><trkpt lat="40.4412917" lon="8.8501467"><ele>346.6666666666667</ele><time>2026-04-19T16:11:48.432Z</time></trkpt><trkpt lat="40.4414017" lon="8.850295"><ele>346.3333333333333</ele><time>2026-04-19T16:11:49.432Z</time></trkpt><trkpt lat="40.4415083" lon="8.85046"><ele>346.0</ele><time>2026-04-19T16:11:50.432Z</time></trkpt><trkpt lat="40.44162" lon="8.850625"><ele>346.0</ele><time>2026-04-19T16:11:51.433Z</time></trkpt><trkpt lat="40.44174" lon="8.8507817"><ele>346.0</ele><time>2026-04-19T16:11:52.433Z</time></trkpt><trkpt lat="40.4418583" lon="8.8509383"><ele>346.0</ele><time>2026-04-19T16:11:53.433Z</time></trkpt><trkpt lat="40.44199" lon="8.8510833"><ele>346.0</ele><time>2026-04-19T16:11:54.432Z</time></trkpt><trkpt lat="40.4421283" lon="8.8512283"><ele>346.0</ele><time>2026-04-19T16:11:55.432Z</time></trkpt><trkpt lat="40.4422733" lon="8.8513733"><ele>346.0</ele><time>2026-04-19T16:11:56.432Z</time></trkpt><trkpt lat="40.44242" lon="8.8515267"><ele>346.0</ele><time>2026-04-19T16:11:57.433Z</time></trkpt><trkpt lat="40.4425667" lon="8.8516767"><ele>346.0</ele><time>2026-04-19T16:11:58.432Z</time></trkpt><trkpt lat="40.4427083" lon="8.8518167"><ele>346.0</ele><time>2026-04-19T16:11:59.432Z</time></trkpt><trkpt lat="40.4428567" lon="8.8519617"><ele>346.3333333333333</ele><time>2026-04-19T16:12:00.433Z</time></trkpt><trkpt lat="40.443005" lon="8.852105"><ele>346.6666666666667</ele><time>2026-04-19T16:12:01.433Z</time></trkpt><trkpt lat="40.44315" lon="8.8522533"><ele>347.0</ele><time>2026-04-19T16:12:02.432Z</time></trkpt><trkpt lat="40.4433" lon="8.8524033"><ele>347.0</ele><time>2026-04-19T16:12:03.432Z</time></trkpt><trkpt lat="40.4434533" lon="8.85255"><ele>347.0</ele><time>2026-04-19T16:12:04.433Z</time></trkpt><trkpt lat="40.4436033" lon="8.8526967"><ele>347.0</ele><time>2026-04-19T16:12:05.432Z</time></trkpt><trkpt lat="40.443755" lon="8.8528433"><ele>347.33333333333337</ele><time>2026-04-19T16:12:06.433Z</time></trkpt><trkpt lat="40.4439017" lon="8.852995"><ele>347.6666666666667</ele><time>2026-04-19T16:12:07.433Z</time></trkpt><trkpt lat="40.4440483" lon="8.8531417"><ele>348.0</ele><time>2026-04-19T16:12:08.433Z</time></trkpt><trkpt lat="40.4441983" lon="8.8532867"><ele>348.0</ele><time>2026-04-19T16:12:09.432Z</time></trkpt><trkpt lat="40.4443467" lon="8.8534383"><ele>348.0</ele><time>2026-04-19T16:12:10.433Z</time></trkpt><trkpt lat="40.4444883" lon="8.8535733"><ele>348.0</ele><time>2026-04-19T16:12:11.432Z</time></trkpt><trkpt lat="40.4446283" lon="8.8537117"><ele>348.3333333333333</ele><time>2026-04-19T16:12:12.433Z</time></trkpt><trkpt lat="40.4447683" lon="8.8538467"><ele>348.66666666666663</ele><time>2026-04-19T16:12:13.433Z</time></trkpt><trkpt lat="40.444895" lon="8.8539933"><ele>349.0</ele><time>2026-04-19T16:12:14.432Z</time></trkpt><trkpt lat="40.4449967" lon="8.8541633"><ele>350.0</ele><time>2026-04-19T16:12:15.432Z</time></trkpt><trkpt lat="40.4450917" lon="8.854365"><ele>351.0</ele><time>2026-04-19T16:12:16.433Z</time></trkpt><trkpt lat="40.4451583" lon="8.85458"><ele>352.0</ele><time>2026-04-19T16:12:17.433Z</time></trkpt><trkpt lat="40.4452067" lon="8.85482"><ele>352.0</ele><time>2026-04-19T16:12:18.432Z</time></trkpt><trkpt lat="40.4452517" lon="8.8550683"><ele>352.0</ele><time>2026-04-19T16:12:19.433Z</time></trkpt><trkpt lat="40.445295" lon="8.8553017"><ele>352.0</ele><time>2026-04-19T16:12:20.433Z</time></trkpt><trkpt lat="40.4453383" lon="8.8555283"><ele>351.3333333333333</ele><time>2026-04-19T16:12:21.433Z</time></trkpt><trkpt lat="40.4453867" lon="8.8557617"><ele>350.6666666666667</ele><time>2026-04-19T16:12:22.433Z</time></trkpt><trkpt lat="40.4454333" lon="8.855995"><ele>350.0</ele><time>2026-04-19T16:12:23.433Z</time></trkpt><trkpt lat="40.4454817" lon="8.85623"><ele>350.0</ele><time>2026-04-19T16:12:24.433Z</time></trkpt><trkpt lat="40.44553" lon="8.8564617"><ele>350.0</ele><time>2026-04-19T16:12:25.432Z</time></trkpt><trkpt lat="40.44558" lon="8.856705"><ele>350.0</ele><time>2026-04-19T16:12:26.433Z</time></trkpt><trkpt lat="40.4456333" lon="8.8569483"><ele>351.0</ele><time>2026-04-19T16:12:27.433Z</time></trkpt><trkpt lat="40.4456883" lon="8.857195"><ele>352.0</ele><time>2026-04-19T16:12:28.433Z</time></trkpt><trkpt lat="40.44574" lon="8.85744"><ele>353.0</ele><time>2026-04-19T16:12:29.433Z</time></trkpt><trkpt lat="40.4457883" lon="8.85769"><ele>353.0</ele><time>2026-04-19T16:12:30.433Z</time></trkpt><trkpt lat="40.4458367" lon="8.857945"><ele>353.0</ele><time>2026-04-19T16:12:31.433Z</time></trkpt><trkpt lat="40.4458867" lon="8.858195"><ele>353.0</ele><time>2026-04-19T16:12:32.432Z</time></trkpt><trkpt lat="40.4459417" lon="8.858445"><ele>353.0</ele><time>2026-04-19T16:12:33.433Z</time></trkpt><trkpt lat="40.445995" lon="8.8586883"><ele>353.0</ele><time>2026-04-19T16:12:34.432Z</time></trkpt><trkpt lat="40.4460433" lon="8.85893"><ele>353.0</ele><time>2026-04-19T16:12:35.433Z</time></trkpt><trkpt lat="40.4460933" lon="8.8591717"><ele>354.0</ele><time>2026-04-19T16:12:36.433Z</time></trkpt><trkpt lat="40.4461433" lon="8.8594167"><ele>355.0</ele><time>2026-04-19T16:12:37.433Z</time></trkpt><trkpt lat="40.4461967" lon="8.8596567"><ele>356.0</ele><time>2026-04-19T16:12:38.433Z</time></trkpt><trkpt lat="40.4462483" lon="8.8599017"><ele>356.0</ele><time>2026-04-19T16:12:39.433Z</time></trkpt><trkpt lat="40.4463067" lon="8.8601467"><ele>356.0</ele><time>2026-04-19T16:12:40.432Z</time></trkpt><trkpt lat="40.4463833" lon="8.8603917"><ele>356.0</ele><time>2026-04-19T16:12:41.433Z</time></trkpt><trkpt lat="40.44648" lon="8.8606233"><ele>356.0</ele><time>2026-04-19T16:12:42.432Z</time></trkpt><trkpt lat="40.44658" lon="8.8608383"><ele>356.0</ele><time>2026-04-19T16:12:43.432Z</time></trkpt><trkpt lat="40.4466783" lon="8.861045"><ele>356.0</ele><time>2026-04-19T16:12:44.432Z</time></trkpt><trkpt lat="40.4467683" lon="8.861265"><ele>356.0</ele><time>2026-04-19T16:12:45.433Z</time></trkpt><trkpt lat="40.4468617" lon="8.86149"><ele>356.0</ele><time>2026-04-19T16:12:46.433Z</time></trkpt><trkpt lat="40.446955" lon="8.8617083"><ele>356.0</ele><time>2026-04-19T16:12:47.433Z</time></trkpt><trkpt lat="40.4470517" lon="8.86192"><ele>356.6666666666667</ele><time>2026-04-19T16:12:48.432Z</time></trkpt><trkpt lat="40.44715" lon="8.8621367"><ele>357.3333333333333</ele><time>2026-04-19T16:12:49.433Z</time></trkpt><trkpt lat="40.4472417" lon="8.862355"><ele>358.0</ele><time>2026-04-19T16:12:50.432Z</time></trkpt><trkpt lat="40.4473367" lon="8.8625767"><ele>358.0</ele><time>2026-04-19T16:12:51.433Z</time></trkpt><trkpt lat="40.4474317" lon="8.8628067"><ele>358.0</ele><time>2026-04-19T16:12:52.433Z</time></trkpt><trkpt lat="40.44753" lon="8.8630233"><ele>358.0</ele><time>2026-04-19T16:12:53.432Z</time></trkpt><trkpt lat="40.4476233" lon="8.8632317"><ele>358.0</ele><time>2026-04-19T16:12:54.432Z</time></trkpt><trkpt lat="40.44772" lon="8.8634467"><ele>358.0</ele><time>2026-04-19T16:12:55.432Z</time></trkpt><trkpt lat="40.4478183" lon="8.8636633"><ele>358.0</ele><time>2026-04-19T16:12:56.433Z</time></trkpt><trkpt lat="40.4479133" lon="8.8638883"><ele>359.3333333333333</ele><time>2026-04-19T16:12:57.432Z</time></trkpt><trkpt lat="40.4480133" lon="8.864105"><ele>360.6666666666667</ele><time>2026-04-19T16:12:58.433Z</time></trkpt><trkpt lat="40.44811" lon="8.8643267"><ele>362.0</ele><time>2026-04-19T16:12:59.433Z</time></trkpt><trkpt lat="40.448205" lon="8.8645567"><ele>363.0</ele><time>2026-04-19T16:13:00.433Z</time></trkpt><trkpt lat="40.4483067" lon="8.8647833"><ele>364.0</ele><time>2026-04-19T16:13:01.432Z</time></trkpt><trkpt lat="40.4483983" lon="8.865"><ele>365.0</ele><time>2026-04-19T16:13:02.433Z</time></trkpt><trkpt lat="40.4484833" lon="8.8652033"><ele>366.0</ele><time>2026-04-19T16:13:03.433Z</time></trkpt><trkpt lat="40.44856" lon="8.8654183"><ele>367.0</ele><time>2026-04-19T16:13:04.433Z</time></trkpt><trkpt lat="40.4486317" lon="8.8656317"><ele>368.0</ele><time>2026-04-19T16:13:05.432Z</time></trkpt><trkpt lat="40.4487033" lon="8.8658483"><ele>368.0</ele><time>2026-04-19T16:13:06.433Z</time></trkpt><trkpt lat="40.4487783" lon="8.8660633"><ele>368.0</ele><time>2026-04-19T16:13:07.432Z</time></trkpt><trkpt lat="40.44886" lon="8.8662783"><ele>368.0</ele><time>2026-04-19T16:13:08.433Z</time></trkpt><trkpt lat="40.448935" lon="8.8664967"><ele>368.0</ele><time>2026-04-19T16:13:09.433Z</time></trkpt><trkpt lat="40.4490133" lon="8.8667233"><ele>368.0</ele><time>2026-04-19T16:13:10.432Z</time></trkpt><trkpt lat="40.4490933" lon="8.8669583"><ele>368.0</ele><time>2026-04-19T16:13:11.433Z</time></trkpt><trkpt lat="40.449175" lon="8.8671917"><ele>369.0</ele><time>2026-04-19T16:13:12.432Z</time></trkpt><trkpt lat="40.4492517" lon="8.8674333"><ele>370.0</ele><time>2026-04-19T16:13:13.433Z</time></trkpt><trkpt lat="40.4493217" lon="8.8676767"><ele>371.0</ele><time>2026-04-19T16:13:14.432Z</time></trkpt><trkpt lat="40.44939" lon="8.8679283"><ele>372.6666666666667</ele><time>2026-04-19T16:13:15.432Z</time></trkpt><trkpt lat="40.4494567" lon="8.8681933"><ele>374.3333333333333</ele><time>2026-04-19T16:13:16.432Z</time></trkpt><trkpt lat="40.4495233" lon="8.8684433"><ele>376.0</ele><time>2026-04-19T16:13:17.433Z</time></trkpt><trkpt lat="40.4495883" lon="8.8687"><ele>375.66666666666663</ele><time>2026-04-19T16:13:18.433Z</time></trkpt><trkpt lat="40.4496517" lon="8.86895"><ele>375.3333333333333</ele><time>2026-04-19T16:13:19.433Z</time></trkpt><trkpt lat="40.4497117" lon="8.8692017"><ele>375.0</ele><time>2026-04-19T16:13:20.432Z</time></trkpt><trkpt lat="40.4497667" lon="8.869455"><ele>376.0</ele><time>2026-04-19T16:13:21.432Z</time></trkpt><trkpt lat="40.4498167" lon="8.8697083"><ele>377.0</ele><time>2026-04-19T16:13:22.433Z</time></trkpt><trkpt lat="40.449855" lon="8.8699733"><ele>378.0</ele><time>2026-04-19T16:13:23.432Z</time></trkpt><trkpt lat="40.4498867" lon="8.8702283"><ele>379.0</ele><time>2026-04-19T16:13:24.433Z</time></trkpt><trkpt lat="40.4499217" lon="8.87047"><ele>380.0</ele><time>2026-04-19T16:13:25.432Z</time></trkpt><trkpt lat="40.4499567" lon="8.870705"><ele>381.0</ele><time>2026-04-19T16:13:26.432Z</time></trkpt><trkpt lat="40.4499933" lon="8.870935"><ele>381.3333333333333</ele><time>2026-04-19T16:13:27.432Z</time></trkpt><trkpt lat="40.4500317" lon="8.8711683"><ele>381.66666666666663</ele><time>2026-04-19T16:13:28.432Z</time></trkpt><trkpt lat="40.4500633" lon="8.8714067"><ele>382.0</ele><time>2026-04-19T16:13:29.432Z</time></trkpt><trkpt lat="40.4500917" lon="8.8716467"><ele>383.66666666666663</ele><time>2026-04-19T16:13:30.433Z</time></trkpt><trkpt lat="40.4501" lon="8.8718917"><ele>385.3333333333333</ele><time>2026-04-19T16:13:31.432Z</time></trkpt><trkpt lat="40.4501" lon="8.8721367"><ele>387.0</ele><time>2026-04-19T16:13:32.432Z</time></trkpt><trkpt lat="40.4500967" lon="8.8723817"><ele>388.0</ele><time>2026-04-19T16:13:33.432Z</time></trkpt><trkpt lat="40.45009" lon="8.8726267"><ele>389.0</ele><time>2026-04-19T16:13:34.432Z</time></trkpt><trkpt lat="40.45007" lon="8.8728517"><ele>390.0</ele><time>2026-04-19T16:13:35.432Z</time></trkpt><trkpt lat="40.4500583" lon="8.87308"><ele>390.0</ele><time>2026-04-19T16:13:36.432Z</time></trkpt><trkpt lat="40.4500567" lon="8.8733067"><ele>390.0</ele><time>2026-04-19T16:13:37.432Z</time></trkpt><trkpt lat="40.450045" lon="8.8735417"><ele>390.0</ele><time>2026-04-19T16:13:38.433Z</time></trkpt><trkpt lat="40.4500333" lon="8.8737833"><ele>389.33333333333337</ele><time>2026-04-19T16:13:39.433Z</time></trkpt><trkpt lat="40.4500233" lon="8.8740283"><ele>388.6666666666667</ele><time>2026-04-19T16:13:40.433Z</time></trkpt><trkpt lat="40.4500133" lon="8.8742733"><ele>388.0</ele><time>2026-04-19T16:13:41.432Z</time></trkpt><trkpt lat="40.4500017" lon="8.8745267"><ele>386.33333333333337</ele><time>2026-04-19T16:13:42.432Z</time></trkpt><trkpt lat="40.4499883" lon="8.87477"><ele>384.6666666666667</ele><time>2026-04-19T16:13:43.432Z</time></trkpt><trkpt lat="40.449975" lon="8.8750117"><ele>383.0</ele><time>2026-04-19T16:13:44.433Z</time></trkpt><trkpt lat="40.4499583" lon="8.875245"><ele>382.33333333333337</ele><time>2026-04-19T16:13:45.432Z</time></trkpt><trkpt lat="40.4499467" lon="8.8754867"><ele>381.6666666666667</ele><time>2026-04-19T16:13:46.433Z</time></trkpt><trkpt lat="40.44993" lon="8.8757333"><ele>381.0</ele><time>2026-04-19T16:13:47.433Z</time></trkpt><trkpt lat="40.4499183" lon="8.8759767"><ele>379.6666666666667</ele><time>2026-04-19T16:13:48.432Z</time></trkpt><trkpt lat="40.44991" lon="8.87621"><ele>378.33333333333337</ele><time>2026-04-19T16:13:49.432Z</time></trkpt><trkpt lat="40.449895" lon="8.876445"><ele>377.0</ele><time>2026-04-19T16:13:50.432Z</time></trkpt><trkpt lat="40.44986" lon="8.8766883"><ele>377.33333333333337</ele><time>2026-04-19T16:13:51.432Z</time></trkpt><trkpt lat="40.4498" lon="8.87693"><ele>377.6666666666667</ele><time>2026-04-19T16:13:52.433Z</time></trkpt><trkpt lat="40.4497333" lon="8.8771633"><ele>378.0</ele><time>2026-04-19T16:13:53.432Z</time></trkpt><trkpt lat="40.449665" lon="8.87739"><ele>376.3333333333333</ele><time>2026-04-19T16:13:54.433Z</time></trkpt><trkpt lat="40.44959" lon="8.87761"><ele>374.66666666666663</ele><time>2026-04-19T16:13:55.432Z</time></trkpt><trkpt lat="40.4495233" lon="8.8778283"><ele>373.0</ele><time>2026-04-19T16:13:56.433Z</time></trkpt><trkpt lat="40.44946" lon="8.8780433"><ele>373.0</ele><time>2026-04-19T16:13:57.433Z</time></trkpt><trkpt lat="40.44939" lon="8.878245"><ele>373.0</ele><time>2026-04-19T16:13:58.432Z</time></trkpt><trkpt lat="40.449325" lon="8.8784367"><ele>373.0</ele><time>2026-04-19T16:13:59.432Z</time></trkpt><trkpt lat="40.4492617" lon="8.8786283"><ele>372.3333333333333</ele><time>2026-04-19T16:14:00.432Z</time></trkpt><trkpt lat="40.4491983" lon="8.878825"><ele>371.6666666666667</ele><time>2026-04-19T16:14:01.433Z</time></trkpt><trkpt lat="40.4491283" lon="8.8790167"><ele>371.0</ele><time>2026-04-19T16:14:02.432Z</time></trkpt><trkpt lat="40.4490533" lon="8.8792033"><ele>371.33333333333337</ele><time>2026-04-19T16:14:03.432Z</time></trkpt><trkpt lat="40.4489633" lon="8.8793833"><ele>371.6666666666667</ele><time>2026-04-19T16:14:04.432Z</time></trkpt><trkpt lat="40.4488617" lon="8.8795683"><ele>372.0</ele><time>2026-04-19T16:14:05.432Z</time></trkpt><trkpt lat="40.44876" lon="8.8797583"><ele>372.3333333333333</ele><time>2026-04-19T16:14:06.432Z</time></trkpt><trkpt lat="40.44865" lon="8.8799467"><ele>372.66666666666663</ele><time>2026-04-19T16:14:07.432Z</time></trkpt><trkpt lat="40.448535" lon="8.8801283"><ele>373.0</ele><time>2026-04-19T16:14:08.433Z</time></trkpt><trkpt lat="40.4484217" lon="8.8803133"><ele>373.0</ele><time>2026-04-19T16:14:09.433Z</time></trkpt><trkpt lat="40.4483067" lon="8.88049"><ele>373.0</ele><time>2026-04-19T16:14:10.432Z</time></trkpt><trkpt lat="40.4481783" lon="8.8806567"><ele>373.0</ele><time>2026-04-19T16:14:11.432Z</time></trkpt><trkpt lat="40.44804" lon="8.880805"><ele>373.3333333333333</ele><time>2026-04-19T16:14:12.432Z</time></trkpt><trkpt lat="40.4478917" lon="8.8809383"><ele>373.6666666666667</ele><time>2026-04-19T16:14:13.433Z</time></trkpt><trkpt lat="40.4477433" lon="8.88106"><ele>374.0</ele><time>2026-04-19T16:14:14.432Z</time></trkpt><trkpt lat="40.4476017" lon="8.881185"><ele>374.0</ele><time>2026-04-19T16:14:15.432Z</time></trkpt><trkpt lat="40.4474633" lon="8.8813233"><ele>374.0</ele><time>2026-04-19T16:14:16.433Z</time></trkpt><trkpt lat="40.4473283" lon="8.8814717"><ele>374.0</ele><time>2026-04-19T16:14:17.433Z</time></trkpt><trkpt lat="40.4471983" lon="8.881635"><ele>374.33333333333337</ele><time>2026-04-19T16:14:18.432Z</time></trkpt><trkpt lat="40.4470667" lon="8.8817967"><ele>374.6666666666667</ele><time>2026-04-19T16:14:19.432Z</time></trkpt><trkpt lat="40.4469333" lon="8.8819583"><ele>375.0</ele><time>2026-04-19T16:14:20.433Z</time></trkpt><trkpt lat="40.4468033" lon="8.8821233"><ele>375.0</ele><time>2026-04-19T16:14:21.432Z</time></trkpt><trkpt lat="40.44667" lon="8.882285"><ele>375.0</ele><time>2026-04-19T16:14:22.433Z</time></trkpt><trkpt lat="40.4465417" lon="8.8824367"><ele>375.0</ele><time>2026-04-19T16:14:23.432Z</time></trkpt><trkpt lat="40.4464083" lon="8.8825933"><ele>375.6666666666667</ele><time>2026-04-19T16:14:24.433Z</time></trkpt><trkpt lat="40.4462833" lon="8.8827567"><ele>376.33333333333337</ele><time>2026-04-19T16:14:25.432Z</time></trkpt><trkpt lat="40.4461517" lon="8.8829083"><ele>377.0</ele><time>2026-04-19T16:14:26.432Z</time></trkpt><trkpt lat="40.4460133" lon="8.8830683"><ele>377.0</ele><time>2026-04-19T16:14:27.433Z</time></trkpt><trkpt lat="40.44588" lon="8.8832383"><ele>377.0</ele><time>2026-04-19T16:14:28.432Z</time></trkpt><trkpt lat="40.4457517" lon="8.883425"><ele>377.0</ele><time>2026-04-19T16:14:29.432Z</time></trkpt><trkpt lat="40.4456333" lon="8.8836233"><ele>377.0</ele><time>2026-04-19T16:14:30.433Z</time></trkpt><trkpt lat="40.4455217" lon="8.8838217"><ele>377.0</ele><time>2026-04-19T16:14:31.433Z</time></trkpt><trkpt lat="40.4454167" lon="8.8840083"><ele>377.0</ele><time>2026-04-19T16:14:32.433Z</time></trkpt><trkpt lat="40.4453117" lon="8.8841817"><ele>377.6666666666667</ele><time>2026-04-19T16:14:33.433Z</time></trkpt><trkpt lat="40.4452233" lon="8.8843583"><ele>378.3333333333333</ele><time>2026-04-19T16:14:34.432Z</time></trkpt><trkpt lat="40.4451267" lon="8.88452"><ele>379.0</ele><time>2026-04-19T16:14:35.433Z</time></trkpt><trkpt lat="40.44503" lon="8.8846833"><ele>379.0</ele><time>2026-04-19T16:14:36.432Z</time></trkpt><trkpt lat="40.44493" lon="8.88485"><ele>379.0</ele><time>2026-04-19T16:14:37.433Z</time></trkpt><trkpt lat="40.4448333" lon="8.885025"><ele>379.0</ele><time>2026-04-19T16:14:38.433Z</time></trkpt><trkpt lat="40.4447317" lon="8.8852117"><ele>379.66666666666663</ele><time>2026-04-19T16:14:39.433Z</time></trkpt><trkpt lat="40.4446533" lon="8.8854017"><ele>380.3333333333333</ele><time>2026-04-19T16:14:40.433Z</time></trkpt><trkpt lat="40.4445967" lon="8.885615"><ele>381.0</ele><time>2026-04-19T16:14:41.433Z</time></trkpt><trkpt lat="40.4445567" lon="8.8858467"><ele>382.0</ele><time>2026-04-19T16:14:42.433Z</time></trkpt><trkpt lat="40.44453" lon="8.8860867"><ele>383.0</ele><time>2026-04-19T16:14:43.432Z</time></trkpt><trkpt lat="40.4445267" lon="8.8863233"><ele>384.0</ele><time>2026-04-19T16:14:44.433Z</time></trkpt><trkpt lat="40.44453" lon="8.8865467"><ele>385.33333333333337</ele><time>2026-04-19T16:14:45.432Z</time></trkpt><trkpt lat="40.4445283" lon="8.8867633"><ele>386.6666666666667</ele><time>2026-04-19T16:14:46.433Z</time></trkpt><trkpt lat="40.444535" lon="8.8869717"><ele>388.0</ele><time>2026-04-19T16:14:47.432Z</time></trkpt><trkpt lat="40.44453" lon="8.8871917"><ele>388.0</ele><time>2026-04-19T16:14:48.433Z</time></trkpt><trkpt lat="40.444535" lon="8.88742"><ele>388.0</ele><time>2026-04-19T16:14:49.433Z</time></trkpt><trkpt lat="40.4445333" lon="8.8876467"><ele>388.0</ele><time>2026-04-19T16:14:50.433Z</time></trkpt><trkpt lat="40.4445333" lon="8.8878783"><ele>388.0</ele><time>2026-04-19T16:14:51.432Z</time></trkpt><trkpt lat="40.444535" lon="8.88812"><ele>388.0</ele><time>2026-04-19T16:14:52.433Z</time></trkpt><trkpt lat="40.4445467" lon="8.888345"><ele>388.0</ele><time>2026-04-19T16:14:53.433Z</time></trkpt><trkpt lat="40.44455" lon="8.8885683"><ele>387.6666666666667</ele><time>2026-04-19T16:14:54.432Z</time></trkpt><trkpt lat="40.4445567" lon="8.8887817"><ele>387.33333333333337</ele><time>2026-04-19T16:14:55.433Z</time></trkpt><trkpt lat="40.4445733" lon="8.8889917"><ele>387.0</ele><time>2026-04-19T16:14:56.432Z</time></trkpt><trkpt lat="40.44462" lon="8.8892017"><ele>388.33333333333337</ele><time>2026-04-19T16:14:57.432Z</time></trkpt><trkpt lat="40.44469" lon="8.88942"><ele>389.6666666666667</ele><time>2026-04-19T16:14:58.432Z</time></trkpt><trkpt lat="40.4447583" lon="8.8896367"><ele>391.0</ele><time>2026-04-19T16:14:59.432Z</time></trkpt><trkpt lat="40.44483" lon="8.8898517"><ele>391.0</ele><time>2026-04-19T16:15:00.432Z</time></trkpt><trkpt lat="40.4448967" lon="8.8900517"><ele>391.0</ele><time>2026-04-19T16:15:01.432Z</time></trkpt><trkpt lat="40.444955" lon="8.89026"><ele>391.0</ele><time>2026-04-19T16:15:02.433Z</time></trkpt><trkpt lat="40.4450017" lon="8.8904717"><ele>391.0</ele><time>2026-04-19T16:15:03.432Z</time></trkpt><trkpt lat="40.4450217" lon="8.8906783"><ele>391.0</ele><time>2026-04-19T16:15:04.432Z</time></trkpt><trkpt lat="40.4450183" lon="8.890895"><ele>391.0</ele><time>2026-04-19T16:15:05.432Z</time></trkpt><trkpt lat="40.4449917" lon="8.89112"><ele>392.33333333333337</ele><time>2026-04-19T16:15:06.433Z</time></trkpt><trkpt lat="40.4449483" lon="8.89133"><ele>393.66666666666663</ele><time>2026-04-19T16:15:07.433Z</time></trkpt><trkpt lat="40.444905" lon="8.8915483"><ele>395.0</ele><time>2026-04-19T16:15:08.432Z</time></trkpt><trkpt lat="40.444855" lon="8.891755"><ele>396.66666666666663</ele><time>2026-04-19T16:15:09.433Z</time></trkpt><trkpt lat="40.444805" lon="8.8919617"><ele>398.33333333333337</ele><time>2026-04-19T16:15:10.433Z</time></trkpt><trkpt lat="40.4447583" lon="8.892165"><ele>400.0</ele><time>2026-04-19T16:15:11.432Z</time></trkpt><trkpt lat="40.4447133" lon="8.89236"><ele>400.0</ele><time>2026-04-19T16:15:12.432Z</time></trkpt><trkpt lat="40.4446667" lon="8.892565"><ele>400.0</ele><time>2026-04-19T16:15:13.433Z</time></trkpt><trkpt lat="40.4446183" lon="8.8927583"><ele>400.0</ele><time>2026-04-19T16:15:14.433Z</time></trkpt><trkpt lat="40.4445733" lon="8.8929483"><ele>398.0</ele><time>2026-04-19T16:15:15.432Z</time></trkpt><trkpt lat="40.44453" lon="8.893135"><ele>396.0</ele><time>2026-04-19T16:15:16.433Z</time></trkpt><trkpt lat="40.4444917" lon="8.89333"><ele>394.0</ele><time>2026-04-19T16:15:17.432Z</time></trkpt><trkpt lat="40.4444567" lon="8.8935333"><ele>394.0</ele><time>2026-04-19T16:15:18.433Z</time></trkpt><trkpt lat="40.4444283" lon="8.8937417"><ele>394.0</ele><time>2026-04-19T16:15:19.432Z</time></trkpt><trkpt lat="40.444425" lon="8.8939617"><ele>394.0</ele><time>2026-04-19T16:15:20.432Z</time></trkpt><trkpt lat="40.44443" lon="8.894185"><ele>394.6666666666667</ele><time>2026-04-19T16:15:21.432Z</time></trkpt><trkpt lat="40.4444283" lon="8.8943967"><ele>395.33333333333337</ele><time>2026-04-19T16:15:22.432Z</time></trkpt><trkpt lat="40.4444317" lon="8.8946"><ele>396.0</ele><time>2026-04-19T16:15:23.432Z</time></trkpt><trkpt lat="40.4444067" lon="8.8948117"><ele>396.0</ele><time>2026-04-19T16:15:24.432Z</time></trkpt><trkpt lat="40.4443617" lon="8.8950183"><ele>396.0</ele><time>2026-04-19T16:15:25.432Z</time></trkpt><trkpt lat="40.444295" lon="8.89523"><ele>396.0</ele><time>2026-04-19T16:15:26.432Z</time></trkpt><trkpt lat="40.4442217" lon="8.8954333"><ele>399.0</ele><time>2026-04-19T16:15:27.433Z</time></trkpt><trkpt lat="40.4441617" lon="8.8956433"><ele>402.0</ele><time>2026-04-19T16:15:28.432Z</time></trkpt><trkpt lat="40.444115" lon="8.8958633"><ele>405.0</ele><time>2026-04-19T16:15:29.432Z</time></trkpt><trkpt lat="40.4440817" lon="8.89609"><ele>408.0</ele><time>2026-04-19T16:15:30.432Z</time></trkpt><trkpt lat="40.4440617" lon="8.8963117"><ele>411.0</ele><time>2026-04-19T16:15:31.432Z</time></trkpt><trkpt lat="40.4440467" lon="8.89653"><ele>414.0</ele><time>2026-04-19T16:15:32.433Z</time></trkpt><trkpt lat="40.44403" lon="8.8967433"><ele>416.0</ele><time>2026-04-19T16:15:33.433Z</time></trkpt><trkpt lat="40.4440167" lon="8.8969583"><ele>418.0</ele><time>2026-04-19T16:15:34.432Z</time></trkpt><trkpt lat="40.4440033" lon="8.8971717"><ele>420.0</ele><time>2026-04-19T16:15:35.432Z</time></trkpt><trkpt lat="40.444005" lon="8.897385"><ele>420.66666666666663</ele><time>2026-04-19T16:15:36.432Z</time></trkpt><trkpt lat="40.44402" lon="8.8975967"><ele>421.3333333333333</ele><time>2026-04-19T16:15:37.433Z</time></trkpt><trkpt lat="40.4440583" lon="8.8978033"><ele>422.0</ele><time>2026-04-19T16:15:38.432Z</time></trkpt><trkpt lat="40.4441067" lon="8.8980083"><ele>422.0</ele><time>2026-04-19T16:15:39.432Z</time></trkpt><trkpt lat="40.4441467" lon="8.8982183"><ele>422.0</ele><time>2026-04-19T16:15:40.432Z</time></trkpt><trkpt lat="40.4441817" lon="8.89843"><ele>422.0</ele><time>2026-04-19T16:15:41.433Z</time></trkpt><trkpt lat="40.444195" lon="8.898645"><ele>425.0</ele><time>2026-04-19T16:15:42.433Z</time></trkpt><trkpt lat="40.44419" lon="8.89886"><ele>428.0</ele><time>2026-04-19T16:15:43.433Z</time></trkpt><trkpt lat="40.44416" lon="8.8990767"><ele>431.0</ele><time>2026-04-19T16:15:44.432Z</time></trkpt><trkpt lat="40.4441217" lon="8.899295"><ele>433.66666666666663</ele><time>2026-04-19T16:15:45.432Z</time></trkpt><trkpt lat="40.4440617" lon="8.8995083"><ele>436.33333333333337</ele><time>2026-04-19T16:15:46.432Z</time></trkpt><trkpt lat="40.4440133" lon="8.899725"><ele>439.0</ele><time>2026-04-19T16:15:47.433Z</time></trkpt><trkpt lat="40.4439683" lon="8.89994"><ele>440.33333333333337</ele><time>2026-04-19T16:15:48.433Z</time></trkpt><trkpt lat="40.4439283" lon="8.9001683"><ele>441.66666666666663</ele><time>2026-04-19T16:15:49.432Z</time></trkpt><trkpt lat="40.443895" lon="8.9003983"><ele>443.0</ele><time>2026-04-19T16:15:50.432Z</time></trkpt><trkpt lat="40.443875" lon="8.90061"><ele>443.0</ele><time>2026-04-19T16:15:51.432Z</time></trkpt><trkpt lat="40.4438583" lon="8.9008267"><ele>443.0</ele><time>2026-04-19T16:15:52.432Z</time></trkpt><trkpt lat="40.4438517" lon="8.9010467"><ele>443.0</ele><time>2026-04-19T16:15:53.432Z</time></trkpt><trkpt lat="40.4438367" lon="8.901265"><ele>445.0</ele><time>2026-04-19T16:15:54.432Z</time></trkpt><trkpt lat="40.443825" lon="8.901485"><ele>447.0</ele><time>2026-04-19T16:15:55.432Z</time></trkpt><trkpt lat="40.44382" lon="8.90171"><ele>449.0</ele><time>2026-04-19T16:15:56.433Z</time></trkpt><trkpt lat="40.4438067" lon="8.90194"><ele>446.66666666666663</ele><time>2026-04-19T16:15:57.433Z</time></trkpt><trkpt lat="40.4437933" lon="8.9021717"><ele>444.33333333333337</ele><time>2026-04-19T16:15:58.432Z</time></trkpt><trkpt lat="40.4437833" lon="8.902405"><ele>442.0</ele><time>2026-04-19T16:15:59.433Z</time></trkpt><trkpt lat="40.4437767" lon="8.90265"><ele>442.0</ele><time>2026-04-19T16:16:00.433Z</time></trkpt><trkpt lat="40.4437633" lon="8.9028783"><ele>442.0</ele><time>2026-04-19T16:16:01.432Z</time></trkpt><trkpt lat="40.4437567" lon="8.9031033"><ele>442.0</ele><time>2026-04-19T16:16:02.432Z</time></trkpt><trkpt lat="40.4437617" lon="8.903335"><ele>443.0</ele><time>2026-04-19T16:16:03.433Z</time></trkpt><trkpt lat="40.44379" lon="8.9035683"><ele>444.0</ele><time>2026-04-19T16:16:04.432Z</time></trkpt><trkpt lat="40.4438183" lon="8.9037967"><ele>445.0</ele><time>2026-04-19T16:16:05.432Z</time></trkpt><trkpt lat="40.4438483" lon="8.9040317"><ele>450.0</ele><time>2026-04-19T16:16:06.432Z</time></trkpt><trkpt lat="40.4438783" lon="8.9042683"><ele>455.0</ele><time>2026-04-19T16:16:07.432Z</time></trkpt><trkpt lat="40.4439067" lon="8.904515"><ele>460.0</ele><time>2026-04-19T16:16:08.433Z</time></trkpt><trkpt lat="40.4439367" lon="8.9047617"><ele>460.0</ele><time>2026-04-19T16:16:09.432Z</time></trkpt><trkpt lat="40.4439717" lon="8.9050017"><ele>460.0</ele><time>2026-04-19T16:16:10.432Z</time></trkpt><trkpt lat="40.444" lon="8.90524"><ele>460.0</ele><time>2026-04-19T16:16:11.432Z</time></trkpt><trkpt lat="40.4440267" lon="8.90547"><ele>462.33333333333337</ele><time>2026-04-19T16:16:12.433Z</time></trkpt><trkpt lat="40.4440517" lon="8.9056983"><ele>464.66666666666663</ele><time>2026-04-19T16:16:13.432Z</time></trkpt><trkpt lat="40.4440733" lon="8.9059217"><ele>467.0</ele><time>2026-04-19T16:16:14.432Z</time></trkpt><trkpt lat="40.4440967" lon="8.90615"><ele>469.3333333333333</ele><time>2026-04-19T16:16:15.432Z</time></trkpt><trkpt lat="40.4441283" lon="8.9063717"><ele>471.66666666666663</ele><time>2026-04-19T16:16:16.433Z</time></trkpt><trkpt lat="40.4441583" lon="8.9065983"><ele>474.0</ele><time>2026-04-19T16:16:17.432Z</time></trkpt><trkpt lat="40.444195" lon="8.9068317"><ele>474.66666666666663</ele><time>2026-04-19T16:16:18.432Z</time></trkpt><trkpt lat="40.4442467" lon="8.9070633"><ele>475.3333333333333</ele><time>2026-04-19T16:16:19.432Z</time></trkpt><trkpt lat="40.4443267" lon="8.90728"><ele>476.0</ele><time>2026-04-19T16:16:20.432Z</time></trkpt><trkpt lat="40.444425" lon="8.90748"><ele>476.66666666666663</ele><time>2026-04-19T16:16:21.432Z</time></trkpt><trkpt lat="40.444535" lon="8.9076717"><ele>477.33333333333337</ele><time>2026-04-19T16:16:22.432Z</time></trkpt><trkpt lat="40.4446567" lon="8.9078333"><ele>478.0</ele><time>2026-04-19T16:16:23.433Z</time></trkpt><trkpt lat="40.4447917" lon="8.9079783"><ele>478.0</ele><time>2026-04-19T16:16:24.433Z</time></trkpt><trkpt lat="40.4449283" lon="8.9081117"><ele>478.0</ele><time>2026-04-19T16:16:25.432Z</time></trkpt><trkpt lat="40.4450533" lon="8.9082383"><ele>478.0</ele><time>2026-04-19T16:16:26.433Z</time></trkpt><trkpt lat="40.445175" lon="8.9083633"><ele>480.6666666666667</ele><time>2026-04-19T16:16:27.433Z</time></trkpt><trkpt lat="40.445295" lon="8.9085"><ele>483.33333333333337</ele><time>2026-04-19T16:16:28.433Z</time></trkpt><trkpt lat="40.44541" lon="8.9086483"><ele>486.0</ele><time>2026-04-19T16:16:29.432Z</time></trkpt><trkpt lat="40.4455117" lon="8.9088067"><ele>486.0</ele><time>2026-04-19T16:16:30.433Z</time></trkpt><trkpt lat="40.4455983" lon="8.9089733"><ele>486.0</ele><time>2026-04-19T16:16:31.432Z</time></trkpt><trkpt lat="40.4456833" lon="8.9091417"><ele>486.0</ele><time>2026-04-19T16:16:32.433Z</time></trkpt><trkpt lat="40.4457717" lon="8.9093"><ele>483.0</ele><time>2026-04-19T16:16:33.432Z</time></trkpt><trkpt lat="40.4458483" lon="8.9094533"><ele>480.0</ele><time>2026-04-19T16:16:34.433Z</time></trkpt><trkpt lat="40.445925" lon="8.9096017"><ele>477.0</ele><time>2026-04-19T16:16:35.432Z</time></trkpt><trkpt lat="40.4459933" lon="8.9097317"><ele>474.0</ele><time>2026-04-19T16:16:36.432Z</time></trkpt><trkpt lat="40.4460567" lon="8.90986"><ele>474.0</ele><time>2026-04-19T16:16:37.432Z</time></trkpt><trkpt lat="40.4461033" lon="8.9100017"><ele>474.0</ele><time>2026-04-19T16:16:38.432Z</time></trkpt><trkpt lat="40.4461383" lon="8.9101483"><ele>474.0</ele><time>2026-04-19T16:16:39.433Z</time></trkpt><trkpt lat="40.446135" lon="8.910295"><ele>474.0</ele><time>2026-04-19T16:16:40.432Z</time></trkpt><trkpt lat="40.4460967" lon="8.91044"><ele>478.25</ele><time>2026-04-19T16:16:41.433Z</time></trkpt><trkpt lat="40.446025" lon="8.9105533"><ele>482.5</ele><time>2026-04-19T16:16:42.432Z</time></trkpt><trkpt lat="40.44593" lon="8.9106333"><ele>486.75</ele><time>2026-04-19T16:16:43.433Z</time></trkpt><trkpt lat="40.4458233" lon="8.91067"><ele>491.0</ele><time>2026-04-19T16:16:44.433Z</time></trkpt><trkpt lat="40.4456733" lon="8.9106417"><ele>491.0</ele><time>2026-04-19T16:16:45.433Z</time></trkpt><trkpt lat="40.4455233" lon="8.9105883"><ele>491.0</ele><time>2026-04-19T16:16:46.432Z</time></trkpt><trkpt lat="40.44537" lon="8.910535"><ele>491.0</ele><time>2026-04-19T16:16:47.433Z</time></trkpt><trkpt lat="40.4452333" lon="8.9104883"><ele>491.5</ele><time>2026-04-19T16:16:48.432Z</time></trkpt><trkpt lat="40.4450917" lon="8.91046"><ele>492.0</ele><time>2026-04-19T16:16:49.432Z</time></trkpt><trkpt lat="40.4449617" lon="8.9104317"><ele>492.5</ele><time>2026-04-19T16:16:50.433Z</time></trkpt><trkpt lat="40.4448433" lon="8.9104233"><ele>493.0</ele><time>2026-04-19T16:16:51.432Z</time></trkpt><trkpt lat="40.4447167" lon="8.9104583"><ele>492.75</ele><time>2026-04-19T16:16:52.433Z</time></trkpt><trkpt lat="40.4446033" lon="8.910525"><ele>492.5</ele><time>2026-04-19T16:16:53.433Z</time></trkpt><trkpt lat="40.4444967" lon="8.91063"><ele>492.25</ele><time>2026-04-19T16:16:54.432Z</time></trkpt><trkpt lat="40.4444167" lon="8.9107683"><ele>492.0</ele><time>2026-04-19T16:16:55.432Z</time></trkpt><trkpt lat="40.44437" lon="8.9109433"><ele>494.66666666666663</ele><time>2026-04-19T16:16:56.433Z</time></trkpt><trkpt lat="40.4443383" lon="8.9111417"><ele>497.3333333333333</ele><time>2026-04-19T16:16:57.433Z</time></trkpt><trkpt lat="40.4443083" lon="8.91134"><ele>500.0</ele><time>2026-04-19T16:16:58.432Z</time></trkpt><trkpt lat="40.44427" lon="8.911535"><ele>500.0</ele><time>2026-04-19T16:16:59.432Z</time></trkpt><trkpt lat="40.444245" lon="8.91172"><ele>500.0</ele><time>2026-04-19T16:17:00.432Z</time></trkpt><trkpt lat="40.4442467" lon="8.9118967"><ele>500.0</ele><time>2026-04-19T16:17:01.432Z</time></trkpt><trkpt lat="40.4442883" lon="8.9120567"><ele>500.0</ele><time>2026-04-19T16:17:02.433Z</time></trkpt><trkpt lat="40.44436" lon="8.9122"><ele>501.0</ele><time>2026-04-19T16:17:03.432Z</time></trkpt><trkpt lat="40.4444617" lon="8.912315"><ele>502.0</ele><time>2026-04-19T16:17:04.432Z</time></trkpt><trkpt lat="40.4445383" lon="8.9124283"><ele>503.0</ele><time>2026-04-19T16:17:05.432Z</time></trkpt><trkpt lat="40.4445617" lon="8.912555"><ele>504.0</ele><time>2026-04-19T16:17:06.433Z</time></trkpt><trkpt lat="40.44455" lon="8.9127017"><ele>507.0</ele><time>2026-04-19T16:17:07.432Z</time></trkpt><trkpt lat="40.444505" lon="8.9128483"><ele>510.0</ele><time>2026-04-19T16:17:08.432Z</time></trkpt><trkpt lat="40.44443" lon="8.9129817"><ele>513.0</ele><time>2026-04-19T16:17:09.432Z</time></trkpt><trkpt lat="40.4443267" lon="8.913075"><ele>516.0</ele><time>2026-04-19T16:17:10.433Z</time></trkpt><trkpt lat="40.4442017" lon="8.9131267"><ele>516.0</ele><time>2026-04-19T16:17:11.432Z</time></trkpt><trkpt lat="40.4440833" lon="8.9131383"><ele>516.0</ele><time>2026-04-19T16:17:12.433Z</time></trkpt><trkpt lat="40.4439617" lon="8.9131033"><ele>516.0</ele><time>2026-04-19T16:17:13.432Z</time></trkpt><trkpt lat="40.44383" lon="8.913015"><ele>516.0</ele><time>2026-04-19T16:17:14.432Z</time></trkpt><trkpt lat="40.4436933" lon="8.9129267"><ele>517.0</ele><time>2026-04-19T16:17:15.432Z</time></trkpt><trkpt lat="40.4435617" lon="8.9128617"><ele>518.0</ele><time>2026-04-19T16:17:16.433Z</time></trkpt><trkpt lat="40.4434267" lon="8.91285"><ele>519.0</ele><time>2026-04-19T16:17:17.433Z</time></trkpt><trkpt lat="40.4432967" lon="8.9129133"><ele>520.0</ele><time>2026-04-19T16:17:18.433Z</time></trkpt><trkpt lat="40.4431883" lon="8.91302"><ele>520.0</ele><time>2026-04-19T16:17:19.433Z</time></trkpt><trkpt lat="40.44311" lon="8.9131717"><ele>520.0</ele><time>2026-04-19T16:17:20.433Z</time></trkpt><trkpt lat="40.4430533" lon="8.91336"><ele>520.0</ele><time>2026-04-19T16:17:21.433Z</time></trkpt><trkpt lat="40.4430133" lon="8.9135617"><ele>521.0</ele><time>2026-04-19T16:17:22.432Z</time></trkpt><trkpt lat="40.442975" lon="8.9137683"><ele>522.0</ele><time>2026-04-19T16:17:23.432Z</time></trkpt><trkpt lat="40.4429317" lon="8.9139683"><ele>523.0</ele><time>2026-04-19T16:17:24.432Z</time></trkpt><trkpt lat="40.4428867" lon="8.9141683"><ele>526.3333333333334</ele><time>2026-04-19T16:17:25.432Z</time></trkpt><trkpt lat="40.4428367" lon="8.9143667"><ele>529.6666666666666</ele><time>2026-04-19T16:17:26.432Z</time></trkpt><trkpt lat="40.442785" lon="8.914575"><ele>533.0</ele><time>2026-04-19T16:17:27.433Z</time></trkpt><trkpt lat="40.4427433" lon="8.914785"><ele>533.0</ele><time>2026-04-19T16:17:28.433Z</time></trkpt><trkpt lat="40.4427017" lon="8.914985"><ele>533.0</ele><time>2026-04-19T16:17:29.433Z</time></trkpt><trkpt lat="40.442665" lon="8.91516"><ele>533.0</ele><time>2026-04-19T16:17:30.432Z</time></trkpt><trkpt lat="40.4426183" lon="8.9153533"><ele>534.0</ele><time>2026-04-19T16:17:31.432Z</time></trkpt><trkpt lat="40.44257" lon="8.9155717"><ele>535.0</ele><time>2026-04-19T16:17:32.432Z</time></trkpt><trkpt lat="40.4425317" lon="8.9157867"><ele>536.0</ele><time>2026-04-19T16:17:33.433Z</time></trkpt><trkpt lat="40.4424883" lon="8.915995"><ele>537.3333333333333</ele><time>2026-04-19T16:17:34.432Z</time></trkpt><trkpt lat="40.4424467" lon="8.9161917"><ele>538.6666666666666</ele><time>2026-04-19T16:17:35.432Z</time></trkpt><trkpt lat="40.442405" lon="8.9163917"><ele>540.0</ele><time>2026-04-19T16:17:36.433Z</time></trkpt><trkpt lat="40.442365" lon="8.9165917"><ele>542.0</ele><time>2026-04-19T16:17:37.432Z</time></trkpt><trkpt lat="40.4423233" lon="8.916815"><ele>544.0</ele><time>2026-04-19T16:17:38.432Z</time></trkpt><trkpt lat="40.4422683" lon="8.9170367"><ele>546.0</ele><time>2026-04-19T16:17:39.433Z</time></trkpt><trkpt lat="40.4422267" lon="8.9172633"><ele>546.0</ele><time>2026-04-19T16:17:40.432Z</time></trkpt><trkpt lat="40.4421717" lon="8.917485"><ele>546.0</ele><time>2026-04-19T16:17:41.432Z</time></trkpt><trkpt lat="40.4421183" lon="8.9176833"><ele>546.0</ele><time>2026-04-19T16:17:42.432Z</time></trkpt><trkpt lat="40.4420483" lon="8.9178867"><ele>548.3333333333334</ele><time>2026-04-19T16:17:43.433Z</time></trkpt><trkpt lat="40.44196" lon="8.9180717"><ele>550.6666666666667</ele><time>2026-04-19T16:17:44.432Z</time></trkpt><trkpt lat="40.441875" lon="8.9182683"><ele>553.0</ele><time>2026-04-19T16:17:45.432Z</time></trkpt><trkpt lat="40.4417833" lon="8.91846"><ele>554.0</ele><time>2026-04-19T16:17:46.432Z</time></trkpt><trkpt lat="40.4416917" lon="8.918655"><ele>555.0</ele><time>2026-04-19T16:17:47.432Z</time></trkpt><trkpt lat="40.4416" lon="8.91885"><ele>556.0</ele><time>2026-04-19T16:17:48.432Z</time></trkpt><trkpt lat="40.4415133" lon="8.9190467"><ele>558.0</ele><time>2026-04-19T16:17:49.432Z</time></trkpt><trkpt lat="40.4414333" lon="8.9192467"><ele>560.0</ele><time>2026-04-19T16:17:50.433Z</time></trkpt><trkpt lat="40.4413567" lon="8.9194533"><ele>562.0</ele><time>2026-04-19T16:17:51.433Z</time></trkpt><trkpt lat="40.4412817" lon="8.91966"><ele>563.3333333333334</ele><time>2026-04-19T16:17:52.432Z</time></trkpt><trkpt lat="40.44121" lon="8.919875"><ele>564.6666666666666</ele><time>2026-04-19T16:17:53.433Z</time></trkpt><trkpt lat="40.4411383" lon="8.92009"><ele>566.0</ele><time>2026-04-19T16:17:54.433Z</time></trkpt><trkpt lat="40.4410733" lon="8.9203133"><ele>567.6666666666666</ele><time>2026-04-19T16:17:55.432Z</time></trkpt><trkpt lat="40.4410233" lon="8.920535"><ele>569.3333333333334</ele><time>2026-04-19T16:17:56.432Z</time></trkpt><trkpt lat="40.44098" lon="8.9207633"><ele>571.0</ele><time>2026-04-19T16:17:57.433Z</time></trkpt><trkpt lat="40.44094" lon="8.920995"><ele>573.3333333333334</ele><time>2026-04-19T16:17:58.432Z</time></trkpt><trkpt lat="40.4408867" lon="8.9212217"><ele>575.6666666666666</ele><time>2026-04-19T16:17:59.432Z</time></trkpt><trkpt lat="40.44083" lon="8.9214433"><ele>578.0</ele><time>2026-04-19T16:18:00.432Z</time></trkpt><trkpt lat="40.440755" lon="8.9216717"><ele>581.6666666666666</ele><time>2026-04-19T16:18:01.433Z</time></trkpt><trkpt lat="40.4406783" lon="8.9218817"><ele>585.3333333333334</ele><time>2026-04-19T16:18:02.432Z</time></trkpt><trkpt lat="40.4405967" lon="8.9220867"><ele>589.0</ele><time>2026-04-19T16:18:03.433Z</time></trkpt><trkpt lat="40.44051" lon="8.9222867"><ele>586.6666666666667</ele><time>2026-04-19T16:18:04.433Z</time></trkpt><trkpt lat="40.4404117" lon="8.9224867"><ele>584.3333333333334</ele><time>2026-04-19T16:18:05.432Z</time></trkpt><trkpt lat="40.4403133" lon="8.9226917"><ele>582.0</ele><time>2026-04-19T16:18:06.433Z</time></trkpt><trkpt lat="40.440225" lon="8.9228967"><ele>586.6666666666666</ele><time>2026-04-19T16:18:07.433Z</time></trkpt><trkpt lat="40.4401433" lon="8.92309"><ele>591.3333333333333</ele><time>2026-04-19T16:18:08.432Z</time></trkpt><trkpt lat="40.4400633" lon="8.9232683"><ele>596.0</ele><time>2026-04-19T16:18:09.433Z</time></trkpt><trkpt lat="40.4399683" lon="8.92341"><ele>599.75</ele><time>2026-04-19T16:18:10.432Z</time></trkpt><trkpt lat="40.43986" lon="8.9235033"><ele>603.5</ele><time>2026-04-19T16:18:11.433Z</time></trkpt><trkpt lat="40.43973" lon="8.9235433"><ele>607.25</ele><time>2026-04-19T16:18:12.432Z</time></trkpt><trkpt lat="40.439575" lon="8.92354"><ele>611.0</ele><time>2026-04-19T16:18:13.432Z</time></trkpt><trkpt lat="40.439405" lon="8.9235183"><ele>612.3333333333333</ele><time>2026-04-19T16:18:14.433Z</time></trkpt><trkpt lat="40.439235" lon="8.9235033"><ele>613.6666666666666</ele><time>2026-04-19T16:18:15.432Z</time></trkpt><trkpt lat="40.4390583" lon="8.9234817"><ele>615.0</ele><time>2026-04-19T16:18:16.432Z</time></trkpt><trkpt lat="40.4388817" lon="8.9234317"><ele>614.6666666666666</ele><time>2026-04-19T16:18:17.433Z</time></trkpt><trkpt lat="40.43871" lon="8.9233367"><ele>614.3333333333333</ele><time>2026-04-19T16:18:18.432Z</time></trkpt><trkpt lat="40.4385583" lon="8.923215"><ele>614.0</ele><time>2026-04-19T16:18:19.432Z</time></trkpt><trkpt lat="40.4384283" lon="8.923105"><ele>614.0</ele><time>2026-04-19T16:18:20.433Z</time></trkpt><trkpt lat="40.4382933" lon="8.9230033"><ele>614.0</ele><time>2026-04-19T16:18:21.433Z</time></trkpt><trkpt lat="40.4381533" lon="8.922925"><ele>614.0</ele><time>2026-04-19T16:18:22.432Z</time></trkpt><trkpt lat="40.43799" lon="8.9228717"><ele>617.3333333333333</ele><time>2026-04-19T16:18:23.433Z</time></trkpt><trkpt lat="40.4378267" lon="8.9228483"><ele>620.6666666666666</ele><time>2026-04-19T16:18:24.432Z</time></trkpt><trkpt lat="40.437665" lon="8.9228683"><ele>624.0</ele><time>2026-04-19T16:18:25.432Z</time></trkpt><trkpt lat="40.4375083" lon="8.9229133"><ele>624.0</ele><time>2026-04-19T16:18:26.432Z</time></trkpt><trkpt lat="40.4373517" lon="8.9229867"><ele>624.0</ele><time>2026-04-19T16:18:27.432Z</time></trkpt><trkpt lat="40.4371933" lon="8.9230733"><ele>624.0</ele><time>2026-04-19T16:18:28.432Z</time></trkpt><trkpt lat="40.4370267" lon="8.9231717"><ele>624.0</ele><time>2026-04-19T16:18:29.433Z</time></trkpt><trkpt lat="40.4368667" lon="8.9232817"><ele>624.0</ele><time>2026-04-19T16:18:30.433Z</time></trkpt><trkpt lat="40.4366967" lon="8.92337"><ele>624.0</ele><time>2026-04-19T16:18:31.433Z</time></trkpt><trkpt lat="40.4365267" lon="8.92345"><ele>629.3333333333334</ele><time>2026-04-19T16:18:32.432Z</time></trkpt><trkpt lat="40.436355" lon="8.923505"><ele>634.6666666666667</ele><time>2026-04-19T16:18:33.432Z</time></trkpt><trkpt lat="40.4361783" lon="8.9235433"><ele>640.0</ele><time>2026-04-19T16:18:34.432Z</time></trkpt><trkpt lat="40.4360017" lon="8.9235667"><ele>641.6666666666667</ele><time>2026-04-19T16:18:35.432Z</time></trkpt><trkpt lat="40.4358233" lon="8.9235583"><ele>643.3333333333334</ele><time>2026-04-19T16:18:36.433Z</time></trkpt><trkpt lat="40.4356483" lon="8.9235467"><ele>645.0</ele><time>2026-04-19T16:18:37.432Z</time></trkpt><trkpt lat="40.4354717" lon="8.9235217"><ele>648.0</ele><time>2026-04-19T16:18:38.433Z</time></trkpt><trkpt lat="40.435305" lon="8.9235"><ele>651.0</ele><time>2026-04-19T16:18:39.432Z</time></trkpt><trkpt lat="40.43513" lon="8.9234933"><ele>654.0</ele><time>2026-04-19T16:18:40.433Z</time></trkpt><trkpt lat="40.434945" lon="8.92348"><ele>654.0</ele><time>2026-04-19T16:18:41.433Z</time></trkpt><trkpt lat="40.4347667" lon="8.923445"><ele>654.0</ele><time>2026-04-19T16:18:42.432Z</time></trkpt><trkpt lat="40.4345883" lon="8.9233883"><ele>654.0</ele><time>2026-04-19T16:18:43.433Z</time></trkpt><trkpt lat="40.43442" lon="8.9233217"><ele>651.3333333333334</ele><time>2026-04-19T16:18:44.433Z</time></trkpt><trkpt lat="40.4342367" lon="8.923265"><ele>648.6666666666667</ele><time>2026-04-19T16:18:45.432Z</time></trkpt><trkpt lat="40.4340733" lon="8.9232"><ele>646.0</ele><time>2026-04-19T16:18:46.432Z</time></trkpt><trkpt lat="40.4339067" lon="8.923145"><ele>649.3333333333334</ele><time>2026-04-19T16:18:47.432Z</time></trkpt><trkpt lat="40.4337333" lon="8.923095"><ele>652.6666666666666</ele><time>2026-04-19T16:18:48.433Z</time></trkpt><trkpt lat="40.4335583" lon="8.9230467"><ele>656.0</ele><time>2026-04-19T16:18:49.432Z</time></trkpt><trkpt lat="40.433385" lon="8.9229983"><ele>656.0</ele><time>2026-04-19T16:18:50.432Z</time></trkpt><trkpt lat="40.4332133" lon="8.9229367"><ele>656.0</ele><time>2026-04-19T16:18:51.432Z</time></trkpt><trkpt lat="40.4330433" lon="8.9228567"><ele>656.0</ele><time>2026-04-19T16:18:52.432Z</time></trkpt><trkpt lat="40.4328833" lon="8.9227517"><ele>657.6666666666666</ele><time>2026-04-19T16:18:53.432Z</time></trkpt><trkpt lat="40.43273" lon="8.9226217"><ele>659.3333333333334</ele><time>2026-04-19T16:18:54.433Z</time></trkpt><trkpt lat="40.4325717" lon="8.9224733"><ele>661.0</ele><time>2026-04-19T16:18:55.432Z</time></trkpt><trkpt lat="40.43241" lon="8.92233"><ele>661.0</ele><time>2026-04-19T16:18:56.433Z</time></trkpt><trkpt lat="40.43225" lon="8.9221883"><ele>661.0</ele><time>2026-04-19T16:18:57.432Z</time></trkpt><trkpt lat="40.4320767" lon="8.9220517"><ele>661.0</ele><time>2026-04-19T16:18:58.432Z</time></trkpt><trkpt lat="40.4319" lon="8.9219167"><ele>662.6666666666667</ele><time>2026-04-19T16:18:59.432Z</time></trkpt><trkpt lat="40.4317183" lon="8.9217883"><ele>664.3333333333334</ele><time>2026-04-19T16:19:00.433Z</time></trkpt><trkpt lat="40.4315433" lon="8.9216617"><ele>666.0</ele><time>2026-04-19T16:19:01.432Z</time></trkpt><trkpt lat="40.431365" lon="8.92154"><ele>671.6666666666666</ele><time>2026-04-19T16:19:02.433Z</time></trkpt><trkpt lat="40.4311833" lon="8.9214233"><ele>677.3333333333333</ele><time>2026-04-19T16:19:03.433Z</time></trkpt><trkpt lat="40.431" lon="8.9213033"><ele>683.0</ele><time>2026-04-19T16:19:04.433Z</time></trkpt><trkpt lat="40.4308283" lon="8.9211767"><ele>683.0</ele><time>2026-04-19T16:19:05.432Z</time></trkpt><trkpt lat="40.4306583" lon="8.9210667"><ele>683.0</ele><time>2026-04-19T16:19:06.433Z</time></trkpt><trkpt lat="40.4304917" lon="8.9209483"><ele>683.0</ele><time>2026-04-19T16:19:07.432Z</time></trkpt><trkpt lat="40.4303183" lon="8.9208283"><ele>683.3333333333333</ele><time>2026-04-19T16:19:08.433Z</time></trkpt><trkpt lat="40.4301533" lon="8.92071"><ele>683.6666666666666</ele><time>2026-04-19T16:19:09.433Z</time></trkpt><trkpt lat="40.429995" lon="8.920605"><ele>684.0</ele><time>2026-04-19T16:19:10.432Z</time></trkpt><trkpt lat="40.4298367" lon="8.9205083"><ele>684.0</ele><time>2026-04-19T16:19:11.432Z</time></trkpt><trkpt lat="40.429675" lon="8.9204033"><ele>684.0</ele><time>2026-04-19T16:19:12.433Z</time></trkpt><trkpt lat="40.4295183" lon="8.9202967"><ele>684.0</ele><time>2026-04-19T16:19:13.433Z</time></trkpt><trkpt lat="40.42935" lon="8.920205"><ele>685.0</ele><time>2026-04-19T16:19:14.433Z</time></trkpt><trkpt lat="40.42918" lon="8.920135"><ele>686.0</ele><time>2026-04-19T16:19:15.432Z</time></trkpt><trkpt lat="40.4290033" lon="8.9200783"><ele>687.0</ele><time>2026-04-19T16:19:16.433Z</time></trkpt><trkpt lat="40.4288217" lon="8.92004"><ele>689.6666666666666</ele><time>2026-04-19T16:19:17.433Z</time></trkpt><trkpt lat="40.4286367" lon="8.9200167"><ele>692.3333333333333</ele><time>2026-04-19T16:19:18.432Z</time></trkpt><trkpt lat="40.42845" lon="8.9199883"><ele>695.0</ele><time>2026-04-19T16:19:19.433Z</time></trkpt><trkpt lat="40.4282617" lon="8.9199617"><ele>695.0</ele><time>2026-04-19T16:19:20.433Z</time></trkpt><trkpt lat="40.42808" lon="8.9199383"><ele>695.0</ele><time>2026-04-19T16:19:21.432Z</time></trkpt><trkpt lat="40.4279083" lon="8.9198867"><ele>695.0</ele><time>2026-04-19T16:19:22.432Z</time></trkpt><trkpt lat="40.427745" lon="8.9197917"><ele>698.6666666666666</ele><time>2026-04-19T16:19:23.433Z</time></trkpt><trkpt lat="40.4275933" lon="8.9196717"><ele>702.3333333333334</ele><time>2026-04-19T16:19:24.432Z</time></trkpt><trkpt lat="40.4274667" lon="8.9195"><ele>706.0</ele><time>2026-04-19T16:19:25.432Z</time></trkpt><trkpt lat="40.42735" lon="8.9193217"><ele>704.6666666666667</ele><time>2026-04-19T16:19:26.432Z</time></trkpt><trkpt lat="40.4272333" lon="8.9191333"><ele>703.3333333333334</ele><time>2026-04-19T16:19:27.433Z</time></trkpt><trkpt lat="40.4271017" lon="8.9189517"><ele>702.0</ele><time>2026-04-19T16:19:28.432Z</time></trkpt><trkpt lat="40.4269833" lon="8.9187817"><ele>706.0</ele><time>2026-04-19T16:19:29.432Z</time></trkpt><trkpt lat="40.42688" lon="8.9185967"><ele>710.0</ele><time>2026-04-19T16:19:30.432Z</time></trkpt><trkpt lat="40.426805" lon="8.9183917"><ele>714.0</ele><time>2026-04-19T16:19:31.433Z</time></trkpt><trkpt lat="40.4267567" lon="8.91818"><ele>714.0</ele><time>2026-04-19T16:19:32.433Z</time></trkpt><trkpt lat="40.4267317" lon="8.9179633"><ele>714.0</ele><time>2026-04-19T16:19:33.432Z</time></trkpt><trkpt lat="40.426705" lon="8.91777"><ele>714.0</ele><time>2026-04-19T16:19:34.432Z</time></trkpt><trkpt lat="40.426665" lon="8.91759"><ele>713.8000000000001</ele><time>2026-04-19T16:19:35.432Z</time></trkpt><trkpt lat="40.4266133" lon="8.9174367"><ele>713.6</ele><time>2026-04-19T16:19:36.432Z</time></trkpt><trkpt lat="40.426545" lon="8.917315"><ele>713.4</ele><time>2026-04-19T16:19:37.432Z</time></trkpt><trkpt lat="40.4264583" lon="8.91724"><ele>713.2</ele><time>2026-04-19T16:19:38.432Z</time></trkpt><trkpt lat="40.426365" lon="8.9172283"><ele>713.0</ele><time>2026-04-19T16:19:39.432Z</time></trkpt><trkpt lat="40.4262733" lon="8.9172783"><ele>717.75</ele><time>2026-04-19T16:19:40.433Z</time></trkpt><trkpt lat="40.4261983" lon="8.9173717"><ele>722.5</ele><time>2026-04-19T16:19:41.432Z</time></trkpt><trkpt lat="40.426145" lon="8.9175067"><ele>727.25</ele><time>2026-04-19T16:19:42.433Z</time></trkpt><trkpt lat="40.4261183" lon="8.91767"><ele>732.0</ele><time>2026-04-19T16:19:43.433Z</time></trkpt><trkpt lat="40.426105" lon="8.917865"><ele>732.0</ele><time>2026-04-19T16:19:44.432Z</time></trkpt><trkpt lat="40.4260767" lon="8.9180617"><ele>732.0</ele><time>2026-04-19T16:19:45.433Z</time></trkpt><trkpt lat="40.42605" lon="8.9182617"><ele>732.0</ele><time>2026-04-19T16:19:46.432Z</time></trkpt><trkpt lat="40.4260183" lon="8.918475"><ele>732.0</ele><time>2026-04-19T16:19:47.433Z</time></trkpt><trkpt lat="40.4259817" lon="8.91868"><ele>732.0</ele><time>2026-04-19T16:19:48.432Z</time></trkpt><trkpt lat="40.4259467" lon="8.91888"><ele>732.0</ele><time>2026-04-19T16:19:49.433Z</time></trkpt><trkpt lat="40.425905" lon="8.9190883"><ele>732.6666666666666</ele><time>2026-04-19T16:19:50.433Z</time></trkpt><trkpt lat="40.425865" lon="8.9193"><ele>733.3333333333333</ele><time>2026-04-19T16:19:51.433Z</time></trkpt><trkpt lat="40.4258283" lon="8.9195033"><ele>734.0</ele><time>2026-04-19T16:19:52.432Z</time></trkpt><trkpt lat="40.425795" lon="8.91971"><ele>734.0</ele><time>2026-04-19T16:19:53.433Z</time></trkpt><trkpt lat="40.4257567" lon="8.9199083"><ele>734.0</ele><time>2026-04-19T16:19:54.433Z</time></trkpt><trkpt lat="40.4257183" lon="8.92012"><ele>734.0</ele><time>2026-04-19T16:19:55.432Z</time></trkpt><trkpt lat="40.4256833" lon="8.9203183"><ele>735.0</ele><time>2026-04-19T16:19:56.433Z</time></trkpt><trkpt lat="40.425655" lon="8.9205383"><ele>736.0</ele><time>2026-04-19T16:19:57.433Z</time></trkpt><trkpt lat="40.4256333" lon="8.9207583"><ele>737.0</ele><time>2026-04-19T16:19:58.432Z</time></trkpt><trkpt lat="40.4256233" lon="8.9209583"><ele>738.6666666666666</ele><time>2026-04-19T16:19:59.433Z</time></trkpt><trkpt lat="40.4256183" lon="8.921165"><ele>740.3333333333334</ele><time>2026-04-19T16:20:00.433Z</time></trkpt><trkpt lat="40.42562" lon="8.9213767"><ele>742.0</ele><time>2026-04-19T16:20:01.433Z</time></trkpt><trkpt lat="40.4256383" lon="8.9216033"><ele>745.3333333333334</ele><time>2026-04-19T16:20:02.432Z</time></trkpt><trkpt lat="40.4256767" lon="8.9218333"><ele>748.6666666666666</ele><time>2026-04-19T16:20:03.432Z</time></trkpt><trkpt lat="40.4257317" lon="8.9220433"><ele>752.0</ele><time>2026-04-19T16:20:04.433Z</time></trkpt><trkpt lat="40.4258" lon="8.9222483"><ele>752.0</ele><time>2026-04-19T16:20:05.432Z</time></trkpt><trkpt lat="40.4258817" lon="8.9224517"><ele>752.0</ele><time>2026-04-19T16:20:06.433Z</time></trkpt><trkpt lat="40.425965" lon="8.9226533"><ele>752.0</ele><time>2026-04-19T16:20:07.432Z</time></trkpt><trkpt lat="40.4260433" lon="8.9228583"><ele>754.3333333333333</ele><time>2026-04-19T16:20:08.432Z</time></trkpt><trkpt lat="40.42613" lon="8.9230533"><ele>756.6666666666666</ele><time>2026-04-19T16:20:09.433Z</time></trkpt><trkpt lat="40.42621" lon="8.9232483"><ele>759.0</ele><time>2026-04-19T16:20:10.432Z</time></trkpt><trkpt lat="40.4262783" lon="8.9234267"><ele>759.0</ele><time>2026-04-19T16:20:11.432Z</time></trkpt><trkpt lat="40.4263283" lon="8.9235867"><ele>759.0</ele><time>2026-04-19T16:20:12.432Z</time></trkpt><trkpt lat="40.42636" lon="8.923705"><ele>759.0</ele><time>2026-04-19T16:20:13.432Z</time></trkpt><trkpt lat="40.4263617" lon="8.9238183"><ele>759.0</ele><time>2026-04-19T16:20:14.433Z</time></trkpt><trkpt lat="40.4263433" lon="8.9239367"><ele>759.0</ele><time>2026-04-19T16:20:15.433Z</time></trkpt><trkpt lat="40.4263033" lon="8.9240383"><ele>759.6</ele><time>2026-04-19T16:20:16.432Z</time></trkpt><trkpt lat="40.4262417" lon="8.924135"><ele>760.2</ele><time>2026-04-19T16:20:17.432Z</time></trkpt><trkpt lat="40.4261667" lon="8.9242217"><ele>760.8000000000001</ele><time>2026-04-19T16:20:18.432Z</time></trkpt><trkpt lat="40.4260683" lon="8.9242867"><ele>761.4000000000001</ele><time>2026-04-19T16:20:19.432Z</time></trkpt><trkpt lat="40.4259633" lon="8.92433"><ele>762.0</ele><time>2026-04-19T16:20:20.432Z</time></trkpt><trkpt lat="40.4258383" lon="8.924345"><ele>762.0</ele><time>2026-04-19T16:20:21.432Z</time></trkpt><trkpt lat="40.4257083" lon="8.9243517"><ele>762.0</ele><time>2026-04-19T16:20:22.432Z</time></trkpt><trkpt lat="40.4255783" lon="8.924345"><ele>762.0</ele><time>2026-04-19T16:20:23.433Z</time></trkpt><trkpt lat="40.4254383" lon="8.9243333"><ele>762.0</ele><time>2026-04-19T16:20:24.432Z</time></trkpt><trkpt lat="40.4252917" lon="8.9243233"><ele>762.0</ele><time>2026-04-19T16:20:25.433Z</time></trkpt><trkpt lat="40.425145" lon="8.9243167"><ele>762.0</ele><time>2026-04-19T16:20:26.432Z</time></trkpt><trkpt lat="40.4249967" lon="8.92431"><ele>762.0</ele><time>2026-04-19T16:20:27.432Z</time></trkpt><trkpt lat="40.4248517" lon="8.9243"><ele>762.0</ele><time>2026-04-19T16:20:28.432Z</time></trkpt><trkpt lat="40.4247033" lon="8.9242933"><ele>761.6666666666666</ele><time>2026-04-19T16:20:29.433Z</time></trkpt><trkpt lat="40.4245567" lon="8.9242817"><ele>761.3333333333333</ele><time>2026-04-19T16:20:30.433Z</time></trkpt><trkpt lat="40.4243967" lon="8.924275"><ele>761.0</ele><time>2026-04-19T16:20:31.433Z</time></trkpt><trkpt lat="40.42424" lon="8.9242633"><ele>761.0</ele><time>2026-04-19T16:20:32.432Z</time></trkpt><trkpt lat="40.4240983" lon="8.9242467"><ele>761.0</ele><time>2026-04-19T16:20:33.433Z</time></trkpt><trkpt lat="40.42396" lon="8.9242383"><ele>761.0</ele><time>2026-04-19T16:20:34.433Z</time></trkpt><trkpt lat="40.4238183" lon="8.924225"><ele>761.0</ele><time>2026-04-19T16:20:35.432Z</time></trkpt><trkpt lat="40.4236933" lon="8.924185"><ele>760.0</ele><time>2026-04-19T16:20:36.432Z</time></trkpt><trkpt lat="40.4235767" lon="8.9241067"><ele>759.0</ele><time>2026-04-19T16:20:37.433Z</time></trkpt><trkpt lat="40.4234567" lon="8.9239933"><ele>758.0</ele><time>2026-04-19T16:20:38.433Z</time></trkpt><trkpt lat="40.4233567" lon="8.9238467"><ele>757.0</ele><time>2026-04-19T16:20:39.432Z</time></trkpt><trkpt lat="40.4232567" lon="8.9236783"><ele>757.0</ele><time>2026-04-19T16:20:40.433Z</time></trkpt><trkpt lat="40.4231817" lon="8.9235067"><ele>757.0</ele><time>2026-04-19T16:20:41.433Z</time></trkpt><trkpt lat="40.4230983" lon="8.9233417"><ele>757.0</ele><time>2026-04-19T16:20:42.433Z</time></trkpt><trkpt lat="40.423015" lon="8.923195"><ele>757.0</ele><time>2026-04-19T16:20:43.433Z</time></trkpt><trkpt lat="40.4229217" lon="8.9230517"><ele>752.6666666666667</ele><time>2026-04-19T16:20:44.433Z</time></trkpt><trkpt lat="40.42282" lon="8.9229"><ele>748.3333333333334</ele><time>2026-04-19T16:20:45.433Z</time></trkpt><trkpt lat="40.42269" lon="8.9227667"><ele>744.0</ele><time>2026-04-19T16:20:46.433Z</time></trkpt><trkpt lat="40.4225333" lon="8.9226667"><ele>744.0</ele><time>2026-04-19T16:20:47.433Z</time></trkpt><trkpt lat="40.4223517" lon="8.922585"><ele>744.0</ele><time>2026-04-19T16:20:48.432Z</time></trkpt><trkpt lat="40.4221633" lon="8.9225017"><ele>744.0</ele><time>2026-04-19T16:20:49.432Z</time></trkpt><trkpt lat="40.4219683" lon="8.92241"><ele>743.3333333333334</ele><time>2026-04-19T16:20:50.433Z</time></trkpt><trkpt lat="40.4217783" lon="8.9223183"><ele>742.6666666666667</ele><time>2026-04-19T16:20:51.432Z</time></trkpt><trkpt lat="40.4215967" lon="8.9222333"><ele>742.0</ele><time>2026-04-19T16:20:52.433Z</time></trkpt><trkpt lat="40.42142" lon="8.9221533"><ele>740.0</ele><time>2026-04-19T16:20:53.432Z</time></trkpt><trkpt lat="40.4212517" lon="8.9220783"><ele>738.0</ele><time>2026-04-19T16:20:54.432Z</time></trkpt><trkpt lat="40.421095" lon="8.9220017"><ele>736.0</ele><time>2026-04-19T16:20:55.432Z</time></trkpt><trkpt lat="40.4209517" lon="8.9219267"><ele>736.0</ele><time>2026-04-19T16:20:56.433Z</time></trkpt><trkpt lat="40.4208167" lon="8.92187"><ele>736.0</ele><time>2026-04-19T16:20:57.432Z</time></trkpt><trkpt lat="40.42066" lon="8.9218483"><ele>736.0</ele><time>2026-04-19T16:20:58.432Z</time></trkpt><trkpt lat="40.4205117" lon="8.92187"><ele>736.0</ele><time>2026-04-19T16:20:59.432Z</time></trkpt><trkpt lat="40.4203667" lon="8.9219317"><ele>735.75</ele><time>2026-04-19T16:21:00.432Z</time></trkpt><trkpt lat="40.4202317" lon="8.922035"><ele>735.5</ele><time>2026-04-19T16:21:01.433Z</time></trkpt><trkpt lat="40.4201183" lon="8.9221583"><ele>735.25</ele><time>2026-04-19T16:21:02.432Z</time></trkpt><trkpt lat="40.420035" lon="8.922315"><ele>735.0</ele><time>2026-04-19T16:21:03.432Z</time></trkpt><trkpt lat="40.41997" lon="8.9225067"><ele>735.3333333333334</ele><time>2026-04-19T16:21:04.432Z</time></trkpt><trkpt lat="40.4199367" lon="8.922715"><ele>735.6666666666667</ele><time>2026-04-19T16:21:05.433Z</time></trkpt><trkpt lat="40.4199117" lon="8.922945"><ele>736.0</ele><time>2026-04-19T16:21:06.433Z</time></trkpt><trkpt lat="40.4198883" lon="8.9231783"><ele>735.0</ele><time>2026-04-19T16:21:07.432Z</time></trkpt><trkpt lat="40.4198683" lon="8.9233983"><ele>734.0</ele><time>2026-04-19T16:21:08.433Z</time></trkpt><trkpt lat="40.4198517" lon="8.9236117"><ele>733.0</ele><time>2026-04-19T16:21:09.433Z</time></trkpt><trkpt lat="40.4198183" lon="8.9238117"><ele>733.0</ele><time>2026-04-19T16:21:10.432Z</time></trkpt><trkpt lat="40.4197933" lon="8.9240117"><ele>733.0</ele><time>2026-04-19T16:21:11.433Z</time></trkpt><trkpt lat="40.41976" lon="8.9242283"><ele>733.0</ele><time>2026-04-19T16:21:12.432Z</time></trkpt><trkpt lat="40.41973" lon="8.9244367"><ele>733.0</ele><time>2026-04-19T16:21:13.432Z</time></trkpt><trkpt lat="40.41968" lon="8.9246633"><ele>733.0</ele><time>2026-04-19T16:21:14.432Z</time></trkpt><trkpt lat="40.41962" lon="8.9248933"><ele>733.0</ele><time>2026-04-19T16:21:15.432Z</time></trkpt><trkpt lat="40.419545" lon="8.9251183"><ele>733.0</ele><time>2026-04-19T16:21:16.433Z</time></trkpt><trkpt lat="40.4194567" lon="8.92536"><ele>733.0</ele><time>2026-04-19T16:21:17.432Z</time></trkpt><trkpt lat="40.4193683" lon="8.9256067"><ele>733.0</ele><time>2026-04-19T16:21:18.433Z</time></trkpt><trkpt lat="40.41927" lon="8.9258467"><ele>731.6666666666667</ele><time>2026-04-19T16:21:19.432Z</time></trkpt><trkpt lat="40.4191733" lon="8.9260917"><ele>730.3333333333334</ele><time>2026-04-19T16:21:20.433Z</time></trkpt><trkpt lat="40.4190783" lon="8.9263383"><ele>729.0</ele><time>2026-04-19T16:21:21.432Z</time></trkpt><trkpt lat="40.418985" lon="8.9265733"><ele>729.0</ele><time>2026-04-19T16:21:22.432Z</time></trkpt><trkpt lat="40.4188967" lon="8.92681"><ele>729.0</ele><time>2026-04-19T16:21:23.433Z</time></trkpt><trkpt lat="40.418825" lon="8.9270333"><ele>729.0</ele><time>2026-04-19T16:21:24.433Z</time></trkpt><trkpt lat="40.418775" lon="8.92726"><ele>729.6666666666666</ele><time>2026-04-19T16:21:25.432Z</time></trkpt><trkpt lat="40.41875" lon="8.92748"><ele>730.3333333333333</ele><time>2026-04-19T16:21:26.433Z</time></trkpt><trkpt lat="40.4187267" lon="8.927715"><ele>731.0</ele><time>2026-04-19T16:21:27.432Z</time></trkpt><trkpt lat="40.418705" lon="8.9279617"><ele>731.0</ele><time>2026-04-19T16:21:28.432Z</time></trkpt><trkpt lat="40.4186883" lon="8.92821"><ele>731.0</ele><time>2026-04-19T16:21:29.432Z</time></trkpt><trkpt lat="40.4186767" lon="8.92845"><ele>731.0</ele><time>2026-04-19T16:21:30.432Z</time></trkpt><trkpt lat="40.4186617" lon="8.92868"><ele>729.3333333333333</ele><time>2026-04-19T16:21:31.432Z</time></trkpt><trkpt lat="40.418635" lon="8.928885"><ele>727.6666666666666</ele><time>2026-04-19T16:21:32.432Z</time></trkpt><trkpt lat="40.4185933" lon="8.9290833"><ele>726.0</ele><time>2026-04-19T16:21:33.432Z</time></trkpt><trkpt lat="40.4185583" lon="8.92926"><ele>724.0</ele><time>2026-04-19T16:21:34.432Z</time></trkpt><trkpt lat="40.41853" lon="8.92941"><ele>724.0</ele><time>2026-04-19T16:21:35.433Z</time></trkpt><trkpt lat="40.4185067" lon="8.9295333"><ele>724.0</ele><time>2026-04-19T16:21:36.432Z</time></trkpt><trkpt lat="40.4184883" lon="8.9296183"><ele>724.0</ele><time>2026-04-19T16:21:37.433Z</time></trkpt><trkpt lat="40.41846" lon="8.9297267"><ele>724.0</ele><time>2026-04-19T16:21:39.432Z</time></trkpt></trkseg></trk></gpx>